<?xml version="1.0" encoding="UTF-8" standalone="no" ?>
<gpx xmlns="http://www.topografix.com/GPX/1/1" xmlns:xsi="http://www.w3.org/2001/XMLSchema-instance" xsi:schemaLocation="http://www.topografix.com/GPX/1/1 http://www.topografix.com/GPX/1/1/gpx.xsd" version="1.1" creator="VisuGPX - https://www.visugpx.com">
  <metadata>
    <name>Turquie_100points</name>
  </metadata>
  <trk>
    <name><![CDATA[bin-kay]]></name>
    <extensions>
      <line xmlns="http://www.topografix.com/GPX/gpx_style/0/2">
        <color>008888</color>
        <width>4</width>
      </line>
    </extensions>
    <trkseg>
      <trkpt lat="38.88833" lon="40.49817">
        <ele>1111.518841</ele>
        <time>2022-02-24T07:54:53.844Z</time>
      </trkpt>
      <trkpt lat="38.88913" lon="40.49522">
        <ele>1114.087514</ele>
        <time>2022-02-24T07:56:17.492Z</time>
      </trkpt>
      <trkpt lat="38.88973" lon="40.49317">
        <ele>1118.786786</ele>
        <time>2022-02-24T07:57:28.573Z</time>
      </trkpt>
      <trkpt lat="38.88994" lon="40.49246">
        <ele>1120.390491</ele>
        <time>2022-02-24T07:57:55.360Z</time>
      </trkpt>
      <trkpt lat="38.89007" lon="40.49199">
        <ele>1121.30813</ele>
        <time>2022-02-24T07:58:13.189Z</time>
      </trkpt>
      <trkpt lat="38.89067" lon="40.48995">
        <ele>1124.559964</ele>
        <time>2022-02-24T07:59:14.426Z</time>
      </trkpt>
      <trkpt lat="38.89079" lon="40.48986">
        <ele>1124.70096</ele>
        <time>2022-02-24T07:59:17.641Z</time>
      </trkpt>
      <trkpt lat="38.89116" lon="40.48973">
        <ele>1125.072081</ele>
        <time>2022-02-24T07:59:27.851Z</time>
      </trkpt>
      <trkpt lat="38.89151" lon="40.48992">
        <ele>1125.44358</ele>
        <time>2022-02-24T07:59:39.917Z</time>
      </trkpt>
      <trkpt lat="38.89166" lon="40.48992">
        <ele>1125.591225</ele>
        <time>2022-02-24T07:59:45.710Z</time>
      </trkpt>
      <trkpt lat="38.89199" lon="40.48971">
        <ele>1126.501866</ele>
        <time>2022-02-24T07:59:58.709Z</time>
      </trkpt>
      <trkpt lat="38.89204" lon="40.48969">
        <ele>1126.712567</ele>
        <time>2022-02-24T08:00:00.046Z</time>
      </trkpt>
      <trkpt lat="38.89224" lon="40.48963">
        <ele>1127.664373</ele>
        <time>2022-02-24T08:00:06.609Z</time>
      </trkpt>
      <trkpt lat="38.89235" lon="40.48964">
        <ele>1128.213627</ele>
        <time>2022-02-24T08:00:12.088Z</time>
      </trkpt>
      <trkpt lat="38.89262" lon="40.48981">
        <ele>1129.605483</ele>
        <time>2022-02-24T08:00:24.562Z</time>
      </trkpt>
      <trkpt lat="38.89272" lon="40.48978">
        <ele>1130.074462</ele>
        <time>2022-02-24T08:00:29.940Z</time>
      </trkpt>
      <trkpt lat="38.89282" lon="40.48971">
        <ele>1130.592174</ele>
        <time>2022-02-24T08:00:35.058Z</time>
      </trkpt>
      <trkpt lat="38.89291" lon="40.48975">
        <ele>1131.005979</ele>
        <time>2022-02-24T08:00:39.223Z</time>
      </trkpt>
      <trkpt lat="38.89298" lon="40.48988">
        <ele>1131.617029</ele>
        <time>2022-02-24T08:00:46.723Z</time>
      </trkpt>
      <trkpt lat="38.893" lon="40.49055">
        <ele>1134.027248</ele>
        <time>2022-02-24T08:01:19.115Z</time>
      </trkpt>
      <trkpt lat="38.89293" lon="40.49147">
        <ele>1139.6229</ele>
        <time>2022-02-24T08:02:12.951Z</time>
      </trkpt>
      <trkpt lat="38.89299" lon="40.49166">
        <ele>1140.907364</ele>
        <time>2022-02-24T08:02:22.329Z</time>
      </trkpt>
      <trkpt lat="38.89332" lon="40.49215">
        <ele>1144.873785</ele>
        <time>2022-02-24T08:02:54.944Z</time>
      </trkpt>
      <trkpt lat="38.89344" lon="40.49224">
        <ele>1145.968555</ele>
        <time>2022-02-24T08:03:04.229Z</time>
      </trkpt>
      <trkpt lat="38.89358" lon="40.49219">
        <ele>1147.145752</ele>
        <time>2022-02-24T08:03:11.957Z</time>
      </trkpt>
      <trkpt lat="38.89365" lon="40.49205">
        <ele>1148.155637</ele>
        <time>2022-02-24T08:03:22.064Z</time>
      </trkpt>
      <trkpt lat="38.89363" lon="40.49215">
        <ele>1148.655604</ele>
        <time>2022-02-24T08:03:26.573Z</time>
      </trkpt>
      <trkpt lat="38.89359" lon="40.49236">
        <ele>1149.497611</ele>
        <time>2022-02-24T08:03:35.306Z</time>
      </trkpt>
      <trkpt lat="38.89369" lon="40.49236">
        <ele>1149.977554</ele>
        <time>2022-02-24T08:03:43.125Z</time>
      </trkpt>
      <trkpt lat="38.89373" lon="40.49166">
        <ele>1152.712634</ele>
        <time>2022-02-24T08:04:14.099Z</time>
      </trkpt>
      <trkpt lat="38.89471" lon="40.4915">
        <ele>1157.515451</ele>
        <time>2022-02-24T08:04:56.928Z</time>
      </trkpt>
      <trkpt lat="38.89512" lon="40.49144">
        <ele>1158.573988</ele>
        <time>2022-02-24T08:05:12.488Z</time>
      </trkpt>
      <trkpt lat="38.89552" lon="40.49139">
        <ele>1159.592488</ele>
        <time>2022-02-24T08:05:28.726Z</time>
      </trkpt>
      <trkpt lat="38.89559" lon="40.49138">
        <ele>1159.788012</ele>
        <time>2022-02-24T08:05:31.768Z</time>
      </trkpt>
      <trkpt lat="38.89561" lon="40.49144">
        <ele>1159.915775</ele>
        <time>2022-02-24T08:05:33.598Z</time>
      </trkpt>
      <trkpt lat="38.89564" lon="40.49149">
        <ele>1160.044191</ele>
        <time>2022-02-24T08:05:35.547Z</time>
      </trkpt>
      <trkpt lat="38.89568" lon="40.49153">
        <ele>1160.171875</ele>
        <time>2022-02-24T08:05:37.339Z</time>
      </trkpt>
      <trkpt lat="38.89572" lon="40.49155">
        <ele>1160.298409</ele>
        <time>2022-02-24T08:05:39.436Z</time>
      </trkpt>
      <trkpt lat="38.89577" lon="40.49155">
        <ele>1160.425567</ele>
        <time>2022-02-24T08:05:41.416Z</time>
      </trkpt>
      <trkpt lat="38.89582" lon="40.49153">
        <ele>1160.553882</ele>
        <time>2022-02-24T08:05:43.355Z</time>
      </trkpt>
      <trkpt lat="38.89586" lon="40.49149">
        <ele>1160.6836</ele>
        <time>2022-02-24T08:05:45.288Z</time>
      </trkpt>
      <trkpt lat="38.89589" lon="40.49144">
        <ele>1160.810374</ele>
        <time>2022-02-24T08:05:47.007Z</time>
      </trkpt>
      <trkpt lat="38.89591" lon="40.49138">
        <ele>1160.938868</ele>
        <time>2022-02-24T08:05:48.872Z</time>
      </trkpt>
      <trkpt lat="38.8959" lon="40.49131">
        <ele>1161.073661</ele>
        <time>2022-02-24T08:05:50.657Z</time>
      </trkpt>
      <trkpt lat="38.89588" lon="40.49125">
        <ele>1161.206486</ele>
        <time>2022-02-24T08:05:52.736Z</time>
      </trkpt>
      <trkpt lat="38.89583" lon="40.49103">
        <ele>1161.655098</ele>
        <time>2022-02-24T08:05:59.174Z</time>
      </trkpt>
      <trkpt lat="38.89567" lon="40.48805">
        <ele>1166.992526</ele>
        <time>2022-02-24T08:07:25.246Z</time>
      </trkpt>
      <trkpt lat="38.89564" lon="40.48763">
        <ele>1167.890184</ele>
        <time>2022-02-24T08:07:38.936Z</time>
      </trkpt>
      <trkpt lat="38.89563" lon="40.48751">
        <ele>1168.144</ele>
        <time>2022-02-24T08:07:42.695Z</time>
      </trkpt>
      <trkpt lat="38.89561" lon="40.48619">
        <ele>1170.985126</ele>
        <time>2022-02-24T08:08:24.148Z</time>
      </trkpt>
      <trkpt lat="38.89564" lon="40.48581">
        <ele>1171.930008</ele>
        <time>2022-02-24T08:08:36.478Z</time>
      </trkpt>
      <trkpt lat="38.89567" lon="40.48511">
        <ele>1173.663612</ele>
        <time>2022-02-24T08:08:59.344Z</time>
      </trkpt>
      <trkpt lat="38.89578" lon="40.48451">
        <ele>1175.188493</ele>
        <time>2022-02-24T08:09:19.557Z</time>
      </trkpt>
      <trkpt lat="38.89595" lon="40.48363">
        <ele>1177.520738</ele>
        <time>2022-02-24T08:09:49.290Z</time>
      </trkpt>
      <trkpt lat="38.8962" lon="40.48265">
        <ele>1180.393773</ele>
        <time>2022-02-24T08:10:24.697Z</time>
      </trkpt>
      <trkpt lat="38.89656" lon="40.48165">
        <ele>1183.361803</ele>
        <time>2022-02-24T08:11:03.150Z</time>
      </trkpt>
      <trkpt lat="38.89697" lon="40.48077">
        <ele>1185.788409</ele>
        <time>2022-02-24T08:11:37.619Z</time>
      </trkpt>
      <trkpt lat="38.89804" lon="40.47877">
        <ele>1190.2067</ele>
        <time>2022-02-24T08:12:50.149Z</time>
      </trkpt>
      <trkpt lat="38.90108" lon="40.47358">
        <ele>1195.877072</ele>
        <time>2022-02-24T08:15:26.558Z</time>
      </trkpt>
      <trkpt lat="38.90117" lon="40.47336">
        <ele>1196.196276</ele>
        <time>2022-02-24T08:15:33.532Z</time>
      </trkpt>
      <trkpt lat="38.90121" lon="40.47333">
        <ele>1196.278413</ele>
        <time>2022-02-24T08:15:35.111Z</time>
      </trkpt>
      <trkpt lat="38.90126" lon="40.47323">
        <ele>1196.433339</ele>
        <time>2022-02-24T08:15:38.166Z</time>
      </trkpt>
      <trkpt lat="38.90126" lon="40.47317">
        <ele>1196.512048</ele>
        <time>2022-02-24T08:15:39.686Z</time>
      </trkpt>
      <trkpt lat="38.90133" lon="40.47298">
        <ele>1196.783189</ele>
        <time>2022-02-24T08:15:45.914Z</time>
      </trkpt>
      <trkpt lat="38.90182" lon="40.47135">
        <ele>1199.720434</ele>
        <time>2022-02-24T08:16:37.880Z</time>
      </trkpt>
      <trkpt lat="38.9021" lon="40.4701">
        <ele>1202.241745</ele>
        <time>2022-02-24T08:17:17.905Z</time>
      </trkpt>
      <trkpt lat="38.90336" lon="40.4618">
        <ele>1218.028019</ele>
        <time>2022-02-24T08:21:29.497Z</time>
      </trkpt>
      <trkpt lat="38.90371" lon="40.46005">
        <ele>1222.520092</ele>
        <time>2022-02-24T08:22:20.761Z</time>
      </trkpt>
      <trkpt lat="38.90467" lon="40.45621">
        <ele>1238.731481</ele>
        <time>2022-02-24T08:25:05.984Z</time>
      </trkpt>
      <trkpt lat="38.90488" lon="40.45545">
        <ele>1243.175789</ele>
        <time>2022-02-24T08:25:44.787Z</time>
      </trkpt>
      <trkpt lat="38.90506" lon="40.45496">
        <ele>1246.174351</ele>
        <time>2022-02-24T08:26:11.616Z</time>
      </trkpt>
      <trkpt lat="38.90597" lon="40.45292">
        <ele>1260.22424</ele>
        <time>2022-02-24T08:28:10.026Z</time>
      </trkpt>
      <trkpt lat="38.90664" lon="40.4513">
        <ele>1271.242938</ele>
        <time>2022-02-24T08:29:40.942Z</time>
      </trkpt>
      <trkpt lat="38.9073" lon="40.44907">
        <ele>1285.232776</ele>
        <time>2022-02-24T08:31:38.328Z</time>
      </trkpt>
      <trkpt lat="38.90839" lon="40.44679">
        <ele>1299.717558</ele>
        <time>2022-02-24T08:33:46.382Z</time>
      </trkpt>
      <trkpt lat="38.90893" lon="40.44599">
        <ele>1303.881285</ele>
        <time>2022-02-24T08:34:30.057Z</time>
      </trkpt>
      <trkpt lat="38.90922" lon="40.44568">
        <ele>1305.166466</ele>
        <time>2022-02-24T08:34:47.724Z</time>
      </trkpt>
      <trkpt lat="38.91002" lon="40.44507">
        <ele>1308.341926</ele>
        <time>2022-02-24T08:35:24.496Z</time>
      </trkpt>
      <trkpt lat="38.9108" lon="40.44427">
        <ele>1308.159886</ele>
        <time>2022-02-24T08:35:53.124Z</time>
      </trkpt>
      <trkpt lat="38.91145" lon="40.44338">
        <ele>1307.520105</ele>
        <time>2022-02-24T08:36:13.685Z</time>
      </trkpt>
      <trkpt lat="38.91185" lon="40.44261">
        <ele>1305.400634</ele>
        <time>2022-02-24T08:36:28.148Z</time>
      </trkpt>
      <trkpt lat="38.91245" lon="40.44121">
        <ele>1301.59937</ele>
        <time>2022-02-24T08:36:52.122Z</time>
      </trkpt>
      <trkpt lat="38.91293" lon="40.43992">
        <ele>1297.586244</ele>
        <time>2022-02-24T08:37:13.371Z</time>
      </trkpt>
      <trkpt lat="38.91393" lon="40.43689">
        <ele>1291.368149</ele>
        <time>2022-02-24T08:38:03.289Z</time>
      </trkpt>
      <trkpt lat="38.91476" lon="40.43511">
        <ele>1295.078173</ele>
        <time>2022-02-24T08:39:11.493Z</time>
      </trkpt>
      <trkpt lat="38.91556" lon="40.43315">
        <ele>1304.595262</ele>
        <time>2022-02-24T08:40:47.848Z</time>
      </trkpt>
      <trkpt lat="38.91619" lon="40.43202">
        <ele>1310.403293</ele>
        <time>2022-02-24T08:41:43.767Z</time>
      </trkpt>
      <trkpt lat="38.91745" lon="40.43044">
        <ele>1320.143623</ele>
        <time>2022-02-24T08:43:15.023Z</time>
      </trkpt>
      <trkpt lat="38.91788" lon="40.42969">
        <ele>1324.222144</ele>
        <time>2022-02-24T08:43:56.288Z</time>
      </trkpt>
      <trkpt lat="38.91813" lon="40.42901">
        <ele>1327.282626</ele>
        <time>2022-02-24T08:44:29.807Z</time>
      </trkpt>
      <trkpt lat="38.91861" lon="40.4272">
        <ele>1334.113767</ele>
        <time>2022-02-24T08:45:45.641Z</time>
      </trkpt>
      <trkpt lat="38.91891" lon="40.42556">
        <ele>1336.482465</ele>
        <time>2022-02-24T08:46:30.023Z</time>
      </trkpt>
      <trkpt lat="38.91898" lon="40.42496">
        <ele>1336.499356</ele>
        <time>2022-02-24T08:46:41.247Z</time>
      </trkpt>
      <trkpt lat="38.91905" lon="40.42246">
        <ele>1335.599197</ele>
        <time>2022-02-24T08:47:23.656Z</time>
      </trkpt>
      <trkpt lat="38.9191" lon="40.42157">
        <ele>1336.97151</ele>
        <time>2022-02-24T08:47:45.444Z</time>
      </trkpt>
      <trkpt lat="38.9193" lon="40.41954">
        <ele>1344.634483</ele>
        <time>2022-02-24T08:49:09.364Z</time>
      </trkpt>
      <trkpt lat="38.9193" lon="40.41868">
        <ele>1349.243147</ele>
        <time>2022-02-24T08:49:54.262Z</time>
      </trkpt>
      <trkpt lat="38.91903" lon="40.41749">
        <ele>1356.044993</ele>
        <time>2022-02-24T08:51:00.522Z</time>
      </trkpt>
      <trkpt lat="38.91836" lon="40.41593">
        <ele>1363.916088</ele>
        <time>2022-02-24T08:52:19.561Z</time>
      </trkpt>
      <trkpt lat="38.91773" lon="40.41474">
        <ele>1365.447062</ele>
        <time>2022-02-24T08:52:57.562Z</time>
      </trkpt>
      <trkpt lat="38.91668" lon="40.41333">
        <ele>1361.408605</ele>
        <time>2022-02-24T08:53:26.316Z</time>
      </trkpt>
      <trkpt lat="38.9165" lon="40.41302">
        <ele>1360.261357</ele>
        <time>2022-02-24T08:53:31.710Z</time>
      </trkpt>
      <trkpt lat="38.91634" lon="40.41261">
        <ele>1358.971769</ele>
        <time>2022-02-24T08:53:38.411Z</time>
      </trkpt>
      <trkpt lat="38.91628" lon="40.41228">
        <ele>1358.565533</ele>
        <time>2022-02-24T08:53:43.280Z</time>
      </trkpt>
      <trkpt lat="38.91629" lon="40.41193">
        <ele>1358.132775</ele>
        <time>2022-02-24T08:53:48.599Z</time>
      </trkpt>
      <trkpt lat="38.91639" lon="40.41157">
        <ele>1357.665832</ele>
        <time>2022-02-24T08:53:54.538Z</time>
      </trkpt>
      <trkpt lat="38.91721" lon="40.41012">
        <ele>1356.336008</ele>
        <time>2022-02-24T08:54:34.125Z</time>
      </trkpt>
      <trkpt lat="38.91749" lon="40.4097">
        <ele>1356.452983</ele>
        <time>2022-02-24T08:54:49.223Z</time>
      </trkpt>
      <trkpt lat="38.91762" lon="40.40936">
        <ele>1356.532392</ele>
        <time>2022-02-24T08:54:57.531Z</time>
      </trkpt>
      <trkpt lat="38.91767" lon="40.40916">
        <ele>1356.576376</ele>
        <time>2022-02-24T08:55:03.488Z</time>
      </trkpt>
      <trkpt lat="38.9177" lon="40.40905">
        <ele>1356.60202</ele>
        <time>2022-02-24T08:55:05.435Z</time>
      </trkpt>
      <trkpt lat="38.91781" lon="40.40833">
        <ele>1355.939088</ele>
        <time>2022-02-24T08:55:19.591Z</time>
      </trkpt>
      <trkpt lat="38.91783" lon="40.40651">
        <ele>1351.025086</ele>
        <time>2022-02-24T08:55:46.600Z</time>
      </trkpt>
      <trkpt lat="38.91798" lon="40.40551">
        <ele>1346.304288</ele>
        <time>2022-02-24T08:56:00.631Z</time>
      </trkpt>
      <trkpt lat="38.91839" lon="40.40463">
        <ele>1341.116605</ele>
        <time>2022-02-24T08:56:14.266Z</time>
      </trkpt>
      <trkpt lat="38.919" lon="40.4038">
        <ele>1334.568903</ele>
        <time>2022-02-24T08:56:29.404Z</time>
      </trkpt>
      <trkpt lat="38.91921" lon="40.40361">
        <ele>1332.534078</ele>
        <time>2022-02-24T08:56:33.723Z</time>
      </trkpt>
      <trkpt lat="38.91946" lon="40.40348">
        <ele>1330.38668</ele>
        <time>2022-02-24T08:56:38.282Z</time>
      </trkpt>
      <trkpt lat="38.91974" lon="40.40342">
        <ele>1328.167826</ele>
        <time>2022-02-24T08:56:42.971Z</time>
      </trkpt>
      <trkpt lat="38.91999" lon="40.40341">
        <ele>1326.237537</ele>
        <time>2022-02-24T08:56:47.059Z</time>
      </trkpt>
      <trkpt lat="38.92078" lon="40.40363">
        <ele>1320.807407</ele>
        <time>2022-02-24T08:57:00.811Z</time>
      </trkpt>
      <trkpt lat="38.92109" lon="40.40365">
        <ele>1318.89772</ele>
        <time>2022-02-24T08:57:06.148Z</time>
      </trkpt>
      <trkpt lat="38.92146" lon="40.40363">
        <ele>1316.63529</ele>
        <time>2022-02-24T08:57:12.583Z</time>
      </trkpt>
      <trkpt lat="38.92177" lon="40.40354">
        <ele>1314.66248</ele>
        <time>2022-02-24T08:57:18.301Z</time>
      </trkpt>
      <trkpt lat="38.92288" lon="40.40301">
        <ele>1310.97055</ele>
        <time>2022-02-24T08:57:41.130Z</time>
      </trkpt>
      <trkpt lat="38.92318" lon="40.40278">
        <ele>1310.123915</ele>
        <time>2022-02-24T08:57:48.950Z</time>
      </trkpt>
      <trkpt lat="38.92339" lon="40.40249">
        <ele>1309.371712</ele>
        <time>2022-02-24T08:57:56.343Z</time>
      </trkpt>
      <trkpt lat="38.92356" lon="40.40198">
        <ele>1308.815386</ele>
        <time>2022-02-24T08:58:06.708Z</time>
      </trkpt>
      <trkpt lat="38.9236" lon="40.4015">
        <ele>1308.605778</ele>
        <time>2022-02-24T08:58:16.023Z</time>
      </trkpt>
      <trkpt lat="38.92357" lon="40.40096">
        <ele>1308.366502</ele>
        <time>2022-02-24T08:58:26.960Z</time>
      </trkpt>
      <trkpt lat="38.92318" lon="40.39801">
        <ele>1306.587661</ele>
        <time>2022-02-24T08:59:23.337Z</time>
      </trkpt>
      <trkpt lat="38.92309" lon="40.39681">
        <ele>1304.346902</ele>
        <time>2022-02-24T08:59:43.308Z</time>
      </trkpt>
      <trkpt lat="38.92275" lon="40.39401">
        <ele>1296.800091</ele>
        <time>2022-02-24T09:00:25.475Z</time>
      </trkpt>
      <trkpt lat="38.92281" lon="40.39302">
        <ele>1293.738361</ele>
        <time>2022-02-24T09:00:39.561Z</time>
      </trkpt>
      <trkpt lat="38.92361" lon="40.3894">
        <ele>1285.329988</ele>
        <time>2022-02-24T09:01:35.672Z</time>
      </trkpt>
      <trkpt lat="38.92363" lon="40.38906">
        <ele>1284.878434</ele>
        <time>2022-02-24T09:01:44.470Z</time>
      </trkpt>
      <trkpt lat="38.92365" lon="40.38883">
        <ele>1284.580559</ele>
        <time>2022-02-24T09:01:51.268Z</time>
      </trkpt>
      <trkpt lat="38.92365" lon="40.38876">
        <ele>1284.497857</ele>
        <time>2022-02-24T09:01:52.782Z</time>
      </trkpt>
      <trkpt lat="38.92364" lon="40.3887">
        <ele>1284.419924</ele>
        <time>2022-02-24T09:01:54.233Z</time>
      </trkpt>
      <trkpt lat="38.92358" lon="40.38838">
        <ele>1284.947352</ele>
        <time>2022-02-24T09:02:04.787Z</time>
      </trkpt>
      <trkpt lat="38.92335" lon="40.38734">
        <ele>1287.002354</ele>
        <time>2022-02-24T09:02:40.090Z</time>
      </trkpt>
      <trkpt lat="38.92333" lon="40.38621">
        <ele>1288.769797</ele>
        <time>2022-02-24T09:03:15.335Z</time>
      </trkpt>
      <trkpt lat="38.92349" lon="40.38425">
        <ele>1288.757694</ele>
        <time>2022-02-24T09:03:52.881Z</time>
      </trkpt>
      <trkpt lat="38.92374" lon="40.38243">
        <ele>1288.338968</ele>
        <time>2022-02-24T09:04:27.095Z</time>
      </trkpt>
      <trkpt lat="38.9239" lon="40.38067">
        <ele>1290.130685</ele>
        <time>2022-02-24T09:05:09.458Z</time>
      </trkpt>
      <trkpt lat="38.92397" lon="40.38006">
        <ele>1291.142492</ele>
        <time>2022-02-24T09:05:28.515Z</time>
      </trkpt>
      <trkpt lat="38.92404" lon="40.37921">
        <ele>1293.343163</ele>
        <time>2022-02-24T09:05:58.518Z</time>
      </trkpt>
      <trkpt lat="38.92426" lon="40.37717">
        <ele>1301.66756</ele>
        <time>2022-02-24T09:07:23.826Z</time>
      </trkpt>
      <trkpt lat="38.92439" lon="40.37649">
        <ele>1304.810399</ele>
        <time>2022-02-24T09:07:53.632Z</time>
      </trkpt>
      <trkpt lat="38.9245" lon="40.37616">
        <ele>1306.395444</ele>
        <time>2022-02-24T09:08:08.781Z</time>
      </trkpt>
      <trkpt lat="38.92554" lon="40.37415">
        <ele>1316.639787</ele>
        <time>2022-02-24T09:09:50.849Z</time>
      </trkpt>
      <trkpt lat="38.92592" lon="40.3732">
        <ele>1320.905512</ele>
        <time>2022-02-24T09:10:31.812Z</time>
      </trkpt>
      <trkpt lat="38.92602" lon="40.37256">
        <ele>1322.578196</ele>
        <time>2022-02-24T09:10:55.139Z</time>
      </trkpt>
      <trkpt lat="38.92602" lon="40.37039">
        <ele>1327.66511</ele>
        <time>2022-02-24T09:12:03.557Z</time>
      </trkpt>
      <trkpt lat="38.92614" lon="40.36959">
        <ele>1329.044913</ele>
        <time>2022-02-24T09:12:26.385Z</time>
      </trkpt>
      <trkpt lat="38.92633" lon="40.36877">
        <ele>1330.486283</ele>
        <time>2022-02-24T09:12:49.915Z</time>
      </trkpt>
      <trkpt lat="38.92681" lon="40.36754">
        <ele>1333.29301</ele>
        <time>2022-02-24T09:13:29.651Z</time>
      </trkpt>
      <trkpt lat="38.9278" lon="40.36574">
        <ele>1338.70193</ele>
        <time>2022-02-24T09:14:42.317Z</time>
      </trkpt>
      <trkpt lat="38.92845" lon="40.36445">
        <ele>1343.232959</ele>
        <time>2022-02-24T09:15:36.615Z</time>
      </trkpt>
      <trkpt lat="38.92884" lon="40.3634">
        <ele>1347.183544</ele>
        <time>2022-02-24T09:16:20.779Z</time>
      </trkpt>
      <trkpt lat="38.92892" lon="40.36314">
        <ele>1348.121406</ele>
        <time>2022-02-24T09:16:30.973Z</time>
      </trkpt>
      <trkpt lat="38.92902" lon="40.36279">
        <ele>1349.39709</ele>
        <time>2022-02-24T09:16:45.311Z</time>
      </trkpt>
      <trkpt lat="38.92929" lon="40.3616">
        <ele>1352.43551</ele>
        <time>2022-02-24T09:17:30.505Z</time>
      </trkpt>
      <trkpt lat="38.93142" lon="40.35112">
        <ele>1378.021898</ele>
        <time>2022-02-24T09:23:10.194Z</time>
      </trkpt>
      <trkpt lat="38.93146" lon="40.35094">
        <ele>1378.676494</ele>
        <time>2022-02-24T09:23:16.697Z</time>
      </trkpt>
      <trkpt lat="38.93155" lon="40.35055">
        <ele>1380.092191</ele>
        <time>2022-02-24T09:23:31.319Z</time>
      </trkpt>
      <trkpt lat="38.93279" lon="40.34434">
        <ele>1404.359339</ele>
        <time>2022-02-24T09:27:39.675Z</time>
      </trkpt>
      <trkpt lat="38.9333" lon="40.34237">
        <ele>1416.140748</ele>
        <time>2022-02-24T09:29:25.446Z</time>
      </trkpt>
      <trkpt lat="38.93373" lon="40.34099">
        <ele>1424.415911</ele>
        <time>2022-02-24T09:30:41.862Z</time>
      </trkpt>
      <trkpt lat="38.9339" lon="40.34047">
        <ele>1427.496325</ele>
        <time>2022-02-24T09:31:05.766Z</time>
      </trkpt>
      <trkpt lat="38.93399" lon="40.34019">
        <ele>1428.349661</ele>
        <time>2022-02-24T09:31:18.146Z</time>
      </trkpt>
      <trkpt lat="38.93559" lon="40.33559">
        <ele>1436.788283</ele>
        <time>2022-02-24T09:33:38.090Z</time>
      </trkpt>
      <trkpt lat="38.93588" lon="40.33483">
        <ele>1437.892164</ele>
        <time>2022-02-24T09:33:59.407Z</time>
      </trkpt>
      <trkpt lat="38.93613" lon="40.33411">
        <ele>1438.939478</ele>
        <time>2022-02-24T09:34:20.700Z</time>
      </trkpt>
      <trkpt lat="38.93665" lon="40.33253">
        <ele>1442.456131</ele>
        <time>2022-02-24T09:35:12.832Z</time>
      </trkpt>
      <trkpt lat="38.93695" lon="40.33169">
        <ele>1444.501674</ele>
        <time>2022-02-24T09:35:42.376Z</time>
      </trkpt>
      <trkpt lat="38.93722" lon="40.3309">
        <ele>1446.769432</ele>
        <time>2022-02-24T09:36:11.165Z</time>
      </trkpt>
      <trkpt lat="38.9375" lon="40.32987">
        <ele>1449.613653</ele>
        <time>2022-02-24T09:36:48.172Z</time>
      </trkpt>
      <trkpt lat="38.93764" lon="40.32883">
        <ele>1452.701162</ele>
        <time>2022-02-24T09:37:24.050Z</time>
      </trkpt>
      <trkpt lat="38.93761" lon="40.32785">
        <ele>1455.604372</ele>
        <time>2022-02-24T09:37:58.133Z</time>
      </trkpt>
      <trkpt lat="38.9374" lon="40.32678">
        <ele>1459.652791</ele>
        <time>2022-02-24T09:38:38.834Z</time>
      </trkpt>
      <trkpt lat="38.93708" lon="40.32591">
        <ele>1463.494913</ele>
        <time>2022-02-24T09:39:17.572Z</time>
      </trkpt>
      <trkpt lat="38.93608" lon="40.32408">
        <ele>1473.692119</ele>
        <time>2022-02-24T09:40:55.961Z</time>
      </trkpt>
      <trkpt lat="38.93546" lon="40.32263">
        <ele>1481.336843</ele>
        <time>2022-02-24T09:42:07.782Z</time>
      </trkpt>
      <trkpt lat="38.93502" lon="40.32132">
        <ele>1487.739488</ele>
        <time>2022-02-24T09:43:06.460Z</time>
      </trkpt>
      <trkpt lat="38.9339" lon="40.31721">
        <ele>1508.571142</ele>
        <time>2022-02-24T09:46:15.632Z</time>
      </trkpt>
      <trkpt lat="38.93369" lon="40.31622">
        <ele>1514.718982</ele>
        <time>2022-02-24T09:47:06.320Z</time>
      </trkpt>
      <trkpt lat="38.93358" lon="40.31543">
        <ele>1519.709471</ele>
        <time>2022-02-24T09:47:47.930Z</time>
      </trkpt>
      <trkpt lat="38.93357" lon="40.3148">
        <ele>1523.56443</ele>
        <time>2022-02-24T09:48:20.728Z</time>
      </trkpt>
      <trkpt lat="38.93361" lon="40.31428">
        <ele>1526.867931</ele>
        <time>2022-02-24T09:48:48.514Z</time>
      </trkpt>
      <trkpt lat="38.93371" lon="40.31379">
        <ele>1529.98789</ele>
        <time>2022-02-24T09:49:14.289Z</time>
      </trkpt>
      <trkpt lat="38.93413" lon="40.31241">
        <ele>1539.100645</ele>
        <time>2022-02-24T09:50:28.422Z</time>
      </trkpt>
      <trkpt lat="38.93421" lon="40.31198">
        <ele>1541.520096</ele>
        <time>2022-02-24T09:50:49.609Z</time>
      </trkpt>
      <trkpt lat="38.93465" lon="40.30874">
        <ele>1558.955196</ele>
        <time>2022-02-24T09:53:22.798Z</time>
      </trkpt>
      <trkpt lat="38.93534" lon="40.3046">
        <ele>1578.858788</ele>
        <time>2022-02-24T09:56:21.754Z</time>
      </trkpt>
      <trkpt lat="38.93558" lon="40.30387">
        <ele>1582.695337</ele>
        <time>2022-02-24T09:56:57.417Z</time>
      </trkpt>
      <trkpt lat="38.93573" lon="40.30353">
        <ele>1584.703121</ele>
        <time>2022-02-24T09:57:15.818Z</time>
      </trkpt>
      <trkpt lat="38.93587" lon="40.30326">
        <ele>1586.605163</ele>
        <time>2022-02-24T09:57:31.213Z</time>
      </trkpt>
      <trkpt lat="38.93633" lon="40.30262">
        <ele>1591.768863</ele>
        <time>2022-02-24T09:58:14.340Z</time>
      </trkpt>
      <trkpt lat="38.93708" lon="40.30178">
        <ele>1599.305016</ele>
        <time>2022-02-24T09:59:19.328Z</time>
      </trkpt>
      <trkpt lat="38.93877" lon="40.30015">
        <ele>1614.381315</ele>
        <time>2022-02-24T10:01:31.247Z</time>
      </trkpt>
      <trkpt lat="38.94031" lon="40.29909">
        <ele>1623.792358</ele>
        <time>2022-02-24T10:03:03.290Z</time>
      </trkpt>
      <trkpt lat="38.94088" lon="40.29853">
        <ele>1626.400299</ele>
        <time>2022-02-24T10:03:34.830Z</time>
      </trkpt>
      <trkpt lat="38.94503" lon="40.29267">
        <ele>1641.194786</ele>
        <time>2022-02-24T10:07:27.188Z</time>
      </trkpt>
      <trkpt lat="38.94519" lon="40.29245">
        <ele>1641.520058</ele>
        <time>2022-02-24T10:07:35.595Z</time>
      </trkpt>
      <trkpt lat="38.94537" lon="40.29219">
        <ele>1641.894455</ele>
        <time>2022-02-24T10:07:45.052Z</time>
      </trkpt>
      <trkpt lat="38.94611" lon="40.29119">
        <ele>1643.403371</ele>
        <time>2022-02-24T10:08:20.093Z</time>
      </trkpt>
      <trkpt lat="38.94909" lon="40.28686">
        <ele>1645.871197</ele>
        <time>2022-02-24T10:10:24.667Z</time>
      </trkpt>
      <trkpt lat="38.94926" lon="40.28663">
        <ele>1646.291771</ele>
        <time>2022-02-24T10:10:33.730Z</time>
      </trkpt>
      <trkpt lat="38.94952" lon="40.28628">
        <ele>1646.943157</ele>
        <time>2022-02-24T10:10:48.619Z</time>
      </trkpt>
      <trkpt lat="38.95014" lon="40.28537">
        <ele>1650.09868</ele>
        <time>2022-02-24T10:11:31.142Z</time>
      </trkpt>
      <trkpt lat="38.95085" lon="40.2845">
        <ele>1654.236464</ele>
        <time>2022-02-24T10:12:18.108Z</time>
      </trkpt>
      <trkpt lat="38.95162" lon="40.2838">
        <ele>1659.00283</ele>
        <time>2022-02-24T10:13:04.901Z</time>
      </trkpt>
      <trkpt lat="38.95234" lon="40.28326">
        <ele>1663.362321</ele>
        <time>2022-02-24T10:13:47.229Z</time>
      </trkpt>
      <trkpt lat="38.95406" lon="40.28231">
        <ele>1675.858101</ele>
        <time>2022-02-24T10:15:38.066Z</time>
      </trkpt>
      <trkpt lat="38.9546" lon="40.28179">
        <ele>1680.609118</ele>
        <time>2022-02-24T10:16:23.189Z</time>
      </trkpt>
      <trkpt lat="38.95481" lon="40.2815">
        <ele>1682.790723</ele>
        <time>2022-02-24T10:16:43.382Z</time>
      </trkpt>
      <trkpt lat="38.95515" lon="40.28084">
        <ele>1687.095618</ele>
        <time>2022-02-24T10:17:21.521Z</time>
      </trkpt>
      <trkpt lat="38.95529" lon="40.28011">
        <ele>1690.195797</ele>
        <time>2022-02-24T10:17:53.403Z</time>
      </trkpt>
      <trkpt lat="38.95531" lon="40.27921">
        <ele>1691.638146</ele>
        <time>2022-02-24T10:18:22.794Z</time>
      </trkpt>
      <trkpt lat="38.95492" lon="40.27501">
        <ele>1694.05829</ele>
        <time>2022-02-24T10:19:46.602Z</time>
      </trkpt>
      <trkpt lat="38.9549" lon="40.27296">
        <ele>1697.411125</ele>
        <time>2022-02-24T10:20:49.970Z</time>
      </trkpt>
      <trkpt lat="38.95516" lon="40.26994">
        <ele>1704.395435</ele>
        <time>2022-02-24T10:22:33.495Z</time>
      </trkpt>
      <trkpt lat="38.95517" lon="40.26921">
        <ele>1705.768454</ele>
        <time>2022-02-24T10:22:54.019Z</time>
      </trkpt>
      <trkpt lat="38.95539" lon="40.26698">
        <ele>1706.509165</ele>
        <time>2022-02-24T10:23:40.844Z</time>
      </trkpt>
      <trkpt lat="38.95542" lon="40.26669">
        <ele>1706.525138</ele>
        <time>2022-02-24T10:23:46.310Z</time>
      </trkpt>
      <trkpt lat="38.95544" lon="40.26663">
        <ele>1706.52886</ele>
        <time>2022-02-24T10:23:47.551Z</time>
      </trkpt>
      <trkpt lat="38.95543" lon="40.26656">
        <ele>1706.534957</ele>
        <time>2022-02-24T10:23:48.764Z</time>
      </trkpt>
      <trkpt lat="38.95545" lon="40.26616">
        <ele>1706.638561</ele>
        <time>2022-02-24T10:23:56.748Z</time>
      </trkpt>
      <trkpt lat="38.9555" lon="40.26483">
        <ele>1706.973913</ele>
        <time>2022-02-24T10:24:24.428Z</time>
      </trkpt>
      <trkpt lat="38.95591" lon="40.26166">
        <ele>1709.787323</ele>
        <time>2022-02-24T10:25:48.369Z</time>
      </trkpt>
      <trkpt lat="38.95647" lon="40.25859">
        <ele>1711.551198</ele>
        <time>2022-02-24T10:27:02.906Z</time>
      </trkpt>
      <trkpt lat="38.9569" lon="40.25573">
        <ele>1713.216369</ele>
        <time>2022-02-24T10:28:03.453Z</time>
      </trkpt>
      <trkpt lat="38.95808" lon="40.24881">
        <ele>1730.621882</ele>
        <time>2022-02-24T10:32:04.821Z</time>
      </trkpt>
      <trkpt lat="38.95816" lon="40.24835">
        <ele>1731.488409</ele>
        <time>2022-02-24T10:32:17.294Z</time>
      </trkpt>
      <trkpt lat="38.95821" lon="40.24798">
        <ele>1731.385465</ele>
        <time>2022-02-24T10:32:26.154Z</time>
      </trkpt>
      <trkpt lat="38.95831" lon="40.24647">
        <ele>1730.965529</ele>
        <time>2022-02-24T10:32:54.736Z</time>
      </trkpt>
      <trkpt lat="38.95827" lon="40.24558">
        <ele>1730.228611</ele>
        <time>2022-02-24T10:33:09.229Z</time>
      </trkpt>
      <trkpt lat="38.95818" lon="40.24482">
        <ele>1729.326667</ele>
        <time>2022-02-24T10:33:22.022Z</time>
      </trkpt>
      <trkpt lat="38.9579" lon="40.24346">
        <ele>1728.141786</ele>
        <time>2022-02-24T10:33:46.876Z</time>
      </trkpt>
      <trkpt lat="38.95772" lon="40.24259">
        <ele>1728.081044</ele>
        <time>2022-02-24T10:34:04.526Z</time>
      </trkpt>
      <trkpt lat="38.95754" lon="40.24176">
        <ele>1728.022545</ele>
        <time>2022-02-24T10:34:23.354Z</time>
      </trkpt>
      <trkpt lat="38.9573" lon="40.2406">
        <ele>1729.860997</ele>
        <time>2022-02-24T10:34:54.065Z</time>
      </trkpt>
      <trkpt lat="38.95725" lon="40.24033">
        <ele>1730.347161</ele>
        <time>2022-02-24T10:35:02.288Z</time>
      </trkpt>
      <trkpt lat="38.95708" lon="40.23954">
        <ele>1731.783798</ele>
        <time>2022-02-24T10:35:28.604Z</time>
      </trkpt>
      <trkpt lat="38.95703" lon="40.2393">
        <ele>1732.419366</ele>
        <time>2022-02-24T10:35:37.153Z</time>
      </trkpt>
      <trkpt lat="38.95678" lon="40.23803">
        <ele>1737.596598</ele>
        <time>2022-02-24T10:36:27.418Z</time>
      </trkpt>
      <trkpt lat="38.95669" lon="40.23694">
        <ele>1742.12305</ele>
        <time>2022-02-24T10:37:14.581Z</time>
      </trkpt>
      <trkpt lat="38.95668" lon="40.23594">
        <ele>1747.362759</ele>
        <time>2022-02-24T10:38:00.338Z</time>
      </trkpt>
      <trkpt lat="38.95678" lon="40.23489">
        <ele>1752.937831</ele>
        <time>2022-02-24T10:38:51.454Z</time>
      </trkpt>
      <trkpt lat="38.95712" lon="40.23318">
        <ele>1760.007067</ele>
        <time>2022-02-24T10:40:08.778Z</time>
      </trkpt>
      <trkpt lat="38.95843" lon="40.22732">
        <ele>1770.006853</ele>
        <time>2022-02-24T10:43:00.862Z</time>
      </trkpt>
      <trkpt lat="38.95869" lon="40.22639">
        <ele>1770.31383</ele>
        <time>2022-02-24T10:43:20.261Z</time>
      </trkpt>
      <trkpt lat="38.95903" lon="40.22542">
        <ele>1769.770868</ele>
        <time>2022-02-24T10:43:39.388Z</time>
      </trkpt>
      <trkpt lat="38.95977" lon="40.22396">
        <ele>1767.732665</ele>
        <time>2022-02-24T10:44:08.975Z</time>
      </trkpt>
      <trkpt lat="38.96018" lon="40.22334">
        <ele>1766.075094</ele>
        <time>2022-02-24T10:44:22.027Z</time>
      </trkpt>
      <trkpt lat="38.9617" lon="40.22125">
        <ele>1759.901759</ele>
        <time>2022-02-24T10:45:05.996Z</time>
      </trkpt>
      <trkpt lat="38.96385" lon="40.21846">
        <ele>1751.316949</ele>
        <time>2022-02-24T10:46:07.256Z</time>
      </trkpt>
      <trkpt lat="38.96397" lon="40.21834">
        <ele>1750.91148</ele>
        <time>2022-02-24T10:46:10.173Z</time>
      </trkpt>
      <trkpt lat="38.96401" lon="40.21831">
        <ele>1750.779005</ele>
        <time>2022-02-24T10:46:11.201Z</time>
      </trkpt>
      <trkpt lat="38.96405" lon="40.21827">
        <ele>1750.643133</ele>
        <time>2022-02-24T10:46:12.231Z</time>
      </trkpt>
      <trkpt lat="38.96407" lon="40.21821">
        <ele>1750.50841</ele>
        <time>2022-02-24T10:46:13.248Z</time>
      </trkpt>
      <trkpt lat="38.96419" lon="40.218">
        <ele>1749.95411</ele>
        <time>2022-02-24T10:46:17.265Z</time>
      </trkpt>
      <trkpt lat="38.96524" lon="40.21636">
        <ele>1745.430223</ele>
        <time>2022-02-24T10:46:50.482Z</time>
      </trkpt>
      <trkpt lat="38.96542" lon="40.21591">
        <ele>1744.349122</ele>
        <time>2022-02-24T10:46:58.408Z</time>
      </trkpt>
      <trkpt lat="38.96558" lon="40.21529">
        <ele>1742.952593</ele>
        <time>2022-02-24T10:47:08.583Z</time>
      </trkpt>
      <trkpt lat="38.96572" lon="40.21449">
        <ele>1741.023514</ele>
        <time>2022-02-24T10:47:21.325Z</time>
      </trkpt>
      <trkpt lat="38.96574" lon="40.21397">
        <ele>1739.795141</ele>
        <time>2022-02-24T10:47:29.392Z</time>
      </trkpt>
      <trkpt lat="38.96565" lon="40.21293">
        <ele>1737.299672</ele>
        <time>2022-02-24T10:47:45.372Z</time>
      </trkpt>
      <trkpt lat="38.96555" lon="40.21242">
        <ele>1735.731373</ele>
        <time>2022-02-24T10:47:53.314Z</time>
      </trkpt>
      <trkpt lat="38.9611" lon="40.19387">
        <ele>1677.277439</ele>
        <time>2022-02-24T10:52:39.047Z</time>
      </trkpt>
      <trkpt lat="38.96065" lon="40.19277">
        <ele>1672.940907</ele>
        <time>2022-02-24T10:52:56.789Z</time>
      </trkpt>
      <trkpt lat="38.96044" lon="40.19241">
        <ele>1671.125946</ele>
        <time>2022-02-24T10:53:03.190Z</time>
      </trkpt>
      <trkpt lat="38.96001" lon="40.19194">
        <ele>1668.238416</ele>
        <time>2022-02-24T10:53:13.287Z</time>
      </trkpt>
      <trkpt lat="38.95959" lon="40.19156">
        <ele>1665.602716</ele>
        <time>2022-02-24T10:53:22.422Z</time>
      </trkpt>
      <trkpt lat="38.95797" lon="40.19042">
        <ele>1655.009007</ele>
        <time>2022-02-24T10:53:55.225Z</time>
      </trkpt>
      <trkpt lat="38.95741" lon="40.19005">
        <ele>1651.013183</ele>
        <time>2022-02-24T10:54:06.410Z</time>
      </trkpt>
      <trkpt lat="38.95559" lon="40.18885">
        <ele>1636.852488</ele>
        <time>2022-02-24T10:54:41.629Z</time>
      </trkpt>
      <trkpt lat="38.95525" lon="40.18859">
        <ele>1633.835584</ele>
        <time>2022-02-24T10:54:48.196Z</time>
      </trkpt>
      <trkpt lat="38.95479" lon="40.18824">
        <ele>1629.73979</ele>
        <time>2022-02-24T10:54:57.165Z</time>
      </trkpt>
      <trkpt lat="38.95388" lon="40.18761">
        <ele>1623.341818</ele>
        <time>2022-02-24T10:55:14.567Z</time>
      </trkpt>
      <trkpt lat="38.95293" lon="40.18694">
        <ele>1617.528195</ele>
        <time>2022-02-24T10:55:34.962Z</time>
      </trkpt>
      <trkpt lat="38.95259" lon="40.18663">
        <ele>1616.116831</ele>
        <time>2022-02-24T10:55:43.463Z</time>
      </trkpt>
      <trkpt lat="38.95226" lon="40.18611">
        <ele>1614.334361</ele>
        <time>2022-02-24T10:55:54.148Z</time>
      </trkpt>
      <trkpt lat="38.95187" lon="40.18536">
        <ele>1611.529056</ele>
        <time>2022-02-24T10:56:07.645Z</time>
      </trkpt>
      <trkpt lat="38.94984" lon="40.17878">
        <ele>1579.032385</ele>
        <time>2022-02-24T10:57:44.111Z</time>
      </trkpt>
      <trkpt lat="38.94975" lon="40.17706">
        <ele>1572.940552</ele>
        <time>2022-02-24T10:58:08.740Z</time>
      </trkpt>
      <trkpt lat="38.95013" lon="40.17333">
        <ele>1564.083591</ele>
        <time>2022-02-24T10:59:08.221Z</time>
      </trkpt>
      <trkpt lat="38.95039" lon="40.16982">
        <ele>1553.498412</ele>
        <time>2022-02-24T10:59:59.480Z</time>
      </trkpt>
      <trkpt lat="38.951" lon="40.1638">
        <ele>1535.485466</ele>
        <time>2022-02-24T11:01:29.106Z</time>
      </trkpt>
      <trkpt lat="38.95127" lon="40.16256">
        <ele>1531.529198</ele>
        <time>2022-02-24T11:01:48.201Z</time>
      </trkpt>
      <trkpt lat="38.95165" lon="40.16011">
        <ele>1523.098691</ele>
        <time>2022-02-24T11:02:24.361Z</time>
      </trkpt>
      <trkpt lat="38.95206" lon="40.15847">
        <ele>1516.451204</ele>
        <time>2022-02-24T11:02:48.643Z</time>
      </trkpt>
      <trkpt lat="38.95251" lon="40.15718">
        <ele>1510.271796</ele>
        <time>2022-02-24T11:03:08.081Z</time>
      </trkpt>
      <trkpt lat="38.95278" lon="40.1565">
        <ele>1506.905452</ele>
        <time>2022-02-24T11:03:18.605Z</time>
      </trkpt>
      <trkpt lat="38.95437" lon="40.15335">
        <ele>1489.694301</ele>
        <time>2022-02-24T11:04:10.197Z</time>
      </trkpt>
      <trkpt lat="38.95461" lon="40.15268">
        <ele>1486.227209</ele>
        <time>2022-02-24T11:04:20.327Z</time>
      </trkpt>
      <trkpt lat="38.95499" lon="40.15181">
        <ele>1480.973089</ele>
        <time>2022-02-24T11:04:33.727Z</time>
      </trkpt>
      <trkpt lat="38.95521" lon="40.15078">
        <ele>1475.191099</ele>
        <time>2022-02-24T11:04:48.043Z</time>
      </trkpt>
      <trkpt lat="38.9554" lon="40.14951">
        <ele>1467.067288</ele>
        <time>2022-02-24T11:05:05.081Z</time>
      </trkpt>
      <trkpt lat="38.95594" lon="40.14283">
        <ele>1422.184337</ele>
        <time>2022-02-24T11:06:31.900Z</time>
      </trkpt>
      <trkpt lat="38.95596" lon="40.14134">
        <ele>1412.251947</ele>
        <time>2022-02-24T11:06:51.195Z</time>
      </trkpt>
      <trkpt lat="38.95563" lon="40.13641">
        <ele>1378.435238</ele>
        <time>2022-02-24T11:07:55.279Z</time>
      </trkpt>
      <trkpt lat="38.95514" lon="40.13019">
        <ele>1330.2786</ele>
        <time>2022-02-24T11:09:14.622Z</time>
      </trkpt>
      <trkpt lat="38.95503" lon="40.1295">
        <ele>1324.687468</ele>
        <time>2022-02-24T11:09:23.565Z</time>
      </trkpt>
      <trkpt lat="38.9548" lon="40.12874">
        <ele>1318.416598</ele>
        <time>2022-02-24T11:09:33.808Z</time>
      </trkpt>
      <trkpt lat="38.95463" lon="40.12836">
        <ele>1315.022978</ele>
        <time>2022-02-24T11:09:39.395Z</time>
      </trkpt>
      <trkpt lat="38.95445" lon="40.12814">
        <ele>1312.564466</ele>
        <time>2022-02-24T11:09:43.430Z</time>
      </trkpt>
      <trkpt lat="38.95305" lon="40.12639">
        <ele>1295.738536</ele>
        <time>2022-02-24T11:10:16.021Z</time>
      </trkpt>
      <trkpt lat="38.95263" lon="40.12569">
        <ele>1290.675708</ele>
        <time>2022-02-24T11:10:27.745Z</time>
      </trkpt>
      <trkpt lat="38.95228" lon="40.12496">
        <ele>1286.013591</ele>
        <time>2022-02-24T11:10:39.364Z</time>
      </trkpt>
      <trkpt lat="38.95005" lon="40.11943">
        <ele>1253.610055</ele>
        <time>2022-02-24T11:12:03.264Z</time>
      </trkpt>
      <trkpt lat="38.94967" lon="40.11866">
        <ele>1248.697308</ele>
        <time>2022-02-24T11:12:15.448Z</time>
      </trkpt>
      <trkpt lat="38.9491" lon="40.11772">
        <ele>1242.068702</ele>
        <time>2022-02-24T11:12:31.353Z</time>
      </trkpt>
      <trkpt lat="38.94874" lon="40.11722">
        <ele>1238.15601</ele>
        <time>2022-02-24T11:12:40.387Z</time>
      </trkpt>
      <trkpt lat="38.94787" lon="40.11583">
        <ele>1227.437317</ele>
        <time>2022-02-24T11:13:03.878Z</time>
      </trkpt>
      <trkpt lat="38.94403" lon="40.11073">
        <ele>1183.73945</ele>
        <time>2022-02-24T11:14:36.155Z</time>
      </trkpt>
      <trkpt lat="38.94139" lon="40.10729">
        <ele>1174.673664</ele>
        <time>2022-02-24T11:15:52.016Z</time>
      </trkpt>
      <trkpt lat="38.93862" lon="40.1038">
        <ele>1183.170812</ele>
        <time>2022-02-24T11:18:26.210Z</time>
      </trkpt>
      <trkpt lat="38.9376" lon="40.10226">
        <ele>1189.928759</ele>
        <time>2022-02-24T11:19:51.275Z</time>
      </trkpt>
      <trkpt lat="38.93702" lon="40.10139">
        <ele>1194.007404</ele>
        <time>2022-02-24T11:20:34.582Z</time>
      </trkpt>
      <trkpt lat="38.93566" lon="40.09971">
        <ele>1196.413811</ele>
        <time>2022-02-24T11:21:35.366Z</time>
      </trkpt>
      <trkpt lat="38.93542" lon="40.0992">
        <ele>1195.708915</ele>
        <time>2022-02-24T11:21:45.888Z</time>
      </trkpt>
      <trkpt lat="38.93481" lon="40.09746">
        <ele>1193.283735</ele>
        <time>2022-02-24T11:22:17.111Z</time>
      </trkpt>
      <trkpt lat="38.93251" lon="40.09012">
        <ele>1177.978524</ele>
        <time>2022-02-24T11:24:22.868Z</time>
      </trkpt>
      <trkpt lat="38.93185" lon="40.08844">
        <ele>1173.505586</ele>
        <time>2022-02-24T11:24:51.425Z</time>
      </trkpt>
      <trkpt lat="38.93091" lon="40.08662">
        <ele>1167.819978</ele>
        <time>2022-02-24T11:25:24.021Z</time>
      </trkpt>
      <trkpt lat="38.93024" lon="40.08553">
        <ele>1164.523518</ele>
        <time>2022-02-24T11:25:45.214Z</time>
      </trkpt>
      <trkpt lat="38.92663" lon="40.0801">
        <ele>1152.286912</ele>
        <time>2022-02-24T11:27:41.595Z</time>
      </trkpt>
      <trkpt lat="38.92617" lon="40.07918">
        <ele>1150.151367</ele>
        <time>2022-02-24T11:27:58.885Z</time>
      </trkpt>
      <trkpt lat="38.9259" lon="40.07851">
        <ele>1148.66829</ele>
        <time>2022-02-24T11:28:10.708Z</time>
      </trkpt>
      <trkpt lat="38.92552" lon="40.07717">
        <ele>1145.973586</ele>
        <time>2022-02-24T11:28:33.180Z</time>
      </trkpt>
      <trkpt lat="38.92527" lon="40.07548">
        <ele>1142.964305</ele>
        <time>2022-02-24T11:29:00.858Z</time>
      </trkpt>
      <trkpt lat="38.92524" lon="40.07472">
        <ele>1141.925113</ele>
        <time>2022-02-24T11:29:13.386Z</time>
      </trkpt>
      <trkpt lat="38.92548" lon="40.0689">
        <ele>1134.165421</ele>
        <time>2022-02-24T11:30:51.818Z</time>
      </trkpt>
      <trkpt lat="38.92536" lon="40.06771">
        <ele>1132.85909</ele>
        <time>2022-02-24T11:31:12.510Z</time>
      </trkpt>
      <trkpt lat="38.92537" lon="40.06759">
        <ele>1132.7301</ele>
        <time>2022-02-24T11:31:14.547Z</time>
      </trkpt>
      <trkpt lat="38.92541" lon="40.06755">
        <ele>1132.663271</ele>
        <time>2022-02-24T11:31:15.623Z</time>
      </trkpt>
      <trkpt lat="38.92543" lon="40.0675">
        <ele>1132.601131</ele>
        <time>2022-02-24T11:31:16.623Z</time>
      </trkpt>
      <trkpt lat="38.92544" lon="40.06745">
        <ele>1132.539107</ele>
        <time>2022-02-24T11:31:17.607Z</time>
      </trkpt>
      <trkpt lat="38.92541" lon="40.06729">
        <ele>1132.358323</ele>
        <time>2022-02-24T11:31:20.527Z</time>
      </trkpt>
      <trkpt lat="38.92538" lon="40.06724">
        <ele>1132.297207</ele>
        <time>2022-02-24T11:31:21.506Z</time>
      </trkpt>
      <trkpt lat="38.92534" lon="40.06718">
        <ele>1132.206345</ele>
        <time>2022-02-24T11:31:22.971Z</time>
      </trkpt>
      <trkpt lat="38.92512" lon="40.06679">
        <ele>1131.67974</ele>
        <time>2022-02-24T11:31:31.478Z</time>
      </trkpt>
      <trkpt lat="38.92439" lon="40.06551">
        <ele>1130.124773</ele>
        <time>2022-02-24T11:31:59.084Z</time>
      </trkpt>
      <trkpt lat="38.92376" lon="40.06466">
        <ele>1129.0086</ele>
        <time>2022-02-24T11:32:19.814Z</time>
      </trkpt>
      <trkpt lat="38.92328" lon="40.0642">
        <ele>1128.326489</ele>
        <time>2022-02-24T11:32:33.231Z</time>
      </trkpt>
      <trkpt lat="38.92283" lon="40.06384">
        <ele>1127.72747</ele>
        <time>2022-02-24T11:32:45.059Z</time>
      </trkpt>
      <trkpt lat="38.92238" lon="40.06351">
        <ele>1127.355433</ele>
        <time>2022-02-24T11:32:57.453Z</time>
      </trkpt>
      <trkpt lat="38.9219" lon="40.06314">
        <ele>1127.570509</ele>
        <time>2022-02-24T11:33:11.415Z</time>
      </trkpt>
      <trkpt lat="38.9216" lon="40.06293">
        <ele>1127.699649</ele>
        <time>2022-02-24T11:33:20.529Z</time>
      </trkpt>
      <trkpt lat="38.92116" lon="40.06262">
        <ele>1127.893546</ele>
        <time>2022-02-24T11:33:35.261Z</time>
      </trkpt>
      <trkpt lat="38.92114" lon="40.0626">
        <ele>1127.903244</ele>
        <time>2022-02-24T11:33:36.349Z</time>
      </trkpt>
      <trkpt lat="38.91828" lon="40.06049">
        <ele>1136.216504</ele>
        <time>2022-02-24T11:35:43.872Z</time>
      </trkpt>
      <trkpt lat="38.91775" lon="40.06009">
        <ele>1138.288349</ele>
        <time>2022-02-24T11:36:12.251Z</time>
      </trkpt>
      <trkpt lat="38.91772" lon="40.06007">
        <ele>1138.444658</ele>
        <time>2022-02-24T11:36:14.928Z</time>
      </trkpt>
      <trkpt lat="38.9154" lon="40.05831">
        <ele>1151.436408</ele>
        <time>2022-02-24T11:38:30.369Z</time>
      </trkpt>
      <trkpt lat="38.91495" lon="40.05795">
        <ele>1153.990345</ele>
        <time>2022-02-24T11:38:56.162Z</time>
      </trkpt>
      <trkpt lat="38.91491" lon="40.05792">
        <ele>1154.247172</ele>
        <time>2022-02-24T11:38:59.440Z</time>
      </trkpt>
      <trkpt lat="38.91421" lon="40.05718">
        <ele>1158.321286</ele>
        <time>2022-02-24T11:39:43.661Z</time>
      </trkpt>
      <trkpt lat="38.91386" lon="40.05673">
        <ele>1160.465585</ele>
        <time>2022-02-24T11:40:06.900Z</time>
      </trkpt>
      <trkpt lat="38.91358" lon="40.05637">
        <ele>1162.226885</ele>
        <time>2022-02-24T11:40:25.135Z</time>
      </trkpt>
      <trkpt lat="38.9127" lon="40.05511">
        <ele>1167.182771</ele>
        <time>2022-02-24T11:41:27.052Z</time>
      </trkpt>
      <trkpt lat="38.91236" lon="40.05459">
        <ele>1169.134372</ele>
        <time>2022-02-24T11:41:49.170Z</time>
      </trkpt>
      <trkpt lat="38.91234" lon="40.05456">
        <ele>1169.251221</ele>
        <time>2022-02-24T11:41:51.052Z</time>
      </trkpt>
      <trkpt lat="38.91178" lon="40.05374">
        <ele>1170.775329</ele>
        <time>2022-02-24T11:42:22.254Z</time>
      </trkpt>
      <trkpt lat="38.91077" lon="40.05221">
        <ele>1173.081984</ele>
        <time>2022-02-24T11:43:10.187Z</time>
      </trkpt>
      <trkpt lat="38.90889" lon="40.04944">
        <ele>1178.585438</ele>
        <time>2022-02-24T11:44:50.328Z</time>
      </trkpt>
      <trkpt lat="38.90845" lon="40.04886">
        <ele>1181.361375</ele>
        <time>2022-02-24T11:45:19.526Z</time>
      </trkpt>
      <trkpt lat="38.90527" lon="40.04516">
        <ele>1206.822757</ele>
        <time>2022-02-24T11:49:20.424Z</time>
      </trkpt>
      <trkpt lat="38.9038" lon="40.04352">
        <ele>1219.073159</ele>
        <time>2022-02-24T11:51:14.267Z</time>
      </trkpt>
      <trkpt lat="38.90304" lon="40.04256">
        <ele>1224.669138</ele>
        <time>2022-02-24T11:52:12.724Z</time>
      </trkpt>
      <trkpt lat="38.89994" lon="40.03767">
        <ele>1241.369869</ele>
        <time>2022-02-24T11:55:48.121Z</time>
      </trkpt>
      <trkpt lat="38.8978" lon="40.03439">
        <ele>1226.516922</ele>
        <time>2022-02-24T11:56:48.668Z</time>
      </trkpt>
      <trkpt lat="38.89725" lon="40.03353">
        <ele>1222.326533</ele>
        <time>2022-02-24T11:57:03.867Z</time>
      </trkpt>
      <trkpt lat="38.89647" lon="40.03233">
        <ele>1216.584763</ele>
        <time>2022-02-24T11:57:26.292Z</time>
      </trkpt>
      <trkpt lat="38.89554" lon="40.03086">
        <ele>1212.63475</ele>
        <time>2022-02-24T11:57:56.438Z</time>
      </trkpt>
      <trkpt lat="38.89462" lon="40.02956">
        <ele>1208.626858</ele>
        <time>2022-02-24T11:58:25.078Z</time>
      </trkpt>
      <trkpt lat="38.89412" lon="40.02895">
        <ele>1206.558619</ele>
        <time>2022-02-24T11:58:37.955Z</time>
      </trkpt>
      <trkpt lat="38.89373" lon="40.02856">
        <ele>1204.921346</ele>
        <time>2022-02-24T11:58:46.978Z</time>
      </trkpt>
      <trkpt lat="38.89334" lon="40.02821">
        <ele>1203.304811</ele>
        <time>2022-02-24T11:58:55.821Z</time>
      </trkpt>
      <trkpt lat="38.89248" lon="40.02748">
        <ele>1200.439725</ele>
        <time>2022-02-24T11:59:16.159Z</time>
      </trkpt>
      <trkpt lat="38.89147" lon="40.02673">
        <ele>1201.399113</ele>
        <time>2022-02-24T11:59:53.132Z</time>
      </trkpt>
      <trkpt lat="38.89066" lon="40.02619">
        <ele>1202.046342</ele>
        <time>2022-02-24T12:00:30.001Z</time>
      </trkpt>
      <trkpt lat="38.89006" lon="40.02587">
        <ele>1202.414018</ele>
        <time>2022-02-24T12:00:52.786Z</time>
      </trkpt>
      <trkpt lat="38.88892" lon="40.0254">
        <ele>1200.593586</ele>
        <time>2022-02-24T12:01:18.905Z</time>
      </trkpt>
      <trkpt lat="38.88785" lon="40.0251">
        <ele>1195.468572</ele>
        <time>2022-02-24T12:01:38.436Z</time>
      </trkpt>
      <trkpt lat="38.88598" lon="40.02483">
        <ele>1184.51692</ele>
        <time>2022-02-24T12:02:11.109Z</time>
      </trkpt>
      <trkpt lat="38.88569" lon="40.0248">
        <ele>1183.554345</ele>
        <time>2022-02-24T12:02:16.415Z</time>
      </trkpt>
      <trkpt lat="38.88536" lon="40.02477">
        <ele>1183.200175</ele>
        <time>2022-02-24T12:02:22.983Z</time>
      </trkpt>
      <trkpt lat="38.88515" lon="40.02474">
        <ele>1182.970945</ele>
        <time>2022-02-24T12:02:27.654Z</time>
      </trkpt>
      <trkpt lat="38.88398" lon="40.02454">
        <ele>1181.944124</ele>
        <time>2022-02-24T12:03:00.550Z</time>
      </trkpt>
      <trkpt lat="38.88294" lon="40.02417">
        <ele>1184.155539</ele>
        <time>2022-02-24T12:03:41.807Z</time>
      </trkpt>
      <trkpt lat="38.88216" lon="40.02377">
        <ele>1185.866652</ele>
        <time>2022-02-24T12:04:13.420Z</time>
      </trkpt>
      <trkpt lat="38.88152" lon="40.02336">
        <ele>1187.351808</ele>
        <time>2022-02-24T12:04:40.665Z</time>
      </trkpt>
      <trkpt lat="38.88066" lon="40.02268">
        <ele>1189.226671</ele>
        <time>2022-02-24T12:05:16.650Z</time>
      </trkpt>
      <trkpt lat="38.88063" lon="40.02265">
        <ele>1189.245312</ele>
        <time>2022-02-24T12:05:18.481Z</time>
      </trkpt>
      <trkpt lat="38.88026" lon="40.02231">
        <ele>1189.436919</ele>
        <time>2022-02-24T12:05:32.932Z</time>
      </trkpt>
      <trkpt lat="38.87972" lon="40.02177">
        <ele>1189.730949</ele>
        <time>2022-02-24T12:05:52.894Z</time>
      </trkpt>
      <trkpt lat="38.87936" lon="40.02141">
        <ele>1189.927105</ele>
        <time>2022-02-24T12:06:04.865Z</time>
      </trkpt>
      <trkpt lat="38.87475" lon="40.01684">
        <ele>1177.132136</ele>
        <time>2022-02-24T12:08:06.439Z</time>
      </trkpt>
      <trkpt lat="38.87418" lon="40.01625">
        <ele>1174.389934</ele>
        <time>2022-02-24T12:08:19.977Z</time>
      </trkpt>
      <trkpt lat="38.87374" lon="40.01585">
        <ele>1172.340675</ele>
        <time>2022-02-24T12:08:29.933Z</time>
      </trkpt>
      <trkpt lat="38.8731" lon="40.0152">
        <ele>1169.485983</ele>
        <time>2022-02-24T12:08:45.153Z</time>
      </trkpt>
      <trkpt lat="38.87286" lon="40.01496">
        <ele>1168.428102</ele>
        <time>2022-02-24T12:08:51.059Z</time>
      </trkpt>
      <trkpt lat="38.87258" lon="40.01468">
        <ele>1167.213089</ele>
        <time>2022-02-24T12:08:58.070Z</time>
      </trkpt>
      <trkpt lat="38.87216" lon="40.01425">
        <ele>1165.443013</ele>
        <time>2022-02-24T12:09:09.196Z</time>
      </trkpt>
      <trkpt lat="38.87031" lon="40.01235">
        <ele>1158.888937</ele>
        <time>2022-02-24T12:09:57.886Z</time>
      </trkpt>
      <trkpt lat="38.87016" lon="40.01218">
        <ele>1158.096947</ele>
        <time>2022-02-24T12:10:01.801Z</time>
      </trkpt>
      <trkpt lat="38.86561" lon="40.0077">
        <ele>1135.678701</ele>
        <time>2022-02-24T12:11:49.220Z</time>
      </trkpt>
      <trkpt lat="38.86082" lon="40.00298">
        <ele>1112.703603</ele>
        <time>2022-02-24T12:13:43.094Z</time>
      </trkpt>
      <trkpt lat="38.8515" lon="39.9938">
        <ele>1105.370577</ele>
        <time>2022-02-24T12:18:33.425Z</time>
      </trkpt>
      <trkpt lat="38.84186" lon="39.98432">
        <ele>1078.209565</ele>
        <time>2022-02-24T12:22:43.458Z</time>
      </trkpt>
      <trkpt lat="38.84078" lon="39.98321">
        <ele>1076.082511</ele>
        <time>2022-02-24T12:23:14.305Z</time>
      </trkpt>
      <trkpt lat="38.83642" lon="39.97892">
        <ele>1073.788205</ele>
        <time>2022-02-24T12:25:30.927Z</time>
      </trkpt>
      <trkpt lat="38.83584" lon="39.97845">
        <ele>1074.148553</ele>
        <time>2022-02-24T12:25:50.536Z</time>
      </trkpt>
      <trkpt lat="38.83503" lon="39.97792">
        <ele>1074.623992</ele>
        <time>2022-02-24T12:26:18.787Z</time>
      </trkpt>
      <trkpt lat="38.83449" lon="39.97766">
        <ele>1074.730026</ele>
        <time>2022-02-24T12:26:37.751Z</time>
      </trkpt>
      <trkpt lat="38.83366" lon="39.97736">
        <ele>1074.889434</ele>
        <time>2022-02-24T12:27:02.199Z</time>
      </trkpt>
      <trkpt lat="38.8333" lon="39.97727">
        <ele>1074.924205</ele>
        <time>2022-02-24T12:27:10.989Z</time>
      </trkpt>
      <trkpt lat="38.83323" lon="39.97699">
        <ele>1074.369065</ele>
        <time>2022-02-24T12:27:15.812Z</time>
      </trkpt>
      <trkpt lat="38.83277" lon="39.97591">
        <ele>1071.980821</ele>
        <time>2022-02-24T12:27:35.803Z</time>
      </trkpt>
      <trkpt lat="38.83248" lon="39.9755">
        <ele>1070.91716</ele>
        <time>2022-02-24T12:27:43.965Z</time>
      </trkpt>
      <trkpt lat="38.83187" lon="39.97431">
        <ele>1067.444413</ele>
        <time>2022-02-24T12:28:05.216Z</time>
      </trkpt>
      <trkpt lat="38.83148" lon="39.97333">
        <ele>1064.673332</ele>
        <time>2022-02-24T12:28:21.947Z</time>
      </trkpt>
      <trkpt lat="38.83114" lon="39.97299">
        <ele>1064.216388</ele>
        <time>2022-02-24T12:28:30.886Z</time>
      </trkpt>
      <trkpt lat="38.83058" lon="39.97283">
        <ele>1063.629269</ele>
        <time>2022-02-24T12:28:44.033Z</time>
      </trkpt>
      <trkpt lat="38.83046" lon="39.97281">
        <ele>1063.505737</ele>
        <time>2022-02-24T12:28:46.686Z</time>
      </trkpt>
      <trkpt lat="38.83035" lon="39.97274">
        <ele>1063.379017</ele>
        <time>2022-02-24T12:28:49.915Z</time>
      </trkpt>
      <trkpt lat="38.8303" lon="39.97267">
        <ele>1063.298846</ele>
        <time>2022-02-24T12:28:52.049Z</time>
      </trkpt>
      <trkpt lat="38.83027" lon="39.97241">
        <ele>1063.092576</ele>
        <time>2022-02-24T12:28:56.985Z</time>
      </trkpt>
      <trkpt lat="38.83026" lon="39.97234">
        <ele>1063.036509</ele>
        <time>2022-02-24T12:28:58.527Z</time>
      </trkpt>
      <trkpt lat="38.83023" lon="39.97203">
        <ele>1062.84731</ele>
        <time>2022-02-24T12:29:05.263Z</time>
      </trkpt>
      <trkpt lat="38.83022" lon="39.97188">
        <ele>1063.025721</ele>
        <time>2022-02-24T12:29:08.851Z</time>
      </trkpt>
      <trkpt lat="38.83022" lon="39.9718">
        <ele>1063.119917</ele>
        <time>2022-02-24T12:29:10.960Z</time>
      </trkpt>
      <trkpt lat="38.83016" lon="39.97187">
        <ele>1063.242513</ele>
        <time>2022-02-24T12:29:13.485Z</time>
      </trkpt>
      <trkpt lat="38.82992" lon="39.97195">
        <ele>1063.610035</ele>
        <time>2022-02-24T12:29:20.998Z</time>
      </trkpt>
      <trkpt lat="38.82953" lon="39.97191">
        <ele>1064.192094</ele>
        <time>2022-02-24T12:29:34.058Z</time>
      </trkpt>
      <trkpt lat="38.82861" lon="39.97159">
        <ele>1065.721833</ele>
        <time>2022-02-24T12:30:09.547Z</time>
      </trkpt>
      <trkpt lat="38.82761" lon="39.9715">
        <ele>1068.346913</ele>
        <time>2022-02-24T12:30:48.060Z</time>
      </trkpt>
      <trkpt lat="38.82644" lon="39.97123">
        <ele>1071.639996</ele>
        <time>2022-02-24T12:31:36.467Z</time>
      </trkpt>
      <trkpt lat="38.82519" lon="39.97102">
        <ele>1075.441069</ele>
        <time>2022-02-24T12:32:28.967Z</time>
      </trkpt>
      <trkpt lat="38.82384" lon="39.9714">
        <ele>1079.2545</ele>
        <time>2022-02-24T12:33:24.486Z</time>
      </trkpt>
      <trkpt lat="38.82302" lon="39.97173">
        <ele>1081.442169</ele>
        <time>2022-02-24T12:33:57.852Z</time>
      </trkpt>
      <trkpt lat="38.82185" lon="39.97199">
        <ele>1084.104498</ele>
        <time>2022-02-24T12:34:42.224Z</time>
      </trkpt>
      <trkpt lat="38.81896" lon="39.97279">
        <ele>1089.882812</ele>
        <time>2022-02-24T12:36:29.057Z</time>
      </trkpt>
      <trkpt lat="38.81818" lon="39.97299">
        <ele>1091.327889</ele>
        <time>2022-02-24T12:36:56.629Z</time>
      </trkpt>
      <trkpt lat="38.8179" lon="39.97308">
        <ele>1091.816507</ele>
        <time>2022-02-24T12:37:06.668Z</time>
      </trkpt>
      <trkpt lat="38.8176" lon="39.9732">
        <ele>1092.314021</ele>
        <time>2022-02-24T12:37:17.308Z</time>
      </trkpt>
      <trkpt lat="38.81745" lon="39.97322">
        <ele>1092.554359</ele>
        <time>2022-02-24T12:37:22.612Z</time>
      </trkpt>
      <trkpt lat="38.81551" lon="39.97371">
        <ele>1095.697287</ele>
        <time>2022-02-24T12:38:30.644Z</time>
      </trkpt>
      <trkpt lat="38.81476" lon="39.97377">
        <ele>1096.872569</ele>
        <time>2022-02-24T12:38:55.824Z</time>
      </trkpt>
      <trkpt lat="38.81414" lon="39.97396">
        <ele>1097.928995</ele>
        <time>2022-02-24T12:39:17.882Z</time>
      </trkpt>
      <trkpt lat="38.81359" lon="39.97421">
        <ele>1098.935025</ele>
        <time>2022-02-24T12:39:38.185Z</time>
      </trkpt>
      <trkpt lat="38.81319" lon="39.97429">
        <ele>1099.644956</ele>
        <time>2022-02-24T12:39:52.761Z</time>
      </trkpt>
      <trkpt lat="38.81222" lon="39.97448">
        <ele>1101.272342</ele>
        <time>2022-02-24T12:40:27.606Z</time>
      </trkpt>
      <trkpt lat="38.81005" lon="39.97466">
        <ele>1104.223608</ele>
        <time>2022-02-24T12:41:41.279Z</time>
      </trkpt>
      <trkpt lat="38.80692" lon="39.97461">
        <ele>1105.937568</ele>
        <time>2022-02-24T12:43:11.666Z</time>
      </trkpt>
      <trkpt lat="38.79989" lon="39.97417">
        <ele>1107.130878</ele>
        <time>2022-02-24T12:46:23.824Z</time>
      </trkpt>
      <trkpt lat="38.78441" lon="39.97351">
        <ele>1110.861815</ele>
        <time>2022-02-24T12:53:48.765Z</time>
      </trkpt>
      <trkpt lat="38.77423" lon="39.9729">
        <ele>1037.462916</ele>
        <time>2022-02-24T12:56:41.649Z</time>
      </trkpt>
      <trkpt lat="38.7735" lon="39.97282">
        <ele>1032.782499</ele>
        <time>2022-02-24T12:56:54.707Z</time>
      </trkpt>
      <trkpt lat="38.77253" lon="39.97258">
        <ele>1028.731662</ele>
        <time>2022-02-24T12:57:13.094Z</time>
      </trkpt>
      <trkpt lat="38.77151" lon="39.9722">
        <ele>1025.056666</ele>
        <time>2022-02-24T12:57:34.235Z</time>
      </trkpt>
      <trkpt lat="38.7706" lon="39.97168">
        <ele>1022.890526</ele>
        <time>2022-02-24T12:57:54.787Z</time>
      </trkpt>
      <trkpt lat="38.76986" lon="39.97114">
        <ele>1021.079927</ele>
        <time>2022-02-24T12:58:12.741Z</time>
      </trkpt>
      <trkpt lat="38.76911" lon="39.97048">
        <ele>1019.602952</ele>
        <time>2022-02-24T12:58:32.298Z</time>
      </trkpt>
      <trkpt lat="38.76832" lon="39.96956">
        <ele>1017.92179</ele>
        <time>2022-02-24T12:58:56.216Z</time>
      </trkpt>
      <trkpt lat="38.76828" lon="39.96965">
        <ele>1017.815085</ele>
        <time>2022-02-24T12:58:57.992Z</time>
      </trkpt>
      <trkpt lat="38.76815" lon="39.96987">
        <ele>1017.498127</ele>
        <time>2022-02-24T12:59:03.293Z</time>
      </trkpt>
      <trkpt lat="38.76738" lon="39.9688">
        <ele>1015.878286</ele>
        <time>2022-02-24T12:59:29.775Z</time>
      </trkpt>
      <trkpt lat="38.76677" lon="39.96776">
        <ele>1013.91033</ele>
        <time>2022-02-24T12:59:52.529Z</time>
      </trkpt>
      <trkpt lat="38.76621" lon="39.96673">
        <ele>1011.910044</ele>
        <time>2022-02-24T13:00:13.890Z</time>
      </trkpt>
      <trkpt lat="38.76646" lon="39.96646">
        <ele>1011.085846</ele>
        <time>2022-02-24T13:00:21.005Z</time>
      </trkpt>
      <trkpt lat="38.76654" lon="39.9664">
        <ele>1010.857729</ele>
        <time>2022-02-24T13:00:23.014Z</time>
      </trkpt>
      <trkpt lat="38.76" lon="39.95288">
        <ele>979.998602</ele>
        <time>2022-02-24T13:04:35.348Z</time>
      </trkpt>
      <trkpt lat="38.75485" lon="39.94234">
        <ele>962.55938</ele>
        <time>2022-02-24T13:08:03.325Z</time>
      </trkpt>
      <trkpt lat="38.75141" lon="39.93532">
        <ele>955.787593</ele>
        <time>2022-02-24T13:10:33.246Z</time>
      </trkpt>
      <trkpt lat="38.74131" lon="39.91465">
        <ele>936.269789</ele>
        <time>2022-02-24T13:17:52.764Z</time>
      </trkpt>
      <trkpt lat="38.73886" lon="39.90964">
        <ele>931.059203</ele>
        <time>2022-02-24T13:19:35.444Z</time>
      </trkpt>
      <trkpt lat="38.73109" lon="39.89376">
        <ele>934.736863</ele>
        <time>2022-02-24T13:26:26.402Z</time>
      </trkpt>
      <trkpt lat="38.72916" lon="39.88983">
        <ele>937.910078</ele>
        <time>2022-02-24T13:28:21.255Z</time>
      </trkpt>
      <trkpt lat="38.7277" lon="39.88685">
        <ele>939.153672</ele>
        <time>2022-02-24T13:29:39.881Z</time>
      </trkpt>
      <trkpt lat="38.72724" lon="39.8859">
        <ele>938.834564</ele>
        <time>2022-02-24T13:30:02.381Z</time>
      </trkpt>
      <trkpt lat="38.72674" lon="39.88488">
        <ele>938.477663</ele>
        <time>2022-02-24T13:30:25.141Z</time>
      </trkpt>
      <trkpt lat="38.72619" lon="39.88367">
        <ele>937.84224</ele>
        <time>2022-02-24T13:30:51.216Z</time>
      </trkpt>
      <trkpt lat="38.72593" lon="39.88294">
        <ele>937.47486</ele>
        <time>2022-02-24T13:31:06.647Z</time>
      </trkpt>
      <trkpt lat="38.7257" lon="39.88228">
        <ele>937.49649</ele>
        <time>2022-02-24T13:31:21.185Z</time>
      </trkpt>
      <trkpt lat="38.72549" lon="39.88185">
        <ele>937.554181</ele>
        <time>2022-02-24T13:31:31.888Z</time>
      </trkpt>
      <trkpt lat="38.72545" lon="39.88179">
        <ele>937.562994</ele>
        <time>2022-02-24T13:31:33.564Z</time>
      </trkpt>
      <trkpt lat="38.72514" lon="39.88132">
        <ele>937.634753</ele>
        <time>2022-02-24T13:31:47.450Z</time>
      </trkpt>
      <trkpt lat="38.72481" lon="39.88077">
        <ele>937.803756</ele>
        <time>2022-02-24T13:32:03.081Z</time>
      </trkpt>
      <trkpt lat="38.72514" lon="39.88043">
        <ele>938.107715</ele>
        <time>2022-02-24T13:32:15.487Z</time>
      </trkpt>
      <trkpt lat="38.72437" lon="39.87894">
        <ele>939.188186</ele>
        <time>2022-02-24T13:32:59.822Z</time>
      </trkpt>
      <trkpt lat="38.72364" lon="39.87741">
        <ele>940.825767</ele>
        <time>2022-02-24T13:33:46.031Z</time>
      </trkpt>
      <trkpt lat="38.7229" lon="39.87589">
        <ele>943.193482</ele>
        <time>2022-02-24T13:34:36.942Z</time>
      </trkpt>
      <trkpt lat="38.72288" lon="39.87584">
        <ele>943.274348</ele>
        <time>2022-02-24T13:34:38.980Z</time>
      </trkpt>
      <trkpt lat="38.72251" lon="39.87503">
        <ele>944.564219</ele>
        <time>2022-02-24T13:35:05.733Z</time>
      </trkpt>
      <trkpt lat="38.7221" lon="39.87425">
        <ele>945.786089</ele>
        <time>2022-02-24T13:35:32.190Z</time>
      </trkpt>
      <trkpt lat="38.72235" lon="39.87395">
        <ele>946.375667</ele>
        <time>2022-02-24T13:35:44.410Z</time>
      </trkpt>
      <trkpt lat="38.72228" lon="39.87385">
        <ele>946.556533</ele>
        <time>2022-02-24T13:35:48.030Z</time>
      </trkpt>
      <trkpt lat="38.72116" lon="39.87235">
        <ele>949.721802</ele>
        <time>2022-02-24T13:36:44.262Z</time>
      </trkpt>
      <trkpt lat="38.7201" lon="39.86959">
        <ele>955.689972</ele>
        <time>2022-02-24T13:38:19.772Z</time>
      </trkpt>
      <trkpt lat="38.71901" lon="39.86676">
        <ele>961.107753</ele>
        <time>2022-02-24T13:39:51.956Z</time>
      </trkpt>
      <trkpt lat="38.71862" lon="39.86582">
        <ele>962.718451</ele>
        <time>2022-02-24T13:40:20.667Z</time>
      </trkpt>
      <trkpt lat="38.71855" lon="39.86561">
        <ele>963.066967</ele>
        <time>2022-02-24T13:40:27.172Z</time>
      </trkpt>
      <trkpt lat="38.7185" lon="39.86547">
        <ele>963.296395</ele>
        <time>2022-02-24T13:40:31.502Z</time>
      </trkpt>
      <trkpt lat="38.71826" lon="39.86483">
        <ele>964.411132</ele>
        <time>2022-02-24T13:40:52.299Z</time>
      </trkpt>
      <trkpt lat="38.71813" lon="39.86448">
        <ele>965.017155</ele>
        <time>2022-02-24T13:41:03.722Z</time>
      </trkpt>
      <trkpt lat="38.71804" lon="39.86423">
        <ele>965.454231</ele>
        <time>2022-02-24T13:41:11.969Z</time>
      </trkpt>
      <trkpt lat="38.71759" lon="39.8631">
        <ele>967.120301</ele>
        <time>2022-02-24T13:41:50.346Z</time>
      </trkpt>
      <trkpt lat="38.71696" lon="39.86148">
        <ele>967.979546</ele>
        <time>2022-02-24T13:42:34.922Z</time>
      </trkpt>
      <trkpt lat="38.71576" lon="39.86227">
        <ele>966.398097</ele>
        <time>2022-02-24T13:43:04.807Z</time>
      </trkpt>
      <trkpt lat="38.71522" lon="39.86118">
        <ele>965.724603</ele>
        <time>2022-02-24T13:43:27.205Z</time>
      </trkpt>
      <trkpt lat="38.71449" lon="39.85973">
        <ele>966.416628</ele>
        <time>2022-02-24T13:44:09.501Z</time>
      </trkpt>
      <trkpt lat="38.71382" lon="39.85839">
        <ele>968.425178</ele>
        <time>2022-02-24T13:44:55.132Z</time>
      </trkpt>
      <trkpt lat="38.7135" lon="39.85773">
        <ele>969.431023</ele>
        <time>2022-02-24T13:45:14.870Z</time>
      </trkpt>
      <trkpt lat="38.71299" lon="39.85668">
        <ele>970.866853</ele>
        <time>2022-02-24T13:45:45.952Z</time>
      </trkpt>
      <trkpt lat="38.71244" lon="39.85556">
        <ele>972.630262</ele>
        <time>2022-02-24T13:46:21.663Z</time>
      </trkpt>
      <trkpt lat="38.71192" lon="39.8545">
        <ele>975.345753</ele>
        <time>2022-02-24T13:46:59.245Z</time>
      </trkpt>
      <trkpt lat="38.71188" lon="39.8544">
        <ele>975.604953</ele>
        <time>2022-02-24T13:47:03.408Z</time>
      </trkpt>
      <trkpt lat="38.71165" lon="39.85394">
        <ele>976.797828</ele>
        <time>2022-02-24T13:47:21.904Z</time>
      </trkpt>
      <trkpt lat="38.71114" lon="39.85291">
        <ele>980.520329</ele>
        <time>2022-02-24T13:48:05.844Z</time>
      </trkpt>
      <trkpt lat="38.7117" lon="39.85222">
        <ele>983.722403</ele>
        <time>2022-02-24T13:48:43.811Z</time>
      </trkpt>
      <trkpt lat="38.71136" lon="39.85131">
        <ele>986.202059</ele>
        <time>2022-02-24T13:49:21.234Z</time>
      </trkpt>
      <trkpt lat="38.71082" lon="39.85039">
        <ele>988.751518</ele>
        <time>2022-02-24T13:49:58.471Z</time>
      </trkpt>
      <trkpt lat="38.70988" lon="39.84844">
        <ele>990.357677</ele>
        <time>2022-02-24T13:50:54.773Z</time>
      </trkpt>
      <trkpt lat="38.70914" lon="39.84692">
        <ele>989.909605</ele>
        <time>2022-02-24T13:51:29.296Z</time>
      </trkpt>
      <trkpt lat="38.70898" lon="39.84663">
        <ele>989.757284</ele>
        <time>2022-02-24T13:51:36.167Z</time>
      </trkpt>
      <trkpt lat="38.70815" lon="39.84687">
        <ele>989.990549</ele>
        <time>2022-02-24T13:51:58.712Z</time>
      </trkpt>
      <trkpt lat="38.70776" lon="39.84609">
        <ele>990.779435</ele>
        <time>2022-02-24T13:52:19.435Z</time>
      </trkpt>
      <trkpt lat="38.70673" lon="39.844">
        <ele>995.87867</ele>
        <time>2022-02-24T13:53:37.312Z</time>
      </trkpt>
      <trkpt lat="38.70654" lon="39.84355">
        <ele>997.229124</ele>
        <time>2022-02-24T13:53:56.478Z</time>
      </trkpt>
      <trkpt lat="38.70645" lon="39.84335">
        <ele>998.004883</ele>
        <time>2022-02-24T13:54:05.587Z</time>
      </trkpt>
      <trkpt lat="38.70615" lon="39.84266">
        <ele>1001.482212</ele>
        <time>2022-02-24T13:54:37.433Z</time>
      </trkpt>
      <trkpt lat="38.70584" lon="39.84154">
        <ele>1006.758457</ele>
        <time>2022-02-24T13:55:29.345Z</time>
      </trkpt>
      <trkpt lat="38.70565" lon="39.84043">
        <ele>1012.428388</ele>
        <time>2022-02-24T13:56:20.146Z</time>
      </trkpt>
      <trkpt lat="38.70558" lon="39.83897">
        <ele>1020.003719</ele>
        <time>2022-02-24T13:57:27.795Z</time>
      </trkpt>
      <trkpt lat="38.70584" lon="39.83839">
        <ele>1023.512116</ele>
        <time>2022-02-24T13:57:59.362Z</time>
      </trkpt>
      <trkpt lat="38.70607" lon="39.83802">
        <ele>1025.943724</ele>
        <time>2022-02-24T13:58:20.950Z</time>
      </trkpt>
      <trkpt lat="38.70629" lon="39.83714">
        <ele>1030.741096</ele>
        <time>2022-02-24T13:59:03.005Z</time>
      </trkpt>
      <trkpt lat="38.7064" lon="39.83653">
        <ele>1033.923722</ele>
        <time>2022-02-24T13:59:31.340Z</time>
      </trkpt>
      <trkpt lat="38.70647" lon="39.83572">
        <ele>1037.997276</ele>
        <time>2022-02-24T14:00:07.220Z</time>
      </trkpt>
      <trkpt lat="38.70645" lon="39.83488">
        <ele>1042.215881</ele>
        <time>2022-02-24T14:00:43.997Z</time>
      </trkpt>
      <trkpt lat="38.70633" lon="39.83418">
        <ele>1046.026523</ele>
        <time>2022-02-24T14:01:17.998Z</time>
      </trkpt>
      <trkpt lat="38.7061" lon="39.83335">
        <ele>1050.872122</ele>
        <time>2022-02-24T14:02:01.412Z</time>
      </trkpt>
      <trkpt lat="38.70607" lon="39.83325">
        <ele>1051.420548</ele>
        <time>2022-02-24T14:02:07.209Z</time>
      </trkpt>
      <trkpt lat="38.7059" lon="39.83277">
        <ele>1054.322868</ele>
        <time>2022-02-24T14:02:32.164Z</time>
      </trkpt>
      <trkpt lat="38.70569" lon="39.83231">
        <ele>1056.708808</ele>
        <time>2022-02-24T14:02:56.930Z</time>
      </trkpt>
      <trkpt lat="38.70464" lon="39.83067">
        <ele>1063.449124</ele>
        <time>2022-02-24T14:04:15.146Z</time>
      </trkpt>
      <trkpt lat="38.70397" lon="39.8294">
        <ele>1062.7884</ele>
        <time>2022-02-24T14:04:43.464Z</time>
      </trkpt>
      <trkpt lat="38.7036" lon="39.82909">
        <ele>1062.539796</ele>
        <time>2022-02-24T14:04:52.720Z</time>
      </trkpt>
      <trkpt lat="38.69406" lon="39.81454">
        <ele>1033.049061</ele>
        <time>2022-02-24T14:10:03.635Z</time>
      </trkpt>
      <trkpt lat="38.69276" lon="39.81255">
        <ele>1034.445407</ele>
        <time>2022-02-24T14:11:15.655Z</time>
      </trkpt>
      <trkpt lat="38.69056" lon="39.80931">
        <ele>1031.486218</ele>
        <time>2022-02-24T14:12:36.126Z</time>
      </trkpt>
      <trkpt lat="38.6832" lon="39.79816">
        <ele>978.294281</ele>
        <time>2022-02-24T14:16:04.253Z</time>
      </trkpt>
      <trkpt lat="38.68202" lon="39.79668">
        <ele>969.991501</ele>
        <time>2022-02-24T14:16:34.146Z</time>
      </trkpt>
      <trkpt lat="38.67934" lon="39.79389">
        <ele>951.756767</ele>
        <time>2022-02-24T14:17:36.138Z</time>
      </trkpt>
      <trkpt lat="38.67863" lon="39.79303">
        <ele>946.370474</ele>
        <time>2022-02-24T14:17:53.563Z</time>
      </trkpt>
      <trkpt lat="38.67811" lon="39.79214">
        <ele>941.74657</ele>
        <time>2022-02-24T14:18:08.997Z</time>
      </trkpt>
      <trkpt lat="38.67759" lon="39.79142">
        <ele>937.687241</ele>
        <time>2022-02-24T14:18:22.795Z</time>
      </trkpt>
      <trkpt lat="38.67714" lon="39.7909">
        <ele>934.689121</ele>
        <time>2022-02-24T14:18:33.796Z</time>
      </trkpt>
      <trkpt lat="38.67657" lon="39.79046">
        <ele>931.703989</ele>
        <time>2022-02-24T14:18:46.029Z</time>
      </trkpt>
      <trkpt lat="38.67479" lon="39.7896">
        <ele>923.524756</ele>
        <time>2022-02-24T14:19:21.424Z</time>
      </trkpt>
      <trkpt lat="38.67365" lon="39.78861">
        <ele>918.034102</ele>
        <time>2022-02-24T14:19:47.359Z</time>
      </trkpt>
      <trkpt lat="38.67304" lon="39.78779">
        <ele>914.670694</ele>
        <time>2022-02-24T14:20:04.276Z</time>
      </trkpt>
      <trkpt lat="38.67104" lon="39.78432">
        <ele>902.281328</ele>
        <time>2022-02-24T14:21:08.794Z</time>
      </trkpt>
      <trkpt lat="38.67021" lon="39.78346">
        <ele>897.923889</ele>
        <time>2022-02-24T14:21:28.907Z</time>
      </trkpt>
      <trkpt lat="38.66924" lon="39.78281">
        <ele>893.153265</ele>
        <time>2022-02-24T14:21:49.000Z</time>
      </trkpt>
      <trkpt lat="38.66874" lon="39.7826">
        <ele>890.754001</ele>
        <time>2022-02-24T14:21:58.706Z</time>
      </trkpt>
      <trkpt lat="38.66728" lon="39.78213">
        <ele>883.815234</ele>
        <time>2022-02-24T14:22:26.296Z</time>
      </trkpt>
      <trkpt lat="38.66681" lon="39.78189">
        <ele>881.657637</ele>
        <time>2022-02-24T14:22:35.565Z</time>
      </trkpt>
      <trkpt lat="38.66614" lon="39.78145">
        <ele>878.43611</ele>
        <time>2022-02-24T14:22:49.604Z</time>
      </trkpt>
      <trkpt lat="38.666" lon="39.78133">
        <ele>877.733875</ele>
        <time>2022-02-24T14:22:52.668Z</time>
      </trkpt>
      <trkpt lat="38.66596" lon="39.78129">
        <ele>877.527438</ele>
        <time>2022-02-24T14:22:53.624Z</time>
      </trkpt>
      <trkpt lat="38.6658" lon="39.78115">
        <ele>876.680203</ele>
        <time>2022-02-24T14:22:57.419Z</time>
      </trkpt>
      <trkpt lat="38.66496" lon="39.78025">
        <ele>873.796015</ele>
        <time>2022-02-24T14:23:18.839Z</time>
      </trkpt>
      <trkpt lat="38.66453" lon="39.7796">
        <ele>872.11515</ele>
        <time>2022-02-24T14:23:33.125Z</time>
      </trkpt>
      <trkpt lat="38.66387" lon="39.77836">
        <ele>870.838775</ele>
        <time>2022-02-24T14:24:00.306Z</time>
      </trkpt>
      <trkpt lat="38.66174" lon="39.7736">
        <ele>868.013245</ele>
        <time>2022-02-24T14:25:44.006Z</time>
      </trkpt>
      <trkpt lat="38.65919" lon="39.76802">
        <ele>864.847339</ele>
        <time>2022-02-24T14:27:47.654Z</time>
      </trkpt>
      <trkpt lat="38.65805" lon="39.76554">
        <ele>861.824075</ele>
        <time>2022-02-24T14:28:37.149Z</time>
      </trkpt>
      <trkpt lat="38.65814" lon="39.76528">
        <ele>861.507357</ele>
        <time>2022-02-24T14:28:42.220Z</time>
      </trkpt>
      <trkpt lat="38.65723" lon="39.76333">
        <ele>859.072672</ele>
        <time>2022-02-24T14:29:23.330Z</time>
      </trkpt>
      <trkpt lat="38.65659" lon="39.76191">
        <ele>857.782857</ele>
        <time>2022-02-24T14:29:54.529Z</time>
      </trkpt>
      <trkpt lat="38.65642" lon="39.76198">
        <ele>857.606075</ele>
        <time>2022-02-24T14:29:58.901Z</time>
      </trkpt>
      <trkpt lat="38.65506" lon="39.75902">
        <ele>855.639026</ele>
        <time>2022-02-24T14:31:03.697Z</time>
      </trkpt>
      <trkpt lat="38.654" lon="39.75669">
        <ele>853.846875</ele>
        <time>2022-02-24T14:31:52.382Z</time>
      </trkpt>
      <trkpt lat="38.65328" lon="39.755">
        <ele>852.936149</ele>
        <time>2022-02-24T14:32:28.789Z</time>
      </trkpt>
      <trkpt lat="38.65241" lon="39.75242">
        <ele>852.573034</ele>
        <time>2022-02-24T14:33:25.921Z</time>
      </trkpt>
      <trkpt lat="38.6521" lon="39.75105">
        <ele>852.739414</ele>
        <time>2022-02-24T14:33:56.824Z</time>
      </trkpt>
      <trkpt lat="38.65177" lon="39.74927">
        <ele>853.197023</ele>
        <time>2022-02-24T14:34:37.455Z</time>
      </trkpt>
      <trkpt lat="38.65158" lon="39.74756">
        <ele>853.602972</ele>
        <time>2022-02-24T14:35:15.604Z</time>
      </trkpt>
      <trkpt lat="38.65146" lon="39.74601">
        <ele>853.718914</ele>
        <time>2022-02-24T14:35:48.679Z</time>
      </trkpt>
      <trkpt lat="38.65132" lon="39.74229">
        <ele>853.679595</ele>
        <time>2022-02-24T14:37:05.585Z</time>
      </trkpt>
      <trkpt lat="38.65129" lon="39.74128">
        <ele>853.763385</ele>
        <time>2022-02-24T14:37:27.231Z</time>
      </trkpt>
      <trkpt lat="38.65113" lon="39.73925">
        <ele>853.805131</ele>
        <time>2022-02-24T14:38:10.302Z</time>
      </trkpt>
      <trkpt lat="38.65094" lon="39.73789">
        <ele>853.756968</ele>
        <time>2022-02-24T14:38:38.282Z</time>
      </trkpt>
      <trkpt lat="38.65067" lon="39.73654">
        <ele>853.888037</ele>
        <time>2022-02-24T14:39:07.633Z</time>
      </trkpt>
      <trkpt lat="38.65033" lon="39.73502">
        <ele>854.170771</ele>
        <time>2022-02-24T14:39:42.738Z</time>
      </trkpt>
      <trkpt lat="38.64983" lon="39.73339">
        <ele>854.570594</ele>
        <time>2022-02-24T14:40:22.035Z</time>
      </trkpt>
      <trkpt lat="38.64917" lon="39.73172">
        <ele>854.452242</ele>
        <time>2022-02-24T14:41:00.800Z</time>
      </trkpt>
      <trkpt lat="38.6471" lon="39.72732">
        <ele>851.014076</ele>
        <time>2022-02-24T14:42:35.711Z</time>
      </trkpt>
      <trkpt lat="38.64531" lon="39.72397">
        <ele>845.298066</ele>
        <time>2022-02-24T14:43:42.280Z</time>
      </trkpt>
      <trkpt lat="38.64301" lon="39.71952">
        <ele>842.990733</ele>
        <time>2022-02-24T14:45:22.106Z</time>
      </trkpt>
      <trkpt lat="38.6426" lon="39.71902">
        <ele>843.89885</ele>
        <time>2022-02-24T14:45:39.983Z</time>
      </trkpt>
      <trkpt lat="38.64093" lon="39.71589">
        <ele>852.659071</ele>
        <time>2022-02-24T14:47:45.262Z</time>
      </trkpt>
      <trkpt lat="38.64079" lon="39.71554">
        <ele>854.022805</ele>
        <time>2022-02-24T14:48:00.312Z</time>
      </trkpt>
      <trkpt lat="38.64074" lon="39.71537">
        <ele>854.636987</ele>
        <time>2022-02-24T14:48:08.954Z</time>
      </trkpt>
      <trkpt lat="38.64071" lon="39.71502">
        <ele>855.84725</ele>
        <time>2022-02-24T14:48:21.971Z</time>
      </trkpt>
      <trkpt lat="38.64078" lon="39.71453">
        <ele>857.567859</ele>
        <time>2022-02-24T14:48:42.375Z</time>
      </trkpt>
      <trkpt lat="38.64175" lon="39.71287">
        <ele>862.997499</ele>
        <time>2022-02-24T14:49:55.374Z</time>
      </trkpt>
      <trkpt lat="38.64214" lon="39.71206">
        <ele>864.663151</ele>
        <time>2022-02-24T14:50:20.446Z</time>
      </trkpt>
      <trkpt lat="38.64229" lon="39.71166">
        <ele>864.631261</ele>
        <time>2022-02-24T14:50:31.061Z</time>
      </trkpt>
      <trkpt lat="38.6446" lon="39.70561">
        <ele>863.448744</ele>
        <time>2022-02-24T14:52:43.358Z</time>
      </trkpt>
      <trkpt lat="38.64527" lon="39.70372">
        <ele>862.517756</ele>
        <time>2022-02-24T14:53:22.043Z</time>
      </trkpt>
      <trkpt lat="38.64562" lon="39.70235">
        <ele>862.365498</ele>
        <time>2022-02-24T14:53:50.589Z</time>
      </trkpt>
      <trkpt lat="38.64582" lon="39.70118">
        <ele>862.832327</ele>
        <time>2022-02-24T14:54:18.174Z</time>
      </trkpt>
      <trkpt lat="38.64591" lon="39.70067">
        <ele>863.272973</ele>
        <time>2022-02-24T14:54:31.163Z</time>
      </trkpt>
      <trkpt lat="38.64657" lon="39.69716">
        <ele>867.086886</ele>
        <time>2022-02-24T14:56:06.307Z</time>
      </trkpt>
      <trkpt lat="38.64881" lon="39.68546">
        <ele>880.582426</ele>
        <time>2022-02-24T15:01:22.820Z</time>
      </trkpt>
      <trkpt lat="38.64906" lon="39.68349">
        <ele>882.535118</ele>
        <time>2022-02-24T15:02:12.996Z</time>
      </trkpt>
      <trkpt lat="38.64912" lon="39.68154">
        <ele>884.521894</ele>
        <time>2022-02-24T15:03:01.952Z</time>
      </trkpt>
      <trkpt lat="38.64909" lon="39.67998">
        <ele>888.324433</ele>
        <time>2022-02-24T15:03:48.715Z</time>
      </trkpt>
      <trkpt lat="38.64862" lon="39.6728">
        <ele>915.055097</ele>
        <time>2022-02-24T15:08:33.430Z</time>
      </trkpt>
      <trkpt lat="38.64846" lon="39.67179">
        <ele>917.966509</ele>
        <time>2022-02-24T15:09:12.996Z</time>
      </trkpt>
      <trkpt lat="38.64807" lon="39.67061">
        <ele>920.740563</ele>
        <time>2022-02-24T15:09:54.624Z</time>
      </trkpt>
      <trkpt lat="38.64083" lon="39.65139">
        <ele>916.22313</ele>
        <time>2022-02-24T15:16:51.769Z</time>
      </trkpt>
      <trkpt lat="38.64025" lon="39.6497">
        <ele>918.885278</ele>
        <time>2022-02-24T15:17:44.588Z</time>
      </trkpt>
      <trkpt lat="38.63986" lon="39.64829">
        <ele>922.226708</ele>
        <time>2022-02-24T15:18:33.365Z</time>
      </trkpt>
      <trkpt lat="38.63953" lon="39.64685">
        <ele>925.814966</ele>
        <time>2022-02-24T15:19:22.561Z</time>
      </trkpt>
      <trkpt lat="38.6393" lon="39.64554">
        <ele>929.009557</ele>
        <time>2022-02-24T15:20:06.194Z</time>
      </trkpt>
      <trkpt lat="38.6386" lon="39.63954">
        <ele>940.991711</ele>
        <time>2022-02-24T15:23:17.340Z</time>
      </trkpt>
      <trkpt lat="38.63755" lon="39.6297">
        <ele>945.003346</ele>
        <time>2022-02-24T15:27:00.322Z</time>
      </trkpt>
      <trkpt lat="38.63664" lon="39.62181">
        <ele>934.452399</ele>
        <time>2022-02-24T15:29:13.400Z</time>
      </trkpt>
      <trkpt lat="38.63659" lon="39.62058">
        <ele>932.771317</ele>
        <time>2022-02-24T15:29:34.342Z</time>
      </trkpt>
      <trkpt lat="38.63674" lon="39.61621">
        <ele>925.9268</ele>
        <time>2022-02-24T15:30:47.770Z</time>
      </trkpt>
      <trkpt lat="38.6368" lon="39.61424">
        <ele>919.956371</ele>
        <time>2022-02-24T15:31:17.326Z</time>
      </trkpt>
      <trkpt lat="38.63704" lon="39.60592">
        <ele>887.184826</ele>
        <time>2022-02-24T15:33:14.102Z</time>
      </trkpt>
      <trkpt lat="38.63701" lon="39.60492">
        <ele>884.047686</ele>
        <time>2022-02-24T15:33:28.452Z</time>
      </trkpt>
      <trkpt lat="38.63688" lon="39.60402">
        <ele>881.178216</ele>
        <time>2022-02-24T15:33:42.159Z</time>
      </trkpt>
      <trkpt lat="38.63669" lon="39.60329">
        <ele>880.368979</ele>
        <time>2022-02-24T15:33:54.686Z</time>
      </trkpt>
      <trkpt lat="38.63637" lon="39.60244">
        <ele>879.98515</ele>
        <time>2022-02-24T15:34:12.278Z</time>
      </trkpt>
      <trkpt lat="38.63491" lon="39.59896">
        <ele>882.453595</ele>
        <time>2022-02-24T15:35:54.941Z</time>
      </trkpt>
      <trkpt lat="38.6341" lon="39.5968">
        <ele>882.125979</ele>
        <time>2022-02-24T15:36:45.889Z</time>
      </trkpt>
      <trkpt lat="38.63375" lon="39.59516">
        <ele>880.142988</ele>
        <time>2022-02-24T15:37:13.381Z</time>
      </trkpt>
      <trkpt lat="38.63358" lon="39.59398">
        <ele>878.057566</ele>
        <time>2022-02-24T15:37:32.003Z</time>
      </trkpt>
      <trkpt lat="38.63306" lon="39.57375">
        <ele>857.031352</ele>
        <time>2022-02-24T15:43:25.370Z</time>
      </trkpt>
      <trkpt lat="38.63304" lon="39.57245">
        <ele>856.651595</ele>
        <time>2022-02-24T15:43:52.288Z</time>
      </trkpt>
      <trkpt lat="38.63295" lon="39.56865">
        <ele>860.519104</ele>
        <time>2022-02-24T15:45:31.612Z</time>
      </trkpt>
      <trkpt lat="38.63286" lon="39.567">
        <ele>862.249544</ele>
        <time>2022-02-24T15:46:15.331Z</time>
      </trkpt>
      <trkpt lat="38.63269" lon="39.5655">
        <ele>863.657053</ele>
        <time>2022-02-24T15:46:53.743Z</time>
      </trkpt>
      <trkpt lat="38.63239" lon="39.56405">
        <ele>864.317506</ele>
        <time>2022-02-24T15:47:29.185Z</time>
      </trkpt>
      <trkpt lat="38.63203" lon="39.56268">
        <ele>864.325509</ele>
        <time>2022-02-24T15:47:59.115Z</time>
      </trkpt>
      <trkpt lat="38.63168" lon="39.56167">
        <ele>863.928782</ele>
        <time>2022-02-24T15:48:19.956Z</time>
      </trkpt>
      <trkpt lat="38.63123" lon="39.56054">
        <ele>863.266012</ele>
        <time>2022-02-24T15:48:43.235Z</time>
      </trkpt>
      <trkpt lat="38.6307" lon="39.5594">
        <ele>862.474234</ele>
        <time>2022-02-24T15:49:07.860Z</time>
      </trkpt>
      <trkpt lat="38.6276" lon="39.55309">
        <ele>859.43729</ele>
        <time>2022-02-24T15:51:31.517Z</time>
      </trkpt>
      <trkpt lat="38.62643" lon="39.55071">
        <ele>858.192106</ele>
        <time>2022-02-24T15:52:24.466Z</time>
      </trkpt>
      <trkpt lat="38.62338" lon="39.54448">
        <ele>855.760569</ele>
        <time>2022-02-24T15:54:48.219Z</time>
      </trkpt>
      <trkpt lat="38.62295" lon="39.54341">
        <ele>855.76582</ele>
        <time>2022-02-24T15:55:10.764Z</time>
      </trkpt>
      <trkpt lat="38.62265" lon="39.54238">
        <ele>856.924169</ele>
        <time>2022-02-24T15:55:36.831Z</time>
      </trkpt>
      <trkpt lat="38.62232" lon="39.54098">
        <ele>858.828005</ele>
        <time>2022-02-24T15:56:23.336Z</time>
      </trkpt>
      <trkpt lat="38.62219" lon="39.53966">
        <ele>861.109951</ele>
        <time>2022-02-24T15:57:05.905Z</time>
      </trkpt>
      <trkpt lat="38.62178" lon="39.53262">
        <ele>860.795645</ele>
        <time>2022-02-24T15:59:27.450Z</time>
      </trkpt>
      <trkpt lat="38.62161" lon="39.53132">
        <ele>860.292342</ele>
        <time>2022-02-24T15:59:52.506Z</time>
      </trkpt>
      <trkpt lat="38.62133" lon="39.52993">
        <ele>859.687006</ele>
        <time>2022-02-24T16:00:19.967Z</time>
      </trkpt>
      <trkpt lat="38.62101" lon="39.52867">
        <ele>859.085712</ele>
        <time>2022-02-24T16:00:45.257Z</time>
      </trkpt>
      <trkpt lat="38.62079" lon="39.52803">
        <ele>858.770043</ele>
        <time>2022-02-24T16:00:58.459Z</time>
      </trkpt>
      <trkpt lat="38.62063" lon="39.52757">
        <ele>858.549631</ele>
        <time>2022-02-24T16:01:08.046Z</time>
      </trkpt>
      <trkpt lat="38.61971" lon="39.52544">
        <ele>857.595216</ele>
        <time>2022-02-24T16:01:54.724Z</time>
      </trkpt>
      <trkpt lat="38.61911" lon="39.52438">
        <ele>857.252522</ele>
        <time>2022-02-24T16:02:20.860Z</time>
      </trkpt>
      <trkpt lat="38.61019" lon="39.50909">
        <ele>854.063865</ele>
        <time>2022-02-24T16:08:44.723Z</time>
      </trkpt>
      <trkpt lat="38.60986" lon="39.50849">
        <ele>853.887689</ele>
        <time>2022-02-24T16:08:59.074Z</time>
      </trkpt>
      <trkpt lat="38.6095" lon="39.50783">
        <ele>853.696689</ele>
        <time>2022-02-24T16:09:14.959Z</time>
      </trkpt>
      <trkpt lat="38.60941" lon="39.50765">
        <ele>853.647075</ele>
        <time>2022-02-24T16:09:19.014Z</time>
      </trkpt>
      <trkpt lat="38.60899" lon="39.50678">
        <ele>853.54231</ele>
        <time>2022-02-24T16:09:39.608Z</time>
      </trkpt>
      <trkpt lat="38.60889" lon="39.50655">
        <ele>853.533518</ele>
        <time>2022-02-24T16:09:44.936Z</time>
      </trkpt>
      <trkpt lat="38.60826" lon="39.50506">
        <ele>853.525243</ele>
        <time>2022-02-24T16:10:20.837Z</time>
      </trkpt>
      <trkpt lat="38.6023" lon="39.49001">
        <ele>855.402911</ele>
        <time>2022-02-24T16:16:21.796Z</time>
      </trkpt>
      <trkpt lat="38.59287" lon="39.46601">
        <ele>858.417757</ele>
        <time>2022-02-24T16:25:57.035Z</time>
      </trkpt>
      <trkpt lat="38.59263" lon="39.46505">
        <ele>858.384046</ele>
        <time>2022-02-24T16:26:17.953Z</time>
      </trkpt>
      <trkpt lat="38.59244" lon="39.46408">
        <ele>858.343377</ele>
        <time>2022-02-24T16:26:38.368Z</time>
      </trkpt>
      <trkpt lat="38.5923" lon="39.46302">
        <ele>858.164666</ele>
        <time>2022-02-24T16:27:00.138Z</time>
      </trkpt>
      <trkpt lat="38.5922" lon="39.46202">
        <ele>857.996635</ele>
        <time>2022-02-24T16:27:20.389Z</time>
      </trkpt>
      <trkpt lat="38.59217" lon="39.46101">
        <ele>857.864625</ele>
        <time>2022-02-24T16:27:40.282Z</time>
      </trkpt>
      <trkpt lat="38.59232" lon="39.45883">
        <ele>857.921412</ele>
        <time>2022-02-24T16:28:25.127Z</time>
      </trkpt>
      <trkpt lat="38.59248" lon="39.45791">
        <ele>858.228219</ele>
        <time>2022-02-24T16:28:46.522Z</time>
      </trkpt>
      <trkpt lat="38.59295" lon="39.45601">
        <ele>859.454536</ele>
        <time>2022-02-24T16:29:35.582Z</time>
      </trkpt>
      <trkpt lat="38.59386" lon="39.4531">
        <ele>861.497065</ele>
        <time>2022-02-24T16:30:51.475Z</time>
      </trkpt>
      <trkpt lat="38.59414" lon="39.45198">
        <ele>861.644656</ele>
        <time>2022-02-24T16:31:16.185Z</time>
      </trkpt>
      <trkpt lat="38.5943" lon="39.45113">
        <ele>861.710979</ele>
        <time>2022-02-24T16:31:33.425Z</time>
      </trkpt>
      <trkpt lat="38.59445" lon="39.44973">
        <ele>862.819483</ele>
        <time>2022-02-24T16:32:04.440Z</time>
      </trkpt>
      <trkpt lat="38.59444" lon="39.44874">
        <ele>863.832791</ele>
        <time>2022-02-24T16:32:32.160Z</time>
      </trkpt>
      <trkpt lat="38.59438" lon="39.44784">
        <ele>865.291562</ele>
        <time>2022-02-24T16:33:01.537Z</time>
      </trkpt>
      <trkpt lat="38.59427" lon="39.44697">
        <ele>866.919306</ele>
        <time>2022-02-24T16:33:30.050Z</time>
      </trkpt>
      <trkpt lat="38.5941" lon="39.44613">
        <ele>868.27242</ele>
        <time>2022-02-24T16:33:55.565Z</time>
      </trkpt>
      <trkpt lat="38.592" lon="39.4388">
        <ele>862.166139</ele>
        <time>2022-02-24T16:36:14.366Z</time>
      </trkpt>
      <trkpt lat="38.5918" lon="39.43729">
        <ele>861.011724</ele>
        <time>2022-02-24T16:36:41.908Z</time>
      </trkpt>
      <trkpt lat="38.59179" lon="39.43642">
        <ele>860.801813</ele>
        <time>2022-02-24T16:36:58.521Z</time>
      </trkpt>
      <trkpt lat="38.59179" lon="39.43625">
        <ele>860.758265</ele>
        <time>2022-02-24T16:37:02.120Z</time>
      </trkpt>
      <trkpt lat="38.5918" lon="39.43582">
        <ele>860.654137</ele>
        <time>2022-02-24T16:37:10.890Z</time>
      </trkpt>
      <trkpt lat="38.59185" lon="39.43522">
        <ele>860.512008</ele>
        <time>2022-02-24T16:37:23.850Z</time>
      </trkpt>
      <trkpt lat="38.59211" lon="39.43369">
        <ele>861.043068</ele>
        <time>2022-02-24T16:37:58.936Z</time>
      </trkpt>
      <trkpt lat="38.59283" lon="39.43057">
        <ele>862.311719</ele>
        <time>2022-02-24T16:39:13.400Z</time>
      </trkpt>
      <trkpt lat="38.59293" lon="39.42968">
        <ele>862.677806</ele>
        <time>2022-02-24T16:39:33.760Z</time>
      </trkpt>
      <trkpt lat="38.59298" lon="39.42862">
        <ele>863.112018</ele>
        <time>2022-02-24T16:39:58.127Z</time>
      </trkpt>
      <trkpt lat="38.59294" lon="39.4277">
        <ele>863.42651</ele>
        <time>2022-02-24T16:40:19.239Z</time>
      </trkpt>
      <trkpt lat="38.59281" lon="39.42679">
        <ele>863.727791</ele>
        <time>2022-02-24T16:40:39.664Z</time>
      </trkpt>
      <trkpt lat="38.59235" lon="39.42503">
        <ele>864.52464</ele>
        <time>2022-02-24T16:41:20.498Z</time>
      </trkpt>
      <trkpt lat="38.58981" lon="39.41818">
        <ele>870.976238</ele>
        <time>2022-02-24T16:44:27.442Z</time>
      </trkpt>
      <trkpt lat="38.58906" lon="39.4162">
        <ele>875.594211</ele>
        <time>2022-02-24T16:45:41.747Z</time>
      </trkpt>
      <trkpt lat="38.58879" lon="39.41536">
        <ele>876.611695</ele>
        <time>2022-02-24T16:46:08.615Z</time>
      </trkpt>
      <trkpt lat="38.58557" lon="39.40692">
        <ele>876.789666</ele>
        <time>2022-02-24T16:49:19.537Z</time>
      </trkpt>
      <trkpt lat="38.58469" lon="39.40431">
        <ele>876.709421</ele>
        <time>2022-02-24T16:50:19.813Z</time>
      </trkpt>
      <trkpt lat="38.5847" lon="39.40425">
        <ele>876.70435</ele>
        <time>2022-02-24T16:50:21.003Z</time>
      </trkpt>
      <trkpt lat="38.58469" lon="39.4042">
        <ele>876.69924</ele>
        <time>2022-02-24T16:50:22.207Z</time>
      </trkpt>
      <trkpt lat="38.58468" lon="39.40414">
        <ele>876.694136</ele>
        <time>2022-02-24T16:50:23.394Z</time>
      </trkpt>
      <trkpt lat="38.58465" lon="39.40409">
        <ele>876.688448</ele>
        <time>2022-02-24T16:50:24.709Z</time>
      </trkpt>
      <trkpt lat="38.5846" lon="39.40406">
        <ele>876.682733</ele>
        <time>2022-02-24T16:50:26.031Z</time>
      </trkpt>
      <trkpt lat="38.58415" lon="39.40299">
        <ele>876.238676</ele>
        <time>2022-02-24T16:50:50.225Z</time>
      </trkpt>
      <trkpt lat="38.58153" lon="39.39603">
        <ele>868.922448</ele>
        <time>2022-02-24T16:53:06.832Z</time>
      </trkpt>
      <trkpt lat="38.58105" lon="39.39476">
        <ele>867.111925</ele>
        <time>2022-02-24T16:53:30.450Z</time>
      </trkpt>
      <trkpt lat="38.57966" lon="39.39104">
        <ele>860.706808</ele>
        <time>2022-02-24T16:54:38.050Z</time>
      </trkpt>
      <trkpt lat="38.57936" lon="39.39006">
        <ele>859.9433</ele>
        <time>2022-02-24T16:54:56.532Z</time>
      </trkpt>
      <trkpt lat="38.57916" lon="39.38922">
        <ele>859.421677</ele>
        <time>2022-02-24T16:55:13.145Z</time>
      </trkpt>
      <trkpt lat="38.57899" lon="39.38814">
        <ele>859.352632</ele>
        <time>2022-02-24T16:55:36.454Z</time>
      </trkpt>
      <trkpt lat="38.57898" lon="39.38811">
        <ele>859.367269</ele>
        <time>2022-02-24T16:55:37.550Z</time>
      </trkpt>
      <trkpt lat="38.57885" lon="39.38701">
        <ele>859.80041</ele>
        <time>2022-02-24T16:56:03.295Z</time>
      </trkpt>
      <trkpt lat="38.57884" lon="39.38685">
        <ele>859.860934</ele>
        <time>2022-02-24T16:56:07.023Z</time>
      </trkpt>
      <trkpt lat="38.5788" lon="39.38578">
        <ele>860.29168</ele>
        <time>2022-02-24T16:56:32.557Z</time>
      </trkpt>
      <trkpt lat="38.57881" lon="39.38471">
        <ele>860.729716</ele>
        <time>2022-02-24T16:56:57.170Z</time>
      </trkpt>
      <trkpt lat="38.57882" lon="39.38463">
        <ele>860.762105</ele>
        <time>2022-02-24T16:56:58.878Z</time>
      </trkpt>
      <trkpt lat="38.57893" lon="39.38349">
        <ele>860.92719</ele>
        <time>2022-02-24T16:57:23.778Z</time>
      </trkpt>
      <trkpt lat="38.57911" lon="39.38239">
        <ele>860.879254</ele>
        <time>2022-02-24T16:57:47.311Z</time>
      </trkpt>
      <trkpt lat="38.57942" lon="39.38115">
        <ele>860.312281</ele>
        <time>2022-02-24T16:58:12.281Z</time>
      </trkpt>
      <trkpt lat="38.58016" lon="39.3787">
        <ele>858.51754</ele>
        <time>2022-02-24T16:58:59.153Z</time>
      </trkpt>
      <trkpt lat="38.58166" lon="39.37374">
        <ele>855.217804</ele>
        <time>2022-02-24T17:00:37.942Z</time>
      </trkpt>
      <trkpt lat="38.58369" lon="39.36701">
        <ele>854.093584</ele>
        <time>2022-02-24T17:03:03.969Z</time>
      </trkpt>
      <trkpt lat="38.58419" lon="39.36486">
        <ele>854.422706</ele>
        <time>2022-02-24T17:03:52.287Z</time>
      </trkpt>
      <trkpt lat="38.58465" lon="39.36252">
        <ele>855.476261</ele>
        <time>2022-02-24T17:04:47.723Z</time>
      </trkpt>
      <trkpt lat="38.58476" lon="39.36204">
        <ele>855.847149</ele>
        <time>2022-02-24T17:04:59.791Z</time>
      </trkpt>
      <trkpt lat="38.58479" lon="39.36199">
        <ele>855.895933</ele>
        <time>2022-02-24T17:05:01.208Z</time>
      </trkpt>
      <trkpt lat="38.58481" lon="39.36194">
        <ele>855.945719</ele>
        <time>2022-02-24T17:05:02.712Z</time>
      </trkpt>
      <trkpt lat="38.58482" lon="39.36188">
        <ele>855.99518</ele>
        <time>2022-02-24T17:05:04.216Z</time>
      </trkpt>
      <trkpt lat="38.58482" lon="39.36182">
        <ele>856.04242</ele>
        <time>2022-02-24T17:05:05.645Z</time>
      </trkpt>
      <trkpt lat="38.5848" lon="39.36177">
        <ele>856.089549</ele>
        <time>2022-02-24T17:05:07.076Z</time>
      </trkpt>
      <trkpt lat="38.58477" lon="39.36172">
        <ele>856.139956</ele>
        <time>2022-02-24T17:05:08.680Z</time>
      </trkpt>
      <trkpt lat="38.58463" lon="39.36167">
        <ele>856.288069</ele>
        <time>2022-02-24T17:05:13.033Z</time>
      </trkpt>
      <trkpt lat="38.58459" lon="39.36169">
        <ele>856.337961</ele>
        <time>2022-02-24T17:05:14.634Z</time>
      </trkpt>
      <trkpt lat="38.58446" lon="39.36171">
        <ele>856.466816</ele>
        <time>2022-02-24T17:05:18.534Z</time>
      </trkpt>
      <trkpt lat="38.5844" lon="39.36171">
        <ele>856.535171</ele>
        <time>2022-02-24T17:05:20.694Z</time>
      </trkpt>
      <trkpt lat="38.58432" lon="39.36169">
        <ele>856.617561</ele>
        <time>2022-02-24T17:05:23.172Z</time>
      </trkpt>
      <trkpt lat="38.58414" lon="39.36103">
        <ele>857.181021</ele>
        <time>2022-02-24T17:05:40.721Z</time>
      </trkpt>
      <trkpt lat="38.58383" lon="39.36038">
        <ele>857.942865</ele>
        <time>2022-02-24T17:06:00.518Z</time>
      </trkpt>
      <trkpt lat="38.58369" lon="39.36022">
        <ele>858.197992</ele>
        <time>2022-02-24T17:06:06.649Z</time>
      </trkpt>
      <trkpt lat="38.58313" lon="39.35988">
        <ele>859.054828</ele>
        <time>2022-02-24T17:06:27.488Z</time>
      </trkpt>
      <trkpt lat="38.58291" lon="39.35986">
        <ele>859.347627</ele>
        <time>2022-02-24T17:06:34.446Z</time>
      </trkpt>
      <trkpt lat="38.58247" lon="39.35996">
        <ele>859.984553</ele>
        <time>2022-02-24T17:06:49.954Z</time>
      </trkpt>
      <trkpt lat="38.58228" lon="39.35995">
        <ele>860.260037</ele>
        <time>2022-02-24T17:06:56.126Z</time>
      </trkpt>
      <trkpt lat="38.58185" lon="39.3597">
        <ele>860.973032</ele>
        <time>2022-02-24T17:07:12.077Z</time>
      </trkpt>
      <trkpt lat="38.58176" lon="39.35966">
        <ele>861.099904</ele>
        <time>2022-02-24T17:07:15.218Z</time>
      </trkpt>
      <trkpt lat="38.58163" lon="39.35961">
        <ele>861.313257</ele>
        <time>2022-02-24T17:07:19.891Z</time>
      </trkpt>
      <trkpt lat="38.57984" lon="39.35983">
        <ele>863.983939</ele>
        <time>2022-02-24T17:08:20.935Z</time>
      </trkpt>
      <trkpt lat="38.57961" lon="39.35983">
        <ele>864.334923</ele>
        <time>2022-02-24T17:08:29.034Z</time>
      </trkpt>
      <trkpt lat="38.57947" lon="39.35967">
        <ele>864.61302</ele>
        <time>2022-02-24T17:08:34.986Z</time>
      </trkpt>
      <trkpt lat="38.57946" lon="39.35954">
        <ele>864.7558</ele>
        <time>2022-02-24T17:08:38.522Z</time>
      </trkpt>
      <trkpt lat="38.57944" lon="39.35938">
        <ele>864.946449</ele>
        <time>2022-02-24T17:08:42.740Z</time>
      </trkpt>
      <trkpt lat="38.57943" lon="39.35739">
        <ele>866.993623</ele>
        <time>2022-02-24T17:09:34.452Z</time>
      </trkpt>
      <trkpt lat="38.57946" lon="39.35678">
        <ele>867.592472</ele>
        <time>2022-02-24T17:09:49.666Z</time>
      </trkpt>
      <trkpt lat="38.57958" lon="39.35637">
        <ele>867.941503</ele>
        <time>2022-02-24T17:10:00.665Z</time>
      </trkpt>
      <trkpt lat="38.57974" lon="39.35592">
        <ele>868.33861</ele>
        <time>2022-02-24T17:10:13.228Z</time>
      </trkpt>
      <trkpt lat="38.57972" lon="39.35557">
        <ele>868.614314</ele>
        <time>2022-02-24T17:10:21.855Z</time>
      </trkpt>
      <trkpt lat="38.5797" lon="39.35549">
        <ele>868.685537</ele>
        <time>2022-02-24T17:10:24.030Z</time>
      </trkpt>
      <trkpt lat="38.57955" lon="39.35493">
        <ele>869.155353</ele>
        <time>2022-02-24T17:10:38.477Z</time>
      </trkpt>
      <trkpt lat="38.57943" lon="39.35446">
        <ele>869.426428</ele>
        <time>2022-02-24T17:10:50.183Z</time>
      </trkpt>
      <trkpt lat="38.57929" lon="39.3543">
        <ele>869.4903</ele>
        <time>2022-02-24T17:10:56.303Z</time>
      </trkpt>
      <trkpt lat="38.57926" lon="39.35427">
        <ele>869.499213</ele>
        <time>2022-02-24T17:10:57.087Z</time>
      </trkpt>
      <trkpt lat="38.57938" lon="39.35305">
        <ele>869.81019</ele>
        <time>2022-02-24T17:11:24.484Z</time>
      </trkpt>
      <trkpt lat="38.57944" lon="39.35231">
        <ele>869.879817</ele>
        <time>2022-02-24T17:11:39.670Z</time>
      </trkpt>
      <trkpt lat="38.57944" lon="39.35224">
        <ele>869.849345</ele>
        <time>2022-02-24T17:11:41.155Z</time>
      </trkpt>
      <trkpt lat="38.57948" lon="39.35193">
        <ele>869.722758</ele>
        <time>2022-02-24T17:11:47.271Z</time>
      </trkpt>
      <trkpt lat="38.5798" lon="39.34903">
        <ele>868.182364</ele>
        <time>2022-02-24T17:12:42.397Z</time>
      </trkpt>
      <trkpt lat="38.58062" lon="39.34512">
        <ele>864.941727</ele>
        <time>2022-02-24T17:13:54.663Z</time>
      </trkpt>
      <trkpt lat="38.58106" lon="39.34238">
        <ele>863.347568</ele>
        <time>2022-02-24T17:14:46.460Z</time>
      </trkpt>
      <trkpt lat="38.58123" lon="39.34136">
        <ele>862.940265</ele>
        <time>2022-02-24T17:15:07.173Z</time>
      </trkpt>
      <trkpt lat="38.58131" lon="39.34111">
        <ele>862.903619</ele>
        <time>2022-02-24T17:15:12.558Z</time>
      </trkpt>
      <trkpt lat="38.58203" lon="39.33975">
        <ele>863.029472</ele>
        <time>2022-02-24T17:15:47.806Z</time>
      </trkpt>
      <trkpt lat="38.5825" lon="39.33915">
        <ele>863.04896</ele>
        <time>2022-02-24T17:16:06.401Z</time>
      </trkpt>
      <trkpt lat="38.58227" lon="39.33807">
        <ele>862.984022</ele>
        <time>2022-02-24T17:16:30.340Z</time>
      </trkpt>
      <trkpt lat="38.58224" lon="39.33796">
        <ele>862.977409</ele>
        <time>2022-02-24T17:16:32.497Z</time>
      </trkpt>
      <trkpt lat="38.58222" lon="39.3376">
        <ele>862.956158</ele>
        <time>2022-02-24T17:16:40.299Z</time>
      </trkpt>
      <trkpt lat="38.58222" lon="39.33757">
        <ele>862.954879</ele>
        <time>2022-02-24T17:16:40.646Z</time>
      </trkpt>
      <trkpt lat="38.58228" lon="39.33338">
        <ele>860.889402</ele>
        <time>2022-02-24T17:17:59.029Z</time>
      </trkpt>
      <trkpt lat="38.58233" lon="39.33316">
        <ele>860.772081</ele>
        <time>2022-02-24T17:18:03.335Z</time>
      </trkpt>
      <trkpt lat="38.58236" lon="39.33308">
        <ele>860.723398</ele>
        <time>2022-02-24T17:18:05.032Z</time>
      </trkpt>
      <trkpt lat="38.58245" lon="39.33281">
        <ele>860.571836</ele>
        <time>2022-02-24T17:18:10.606Z</time>
      </trkpt>
      <trkpt lat="38.58395" lon="39.32964">
        <ele>859.678244</ele>
        <time>2022-02-24T17:19:23.321Z</time>
      </trkpt>
      <trkpt lat="38.58404" lon="39.32951">
        <ele>859.664726</ele>
        <time>2022-02-24T17:19:26.965Z</time>
      </trkpt>
      <trkpt lat="38.58416" lon="39.32927">
        <ele>859.643157</ele>
        <time>2022-02-24T17:19:32.809Z</time>
      </trkpt>
      <trkpt lat="38.58432" lon="39.329">
        <ele>859.616377</ele>
        <time>2022-02-24T17:19:40.198Z</time>
      </trkpt>
      <trkpt lat="38.5849" lon="39.3286">
        <ele>859.960983</ele>
        <time>2022-02-24T17:19:58.744Z</time>
      </trkpt>
      <trkpt lat="38.58576" lon="39.32768">
        <ele>860.826588</ele>
        <time>2022-02-24T17:20:33.437Z</time>
      </trkpt>
      <trkpt lat="38.586" lon="39.32751">
        <ele>861.043516</ele>
        <time>2022-02-24T17:20:42.582Z</time>
      </trkpt>
      <trkpt lat="38.58621" lon="39.32742">
        <ele>861.229959</ele>
        <time>2022-02-24T17:20:49.717Z</time>
      </trkpt>
      <trkpt lat="38.58638" lon="39.32737">
        <ele>861.385504</ele>
        <time>2022-02-24T17:20:55.494Z</time>
      </trkpt>
      <trkpt lat="38.58659" lon="39.32732">
        <ele>861.570846</ele>
        <time>2022-02-24T17:21:02.382Z</time>
      </trkpt>
      <trkpt lat="38.58673" lon="39.32724">
        <ele>861.698804</ele>
        <time>2022-02-24T17:21:07.021Z</time>
      </trkpt>
      <trkpt lat="38.58688" lon="39.32704">
        <ele>861.886996</ele>
        <time>2022-02-24T17:21:13.839Z</time>
      </trkpt>
      <trkpt lat="38.58695" lon="39.32677">
        <ele>862.078014</ele>
        <time>2022-02-24T17:21:20.699Z</time>
      </trkpt>
      <trkpt lat="38.58708" lon="39.32628">
        <ele>862.424915</ele>
        <time>2022-02-24T17:21:32.859Z</time>
      </trkpt>
      <trkpt lat="38.58725" lon="39.3261">
        <ele>862.550428</ele>
        <time>2022-02-24T17:21:39.276Z</time>
      </trkpt>
      <trkpt lat="38.58848" lon="39.32523">
        <ele>862.794081</ele>
        <time>2022-02-24T17:22:17.506Z</time>
      </trkpt>
      <trkpt lat="38.58875" lon="39.32492">
        <ele>862.868808</ele>
        <time>2022-02-24T17:22:27.173Z</time>
      </trkpt>
      <trkpt lat="38.58899" lon="39.32451">
        <ele>863.00842</ele>
        <time>2022-02-24T17:22:38.105Z</time>
      </trkpt>
      <trkpt lat="38.5893" lon="39.32382">
        <ele>863.225182</ele>
        <time>2022-02-24T17:22:55.380Z</time>
      </trkpt>
      <trkpt lat="38.58938" lon="39.32364">
        <ele>863.282521</ele>
        <time>2022-02-24T17:23:00.204Z</time>
      </trkpt>
      <trkpt lat="38.58968" lon="39.32267">
        <ele>863.683739</ele>
        <time>2022-02-24T17:23:24.117Z</time>
      </trkpt>
      <trkpt lat="38.59014" lon="39.32085">
        <ele>864.848177</ele>
        <time>2022-02-24T17:24:09.806Z</time>
      </trkpt>
      <trkpt lat="38.59031" lon="39.31868">
        <ele>866.508092</ele>
        <time>2022-02-24T17:25:03.550Z</time>
      </trkpt>
      <trkpt lat="38.59041" lon="39.31831">
        <ele>866.782998</ele>
        <time>2022-02-24T17:25:13.233Z</time>
      </trkpt>
      <trkpt lat="38.59052" lon="39.31803">
        <ele>866.988326</ele>
        <time>2022-02-24T17:25:20.943Z</time>
      </trkpt>
      <trkpt lat="38.59067" lon="39.31782">
        <ele>867.173071</ele>
        <time>2022-02-24T17:25:27.848Z</time>
      </trkpt>
      <trkpt lat="38.59159" lon="39.31709">
        <ele>868.067717</ele>
        <time>2022-02-24T17:26:00.743Z</time>
      </trkpt>
      <trkpt lat="38.59278" lon="39.31616">
        <ele>868.903646</ele>
        <time>2022-02-24T17:26:42.023Z</time>
      </trkpt>
      <trkpt lat="38.59569" lon="39.31388">
        <ele>870.426946</ele>
        <time>2022-02-24T17:28:20.130Z</time>
      </trkpt>
      <trkpt lat="38.59584" lon="39.31377">
        <ele>870.501466</ele>
        <time>2022-02-24T17:28:24.928Z</time>
      </trkpt>
      <trkpt lat="38.59814" lon="39.31197">
        <ele>871.789381</ele>
        <time>2022-02-24T17:29:42.842Z</time>
      </trkpt>
      <trkpt lat="38.59886" lon="39.31137">
        <ele>872.31435</ele>
        <time>2022-02-24T17:30:08.563Z</time>
      </trkpt>
      <trkpt lat="38.60079" lon="39.30976">
        <ele>873.779196</ele>
        <time>2022-02-24T17:31:17.384Z</time>
      </trkpt>
      <trkpt lat="38.60096" lon="39.30961">
        <ele>873.905517</ele>
        <time>2022-02-24T17:31:23.338Z</time>
      </trkpt>
      <trkpt lat="38.60259" lon="39.30817">
        <ele>875.173669</ele>
        <time>2022-02-24T17:32:21.821Z</time>
      </trkpt>
      <trkpt lat="38.60301" lon="39.30777">
        <ele>875.586285</ele>
        <time>2022-02-24T17:32:38.067Z</time>
      </trkpt>
      <trkpt lat="38.60348" lon="39.30731">
        <ele>876.046977</ele>
        <time>2022-02-24T17:32:56.351Z</time>
      </trkpt>
      <trkpt lat="38.60553" lon="39.30535">
        <ele>877.84945</ele>
        <time>2022-02-24T17:34:13.612Z</time>
      </trkpt>
      <trkpt lat="38.60714" lon="39.30364">
        <ele>879.086558</ele>
        <time>2022-02-24T17:35:15.014Z</time>
      </trkpt>
      <trkpt lat="38.60726" lon="39.30349">
        <ele>879.179563</ele>
        <time>2022-02-24T17:35:19.733Z</time>
      </trkpt>
      <trkpt lat="38.60737" lon="39.30341">
        <ele>879.252056</ele>
        <time>2022-02-24T17:35:23.387Z</time>
      </trkpt>
      <trkpt lat="38.60746" lon="39.30335">
        <ele>879.305687</ele>
        <time>2022-02-24T17:35:26.211Z</time>
      </trkpt>
      <trkpt lat="38.60766" lon="39.30324">
        <ele>879.428953</ele>
        <time>2022-02-24T17:35:32.638Z</time>
      </trkpt>
      <trkpt lat="38.60785" lon="39.30316">
        <ele>879.542912</ele>
        <time>2022-02-24T17:35:38.802Z</time>
      </trkpt>
      <trkpt lat="38.60838" lon="39.30294">
        <ele>879.847229</ele>
        <time>2022-02-24T17:35:55.573Z</time>
      </trkpt>
      <trkpt lat="38.60848" lon="39.30291">
        <ele>879.901092</ele>
        <time>2022-02-24T17:35:58.618Z</time>
      </trkpt>
      <trkpt lat="38.60858" lon="39.30274">
        <ele>879.988339</ele>
        <time>2022-02-24T17:36:03.414Z</time>
      </trkpt>
      <trkpt lat="38.60866" lon="39.30265">
        <ele>880.048179</ele>
        <time>2022-02-24T17:36:06.703Z</time>
      </trkpt>
      <trkpt lat="38.6092" lon="39.30208">
        <ele>880.425685</ele>
        <time>2022-02-24T17:36:26.813Z</time>
      </trkpt>
      <trkpt lat="38.60941" lon="39.30182">
        <ele>880.58301</ele>
        <time>2022-02-24T17:36:35.115Z</time>
      </trkpt>
      <trkpt lat="38.60946" lon="39.30176">
        <ele>880.617718</ele>
        <time>2022-02-24T17:36:37.012Z</time>
      </trkpt>
      <trkpt lat="38.60953" lon="39.30166">
        <ele>880.672218</ele>
        <time>2022-02-24T17:36:40.146Z</time>
      </trkpt>
      <trkpt lat="38.6096" lon="39.30157">
        <ele>880.717</ele>
        <time>2022-02-24T17:36:43.055Z</time>
      </trkpt>
      <trkpt lat="38.61007" lon="39.30096">
        <ele>881.021455</ele>
        <time>2022-02-24T17:37:03.014Z</time>
      </trkpt>
      <trkpt lat="38.6103" lon="39.30065">
        <ele>881.172698</ele>
        <time>2022-02-24T17:37:12.641Z</time>
      </trkpt>
      <trkpt lat="38.61037" lon="39.30056">
        <ele>881.216654</ele>
        <time>2022-02-24T17:37:15.354Z</time>
      </trkpt>
      <trkpt lat="38.6105" lon="39.3004">
        <ele>881.297586</ele>
        <time>2022-02-24T17:37:20.344Z</time>
      </trkpt>
      <trkpt lat="38.61119" lon="39.29952">
        <ele>881.795962</ele>
        <time>2022-02-24T17:37:47.846Z</time>
      </trkpt>
      <trkpt lat="38.61206" lon="39.29841">
        <ele>882.481058</ele>
        <time>2022-02-24T17:38:24.287Z</time>
      </trkpt>
      <trkpt lat="38.61214" lon="39.29831">
        <ele>882.608914</ele>
        <time>2022-02-24T17:38:27.509Z</time>
      </trkpt>
      <trkpt lat="38.61286" lon="39.29734">
        <ele>883.849685</ele>
        <time>2022-02-24T17:39:00.569Z</time>
      </trkpt>
      <trkpt lat="38.6136" lon="39.29602">
        <ele>885.735034</ele>
        <time>2022-02-24T17:39:44.787Z</time>
      </trkpt>
      <trkpt lat="38.6149" lon="39.29325">
        <ele>889.955785</ele>
        <time>2022-02-24T17:41:13.953Z</time>
      </trkpt>
      <trkpt lat="38.61494" lon="39.29289">
        <ele>890.411463</ele>
        <time>2022-02-24T17:41:23.370Z</time>
      </trkpt>
      <trkpt lat="38.61504" lon="39.29228">
        <ele>891.003777</ele>
        <time>2022-02-24T17:41:39.711Z</time>
      </trkpt>
      <trkpt lat="38.6152" lon="39.29164">
        <ele>891.56501</ele>
        <time>2022-02-24T17:41:56.744Z</time>
      </trkpt>
      <trkpt lat="38.6153" lon="39.29137">
        <ele>891.818012</ele>
        <time>2022-02-24T17:42:04.373Z</time>
      </trkpt>
      <trkpt lat="38.6153" lon="39.29102">
        <ele>892.112094</ele>
        <time>2022-02-24T17:42:13.031Z</time>
      </trkpt>
      <trkpt lat="38.61539" lon="39.29039">
        <ele>892.652719</ele>
        <time>2022-02-24T17:42:29.403Z</time>
      </trkpt>
      <trkpt lat="38.61555" lon="39.28955">
        <ele>893.395898</ele>
        <time>2022-02-24T17:42:51.998Z</time>
      </trkpt>
      <trkpt lat="38.61562" lon="39.28883">
        <ele>894.018294</ele>
        <time>2022-02-24T17:43:10.962Z</time>
      </trkpt>
      <trkpt lat="38.61574" lon="39.28838">
        <ele>894.423653</ele>
        <time>2022-02-24T17:43:23.113Z</time>
      </trkpt>
      <trkpt lat="38.61578" lon="39.28747">
        <ele>895.071045</ele>
        <time>2022-02-24T17:43:46.175Z</time>
      </trkpt>
      <trkpt lat="38.61588" lon="39.28718">
        <ele>895.283379</ele>
        <time>2022-02-24T17:43:53.924Z</time>
      </trkpt>
      <trkpt lat="38.61585" lon="39.28642">
        <ele>895.810049</ele>
        <time>2022-02-24T17:44:13.011Z</time>
      </trkpt>
      <trkpt lat="38.61594" lon="39.28618">
        <ele>895.988503</ele>
        <time>2022-02-24T17:44:19.435Z</time>
      </trkpt>
      <trkpt lat="38.61603" lon="39.28423">
        <ele>897.310724</ele>
        <time>2022-02-24T17:45:08.221Z</time>
      </trkpt>
      <trkpt lat="38.61598" lon="39.2841">
        <ele>897.411379</ele>
        <time>2022-02-24T17:45:11.973Z</time>
      </trkpt>
      <trkpt lat="38.61598" lon="39.2834">
        <ele>897.88959</ele>
        <time>2022-02-24T17:45:29.415Z</time>
      </trkpt>
      <trkpt lat="38.61612" lon="39.28232">
        <ele>898.65375</ele>
        <time>2022-02-24T17:45:56.744Z</time>
      </trkpt>
      <trkpt lat="38.61619" lon="39.28214">
        <ele>898.798808</ele>
        <time>2022-02-24T17:46:01.913Z</time>
      </trkpt>
      <trkpt lat="38.61624" lon="39.28002">
        <ele>900.437375</ele>
        <time>2022-02-24T17:46:55.183Z</time>
      </trkpt>
      <trkpt lat="38.61633" lon="39.27909">
        <ele>901.207236</ele>
        <time>2022-02-24T17:47:19.717Z</time>
      </trkpt>
      <trkpt lat="38.61668" lon="39.27742">
        <ele>902.790783</ele>
        <time>2022-02-24T17:48:05.628Z</time>
      </trkpt>
      <trkpt lat="38.61674" lon="39.27682">
        <ele>903.302645</ele>
        <time>2022-02-24T17:48:20.991Z</time>
      </trkpt>
      <trkpt lat="38.61678" lon="39.27635">
        <ele>903.585916</ele>
        <time>2022-02-24T17:48:32.870Z</time>
      </trkpt>
      <trkpt lat="38.6168" lon="39.27577">
        <ele>903.927768</ele>
        <time>2022-02-24T17:48:47.024Z</time>
      </trkpt>
      <trkpt lat="38.61673" lon="39.27521">
        <ele>904.267225</ele>
        <time>2022-02-24T17:49:00.878Z</time>
      </trkpt>
      <trkpt lat="38.61659" lon="39.27456">
        <ele>904.687529</ele>
        <time>2022-02-24T17:49:16.623Z</time>
      </trkpt>
      <trkpt lat="38.61658" lon="39.27308">
        <ele>905.882603</ele>
        <time>2022-02-24T17:49:53.521Z</time>
      </trkpt>
      <trkpt lat="38.61669" lon="39.27146">
        <ele>907.975388</ele>
        <time>2022-02-24T17:50:38.063Z</time>
      </trkpt>
      <trkpt lat="38.61678" lon="39.27115">
        <ele>908.538565</ele>
        <time>2022-02-24T17:50:47.921Z</time>
      </trkpt>
      <trkpt lat="38.61679" lon="39.2711">
        <ele>908.625531</ele>
        <time>2022-02-24T17:50:49.536Z</time>
      </trkpt>
      <trkpt lat="38.61681" lon="39.271">
        <ele>908.79043</ele>
        <time>2022-02-24T17:50:52.564Z</time>
      </trkpt>
      <trkpt lat="38.61683" lon="39.27085">
        <ele>909.038262</ele>
        <time>2022-02-24T17:50:56.951Z</time>
      </trkpt>
      <trkpt lat="38.61681" lon="39.27065">
        <ele>909.377424</ele>
        <time>2022-02-24T17:51:03.341Z</time>
      </trkpt>
      <trkpt lat="38.617" lon="39.27052">
        <ele>909.830748</ele>
        <time>2022-02-24T17:51:11.727Z</time>
      </trkpt>
      <trkpt lat="38.61708" lon="39.27012">
        <ele>910.642306</ele>
        <time>2022-02-24T17:51:25.657Z</time>
      </trkpt>
      <trkpt lat="38.61716" lon="39.27009">
        <ele>910.916924</ele>
        <time>2022-02-24T17:51:29.513Z</time>
      </trkpt>
      <trkpt lat="38.61748" lon="39.27005">
        <ele>911.937255</ele>
        <time>2022-02-24T17:51:43.544Z</time>
      </trkpt>
      <trkpt lat="38.61759" lon="39.26947">
        <ele>913.423231</ele>
        <time>2022-02-24T17:52:03.034Z</time>
      </trkpt>
      <trkpt lat="38.61772" lon="39.26922">
        <ele>914.166517</ele>
        <time>2022-02-24T17:52:14.020Z</time>
      </trkpt>
      <trkpt lat="38.61784" lon="39.26906">
        <ele>914.746135</ele>
        <time>2022-02-24T17:52:22.229Z</time>
      </trkpt>
      <trkpt lat="38.61791" lon="39.26906">
        <ele>914.977991</ele>
        <time>2022-02-24T17:52:24.930Z</time>
      </trkpt>
      <trkpt lat="38.61805" lon="39.26906">
        <ele>915.403101</ele>
        <time>2022-02-24T17:52:31.007Z</time>
      </trkpt>
      <trkpt lat="38.6185" lon="39.26886">
        <ele>916.643533</ele>
        <time>2022-02-24T17:52:50.380Z</time>
      </trkpt>
      <trkpt lat="38.61887" lon="39.26882">
        <ele>917.445009</ele>
        <time>2022-02-24T17:53:05.452Z</time>
      </trkpt>
      <trkpt lat="38.61889" lon="39.26881">
        <ele>917.494685</ele>
        <time>2022-02-24T17:53:07.275Z</time>
      </trkpt>
      <trkpt lat="38.61899" lon="39.26875">
        <ele>917.718371</ele>
        <time>2022-02-24T17:53:10.941Z</time>
      </trkpt>
      <trkpt lat="38.61929" lon="39.26839">
        <ele>918.60529</ele>
        <time>2022-02-24T17:53:26.696Z</time>
      </trkpt>
      <trkpt lat="38.61972" lon="39.2674">
        <ele>920.117818</ele>
        <time>2022-02-24T17:53:56.652Z</time>
      </trkpt>
      <trkpt lat="38.61991" lon="39.26714">
        <ele>920.329648</ele>
        <time>2022-02-24T17:54:05.992Z</time>
      </trkpt>
      <trkpt lat="38.62018" lon="39.26692">
        <ele>920.579014</ele>
        <time>2022-02-24T17:54:15.882Z</time>
      </trkpt>
      <trkpt lat="38.62045" lon="39.26676">
        <ele>920.809424</ele>
        <time>2022-02-24T17:54:25.029Z</time>
      </trkpt>
      <trkpt lat="38.62052" lon="39.26682">
        <ele>920.870702</ele>
        <time>2022-02-24T17:54:27.286Z</time>
      </trkpt>
      <trkpt lat="38.62073" lon="39.26667">
        <ele>921.059243</ele>
        <time>2022-02-24T17:54:34.758Z</time>
      </trkpt>
      <trkpt lat="38.62096" lon="39.26654">
        <ele>921.251929</ele>
        <time>2022-02-24T17:54:42.162Z</time>
      </trkpt>
      <trkpt lat="38.6211" lon="39.26631">
        <ele>921.333454</ele>
        <time>2022-02-24T17:54:49.277Z</time>
      </trkpt>
      <trkpt lat="38.62143" lon="39.26589">
        <ele>921.429723</ele>
        <time>2022-02-24T17:55:03.189Z</time>
      </trkpt>
      <trkpt lat="38.62238" lon="39.26433">
        <ele>921.703722</ele>
        <time>2022-02-24T17:55:46.290Z</time>
      </trkpt>
      <trkpt lat="38.62263" lon="39.26388">
        <ele>921.74152</ele>
        <time>2022-02-24T17:55:58.257Z</time>
      </trkpt>
      <trkpt lat="38.6229" lon="39.26315">
        <ele>921.796269</ele>
        <time>2022-02-24T17:56:15.833Z</time>
      </trkpt>
      <trkpt lat="38.62311" lon="39.26258">
        <ele>921.907757</ele>
        <time>2022-02-24T17:56:30.202Z</time>
      </trkpt>
      <trkpt lat="38.62326" lon="39.26224">
        <ele>922.083428</ele>
        <time>2022-02-24T17:56:39.097Z</time>
      </trkpt>
      <trkpt lat="38.62339" lon="39.2621">
        <ele>922.184403</ele>
        <time>2022-02-24T17:56:44.133Z</time>
      </trkpt>
      <trkpt lat="38.62475" lon="39.26061">
        <ele>923.549184</ele>
        <time>2022-02-24T17:57:40.177Z</time>
      </trkpt>
      <trkpt lat="38.6252" lon="39.2603">
        <ele>924.12793</ele>
        <time>2022-02-24T17:57:57.396Z</time>
      </trkpt>
      <trkpt lat="38.62566" lon="39.26037">
        <ele>924.655065</ele>
        <time>2022-02-24T17:58:13.496Z</time>
      </trkpt>
      <trkpt lat="38.62641" lon="39.26013">
        <ele>925.652397</ele>
        <time>2022-02-24T17:58:40.174Z</time>
      </trkpt>
      <trkpt lat="38.62665" lon="39.26004">
        <ele>925.984519</ele>
        <time>2022-02-24T17:58:48.702Z</time>
      </trkpt>
      <trkpt lat="38.62704" lon="39.25967">
        <ele>926.649825</ele>
        <time>2022-02-24T17:59:05.469Z</time>
      </trkpt>
      <trkpt lat="38.62807" lon="39.25859">
        <ele>928.277787</ele>
        <time>2022-02-24T17:59:50.835Z</time>
      </trkpt>
      <trkpt lat="38.6283" lon="39.25849">
        <ele>928.548203</ele>
        <time>2022-02-24T17:59:58.627Z</time>
      </trkpt>
      <trkpt lat="38.62897" lon="39.25859">
        <ele>929.314772</ele>
        <time>2022-02-24T18:00:20.598Z</time>
      </trkpt>
      <trkpt lat="38.62935" lon="39.2585">
        <ele>929.723546</ele>
        <time>2022-02-24T18:00:33.258Z</time>
      </trkpt>
      <trkpt lat="38.62976" lon="39.25812">
        <ele>930.249881</ele>
        <time>2022-02-24T18:00:49.812Z</time>
      </trkpt>
      <trkpt lat="38.63036" lon="39.25708">
        <ele>931.314981</ele>
        <time>2022-02-24T18:01:22.965Z</time>
      </trkpt>
      <trkpt lat="38.63056" lon="39.25691">
        <ele>931.662596</ele>
        <time>2022-02-24T18:01:30.997Z</time>
      </trkpt>
      <trkpt lat="38.63086" lon="39.25676">
        <ele>932.132571</ele>
        <time>2022-02-24T18:01:41.754Z</time>
      </trkpt>
      <trkpt lat="38.63133" lon="39.25676">
        <ele>932.808129</ele>
        <time>2022-02-24T18:01:57.079Z</time>
      </trkpt>
      <trkpt lat="38.63162" lon="39.25653">
        <ele>933.291008</ele>
        <time>2022-02-24T18:02:08.568Z</time>
      </trkpt>
      <trkpt lat="38.63187" lon="39.25655">
        <ele>933.650292</ele>
        <time>2022-02-24T18:02:17.388Z</time>
      </trkpt>
      <trkpt lat="38.63282" lon="39.2566">
        <ele>936.550307</ele>
        <time>2022-02-24T18:02:55.428Z</time>
      </trkpt>
      <trkpt lat="38.63325" lon="39.25663">
        <ele>937.95367</ele>
        <time>2022-02-24T18:03:13.422Z</time>
      </trkpt>
      <trkpt lat="38.63375" lon="39.25675">
        <ele>939.636895</ele>
        <time>2022-02-24T18:03:37.124Z</time>
      </trkpt>
      <trkpt lat="38.63487" lon="39.25682">
        <ele>944.810878</ele>
        <time>2022-02-24T18:04:32.984Z</time>
      </trkpt>
      <trkpt lat="38.63491" lon="39.25682">
        <ele>945.002872</ele>
        <time>2022-02-24T18:04:36.100Z</time>
      </trkpt>
      <trkpt lat="38.6366" lon="39.25695">
        <ele>951.523054</ele>
        <time>2022-02-24T18:05:57.559Z</time>
      </trkpt>
      <trkpt lat="38.63685" lon="39.25696">
        <ele>952.354609</ele>
        <time>2022-02-24T18:06:07.237Z</time>
      </trkpt>
      <trkpt lat="38.63696" lon="39.25698">
        <ele>952.717044</ele>
        <time>2022-02-24T18:06:11.865Z</time>
      </trkpt>
      <trkpt lat="38.6371" lon="39.25701">
        <ele>953.16575</ele>
        <time>2022-02-24T18:06:16.792Z</time>
      </trkpt>
      <trkpt lat="38.6372" lon="39.25701">
        <ele>953.492422</ele>
        <time>2022-02-24T18:06:19.995Z</time>
      </trkpt>
      <trkpt lat="38.63734" lon="39.25691">
        <ele>954.038765</ele>
        <time>2022-02-24T18:06:26.055Z</time>
      </trkpt>
      <trkpt lat="38.63739" lon="39.25698">
        <ele>954.080731</ele>
        <time>2022-02-24T18:06:28.482Z</time>
      </trkpt>
      <trkpt lat="38.6375" lon="39.25705">
        <ele>954.028826</ele>
        <time>2022-02-24T18:06:31.945Z</time>
      </trkpt>
      <trkpt lat="38.63758" lon="39.25703">
        <ele>953.993662</ele>
        <time>2022-02-24T18:06:35.075Z</time>
      </trkpt>
      <trkpt lat="38.63765" lon="39.25699">
        <ele>953.964548</ele>
        <time>2022-02-24T18:06:36.916Z</time>
      </trkpt>
      <trkpt lat="38.63775" lon="39.25677">
        <ele>953.881121</ele>
        <time>2022-02-24T18:06:42.360Z</time>
      </trkpt>
      <trkpt lat="38.6377" lon="39.25659">
        <ele>953.81948</ele>
        <time>2022-02-24T18:06:46.741Z</time>
      </trkpt>
      <trkpt lat="38.63764" lon="39.25652">
        <ele>953.788447</ele>
        <time>2022-02-24T18:06:48.713Z</time>
      </trkpt>
      <trkpt lat="38.63771" lon="39.25612">
        <ele>953.656136</ele>
        <time>2022-02-24T18:06:56.513Z</time>
      </trkpt>
      <trkpt lat="38.63771" lon="39.25561">
        <ele>953.490966</ele>
        <time>2022-02-24T18:07:05.377Z</time>
      </trkpt>
      <trkpt lat="38.63768" lon="39.2553">
        <ele>953.387786</ele>
        <time>2022-02-24T18:07:10.628Z</time>
      </trkpt>
      <trkpt lat="38.6369" lon="39.25153">
        <ele>948.051231</ele>
        <time>2022-02-24T18:08:14.235Z</time>
      </trkpt>
      <trkpt lat="38.63669" lon="39.25027">
        <ele>947.650266</ele>
        <time>2022-02-24T18:08:41.040Z</time>
      </trkpt>
      <trkpt lat="38.63667" lon="39.24983">
        <ele>948.050821</ele>
        <time>2022-02-24T18:08:51.655Z</time>
      </trkpt>
      <trkpt lat="38.63662" lon="39.24871">
        <ele>949.073069</ele>
        <time>2022-02-24T18:09:21.545Z</time>
      </trkpt>
      <trkpt lat="38.63672" lon="39.24734">
        <ele>951.686652</ele>
        <time>2022-02-24T18:10:01.586Z</time>
      </trkpt>
      <trkpt lat="38.63723" lon="39.2448">
        <ele>958.377367</ele>
        <time>2022-02-24T18:11:29.431Z</time>
      </trkpt>
      <trkpt lat="38.6374" lon="39.24417">
        <ele>960.300766</ele>
        <time>2022-02-24T18:11:53.706Z</time>
      </trkpt>
      <trkpt lat="38.6375" lon="39.24385">
        <ele>961.324465</ele>
        <time>2022-02-24T18:12:06.638Z</time>
      </trkpt>
      <trkpt lat="38.63794" lon="39.24274">
        <ele>965.133301</ele>
        <time>2022-02-24T18:12:52.032Z</time>
      </trkpt>
      <trkpt lat="38.63799" lon="39.24261">
        <ele>965.556002</ele>
        <time>2022-02-24T18:12:57.611Z</time>
      </trkpt>
      <trkpt lat="38.63946" lon="39.23963">
        <ele>974.860692</ele>
        <time>2022-02-24T18:14:53.908Z</time>
      </trkpt>
      <trkpt lat="38.63996" lon="39.23836">
        <ele>978.37702</ele>
        <time>2022-02-24T18:15:39.995Z</time>
      </trkpt>
      <trkpt lat="38.64049" lon="39.23684">
        <ele>982.945317</ele>
        <time>2022-02-24T18:16:35.239Z</time>
      </trkpt>
      <trkpt lat="38.64122" lon="39.23411">
        <ele>992.413589</ele>
        <time>2022-02-24T18:18:19.506Z</time>
      </trkpt>
      <trkpt lat="38.64161" lon="39.23141">
        <ele>1004.712837</ele>
        <time>2022-02-24T18:20:16.598Z</time>
      </trkpt>
      <trkpt lat="38.64185" lon="39.2294">
        <ele>1017.320658</ele>
        <time>2022-02-24T18:21:59.361Z</time>
      </trkpt>
      <trkpt lat="38.64201" lon="39.2281">
        <ele>1026.549877</ele>
        <time>2022-02-24T18:23:13.319Z</time>
      </trkpt>
      <trkpt lat="38.6421" lon="39.22738">
        <ele>1031.797344</ele>
        <time>2022-02-24T18:23:55.027Z</time>
      </trkpt>
      <trkpt lat="38.64303" lon="39.21964">
        <ele>1083.02945</ele>
        <time>2022-02-24T18:31:00.084Z</time>
      </trkpt>
      <trkpt lat="38.6433" lon="39.21764">
        <ele>1083.672717</ele>
        <time>2022-02-24T18:31:36.332Z</time>
      </trkpt>
      <trkpt lat="38.64352" lon="39.21587">
        <ele>1078.417847</ele>
        <time>2022-02-24T18:32:01.601Z</time>
      </trkpt>
      <trkpt lat="38.6448" lon="39.20558">
        <ele>1068.36187</ele>
        <time>2022-02-24T18:35:07.465Z</time>
      </trkpt>
      <trkpt lat="38.64543" lon="39.20083">
        <ele>1069.522733</ele>
        <time>2022-02-24T18:36:51.867Z</time>
      </trkpt>
      <trkpt lat="38.64545" lon="39.2008">
        <ele>1069.568266</ele>
        <time>2022-02-24T18:36:52.778Z</time>
      </trkpt>
      <trkpt lat="38.64547" lon="39.20076">
        <ele>1069.61465</ele>
        <time>2022-02-24T18:36:53.812Z</time>
      </trkpt>
      <trkpt lat="38.64548" lon="39.20071">
        <ele>1069.667845</ele>
        <time>2022-02-24T18:36:55.105Z</time>
      </trkpt>
      <trkpt lat="38.64547" lon="39.20066">
        <ele>1069.720303</ele>
        <time>2022-02-24T18:36:56.301Z</time>
      </trkpt>
      <trkpt lat="38.64546" lon="39.20062">
        <ele>1069.773595</ele>
        <time>2022-02-24T18:36:57.559Z</time>
      </trkpt>
      <trkpt lat="38.64543" lon="39.20057">
        <ele>1069.837996</ele>
        <time>2022-02-24T18:36:59.294Z</time>
      </trkpt>
      <trkpt lat="38.64535" lon="39.20052">
        <ele>1069.964147</ele>
        <time>2022-02-24T18:37:02.299Z</time>
      </trkpt>
      <trkpt lat="38.64526" lon="39.20055">
        <ele>1070.089821</ele>
        <time>2022-02-24T18:37:05.097Z</time>
      </trkpt>
      <trkpt lat="38.64523" lon="39.20059">
        <ele>1070.153959</ele>
        <time>2022-02-24T18:37:06.866Z</time>
      </trkpt>
      <trkpt lat="38.64521" lon="39.20065">
        <ele>1070.216767</ele>
        <time>2022-02-24T18:37:08.463Z</time>
      </trkpt>
      <trkpt lat="38.64508" lon="39.20048">
        <ele>1070.470562</ele>
        <time>2022-02-24T18:37:15.461Z</time>
      </trkpt>
      <trkpt lat="38.64495" lon="39.19991">
        <ele>1071.465312</ele>
        <time>2022-02-24T18:37:34.023Z</time>
      </trkpt>
      <trkpt lat="38.64484" lon="39.19983">
        <ele>1072.012549</ele>
        <time>2022-02-24T18:37:39.669Z</time>
      </trkpt>
      <trkpt lat="38.64463" lon="39.19979">
        <ele>1072.93987</ele>
        <time>2022-02-24T18:37:48.987Z</time>
      </trkpt>
      <trkpt lat="38.64427" lon="39.19982">
        <ele>1074.491481</ele>
        <time>2022-02-24T18:38:05.634Z</time>
      </trkpt>
      <trkpt lat="38.64359" lon="39.19933">
        <ele>1077.802458</ele>
        <time>2022-02-24T18:38:45.695Z</time>
      </trkpt>
      <trkpt lat="38.64325" lon="39.19906">
        <ele>1079.655303</ele>
        <time>2022-02-24T18:39:07.189Z</time>
      </trkpt>
      <trkpt lat="38.64298" lon="39.19867">
        <ele>1081.618873</ele>
        <time>2022-02-24T18:39:28.577Z</time>
      </trkpt>
      <trkpt lat="38.64274" lon="39.19827">
        <ele>1083.549199</ele>
        <time>2022-02-24T18:39:49.389Z</time>
      </trkpt>
      <trkpt lat="38.64262" lon="39.19806">
        <ele>1084.542798</ele>
        <time>2022-02-24T18:39:59.690Z</time>
      </trkpt>
      <trkpt lat="38.64207" lon="39.19728">
        <ele>1088.313116</ele>
        <time>2022-02-24T18:40:39.877Z</time>
      </trkpt>
      <trkpt lat="38.64189" lon="39.19703">
        <ele>1089.366397</ele>
        <time>2022-02-24T18:40:52.751Z</time>
      </trkpt>
      <trkpt lat="38.64184" lon="39.19697">
        <ele>1089.653004</ele>
        <time>2022-02-24T18:40:56.320Z</time>
      </trkpt>
      <trkpt lat="38.64133" lon="39.19644">
        <ele>1092.261631</ele>
        <time>2022-02-24T18:41:25.869Z</time>
      </trkpt>
      <trkpt lat="38.64094" lon="39.19609">
        <ele>1094.161474</ele>
        <time>2022-02-24T18:41:47.904Z</time>
      </trkpt>
      <trkpt lat="38.6398" lon="39.19478">
        <ele>1100.264967</ele>
        <time>2022-02-24T18:43:00.190Z</time>
      </trkpt>
      <trkpt lat="38.63932" lon="39.19433">
        <ele>1102.66387</ele>
        <time>2022-02-24T18:43:27.725Z</time>
      </trkpt>
      <trkpt lat="38.63886" lon="39.19392">
        <ele>1104.976804</ele>
        <time>2022-02-24T18:43:54.272Z</time>
      </trkpt>
      <trkpt lat="38.63811" lon="39.19346">
        <ele>1108.366734</ele>
        <time>2022-02-24T18:44:32.422Z</time>
      </trkpt>
      <trkpt lat="38.6379" lon="39.19341">
        <ele>1109.338671</ele>
        <time>2022-02-24T18:44:43.285Z</time>
      </trkpt>
      <trkpt lat="38.63725" lon="39.19325">
        <ele>1113.593105</ele>
        <time>2022-02-24T18:45:18.073Z</time>
      </trkpt>
      <trkpt lat="38.63668" lon="39.19321">
        <ele>1117.231084</ele>
        <time>2022-02-24T18:45:51.333Z</time>
      </trkpt>
      <trkpt lat="38.63658" lon="39.1931">
        <ele>1118.111299</ele>
        <time>2022-02-24T18:46:01.223Z</time>
      </trkpt>
      <trkpt lat="38.63654" lon="39.193">
        <ele>1118.644267</ele>
        <time>2022-02-24T18:46:07.207Z</time>
      </trkpt>
      <trkpt lat="38.63631" lon="39.19239">
        <ele>1122.566289</ele>
        <time>2022-02-24T18:46:41.452Z</time>
      </trkpt>
      <trkpt lat="38.63622" lon="39.19232">
        <ele>1123.440223</ele>
        <time>2022-02-24T18:46:49.184Z</time>
      </trkpt>
      <trkpt lat="38.63594" lon="39.19227">
        <ele>1125.955477</ele>
        <time>2022-02-24T18:47:08.185Z</time>
      </trkpt>
      <trkpt lat="38.63578" lon="39.19231">
        <ele>1127.336381</ele>
        <time>2022-02-24T18:47:20.596Z</time>
      </trkpt>
      <trkpt lat="38.6355" lon="39.19243">
        <ele>1129.934901</ele>
        <time>2022-02-24T18:47:42.252Z</time>
      </trkpt>
      <trkpt lat="38.63474" lon="39.19248">
        <ele>1136.528168</ele>
        <time>2022-02-24T18:48:37.652Z</time>
      </trkpt>
      <trkpt lat="38.63391" lon="39.19246">
        <ele>1141.610438</ele>
        <time>2022-02-24T18:49:29.431Z</time>
      </trkpt>
      <trkpt lat="38.63363" lon="39.19223">
        <ele>1143.688689</ele>
        <time>2022-02-24T18:49:47.228Z</time>
      </trkpt>
      <trkpt lat="38.63278" lon="39.19083">
        <ele>1150.325813</ele>
        <time>2022-02-24T18:50:52.057Z</time>
      </trkpt>
      <trkpt lat="38.63233" lon="39.19031">
        <ele>1152.620052</ele>
        <time>2022-02-24T18:51:17.892Z</time>
      </trkpt>
      <trkpt lat="38.63206" lon="39.18984">
        <ele>1154.331501</ele>
        <time>2022-02-24T18:51:37.589Z</time>
      </trkpt>
      <trkpt lat="38.63176" lon="39.18963">
        <ele>1155.590089</ele>
        <time>2022-02-24T18:51:52.359Z</time>
      </trkpt>
      <trkpt lat="38.63169" lon="39.1896">
        <ele>1155.848327</ele>
        <time>2022-02-24T18:51:55.972Z</time>
      </trkpt>
      <trkpt lat="38.63102" lon="39.18924">
        <ele>1158.512689</ele>
        <time>2022-02-24T18:52:28.347Z</time>
      </trkpt>
      <trkpt lat="38.6308" lon="39.18904">
        <ele>1159.513118</ele>
        <time>2022-02-24T18:52:40.172Z</time>
      </trkpt>
      <trkpt lat="38.63029" lon="39.18835">
        <ele>1162.309377</ele>
        <time>2022-02-24T18:53:14.071Z</time>
      </trkpt>
      <trkpt lat="38.63019" lon="39.18811">
        <ele>1163.09661</ele>
        <time>2022-02-24T18:53:22.787Z</time>
      </trkpt>
      <trkpt lat="38.63021" lon="39.18799">
        <ele>1163.454839</ele>
        <time>2022-02-24T18:53:27.387Z</time>
      </trkpt>
      <trkpt lat="38.63023" lon="39.18783">
        <ele>1163.94002</ele>
        <time>2022-02-24T18:53:32.856Z</time>
      </trkpt>
      <trkpt lat="38.63038" lon="39.18736">
        <ele>1165.468101</ele>
        <time>2022-02-24T18:53:50.183Z</time>
      </trkpt>
      <trkpt lat="38.63038" lon="39.18715">
        <ele>1166.098971</ele>
        <time>2022-02-24T18:53:57.586Z</time>
      </trkpt>
      <trkpt lat="38.63031" lon="39.18696">
        <ele>1166.740906</ele>
        <time>2022-02-24T18:54:05.078Z</time>
      </trkpt>
      <trkpt lat="38.63012" lon="39.18677">
        <ele>1167.689156</ele>
        <time>2022-02-24T18:54:16.512Z</time>
      </trkpt>
      <trkpt lat="38.62897" lon="39.18564">
        <ele>1174.022539</ele>
        <time>2022-02-24T18:55:25.467Z</time>
      </trkpt>
      <trkpt lat="38.62885" lon="39.18553">
        <ele>1174.637183</ele>
        <time>2022-02-24T18:55:32.223Z</time>
      </trkpt>
      <trkpt lat="38.62861" lon="39.18526">
        <ele>1176.115935</ele>
        <time>2022-02-24T18:55:48.245Z</time>
      </trkpt>
      <trkpt lat="38.6284" lon="39.18503">
        <ele>1177.443239</ele>
        <time>2022-02-24T18:56:01.875Z</time>
      </trkpt>
      <trkpt lat="38.62748" lon="39.18365">
        <ele>1184.400342</ele>
        <time>2022-02-24T18:57:13.812Z</time>
      </trkpt>
      <trkpt lat="38.62696" lon="39.18276">
        <ele>1188.940305</ele>
        <time>2022-02-24T18:57:57.554Z</time>
      </trkpt>
      <trkpt lat="38.62687" lon="39.18261">
        <ele>1189.737831</ele>
        <time>2022-02-24T18:58:06.037Z</time>
      </trkpt>
      <trkpt lat="38.62626" lon="39.18151">
        <ele>1195.316482</ele>
        <time>2022-02-24T18:59:00.880Z</time>
      </trkpt>
      <trkpt lat="38.62622" lon="39.18144">
        <ele>1195.679552</ele>
        <time>2022-02-24T18:59:04.985Z</time>
      </trkpt>
      <trkpt lat="38.62584" lon="39.18064">
        <ele>1199.618232</ele>
        <time>2022-02-24T18:59:43.729Z</time>
      </trkpt>
      <trkpt lat="38.62571" lon="39.18035">
        <ele>1201.063933</ele>
        <time>2022-02-24T18:59:57.341Z</time>
      </trkpt>
      <trkpt lat="38.62562" lon="39.18017">
        <ele>1201.976378</ele>
        <time>2022-02-24T19:00:06.245Z</time>
      </trkpt>
      <trkpt lat="38.6255" lon="39.17992">
        <ele>1203.186943</ele>
        <time>2022-02-24T19:00:18.102Z</time>
      </trkpt>
      <trkpt lat="38.62512" lon="39.17905">
        <ele>1207.494377</ele>
        <time>2022-02-24T19:00:58.315Z</time>
      </trkpt>
      <trkpt lat="38.62488" lon="39.17831">
        <ele>1210.986388</ele>
        <time>2022-02-24T19:01:34.383Z</time>
      </trkpt>
      <trkpt lat="38.62479" lon="39.17789">
        <ele>1212.867565</ele>
        <time>2022-02-24T19:01:52.373Z</time>
      </trkpt>
      <trkpt lat="38.62474" lon="39.17717">
        <ele>1215.257756</ele>
        <time>2022-02-24T19:02:19.901Z</time>
      </trkpt>
      <trkpt lat="38.62473" lon="39.17703">
        <ele>1215.691929</ele>
        <time>2022-02-24T19:02:26.587Z</time>
      </trkpt>
      <trkpt lat="38.62466" lon="39.17639">
        <ele>1217.683576</ele>
        <time>2022-02-24T19:02:49.795Z</time>
      </trkpt>
      <trkpt lat="38.62456" lon="39.1761">
        <ele>1218.633878</ele>
        <time>2022-02-24T19:03:01.125Z</time>
      </trkpt>
      <trkpt lat="38.6244" lon="39.17583">
        <ele>1219.704188</ele>
        <time>2022-02-24T19:03:12.248Z</time>
      </trkpt>
      <trkpt lat="38.62411" lon="39.17547">
        <ele>1220.683714</ele>
        <time>2022-02-24T19:03:28.999Z</time>
      </trkpt>
      <trkpt lat="38.62046" lon="39.17231">
        <ele>1221.780425</ele>
        <time>2022-02-24T19:05:32.626Z</time>
      </trkpt>
      <trkpt lat="38.62004" lon="39.17202">
        <ele>1221.381321</ele>
        <time>2022-02-24T19:05:42.710Z</time>
      </trkpt>
      <trkpt lat="38.61958" lon="39.17158">
        <ele>1220.522492</ele>
        <time>2022-02-24T19:05:54.623Z</time>
      </trkpt>
      <trkpt lat="38.61798" lon="39.16982">
        <ele>1215.768811</ele>
        <time>2022-02-24T19:06:37.733Z</time>
      </trkpt>
      <trkpt lat="38.61682" lon="39.16843">
        <ele>1213.043816</ele>
        <time>2022-02-24T19:07:12.271Z</time>
      </trkpt>
      <trkpt lat="38.61594" lon="39.16755">
        <ele>1211.661126</ele>
        <time>2022-02-24T19:07:37.706Z</time>
      </trkpt>
      <trkpt lat="38.61572" lon="39.16738">
        <ele>1211.339463</ele>
        <time>2022-02-24T19:07:43.696Z</time>
      </trkpt>
      <trkpt lat="38.61487" lon="39.16713">
        <ele>1210.71525</ele>
        <time>2022-02-24T19:08:03.991Z</time>
      </trkpt>
      <trkpt lat="38.61453" lon="39.16696">
        <ele>1210.464859</ele>
        <time>2022-02-24T19:08:12.978Z</time>
      </trkpt>
      <trkpt lat="38.61413" lon="39.16659">
        <ele>1210.140305</ele>
        <time>2022-02-24T19:08:24.757Z</time>
      </trkpt>
      <trkpt lat="38.61209" lon="39.16439">
        <ele>1209.395866</ele>
        <time>2022-02-24T19:09:33.817Z</time>
      </trkpt>
      <trkpt lat="38.61162" lon="39.16397">
        <ele>1209.206262</ele>
        <time>2022-02-24T19:09:48.650Z</time>
      </trkpt>
      <trkpt lat="38.61114" lon="39.16347">
        <ele>1208.935138</ele>
        <time>2022-02-24T19:10:04.041Z</time>
      </trkpt>
      <trkpt lat="38.6098" lon="39.16164">
        <ele>1207.053833</ele>
        <time>2022-02-24T19:10:49.198Z</time>
      </trkpt>
      <trkpt lat="38.60838" lon="39.15972">
        <ele>1205.584282</ele>
        <time>2022-02-24T19:11:37.489Z</time>
      </trkpt>
      <trkpt lat="38.608" lon="39.15901">
        <ele>1205.522321</ele>
        <time>2022-02-24T19:11:55.744Z</time>
      </trkpt>
      <trkpt lat="38.60655" lon="39.15719">
        <ele>1205.523191</ele>
        <time>2022-02-24T19:12:54.350Z</time>
      </trkpt>
      <trkpt lat="38.60623" lon="39.15682">
        <ele>1205.367408</ele>
        <time>2022-02-24T19:13:04.695Z</time>
      </trkpt>
      <trkpt lat="38.60571" lon="39.1563">
        <ele>1203.885817</ele>
        <time>2022-02-24T19:13:18.852Z</time>
      </trkpt>
      <trkpt lat="38.60432" lon="39.15456">
        <ele>1199.443238</ele>
        <time>2022-02-24T19:13:57.474Z</time>
      </trkpt>
      <trkpt lat="38.60402" lon="39.15382">
        <ele>1197.943015</ele>
        <time>2022-02-24T19:14:11.033Z</time>
      </trkpt>
      <trkpt lat="38.60346" lon="39.15279">
        <ele>1197.04632</ele>
        <time>2022-02-24T19:14:33.246Z</time>
      </trkpt>
      <trkpt lat="38.60259" lon="39.15134">
        <ele>1196.709019</ele>
        <time>2022-02-24T19:15:12.825Z</time>
      </trkpt>
      <trkpt lat="38.60219" lon="39.15085">
        <ele>1196.85629</ele>
        <time>2022-02-24T19:15:29.838Z</time>
      </trkpt>
      <trkpt lat="38.60204" lon="39.15056">
        <ele>1196.926744</ele>
        <time>2022-02-24T19:15:36.612Z</time>
      </trkpt>
      <trkpt lat="38.60192" lon="39.15047">
        <ele>1196.966573</ele>
        <time>2022-02-24T19:15:40.833Z</time>
      </trkpt>
      <trkpt lat="38.60141" lon="39.15032">
        <ele>1197.116775</ele>
        <time>2022-02-24T19:15:54.526Z</time>
      </trkpt>
      <trkpt lat="38.60127" lon="39.15026">
        <ele>1197.196586</ele>
        <time>2022-02-24T19:15:59.333Z</time>
      </trkpt>
      <trkpt lat="38.60119" lon="39.15016">
        <ele>1197.259856</ele>
        <time>2022-02-24T19:16:01.779Z</time>
      </trkpt>
      <trkpt lat="38.60101" lon="39.14986">
        <ele>1197.422702</ele>
        <time>2022-02-24T19:16:10.405Z</time>
      </trkpt>
      <trkpt lat="38.6006" lon="39.14934">
        <ele>1197.742182</ele>
        <time>2022-02-24T19:16:26.585Z</time>
      </trkpt>
      <trkpt lat="38.60016" lon="39.14903">
        <ele>1198.019908</ele>
        <time>2022-02-24T19:16:41.794Z</time>
      </trkpt>
      <trkpt lat="38.60008" lon="39.14886">
        <ele>1198.175127</ele>
        <time>2022-02-24T19:16:46.333Z</time>
      </trkpt>
      <trkpt lat="38.60003" lon="39.14821">
        <ele>1199.668519</ele>
        <time>2022-02-24T19:17:04.595Z</time>
      </trkpt>
      <trkpt lat="38.59984" lon="39.14739">
        <ele>1201.63862</ele>
        <time>2022-02-24T19:17:32.639Z</time>
      </trkpt>
      <trkpt lat="38.59967" lon="39.14707">
        <ele>1202.52909</ele>
        <time>2022-02-24T19:17:46.390Z</time>
      </trkpt>
      <trkpt lat="38.59948" lon="39.14696">
        <ele>1203.134021</ele>
        <time>2022-02-24T19:17:55.981Z</time>
      </trkpt>
      <trkpt lat="38.59864" lon="39.14692">
        <ele>1206.585936</ele>
        <time>2022-02-24T19:18:35.840Z</time>
      </trkpt>
      <trkpt lat="38.59845" lon="39.14681">
        <ele>1207.459708</ele>
        <time>2022-02-24T19:18:45.703Z</time>
      </trkpt>
      <trkpt lat="38.59816" lon="39.14634">
        <ele>1209.470665</ele>
        <time>2022-02-24T19:19:08.515Z</time>
      </trkpt>
      <trkpt lat="38.59771" lon="39.14546">
        <ele>1212.322624</ele>
        <time>2022-02-24T19:19:46.400Z</time>
      </trkpt>
      <trkpt lat="38.5976" lon="39.14511">
        <ele>1213.17804</ele>
        <time>2022-02-24T19:19:59.291Z</time>
      </trkpt>
      <trkpt lat="38.59757" lon="39.14456">
        <ele>1214.428151</ele>
        <time>2022-02-24T19:20:17.219Z</time>
      </trkpt>
      <trkpt lat="38.59749" lon="39.14429">
        <ele>1215.058971</ele>
        <time>2022-02-24T19:20:25.751Z</time>
      </trkpt>
      <trkpt lat="38.59695" lon="39.14314">
        <ele>1215.911615</ele>
        <time>2022-02-24T19:21:00.244Z</time>
      </trkpt>
      <trkpt lat="38.59687" lon="39.14198">
        <ele>1215.507267</ele>
        <time>2022-02-24T19:21:21.034Z</time>
      </trkpt>
      <trkpt lat="38.59666" lon="39.14152">
        <ele>1214.993132</ele>
        <time>2022-02-24T19:21:29.524Z</time>
      </trkpt>
      <trkpt lat="38.59652" lon="39.14102">
        <ele>1214.058802</ele>
        <time>2022-02-24T19:21:37.715Z</time>
      </trkpt>
      <trkpt lat="38.5964" lon="39.14082">
        <ele>1213.61113</ele>
        <time>2022-02-24T19:21:41.657Z</time>
      </trkpt>
      <trkpt lat="38.59611" lon="39.14058">
        <ele>1212.831778</ele>
        <time>2022-02-24T19:21:48.710Z</time>
      </trkpt>
      <trkpt lat="38.59596" lon="39.14028">
        <ele>1212.204379</ele>
        <time>2022-02-24T19:21:54.457Z</time>
      </trkpt>
      <trkpt lat="38.59572" lon="39.13982">
        <ele>1211.260305</ele>
        <time>2022-02-24T19:22:03.650Z</time>
      </trkpt>
      <trkpt lat="38.59529" lon="39.13905">
        <ele>1210.238738</ele>
        <time>2022-02-24T19:22:19.933Z</time>
      </trkpt>
      <trkpt lat="38.59458" lon="39.1378">
        <ele>1208.508314</ele>
        <time>2022-02-24T19:22:47.687Z</time>
      </trkpt>
      <trkpt lat="38.59437" lon="39.13728">
        <ele>1207.75528</ele>
        <time>2022-02-24T19:22:57.639Z</time>
      </trkpt>
      <trkpt lat="38.59419" lon="39.13702">
        <ele>1207.299561</ele>
        <time>2022-02-24T19:23:03.489Z</time>
      </trkpt>
      <trkpt lat="38.59301" lon="39.13611">
        <ele>1205.341027</ele>
        <time>2022-02-24T19:23:32.959Z</time>
      </trkpt>
      <trkpt lat="38.59288" lon="39.13576">
        <ele>1205.035725</ele>
        <time>2022-02-24T19:23:39.742Z</time>
      </trkpt>
      <trkpt lat="38.59277" lon="39.13561">
        <ele>1204.869504</ele>
        <time>2022-02-24T19:23:43.686Z</time>
      </trkpt>
      <trkpt lat="38.59249" lon="39.13534">
        <ele>1204.514047</ele>
        <time>2022-02-24T19:23:52.013Z</time>
      </trkpt>
      <trkpt lat="38.59229" lon="39.13499">
        <ele>1204.166126</ele>
        <time>2022-02-24T19:24:00.368Z</time>
      </trkpt>
      <trkpt lat="38.59211" lon="39.13482">
        <ele>1203.972354</ele>
        <time>2022-02-24T19:24:05.809Z</time>
      </trkpt>
      <trkpt lat="38.5915" lon="39.13447">
        <ele>1203.555054</ele>
        <time>2022-02-24T19:24:23.076Z</time>
      </trkpt>
      <trkpt lat="38.59095" lon="39.13389">
        <ele>1203.108432</ele>
        <time>2022-02-24T19:24:40.815Z</time>
      </trkpt>
      <trkpt lat="38.59036" lon="39.13286">
        <ele>1201.769513</ele>
        <time>2022-02-24T19:25:02.948Z</time>
      </trkpt>
      <trkpt lat="38.59009" lon="39.13228">
        <ele>1200.874319</ele>
        <time>2022-02-24T19:25:14.279Z</time>
      </trkpt>
      <trkpt lat="38.58994" lon="39.13203">
        <ele>1200.45039</ele>
        <time>2022-02-24T19:25:19.572Z</time>
      </trkpt>
      <trkpt lat="38.58978" lon="39.13177">
        <ele>1200.017041</ele>
        <time>2022-02-24T19:25:24.962Z</time>
      </trkpt>
      <trkpt lat="38.58939" lon="39.13103">
        <ele>1198.60169</ele>
        <time>2022-02-24T19:25:39.561Z</time>
      </trkpt>
      <trkpt lat="38.58902" lon="39.13046">
        <ele>1197.411242</ele>
        <time>2022-02-24T19:25:51.465Z</time>
      </trkpt>
      <trkpt lat="38.58879" lon="39.13002">
        <ele>1196.543624</ele>
        <time>2022-02-24T19:26:00.402Z</time>
      </trkpt>
      <trkpt lat="38.58867" lon="39.12984">
        <ele>1196.163066</ele>
        <time>2022-02-24T19:26:04.234Z</time>
      </trkpt>
      <trkpt lat="38.58856" lon="39.12974">
        <ele>1195.903342</ele>
        <time>2022-02-24T19:26:07.171Z</time>
      </trkpt>
      <trkpt lat="38.58809" lon="39.12956">
        <ele>1194.955967</ele>
        <time>2022-02-24T19:26:17.588Z</time>
      </trkpt>
      <trkpt lat="38.58745" lon="39.12895">
        <ele>1193.418027</ele>
        <time>2022-02-24T19:26:34.283Z</time>
      </trkpt>
      <trkpt lat="38.58539" lon="39.12726">
        <ele>1189.493754</ele>
        <time>2022-02-24T19:27:27.174Z</time>
      </trkpt>
      <trkpt lat="38.58463" lon="39.1267">
        <ele>1189.004627</ele>
        <time>2022-02-24T19:27:47.854Z</time>
      </trkpt>
      <trkpt lat="38.58438" lon="39.12654">
        <ele>1188.846758</ele>
        <time>2022-02-24T19:27:55.736Z</time>
      </trkpt>
      <trkpt lat="38.58402" lon="39.12648">
        <ele>1188.643913</ele>
        <time>2022-02-24T19:28:05.896Z</time>
      </trkpt>
      <trkpt lat="38.58355" lon="39.12608">
        <ele>1188.492255</ele>
        <time>2022-02-24T19:28:22.065Z</time>
      </trkpt>
      <trkpt lat="38.58296" lon="39.12557">
        <ele>1188.316601</ele>
        <time>2022-02-24T19:28:41.126Z</time>
      </trkpt>
      <trkpt lat="38.58284" lon="39.12546">
        <ele>1188.27965</ele>
        <time>2022-02-24T19:28:44.605Z</time>
      </trkpt>
      <trkpt lat="38.58204" lon="39.12498">
        <ele>1187.084727</ele>
        <time>2022-02-24T19:29:05.004Z</time>
      </trkpt>
      <trkpt lat="38.58174" lon="39.12472">
        <ele>1186.234039</ele>
        <time>2022-02-24T19:29:12.614Z</time>
      </trkpt>
      <trkpt lat="38.58141" lon="39.12431">
        <ele>1185.18092</ele>
        <time>2022-02-24T19:29:21.532Z</time>
      </trkpt>
      <trkpt lat="38.58069" lon="39.12381">
        <ele>1183.050401</ele>
        <time>2022-02-24T19:29:37.645Z</time>
      </trkpt>
      <trkpt lat="38.57655" lon="39.12269">
        <ele>1170.364759</ele>
        <time>2022-02-24T19:31:01.268Z</time>
      </trkpt>
      <trkpt lat="38.57519" lon="39.122">
        <ele>1166.975985</ele>
        <time>2022-02-24T19:31:30.665Z</time>
      </trkpt>
      <trkpt lat="38.57487" lon="39.12198">
        <ele>1166.459912</ele>
        <time>2022-02-24T19:31:37.478Z</time>
      </trkpt>
      <trkpt lat="38.57461" lon="39.12189">
        <ele>1166.0425</ele>
        <time>2022-02-24T19:31:43.168Z</time>
      </trkpt>
      <trkpt lat="38.57433" lon="39.12166">
        <ele>1165.50686</ele>
        <time>2022-02-24T19:31:50.887Z</time>
      </trkpt>
      <trkpt lat="38.57369" lon="39.12128">
        <ele>1166.006647</ele>
        <time>2022-02-24T19:32:10.173Z</time>
      </trkpt>
      <trkpt lat="38.57276" lon="39.12121">
        <ele>1167.878425</ele>
        <time>2022-02-24T19:32:44.754Z</time>
      </trkpt>
      <trkpt lat="38.57232" lon="39.12101">
        <ele>1168.929746</ele>
        <time>2022-02-24T19:33:06.013Z</time>
      </trkpt>
      <trkpt lat="38.57118" lon="39.12109">
        <ele>1173.617526</ele>
        <time>2022-02-24T19:34:00.471Z</time>
      </trkpt>
      <trkpt lat="38.57096" lon="39.12099">
        <ele>1174.570441</ele>
        <time>2022-02-24T19:34:11.086Z</time>
      </trkpt>
      <trkpt lat="38.5706" lon="39.12065">
        <ele>1176.409628</ele>
        <time>2022-02-24T19:34:31.431Z</time>
      </trkpt>
      <trkpt lat="38.56971" lon="39.1202">
        <ele>1180.162617</ele>
        <time>2022-02-24T19:35:15.392Z</time>
      </trkpt>
      <trkpt lat="38.5694" lon="39.12011">
        <ele>1181.428417</ele>
        <time>2022-02-24T19:35:29.999Z</time>
      </trkpt>
      <trkpt lat="38.56891" lon="39.11964">
        <ele>1183.6919</ele>
        <time>2022-02-24T19:36:08.483Z</time>
      </trkpt>
      <trkpt lat="38.56869" lon="39.11924">
        <ele>1184.86844</ele>
        <time>2022-02-24T19:36:32.384Z</time>
      </trkpt>
      <trkpt lat="38.56835" lon="39.11877">
        <ele>1186.406876</ele>
        <time>2022-02-24T19:37:03.245Z</time>
      </trkpt>
      <trkpt lat="38.5679" lon="39.11795">
        <ele>1188.765494</ele>
        <time>2022-02-24T19:37:49.046Z</time>
      </trkpt>
      <trkpt lat="38.5669" lon="39.11668">
        <ele>1188.966883</ele>
        <time>2022-02-24T19:38:54.036Z</time>
      </trkpt>
      <trkpt lat="38.56636" lon="39.11611">
        <ele>1188.357061</ele>
        <time>2022-02-24T19:39:20.843Z</time>
      </trkpt>
      <trkpt lat="38.56597" lon="39.1155">
        <ele>1187.132017</ele>
        <time>2022-02-24T19:39:43.843Z</time>
      </trkpt>
      <trkpt lat="38.56585" lon="39.11519">
        <ele>1186.598631</ele>
        <time>2022-02-24T19:39:53.681Z</time>
      </trkpt>
      <trkpt lat="38.56561" lon="39.11499">
        <ele>1186.022528</ele>
        <time>2022-02-24T19:40:04.106Z</time>
      </trkpt>
      <trkpt lat="38.56551" lon="39.11473">
        <ele>1185.572487</ele>
        <time>2022-02-24T19:40:12.797Z</time>
      </trkpt>
      <trkpt lat="38.56531" lon="39.11461">
        <ele>1185.500263</ele>
        <time>2022-02-24T19:40:21.105Z</time>
      </trkpt>
      <trkpt lat="38.56506" lon="39.11432">
        <ele>1185.599973</ele>
        <time>2022-02-24T19:40:34.586Z</time>
      </trkpt>
      <trkpt lat="38.5648" lon="39.11368">
        <ele>1185.765401</ele>
        <time>2022-02-24T19:40:59.472Z</time>
      </trkpt>
      <trkpt lat="38.56474" lon="39.11358">
        <ele>1185.793949</ele>
        <time>2022-02-24T19:41:03.624Z</time>
      </trkpt>
      <trkpt lat="38.56447" lon="39.11306">
        <ele>1185.938086</ele>
        <time>2022-02-24T19:41:29.096Z</time>
      </trkpt>
      <trkpt lat="38.56424" lon="39.11275">
        <ele>1186.74811</ele>
        <time>2022-02-24T19:41:48.010Z</time>
      </trkpt>
      <trkpt lat="38.56387" lon="39.1124">
        <ele>1188.702123</ele>
        <time>2022-02-24T19:42:16.277Z</time>
      </trkpt>
      <trkpt lat="38.56192" lon="39.11116">
        <ele>1198.398457</ele>
        <time>2022-02-24T19:44:47.332Z</time>
      </trkpt>
      <trkpt lat="38.55981" lon="39.11014">
        <ele>1206.402546</ele>
        <time>2022-02-24T19:47:10.941Z</time>
      </trkpt>
      <trkpt lat="38.55865" lon="39.10965">
        <ele>1205.627771</ele>
        <time>2022-02-24T19:48:02.916Z</time>
      </trkpt>
      <trkpt lat="38.55738" lon="39.10923">
        <ele>1202.314655</ele>
        <time>2022-02-24T19:48:48.073Z</time>
      </trkpt>
      <trkpt lat="38.55612" lon="39.10857">
        <ele>1197.145386</ele>
        <time>2022-02-24T19:49:34.266Z</time>
      </trkpt>
      <trkpt lat="38.5553" lon="39.10823">
        <ele>1195.926091</ele>
        <time>2022-02-24T19:50:06.293Z</time>
      </trkpt>
      <trkpt lat="38.5548" lon="39.10806">
        <ele>1195.221089</ele>
        <time>2022-02-24T19:50:27.694Z</time>
      </trkpt>
      <trkpt lat="38.55473" lon="39.1072">
        <ele>1194.850964</ele>
        <time>2022-02-24T19:50:58.355Z</time>
      </trkpt>
      <trkpt lat="38.55433" lon="39.10349">
        <ele>1197.699222</ele>
        <time>2022-02-24T19:53:25.881Z</time>
      </trkpt>
      <trkpt lat="38.55415" lon="39.10275">
        <ele>1198.00472</ele>
        <time>2022-02-24T19:53:54.012Z</time>
      </trkpt>
      <trkpt lat="38.55391" lon="39.10212">
        <ele>1197.657819</ele>
        <time>2022-02-24T19:54:17.871Z</time>
      </trkpt>
      <trkpt lat="38.55367" lon="39.10158">
        <ele>1197.352926</ele>
        <time>2022-02-24T19:54:37.993Z</time>
      </trkpt>
      <trkpt lat="38.55283" lon="39.10003">
        <ele>1196.024051</ele>
        <time>2022-02-24T19:55:36.065Z</time>
      </trkpt>
      <trkpt lat="38.55251" lon="39.09957">
        <ele>1195.50224</ele>
        <time>2022-02-24T19:55:55.393Z</time>
      </trkpt>
      <trkpt lat="38.55208" lon="39.099">
        <ele>1194.952836</ele>
        <time>2022-02-24T19:56:21.009Z</time>
      </trkpt>
      <trkpt lat="38.55155" lon="39.09816">
        <ele>1194.617483</ele>
        <time>2022-02-24T19:56:57.127Z</time>
      </trkpt>
      <trkpt lat="38.55125" lon="39.09781">
        <ele>1194.457038</ele>
        <time>2022-02-24T19:57:15.162Z</time>
      </trkpt>
      <trkpt lat="38.55075" lon="39.09671">
        <ele>1193.827616</ele>
        <time>2022-02-24T19:57:57.698Z</time>
      </trkpt>
      <trkpt lat="38.55035" lon="39.09601">
        <ele>1193.300694</ele>
        <time>2022-02-24T19:58:25.522Z</time>
      </trkpt>
      <trkpt lat="38.55023" lon="39.09569">
        <ele>1193.08347</ele>
        <time>2022-02-24T19:58:36.859Z</time>
      </trkpt>
      <trkpt lat="38.5501" lon="39.09512">
        <ele>1192.622381</ele>
        <time>2022-02-24T19:58:55.087Z</time>
      </trkpt>
      <trkpt lat="38.55011" lon="39.09467">
        <ele>1192.194533</ele>
        <time>2022-02-24T19:59:09.119Z</time>
      </trkpt>
      <trkpt lat="38.54992" lon="39.09353">
        <ele>1191.097018</ele>
        <time>2022-02-24T19:59:44.935Z</time>
      </trkpt>
      <trkpt lat="38.54972" lon="39.09279">
        <ele>1190.68472</ele>
        <time>2022-02-24T20:00:09.999Z</time>
      </trkpt>
      <trkpt lat="38.5495" lon="39.0925">
        <ele>1190.621076</ele>
        <time>2022-02-24T20:00:23.118Z</time>
      </trkpt>
      <trkpt lat="38.54933" lon="39.09182">
        <ele>1190.508747</ele>
        <time>2022-02-24T20:00:46.931Z</time>
      </trkpt>
      <trkpt lat="38.54888" lon="39.09076">
        <ele>1190.697774</ele>
        <time>2022-02-24T20:01:31.545Z</time>
      </trkpt>
      <trkpt lat="38.54862" lon="39.0901">
        <ele>1191.237338</ele>
        <time>2022-02-24T20:02:00.457Z</time>
      </trkpt>
      <trkpt lat="38.54847" lon="39.08963">
        <ele>1191.595635</ele>
        <time>2022-02-24T20:02:13.445Z</time>
      </trkpt>
      <trkpt lat="38.54825" lon="39.08908">
        <ele>1192.04407</ele>
        <time>2022-02-24T20:02:29.867Z</time>
      </trkpt>
      <trkpt lat="38.54744" lon="39.08754">
        <ele>1192.409058</ele>
        <time>2022-02-24T20:03:13.753Z</time>
      </trkpt>
      <trkpt lat="38.54723" lon="39.08703">
        <ele>1192.35605</ele>
        <time>2022-02-24T20:03:25.094Z</time>
      </trkpt>
      <trkpt lat="38.54642" lon="39.08542">
        <ele>1190.200481</ele>
        <time>2022-02-24T20:03:59.526Z</time>
      </trkpt>
      <trkpt lat="38.546" lon="39.08486">
        <ele>1189.337289</ele>
        <time>2022-02-24T20:04:13.177Z</time>
      </trkpt>
      <trkpt lat="38.54582" lon="39.08457">
        <ele>1188.934512</ele>
        <time>2022-02-24T20:04:19.706Z</time>
      </trkpt>
      <trkpt lat="38.54579" lon="39.0844">
        <ele>1188.745567</ele>
        <time>2022-02-24T20:04:22.704Z</time>
      </trkpt>
      <trkpt lat="38.54436" lon="39.08135">
        <ele>1185.548154</ele>
        <time>2022-02-24T20:05:29.640Z</time>
      </trkpt>
      <trkpt lat="38.54337" lon="39.07855">
        <ele>1182.98105</ele>
        <time>2022-02-24T20:06:28.978Z</time>
      </trkpt>
      <trkpt lat="38.54235" lon="39.07581">
        <ele>1179.144186</ele>
        <time>2022-02-24T20:07:21.223Z</time>
      </trkpt>
      <trkpt lat="38.54198" lon="39.07519">
        <ele>1178.17564</ele>
        <time>2022-02-24T20:07:35.822Z</time>
      </trkpt>
      <trkpt lat="38.54152" lon="39.07466">
        <ele>1178.780118</ele>
        <time>2022-02-24T20:07:52.763Z</time>
      </trkpt>
      <trkpt lat="38.54115" lon="39.0741">
        <ele>1179.328603</ele>
        <time>2022-02-24T20:08:10.791Z</time>
      </trkpt>
      <trkpt lat="38.54076" lon="39.07323">
        <ele>1180.533695</ele>
        <time>2022-02-24T20:08:41.123Z</time>
      </trkpt>
      <trkpt lat="38.54035" lon="39.0725">
        <ele>1182.949559</ele>
        <time>2022-02-24T20:09:13.384Z</time>
      </trkpt>
      <trkpt lat="38.54011" lon="39.07222">
        <ele>1184.033241</ele>
        <time>2022-02-24T20:09:28.048Z</time>
      </trkpt>
      <trkpt lat="38.53996" lon="39.07196">
        <ele>1184.90057</ele>
        <time>2022-02-24T20:09:40.194Z</time>
      </trkpt>
      <trkpt lat="38.53985" lon="39.07159">
        <ele>1185.967933</ele>
        <time>2022-02-24T20:09:54.474Z</time>
      </trkpt>
      <trkpt lat="38.53956" lon="39.07022">
        <ele>1188.445965</ele>
        <time>2022-02-24T20:10:42.277Z</time>
      </trkpt>
      <trkpt lat="38.53922" lon="39.06939">
        <ele>1190.007289</ele>
        <time>2022-02-24T20:11:05.875Z</time>
      </trkpt>
      <trkpt lat="38.53879" lon="39.06862">
        <ele>1189.4882</ele>
        <time>2022-02-24T20:11:25.692Z</time>
      </trkpt>
      <trkpt lat="38.53871" lon="39.06846">
        <ele>1189.383168</ele>
        <time>2022-02-24T20:11:29.287Z</time>
      </trkpt>
      <trkpt lat="38.53821" lon="39.06673">
        <ele>1187.792761</ele>
        <time>2022-02-24T20:12:02.973Z</time>
      </trkpt>
      <trkpt lat="38.5381" lon="39.0662">
        <ele>1187.044561</ele>
        <time>2022-02-24T20:12:12.687Z</time>
      </trkpt>
      <trkpt lat="38.53812" lon="39.06597">
        <ele>1186.732807</ele>
        <time>2022-02-24T20:12:16.713Z</time>
      </trkpt>
      <trkpt lat="38.53963" lon="39.06372">
        <ele>1182.45052</ele>
        <time>2022-02-24T20:13:07.460Z</time>
      </trkpt>
      <trkpt lat="38.54043" lon="39.06279">
        <ele>1182.349768</ele>
        <time>2022-02-24T20:13:35.395Z</time>
      </trkpt>
      <trkpt lat="38.5399" lon="39.06239">
        <ele>1182.420885</ele>
        <time>2022-02-24T20:13:54.089Z</time>
      </trkpt>
      <trkpt lat="38.53888" lon="39.06183">
        <ele>1183.529029</ele>
        <time>2022-02-24T20:14:32.898Z</time>
      </trkpt>
      <trkpt lat="38.53824" lon="39.0617">
        <ele>1184.319729</ele>
        <time>2022-02-24T20:14:54.449Z</time>
      </trkpt>
      <trkpt lat="38.53693" lon="39.0613">
        <ele>1184.213737</ele>
        <time>2022-02-24T20:15:30.384Z</time>
      </trkpt>
      <trkpt lat="38.53604" lon="39.06108">
        <ele>1183.775346</ele>
        <time>2022-02-24T20:15:51.080Z</time>
      </trkpt>
      <trkpt lat="38.53568" lon="39.06104">
        <ele>1183.499652</ele>
        <time>2022-02-24T20:15:59.118Z</time>
      </trkpt>
      <trkpt lat="38.53539" lon="39.0611">
        <ele>1183.271037</ele>
        <time>2022-02-24T20:16:05.738Z</time>
      </trkpt>
      <trkpt lat="38.5354" lon="39.06086">
        <ele>1183.124198</ele>
        <time>2022-02-24T20:16:10.281Z</time>
      </trkpt>
      <trkpt lat="38.53535" lon="39.06069">
        <ele>1183.014651</ele>
        <time>2022-02-24T20:16:13.654Z</time>
      </trkpt>
      <trkpt lat="38.53427" lon="39.05876">
        <ele>1183.192605</ele>
        <time>2022-02-24T20:17:05.278Z</time>
      </trkpt>
      <trkpt lat="38.53418" lon="39.0585">
        <ele>1183.310916</ele>
        <time>2022-02-24T20:17:12.867Z</time>
      </trkpt>
      <trkpt lat="38.53427" lon="39.05788">
        <ele>1183.853448</ele>
        <time>2022-02-24T20:17:30.469Z</time>
      </trkpt>
      <trkpt lat="38.53425" lon="39.05702">
        <ele>1185.449856</ele>
        <time>2022-02-24T20:17:55.760Z</time>
      </trkpt>
      <trkpt lat="38.53437" lon="39.05603">
        <ele>1187.319212</ele>
        <time>2022-02-24T20:18:27.738Z</time>
      </trkpt>
      <trkpt lat="38.53413" lon="39.05542">
        <ele>1188.707555</ele>
        <time>2022-02-24T20:18:50.610Z</time>
      </trkpt>
      <trkpt lat="38.53386" lon="39.05472">
        <ele>1190.371258</ele>
        <time>2022-02-24T20:19:16.715Z</time>
      </trkpt>
      <trkpt lat="38.53366" lon="39.05467">
        <ele>1190.935944</ele>
        <time>2022-02-24T20:19:27.326Z</time>
      </trkpt>
      <trkpt lat="38.53334" lon="39.05457">
        <ele>1191.829616</ele>
        <time>2022-02-24T20:19:39.994Z</time>
      </trkpt>
      <trkpt lat="38.53306" lon="39.05423">
        <ele>1192.610422</ele>
        <time>2022-02-24T20:19:54.220Z</time>
      </trkpt>
      <trkpt lat="38.53287" lon="39.05398">
        <ele>1192.344683</ele>
        <time>2022-02-24T20:20:02.136Z</time>
      </trkpt>
      <trkpt lat="38.53278" lon="39.0536">
        <ele>1192.043232</ele>
        <time>2022-02-24T20:20:11.079Z</time>
      </trkpt>
      <trkpt lat="38.53266" lon="39.05344">
        <ele>1191.869812</ele>
        <time>2022-02-24T20:20:17.476Z</time>
      </trkpt>
      <trkpt lat="38.53255" lon="39.05371">
        <ele>1191.638972</ele>
        <time>2022-02-24T20:20:22.629Z</time>
      </trkpt>
      <trkpt lat="38.53222" lon="39.05456">
        <ele>1190.902936</ele>
        <time>2022-02-24T20:20:38.211Z</time>
      </trkpt>
      <trkpt lat="38.53162" lon="39.05505">
        <ele>1189.052028</ele>
        <time>2022-02-24T20:20:52.681Z</time>
      </trkpt>
      <trkpt lat="38.53154" lon="39.05512">
        <ele>1188.797131</ele>
        <time>2022-02-24T20:20:54.445Z</time>
      </trkpt>
      <trkpt lat="38.53128" lon="39.05508">
        <ele>1188.129536</ele>
        <time>2022-02-24T20:21:00.298Z</time>
      </trkpt>
      <trkpt lat="38.53103" lon="39.05486">
        <ele>1187.347475</ele>
        <time>2022-02-24T20:21:06.621Z</time>
      </trkpt>
      <trkpt lat="38.5303" lon="39.05351">
        <ele>1186.416097</ele>
        <time>2022-02-24T20:21:37.826Z</time>
      </trkpt>
      <trkpt lat="38.52985" lon="39.05245">
        <ele>1186.593369</ele>
        <time>2022-02-24T20:22:09.306Z</time>
      </trkpt>
      <trkpt lat="38.52951" lon="39.05089">
        <ele>1189.404349</ele>
        <time>2022-02-24T20:22:56.347Z</time>
      </trkpt>
      <trkpt lat="38.52941" lon="39.05061">
        <ele>1189.938794</ele>
        <time>2022-02-24T20:23:06.176Z</time>
      </trkpt>
      <trkpt lat="38.52932" lon="39.05003">
        <ele>1191.258203</ele>
        <time>2022-02-24T20:23:25.733Z</time>
      </trkpt>
      <trkpt lat="38.52843" lon="39.04767">
        <ele>1199.101696</ele>
        <time>2022-02-24T20:25:02.156Z</time>
      </trkpt>
      <trkpt lat="38.52809" lon="39.04715">
        <ele>1201.205457</ele>
        <time>2022-02-24T20:25:28.051Z</time>
      </trkpt>
      <trkpt lat="38.52764" lon="39.04677">
        <ele>1203.342688</ele>
        <time>2022-02-24T20:25:53.449Z</time>
      </trkpt>
      <trkpt lat="38.52699" lon="39.04602">
        <ele>1205.858578</ele>
        <time>2022-02-24T20:26:32.286Z</time>
      </trkpt>
      <trkpt lat="38.52604" lon="39.04527">
        <ele>1208.490161</ele>
        <time>2022-02-24T20:27:14.302Z</time>
      </trkpt>
      <trkpt lat="38.5256" lon="39.04484">
        <ele>1208.860034</ele>
        <time>2022-02-24T20:27:31.672Z</time>
      </trkpt>
      <trkpt lat="38.52536" lon="39.04462">
        <ele>1208.959474</ele>
        <time>2022-02-24T20:27:40.426Z</time>
      </trkpt>
      <trkpt lat="38.52513" lon="39.04435">
        <ele>1209.065645</ele>
        <time>2022-02-24T20:27:49.496Z</time>
      </trkpt>
      <trkpt lat="38.52463" lon="39.04397">
        <ele>1209.258554</ele>
        <time>2022-02-24T20:28:05.296Z</time>
      </trkpt>
      <trkpt lat="38.52419" lon="39.04377">
        <ele>1209.077712</ele>
        <time>2022-02-24T20:28:17.442Z</time>
      </trkpt>
      <trkpt lat="38.52367" lon="39.04348">
        <ele>1208.650515</ele>
        <time>2022-02-24T20:28:31.889Z</time>
      </trkpt>
      <trkpt lat="38.52353" lon="39.04336">
        <ele>1208.523009</ele>
        <time>2022-02-24T20:28:36.256Z</time>
      </trkpt>
      <trkpt lat="38.52283" lon="39.04302">
        <ele>1207.957693</ele>
        <time>2022-02-24T20:28:54.620Z</time>
      </trkpt>
      <trkpt lat="38.52113" lon="39.04223">
        <ele>1205.058314</ele>
        <time>2022-02-24T20:29:35.952Z</time>
      </trkpt>
      <trkpt lat="38.52007" lon="39.04197">
        <ele>1202.2748</ele>
        <time>2022-02-24T20:29:58.835Z</time>
      </trkpt>
      <trkpt lat="38.52" lon="39.04193">
        <ele>1202.064542</ele>
        <time>2022-02-24T20:30:00.465Z</time>
      </trkpt>
      <trkpt lat="38.51931" lon="39.0416">
        <ele>1200.194233</ele>
        <time>2022-02-24T20:30:15.790Z</time>
      </trkpt>
      <trkpt lat="38.51812" lon="39.04115">
        <ele>1197.214162</ele>
        <time>2022-02-24T20:30:42.132Z</time>
      </trkpt>
      <trkpt lat="38.51771" lon="39.04116">
        <ele>1196.231058</ele>
        <time>2022-02-24T20:30:51.311Z</time>
      </trkpt>
      <trkpt lat="38.51718" lon="39.041">
        <ele>1195.780527</ele>
        <time>2022-02-24T20:31:04.005Z</time>
      </trkpt>
      <trkpt lat="38.51694" lon="39.0408">
        <ele>1195.577986</ele>
        <time>2022-02-24T20:31:10.990Z</time>
      </trkpt>
      <trkpt lat="38.51672" lon="39.04027">
        <ele>1195.251844</ele>
        <time>2022-02-24T20:31:22.842Z</time>
      </trkpt>
      <trkpt lat="38.5165" lon="39.04024">
        <ele>1195.095844</ele>
        <time>2022-02-24T20:31:28.730Z</time>
      </trkpt>
      <trkpt lat="38.51582" lon="39.03993">
        <ele>1195.134964</ele>
        <time>2022-02-24T20:31:49.768Z</time>
      </trkpt>
      <trkpt lat="38.51546" lon="39.03971">
        <ele>1195.397333</ele>
        <time>2022-02-24T20:32:02.042Z</time>
      </trkpt>
      <trkpt lat="38.51507" lon="39.03938">
        <ele>1195.706629</ele>
        <time>2022-02-24T20:32:16.669Z</time>
      </trkpt>
      <trkpt lat="38.51471" lon="39.03891">
        <ele>1196.047653</ele>
        <time>2022-02-24T20:32:33.306Z</time>
      </trkpt>
      <trkpt lat="38.51426" lon="39.03856">
        <ele>1196.844956</ele>
        <time>2022-02-24T20:32:50.484Z</time>
      </trkpt>
      <trkpt lat="38.51379" lon="39.03802">
        <ele>1197.835615</ele>
        <time>2022-02-24T20:33:13.359Z</time>
      </trkpt>
      <trkpt lat="38.51353" lon="39.03771">
        <ele>1198.382919</ele>
        <time>2022-02-24T20:33:26.200Z</time>
      </trkpt>
      <trkpt lat="38.51329" lon="39.03744">
        <ele>1198.895086</ele>
        <time>2022-02-24T20:33:38.035Z</time>
      </trkpt>
      <trkpt lat="38.51308" lon="39.03725">
        <ele>1199.404219</ele>
        <time>2022-02-24T20:33:47.632Z</time>
      </trkpt>
      <trkpt lat="38.51294" lon="39.03707">
        <ele>1199.785436</ele>
        <time>2022-02-24T20:33:55.238Z</time>
      </trkpt>
      <trkpt lat="38.51279" lon="39.03663">
        <ele>1200.531243</ele>
        <time>2022-02-24T20:34:09.932Z</time>
      </trkpt>
      <trkpt lat="38.51247" lon="39.03608">
        <ele>1201.599357</ele>
        <time>2022-02-24T20:34:31.243Z</time>
      </trkpt>
      <trkpt lat="38.51226" lon="39.03602">
        <ele>1202.01636</ele>
        <time>2022-02-24T20:34:40.101Z</time>
      </trkpt>
      <trkpt lat="38.51138" lon="39.03497">
        <ele>1202.171458</ele>
        <time>2022-02-24T20:35:16.599Z</time>
      </trkpt>
      <trkpt lat="38.51121" lon="39.03482">
        <ele>1202.122912</ele>
        <time>2022-02-24T20:35:22.145Z</time>
      </trkpt>
      <trkpt lat="38.51113" lon="39.03485">
        <ele>1202.103179</ele>
        <time>2022-02-24T20:35:24.048Z</time>
      </trkpt>
      <trkpt lat="38.51103" lon="39.0349">
        <ele>1202.078644</ele>
        <time>2022-02-24T20:35:26.297Z</time>
      </trkpt>
      <trkpt lat="38.51087" lon="39.03498">
        <ele>1202.039023</ele>
        <time>2022-02-24T20:35:30.666Z</time>
      </trkpt>
      <trkpt lat="38.51067" lon="39.03502">
        <ele>1201.990227</ele>
        <time>2022-02-24T20:35:35.130Z</time>
      </trkpt>
      <trkpt lat="38.51032" lon="39.03528">
        <ele>1200.877027</ele>
        <time>2022-02-24T20:35:43.904Z</time>
      </trkpt>
      <trkpt lat="38.51002" lon="39.03538">
        <ele>1199.961245</ele>
        <time>2022-02-24T20:35:50.585Z</time>
      </trkpt>
      <trkpt lat="38.50957" lon="39.0358">
        <ele>1198.35959</ele>
        <time>2022-02-24T20:36:02.029Z</time>
      </trkpt>
      <trkpt lat="38.5085" lon="39.03652">
        <ele>1195.743323</ele>
        <time>2022-02-24T20:36:26.238Z</time>
      </trkpt>
      <trkpt lat="38.50823" lon="39.03665">
        <ele>1195.297472</ele>
        <time>2022-02-24T20:36:32.768Z</time>
      </trkpt>
      <trkpt lat="38.50816" lon="39.03674">
        <ele>1195.133924</ele>
        <time>2022-02-24T20:36:34.951Z</time>
      </trkpt>
      <trkpt lat="38.50826" lon="39.03691">
        <ele>1194.876738</ele>
        <time>2022-02-24T20:36:38.885Z</time>
      </trkpt>
      <trkpt lat="38.50842" lon="39.0374">
        <ele>1194.230838</ele>
        <time>2022-02-24T20:36:50.353Z</time>
      </trkpt>
      <trkpt lat="38.50839" lon="39.03789">
        <ele>1195.298031</ele>
        <time>2022-02-24T20:37:03.674Z</time>
      </trkpt>
      <trkpt lat="38.50836" lon="39.03799">
        <ele>1195.785094</ele>
        <time>2022-02-24T20:37:05.874Z</time>
      </trkpt>
      <trkpt lat="38.50808" lon="39.03773">
        <ele>1197.828275</ele>
        <time>2022-02-24T20:37:21.154Z</time>
      </trkpt>
      <trkpt lat="38.50764" lon="39.0374">
        <ele>1200.874686</ele>
        <time>2022-02-24T20:37:49.981Z</time>
      </trkpt>
      <trkpt lat="38.50743" lon="39.03738">
        <ele>1202.114697</ele>
        <time>2022-02-24T20:38:03.335Z</time>
      </trkpt>
      <trkpt lat="38.50719" lon="39.03755">
        <ele>1203.740901</ele>
        <time>2022-02-24T20:38:24.697Z</time>
      </trkpt>
      <trkpt lat="38.50691" lon="39.03745">
        <ele>1206.48213</ele>
        <time>2022-02-24T20:38:47.399Z</time>
      </trkpt>
      <trkpt lat="38.50665" lon="39.03719">
        <ele>1210.953783</ele>
        <time>2022-02-24T20:39:16.747Z</time>
      </trkpt>
      <trkpt lat="38.50629" lon="39.03717">
        <ele>1215.799764</ele>
        <time>2022-02-24T20:39:49.314Z</time>
      </trkpt>
      <trkpt lat="38.50614" lon="39.03707">
        <ele>1218.054618</ele>
        <time>2022-02-24T20:40:04.985Z</time>
      </trkpt>
      <trkpt lat="38.50515" lon="39.0356">
        <ele>1240.03405</ele>
        <time>2022-02-24T20:42:38.305Z</time>
      </trkpt>
      <trkpt lat="38.50495" lon="39.03542">
        <ele>1243.847955</ele>
        <time>2022-02-24T20:43:04.256Z</time>
      </trkpt>
      <trkpt lat="38.50428" lon="39.03505">
        <ele>1255.181727</ele>
        <time>2022-02-24T20:44:20.803Z</time>
      </trkpt>
      <trkpt lat="38.50363" lon="39.0343">
        <ele>1267.436491</ele>
        <time>2022-02-24T20:45:49.935Z</time>
      </trkpt>
      <trkpt lat="38.50327" lon="39.03408">
        <ele>1272.844473</ele>
        <time>2022-02-24T20:46:27.873Z</time>
      </trkpt>
      <trkpt lat="38.50217" lon="39.03316">
        <ele>1288.022789</ele>
        <time>2022-02-24T20:48:15.694Z</time>
      </trkpt>
      <trkpt lat="38.502" lon="39.03292">
        <ele>1290.412941</ele>
        <time>2022-02-24T20:48:33.277Z</time>
      </trkpt>
      <trkpt lat="38.50168" lon="39.03229">
        <ele>1296.18279</ele>
        <time>2022-02-24T20:49:14.337Z</time>
      </trkpt>
      <trkpt lat="38.50122" lon="39.03173">
        <ele>1301.977659</ele>
        <time>2022-02-24T20:49:57.429Z</time>
      </trkpt>
      <trkpt lat="38.50105" lon="39.03163">
        <ele>1303.67185</ele>
        <time>2022-02-24T20:50:10.493Z</time>
      </trkpt>
      <trkpt lat="38.50044" lon="39.03149">
        <ele>1309.133475</ele>
        <time>2022-02-24T20:50:53.441Z</time>
      </trkpt>
      <trkpt lat="38.5002" lon="39.03136">
        <ele>1311.350267</ele>
        <time>2022-02-24T20:51:11.633Z</time>
      </trkpt>
      <trkpt lat="38.49973" lon="39.03089">
        <ele>1316.470777</ele>
        <time>2022-02-24T20:51:55.236Z</time>
      </trkpt>
      <trkpt lat="38.49944" lon="39.03084">
        <ele>1318.862198</ele>
        <time>2022-02-24T20:52:16.704Z</time>
      </trkpt>
      <trkpt lat="38.49881" lon="39.03094">
        <ele>1324.001437</ele>
        <time>2022-02-24T20:53:02.601Z</time>
      </trkpt>
      <trkpt lat="38.49779" lon="39.03089">
        <ele>1330.053007</ele>
        <time>2022-02-24T20:54:02.676Z</time>
      </trkpt>
      <trkpt lat="38.49753" lon="39.03079">
        <ele>1330.630558</ele>
        <time>2022-02-24T20:54:15.464Z</time>
      </trkpt>
      <trkpt lat="38.49677" lon="39.03055">
        <ele>1332.243571</ele>
        <time>2022-02-24T20:54:54.697Z</time>
      </trkpt>
      <trkpt lat="38.49581" lon="39.03035">
        <ele>1331.093162</ele>
        <time>2022-02-24T20:55:31.738Z</time>
      </trkpt>
      <trkpt lat="38.49407" lon="39.03008">
        <ele>1325.194445</ele>
        <time>2022-02-24T20:56:31.464Z</time>
      </trkpt>
      <trkpt lat="38.4939" lon="39.03003">
        <ele>1324.522752</ele>
        <time>2022-02-24T20:56:37.499Z</time>
      </trkpt>
      <trkpt lat="38.4934" lon="39.02993">
        <ele>1322.645438</ele>
        <time>2022-02-24T20:56:47.576Z</time>
      </trkpt>
      <trkpt lat="38.49306" lon="39.02986">
        <ele>1321.324269</ele>
        <time>2022-02-24T20:56:54.652Z</time>
      </trkpt>
      <trkpt lat="38.49272" lon="39.02974">
        <ele>1320.102453</ele>
        <time>2022-02-24T20:57:01.800Z</time>
      </trkpt>
      <trkpt lat="38.49227" lon="39.02955">
        <ele>1318.665246</ele>
        <time>2022-02-24T20:57:11.556Z</time>
      </trkpt>
      <trkpt lat="38.49088" lon="39.02876">
        <ele>1313.800244</ele>
        <time>2022-02-24T20:57:43.408Z</time>
      </trkpt>
      <trkpt lat="38.48965" lon="39.02793">
        <ele>1308.611406</ele>
        <time>2022-02-24T20:58:11.036Z</time>
      </trkpt>
      <trkpt lat="38.48863" lon="39.027">
        <ele>1303.732007</ele>
        <time>2022-02-24T20:58:35.159Z</time>
      </trkpt>
      <trkpt lat="38.48816" lon="39.02635">
        <ele>1301.211419</ele>
        <time>2022-02-24T20:58:49.298Z</time>
      </trkpt>
      <trkpt lat="38.48806" lon="39.02628">
        <ele>1301.074598</ele>
        <time>2022-02-24T20:58:51.898Z</time>
      </trkpt>
      <trkpt lat="38.48788" lon="39.02624">
        <ele>1300.857202</ele>
        <time>2022-02-24T20:58:55.710Z</time>
      </trkpt>
      <trkpt lat="38.48766" lon="39.02606">
        <ele>1300.552884</ele>
        <time>2022-02-24T20:59:01.631Z</time>
      </trkpt>
      <trkpt lat="38.48721" lon="39.02559">
        <ele>1299.860392</ele>
        <time>2022-02-24T20:59:15.670Z</time>
      </trkpt>
      <trkpt lat="38.48647" lon="39.0247">
        <ele>1299.356767</ele>
        <time>2022-02-24T20:59:44.761Z</time>
      </trkpt>
      <trkpt lat="38.48528" lon="39.02353">
        <ele>1299.928662</ele>
        <time>2022-02-24T21:00:30.825Z</time>
      </trkpt>
      <trkpt lat="38.48457" lon="39.02271">
        <ele>1299.851117</ele>
        <time>2022-02-24T21:00:58.028Z</time>
      </trkpt>
      <trkpt lat="38.48428" lon="39.02249">
        <ele>1299.823621</ele>
        <time>2022-02-24T21:01:07.182Z</time>
      </trkpt>
      <trkpt lat="38.48381" lon="39.02223">
        <ele>1299.54618</ele>
        <time>2022-02-24T21:01:20.430Z</time>
      </trkpt>
      <trkpt lat="38.4827" lon="39.02139">
        <ele>1297.2804</ele>
        <time>2022-02-24T21:01:50.026Z</time>
      </trkpt>
      <trkpt lat="38.48204" lon="39.02072">
        <ele>1294.681306</ele>
        <time>2022-02-24T21:02:07.608Z</time>
      </trkpt>
      <trkpt lat="38.48079" lon="39.01969">
        <ele>1288.707244</ele>
        <time>2022-02-24T21:02:36.333Z</time>
      </trkpt>
      <trkpt lat="38.48042" lon="39.01922">
        <ele>1286.721985</ele>
        <time>2022-02-24T21:02:46.463Z</time>
      </trkpt>
      <trkpt lat="38.48031" lon="39.01898">
        <ele>1285.899714</ele>
        <time>2022-02-24T21:02:50.625Z</time>
      </trkpt>
      <trkpt lat="38.48021" lon="39.0188">
        <ele>1285.246281</ele>
        <time>2022-02-24T21:02:54.094Z</time>
      </trkpt>
      <trkpt lat="38.4799" lon="39.01855">
        <ele>1283.852637</ele>
        <time>2022-02-24T21:03:01.604Z</time>
      </trkpt>
      <trkpt lat="38.47935" lon="39.01834">
        <ele>1282.110008</ele>
        <time>2022-02-24T21:03:13.505Z</time>
      </trkpt>
      <trkpt lat="38.4792" lon="39.01822">
        <ele>1281.776788</ele>
        <time>2022-02-24T21:03:17.370Z</time>
      </trkpt>
      <trkpt lat="38.47919" lon="39.01808">
        <ele>1281.573644</ele>
        <time>2022-02-24T21:03:19.566Z</time>
      </trkpt>
      <trkpt lat="38.47949" lon="39.01822">
        <ele>1280.957942</ele>
        <time>2022-02-24T21:03:32.169Z</time>
      </trkpt>
      <trkpt lat="38.47967" lon="39.0183">
        <ele>1280.61344</ele>
        <time>2022-02-24T21:03:39.744Z</time>
      </trkpt>
      <trkpt lat="38.47921" lon="39.01682">
        <ele>1278.365661</ele>
        <time>2022-02-24T21:04:08.507Z</time>
      </trkpt>
      <trkpt lat="38.47878" lon="39.01567">
        <ele>1276.674293</ele>
        <time>2022-02-24T21:04:30.999Z</time>
      </trkpt>
      <trkpt lat="38.47832" lon="39.01444">
        <ele>1274.810808</ele>
        <time>2022-02-24T21:04:55.005Z</time>
      </trkpt>
      <trkpt lat="38.4778" lon="39.01296">
        <ele>1272.582491</ele>
        <time>2022-02-24T21:05:23.744Z</time>
      </trkpt>
      <trkpt lat="38.47772" lon="39.01281">
        <ele>1272.343984</ele>
        <time>2022-02-24T21:05:26.743Z</time>
      </trkpt>
      <trkpt lat="38.4774" lon="39.01288">
        <ele>1271.780211</ele>
        <time>2022-02-24T21:05:34.243Z</time>
      </trkpt>
      <trkpt lat="38.47722" lon="39.01282">
        <ele>1271.467421</ele>
        <time>2022-02-24T21:05:38.424Z</time>
      </trkpt>
      <trkpt lat="38.47701" lon="39.01287">
        <ele>1271.096511</ele>
        <time>2022-02-24T21:05:43.191Z</time>
      </trkpt>
      <trkpt lat="38.47643" lon="39.01267">
        <ele>1270.081791</ele>
        <time>2022-02-24T21:05:56.824Z</time>
      </trkpt>
      <trkpt lat="38.47618" lon="39.01225">
        <ele>1269.641356</ele>
        <time>2022-02-24T21:06:06.409Z</time>
      </trkpt>
      <trkpt lat="38.47617" lon="39.01204">
        <ele>1269.509382</ele>
        <time>2022-02-24T21:06:10.507Z</time>
      </trkpt>
      <trkpt lat="38.47602" lon="39.01202">
        <ele>1269.394746</ele>
        <time>2022-02-24T21:06:13.933Z</time>
      </trkpt>
      <trkpt lat="38.47606" lon="39.01058">
        <ele>1268.496595</ele>
        <time>2022-02-24T21:06:41.214Z</time>
      </trkpt>
      <trkpt lat="38.47608" lon="39.00938">
        <ele>1267.73538</ele>
        <time>2022-02-24T21:07:04.932Z</time>
      </trkpt>
      <trkpt lat="38.4761" lon="39.00853">
        <ele>1267.199964</ele>
        <time>2022-02-24T21:07:20.587Z</time>
      </trkpt>
      <trkpt lat="38.47629" lon="39.00113">
        <ele>1256.981119</ele>
        <time>2022-02-24T21:09:24.794Z</time>
      </trkpt>
      <trkpt lat="38.47632" lon="38.9998">
        <ele>1255.061711</ele>
        <time>2022-02-24T21:09:46.750Z</time>
      </trkpt>
      <trkpt lat="38.47635" lon="38.99883">
        <ele>1253.792008</ele>
        <time>2022-02-24T21:10:02.850Z</time>
      </trkpt>
      <trkpt lat="38.47639" lon="38.99736">
        <ele>1252.937349</ele>
        <time>2022-02-24T21:10:29.315Z</time>
      </trkpt>
      <trkpt lat="38.47652" lon="38.9924">
        <ele>1253.77422</ele>
        <time>2022-02-24T21:12:22.760Z</time>
      </trkpt>
      <trkpt lat="38.47654" lon="38.99149">
        <ele>1252.401764</ele>
        <time>2022-02-24T21:12:39.712Z</time>
      </trkpt>
      <trkpt lat="38.47682" lon="38.98069">
        <ele>1227.333206</ele>
        <time>2022-02-24T21:15:25.559Z</time>
      </trkpt>
      <trkpt lat="38.47689" lon="38.97954">
        <ele>1225.817331</ele>
        <time>2022-02-24T21:15:44.403Z</time>
      </trkpt>
      <trkpt lat="38.47694" lon="38.97793">
        <ele>1224.120732</ele>
        <time>2022-02-24T21:16:13.858Z</time>
      </trkpt>
      <trkpt lat="38.477" lon="38.97606">
        <ele>1223.162486</ele>
        <time>2022-02-24T21:16:51.097Z</time>
      </trkpt>
      <trkpt lat="38.47706" lon="38.97429">
        <ele>1219.669573</ele>
        <time>2022-02-24T21:17:21.013Z</time>
      </trkpt>
      <trkpt lat="38.47728" lon="38.96576">
        <ele>1186.292421</ele>
        <time>2022-02-24T21:19:21.403Z</time>
      </trkpt>
      <trkpt lat="38.47738" lon="38.96216">
        <ele>1170.331518</ele>
        <time>2022-02-24T21:20:11.341Z</time>
      </trkpt>
      <trkpt lat="38.47743" lon="38.96032">
        <ele>1163.035033</ele>
        <time>2022-02-24T21:20:37.532Z</time>
      </trkpt>
      <trkpt lat="38.47746" lon="38.95956">
        <ele>1160.149317</ele>
        <time>2022-02-24T21:20:48.308Z</time>
      </trkpt>
      <trkpt lat="38.47734" lon="38.9583">
        <ele>1155.471488</ele>
        <time>2022-02-24T21:21:06.336Z</time>
      </trkpt>
      <trkpt lat="38.47724" lon="38.95781">
        <ele>1153.610231</ele>
        <time>2022-02-24T21:21:13.642Z</time>
      </trkpt>
      <trkpt lat="38.47715" lon="38.95738">
        <ele>1152.303548</ele>
        <time>2022-02-24T21:21:20.337Z</time>
      </trkpt>
      <trkpt lat="38.47701" lon="38.95677">
        <ele>1150.694493</ele>
        <time>2022-02-24T21:21:29.718Z</time>
      </trkpt>
      <trkpt lat="38.47654" lon="38.95556">
        <ele>1147.218377</ele>
        <time>2022-02-24T21:21:50.792Z</time>
      </trkpt>
      <trkpt lat="38.47635" lon="38.95457">
        <ele>1144.879694</ele>
        <time>2022-02-24T21:22:07.203Z</time>
      </trkpt>
      <trkpt lat="38.47627" lon="38.95376">
        <ele>1143.025422</ele>
        <time>2022-02-24T21:22:19.822Z</time>
      </trkpt>
      <trkpt lat="38.47632" lon="38.95203">
        <ele>1137.909321</ele>
        <time>2022-02-24T21:22:45.633Z</time>
      </trkpt>
      <trkpt lat="38.47656" lon="38.94805">
        <ele>1124.118486</ele>
        <time>2022-02-24T21:23:43.258Z</time>
      </trkpt>
      <trkpt lat="38.47688" lon="38.94361">
        <ele>1109.062547</ele>
        <time>2022-02-24T21:24:48.207Z</time>
      </trkpt>
      <trkpt lat="38.47707" lon="38.94153">
        <ele>1101.757127</ele>
        <time>2022-02-24T21:25:18.734Z</time>
      </trkpt>
      <trkpt lat="38.47708" lon="38.94136">
        <ele>1101.116582</ele>
        <time>2022-02-24T21:25:21.069Z</time>
      </trkpt>
      <trkpt lat="38.47715" lon="38.94038">
        <ele>1097.267366</ele>
        <time>2022-02-24T21:25:35.060Z</time>
      </trkpt>
      <trkpt lat="38.47715" lon="38.93871">
        <ele>1091.463001</ele>
        <time>2022-02-24T21:25:58.563Z</time>
      </trkpt>
      <trkpt lat="38.47709" lon="38.93718">
        <ele>1086.816176</ele>
        <time>2022-02-24T21:26:21.719Z</time>
      </trkpt>
      <trkpt lat="38.47688" lon="38.93407">
        <ele>1080.639514</ele>
        <time>2022-02-24T21:27:12.748Z</time>
      </trkpt>
      <trkpt lat="38.47672" lon="38.93187">
        <ele>1074.551513</ele>
        <time>2022-02-24T21:27:46.123Z</time>
      </trkpt>
      <trkpt lat="38.47644" lon="38.92833">
        <ele>1060.827993</ele>
        <time>2022-02-24T21:28:36.334Z</time>
      </trkpt>
      <trkpt lat="38.47626" lon="38.92608">
        <ele>1051.201895</ele>
        <time>2022-02-24T21:29:07.977Z</time>
      </trkpt>
      <trkpt lat="38.47608" lon="38.92314">
        <ele>1037.948015</ele>
        <time>2022-02-24T21:29:49.020Z</time>
      </trkpt>
      <trkpt lat="38.47587" lon="38.9213">
        <ele>1029.514881</ele>
        <time>2022-02-24T21:30:14.455Z</time>
      </trkpt>
      <trkpt lat="38.4758" lon="38.92065">
        <ele>1027.62749</ele>
        <time>2022-02-24T21:30:23.955Z</time>
      </trkpt>
      <trkpt lat="38.47574" lon="38.92031">
        <ele>1026.680878</ele>
        <time>2022-02-24T21:30:28.963Z</time>
      </trkpt>
      <trkpt lat="38.47558" lon="38.91931">
        <ele>1023.859447</ele>
        <time>2022-02-24T21:30:44.967Z</time>
      </trkpt>
      <trkpt lat="38.47527" lon="38.91771">
        <ele>1020.589762</ele>
        <time>2022-02-24T21:31:12.841Z</time>
      </trkpt>
      <trkpt lat="38.47515" lon="38.91721">
        <ele>1019.654959</ele>
        <time>2022-02-24T21:31:21.268Z</time>
      </trkpt>
      <trkpt lat="38.47491" lon="38.91626">
        <ele>1016.924043</ele>
        <time>2022-02-24T21:31:36.477Z</time>
      </trkpt>
      <trkpt lat="38.47466" lon="38.91535">
        <ele>1013.646559</ele>
        <time>2022-02-24T21:31:50.438Z</time>
      </trkpt>
      <trkpt lat="38.47448" lon="38.9148">
        <ele>1011.605234</ele>
        <time>2022-02-24T21:31:58.846Z</time>
      </trkpt>
      <trkpt lat="38.47422" lon="38.91398">
        <ele>1007.892593</ele>
        <time>2022-02-24T21:32:11.298Z</time>
      </trkpt>
      <trkpt lat="38.47268" lon="38.90987">
        <ele>987.849826</ele>
        <time>2022-02-24T21:33:14.416Z</time>
      </trkpt>
      <trkpt lat="38.47107" lon="38.90555">
        <ele>972.154707</ele>
        <time>2022-02-24T21:34:23.536Z</time>
      </trkpt>
      <trkpt lat="38.4702" lon="38.90328">
        <ele>969.917218</ele>
        <time>2022-02-24T21:35:11.381Z</time>
      </trkpt>
      <trkpt lat="38.46974" lon="38.90207">
        <ele>970.039215</ele>
        <time>2022-02-24T21:35:44.805Z</time>
      </trkpt>
      <trkpt lat="38.46931" lon="38.90082">
        <ele>969.67887</ele>
        <time>2022-02-24T21:36:15.988Z</time>
      </trkpt>
      <trkpt lat="38.46861" lon="38.89893">
        <ele>966.41808</ele>
        <time>2022-02-24T21:36:50.231Z</time>
      </trkpt>
      <trkpt lat="38.46856" lon="38.8988">
        <ele>966.077208</ele>
        <time>2022-02-24T21:36:52.343Z</time>
      </trkpt>
      <trkpt lat="38.46352" lon="38.8854">
        <ele>917.55753</ele>
        <time>2022-02-24T21:40:29.537Z</time>
      </trkpt>
      <trkpt lat="38.46333" lon="38.88487">
        <ele>915.256159</ele>
        <time>2022-02-24T21:40:37.874Z</time>
      </trkpt>
      <trkpt lat="38.46303" lon="38.88394">
        <ele>911.298564</ele>
        <time>2022-02-24T21:40:52.188Z</time>
      </trkpt>
      <trkpt lat="38.46256" lon="38.88257">
        <ele>903.734923</ele>
        <time>2022-02-24T21:41:12.790Z</time>
      </trkpt>
      <trkpt lat="38.46221" lon="38.88143">
        <ele>896.995123</ele>
        <time>2022-02-24T21:41:29.005Z</time>
      </trkpt>
      <trkpt lat="38.46212" lon="38.88107">
        <ele>894.416456</ele>
        <time>2022-02-24T21:41:33.894Z</time>
      </trkpt>
      <trkpt lat="38.46176" lon="38.87952">
        <ele>883.168368</ele>
        <time>2022-02-24T21:41:54.827Z</time>
      </trkpt>
      <trkpt lat="38.46173" lon="38.8793">
        <ele>881.613563</ele>
        <time>2022-02-24T21:41:57.660Z</time>
      </trkpt>
      <trkpt lat="38.46153" lon="38.87815">
        <ele>874.3717</ele>
        <time>2022-02-24T21:42:13.247Z</time>
      </trkpt>
      <trkpt lat="38.46138" lon="38.87701">
        <ele>867.327707</ele>
        <time>2022-02-24T21:42:28.564Z</time>
      </trkpt>
      <trkpt lat="38.46123" lon="38.87519">
        <ele>858.130005</ele>
        <time>2022-02-24T21:42:53.472Z</time>
      </trkpt>
      <trkpt lat="38.46116" lon="38.87385">
        <ele>852.620463</ele>
        <time>2022-02-24T21:43:12.234Z</time>
      </trkpt>
      <trkpt lat="38.46119" lon="38.872">
        <ele>846.330091</ele>
        <time>2022-02-24T21:43:39.517Z</time>
      </trkpt>
      <trkpt lat="38.46117" lon="38.87128">
        <ele>844.320132</ele>
        <time>2022-02-24T21:43:50.499Z</time>
      </trkpt>
      <trkpt lat="38.4608" lon="38.86789">
        <ele>834.599893</ele>
        <time>2022-02-24T21:44:42.084Z</time>
      </trkpt>
      <trkpt lat="38.4606" lon="38.86689">
        <ele>830.981613</ele>
        <time>2022-02-24T21:44:57.113Z</time>
      </trkpt>
      <trkpt lat="38.4604" lon="38.86625">
        <ele>828.559108</ele>
        <time>2022-02-24T21:45:06.899Z</time>
      </trkpt>
      <trkpt lat="38.46024" lon="38.86576">
        <ele>826.667579</ele>
        <time>2022-02-24T21:45:14.486Z</time>
      </trkpt>
      <trkpt lat="38.45983" lon="38.86461">
        <ele>821.865352</ele>
        <time>2022-02-24T21:45:32.373Z</time>
      </trkpt>
      <trkpt lat="38.45931" lon="38.8631">
        <ele>816.084357</ele>
        <time>2022-02-24T21:45:55.999Z</time>
      </trkpt>
      <trkpt lat="38.45889" lon="38.86193">
        <ele>812.673786</ele>
        <time>2022-02-24T21:46:15.026Z</time>
      </trkpt>
      <trkpt lat="38.45828" lon="38.86011">
        <ele>809.327938</ele>
        <time>2022-02-24T21:46:49.311Z</time>
      </trkpt>
      <trkpt lat="38.45737" lon="38.85731">
        <ele>804.81989</ele>
        <time>2022-02-24T21:47:40.402Z</time>
      </trkpt>
      <trkpt lat="38.45733" lon="38.85714">
        <ele>804.533206</ele>
        <time>2022-02-24T21:47:42.932Z</time>
      </trkpt>
      <trkpt lat="38.4571" lon="38.85658">
        <ele>803.254495</ele>
        <time>2022-02-24T21:47:52.838Z</time>
      </trkpt>
      <trkpt lat="38.45706" lon="38.85648">
        <ele>803.026339</ele>
        <time>2022-02-24T21:47:54.581Z</time>
      </trkpt>
      <trkpt lat="38.45698" lon="38.85633">
        <ele>802.677684</ele>
        <time>2022-02-24T21:47:57.198Z</time>
      </trkpt>
      <trkpt lat="38.45596" lon="38.8543">
        <ele>798.093102</ele>
        <time>2022-02-24T21:48:36.276Z</time>
      </trkpt>
      <trkpt lat="38.45483" lon="38.85233">
        <ele>791.714535</ele>
        <time>2022-02-24T21:49:15.876Z</time>
      </trkpt>
      <trkpt lat="38.45406" lon="38.85106">
        <ele>784.698255</ele>
        <time>2022-02-24T21:49:37.622Z</time>
      </trkpt>
      <trkpt lat="38.45309" lon="38.8493">
        <ele>773.232319</ele>
        <time>2022-02-24T21:50:05.595Z</time>
      </trkpt>
      <trkpt lat="38.45278" lon="38.84881">
        <ele>772.663542</ele>
        <time>2022-02-24T21:50:14.837Z</time>
      </trkpt>
      <trkpt lat="38.45281" lon="38.84871">
        <ele>772.572934</ele>
        <time>2022-02-24T21:50:17.138Z</time>
      </trkpt>
      <trkpt lat="38.45281" lon="38.84861">
        <ele>772.481613</ele>
        <time>2022-02-24T21:50:18.840Z</time>
      </trkpt>
      <trkpt lat="38.45279" lon="38.84852">
        <ele>772.390505</ele>
        <time>2022-02-24T21:50:21.169Z</time>
      </trkpt>
      <trkpt lat="38.45274" lon="38.84844">
        <ele>772.300776</ele>
        <time>2022-02-24T21:50:23.013Z</time>
      </trkpt>
      <trkpt lat="38.45184" lon="38.84629">
        <ele>775.172339</ele>
        <time>2022-02-24T21:51:57.493Z</time>
      </trkpt>
      <trkpt lat="38.45026" lon="38.84243">
        <ele>775.048355</ele>
        <time>2022-02-24T21:53:25.741Z</time>
      </trkpt>
      <trkpt lat="38.44706" lon="38.83456">
        <ele>762.202736</ele>
        <time>2022-02-24T21:55:59.972Z</time>
      </trkpt>
      <trkpt lat="38.44448" lon="38.82841">
        <ele>751.584299</ele>
        <time>2022-02-24T21:58:01.357Z</time>
      </trkpt>
      <trkpt lat="38.44317" lon="38.82513">
        <ele>745.972161</ele>
        <time>2022-02-24T21:59:05.443Z</time>
      </trkpt>
      <trkpt lat="38.44196" lon="38.82183">
        <ele>741.400792</ele>
        <time>2022-02-24T22:00:10.019Z</time>
      </trkpt>
      <trkpt lat="38.44148" lon="38.82071">
        <ele>740.291943</ele>
        <time>2022-02-24T22:00:33.486Z</time>
      </trkpt>
      <trkpt lat="38.44102" lon="38.8194">
        <ele>739.490163</ele>
        <time>2022-02-24T22:01:01.928Z</time>
      </trkpt>
      <trkpt lat="38.43949" lon="38.81535">
        <ele>733.356785</ele>
        <time>2022-02-24T22:02:20.033Z</time>
      </trkpt>
      <trkpt lat="38.43929" lon="38.81492">
        <ele>732.2408</ele>
        <time>2022-02-24T22:02:27.155Z</time>
      </trkpt>
      <trkpt lat="38.43894" lon="38.81419">
        <ele>728.179711</ele>
        <time>2022-02-24T22:02:38.856Z</time>
      </trkpt>
      <trkpt lat="38.43843" lon="38.81344">
        <ele>723.434448</ele>
        <time>2022-02-24T22:02:52.050Z</time>
      </trkpt>
      <trkpt lat="38.43802" lon="38.81306">
        <ele>720.75564</ele>
        <time>2022-02-24T22:03:01.061Z</time>
      </trkpt>
      <trkpt lat="38.43728" lon="38.81261">
        <ele>717.531687</ele>
        <time>2022-02-24T22:03:16.444Z</time>
      </trkpt>
      <trkpt lat="38.4369" lon="38.81238">
        <ele>715.8772</ele>
        <time>2022-02-24T22:03:24.617Z</time>
      </trkpt>
      <trkpt lat="38.43602" lon="38.81184">
        <ele>714.492478</ele>
        <time>2022-02-24T22:03:44.102Z</time>
      </trkpt>
      <trkpt lat="38.43468" lon="38.81136">
        <ele>715.477071</ele>
        <time>2022-02-24T22:04:31.263Z</time>
      </trkpt>
      <trkpt lat="38.43396" lon="38.8111">
        <ele>718.634066</ele>
        <time>2022-02-24T22:05:05.112Z</time>
      </trkpt>
      <trkpt lat="38.43191" lon="38.80963">
        <ele>729.175133</ele>
        <time>2022-02-24T22:07:10.814Z</time>
      </trkpt>
      <trkpt lat="38.42949" lon="38.80814">
        <ele>733.997317</ele>
        <time>2022-02-24T22:08:38.213Z</time>
      </trkpt>
      <trkpt lat="38.42841" lon="38.80704">
        <ele>735.885354</ele>
        <time>2022-02-24T22:09:24.709Z</time>
      </trkpt>
      <trkpt lat="38.42755" lon="38.80584">
        <ele>737.513962</ele>
        <time>2022-02-24T22:10:08.434Z</time>
      </trkpt>
      <trkpt lat="38.42554" lon="38.80189">
        <ele>739.258695</ele>
        <time>2022-02-24T22:11:54.940Z</time>
      </trkpt>
      <trkpt lat="38.42378" lon="38.79829">
        <ele>739.134768</ele>
        <time>2022-02-24T22:13:18.655Z</time>
      </trkpt>
      <trkpt lat="38.42335" lon="38.79696">
        <ele>740.977695</ele>
        <time>2022-02-24T22:13:56.716Z</time>
      </trkpt>
      <trkpt lat="38.42278" lon="38.79389">
        <ele>748.340465</ele>
        <time>2022-02-24T22:15:45.463Z</time>
      </trkpt>
      <trkpt lat="38.42263" lon="38.79298">
        <ele>750.05189</ele>
        <time>2022-02-24T22:16:13.002Z</time>
      </trkpt>
      <trkpt lat="38.42248" lon="38.79205">
        <ele>750.319123</ele>
        <time>2022-02-24T22:16:37.425Z</time>
      </trkpt>
      <trkpt lat="38.4221" lon="38.78976">
        <ele>748.744526</ele>
        <time>2022-02-24T22:17:19.257Z</time>
      </trkpt>
      <trkpt lat="38.42193" lon="38.78874">
        <ele>747.17808</ele>
        <time>2022-02-24T22:17:35.605Z</time>
      </trkpt>
      <trkpt lat="38.42196" lon="38.78845">
        <ele>746.653952</ele>
        <time>2022-02-24T22:17:40.176Z</time>
      </trkpt>
      <trkpt lat="38.42196" lon="38.78827">
        <ele>746.327369</ele>
        <time>2022-02-24T22:17:42.784Z</time>
      </trkpt>
      <trkpt lat="38.42193" lon="38.78627">
        <ele>742.954206</ele>
        <time>2022-02-24T22:18:15.098Z</time>
      </trkpt>
      <trkpt lat="38.4219" lon="38.78573">
        <ele>742.870061</ele>
        <time>2022-02-24T22:18:25.724Z</time>
      </trkpt>
      <trkpt lat="38.42189" lon="38.78543">
        <ele>742.822769</ele>
        <time>2022-02-24T22:18:32.316Z</time>
      </trkpt>
      <trkpt lat="38.42166" lon="38.78411">
        <ele>742.658163</ele>
        <time>2022-02-24T22:19:03.563Z</time>
      </trkpt>
      <trkpt lat="38.42164" lon="38.78403">
        <ele>742.697866</ele>
        <time>2022-02-24T22:19:05.898Z</time>
      </trkpt>
      <trkpt lat="38.42151" lon="38.78355">
        <ele>742.929929</ele>
        <time>2022-02-24T22:19:18.482Z</time>
      </trkpt>
      <trkpt lat="38.42121" lon="38.78226">
        <ele>743.552588</ele>
        <time>2022-02-24T22:19:51.169Z</time>
      </trkpt>
      <trkpt lat="38.4211" lon="38.7818">
        <ele>743.717004</ele>
        <time>2022-02-24T22:20:02.197Z</time>
      </trkpt>
      <trkpt lat="38.42094" lon="38.78107">
        <ele>743.856003</ele>
        <time>2022-02-24T22:20:19.689Z</time>
      </trkpt>
      <trkpt lat="38.42061" lon="38.77961">
        <ele>744.065288</ele>
        <time>2022-02-24T22:20:53.698Z</time>
      </trkpt>
      <trkpt lat="38.4205" lon="38.77937">
        <ele>744.012528</ele>
        <time>2022-02-24T22:20:59.700Z</time>
      </trkpt>
      <trkpt lat="38.42041" lon="38.77922">
        <ele>743.979379</ele>
        <time>2022-02-24T22:21:03.535Z</time>
      </trkpt>
      <trkpt lat="38.4201" lon="38.77727">
        <ele>743.56589</ele>
        <time>2022-02-24T22:21:43.044Z</time>
      </trkpt>
      <trkpt lat="38.41974" lon="38.77537">
        <ele>742.972467</ele>
        <time>2022-02-24T22:22:20.913Z</time>
      </trkpt>
      <trkpt lat="38.41971" lon="38.77522">
        <ele>743.006988</ele>
        <time>2022-02-24T22:22:23.882Z</time>
      </trkpt>
      <trkpt lat="38.4193" lon="38.77378">
        <ele>743.351634</ele>
        <time>2022-02-24T22:22:56.513Z</time>
      </trkpt>
      <trkpt lat="38.4185" lon="38.77163">
        <ele>745.117038</ele>
        <time>2022-02-24T22:23:55.970Z</time>
      </trkpt>
      <trkpt lat="38.41724" lon="38.76923">
        <ele>747.91878</ele>
        <time>2022-02-24T22:25:12.127Z</time>
      </trkpt>
      <trkpt lat="38.41786" lon="38.76874">
        <ele>747.8702</ele>
        <time>2022-02-24T22:25:32.790Z</time>
      </trkpt>
      <trkpt lat="38.4178" lon="38.76854">
        <ele>747.85878</ele>
        <time>2022-02-24T22:25:37.466Z</time>
      </trkpt>
      <trkpt lat="38.41736" lon="38.76784">
        <ele>747.811326</ele>
        <time>2022-02-24T22:25:55.120Z</time>
      </trkpt>
      <trkpt lat="38.41686" lon="38.76703">
        <ele>747.032642</ele>
        <time>2022-02-24T22:26:14.734Z</time>
      </trkpt>
      <trkpt lat="38.41683" lon="38.76689">
        <ele>746.90672</ele>
        <time>2022-02-24T22:26:17.236Z</time>
      </trkpt>
      <trkpt lat="38.41627" lon="38.76628">
        <ele>746.055987</ele>
        <time>2022-02-24T22:26:34.647Z</time>
      </trkpt>
      <trkpt lat="38.41454" lon="38.76539">
        <ele>743.974904</ele>
        <time>2022-02-24T22:27:18.607Z</time>
      </trkpt>
      <trkpt lat="38.41417" lon="38.76521">
        <ele>743.734167</ele>
        <time>2022-02-24T22:27:28.764Z</time>
      </trkpt>
      <trkpt lat="38.41393" lon="38.7649">
        <ele>743.73777</ele>
        <time>2022-02-24T22:27:37.398Z</time>
      </trkpt>
      <trkpt lat="38.41374" lon="38.76486">
        <ele>743.739813</ele>
        <time>2022-02-24T22:27:42.737Z</time>
      </trkpt>
      <trkpt lat="38.41338" lon="38.76477">
        <ele>743.743745</ele>
        <time>2022-02-24T22:27:53.211Z</time>
      </trkpt>
      <trkpt lat="38.41224" lon="38.76416">
        <ele>743.735565</ele>
        <time>2022-02-24T22:28:30.035Z</time>
      </trkpt>
      <trkpt lat="38.41183" lon="38.76386">
        <ele>743.720966</ele>
        <time>2022-02-24T22:28:44.238Z</time>
      </trkpt>
      <trkpt lat="38.4106" lon="38.76275">
        <ele>742.563628</ele>
        <time>2022-02-24T22:29:22.506Z</time>
      </trkpt>
      <trkpt lat="38.40873" lon="38.76101">
        <ele>738.01321</ele>
        <time>2022-02-24T22:30:12.779Z</time>
      </trkpt>
      <trkpt lat="38.40852" lon="38.76088">
        <ele>737.490358</ele>
        <time>2022-02-24T22:30:17.356Z</time>
      </trkpt>
      <trkpt lat="38.40786" lon="38.76088">
        <ele>736.491954</ele>
        <time>2022-02-24T22:30:32.117Z</time>
      </trkpt>
      <trkpt lat="38.40765" lon="38.76081">
        <ele>736.357221</ele>
        <time>2022-02-24T22:30:37.178Z</time>
      </trkpt>
      <trkpt lat="38.4073" lon="38.76039">
        <ele>736.056242</ele>
        <time>2022-02-24T22:30:49.433Z</time>
      </trkpt>
      <trkpt lat="38.40726" lon="38.76035">
        <ele>736.025662</ele>
        <time>2022-02-24T22:30:50.397Z</time>
      </trkpt>
      <trkpt lat="38.40714" lon="38.76021">
        <ele>735.924487</ele>
        <time>2022-02-24T22:30:55.114Z</time>
      </trkpt>
      <trkpt lat="38.40693" lon="38.75994">
        <ele>735.741449</ele>
        <time>2022-02-24T22:31:03.501Z</time>
      </trkpt>
      <trkpt lat="38.40681" lon="38.75966">
        <ele>735.582452</ele>
        <time>2022-02-24T22:31:11.006Z</time>
      </trkpt>
      <trkpt lat="38.40675" lon="38.75927">
        <ele>735.857804</ele>
        <time>2022-02-24T22:31:21.600Z</time>
      </trkpt>
      <trkpt lat="38.40682" lon="38.75822">
        <ele>736.733906</ele>
        <time>2022-02-24T22:31:50.203Z</time>
      </trkpt>
      <trkpt lat="38.40677" lon="38.75786">
        <ele>737.03041</ele>
        <time>2022-02-24T22:31:59.892Z</time>
      </trkpt>
      <trkpt lat="38.40659" lon="38.75751">
        <ele>737.376382</ele>
        <time>2022-02-24T22:32:10.593Z</time>
      </trkpt>
      <trkpt lat="38.40634" lon="38.75719">
        <ele>737.528205</ele>
        <time>2022-02-24T22:32:21.700Z</time>
      </trkpt>
      <trkpt lat="38.40508" lon="38.7556">
        <ele>737.777126</ele>
        <time>2022-02-24T22:33:12.137Z</time>
      </trkpt>
      <trkpt lat="38.40386" lon="38.75406">
        <ele>736.708191</ele>
        <time>2022-02-24T22:33:55.913Z</time>
      </trkpt>
      <trkpt lat="38.40367" lon="38.75375">
        <ele>736.093514</ele>
        <time>2022-02-24T22:34:03.375Z</time>
      </trkpt>
      <trkpt lat="38.40321" lon="38.752">
        <ele>733.243986</ele>
        <time>2022-02-24T22:34:34.240Z</time>
      </trkpt>
      <trkpt lat="38.40325" lon="38.75183">
        <ele>733.004593</ele>
        <time>2022-02-24T22:34:37.240Z</time>
      </trkpt>
      <trkpt lat="38.40342" lon="38.75176">
        <ele>732.699905</ele>
        <time>2022-02-24T22:34:40.718Z</time>
      </trkpt>
      <trkpt lat="38.4039" lon="38.75155">
        <ele>731.822384</ele>
        <time>2022-02-24T22:34:51.490Z</time>
      </trkpt>
      <trkpt lat="38.40404" lon="38.75132">
        <ele>731.424685</ele>
        <time>2022-02-24T22:34:56.336Z</time>
      </trkpt>
      <trkpt lat="38.40413" lon="38.75124">
        <ele>731.230155</ele>
        <time>2022-02-24T22:34:58.927Z</time>
      </trkpt>
      <trkpt lat="38.40322" lon="38.74957">
        <ele>729.704849</ele>
        <time>2022-02-24T22:35:36.896Z</time>
      </trkpt>
      <trkpt lat="38.40255" lon="38.74835">
        <ele>728.920668</ele>
        <time>2022-02-24T22:36:06.798Z</time>
      </trkpt>
      <trkpt lat="38.4015" lon="38.74638">
        <ele>727.57974</ele>
        <time>2022-02-24T22:36:50.061Z</time>
      </trkpt>
      <trkpt lat="38.40026" lon="38.74404">
        <ele>726.445184</ele>
        <time>2022-02-24T22:37:45.970Z</time>
      </trkpt>
      <trkpt lat="38.39955" lon="38.7427">
        <ele>725.667364</ele>
        <time>2022-02-24T22:38:16.629Z</time>
      </trkpt>
      <trkpt lat="38.39861" lon="38.74093">
        <ele>724.263451</ele>
        <time>2022-02-24T22:38:55.507Z</time>
      </trkpt>
      <trkpt lat="38.39814" lon="38.74005">
        <ele>723.809733</ele>
        <time>2022-02-24T22:39:15.432Z</time>
      </trkpt>
      <trkpt lat="38.39547" lon="38.73503">
        <ele>723.059092</ele>
        <time>2022-02-24T22:41:20.010Z</time>
      </trkpt>
      <trkpt lat="38.39314" lon="38.73066">
        <ele>723.160758</ele>
        <time>2022-02-24T22:43:10.793Z</time>
      </trkpt>
      <trkpt lat="38.3931" lon="38.73057">
        <ele>723.167721</ele>
        <time>2022-02-24T22:43:13.313Z</time>
      </trkpt>
      <trkpt lat="38.38965" lon="38.72404">
        <ele>723.958397</ele>
        <time>2022-02-24T22:46:03.033Z</time>
      </trkpt>
      <trkpt lat="38.38889" lon="38.72233">
        <ele>723.015844</ele>
        <time>2022-02-24T22:46:39.702Z</time>
      </trkpt>
      <trkpt lat="38.38871" lon="38.72182">
        <ele>722.782522</ele>
        <time>2022-02-24T22:46:50.085Z</time>
      </trkpt>
      <trkpt lat="38.38844" lon="38.72095">
        <ele>722.427498</ele>
        <time>2022-02-24T22:47:08.092Z</time>
      </trkpt>
      <trkpt lat="38.3881" lon="38.71986">
        <ele>721.999397</ele>
        <time>2022-02-24T22:47:31.685Z</time>
      </trkpt>
      <trkpt lat="38.38756" lon="38.71723">
        <ele>721.269188</ele>
        <time>2022-02-24T22:48:25.668Z</time>
      </trkpt>
      <trkpt lat="38.38739" lon="38.71584">
        <ele>720.850319</ele>
        <time>2022-02-24T22:48:52.690Z</time>
      </trkpt>
      <trkpt lat="38.3873" lon="38.71441">
        <ele>720.840432</ele>
        <time>2022-02-24T22:49:21.569Z</time>
      </trkpt>
      <trkpt lat="38.3873" lon="38.71378">
        <ele>720.887595</ele>
        <time>2022-02-24T22:49:35.283Z</time>
      </trkpt>
      <trkpt lat="38.38727" lon="38.71068">
        <ele>722.229883</ele>
        <time>2022-02-24T22:50:47.996Z</time>
      </trkpt>
      <trkpt lat="38.38728" lon="38.70279">
        <ele>724.994787</ele>
        <time>2022-02-24T22:53:47.707Z</time>
      </trkpt>
      <trkpt lat="38.38729" lon="38.69958">
        <ele>724.606411</ele>
        <time>2022-02-24T22:54:52.615Z</time>
      </trkpt>
      <trkpt lat="38.3873" lon="38.69379">
        <ele>721.168022</ele>
        <time>2022-02-24T22:56:38.139Z</time>
      </trkpt>
      <trkpt lat="38.3873" lon="38.69367">
        <ele>721.152069</ele>
        <time>2022-02-24T22:56:40.518Z</time>
      </trkpt>
      <trkpt lat="38.3873" lon="38.69344">
        <ele>721.122844</ele>
        <time>2022-02-24T22:56:45.350Z</time>
      </trkpt>
      <trkpt lat="38.38734" lon="38.68318">
        <ele>727.781048</ele>
        <time>2022-02-24T23:00:54.177Z</time>
      </trkpt>
      <trkpt lat="38.38736" lon="38.679">
        <ele>732.476081</ele>
        <time>2022-02-24T23:02:45.878Z</time>
      </trkpt>
      <trkpt lat="38.38736" lon="38.67853">
        <ele>732.929991</ele>
        <time>2022-02-24T23:02:57.913Z</time>
      </trkpt>
      <trkpt lat="38.38737" lon="38.67612">
        <ele>734.99091</ele>
        <time>2022-02-24T23:03:57.587Z</time>
      </trkpt>
      <trkpt lat="38.38738" lon="38.6708">
        <ele>739.192851</ele>
        <time>2022-02-24T23:06:09.724Z</time>
      </trkpt>
      <trkpt lat="38.38738" lon="38.67043">
        <ele>739.453474</ele>
        <time>2022-02-24T23:06:18.344Z</time>
      </trkpt>
      <trkpt lat="38.38739" lon="38.66537">
        <ele>743.51431</ele>
        <time>2022-02-24T23:08:19.757Z</time>
      </trkpt>
      <trkpt lat="38.38739" lon="38.65965">
        <ele>756.791166</ele>
        <time>2022-02-24T23:11:26.018Z</time>
      </trkpt>
      <trkpt lat="38.38733" lon="38.65805">
        <ele>761.060643</ele>
        <time>2022-02-24T23:12:20.394Z</time>
      </trkpt>
      <trkpt lat="38.38732" lon="38.65789">
        <ele>761.560539</ele>
        <time>2022-02-24T23:12:26.445Z</time>
      </trkpt>
      <trkpt lat="38.38727" lon="38.65713">
        <ele>763.849252</ele>
        <time>2022-02-24T23:12:52.349Z</time>
      </trkpt>
      <trkpt lat="38.38417" lon="38.63479">
        <ele>832.564906</ele>
        <time>2022-02-24T23:26:19.220Z</time>
      </trkpt>
      <trkpt lat="38.38377" lon="38.63212">
        <ele>839.756236</ele>
        <time>2022-02-24T23:27:50.648Z</time>
      </trkpt>
      <trkpt lat="38.3834" lon="38.63001">
        <ele>844.636566</ele>
        <time>2022-02-24T23:29:00.034Z</time>
      </trkpt>
      <trkpt lat="38.38302" lon="38.62833">
        <ele>848.063474</ele>
        <time>2022-02-24T23:29:51.217Z</time>
      </trkpt>
      <trkpt lat="38.38247" lon="38.62636">
        <ele>851.979921</ele>
        <time>2022-02-24T23:30:53.103Z</time>
      </trkpt>
      <trkpt lat="38.38132" lon="38.623">
        <ele>858.268583</ele>
        <time>2022-02-24T23:32:49.816Z</time>
      </trkpt>
      <trkpt lat="38.37375" lon="38.60498">
        <ele>829.315134</ele>
        <time>2022-02-24T23:38:31.909Z</time>
      </trkpt>
      <trkpt lat="38.37286" lon="38.60324">
        <ele>823.287534</ele>
        <time>2022-02-24T23:39:02.120Z</time>
      </trkpt>
      <trkpt lat="38.37253" lon="38.6026">
        <ele>820.712984</ele>
        <time>2022-02-24T23:39:13.162Z</time>
      </trkpt>
      <trkpt lat="38.36766" lon="38.59315">
        <ele>789.480958</ele>
        <time>2022-02-24T23:42:03.886Z</time>
      </trkpt>
      <trkpt lat="38.36705" lon="38.59188">
        <ele>785.65496</ele>
        <time>2022-02-24T23:42:26.600Z</time>
      </trkpt>
      <trkpt lat="38.36636" lon="38.58972">
        <ele>779.599575</ele>
        <time>2022-02-24T23:43:02.567Z</time>
      </trkpt>
      <trkpt lat="38.36612" lon="38.58837">
        <ele>775.804869</ele>
        <time>2022-02-24T23:43:23.494Z</time>
      </trkpt>
      <trkpt lat="38.36602" lon="38.58722">
        <ele>772.149992</ele>
        <time>2022-02-24T23:43:40.349Z</time>
      </trkpt>
      <trkpt lat="38.36592" lon="38.58378">
        <ele>763.113854</ele>
        <time>2022-02-24T23:44:30.932Z</time>
      </trkpt>
      <trkpt lat="38.3659" lon="38.58279">
        <ele>765.623107</ele>
        <time>2022-02-24T23:44:56.560Z</time>
      </trkpt>
      <trkpt lat="38.36584" lon="38.58001">
        <ele>778.557262</ele>
        <time>2022-02-24T23:47:11.622Z</time>
      </trkpt>
      <trkpt lat="38.36577" lon="38.57871">
        <ele>786.3479</ele>
        <time>2022-02-24T23:48:21.406Z</time>
      </trkpt>
      <trkpt lat="38.36558" lon="38.5777">
        <ele>792.48236</ele>
        <time>2022-02-24T23:49:12.669Z</time>
      </trkpt>
      <trkpt lat="38.3653" lon="38.57664">
        <ele>798.191423</ele>
        <time>2022-02-24T23:50:03.640Z</time>
      </trkpt>
      <trkpt lat="38.3633" lon="38.5708">
        <ele>825.172491</ele>
        <time>2022-02-24T23:54:25.393Z</time>
      </trkpt>
      <trkpt lat="38.36287" lon="38.56968">
        <ele>828.668555</ele>
        <time>2022-02-24T23:55:10.776Z</time>
      </trkpt>
      <trkpt lat="38.3621" lon="38.5681">
        <ele>832.687647</ele>
        <time>2022-02-24T23:56:07.340Z</time>
      </trkpt>
      <trkpt lat="38.3605" lon="38.56515">
        <ele>837.483543</ele>
        <time>2022-02-24T23:57:40.693Z</time>
      </trkpt>
      <trkpt lat="38.3603" lon="38.56479">
        <ele>838.539632</ele>
        <time>2022-02-24T23:57:54.676Z</time>
      </trkpt>
      <trkpt lat="38.35975" lon="38.56369">
        <ele>842.211123</ele>
        <time>2022-02-24T23:58:39.638Z</time>
      </trkpt>
      <trkpt lat="38.35933" lon="38.56261">
        <ele>846.180218</ele>
        <time>2022-02-24T23:59:25.499Z</time>
      </trkpt>
      <trkpt lat="38.35787" lon="38.55719">
        <ele>868.542906</ele>
        <time>2022-02-25T00:03:13.805Z</time>
      </trkpt>
      <trkpt lat="38.35771" lon="38.55682">
        <ele>870.218846</ele>
        <time>2022-02-25T00:03:30.946Z</time>
      </trkpt>
      <trkpt lat="38.35746" lon="38.55622">
        <ele>872.877252</ele>
        <time>2022-02-25T00:03:58.009Z</time>
      </trkpt>
      <trkpt lat="38.35696" lon="38.55536">
        <ele>877.130619</ele>
        <time>2022-02-25T00:04:41.539Z</time>
      </trkpt>
      <trkpt lat="38.35648" lon="38.55477">
        <ele>880.468887</ele>
        <time>2022-02-25T00:05:14.036Z</time>
      </trkpt>
      <trkpt lat="38.3545" lon="38.55309">
        <ele>892.469521</ele>
        <time>2022-02-25T00:07:15.129Z</time>
      </trkpt>
      <trkpt lat="38.35338" lon="38.55206">
        <ele>899.660821</ele>
        <time>2022-02-25T00:08:27.236Z</time>
      </trkpt>
      <trkpt lat="38.35244" lon="38.55104">
        <ele>906.149359</ele>
        <time>2022-02-25T00:09:31.774Z</time>
      </trkpt>
      <trkpt lat="38.35164" lon="38.55005">
        <ele>911.726506</ele>
        <time>2022-02-25T00:10:28.337Z</time>
      </trkpt>
      <trkpt lat="38.35082" lon="38.54893">
        <ele>917.592102</ele>
        <time>2022-02-25T00:11:27.618Z</time>
      </trkpt>
      <trkpt lat="38.35003" lon="38.54771">
        <ele>923.877957</ele>
        <time>2022-02-25T00:12:30.449Z</time>
      </trkpt>
      <trkpt lat="38.34912" lon="38.54593">
        <ele>932.924154</ele>
        <time>2022-02-25T00:13:58.800Z</time>
      </trkpt>
      <trkpt lat="38.34595" lon="38.53818">
        <ele>972.245272</ele>
        <time>2022-02-25T00:20:11.010Z</time>
      </trkpt>
      <trkpt lat="38.34498" lon="38.53615">
        <ele>982.982573</ele>
        <time>2022-02-25T00:21:53.067Z</time>
      </trkpt>
      <trkpt lat="38.34433" lon="38.53506">
        <ele>989.178806</ele>
        <time>2022-02-25T00:22:50.581Z</time>
      </trkpt>
      <trkpt lat="38.34361" lon="38.534">
        <ele>995.556958</ele>
        <time>2022-02-25T00:23:49.586Z</time>
      </trkpt>
      <trkpt lat="38.33618" lon="38.52362">
        <ele>1065.734224</ele>
        <time>2022-02-25T00:34:19.944Z</time>
      </trkpt>
      <trkpt lat="38.33518" lon="38.52234">
        <ele>1076.919538</ele>
        <time>2022-02-25T00:35:53.567Z</time>
      </trkpt>
      <trkpt lat="38.33435" lon="38.52142">
        <ele>1085.150417</ele>
        <time>2022-02-25T00:37:07.721Z</time>
      </trkpt>
      <trkpt lat="38.33249" lon="38.5197">
        <ele>1097.687171</ele>
        <time>2022-02-25T00:39:16.351Z</time>
      </trkpt>
      <trkpt lat="38.33198" lon="38.5191">
        <ele>1100.3038</ele>
        <time>2022-02-25T00:39:39.592Z</time>
      </trkpt>
      <trkpt lat="38.3315" lon="38.51839">
        <ele>1098.857676</ele>
        <time>2022-02-25T00:39:56.475Z</time>
      </trkpt>
      <trkpt lat="38.33117" lon="38.51772">
        <ele>1097.346099</ele>
        <time>2022-02-25T00:40:08.616Z</time>
      </trkpt>
      <trkpt lat="38.33092" lon="38.51691">
        <ele>1095.214119</ele>
        <time>2022-02-25T00:40:21.458Z</time>
      </trkpt>
      <trkpt lat="38.33075" lon="38.51612">
        <ele>1092.106647</ele>
        <time>2022-02-25T00:40:33.252Z</time>
      </trkpt>
      <trkpt lat="38.33068" lon="38.51526">
        <ele>1088.820724</ele>
        <time>2022-02-25T00:40:45.400Z</time>
      </trkpt>
      <trkpt lat="38.33072" lon="38.51442">
        <ele>1085.351537</ele>
        <time>2022-02-25T00:40:57.306Z</time>
      </trkpt>
      <trkpt lat="38.33076" lon="38.51419">
        <ele>1084.368484</ele>
        <time>2022-02-25T00:41:00.465Z</time>
      </trkpt>
      <trkpt lat="38.33086" lon="38.51359">
        <ele>1081.727855</ele>
        <time>2022-02-25T00:41:09.082Z</time>
      </trkpt>
      <trkpt lat="38.33199" lon="38.50797">
        <ele>1056.528397</ele>
        <time>2022-02-25T00:42:30.517Z</time>
      </trkpt>
      <trkpt lat="38.33205" lon="38.50756">
        <ele>1054.357511</ele>
        <time>2022-02-25T00:42:36.216Z</time>
      </trkpt>
      <trkpt lat="38.33228" lon="38.50601">
        <ele>1046.080338</ele>
        <time>2022-02-25T00:42:57.542Z</time>
      </trkpt>
      <trkpt lat="38.3324" lon="38.50446">
        <ele>1036.678765</ele>
        <time>2022-02-25T00:43:18.116Z</time>
      </trkpt>
      <trkpt lat="38.33246" lon="38.50252">
        <ele>1025.282077</ele>
        <time>2022-02-25T00:43:43.791Z</time>
      </trkpt>
      <trkpt lat="38.33241" lon="38.49932">
        <ele>1008.818986</ele>
        <time>2022-02-25T00:44:27.354Z</time>
      </trkpt>
      <trkpt lat="38.33233" lon="38.49593">
        <ele>998.023041</ele>
        <time>2022-02-25T00:45:17.796Z</time>
      </trkpt>
      <trkpt lat="38.33232" lon="38.49505">
        <ele>995.607225</ele>
        <time>2022-02-25T00:45:31.159Z</time>
      </trkpt>
      <trkpt lat="38.33228" lon="38.49346">
        <ele>991.421969</ele>
        <time>2022-02-25T00:45:55.530Z</time>
      </trkpt>
      <trkpt lat="38.33219" lon="38.48784">
        <ele>977.08878</ele>
        <time>2022-02-25T00:47:21.440Z</time>
      </trkpt>
      <trkpt lat="38.33226" lon="38.48637">
        <ele>973.5902</ele>
        <time>2022-02-25T00:47:43.997Z</time>
      </trkpt>
      <trkpt lat="38.33226" lon="38.4861">
        <ele>972.964686</ele>
        <time>2022-02-25T00:47:48.045Z</time>
      </trkpt>
      <trkpt lat="38.33209" lon="38.4783">
        <ele>958.098424</ele>
        <time>2022-02-25T00:49:53.350Z</time>
      </trkpt>
      <trkpt lat="38.33215" lon="38.47183">
        <ele>950.619954</ele>
        <time>2022-02-25T00:51:46.706Z</time>
      </trkpt>
      <trkpt lat="38.33233" lon="38.47191">
        <ele>950.318267</ele>
        <time>2022-02-25T00:51:50.841Z</time>
      </trkpt>
      <trkpt lat="38.33308" lon="38.47221">
        <ele>948.662758</ele>
        <time>2022-02-25T00:52:07.887Z</time>
      </trkpt>
      <trkpt lat="38.33367" lon="38.4723">
        <ele>947.405566</ele>
        <time>2022-02-25T00:52:20.675Z</time>
      </trkpt>
      <trkpt lat="38.3339" lon="38.4724">
        <ele>946.877464</ele>
        <time>2022-02-25T00:52:26.114Z</time>
      </trkpt>
      <trkpt lat="38.33412" lon="38.47257">
        <ele>946.352043</ele>
        <time>2022-02-25T00:52:31.968Z</time>
      </trkpt>
      <trkpt lat="38.33421" lon="38.47254">
        <ele>946.19552</ele>
        <time>2022-02-25T00:52:33.909Z</time>
      </trkpt>
      <trkpt lat="38.33431" lon="38.47232">
        <ele>945.837834</ele>
        <time>2022-02-25T00:52:38.370Z</time>
      </trkpt>
      <trkpt lat="38.33434" lon="38.47196">
        <ele>945.318281</ele>
        <time>2022-02-25T00:52:44.829Z</time>
      </trkpt>
      <trkpt lat="38.33455" lon="38.47147">
        <ele>944.537201</ele>
        <time>2022-02-25T00:52:54.572Z</time>
      </trkpt>
      <trkpt lat="38.33473" lon="38.47081">
        <ele>943.548185</ele>
        <time>2022-02-25T00:53:06.991Z</time>
      </trkpt>
      <trkpt lat="38.33467" lon="38.47044">
        <ele>943.143577</ele>
        <time>2022-02-25T00:53:13.781Z</time>
      </trkpt>
      <trkpt lat="38.33488" lon="38.47002">
        <ele>942.796601</ele>
        <time>2022-02-25T00:53:22.774Z</time>
      </trkpt>
      <trkpt lat="38.3352" lon="38.46955">
        <ele>942.358931</ele>
        <time>2022-02-25T00:53:34.541Z</time>
      </trkpt>
      <trkpt lat="38.33573" lon="38.46924">
        <ele>941.840385</ele>
        <time>2022-02-25T00:53:49.475Z</time>
      </trkpt>
      <trkpt lat="38.33616" lon="38.46934">
        <ele>941.900964</ele>
        <time>2022-02-25T00:54:01.750Z</time>
      </trkpt>
      <trkpt lat="38.33625" lon="38.46929">
        <ele>941.991636</ele>
        <time>2022-02-25T00:54:04.655Z</time>
      </trkpt>
      <trkpt lat="38.3365" lon="38.46891">
        <ele>942.347364</ele>
        <time>2022-02-25T00:54:16.534Z</time>
      </trkpt>
      <trkpt lat="38.33675" lon="38.46875">
        <ele>942.604039</ele>
        <time>2022-02-25T00:54:25.560Z</time>
      </trkpt>
      <trkpt lat="38.33772" lon="38.4685">
        <ele>943.664591</ele>
        <time>2022-02-25T00:55:00.448Z</time>
      </trkpt>
      <trkpt lat="38.33783" lon="38.46849">
        <ele>943.844346</ele>
        <time>2022-02-25T00:55:04.476Z</time>
      </trkpt>
      <trkpt lat="38.33799" lon="38.46847">
        <ele>944.10104</ele>
        <time>2022-02-25T00:55:10.187Z</time>
      </trkpt>
      <trkpt lat="38.33903" lon="38.46869">
        <ele>945.828144</ele>
        <time>2022-02-25T00:55:48.389Z</time>
      </trkpt>
      <trkpt lat="38.34034" lon="38.46923">
        <ele>947.485988</ele>
        <time>2022-02-25T00:56:36.010Z</time>
      </trkpt>
      <trkpt lat="38.34207" lon="38.47023">
        <ele>948.073038</ele>
        <time>2022-02-25T00:57:33.798Z</time>
      </trkpt>
      <trkpt lat="38.34252" lon="38.47062">
        <ele>947.99248</ele>
        <time>2022-02-25T00:57:47.052Z</time>
      </trkpt>
      <trkpt lat="38.34243" lon="38.47035">
        <ele>947.455179</ele>
        <time>2022-02-25T00:57:51.897Z</time>
      </trkpt>
      <trkpt lat="38.34234" lon="38.46991">
        <ele>946.460318</ele>
        <time>2022-02-25T00:57:59.307Z</time>
      </trkpt>
      <trkpt lat="38.34215" lon="38.46779">
        <ele>941.48222</ele>
        <time>2022-02-25T00:58:31.614Z</time>
      </trkpt>
      <trkpt lat="38.34217" lon="38.46735">
        <ele>940.294725</ele>
        <time>2022-02-25T00:58:38.276Z</time>
      </trkpt>
      <trkpt lat="38.34218" lon="38.46717">
        <ele>939.795517</ele>
        <time>2022-02-25T00:58:41.015Z</time>
      </trkpt>
      <trkpt lat="38.34233" lon="38.46567">
        <ele>935.880993</ele>
        <time>2022-02-25T00:59:03.981Z</time>
      </trkpt>
      <trkpt lat="38.34226" lon="38.46451">
        <ele>933.231117</ele>
        <time>2022-02-25T00:59:22.142Z</time>
      </trkpt>
      <trkpt lat="38.3421" lon="38.46286">
        <ele>929.650303</ele>
        <time>2022-02-25T00:59:48.577Z</time>
      </trkpt>
      <trkpt lat="38.34205" lon="38.4626">
        <ele>929.099967</ele>
        <time>2022-02-25T00:59:52.860Z</time>
      </trkpt>
      <trkpt lat="38.34192" lon="38.46241">
        <ele>928.602237</ele>
        <time>2022-02-25T00:59:56.727Z</time>
      </trkpt>
      <trkpt lat="38.34128" lon="38.46199">
        <ele>926.717116</ele>
        <time>2022-02-25T01:00:11.350Z</time>
      </trkpt>
      <trkpt lat="38.3407" lon="38.46132">
        <ele>924.724618</ele>
        <time>2022-02-25T01:00:27.123Z</time>
      </trkpt>
      <trkpt lat="38.34023" lon="38.46063">
        <ele>922.907002</ele>
        <time>2022-02-25T01:00:41.596Z</time>
      </trkpt>
      <trkpt lat="38.3397" lon="38.4597">
        <ele>921.041255</ele>
        <time>2022-02-25T01:01:00.218Z</time>
      </trkpt>
      <trkpt lat="38.33919" lon="38.45854">
        <ele>919.079535</ele>
        <time>2022-02-25T01:01:22.897Z</time>
      </trkpt>
      <trkpt lat="38.33829" lon="38.45718">
        <ele>917.334428</ele>
        <time>2022-02-25T01:01:54.608Z</time>
      </trkpt>
      <trkpt lat="38.33772" lon="38.45677">
        <ele>916.540344</ele>
        <time>2022-02-25T01:02:09.452Z</time>
      </trkpt>
      <trkpt lat="38.33723" lon="38.45625">
        <ele>915.704743</ele>
        <time>2022-02-25T01:02:23.698Z</time>
      </trkpt>
      <trkpt lat="38.33676" lon="38.45563">
        <ele>914.814503</ele>
        <time>2022-02-25T01:02:38.669Z</time>
      </trkpt>
      <trkpt lat="38.33577" lon="38.45367">
        <ele>913.31867</ele>
        <time>2022-02-25T01:03:19.750Z</time>
      </trkpt>
      <trkpt lat="38.33548" lon="38.45266">
        <ele>914.201186</ele>
        <time>2022-02-25T01:03:47.523Z</time>
      </trkpt>
      <trkpt lat="38.33541" lon="38.45238">
        <ele>914.705136</ele>
        <time>2022-02-25T01:03:55.485Z</time>
      </trkpt>
      <trkpt lat="38.33529" lon="38.45226">
        <ele>915.028093</ele>
        <time>2022-02-25T01:04:01.968Z</time>
      </trkpt>
      <trkpt lat="38.33512" lon="38.45217">
        <ele>915.430921</ele>
        <time>2022-02-25T01:04:09.800Z</time>
      </trkpt>
      <trkpt lat="38.33482" lon="38.4522">
        <ele>916.083544</ele>
        <time>2022-02-25T01:04:22.855Z</time>
      </trkpt>
      <trkpt lat="38.33444" lon="38.45232">
        <ele>916.913555</ele>
        <time>2022-02-25T01:04:37.899Z</time>
      </trkpt>
      <trkpt lat="38.33417" lon="38.45254">
        <ele>917.056944</ele>
        <time>2022-02-25T01:04:50.797Z</time>
      </trkpt>
      <trkpt lat="38.33401" lon="38.45278">
        <ele>917.14098</ele>
        <time>2022-02-25T01:04:59.714Z</time>
      </trkpt>
      <trkpt lat="38.3339" lon="38.45284">
        <ele>917.181355</ele>
        <time>2022-02-25T01:05:04.277Z</time>
      </trkpt>
      <trkpt lat="38.33399" lon="38.45251">
        <ele>917.274525</ele>
        <time>2022-02-25T01:05:11.609Z</time>
      </trkpt>
      <trkpt lat="38.33415" lon="38.45222">
        <ele>917.368712</ele>
        <time>2022-02-25T01:05:18.506Z</time>
      </trkpt>
      <trkpt lat="38.3345" lon="38.4519">
        <ele>917.516079</ele>
        <time>2022-02-25T01:05:28.726Z</time>
      </trkpt>
      <trkpt lat="38.33506" lon="38.4518">
        <ele>916.25092</ele>
        <time>2022-02-25T01:05:40.665Z</time>
      </trkpt>
      <trkpt lat="38.33574" lon="38.45117">
        <ele>913.631839</ele>
        <time>2022-02-25T01:05:56.459Z</time>
      </trkpt>
      <trkpt lat="38.33605" lon="38.45108">
        <ele>912.644668</ele>
        <time>2022-02-25T01:06:02.585Z</time>
      </trkpt>
      <trkpt lat="38.33631" lon="38.45112">
        <ele>911.852947</ele>
        <time>2022-02-25T01:06:07.955Z</time>
      </trkpt>
      <trkpt lat="38.33637" lon="38.45111">
        <ele>911.73264</ele>
        <time>2022-02-25T01:06:08.922Z</time>
      </trkpt>
      <trkpt lat="38.33647" lon="38.45114">
        <ele>911.507983</ele>
        <time>2022-02-25T01:06:10.868Z</time>
      </trkpt>
      <trkpt lat="38.33693" lon="38.45115">
        <ele>910.478103</ele>
        <time>2022-02-25T01:06:20.150Z</time>
      </trkpt>
      <trkpt lat="38.33724" lon="38.45101">
        <ele>909.7324</ele>
        <time>2022-02-25T01:06:26.886Z</time>
      </trkpt>
      <trkpt lat="38.33752" lon="38.45076">
        <ele>908.970425</ele>
        <time>2022-02-25T01:06:33.877Z</time>
      </trkpt>
      <trkpt lat="38.33772" lon="38.45045">
        <ele>908.276924</ele>
        <time>2022-02-25T01:06:40.307Z</time>
      </trkpt>
      <trkpt lat="38.33854" lon="38.44907">
        <ele>909.139485</ele>
        <time>2022-02-25T01:07:18.387Z</time>
      </trkpt>
      <trkpt lat="38.33846" lon="38.44897">
        <ele>909.245534</ele>
        <time>2022-02-25T01:07:22.250Z</time>
      </trkpt>
      <trkpt lat="38.33786" lon="38.44852">
        <ele>910.625386</ele>
        <time>2022-02-25T01:07:51.461Z</time>
      </trkpt>
      <trkpt lat="38.33721" lon="38.44803">
        <ele>913.700153</ele>
        <time>2022-02-25T01:08:27.557Z</time>
      </trkpt>
      <trkpt lat="38.33687" lon="38.44777">
        <ele>915.316574</ele>
        <time>2022-02-25T01:08:48.913Z</time>
      </trkpt>
      <trkpt lat="38.33577" lon="38.44695">
        <ele>919.509831</ele>
        <time>2022-02-25T01:09:49.610Z</time>
      </trkpt>
      <trkpt lat="38.33576" lon="38.44685">
        <ele>919.735555</ele>
        <time>2022-02-25T01:09:53.854Z</time>
      </trkpt>
      <trkpt lat="38.33577" lon="38.44677">
        <ele>919.924982</ele>
        <time>2022-02-25T01:09:56.274Z</time>
      </trkpt>
      <trkpt lat="38.3363" lon="38.44503">
        <ele>922.372618</ele>
        <time>2022-02-25T01:10:46.468Z</time>
      </trkpt>
      <trkpt lat="38.33665" lon="38.44402">
        <ele>922.50958</ele>
        <time>2022-02-25T01:11:08.658Z</time>
      </trkpt>
      <trkpt lat="38.33685" lon="38.44345">
        <ele>922.477509</ele>
        <time>2022-02-25T01:11:20.481Z</time>
      </trkpt>
      <trkpt lat="38.33693" lon="38.44332">
        <ele>922.430952</ele>
        <time>2022-02-25T01:11:23.637Z</time>
      </trkpt>
      <trkpt lat="38.33765" lon="38.44051">
        <ele>922.049877</ele>
        <time>2022-02-25T01:12:22.959Z</time>
      </trkpt>
      <trkpt lat="38.33788" lon="38.4396">
        <ele>922.158617</ele>
        <time>2022-02-25T01:12:44.592Z</time>
      </trkpt>
      <trkpt lat="38.33885" lon="38.43594">
        <ele>923.323189</ele>
        <time>2022-02-25T01:14:12.756Z</time>
      </trkpt>
      <trkpt lat="38.3392" lon="38.43459">
        <ele>923.310267</ele>
        <time>2022-02-25T01:14:41.912Z</time>
      </trkpt>
      <trkpt lat="38.33956" lon="38.43339">
        <ele>922.793902</ele>
        <time>2022-02-25T01:15:07.068Z</time>
      </trkpt>
      <trkpt lat="38.3398" lon="38.43231">
        <ele>922.063729</ele>
        <time>2022-02-25T01:15:27.568Z</time>
      </trkpt>
      <trkpt lat="38.3398" lon="38.43204">
        <ele>921.820866</ele>
        <time>2022-02-25T01:15:32.664Z</time>
      </trkpt>
      <trkpt lat="38.33991" lon="38.4321">
        <ele>921.690136</ele>
        <time>2022-02-25T01:15:35.294Z</time>
      </trkpt>
      <trkpt lat="38.34021" lon="38.43085">
        <ele>920.527777</ele>
        <time>2022-02-25T01:15:59.595Z</time>
      </trkpt>
      <trkpt lat="38.34036" lon="38.43012">
        <ele>919.730851</ele>
        <time>2022-02-25T01:16:13.272Z</time>
      </trkpt>
      <trkpt lat="38.34055" lon="38.42925">
        <ele>918.783041</ele>
        <time>2022-02-25T01:16:29.860Z</time>
      </trkpt>
      <trkpt lat="38.34066" lon="38.42874">
        <ele>918.227155</ele>
        <time>2022-02-25T01:16:39.714Z</time>
      </trkpt>
      <trkpt lat="38.34112" lon="38.42666">
        <ele>915.656676</ele>
        <time>2022-02-25T01:17:18.719Z</time>
      </trkpt>
      <trkpt lat="38.34122" lon="38.42589">
        <ele>914.952</ele>
        <time>2022-02-25T01:17:32.535Z</time>
      </trkpt>
      <trkpt lat="38.34133" lon="38.42533">
        <ele>914.496184</ele>
        <time>2022-02-25T01:17:42.843Z</time>
      </trkpt>
      <trkpt lat="38.34179" lon="38.42364">
        <ele>913.947879</ele>
        <time>2022-02-25T01:18:19.327Z</time>
      </trkpt>
      <trkpt lat="38.34175" lon="38.42316">
        <ele>914.226296</ele>
        <time>2022-02-25T01:18:31.598Z</time>
      </trkpt>
      <trkpt lat="38.34188" lon="38.42262">
        <ele>914.559126</ele>
        <time>2022-02-25T01:18:46.392Z</time>
      </trkpt>
      <trkpt lat="38.34197" lon="38.42228">
        <ele>914.765939</ele>
        <time>2022-02-25T01:18:55.890Z</time>
      </trkpt>
      <trkpt lat="38.34241" lon="38.42057">
        <ele>916.203761</ele>
        <time>2022-02-25T01:19:42.018Z</time>
      </trkpt>
      <trkpt lat="38.34265" lon="38.42028">
        <ele>916.549312</ele>
        <time>2022-02-25T01:19:52.065Z</time>
      </trkpt>
      <trkpt lat="38.3429" lon="38.42008">
        <ele>916.886644</ele>
        <time>2022-02-25T01:20:01.150Z</time>
      </trkpt>
      <trkpt lat="38.34314" lon="38.4196">
        <ele>917.588933</ele>
        <time>2022-02-25T01:20:14.906Z</time>
      </trkpt>
      <trkpt lat="38.34386" lon="38.41737">
        <ele>921.746405</ele>
        <time>2022-02-25T01:21:24.685Z</time>
      </trkpt>
      <trkpt lat="38.34389" lon="38.41728">
        <ele>922.038776</ele>
        <time>2022-02-25T01:21:28.490Z</time>
      </trkpt>
      <trkpt lat="38.34443" lon="38.41558">
        <ele>927.990415</ele>
        <time>2022-02-25T01:22:38.097Z</time>
      </trkpt>
      <trkpt lat="38.34484" lon="38.41431">
        <ele>934.732768</ele>
        <time>2022-02-25T01:23:42.135Z</time>
      </trkpt>
      <trkpt lat="38.34507" lon="38.41362">
        <ele>938.683763</ele>
        <time>2022-02-25T01:24:17.621Z</time>
      </trkpt>
      <trkpt lat="38.34499" lon="38.41352">
        <ele>939.565815</ele>
        <time>2022-02-25T01:24:26.252Z</time>
      </trkpt>
      <trkpt lat="38.34465" lon="38.41312">
        <ele>943.154427</ele>
        <time>2022-02-25T01:24:56.686Z</time>
      </trkpt>
      <trkpt lat="38.34452" lon="38.41284">
        <ele>945.041592</ele>
        <time>2022-02-25T01:25:13.490Z</time>
      </trkpt>
      <trkpt lat="38.34453" lon="38.41261">
        <ele>946.466996</ele>
        <time>2022-02-25T01:25:25.103Z</time>
      </trkpt>
      <trkpt lat="38.34488" lon="38.41141">
        <ele>953.7995</ele>
        <time>2022-02-25T01:26:31.266Z</time>
      </trkpt>
      <trkpt lat="38.34521" lon="38.40986">
        <ele>962.078549</ele>
        <time>2022-02-25T01:27:46.323Z</time>
      </trkpt>
      <trkpt lat="38.34522" lon="38.4097">
        <ele>962.910707</ele>
        <time>2022-02-25T01:27:52.502Z</time>
      </trkpt>
      <trkpt lat="38.3452" lon="38.40957">
        <ele>963.382892</ele>
        <time>2022-02-25T01:27:58.992Z</time>
      </trkpt>
      <trkpt lat="38.34538" lon="38.40889">
        <ele>965.357354</ele>
        <time>2022-02-25T01:28:25.116Z</time>
      </trkpt>
      <trkpt lat="38.34589" lon="38.40702">
        <ele>969.84566</ele>
        <time>2022-02-25T01:29:28.107Z</time>
      </trkpt>
      <trkpt lat="38.3464" lon="38.40477">
        <ele>971.099124</ele>
        <time>2022-02-25T01:30:19.770Z</time>
      </trkpt>
      <trkpt lat="38.34652" lon="38.40421">
        <ele>971.055975</ele>
        <time>2022-02-25T01:30:30.835Z</time>
      </trkpt>
      <trkpt lat="38.34666" lon="38.40337">
        <ele>970.992152</ele>
        <time>2022-02-25T01:30:47.916Z</time>
      </trkpt>
      <trkpt lat="38.34682" lon="38.40238">
        <ele>971.551664</ele>
        <time>2022-02-25T01:31:09.353Z</time>
      </trkpt>
      <trkpt lat="38.34692" lon="38.40173">
        <ele>972.099507</ele>
        <time>2022-02-25T01:31:25.066Z</time>
      </trkpt>
      <trkpt lat="38.34694" lon="38.40155">
        <ele>972.252227</ele>
        <time>2022-02-25T01:31:29.629Z</time>
      </trkpt>
      <trkpt lat="38.34719" lon="38.39961">
        <ele>975.532905</ele>
        <time>2022-02-25T01:32:27.365Z</time>
      </trkpt>
      <trkpt lat="38.34745" lon="38.39755">
        <ele>980.882453</ele>
        <time>2022-02-25T01:33:38.092Z</time>
      </trkpt>
      <trkpt lat="38.34764" lon="38.39609">
        <ele>985.332674</ele>
        <time>2022-02-25T01:34:31.077Z</time>
      </trkpt>
      <trkpt lat="38.34795" lon="38.39382">
        <ele>993.343322</ele>
        <time>2022-02-25T01:35:57.856Z</time>
      </trkpt>
      <trkpt lat="38.34817" lon="38.39301">
        <ele>996.596757</ele>
        <time>2022-02-25T01:36:31.846Z</time>
      </trkpt>
      <trkpt lat="38.34916" lon="38.38997">
        <ele>1009.021743</ele>
        <time>2022-02-25T01:38:42.240Z</time>
      </trkpt>
      <trkpt lat="38.34946" lon="38.38865">
        <ele>1012.963869</ele>
        <time>2022-02-25T01:39:31.519Z</time>
      </trkpt>
      <trkpt lat="38.34953" lon="38.38806">
        <ele>1014.56893</ele>
        <time>2022-02-25T01:39:50.402Z</time>
      </trkpt>
      <trkpt lat="38.34953" lon="38.388">
        <ele>1014.734022</ele>
        <time>2022-02-25T01:39:53.665Z</time>
      </trkpt>
      <trkpt lat="38.34954" lon="38.38789">
        <ele>1015.028981</ele>
        <time>2022-02-25T01:39:56.932Z</time>
      </trkpt>
      <trkpt lat="38.34975" lon="38.38803">
        <ele>1015.850026</ele>
        <time>2022-02-25T01:40:05.324Z</time>
      </trkpt>
      <trkpt lat="38.34973" lon="38.38801">
        <ele>1015.952232</ele>
        <time>2022-02-25T01:40:07.627Z</time>
      </trkpt>
      <trkpt lat="38.34971" lon="38.38635">
        <ele>1018.499859</ele>
        <time>2022-02-25T01:40:54.019Z</time>
      </trkpt>
      <trkpt lat="38.34958" lon="38.38588">
        <ele>1019.241769</ele>
        <time>2022-02-25T01:41:07.017Z</time>
      </trkpt>
      <trkpt lat="38.34938" lon="38.38501">
        <ele>1020.802035</ele>
        <time>2022-02-25T01:41:31.505Z</time>
      </trkpt>
      <trkpt lat="38.34929" lon="38.38453">
        <ele>1021.662059</ele>
        <time>2022-02-25T01:41:45.230Z</time>
      </trkpt>
      <trkpt lat="38.34896" lon="38.38208">
        <ele>1026.695698</ele>
        <time>2022-02-25T01:43:04.553Z</time>
      </trkpt>
      <trkpt lat="38.34889" lon="38.37979">
        <ele>1030.723379</ele>
        <time>2022-02-25T01:44:15.674Z</time>
      </trkpt>
      <trkpt lat="38.3489" lon="38.3792">
        <ele>1031.583096</ele>
        <time>2022-02-25T01:44:30.468Z</time>
      </trkpt>
      <trkpt lat="38.34891" lon="38.37867">
        <ele>1031.897391</ele>
        <time>2022-02-25T01:44:42.803Z</time>
      </trkpt>
      <trkpt lat="38.34892" lon="38.37771">
        <ele>1031.378835</ele>
        <time>2022-02-25T01:45:01.433Z</time>
      </trkpt>
      <trkpt lat="38.34903" lon="38.37591">
        <ele>1030.326032</ele>
        <time>2022-02-25T01:45:32.952Z</time>
      </trkpt>
      <trkpt lat="38.34904" lon="38.37568">
        <ele>1030.179337</ele>
        <time>2022-02-25T01:45:36.721Z</time>
      </trkpt>
      <trkpt lat="38.34896" lon="38.37472">
        <ele>1029.555745</ele>
        <time>2022-02-25T01:45:55.283Z</time>
      </trkpt>
      <trkpt lat="38.34896" lon="38.37459">
        <ele>1029.477027</ele>
        <time>2022-02-25T01:45:58.312Z</time>
      </trkpt>
      <trkpt lat="38.34894" lon="38.3743">
        <ele>1029.308128</ele>
        <time>2022-02-25T01:46:03.761Z</time>
      </trkpt>
      <trkpt lat="38.34893" lon="38.37419">
        <ele>1029.309875</ele>
        <time>2022-02-25T01:46:06.596Z</time>
      </trkpt>
      <trkpt lat="38.34892" lon="38.37402">
        <ele>1029.312558</ele>
        <time>2022-02-25T01:46:10.434Z</time>
      </trkpt>
      <trkpt lat="38.34891" lon="38.3737">
        <ele>1029.31751</ele>
        <time>2022-02-25T01:46:17.257Z</time>
      </trkpt>
      <trkpt lat="38.34892" lon="38.37134">
        <ele>1029.180638</ele>
        <time>2022-02-25T01:47:06.970Z</time>
      </trkpt>
      <trkpt lat="38.34893" lon="38.3703">
        <ele>1028.940776</ele>
        <time>2022-02-25T01:47:26.221Z</time>
      </trkpt>
      <trkpt lat="38.34895" lon="38.36644">
        <ele>1029.054729</ele>
        <time>2022-02-25T01:48:46.254Z</time>
      </trkpt>
      <trkpt lat="38.34902" lon="38.36535">
        <ele>1029.488065</ele>
        <time>2022-02-25T01:49:12.952Z</time>
      </trkpt>
      <trkpt lat="38.34903" lon="38.36513">
        <ele>1029.579989</ele>
        <time>2022-02-25T01:49:18.586Z</time>
      </trkpt>
      <trkpt lat="38.34905" lon="38.36508">
        <ele>1029.607207</ele>
        <time>2022-02-25T01:49:20.025Z</time>
      </trkpt>
      <trkpt lat="38.34904" lon="38.36492">
        <ele>1029.68844</ele>
        <time>2022-02-25T01:49:23.672Z</time>
      </trkpt>
      <trkpt lat="38.34902" lon="38.36488">
        <ele>1029.715501</ele>
        <time>2022-02-25T01:49:25.008Z</time>
      </trkpt>
      <trkpt lat="38.34901" lon="38.36461">
        <ele>1029.853675</ele>
        <time>2022-02-25T01:49:31.866Z</time>
      </trkpt>
      <trkpt lat="38.34901" lon="38.36359">
        <ele>1030.381325</ele>
        <time>2022-02-25T01:49:57.031Z</time>
      </trkpt>
      <trkpt lat="38.34926" lon="38.35968">
        <ele>1029.153364</ele>
        <time>2022-02-25T01:51:18.549Z</time>
      </trkpt>
      <trkpt lat="38.34932" lon="38.35852">
        <ele>1027.20567</ele>
        <time>2022-02-25T01:51:36.558Z</time>
      </trkpt>
      <trkpt lat="38.34951" lon="38.35851">
        <ele>1026.74025</ele>
        <time>2022-02-25T01:51:39.979Z</time>
      </trkpt>
      <trkpt lat="38.34953" lon="38.35822">
        <ele>1025.439809</ele>
        <time>2022-02-25T01:51:44.215Z</time>
      </trkpt>
      <trkpt lat="38.34966" lon="38.3573">
        <ele>1021.300842</ele>
        <time>2022-02-25T01:51:57.351Z</time>
      </trkpt>
      <trkpt lat="38.34972" lon="38.35664">
        <ele>1018.376632</ele>
        <time>2022-02-25T01:52:06.239Z</time>
      </trkpt>
      <trkpt lat="38.34976" lon="38.35612">
        <ele>1016.026401</ele>
        <time>2022-02-25T01:52:13.444Z</time>
      </trkpt>
      <trkpt lat="38.34992" lon="38.35551">
        <ele>1013.022161</ele>
        <time>2022-02-25T01:52:22.358Z</time>
      </trkpt>
      <trkpt lat="38.34998" lon="38.35536">
        <ele>1012.204236</ele>
        <time>2022-02-25T01:52:24.674Z</time>
      </trkpt>
      <trkpt lat="38.35017" lon="38.3551">
        <ele>1010.547452</ele>
        <time>2022-02-25T01:52:29.579Z</time>
      </trkpt>
      <trkpt lat="38.35026" lon="38.35495">
        <ele>1009.675767</ele>
        <time>2022-02-25T01:52:32.074Z</time>
      </trkpt>
      <trkpt lat="38.3503" lon="38.35487">
        <ele>1009.203658</ele>
        <time>2022-02-25T01:52:33.450Z</time>
      </trkpt>
      <trkpt lat="38.35034" lon="38.35475">
        <ele>1008.602985</ele>
        <time>2022-02-25T01:52:35.298Z</time>
      </trkpt>
      <trkpt lat="38.3504" lon="38.35454">
        <ele>1007.572172</ele>
        <time>2022-02-25T01:52:38.293Z</time>
      </trkpt>
      <trkpt lat="38.35047" lon="38.35424">
        <ele>1006.098294</ele>
        <time>2022-02-25T01:52:42.732Z</time>
      </trkpt>
      <trkpt lat="38.3505" lon="38.35406">
        <ele>1005.389218</ele>
        <time>2022-02-25T01:52:45.240Z</time>
      </trkpt>
      <trkpt lat="38.35052" lon="38.35396">
        <ele>1004.993959</ele>
        <time>2022-02-25T01:52:46.792Z</time>
      </trkpt>
      <trkpt lat="38.35059" lon="38.35338">
        <ele>1002.860556</ele>
        <time>2022-02-25T01:52:55.094Z</time>
      </trkpt>
      <trkpt lat="38.35061" lon="38.35324">
        <ele>1002.307812</ele>
        <time>2022-02-25T01:52:57.308Z</time>
      </trkpt>
      <trkpt lat="38.35064" lon="38.35313">
        <ele>1001.909694</ele>
        <time>2022-02-25T01:52:58.795Z</time>
      </trkpt>
      <trkpt lat="38.35079" lon="38.35279">
        <ele>1000.476369</ele>
        <time>2022-02-25T01:53:04.598Z</time>
      </trkpt>
      <trkpt lat="38.35088" lon="38.35255">
        <ele>999.472567</ele>
        <time>2022-02-25T01:53:08.562Z</time>
      </trkpt>
      <trkpt lat="38.35096" lon="38.35233">
        <ele>998.611007</ele>
        <time>2022-02-25T01:53:11.938Z</time>
      </trkpt>
      <trkpt lat="38.35122" lon="38.35145">
        <ele>995.703525</ele>
        <time>2022-02-25T01:53:25.771Z</time>
      </trkpt>
      <trkpt lat="38.35127" lon="38.35129">
        <ele>995.210013</ele>
        <time>2022-02-25T01:53:28.382Z</time>
      </trkpt>
      <trkpt lat="38.35128" lon="38.35119">
        <ele>994.914443</ele>
        <time>2022-02-25T01:53:29.913Z</time>
      </trkpt>
      <trkpt lat="38.35129" lon="38.35112">
        <ele>994.704415</ele>
        <time>2022-02-25T01:53:31.038Z</time>
      </trkpt>
      <trkpt lat="38.35128" lon="38.35095">
        <ele>994.239441</ele>
        <time>2022-02-25T01:53:33.583Z</time>
      </trkpt>
      <trkpt lat="38.35128" lon="38.3506">
        <ele>993.236025</ele>
        <time>2022-02-25T01:53:38.893Z</time>
      </trkpt>
      <trkpt lat="38.35133" lon="38.35005">
        <ele>991.681547</ele>
        <time>2022-02-25T01:53:47.386Z</time>
      </trkpt>
      <trkpt lat="38.35139" lon="38.34969">
        <ele>990.712869</ele>
        <time>2022-02-25T01:53:53.036Z</time>
      </trkpt>
      <trkpt lat="38.35148" lon="38.34925">
        <ele>989.733268</ele>
        <time>2022-02-25T01:53:59.904Z</time>
      </trkpt>
      <trkpt lat="38.35154" lon="38.34888">
        <ele>988.918843</ele>
        <time>2022-02-25T01:54:05.792Z</time>
      </trkpt>
      <trkpt lat="38.35157" lon="38.34874">
        <ele>988.606774</ele>
        <time>2022-02-25T01:54:08.013Z</time>
      </trkpt>
      <trkpt lat="38.35159" lon="38.34864">
        <ele>988.388952</ele>
        <time>2022-02-25T01:54:09.667Z</time>
      </trkpt>
      <trkpt lat="38.35171" lon="38.34832">
        <ele>987.614044</ele>
        <time>2022-02-25T01:54:15.280Z</time>
      </trkpt>
      <trkpt lat="38.35177" lon="38.34811">
        <ele>987.135062</ele>
        <time>2022-02-25T01:54:18.832Z</time>
      </trkpt>
      <trkpt lat="38.35179" lon="38.34796">
        <ele>986.798546</ele>
        <time>2022-02-25T01:54:21.199Z</time>
      </trkpt>
      <trkpt lat="38.35196" lon="38.34716">
        <ele>985.584212</ele>
        <time>2022-02-25T01:54:34.977Z</time>
      </trkpt>
      <trkpt lat="38.35204" lon="38.34677">
        <ele>985.193491</ele>
        <time>2022-02-25T01:54:41.625Z</time>
      </trkpt>
      <trkpt lat="38.3521" lon="38.34647">
        <ele>984.888318</ele>
        <time>2022-02-25T01:54:46.864Z</time>
      </trkpt>
      <trkpt lat="38.35214" lon="38.34629">
        <ele>984.70567</ele>
        <time>2022-02-25T01:54:50.067Z</time>
      </trkpt>
      <trkpt lat="38.35224" lon="38.34562">
        <ele>984.034507</ele>
        <time>2022-02-25T01:55:03.003Z</time>
      </trkpt>
      <trkpt lat="38.35226" lon="38.34545">
        <ele>983.862853</ele>
        <time>2022-02-25T01:55:06.707Z</time>
      </trkpt>
      <trkpt lat="38.35227" lon="38.34541">
        <ele>983.82327</ele>
        <time>2022-02-25T01:55:07.450Z</time>
      </trkpt>
      <trkpt lat="38.3523" lon="38.34495">
        <ele>984.083882</ele>
        <time>2022-02-25T01:55:17.509Z</time>
      </trkpt>
      <trkpt lat="38.3523" lon="38.34479">
        <ele>984.180651</ele>
        <time>2022-02-25T01:55:21.174Z</time>
      </trkpt>
      <trkpt lat="38.3523" lon="38.3446">
        <ele>984.293532</ele>
        <time>2022-02-25T01:55:25.976Z</time>
      </trkpt>
      <trkpt lat="38.3523" lon="38.34444">
        <ele>984.389041</ele>
        <time>2022-02-25T01:55:29.526Z</time>
      </trkpt>
      <trkpt lat="38.35231" lon="38.34425">
        <ele>984.502721</ele>
        <time>2022-02-25T01:55:34.438Z</time>
      </trkpt>
      <trkpt lat="38.35233" lon="38.34404">
        <ele>984.626568</ele>
        <time>2022-02-25T01:55:39.600Z</time>
      </trkpt>
      <trkpt lat="38.35236" lon="38.3438">
        <ele>984.777815</ele>
        <time>2022-02-25T01:55:45.869Z</time>
      </trkpt>
      <trkpt lat="38.35238" lon="38.3436">
        <ele>984.893406</ele>
        <time>2022-02-25T01:55:50.700Z</time>
      </trkpt>
      <trkpt lat="38.35243" lon="38.34332">
        <ele>985.067511</ele>
        <time>2022-02-25T01:55:57.932Z</time>
      </trkpt>
      <trkpt lat="38.3525" lon="38.34306">
        <ele>985.260818</ele>
        <time>2022-02-25T01:56:04.937Z</time>
      </trkpt>
      <trkpt lat="38.35258" lon="38.3428">
        <ele>985.536348</ele>
        <time>2022-02-25T01:56:12.429Z</time>
      </trkpt>
      <trkpt lat="38.35271" lon="38.3424">
        <ele>985.958829</ele>
        <time>2022-02-25T01:56:23.832Z</time>
      </trkpt>
      <trkpt lat="38.35285" lon="38.34197">
        <ele>986.407921</ele>
        <time>2022-02-25T01:56:36.128Z</time>
      </trkpt>
      <trkpt lat="38.35287" lon="38.34186">
        <ele>986.514991</ele>
        <time>2022-02-25T01:56:38.971Z</time>
      </trkpt>
      <trkpt lat="38.35293" lon="38.34158">
        <ele>986.800381</ele>
        <time>2022-02-25T01:56:46.950Z</time>
      </trkpt>
      <trkpt lat="38.35304" lon="38.341">
        <ele>987.382788</ele>
        <time>2022-02-25T01:57:02.293Z</time>
      </trkpt>
      <trkpt lat="38.35313" lon="38.3405">
        <ele>987.234855</ele>
        <time>2022-02-25T01:57:13.779Z</time>
      </trkpt>
      <trkpt lat="38.35318" lon="38.34021">
        <ele>987.114497</ele>
        <time>2022-02-25T01:57:20.108Z</time>
      </trkpt>
      <trkpt lat="38.35323" lon="38.33991">
        <ele>986.993425</ele>
        <time>2022-02-25T01:57:25.958Z</time>
      </trkpt>
      <trkpt lat="38.35325" lon="38.33983">
        <ele>986.958818</ele>
        <time>2022-02-25T01:57:27.769Z</time>
      </trkpt>
      <trkpt lat="38.35326" lon="38.33956">
        <ele>986.849895</ele>
        <time>2022-02-25T01:57:32.751Z</time>
      </trkpt>
      <trkpt lat="38.35321" lon="38.33942">
        <ele>986.787022</ele>
        <time>2022-02-25T01:57:35.871Z</time>
      </trkpt>
      <trkpt lat="38.3534" lon="38.33908">
        <ele>986.618055</ele>
        <time>2022-02-25T01:57:43.393Z</time>
      </trkpt>
      <trkpt lat="38.35349" lon="38.3389">
        <ele>986.532811</ele>
        <time>2022-02-25T01:57:47.014Z</time>
      </trkpt>
      <trkpt lat="38.35378" lon="38.33831">
        <ele>985.315797</ele>
        <time>2022-02-25T01:57:58.482Z</time>
      </trkpt>
      <trkpt lat="38.35395" lon="38.338">
        <ele>984.575607</ele>
        <time>2022-02-25T01:58:04.528Z</time>
      </trkpt>
      <trkpt lat="38.35415" lon="38.33762">
        <ele>983.694787</ele>
        <time>2022-02-25T01:58:11.535Z</time>
      </trkpt>
      <trkpt lat="38.35425" lon="38.33742">
        <ele>983.251722</ele>
        <time>2022-02-25T01:58:15.005Z</time>
      </trkpt>
      <trkpt lat="38.35456" lon="38.33657">
        <ele>981.554827</ele>
        <time>2022-02-25T01:58:30.056Z</time>
      </trkpt>
      <trkpt lat="38.3548" lon="38.33588">
        <ele>980.353936</ele>
        <time>2022-02-25T01:58:43.042Z</time>
      </trkpt>
      <trkpt lat="38.35513" lon="38.33498">
        <ele>978.788312</ele>
        <time>2022-02-25T01:58:59.878Z</time>
      </trkpt>
      <trkpt lat="38.35543" lon="38.33404">
        <ele>976.537117</ele>
        <time>2022-02-25T01:59:15.909Z</time>
      </trkpt>
      <trkpt lat="38.35549" lon="38.33381">
        <ele>975.974337</ele>
        <time>2022-02-25T01:59:19.560Z</time>
      </trkpt>
      <trkpt lat="38.35551" lon="38.33371">
        <ele>975.722744</ele>
        <time>2022-02-25T01:59:21.166Z</time>
      </trkpt>
      <trkpt lat="38.35553" lon="38.33368">
        <ele>975.621548</ele>
        <time>2022-02-25T01:59:21.812Z</time>
      </trkpt>
      <trkpt lat="38.35556" lon="38.33365">
        <ele>975.517945</ele>
        <time>2022-02-25T01:59:22.443Z</time>
      </trkpt>
      <trkpt lat="38.3556" lon="38.33353">
        <ele>975.212364</ele>
        <time>2022-02-25T01:59:24.487Z</time>
      </trkpt>
      <trkpt lat="38.3556" lon="38.33349">
        <ele>975.107676</ele>
        <time>2022-02-25T01:59:25.119Z</time>
      </trkpt>
      <trkpt lat="38.35559" lon="38.33345">
        <ele>975.006145</ele>
        <time>2022-02-25T01:59:25.799Z</time>
      </trkpt>
      <trkpt lat="38.3557" lon="38.33315">
        <ele>974.217641</ele>
        <time>2022-02-25T01:59:30.835Z</time>
      </trkpt>
      <trkpt lat="38.35572" lon="38.33306">
        <ele>973.98705</ele>
        <time>2022-02-25T01:59:32.316Z</time>
      </trkpt>
      <trkpt lat="38.3558" lon="38.33281">
        <ele>973.374773</ele>
        <time>2022-02-25T01:59:36.195Z</time>
      </trkpt>
      <trkpt lat="38.35584" lon="38.33247">
        <ele>972.615672</ele>
        <time>2022-02-25T01:59:41.420Z</time>
      </trkpt>
      <trkpt lat="38.35591" lon="38.33207">
        <ele>971.761398</ele>
        <time>2022-02-25T01:59:47.688Z</time>
      </trkpt>
      <trkpt lat="38.35605" lon="38.33104">
        <ele>969.628471</ele>
        <time>2022-02-25T02:00:03.884Z</time>
      </trkpt>
      <trkpt lat="38.35608" lon="38.33055">
        <ele>968.627038</ele>
        <time>2022-02-25T02:00:12.173Z</time>
      </trkpt>
      <trkpt lat="38.35608" lon="38.33001">
        <ele>968.146218</ele>
        <time>2022-02-25T02:00:21.844Z</time>
      </trkpt>
      <trkpt lat="38.35597" lon="38.32888">
        <ele>967.666793</ele>
        <time>2022-02-25T02:00:43.724Z</time>
      </trkpt>
      <trkpt lat="38.3557" lon="38.32757">
        <ele>967.441743</ele>
        <time>2022-02-25T02:01:12.585Z</time>
      </trkpt>
      <trkpt lat="38.35569" lon="38.3275">
        <ele>967.45516</ele>
        <time>2022-02-25T02:01:14.340Z</time>
      </trkpt>
      <trkpt lat="38.35563" lon="38.32733">
        <ele>967.484654</ele>
        <time>2022-02-25T02:01:18.398Z</time>
      </trkpt>
      <trkpt lat="38.35547" lon="38.3268">
        <ele>967.57955</ele>
        <time>2022-02-25T02:01:30.835Z</time>
      </trkpt>
      <trkpt lat="38.35534" lon="38.32641">
        <ele>967.65009</ele>
        <time>2022-02-25T02:01:40.269Z</time>
      </trkpt>
      <trkpt lat="38.35539" lon="38.3263">
        <ele>967.671412</ele>
        <time>2022-02-25T02:01:43.053Z</time>
      </trkpt>
      <trkpt lat="38.35549" lon="38.3261">
        <ele>967.709319</ele>
        <time>2022-02-25T02:01:48.498Z</time>
      </trkpt>
      <trkpt lat="38.35551" lon="38.32583">
        <ele>967.660538</ele>
        <time>2022-02-25T02:01:54.624Z</time>
      </trkpt>
      <trkpt lat="38.35543" lon="38.32518">
        <ele>967.419613</ele>
        <time>2022-02-25T02:02:08.956Z</time>
      </trkpt>
      <trkpt lat="38.3553" lon="38.32434">
        <ele>967.101854</ele>
        <time>2022-02-25T02:02:26.172Z</time>
      </trkpt>
      <trkpt lat="38.35526" lon="38.32376">
        <ele>966.889657</ele>
        <time>2022-02-25T02:02:37.278Z</time>
      </trkpt>
      <trkpt lat="38.35531" lon="38.32361">
        <ele>966.711773</ele>
        <time>2022-02-25T02:02:40.579Z</time>
      </trkpt>
      <trkpt lat="38.35537" lon="38.32356">
        <ele>966.623513</ele>
        <time>2022-02-25T02:02:41.941Z</time>
      </trkpt>
      <trkpt lat="38.35571" lon="38.32327">
        <ele>966.024512</ele>
        <time>2022-02-25T02:02:51.550Z</time>
      </trkpt>
      <trkpt lat="38.35581" lon="38.32242">
        <ele>965.047959</ele>
        <time>2022-02-25T02:03:07.381Z</time>
      </trkpt>
      <trkpt lat="38.3558" lon="38.32203">
        <ele>964.609632</ele>
        <time>2022-02-25T02:03:14.389Z</time>
      </trkpt>
      <trkpt lat="38.3558" lon="38.32192">
        <ele>964.48956</ele>
        <time>2022-02-25T02:03:16.157Z</time>
      </trkpt>
      <trkpt lat="38.35557" lon="38.32139">
        <ele>963.647088</ele>
        <time>2022-02-25T02:03:26.790Z</time>
      </trkpt>
      <trkpt lat="38.35532" lon="38.32163">
        <ele>963.060051</ele>
        <time>2022-02-25T02:03:33.614Z</time>
      </trkpt>
      <trkpt lat="38.35516" lon="38.32175">
        <ele>962.713626</ele>
        <time>2022-02-25T02:03:37.691Z</time>
      </trkpt>
      <trkpt lat="38.35486" lon="38.32096">
        <ele>961.413421</ele>
        <time>2022-02-25T02:03:52.866Z</time>
      </trkpt>
      <trkpt lat="38.35456" lon="38.32013">
        <ele>960.064471</ele>
        <time>2022-02-25T02:04:09.166Z</time>
      </trkpt>
      <trkpt lat="38.35452" lon="38.32002">
        <ele>959.884773</ele>
        <time>2022-02-25T02:04:11.305Z</time>
      </trkpt>
      <trkpt lat="38.35431" lon="38.31954">
        <ele>959.095392</ele>
        <time>2022-02-25T02:04:20.544Z</time>
      </trkpt>
      <trkpt lat="38.35419" lon="38.31944">
        <ele>958.839274</ele>
        <time>2022-02-25T02:04:23.628Z</time>
      </trkpt>
      <trkpt lat="38.35407" lon="38.31941">
        <ele>958.608134</ele>
        <time>2022-02-25T02:04:26.458Z</time>
      </trkpt>
      <trkpt lat="38.35401" lon="38.31931">
        <ele>958.424751</ele>
        <time>2022-02-25T02:04:28.712Z</time>
      </trkpt>
      <trkpt lat="38.35399" lon="38.31915">
        <ele>958.197834</ele>
        <time>2022-02-25T02:04:31.578Z</time>
      </trkpt>
      <trkpt lat="38.3538" lon="38.31794">
        <ele>956.788246</ele>
        <time>2022-02-25T02:04:53.874Z</time>
      </trkpt>
      <trkpt lat="38.35369" lon="38.31712">
        <ele>955.974042</ele>
        <time>2022-02-25T02:05:09.146Z</time>
      </trkpt>
      <trkpt lat="38.35356" lon="38.31629">
        <ele>955.302491</ele>
        <time>2022-02-25T02:05:25.270Z</time>
      </trkpt>
      <trkpt lat="38.35347" lon="38.31562">
        <ele>955.203162</ele>
        <time>2022-02-25T02:05:39.822Z</time>
      </trkpt>
      <trkpt lat="38.35342" lon="38.31528">
        <ele>955.152648</ele>
        <time>2022-02-25T02:05:47.222Z</time>
      </trkpt>
      <trkpt lat="38.35324" lon="38.31505">
        <ele>955.106207</ele>
        <time>2022-02-25T02:05:53.746Z</time>
      </trkpt>
      <trkpt lat="38.35349" lon="38.31464">
        <ele>955.030121</ele>
        <time>2022-02-25T02:06:05.271Z</time>
      </trkpt>
      <trkpt lat="38.35344" lon="38.3139">
        <ele>954.831998</ele>
        <time>2022-02-25T02:06:22.793Z</time>
      </trkpt>
      <trkpt lat="38.35349" lon="38.31374">
        <ele>954.775533</ele>
        <time>2022-02-25T02:06:26.764Z</time>
      </trkpt>
      <trkpt lat="38.3533" lon="38.31291">
        <ele>954.493808</ele>
        <time>2022-02-25T02:06:44.893Z</time>
      </trkpt>
      <trkpt lat="38.35312" lon="38.31203">
        <ele>954.112039</ele>
        <time>2022-02-25T02:07:02.005Z</time>
      </trkpt>
      <trkpt lat="38.35298" lon="38.31157">
        <ele>953.682231</ele>
        <time>2022-02-25T02:07:10.814Z</time>
      </trkpt>
      <trkpt lat="38.35297" lon="38.31151">
        <ele>953.626236</ele>
        <time>2022-02-25T02:07:11.889Z</time>
      </trkpt>
      <trkpt lat="38.35289" lon="38.31118">
        <ele>953.324389</ele>
        <time>2022-02-25T02:07:18.211Z</time>
      </trkpt>
      <trkpt lat="38.35283" lon="38.31076">
        <ele>952.941343</ele>
        <time>2022-02-25T02:07:26.296Z</time>
      </trkpt>
      <trkpt lat="38.35282" lon="38.31018">
        <ele>952.431066</ele>
        <time>2022-02-25T02:07:37.313Z</time>
      </trkpt>
      <trkpt lat="38.35266" lon="38.30937">
        <ele>952.009911</ele>
        <time>2022-02-25T02:07:53.514Z</time>
      </trkpt>
      <trkpt lat="38.35241" lon="38.30834">
        <ele>951.63108</ele>
        <time>2022-02-25T02:08:15.465Z</time>
      </trkpt>
      <trkpt lat="38.35244" lon="38.30801">
        <ele>951.513203</ele>
        <time>2022-02-25T02:08:22.507Z</time>
      </trkpt>
      <trkpt lat="38.35245" lon="38.30767">
        <ele>951.385853</ele>
        <time>2022-02-25T02:08:30.171Z</time>
      </trkpt>
      <trkpt lat="38.35252" lon="38.30698">
        <ele>951.069213</ele>
        <time>2022-02-25T02:08:45.383Z</time>
      </trkpt>
      <trkpt lat="38.3526" lon="38.30645">
        <ele>950.825355</ele>
        <time>2022-02-25T02:08:56.154Z</time>
      </trkpt>
      <trkpt lat="38.35266" lon="38.30615">
        <ele>950.682004</ele>
        <time>2022-02-25T02:09:02.186Z</time>
      </trkpt>
      <trkpt lat="38.35267" lon="38.30611">
        <ele>950.663092</ele>
        <time>2022-02-25T02:09:03.170Z</time>
      </trkpt>
      <trkpt lat="38.35277" lon="38.30566">
        <ele>950.453192</ele>
        <time>2022-02-25T02:09:11.914Z</time>
      </trkpt>
      <trkpt lat="38.35294" lon="38.30476">
        <ele>949.426375</ele>
        <time>2022-02-25T02:09:29.129Z</time>
      </trkpt>
      <trkpt lat="38.35307" lon="38.30393">
        <ele>948.341324</ele>
        <time>2022-02-25T02:09:44.345Z</time>
      </trkpt>
      <trkpt lat="38.35315" lon="38.30348">
        <ele>947.755447</ele>
        <time>2022-02-25T02:09:52.203Z</time>
      </trkpt>
      <trkpt lat="38.35322" lon="38.30305">
        <ele>947.125441</ele>
        <time>2022-02-25T02:09:59.690Z</time>
      </trkpt>
      <trkpt lat="38.35332" lon="38.30261">
        <ele>946.379841</ele>
        <time>2022-02-25T02:10:07.492Z</time>
      </trkpt>
      <trkpt lat="38.35351" lon="38.30168">
        <ele>944.815101</ele>
        <time>2022-02-25T02:10:24.178Z</time>
      </trkpt>
      <trkpt lat="38.35356" lon="38.30128">
        <ele>944.16691</ele>
        <time>2022-02-25T02:10:31.023Z</time>
      </trkpt>
      <trkpt lat="38.3536" lon="38.30126">
        <ele>944.079721</ele>
        <time>2022-02-25T02:10:31.906Z</time>
      </trkpt>
      <trkpt lat="38.35362" lon="38.30124">
        <ele>944.009038</ele>
        <time>2022-02-25T02:10:32.652Z</time>
      </trkpt>
      <trkpt lat="38.35365" lon="38.3012">
        <ele>943.928604</ele>
        <time>2022-02-25T02:10:33.501Z</time>
      </trkpt>
      <trkpt lat="38.35366" lon="38.30115">
        <ele>943.840098</ele>
        <time>2022-02-25T02:10:34.423Z</time>
      </trkpt>
      <trkpt lat="38.35366" lon="38.30109">
        <ele>943.749075</ele>
        <time>2022-02-25T02:10:35.390Z</time>
      </trkpt>
      <trkpt lat="38.35364" lon="38.30104">
        <ele>943.674476</ele>
        <time>2022-02-25T02:10:36.251Z</time>
      </trkpt>
      <trkpt lat="38.35361" lon="38.301">
        <ele>943.610927</ele>
        <time>2022-02-25T02:10:37.116Z</time>
      </trkpt>
      <trkpt lat="38.35359" lon="38.30098">
        <ele>943.567188</ele>
        <time>2022-02-25T02:10:37.711Z</time>
      </trkpt>
      <trkpt lat="38.35355" lon="38.30098">
        <ele>943.519873</ele>
        <time>2022-02-25T02:10:38.342Z</time>
      </trkpt>
      <trkpt lat="38.35347" lon="38.30091">
        <ele>943.37538</ele>
        <time>2022-02-25T02:10:40.421Z</time>
      </trkpt>
      <trkpt lat="38.35338" lon="38.3008">
        <ele>943.187131</ele>
        <time>2022-02-25T02:10:43.226Z</time>
      </trkpt>
      <trkpt lat="38.35329" lon="38.30066">
        <ele>942.96617</ele>
        <time>2022-02-25T02:10:46.275Z</time>
      </trkpt>
      <trkpt lat="38.35296" lon="38.30012">
        <ele>942.16025</ele>
        <time>2022-02-25T02:10:58.177Z</time>
      </trkpt>
      <trkpt lat="38.35293" lon="38.30002">
        <ele>942.035163</ele>
        <time>2022-02-25T02:11:00.026Z</time>
      </trkpt>
      <trkpt lat="38.35293" lon="38.3">
        <ele>942.007034</ele>
        <time>2022-02-25T02:11:00.416Z</time>
      </trkpt>
      <trkpt lat="38.35293" lon="38.29995">
        <ele>941.951458</ele>
        <time>2022-02-25T02:11:01.219Z</time>
      </trkpt>
      <trkpt lat="38.35298" lon="38.29986">
        <ele>941.817911</ele>
        <time>2022-02-25T02:11:03.262Z</time>
      </trkpt>
      <trkpt lat="38.35309" lon="38.29961">
        <ele>941.47563</ele>
        <time>2022-02-25T02:11:08.787Z</time>
      </trkpt>
      <trkpt lat="38.35313" lon="38.29949">
        <ele>941.326882</ele>
        <time>2022-02-25T02:11:11.035Z</time>
      </trkpt>
      <trkpt lat="38.35321" lon="38.29926">
        <ele>941.025544</ele>
        <time>2022-02-25T02:11:16.067Z</time>
      </trkpt>
      <trkpt lat="38.35325" lon="38.29905">
        <ele>940.92622</ele>
        <time>2022-02-25T02:11:19.819Z</time>
      </trkpt>
      <trkpt lat="38.35327" lon="38.2988">
        <ele>940.823899</ele>
        <time>2022-02-25T02:11:24.592Z</time>
      </trkpt>
      <trkpt lat="38.35335" lon="38.29805">
        <ele>940.51403</ele>
        <time>2022-02-25T02:11:38.842Z</time>
      </trkpt>
      <trkpt lat="38.35336" lon="38.29784">
        <ele>940.425927</ele>
        <time>2022-02-25T02:11:43.387Z</time>
      </trkpt>
      <trkpt lat="38.35335" lon="38.29728">
        <ele>940.197435</ele>
        <time>2022-02-25T02:11:55.898Z</time>
      </trkpt>
      <trkpt lat="38.35339" lon="38.29704">
        <ele>940.098047</ele>
        <time>2022-02-25T02:12:01.808Z</time>
      </trkpt>
      <trkpt lat="38.35341" lon="38.29701">
        <ele>940.080905</ele>
        <time>2022-02-25T02:12:02.898Z</time>
      </trkpt>
      <trkpt lat="38.35346" lon="38.29686">
        <ele>940.058506</ele>
        <time>2022-02-25T02:12:06.626Z</time>
      </trkpt>
      <trkpt lat="38.35346" lon="38.29681">
        <ele>940.055462</ele>
        <time>2022-02-25T02:12:07.523Z</time>
      </trkpt>
      <trkpt lat="38.35346" lon="38.29677">
        <ele>940.052222</ele>
        <time>2022-02-25T02:12:08.504Z</time>
      </trkpt>
      <trkpt lat="38.35339" lon="38.29663">
        <ele>940.039811</ele>
        <time>2022-02-25T02:12:12.111Z</time>
      </trkpt>
      <trkpt lat="38.35334" lon="38.29658">
        <ele>940.033541</ele>
        <time>2022-02-25T02:12:14.111Z</time>
      </trkpt>
      <trkpt lat="38.35328" lon="38.29655">
        <ele>940.027276</ele>
        <time>2022-02-25T02:12:15.768Z</time>
      </trkpt>
      <trkpt lat="38.35321" lon="38.29655">
        <ele>940.020936</ele>
        <time>2022-02-25T02:12:17.383Z</time>
      </trkpt>
      <trkpt lat="38.3531" lon="38.29641">
        <ele>940.006347</ele>
        <time>2022-02-25T02:12:21.429Z</time>
      </trkpt>
      <trkpt lat="38.353" lon="38.29617">
        <ele>939.985945</ele>
        <time>2022-02-25T02:12:27.073Z</time>
      </trkpt>
      <trkpt lat="38.35292" lon="38.29542">
        <ele>939.929712</ele>
        <time>2022-02-25T02:12:43.141Z</time>
      </trkpt>
      <trkpt lat="38.35287" lon="38.29493">
        <ele>939.873918</ele>
        <time>2022-02-25T02:12:53.607Z</time>
      </trkpt>
      <trkpt lat="38.35284" lon="38.2945">
        <ele>939.713905</ele>
        <time>2022-02-25T02:13:02.775Z</time>
      </trkpt>
      <trkpt lat="38.35277" lon="38.29343">
        <ele>939.317558</ele>
        <time>2022-02-25T02:13:23.890Z</time>
      </trkpt>
      <trkpt lat="38.3527" lon="38.2925">
        <ele>939.128703</ele>
        <time>2022-02-25T02:13:42.537Z</time>
      </trkpt>
      <trkpt lat="38.35261" lon="38.29118">
        <ele>939.583854</ele>
        <time>2022-02-25T02:14:13.881Z</time>
      </trkpt>
      <trkpt lat="38.35259" lon="38.29087">
        <ele>939.69235</ele>
        <time>2022-02-25T02:14:21.629Z</time>
      </trkpt>
      <trkpt lat="38.35255" lon="38.29033">
        <ele>939.914833</ele>
        <time>2022-02-25T02:14:35.148Z</time>
      </trkpt>
      <trkpt lat="38.35253" lon="38.29009">
        <ele>940.092206</ele>
        <time>2022-02-25T02:14:41.296Z</time>
      </trkpt>
      <trkpt lat="38.35243" lon="38.28949">
        <ele>940.543424</ele>
        <time>2022-02-25T02:14:56.569Z</time>
      </trkpt>
      <trkpt lat="38.35234" lon="38.28895">
        <ele>940.953033</ele>
        <time>2022-02-25T02:15:10.556Z</time>
      </trkpt>
      <trkpt lat="38.35216" lon="38.28796">
        <ele>941.73599</ele>
        <time>2022-02-25T02:15:36.508Z</time>
      </trkpt>
      <trkpt lat="38.35215" lon="38.2879">
        <ele>941.786678</ele>
        <time>2022-02-25T02:15:37.811Z</time>
      </trkpt>
      <trkpt lat="38.3521" lon="38.28758">
        <ele>942.076638</ele>
        <time>2022-02-25T02:15:46.588Z</time>
      </trkpt>
      <trkpt lat="38.35179" lon="38.28572">
        <ele>943.629262</ele>
        <time>2022-02-25T02:16:37.105Z</time>
      </trkpt>
      <trkpt lat="38.35157" lon="38.28469">
        <ele>943.872348</ele>
        <time>2022-02-25T02:17:02.809Z</time>
      </trkpt>
      <trkpt lat="38.35137" lon="38.28386">
        <ele>944.070337</ele>
        <time>2022-02-25T02:17:21.116Z</time>
      </trkpt>
      <trkpt lat="38.35179" lon="38.28369">
        <ele>943.834567</ele>
        <time>2022-02-25T02:17:31.540Z</time>
      </trkpt>
      <trkpt lat="38.35171" lon="38.28345">
        <ele>943.667828</ele>
        <time>2022-02-25T02:17:36.353Z</time>
      </trkpt>
      <trkpt lat="38.35127" lon="38.28205">
        <ele>942.701124</ele>
        <time>2022-02-25T02:18:03.811Z</time>
      </trkpt>
      <trkpt lat="38.35112" lon="38.28183">
        <ele>942.541092</ele>
        <time>2022-02-25T02:18:09.319Z</time>
      </trkpt>
      <trkpt lat="38.35105" lon="38.28167">
        <ele>942.45291</ele>
        <time>2022-02-25T02:18:12.685Z</time>
      </trkpt>
      <trkpt lat="38.35047" lon="38.27987">
        <ele>941.502259</ele>
        <time>2022-02-25T02:18:49.731Z</time>
      </trkpt>
      <trkpt lat="38.34997" lon="38.27828">
        <ele>941.27857</ele>
        <time>2022-02-25T02:19:24.099Z</time>
      </trkpt>
      <trkpt lat="38.34987" lon="38.27799">
        <ele>941.237118</ele>
        <time>2022-02-25T02:19:30.894Z</time>
      </trkpt>
      <trkpt lat="38.34946" lon="38.27673">
        <ele>941.335765</ele>
        <time>2022-02-25T02:20:00.800Z</time>
      </trkpt>
      <trkpt lat="38.34936" lon="38.27633">
        <ele>941.384375</ele>
        <time>2022-02-25T02:20:09.991Z</time>
      </trkpt>
      <trkpt lat="38.34914" lon="38.27565">
        <ele>941.469511</ele>
        <time>2022-02-25T02:20:25.682Z</time>
      </trkpt>
      <trkpt lat="38.34906" lon="38.27552">
        <ele>941.436723</ele>
        <time>2022-02-25T02:20:29.088Z</time>
      </trkpt>
      <trkpt lat="38.34907" lon="38.27546">
        <ele>941.421845</ele>
        <time>2022-02-25T02:20:30.387Z</time>
      </trkpt>
      <trkpt lat="38.34904" lon="38.27534">
        <ele>941.392552</ele>
        <time>2022-02-25T02:20:33.012Z</time>
      </trkpt>
      <trkpt lat="38.349" lon="38.27529">
        <ele>941.377626</ele>
        <time>2022-02-25T02:20:34.344Z</time>
      </trkpt>
      <trkpt lat="38.34898" lon="38.27528">
        <ele>941.370666</ele>
        <time>2022-02-25T02:20:34.973Z</time>
      </trkpt>
      <trkpt lat="38.34897" lon="38.27509">
        <ele>941.326682</ele>
        <time>2022-02-25T02:20:38.775Z</time>
      </trkpt>
      <trkpt lat="38.34895" lon="38.27213">
        <ele>940.629753</ele>
        <time>2022-02-25T02:21:36.832Z</time>
      </trkpt>
      <trkpt lat="38.34885" lon="38.27144">
        <ele>940.463877</ele>
        <time>2022-02-25T02:21:50.906Z</time>
      </trkpt>
      <trkpt lat="38.34685" lon="38.2645">
        <ele>939.666778</ele>
        <time>2022-02-25T02:24:23.451Z</time>
      </trkpt>
      <trkpt lat="38.346" lon="38.26173">
        <ele>937.716456</ele>
        <time>2022-02-25T02:25:18.092Z</time>
      </trkpt>
      <trkpt lat="38.34585" lon="38.26128">
        <ele>937.327006</ele>
        <time>2022-02-25T02:25:26.826Z</time>
      </trkpt>
      <trkpt lat="38.34586" lon="38.26124">
        <ele>937.294236</ele>
        <time>2022-02-25T02:25:27.564Z</time>
      </trkpt>
      <trkpt lat="38.34587" lon="38.2612">
        <ele>937.260765</ele>
        <time>2022-02-25T02:25:28.315Z</time>
      </trkpt>
      <trkpt lat="38.34587" lon="38.26116">
        <ele>937.228045</ele>
        <time>2022-02-25T02:25:29.054Z</time>
      </trkpt>
      <trkpt lat="38.34586" lon="38.26112">
        <ele>937.194775</ele>
        <time>2022-02-25T02:25:29.796Z</time>
      </trkpt>
      <trkpt lat="38.34585" lon="38.26108">
        <ele>937.162098</ele>
        <time>2022-02-25T02:25:30.539Z</time>
      </trkpt>
      <trkpt lat="38.34583" lon="38.26105">
        <ele>937.128712</ele>
        <time>2022-02-25T02:25:31.279Z</time>
      </trkpt>
      <trkpt lat="38.3458" lon="38.26101">
        <ele>937.079618</ele>
        <time>2022-02-25T02:25:32.389Z</time>
      </trkpt>
      <trkpt lat="38.34575" lon="38.26098">
        <ele>937.030293</ele>
        <time>2022-02-25T02:25:33.501Z</time>
      </trkpt>
      <trkpt lat="38.34573" lon="38.26098">
        <ele>937.009811</ele>
        <time>2022-02-25T02:25:33.965Z</time>
      </trkpt>
      <trkpt lat="38.34557" lon="38.26042">
        <ele>936.532788</ele>
        <time>2022-02-25T02:25:44.671Z</time>
      </trkpt>
      <trkpt lat="38.34179" lon="38.24777">
        <ele>925.952601</ele>
        <time>2022-02-25T02:29:50.444Z</time>
      </trkpt>
      <trkpt lat="38.34119" lon="38.24584">
        <ele>924.719446</ele>
        <time>2022-02-25T02:30:29.129Z</time>
      </trkpt>
      <trkpt lat="38.34114" lon="38.24568">
        <ele>924.615883</ele>
        <time>2022-02-25T02:30:32.522Z</time>
      </trkpt>
      <trkpt lat="38.3411" lon="38.24553">
        <ele>924.521557</ele>
        <time>2022-02-25T02:30:35.617Z</time>
      </trkpt>
      <trkpt lat="38.34048" lon="38.24347">
        <ele>923.513365</ele>
        <time>2022-02-25T02:31:17.999Z</time>
      </trkpt>
      <trkpt lat="38.34027" lon="38.24265">
        <ele>923.198543</ele>
        <time>2022-02-25T02:31:34.004Z</time>
      </trkpt>
      <trkpt lat="38.34014" lon="38.24183">
        <ele>922.904097</ele>
        <time>2022-02-25T02:31:50.014Z</time>
      </trkpt>
      <trkpt lat="38.34013" lon="38.24173">
        <ele>922.870149</ele>
        <time>2022-02-25T02:31:51.693Z</time>
      </trkpt>
      <trkpt lat="38.34013" lon="38.24161">
        <ele>922.828617</ele>
        <time>2022-02-25T02:31:54.057Z</time>
      </trkpt>
      <trkpt lat="38.34012" lon="38.2415">
        <ele>922.787765</ele>
        <time>2022-02-25T02:31:56.247Z</time>
      </trkpt>
      <trkpt lat="38.33996" lon="38.2368">
        <ele>924.438348</ele>
        <time>2022-02-25T02:33:42.646Z</time>
      </trkpt>
      <trkpt lat="38.33991" lon="38.23566">
        <ele>925.715302</ele>
        <time>2022-02-25T02:34:13.421Z</time>
      </trkpt>
      <trkpt lat="38.33982" lon="38.23567">
        <ele>925.855951</ele>
        <time>2022-02-25T02:34:16.587Z</time>
      </trkpt>
      <trkpt lat="38.33972" lon="38.23568">
        <ele>926.016427</ele>
        <time>2022-02-25T02:34:20.228Z</time>
      </trkpt>
      <trkpt lat="38.33888" lon="38.23577">
        <ele>927.421379</ele>
        <time>2022-02-25T02:34:52.191Z</time>
      </trkpt>
      <trkpt lat="38.33884" lon="38.23569">
        <ele>927.542841</ele>
        <time>2022-02-25T02:34:54.668Z</time>
      </trkpt>
      <trkpt lat="38.33883" lon="38.23559">
        <ele>927.626736</ele>
        <time>2022-02-25T02:34:57.629Z</time>
      </trkpt>
      <trkpt lat="38.33886" lon="38.23554">
        <ele>927.677961</ele>
        <time>2022-02-25T02:34:59.345Z</time>
      </trkpt>
      <trkpt lat="38.33886" lon="38.2355">
        <ele>927.715179</ele>
        <time>2022-02-25T02:35:00.511Z</time>
      </trkpt>
      <trkpt lat="38.33884" lon="38.23517">
        <ele>927.983011</ele>
        <time>2022-02-25T02:35:08.838Z</time>
      </trkpt>
      <trkpt lat="38.33881" lon="38.23466">
        <ele>928.403821</ele>
        <time>2022-02-25T02:35:21.871Z</time>
      </trkpt>
      <trkpt lat="38.33879" lon="38.23453">
        <ele>928.517312</ele>
        <time>2022-02-25T02:35:25.313Z</time>
      </trkpt>
      <trkpt lat="38.33873" lon="38.2341">
        <ele>928.877236</ele>
        <time>2022-02-25T02:35:36.323Z</time>
      </trkpt>
      <trkpt lat="38.33874" lon="38.23407">
        <ele>928.906205</ele>
        <time>2022-02-25T02:35:37.201Z</time>
      </trkpt>
      <trkpt lat="38.33875" lon="38.23403">
        <ele>928.935523</ele>
        <time>2022-02-25T02:35:38.057Z</time>
      </trkpt>
      <trkpt lat="38.33875" lon="38.234">
        <ele>928.957873</ele>
        <time>2022-02-25T02:35:38.738Z</time>
      </trkpt>
      <trkpt lat="38.33899" lon="38.2335">
        <ele>929.444294</ele>
        <time>2022-02-25T02:35:53.588Z</time>
      </trkpt>
      <trkpt lat="38.33889" lon="38.23342">
        <ele>929.536641</ele>
        <time>2022-02-25T02:35:57.478Z</time>
      </trkpt>
      <trkpt lat="38.33848" lon="38.23302">
        <ele>929.936565</ele>
        <time>2022-02-25T02:36:13.583Z</time>
      </trkpt>
      <trkpt lat="38.33809" lon="38.23264">
        <ele>930.314326</ele>
        <time>2022-02-25T02:36:28.252Z</time>
      </trkpt>
      <trkpt lat="38.33769" lon="38.23225">
        <ele>930.698946</ele>
        <time>2022-02-25T02:36:43.843Z</time>
      </trkpt>
      <trkpt lat="38.33759" lon="38.23215">
        <ele>930.799723</ele>
        <time>2022-02-25T02:36:48.215Z</time>
      </trkpt>
      <trkpt lat="38.33729" lon="38.23187">
        <ele>931.304317</ele>
        <time>2022-02-25T02:37:00.528Z</time>
      </trkpt>
      <trkpt lat="38.33689" lon="38.23148">
        <ele>932.032528</ele>
        <time>2022-02-25T02:37:18.348Z</time>
      </trkpt>
      <trkpt lat="38.3365" lon="38.23112">
        <ele>932.715564</ele>
        <time>2022-02-25T02:37:35.107Z</time>
      </trkpt>
      <trkpt lat="38.3361" lon="38.23074">
        <ele>933.443153</ele>
        <time>2022-02-25T02:37:52.761Z</time>
      </trkpt>
      <trkpt lat="38.33591" lon="38.23044">
        <ele>934.016277</ele>
        <time>2022-02-25T02:38:03.636Z</time>
      </trkpt>
      <trkpt lat="38.33581" lon="38.22928">
        <ele>935.724182</ele>
        <time>2022-02-25T02:38:37.446Z</time>
      </trkpt>
      <trkpt lat="38.3358" lon="38.22917">
        <ele>935.885201</ele>
        <time>2022-02-25T02:38:40.712Z</time>
      </trkpt>
      <trkpt lat="38.3353" lon="38.22923">
        <ele>936.82551</ele>
        <time>2022-02-25T02:38:59.700Z</time>
      </trkpt>
      <trkpt lat="38.33524" lon="38.22868">
        <ele>937.635849</ele>
        <time>2022-02-25T02:39:15.861Z</time>
      </trkpt>
      <trkpt lat="38.33517" lon="38.22809">
        <ele>938.495039</ele>
        <time>2022-02-25T02:39:32.892Z</time>
      </trkpt>
      <trkpt lat="38.3351" lon="38.22748">
        <ele>939.38871</ele>
        <time>2022-02-25T02:39:50.515Z</time>
      </trkpt>
      <trkpt lat="38.33503" lon="38.22686">
        <ele>940.245828</ele>
        <time>2022-02-25T02:40:08.259Z</time>
      </trkpt>
      <trkpt lat="38.33489" lon="38.22553">
        <ele>941.766181</ele>
        <time>2022-02-25T02:40:46.311Z</time>
      </trkpt>
      <trkpt lat="38.33476" lon="38.22481">
        <ele>942.608116</ele>
        <time>2022-02-25T02:41:05.841Z</time>
      </trkpt>
      <trkpt lat="38.33458" lon="38.22391">
        <ele>942.763028</ele>
        <time>2022-02-25T02:41:27.935Z</time>
      </trkpt>
      <trkpt lat="38.33438" lon="38.22237">
        <ele>942.838575</ele>
        <time>2022-02-25T02:41:59.925Z</time>
      </trkpt>
      <trkpt lat="38.33429" lon="38.22169">
        <ele>942.491795</ele>
        <time>2022-02-25T02:42:12.627Z</time>
      </trkpt>
      <trkpt lat="38.33434" lon="38.22091">
        <ele>942.091882</ele>
        <time>2022-02-25T02:42:26.660Z</time>
      </trkpt>
      <trkpt lat="38.33438" lon="38.22063">
        <ele>941.947172</ele>
        <time>2022-02-25T02:42:31.794Z</time>
      </trkpt>
      <trkpt lat="38.33461" lon="38.21993">
        <ele>942.017927</ele>
        <time>2022-02-25T02:42:46.798Z</time>
      </trkpt>
      <trkpt lat="38.3347" lon="38.21965">
        <ele>942.258366</ele>
        <time>2022-02-25T02:42:53.707Z</time>
      </trkpt>
      <trkpt lat="38.33476" lon="38.21935">
        <ele>942.497995</ele>
        <time>2022-02-25T02:43:00.796Z</time>
      </trkpt>
      <trkpt lat="38.33488" lon="38.21901">
        <ele>942.790045</ele>
        <time>2022-02-25T02:43:10.525Z</time>
      </trkpt>
      <trkpt lat="38.33526" lon="38.21819">
        <ele>943.53588</ele>
        <time>2022-02-25T02:43:36.499Z</time>
      </trkpt>
      <trkpt lat="38.33561" lon="38.2177">
        <ele>944.562086</ele>
        <time>2022-02-25T02:43:56.124Z</time>
      </trkpt>
      <trkpt lat="38.33584" lon="38.21749">
        <ele>945.132874</ele>
        <time>2022-02-25T02:44:07.560Z</time>
      </trkpt>
      <trkpt lat="38.33612" lon="38.21727">
        <ele>945.774134</ele>
        <time>2022-02-25T02:44:19.851Z</time>
      </trkpt>
      <trkpt lat="38.33697" lon="38.21656">
        <ele>947.26991</ele>
        <time>2022-02-25T02:44:55.164Z</time>
      </trkpt>
      <trkpt lat="38.33745" lon="38.21613">
        <ele>947.568789</ele>
        <time>2022-02-25T02:45:11.819Z</time>
      </trkpt>
      <trkpt lat="38.33781" lon="38.21575">
        <ele>947.806846</ele>
        <time>2022-02-25T02:45:24.399Z</time>
      </trkpt>
      <trkpt lat="38.33806" lon="38.21538">
        <ele>948.005213</ele>
        <time>2022-02-25T02:45:34.680Z</time>
      </trkpt>
      <trkpt lat="38.33835" lon="38.21473">
        <ele>948.13917</ele>
        <time>2022-02-25T02:45:50.227Z</time>
      </trkpt>
      <trkpt lat="38.33854" lon="38.21403">
        <ele>948.268168</ele>
        <time>2022-02-25T02:46:06.447Z</time>
      </trkpt>
      <trkpt lat="38.33864" lon="38.21287">
        <ele>948.454968</ele>
        <time>2022-02-25T02:46:32.338Z</time>
      </trkpt>
      <trkpt lat="38.3387" lon="38.21212">
        <ele>948.550218</ele>
        <time>2022-02-25T02:46:49.019Z</time>
      </trkpt>
      <trkpt lat="38.33876" lon="38.20982">
        <ele>948.628347</ele>
        <time>2022-02-25T02:47:37.352Z</time>
      </trkpt>
      <trkpt lat="38.33881" lon="38.20919">
        <ele>948.587463</ele>
        <time>2022-02-25T02:47:50.205Z</time>
      </trkpt>
      <trkpt lat="38.33915" lon="38.2061">
        <ele>948.332611</ele>
        <time>2022-02-25T02:48:53.948Z</time>
      </trkpt>
      <trkpt lat="38.3393" lon="38.20402">
        <ele>948.341123</ele>
        <time>2022-02-25T02:49:37.701Z</time>
      </trkpt>
      <trkpt lat="38.33932" lon="38.20333">
        <ele>948.544022</ele>
        <time>2022-02-25T02:49:53.184Z</time>
      </trkpt>
      <trkpt lat="38.33927" lon="38.20293">
        <ele>948.661495</ele>
        <time>2022-02-25T02:50:02.270Z</time>
      </trkpt>
      <trkpt lat="38.33926" lon="38.20215">
        <ele>948.890164</ele>
        <time>2022-02-25T02:50:20.190Z</time>
      </trkpt>
      <trkpt lat="38.33931" lon="38.20191">
        <ele>948.963949</ele>
        <time>2022-02-25T02:50:25.793Z</time>
      </trkpt>
      <trkpt lat="38.33941" lon="38.20172">
        <ele>948.968201</ele>
        <time>2022-02-25T02:50:30.909Z</time>
      </trkpt>
      <trkpt lat="38.33962" lon="38.20153">
        <ele>948.909317</ele>
        <time>2022-02-25T02:50:38.219Z</time>
      </trkpt>
      <trkpt lat="38.33986" lon="38.20141">
        <ele>948.851732</ele>
        <time>2022-02-25T02:50:45.130Z</time>
      </trkpt>
      <trkpt lat="38.34013" lon="38.20135">
        <ele>948.789915</ele>
        <time>2022-02-25T02:50:52.541Z</time>
      </trkpt>
      <trkpt lat="38.34026" lon="38.20132">
        <ele>948.760531</ele>
        <time>2022-02-25T02:50:55.867Z</time>
      </trkpt>
      <trkpt lat="38.34041" lon="38.20128">
        <ele>948.725321</ele>
        <time>2022-02-25T02:50:59.810Z</time>
      </trkpt>
      <trkpt lat="38.34036" lon="38.2011">
        <ele>948.693073</ele>
        <time>2022-02-25T02:51:03.283Z</time>
      </trkpt>
      <trkpt lat="38.34027" lon="38.2008">
        <ele>948.635489</ele>
        <time>2022-02-25T02:51:09.318Z</time>
      </trkpt>
      <trkpt lat="38.34003" lon="38.2003">
        <ele>948.409279</ele>
        <time>2022-02-25T02:51:19.960Z</time>
      </trkpt>
      <trkpt lat="38.33932" lon="38.19885">
        <ele>947.421874</ele>
        <time>2022-02-25T02:51:51.404Z</time>
      </trkpt>
      <trkpt lat="38.33925" lon="38.19871">
        <ele>947.329167</ele>
        <time>2022-02-25T02:51:54.578Z</time>
      </trkpt>
      <trkpt lat="38.33924" lon="38.19868">
        <ele>947.310484</ele>
        <time>2022-02-25T02:51:55.184Z</time>
      </trkpt>
      <trkpt lat="38.33918" lon="38.19856">
        <ele>947.2851</ele>
        <time>2022-02-25T02:51:58.191Z</time>
      </trkpt>
      <trkpt lat="38.33881" lon="38.19781">
        <ele>947.601388</ele>
        <time>2022-02-25T02:52:16.917Z</time>
      </trkpt>
      <trkpt lat="38.33862" lon="38.19731">
        <ele>947.796001</ele>
        <time>2022-02-25T02:52:29.688Z</time>
      </trkpt>
      <trkpt lat="38.33856" lon="38.19651">
        <ele>948.08819</ele>
        <time>2022-02-25T02:52:49.932Z</time>
      </trkpt>
      <trkpt lat="38.33854" lon="38.19579">
        <ele>948.61573</ele>
        <time>2022-02-25T02:53:07.970Z</time>
      </trkpt>
      <trkpt lat="38.3385" lon="38.1946">
        <ele>949.490364</ele>
        <time>2022-02-25T02:53:36.541Z</time>
      </trkpt>
      <trkpt lat="38.33849" lon="38.19435">
        <ele>949.676709</ele>
        <time>2022-02-25T02:53:43.043Z</time>
      </trkpt>
      <trkpt lat="38.33847" lon="38.19364">
        <ele>950.417025</ele>
        <time>2022-02-25T02:54:00.374Z</time>
      </trkpt>
      <trkpt lat="38.33837" lon="38.19366">
        <ele>950.556034</ele>
        <time>2022-02-25T02:54:03.714Z</time>
      </trkpt>
      <trkpt lat="38.33779" lon="38.19366">
        <ele>951.370599</ele>
        <time>2022-02-25T02:54:22.955Z</time>
      </trkpt>
      <trkpt lat="38.33651" lon="38.19371">
        <ele>953.535937</ele>
        <time>2022-02-25T02:55:10.465Z</time>
      </trkpt>
      <trkpt lat="38.33605" lon="38.19372">
        <ele>954.447812</ele>
        <time>2022-02-25T02:55:27.843Z</time>
      </trkpt>
      <trkpt lat="38.33587" lon="38.19372">
        <ele>954.812137</ele>
        <time>2022-02-25T02:55:34.912Z</time>
      </trkpt>
      <trkpt lat="38.3354" lon="38.19367">
        <ele>955.751088</ele>
        <time>2022-02-25T02:55:52.461Z</time>
      </trkpt>
      <trkpt lat="38.33493" lon="38.19361">
        <ele>956.342161</ele>
        <time>2022-02-25T02:56:10.046Z</time>
      </trkpt>
      <trkpt lat="38.33492" lon="38.19342">
        <ele>956.507683</ele>
        <time>2022-02-25T02:56:15.496Z</time>
      </trkpt>
      <trkpt lat="38.33492" lon="38.19291">
        <ele>956.957328</ele>
        <time>2022-02-25T02:56:29.185Z</time>
      </trkpt>
      <trkpt lat="38.33491" lon="38.19177">
        <ele>957.911566</ele>
        <time>2022-02-25T02:56:56.341Z</time>
      </trkpt>
      <trkpt lat="38.33491" lon="38.19138">
        <ele>957.96061</ele>
        <time>2022-02-25T02:57:05.275Z</time>
      </trkpt>
      <trkpt lat="38.33488" lon="38.18995">
        <ele>958.141498</ele>
        <time>2022-02-25T02:57:37.202Z</time>
      </trkpt>
      <trkpt lat="38.33486" lon="38.18799">
        <ele>958.23628</ele>
        <time>2022-02-25T02:58:19.831Z</time>
      </trkpt>
      <trkpt lat="38.33485" lon="38.18703">
        <ele>958.371054</ele>
        <time>2022-02-25T02:58:41.003Z</time>
      </trkpt>
      <trkpt lat="38.33484" lon="38.18607">
        <ele>958.843153</ele>
        <time>2022-02-25T02:59:03.265Z</time>
      </trkpt>
      <trkpt lat="38.33484" lon="38.18595">
        <ele>958.904143</ele>
        <time>2022-02-25T02:59:06.388Z</time>
      </trkpt>
      <trkpt lat="38.33482" lon="38.18436">
        <ele>960.136167</ele>
        <time>2022-02-25T02:59:46.948Z</time>
      </trkpt>
      <trkpt lat="38.33482" lon="38.18375">
        <ele>960.88777</ele>
        <time>2022-02-25T03:00:04.414Z</time>
      </trkpt>
      <trkpt lat="38.3346" lon="38.18377">
        <ele>961.236082</ele>
        <time>2022-02-25T03:00:12.473Z</time>
      </trkpt>
      <trkpt lat="38.33309" lon="38.18389">
        <ele>963.504736</ele>
        <time>2022-02-25T03:01:07.398Z</time>
      </trkpt>
      <trkpt lat="38.33297" lon="38.18387">
        <ele>963.682341</ele>
        <time>2022-02-25T03:01:11.589Z</time>
      </trkpt>
      <trkpt lat="38.33292" lon="38.18374">
        <ele>963.850707</ele>
        <time>2022-02-25T03:01:15.544Z</time>
      </trkpt>
      <trkpt lat="38.33286" lon="38.18279">
        <ele>964.863899</ele>
        <time>2022-02-25T03:01:40.604Z</time>
      </trkpt>
      <trkpt lat="38.33285" lon="38.18266">
        <ele>964.90039</ele>
        <time>2022-02-25T03:01:43.930Z</time>
      </trkpt>
      <trkpt lat="38.33274" lon="38.18111">
        <ele>965.335656</ele>
        <time>2022-02-25T03:02:21.009Z</time>
      </trkpt>
      <trkpt lat="38.33264" lon="38.17639">
        <ele>963.660486</ele>
        <time>2022-02-25T03:03:55.019Z</time>
      </trkpt>
      <trkpt lat="38.33263" lon="38.176">
        <ele>963.491055</ele>
        <time>2022-02-25T03:04:03.034Z</time>
      </trkpt>
      <trkpt lat="38.33262" lon="38.1755">
        <ele>963.451307</ele>
        <time>2022-02-25T03:04:13.187Z</time>
      </trkpt>
      <trkpt lat="38.33259" lon="38.17397">
        <ele>963.32876</ele>
        <time>2022-02-25T03:04:45.718Z</time>
      </trkpt>
      <trkpt lat="38.33258" lon="38.173">
        <ele>963.880138</ele>
        <time>2022-02-25T03:05:08.787Z</time>
      </trkpt>
      <trkpt lat="38.33248" lon="38.17282">
        <ele>964.056284</ele>
        <time>2022-02-25T03:05:14.185Z</time>
      </trkpt>
      <trkpt lat="38.3307" lon="38.17049">
        <ele>967.256915</ele>
        <time>2022-02-25T03:06:42.814Z</time>
      </trkpt>
      <trkpt lat="38.33035" lon="38.16995">
        <ele>967.874315</ele>
        <time>2022-02-25T03:07:01.922Z</time>
      </trkpt>
      <trkpt lat="38.32979" lon="38.16947">
        <ele>968.342931</ele>
        <time>2022-02-25T03:07:23.839Z</time>
      </trkpt>
      <trkpt lat="38.32986" lon="38.16906">
        <ele>968.574477</ele>
        <time>2022-02-25T03:07:34.085Z</time>
      </trkpt>
      <trkpt lat="38.33025" lon="38.1676">
        <ele>968.582006</ele>
        <time>2022-02-25T03:08:07.952Z</time>
      </trkpt>
      <trkpt lat="38.33116" lon="38.1664">
        <ele>967.734787</ele>
        <time>2022-02-25T03:08:39.933Z</time>
      </trkpt>
      <trkpt lat="38.33174" lon="38.1656">
        <ele>966.794663</ele>
        <time>2022-02-25T03:09:00.344Z</time>
      </trkpt>
      <trkpt lat="38.33183" lon="38.16548">
        <ele>966.655655</ele>
        <time>2022-02-25T03:09:03.318Z</time>
      </trkpt>
      <trkpt lat="38.33247" lon="38.16466">
        <ele>965.702272</ele>
        <time>2022-02-25T03:09:24.837Z</time>
      </trkpt>
      <trkpt lat="38.33467" lon="38.16312">
        <ele>963.149862</ele>
        <time>2022-02-25T03:10:26.436Z</time>
      </trkpt>
      <trkpt lat="38.33485" lon="38.16265">
        <ele>962.686653</ele>
        <time>2022-02-25T03:10:36.167Z</time>
      </trkpt>
      <trkpt lat="38.33495" lon="38.16211">
        <ele>962.18253</ele>
        <time>2022-02-25T03:10:46.314Z</time>
      </trkpt>
      <trkpt lat="38.33499" lon="38.1617">
        <ele>961.5588</ele>
        <time>2022-02-25T03:10:53.654Z</time>
      </trkpt>
      <trkpt lat="38.33497" lon="38.1613">
        <ele>960.957725</ele>
        <time>2022-02-25T03:11:00.704Z</time>
      </trkpt>
      <trkpt lat="38.33497" lon="38.16111">
        <ele>960.681482</ele>
        <time>2022-02-25T03:11:03.963Z</time>
      </trkpt>
      <trkpt lat="38.33506" lon="38.161">
        <ele>960.431412</ele>
        <time>2022-02-25T03:11:06.839Z</time>
      </trkpt>
      <trkpt lat="38.33538" lon="38.16077">
        <ele>959.729251</ele>
        <time>2022-02-25T03:11:14.848Z</time>
      </trkpt>
      <trkpt lat="38.33548" lon="38.16066">
        <ele>959.480843</ele>
        <time>2022-02-25T03:11:17.695Z</time>
      </trkpt>
      <trkpt lat="38.33534" lon="38.15992">
        <ele>958.429388</ele>
        <time>2022-02-25T03:11:30.759Z</time>
      </trkpt>
      <trkpt lat="38.33517" lon="38.15941">
        <ele>957.772405</ele>
        <time>2022-02-25T03:11:40.411Z</time>
      </trkpt>
      <trkpt lat="38.33506" lon="38.1592">
        <ele>957.471978</ele>
        <time>2022-02-25T03:11:45.000Z</time>
      </trkpt>
      <trkpt lat="38.33478" lon="38.15865">
        <ele>956.700264</ele>
        <time>2022-02-25T03:11:56.938Z</time>
      </trkpt>
      <trkpt lat="38.33448" lon="38.15824">
        <ele>956.040255</ele>
        <time>2022-02-25T03:12:07.479Z</time>
      </trkpt>
      <trkpt lat="38.33407" lon="38.15774">
        <ele>955.506406</ele>
        <time>2022-02-25T03:12:21.710Z</time>
      </trkpt>
      <trkpt lat="38.33406" lon="38.15756">
        <ele>955.380366</ele>
        <time>2022-02-25T03:12:24.989Z</time>
      </trkpt>
      <trkpt lat="38.33412" lon="38.15742">
        <ele>955.259763</ele>
        <time>2022-02-25T03:12:28.391Z</time>
      </trkpt>
      <trkpt lat="38.33454" lon="38.15687">
        <ele>954.696669</ele>
        <time>2022-02-25T03:12:43.299Z</time>
      </trkpt>
      <trkpt lat="38.33481" lon="38.15647">
        <ele>954.293806</ele>
        <time>2022-02-25T03:12:53.233Z</time>
      </trkpt>
      <trkpt lat="38.33481" lon="38.15622">
        <ele>954.047741</ele>
        <time>2022-02-25T03:12:57.744Z</time>
      </trkpt>
      <trkpt lat="38.33472" lon="38.15567">
        <ele>953.466401</ele>
        <time>2022-02-25T03:13:08.146Z</time>
      </trkpt>
      <trkpt lat="38.33443" lon="38.15459">
        <ele>952.304705</ele>
        <time>2022-02-25T03:13:28.680Z</time>
      </trkpt>
      <trkpt lat="38.33439" lon="38.15425">
        <ele>952.007</ele>
        <time>2022-02-25T03:13:35.007Z</time>
      </trkpt>
      <trkpt lat="38.33445" lon="38.1537">
        <ele>951.868336</ele>
        <time>2022-02-25T03:13:45.670Z</time>
      </trkpt>
      <trkpt lat="38.33432" lon="38.15353">
        <ele>951.807642</ele>
        <time>2022-02-25T03:13:50.172Z</time>
      </trkpt>
      <trkpt lat="38.3343" lon="38.15351">
        <ele>951.800087</ele>
        <time>2022-02-25T03:13:51.085Z</time>
      </trkpt>
      <trkpt lat="38.33349" lon="38.1528">
        <ele>951.484249</ele>
        <time>2022-02-25T03:14:18.011Z</time>
      </trkpt>
      <trkpt lat="38.33341" lon="38.15272">
        <ele>951.451034</ele>
        <time>2022-02-25T03:14:21.338Z</time>
      </trkpt>
      <trkpt lat="38.33285" lon="38.15221">
        <ele>951.901297</ele>
        <time>2022-02-25T03:14:43.089Z</time>
      </trkpt>
      <trkpt lat="38.33267" lon="38.15206">
        <ele>952.044693</ele>
        <time>2022-02-25T03:14:50.210Z</time>
      </trkpt>
      <trkpt lat="38.33269" lon="38.15202">
        <ele>952.072801</ele>
        <time>2022-02-25T03:14:51.442Z</time>
      </trkpt>
      <trkpt lat="38.33279" lon="38.15184">
        <ele>952.189384</ele>
        <time>2022-02-25T03:14:57.040Z</time>
      </trkpt>
      <trkpt lat="38.33311" lon="38.15132">
        <ele>952.534023</ele>
        <time>2022-02-25T03:15:12.660Z</time>
      </trkpt>
      <trkpt lat="38.33349" lon="38.15068">
        <ele>952.607268</ele>
        <time>2022-02-25T03:15:30.341Z</time>
      </trkpt>
      <trkpt lat="38.33412" lon="38.14961">
        <ele>952.505145</ele>
        <time>2022-02-25T03:15:57.266Z</time>
      </trkpt>
      <trkpt lat="38.33474" lon="38.14856">
        <ele>952.256479</ele>
        <time>2022-02-25T03:16:23.149Z</time>
      </trkpt>
      <trkpt lat="38.33517" lon="38.14784">
        <ele>952.045948</ele>
        <time>2022-02-25T03:16:41.099Z</time>
      </trkpt>
      <trkpt lat="38.3358" lon="38.14671">
        <ele>951.708984</ele>
        <time>2022-02-25T03:17:09.148Z</time>
      </trkpt>
      <trkpt lat="38.33808" lon="38.14297">
        <ele>949.842638</ele>
        <time>2022-02-25T03:18:41.829Z</time>
      </trkpt>
      <trkpt lat="38.33953" lon="38.14056">
        <ele>945.955935</ele>
        <time>2022-02-25T03:19:34.813Z</time>
      </trkpt>
      <trkpt lat="38.33977" lon="38.14017">
        <ele>945.093489</ele>
        <time>2022-02-25T03:19:42.083Z</time>
      </trkpt>
      <trkpt lat="38.34017" lon="38.13952">
        <ele>941.585894</ele>
        <time>2022-02-25T03:19:54.189Z</time>
      </trkpt>
      <trkpt lat="38.34006" lon="38.13925">
        <ele>940.298948</ele>
        <time>2022-02-25T03:19:58.616Z</time>
      </trkpt>
      <trkpt lat="38.33993" lon="38.13884">
        <ele>938.427375</ele>
        <time>2022-02-25T03:20:05.073Z</time>
      </trkpt>
      <trkpt lat="38.33985" lon="38.13825">
        <ele>935.935598</ele>
        <time>2022-02-25T03:20:13.588Z</time>
      </trkpt>
      <trkpt lat="38.33989" lon="38.13805">
        <ele>935.048239</ele>
        <time>2022-02-25T03:20:16.486Z</time>
      </trkpt>
      <trkpt lat="38.34013" lon="38.13774">
        <ele>933.124753</ele>
        <time>2022-02-25T03:20:22.722Z</time>
      </trkpt>
      <trkpt lat="38.34025" lon="38.13749">
        <ele>931.829882</ele>
        <time>2022-02-25T03:20:26.929Z</time>
      </trkpt>
      <trkpt lat="38.34025" lon="38.13693">
        <ele>929.409063</ele>
        <time>2022-02-25T03:20:34.977Z</time>
      </trkpt>
      <trkpt lat="38.34019" lon="38.13685">
        <ele>928.871394</ele>
        <time>2022-02-25T03:20:36.756Z</time>
      </trkpt>
      <trkpt lat="38.33994" lon="38.13685">
        <ele>927.475907</ele>
        <time>2022-02-25T03:20:41.527Z</time>
      </trkpt>
      <trkpt lat="38.33973" lon="38.13673">
        <ele>926.210017</ele>
        <time>2022-02-25T03:20:45.882Z</time>
      </trkpt>
      <trkpt lat="38.33928" lon="38.13633">
        <ele>924.455233</ele>
        <time>2022-02-25T03:20:56.812Z</time>
      </trkpt>
      <trkpt lat="38.33926" lon="38.13621">
        <ele>924.206915</ele>
        <time>2022-02-25T03:20:58.712Z</time>
      </trkpt>
      <trkpt lat="38.33948" lon="38.13579">
        <ele>923.203554</ele>
        <time>2022-02-25T03:21:07.114Z</time>
      </trkpt>
      <trkpt lat="38.33994" lon="38.13519">
        <ele>921.519455</ele>
        <time>2022-02-25T03:21:21.980Z</time>
      </trkpt>
      <trkpt lat="38.34032" lon="38.13439">
        <ele>920.335436</ele>
        <time>2022-02-25T03:21:39.509Z</time>
      </trkpt>
      <trkpt lat="38.34036" lon="38.13422">
        <ele>920.168563</ele>
        <time>2022-02-25T03:21:42.884Z</time>
      </trkpt>
      <trkpt lat="38.34033" lon="38.13404">
        <ele>919.991579</ele>
        <time>2022-02-25T03:21:46.428Z</time>
      </trkpt>
      <trkpt lat="38.34061" lon="38.13316">
        <ele>919.087803</ele>
        <time>2022-02-25T03:22:04.185Z</time>
      </trkpt>
      <trkpt lat="38.34075" lon="38.13237">
        <ele>918.221864</ele>
        <time>2022-02-25T03:22:18.967Z</time>
      </trkpt>
      <trkpt lat="38.34085" lon="38.13215">
        <ele>917.926717</ele>
        <time>2022-02-25T03:22:23.564Z</time>
      </trkpt>
      <trkpt lat="38.34125" lon="38.13146">
        <ele>916.932489</ele>
        <time>2022-02-25T03:22:38.642Z</time>
      </trkpt>
      <trkpt lat="38.34176" lon="38.13084">
        <ele>916.097693</ele>
        <time>2022-02-25T03:22:55.312Z</time>
      </trkpt>
      <trkpt lat="38.34199" lon="38.13058">
        <ele>916.039617</ele>
        <time>2022-02-25T03:23:02.852Z</time>
      </trkpt>
      <trkpt lat="38.34235" lon="38.13043">
        <ele>915.968222</ele>
        <time>2022-02-25T03:23:12.652Z</time>
      </trkpt>
      <trkpt lat="38.34247" lon="38.13029">
        <ele>915.936665</ele>
        <time>2022-02-25T03:23:17.404Z</time>
      </trkpt>
      <trkpt lat="38.34277" lon="38.12983">
        <ele>915.84848</ele>
        <time>2022-02-25T03:23:30.315Z</time>
      </trkpt>
      <trkpt lat="38.34288" lon="38.12955">
        <ele>915.800938</ele>
        <time>2022-02-25T03:23:37.838Z</time>
      </trkpt>
      <trkpt lat="38.34302" lon="38.12881">
        <ele>916.02297</ele>
        <time>2022-02-25T03:23:56.562Z</time>
      </trkpt>
      <trkpt lat="38.3434" lon="38.12811">
        <ele>916.332763</ele>
        <time>2022-02-25T03:24:18.365Z</time>
      </trkpt>
      <trkpt lat="38.3435" lon="38.12744">
        <ele>916.580638</ele>
        <time>2022-02-25T03:24:34.511Z</time>
      </trkpt>
      <trkpt lat="38.34425" lon="38.12528">
        <ele>914.826747</ele>
        <time>2022-02-25T03:25:19.161Z</time>
      </trkpt>
      <trkpt lat="38.3443" lon="38.12515">
        <ele>914.691931</ele>
        <time>2022-02-25T03:25:21.769Z</time>
      </trkpt>
      <trkpt lat="38.34435" lon="38.12502">
        <ele>914.557555</ele>
        <time>2022-02-25T03:25:24.029Z</time>
      </trkpt>
      <trkpt lat="38.34442" lon="38.12386">
        <ele>913.439</ele>
        <time>2022-02-25T03:25:44.528Z</time>
      </trkpt>
      <trkpt lat="38.3445" lon="38.12336">
        <ele>912.955491</ele>
        <time>2022-02-25T03:25:54.143Z</time>
      </trkpt>
      <trkpt lat="38.34468" lon="38.12296">
        <ele>912.745125</ele>
        <time>2022-02-25T03:26:03.449Z</time>
      </trkpt>
      <trkpt lat="38.34483" lon="38.12275">
        <ele>913.173461</ele>
        <time>2022-02-25T03:26:10.034Z</time>
      </trkpt>
      <trkpt lat="38.34487" lon="38.12271">
        <ele>913.26925</ele>
        <time>2022-02-25T03:26:11.110Z</time>
      </trkpt>
      <trkpt lat="38.34483" lon="38.12264">
        <ele>913.398682</ele>
        <time>2022-02-25T03:26:14.310Z</time>
      </trkpt>
      <trkpt lat="38.34475" lon="38.12177">
        <ele>914.714095</ele>
        <time>2022-02-25T03:26:38.486Z</time>
      </trkpt>
      <trkpt lat="38.34487" lon="38.12052">
        <ele>916.7623</ele>
        <time>2022-02-25T03:27:22.913Z</time>
      </trkpt>
      <trkpt lat="38.34501" lon="38.11956">
        <ele>918.626859</ele>
        <time>2022-02-25T03:27:55.912Z</time>
      </trkpt>
      <trkpt lat="38.34502" lon="38.11934">
        <ele>919.052364</ele>
        <time>2022-02-25T03:28:03.517Z</time>
      </trkpt>
      <trkpt lat="38.34507" lon="38.11901">
        <ele>919.695026</ele>
        <time>2022-02-25T03:28:13.474Z</time>
      </trkpt>
      <trkpt lat="38.34552" lon="38.11658">
        <ele>920.265434</ele>
        <time>2022-02-25T03:29:07.805Z</time>
      </trkpt>
      <trkpt lat="38.34556" lon="38.11642">
        <ele>920.250654</ele>
        <time>2022-02-25T03:29:10.965Z</time>
      </trkpt>
      <trkpt lat="38.34553" lon="38.11623">
        <ele>920.164485</ele>
        <time>2022-02-25T03:29:14.338Z</time>
      </trkpt>
      <trkpt lat="38.34546" lon="38.11541">
        <ele>919.760263</ele>
        <time>2022-02-25T03:29:29.470Z</time>
      </trkpt>
      <trkpt lat="38.3456" lon="38.1146">
        <ele>919.34907</ele>
        <time>2022-02-25T03:29:45.389Z</time>
      </trkpt>
      <trkpt lat="38.34591" lon="38.11325">
        <ele>920.286227</ele>
        <time>2022-02-25T03:30:19.592Z</time>
      </trkpt>
      <trkpt lat="38.34616" lon="38.11121">
        <ele>922.770926</ele>
        <time>2022-02-25T03:31:22.862Z</time>
      </trkpt>
      <trkpt lat="38.34619" lon="38.11023">
        <ele>923.878863</ele>
        <time>2022-02-25T03:31:49.944Z</time>
      </trkpt>
      <trkpt lat="38.34618" lon="38.11003">
        <ele>924.102665</ele>
        <time>2022-02-25T03:31:55.683Z</time>
      </trkpt>
      <trkpt lat="38.34617" lon="38.1099">
        <ele>924.252541</ele>
        <time>2022-02-25T03:31:58.239Z</time>
      </trkpt>
      <trkpt lat="38.34612" lon="38.10911">
        <ele>924.465782</ele>
        <time>2022-02-25T03:32:16.102Z</time>
      </trkpt>
      <trkpt lat="38.34591" lon="38.10752">
        <ele>924.157105</ele>
        <time>2022-02-25T03:32:47.458Z</time>
      </trkpt>
      <trkpt lat="38.34538" lon="38.10513">
        <ele>925.50126</ele>
        <time>2022-02-25T03:33:48.058Z</time>
      </trkpt>
      <trkpt lat="38.34522" lon="38.10404">
        <ele>927.24303</ele>
        <time>2022-02-25T03:34:22.316Z</time>
      </trkpt>
      <trkpt lat="38.34521" lon="38.10383">
        <ele>927.579163</ele>
        <time>2022-02-25T03:34:29.079Z</time>
      </trkpt>
      <trkpt lat="38.34521" lon="38.10364">
        <ele>927.869768</ele>
        <time>2022-02-25T03:34:34.484Z</time>
      </trkpt>
      <trkpt lat="38.34518" lon="38.10335">
        <ele>928.329613</ele>
        <time>2022-02-25T03:34:43.446Z</time>
      </trkpt>
      <trkpt lat="38.34516" lon="38.10319">
        <ele>928.587266</ele>
        <time>2022-02-25T03:34:48.186Z</time>
      </trkpt>
      <trkpt lat="38.34515" lon="38.10306">
        <ele>928.787901</ele>
        <time>2022-02-25T03:34:52.109Z</time>
      </trkpt>
      <trkpt lat="38.3451" lon="38.10207">
        <ele>929.486291</ele>
        <time>2022-02-25T03:35:20.308Z</time>
      </trkpt>
      <trkpt lat="38.34505" lon="38.09924">
        <ele>930.28746</ele>
        <time>2022-02-25T03:36:21.710Z</time>
      </trkpt>
      <trkpt lat="38.34504" lon="38.09858">
        <ele>930.30678</ele>
        <time>2022-02-25T03:36:36.238Z</time>
      </trkpt>
      <trkpt lat="38.34506" lon="38.09843">
        <ele>930.311028</ele>
        <time>2022-02-25T03:36:39.101Z</time>
      </trkpt>
      <trkpt lat="38.34567" lon="38.09387">
        <ele>931.41885</ele>
        <time>2022-02-25T03:38:27.654Z</time>
      </trkpt>
      <trkpt lat="38.3457" lon="38.09156">
        <ele>930.077902</ele>
        <time>2022-02-25T03:39:12.659Z</time>
      </trkpt>
      <trkpt lat="38.34581" lon="38.09097">
        <ele>929.348335</ele>
        <time>2022-02-25T03:39:23.358Z</time>
      </trkpt>
      <trkpt lat="38.34614" lon="38.08998">
        <ele>927.987158</ele>
        <time>2022-02-25T03:39:42.238Z</time>
      </trkpt>
      <trkpt lat="38.34616" lon="38.08991">
        <ele>927.90121</ele>
        <time>2022-02-25T03:39:43.253Z</time>
      </trkpt>
      <trkpt lat="38.34619" lon="38.08982">
        <ele>927.776995</ele>
        <time>2022-02-25T03:39:44.968Z</time>
      </trkpt>
      <trkpt lat="38.34652" lon="38.08875">
        <ele>927.158582</ele>
        <time>2022-02-25T03:40:06.479Z</time>
      </trkpt>
      <trkpt lat="38.34698" lon="38.08746">
        <ele>927.210099</ele>
        <time>2022-02-25T03:40:39.598Z</time>
      </trkpt>
      <trkpt lat="38.34712" lon="38.08713">
        <ele>927.304716</ele>
        <time>2022-02-25T03:40:49.483Z</time>
      </trkpt>
      <trkpt lat="38.34713" lon="38.08701">
        <ele>927.374013</ele>
        <time>2022-02-25T03:40:52.759Z</time>
      </trkpt>
      <trkpt lat="38.34739" lon="38.08641">
        <ele>927.787372</ele>
        <time>2022-02-25T03:41:10.730Z</time>
      </trkpt>
      <trkpt lat="38.34751" lon="38.08625">
        <ele>927.917153</ele>
        <time>2022-02-25T03:41:16.298Z</time>
      </trkpt>
      <trkpt lat="38.34755" lon="38.08615">
        <ele>927.982485</ele>
        <time>2022-02-25T03:41:19.434Z</time>
      </trkpt>
      <trkpt lat="38.3476" lon="38.08612">
        <ele>928.023083</ele>
        <time>2022-02-25T03:41:20.959Z</time>
      </trkpt>
      <trkpt lat="38.34822" lon="38.0849">
        <ele>928.54839</ele>
        <time>2022-02-25T03:41:55.226Z</time>
      </trkpt>
      <trkpt lat="38.34908" lon="38.08362">
        <ele>928.429507</ele>
        <time>2022-02-25T03:42:31.357Z</time>
      </trkpt>
      <trkpt lat="38.35039" lon="38.0814">
        <ele>924.279852</ele>
        <time>2022-02-25T03:43:23.569Z</time>
      </trkpt>
      <trkpt lat="38.35043" lon="38.08128">
        <ele>923.637839</ele>
        <time>2022-02-25T03:43:25.449Z</time>
      </trkpt>
      <trkpt lat="38.35039" lon="38.08103">
        <ele>922.35053</ele>
        <time>2022-02-25T03:43:29.393Z</time>
      </trkpt>
      <trkpt lat="38.35005" lon="38.08055">
        <ele>919.120544</ele>
        <time>2022-02-25T03:43:38.668Z</time>
      </trkpt>
      <trkpt lat="38.34956" lon="38.07899">
        <ele>906.465592</ele>
        <time>2022-02-25T03:44:01.239Z</time>
      </trkpt>
      <trkpt lat="38.34934" lon="38.07867">
        <ele>902.130863</ele>
        <time>2022-02-25T03:44:06.728Z</time>
      </trkpt>
      <trkpt lat="38.34929" lon="38.07793">
        <ele>894.60858</ele>
        <time>2022-02-25T03:44:16.182Z</time>
      </trkpt>
      <trkpt lat="38.34887" lon="38.07705">
        <ele>884.405441</ele>
        <time>2022-02-25T03:44:29.332Z</time>
      </trkpt>
      <trkpt lat="38.34866" lon="38.07638">
        <ele>877.352026</ele>
        <time>2022-02-25T03:44:38.646Z</time>
      </trkpt>
      <trkpt lat="38.34846" lon="38.07605">
        <ele>873.192333</ele>
        <time>2022-02-25T03:44:44.241Z</time>
      </trkpt>
      <trkpt lat="38.3483" lon="38.07545">
        <ele>868.213942</ele>
        <time>2022-02-25T03:44:52.799Z</time>
      </trkpt>
      <trkpt lat="38.3482" lon="38.0753">
        <ele>867.51943</ele>
        <time>2022-02-25T03:44:55.552Z</time>
      </trkpt>
      <trkpt lat="38.34781" lon="38.07518">
        <ele>865.704733</ele>
        <time>2022-02-25T03:45:03.003Z</time>
      </trkpt>
      <trkpt lat="38.34747" lon="38.07493">
        <ele>863.947027</ele>
        <time>2022-02-25T03:45:10.750Z</time>
      </trkpt>
      <trkpt lat="38.34692" lon="38.07477">
        <ele>861.426709</ele>
        <time>2022-02-25T03:45:23.318Z</time>
      </trkpt>
      <trkpt lat="38.34639" lon="38.07439">
        <ele>861.407004</ele>
        <time>2022-02-25T03:45:39.750Z</time>
      </trkpt>
      <trkpt lat="38.34623" lon="38.07414">
        <ele>861.715288</ele>
        <time>2022-02-25T03:45:47.187Z</time>
      </trkpt>
      <trkpt lat="38.34592" lon="38.07339">
        <ele>862.523525</ele>
        <time>2022-02-25T03:46:10.189Z</time>
      </trkpt>
      <trkpt lat="38.34575" lon="38.07312">
        <ele>862.852282</ele>
        <time>2022-02-25T03:46:21.496Z</time>
      </trkpt>
      <trkpt lat="38.34561" lon="38.07257">
        <ele>864.549378</ele>
        <time>2022-02-25T03:46:41.863Z</time>
      </trkpt>
      <trkpt lat="38.34555" lon="38.07251">
        <ele>864.909548</ele>
        <time>2022-02-25T03:46:45.375Z</time>
      </trkpt>
      <trkpt lat="38.34522" lon="38.07265">
        <ele>866.584314</ele>
        <time>2022-02-25T03:47:02.904Z</time>
      </trkpt>
      <trkpt lat="38.34501" lon="38.07263">
        <ele>867.570686</ele>
        <time>2022-02-25T03:47:13.666Z</time>
      </trkpt>
      <trkpt lat="38.34426" lon="38.07231">
        <ele>871.389371</ele>
        <time>2022-02-25T03:47:56.938Z</time>
      </trkpt>
      <trkpt lat="38.34372" lon="38.07218">
        <ele>873.462731</ele>
        <time>2022-02-25T03:48:28.272Z</time>
      </trkpt>
      <trkpt lat="38.34351" lon="38.07202">
        <ele>874.363529</ele>
        <time>2022-02-25T03:48:41.214Z</time>
      </trkpt>
      <trkpt lat="38.3432" lon="38.07195">
        <ele>875.490197</ele>
        <time>2022-02-25T03:48:56.002Z</time>
      </trkpt>
      <trkpt lat="38.34316" lon="38.07159">
        <ele>876.494728</ele>
        <time>2022-02-25T03:49:07.621Z</time>
      </trkpt>
      <trkpt lat="38.34298" lon="38.07143">
        <ele>877.28528</ele>
        <time>2022-02-25T03:49:15.968Z</time>
      </trkpt>
      <trkpt lat="38.34295" lon="38.07107">
        <ele>878.106795</ele>
        <time>2022-02-25T03:49:25.233Z</time>
      </trkpt>
      <trkpt lat="38.34269" lon="38.07097">
        <ele>877.690564</ele>
        <time>2022-02-25T03:49:33.108Z</time>
      </trkpt>
      <trkpt lat="38.34226" lon="38.07056">
        <ele>876.886175</ele>
        <time>2022-02-25T03:49:46.173Z</time>
      </trkpt>
      <trkpt lat="38.3421" lon="38.07005">
        <ele>876.244766</ele>
        <time>2022-02-25T03:49:55.182Z</time>
      </trkpt>
      <trkpt lat="38.34187" lon="38.06906">
        <ele>875.164777</ele>
        <time>2022-02-25T03:50:11.745Z</time>
      </trkpt>
      <trkpt lat="38.34167" lon="38.06903">
        <ele>874.953856</ele>
        <time>2022-02-25T03:50:16.239Z</time>
      </trkpt>
      <trkpt lat="38.34134" lon="38.06875">
        <ele>874.54147</ele>
        <time>2022-02-25T03:50:25.281Z</time>
      </trkpt>
      <trkpt lat="38.34122" lon="38.06844">
        <ele>874.259748</ele>
        <time>2022-02-25T03:50:31.868Z</time>
      </trkpt>
      <trkpt lat="38.34113" lon="38.06807">
        <ele>873.946871</ele>
        <time>2022-02-25T03:50:39.884Z</time>
      </trkpt>
      <trkpt lat="38.341" lon="38.06797">
        <ele>873.788833</ele>
        <time>2022-02-25T03:50:44.136Z</time>
      </trkpt>
      <trkpt lat="38.34088" lon="38.06796">
        <ele>873.656831</ele>
        <time>2022-02-25T03:50:48.126Z</time>
      </trkpt>
      <trkpt lat="38.34065" lon="38.06818">
        <ele>873.860614</ele>
        <time>2022-02-25T03:50:58.175Z</time>
      </trkpt>
      <trkpt lat="38.34051" lon="38.0682">
        <ele>874.016542</ele>
        <time>2022-02-25T03:51:03.300Z</time>
      </trkpt>
      <trkpt lat="38.3404" lon="38.06803">
        <ele>874.223277</ele>
        <time>2022-02-25T03:51:09.412Z</time>
      </trkpt>
      <trkpt lat="38.34006" lon="38.06796">
        <ele>874.623793</ele>
        <time>2022-02-25T03:51:22.739Z</time>
      </trkpt>
      <trkpt lat="38.33947" lon="38.06745">
        <ele>875.453559</ele>
        <time>2022-02-25T03:51:48.043Z</time>
      </trkpt>
      <trkpt lat="38.33933" lon="38.06722">
        <ele>875.602296</ele>
        <time>2022-02-25T03:51:55.033Z</time>
      </trkpt>
      <trkpt lat="38.33924" lon="38.0667">
        <ele>874.242964</ele>
        <time>2022-02-25T03:52:05.200Z</time>
      </trkpt>
      <trkpt lat="38.33921" lon="38.0662">
        <ele>872.932269</ele>
        <time>2022-02-25T03:52:14.379Z</time>
      </trkpt>
      <trkpt lat="38.33913" lon="38.06608">
        <ele>872.533757</ele>
        <time>2022-02-25T03:52:16.912Z</time>
      </trkpt>
      <trkpt lat="38.33866" lon="38.06577">
        <ele>870.792103</ele>
        <time>2022-02-25T03:52:26.957Z</time>
      </trkpt>
      <trkpt lat="38.33853" lon="38.06555">
        <ele>870.084719</ele>
        <time>2022-02-25T03:52:30.866Z</time>
      </trkpt>
      <trkpt lat="38.33832" lon="38.06493">
        <ele>866.347193</ele>
        <time>2022-02-25T03:52:40.377Z</time>
      </trkpt>
      <trkpt lat="38.33822" lon="38.06484">
        <ele>865.381451</ele>
        <time>2022-02-25T03:52:42.609Z</time>
      </trkpt>
      <trkpt lat="38.33804" lon="38.06483">
        <ele>864.023255</ele>
        <time>2022-02-25T03:52:45.620Z</time>
      </trkpt>
      <trkpt lat="38.3382" lon="38.06459">
        <ele>862.096362</ele>
        <time>2022-02-25T03:52:49.882Z</time>
      </trkpt>
      <trkpt lat="38.33873" lon="38.06383">
        <ele>855.846725</ele>
        <time>2022-02-25T03:53:03.802Z</time>
      </trkpt>
      <trkpt lat="38.33873" lon="38.06369">
        <ele>855.434291</ele>
        <time>2022-02-25T03:53:05.643Z</time>
      </trkpt>
      <trkpt lat="38.33939" lon="38.06308">
        <ele>853.231612</ele>
        <time>2022-02-25T03:53:20.083Z</time>
      </trkpt>
      <trkpt lat="38.33994" lon="38.06267">
        <ele>851.486569</ele>
        <time>2022-02-25T03:53:33.865Z</time>
      </trkpt>
      <trkpt lat="38.34139" lon="38.06141">
        <ele>858.255541</ele>
        <time>2022-02-25T03:55:02.331Z</time>
      </trkpt>
      <trkpt lat="38.34157" lon="38.06126">
        <ele>859.357308</ele>
        <time>2022-02-25T03:55:16.572Z</time>
      </trkpt>
      <trkpt lat="38.34321" lon="38.0598">
        <ele>872.435071</ele>
        <time>2022-02-25T03:57:14.981Z</time>
      </trkpt>
      <trkpt lat="38.34402" lon="38.059">
        <ele>878.095133</ele>
        <time>2022-02-25T03:58:12.216Z</time>
      </trkpt>
      <trkpt lat="38.34479" lon="38.05813">
        <ele>882.324993</ele>
        <time>2022-02-25T03:59:02.959Z</time>
      </trkpt>
      <trkpt lat="38.34527" lon="38.05746">
        <ele>883.353441</ele>
        <time>2022-02-25T03:59:29.548Z</time>
      </trkpt>
      <trkpt lat="38.34652" lon="38.05543">
        <ele>883.269042</ele>
        <time>2022-02-25T04:00:15.590Z</time>
      </trkpt>
      <trkpt lat="38.34706" lon="38.05454">
        <ele>883.464913</ele>
        <time>2022-02-25T04:00:37.062Z</time>
      </trkpt>
      <trkpt lat="38.34793" lon="38.05312">
        <ele>885.768705</ele>
        <time>2022-02-25T04:01:28.339Z</time>
      </trkpt>
      <trkpt lat="38.34957" lon="38.04999">
        <ele>898.635833</ele>
        <time>2022-02-25T04:03:51.156Z</time>
      </trkpt>
      <trkpt lat="38.35097" lon="38.04732">
        <ele>910.862686</ele>
        <time>2022-02-25T04:05:56.362Z</time>
      </trkpt>
      <trkpt lat="38.35148" lon="38.04644">
        <ele>915.639166</ele>
        <time>2022-02-25T04:06:43.462Z</time>
      </trkpt>
      <trkpt lat="38.35178" lon="38.04593">
        <ele>918.40148</ele>
        <time>2022-02-25T04:07:10.508Z</time>
      </trkpt>
      <trkpt lat="38.35184" lon="38.04582">
        <ele>918.969741</ele>
        <time>2022-02-25T04:07:16.856Z</time>
      </trkpt>
      <trkpt lat="38.35236" lon="38.04476">
        <ele>923.249829</ele>
        <time>2022-02-25T04:08:06.358Z</time>
      </trkpt>
      <trkpt lat="38.35245" lon="38.04454">
        <ele>923.995627</ele>
        <time>2022-02-25T04:08:16.105Z</time>
      </trkpt>
      <trkpt lat="38.35244" lon="38.04438">
        <ele>924.510994</ele>
        <time>2022-02-25T04:08:21.749Z</time>
      </trkpt>
      <trkpt lat="38.35236" lon="38.04424">
        <ele>925.022204</ele>
        <time>2022-02-25T04:08:28.470Z</time>
      </trkpt>
      <trkpt lat="38.35216" lon="38.04412">
        <ele>925.901465</ele>
        <time>2022-02-25T04:08:37.498Z</time>
      </trkpt>
      <trkpt lat="38.35196" lon="38.04391">
        <ele>926.926438</ele>
        <time>2022-02-25T04:08:47.671Z</time>
      </trkpt>
      <trkpt lat="38.35102" lon="38.04178">
        <ele>930.210441</ele>
        <time>2022-02-25T04:09:52.249Z</time>
      </trkpt>
      <trkpt lat="38.34763" lon="38.03378">
        <ele>938.135248</ele>
        <time>2022-02-25T04:13:40.028Z</time>
      </trkpt>
      <trkpt lat="38.347" lon="38.03221">
        <ele>939.525715</ele>
        <time>2022-02-25T04:14:25.062Z</time>
      </trkpt>
      <trkpt lat="38.34694" lon="38.03171">
        <ele>939.922429</ele>
        <time>2022-02-25T04:14:37.775Z</time>
      </trkpt>
      <trkpt lat="38.34724" lon="38.02505">
        <ele>940.865766</ele>
        <time>2022-02-25T04:17:05.099Z</time>
      </trkpt>
      <trkpt lat="38.34724" lon="38.02441">
        <ele>941.378937</ele>
        <time>2022-02-25T04:17:21.437Z</time>
      </trkpt>
      <trkpt lat="38.34724" lon="38.02396">
        <ele>942.040891</ele>
        <time>2022-02-25T04:17:33.708Z</time>
      </trkpt>
      <trkpt lat="38.34736" lon="38.02393">
        <ele>942.255526</ele>
        <time>2022-02-25T04:17:38.196Z</time>
      </trkpt>
      <trkpt lat="38.3474" lon="38.02377">
        <ele>942.505766</ele>
        <time>2022-02-25T04:17:42.888Z</time>
      </trkpt>
      <trkpt lat="38.34736" lon="38.02264">
        <ele>944.170551</ele>
        <time>2022-02-25T04:18:17.335Z</time>
      </trkpt>
      <trkpt lat="38.34741" lon="38.02169">
        <ele>945.978845</ele>
        <time>2022-02-25T04:18:47.948Z</time>
      </trkpt>
      <trkpt lat="38.34831" lon="38.02021">
        <ele>949.276671</ele>
        <time>2022-02-25T04:19:45.880Z</time>
      </trkpt>
      <trkpt lat="38.34948" lon="38.01884">
        <ele>951.516189</ele>
        <time>2022-02-25T04:20:40.360Z</time>
      </trkpt>
      <trkpt lat="38.34985" lon="38.0183">
        <ele>951.739969</ele>
        <time>2022-02-25T04:20:57.193Z</time>
      </trkpt>
      <trkpt lat="38.34996" lon="38.01815">
        <ele>951.804529</ele>
        <time>2022-02-25T04:21:01.723Z</time>
      </trkpt>
      <trkpt lat="38.35074" lon="38.01699">
        <ele>952.390924</ele>
        <time>2022-02-25T04:21:35.208Z</time>
      </trkpt>
      <trkpt lat="38.35161" lon="38.01595">
        <ele>953.416372</ele>
        <time>2022-02-25T04:22:13.588Z</time>
      </trkpt>
      <trkpt lat="38.35201" lon="38.01551">
        <ele>953.912703</ele>
        <time>2022-02-25T04:22:31.761Z</time>
      </trkpt>
      <trkpt lat="38.35211" lon="38.0154">
        <ele>954.068645</ele>
        <time>2022-02-25T04:22:36.576Z</time>
      </trkpt>
      <trkpt lat="38.35235" lon="38.01519">
        <ele>954.391673</ele>
        <time>2022-02-25T04:22:46.554Z</time>
      </trkpt>
      <trkpt lat="38.35256" lon="38.015">
        <ele>954.68111</ele>
        <time>2022-02-25T04:22:55.538Z</time>
      </trkpt>
      <trkpt lat="38.35282" lon="38.01473">
        <ele>955.052974</ele>
        <time>2022-02-25T04:23:06.996Z</time>
      </trkpt>
      <trkpt lat="38.35491" lon="38.01217">
        <ele>957.19322</ele>
        <time>2022-02-25T04:24:36.072Z</time>
      </trkpt>
      <trkpt lat="38.356" lon="38.01052">
        <ele>958.794691</ele>
        <time>2022-02-25T04:25:29.392Z</time>
      </trkpt>
      <trkpt lat="38.35608" lon="38.01028">
        <ele>959.117043</ele>
        <time>2022-02-25T04:25:36.789Z</time>
      </trkpt>
      <trkpt lat="38.35611" lon="38.01023">
        <ele>959.184184</ele>
        <time>2022-02-25T04:25:38.276Z</time>
      </trkpt>
      <trkpt lat="38.35595" lon="38.00962">
        <ele>959.975013</ele>
        <time>2022-02-25T04:25:56.422Z</time>
      </trkpt>
      <trkpt lat="38.35568" lon="38.00864">
        <ele>961.268717</ele>
        <time>2022-02-25T04:26:26.498Z</time>
      </trkpt>
      <trkpt lat="38.35567" lon="38.00861">
        <ele>961.318669</ele>
        <time>2022-02-25T04:26:28.173Z</time>
      </trkpt>
      <trkpt lat="38.35542" lon="38.00781">
        <ele>962.429652</ele>
        <time>2022-02-25T04:26:52.748Z</time>
      </trkpt>
      <trkpt lat="38.35526" lon="38.00735">
        <ele>963.081029</ele>
        <time>2022-02-25T04:27:07.057Z</time>
      </trkpt>
      <trkpt lat="38.35525" lon="38.00719">
        <ele>963.290501</ele>
        <time>2022-02-25T04:27:11.511Z</time>
      </trkpt>
      <trkpt lat="38.35531" lon="38.00707">
        <ele>963.471649</ele>
        <time>2022-02-25T04:27:15.196Z</time>
      </trkpt>
      <trkpt lat="38.35669" lon="38.00556">
        <ele>965.587071</ele>
        <time>2022-02-25T04:28:14.931Z</time>
      </trkpt>
      <trkpt lat="38.35746" lon="38.00461">
        <ele>966.857669</ele>
        <time>2022-02-25T04:28:50.307Z</time>
      </trkpt>
      <trkpt lat="38.3576" lon="38.00443">
        <ele>967.09899</ele>
        <time>2022-02-25T04:28:57.044Z</time>
      </trkpt>
      <trkpt lat="38.3575" lon="38.00411">
        <ele>967.434468</ele>
        <time>2022-02-25T04:29:06.334Z</time>
      </trkpt>
      <trkpt lat="38.35734" lon="38.00362">
        <ele>967.946045</ele>
        <time>2022-02-25T04:29:20.597Z</time>
      </trkpt>
      <trkpt lat="38.35734" lon="38.00341">
        <ele>968.140206</ele>
        <time>2022-02-25T04:29:26.094Z</time>
      </trkpt>
      <trkpt lat="38.35737" lon="38.00336">
        <ele>968.203742</ele>
        <time>2022-02-25T04:29:27.956Z</time>
      </trkpt>
      <trkpt lat="38.35737" lon="38.00321">
        <ele>968.338535</ele>
        <time>2022-02-25T04:29:31.918Z</time>
      </trkpt>
      <trkpt lat="38.35752" lon="38.00266">
        <ele>968.87459</ele>
        <time>2022-02-25T04:29:47.777Z</time>
      </trkpt>
      <trkpt lat="38.35787" lon="38.00115">
        <ele>970.249948</ele>
        <time>2022-02-25T04:30:28.718Z</time>
      </trkpt>
      <trkpt lat="38.35814" lon="38.00051">
        <ele>970.518423</ele>
        <time>2022-02-25T04:30:46.405Z</time>
      </trkpt>
      <trkpt lat="38.35846" lon="38.00002">
        <ele>970.751605</ele>
        <time>2022-02-25T04:31:00.746Z</time>
      </trkpt>
      <trkpt lat="38.35883" lon="37.99968">
        <ele>970.965406</ele>
        <time>2022-02-25T04:31:14.089Z</time>
      </trkpt>
      <trkpt lat="38.35902" lon="37.99962">
        <ele>971.058457</ele>
        <time>2022-02-25T04:31:19.774Z</time>
      </trkpt>
      <trkpt lat="38.35928" lon="37.99964">
        <ele>971.181254</ele>
        <time>2022-02-25T04:31:27.303Z</time>
      </trkpt>
      <trkpt lat="38.35967" lon="37.99979">
        <ele>971.377366</ele>
        <time>2022-02-25T04:31:39.165Z</time>
      </trkpt>
      <trkpt lat="38.3598" lon="37.99977">
        <ele>971.440478</ele>
        <time>2022-02-25T04:31:42.689Z</time>
      </trkpt>
      <trkpt lat="38.35992" lon="37.99966">
        <ele>971.513322</ele>
        <time>2022-02-25T04:31:47.603Z</time>
      </trkpt>
      <trkpt lat="38.35997" lon="37.99948">
        <ele>971.585353</ele>
        <time>2022-02-25T04:31:51.921Z</time>
      </trkpt>
      <trkpt lat="38.35998" lon="37.999">
        <ele>971.764084</ele>
        <time>2022-02-25T04:32:03.336Z</time>
      </trkpt>
      <trkpt lat="38.36012" lon="37.99855">
        <ele>972.024301</ele>
        <time>2022-02-25T04:32:15.260Z</time>
      </trkpt>
      <trkpt lat="38.3603" lon="37.99811">
        <ele>972.593332</ele>
        <time>2022-02-25T04:32:27.626Z</time>
      </trkpt>
      <trkpt lat="38.36062" lon="37.99761">
        <ele>973.35377</ele>
        <time>2022-02-25T04:32:45.706Z</time>
      </trkpt>
      <trkpt lat="38.36074" lon="37.99699">
        <ele>974.091596</ele>
        <time>2022-02-25T04:33:03.807Z</time>
      </trkpt>
      <trkpt lat="38.36083" lon="37.99595">
        <ele>975.707861</ele>
        <time>2022-02-25T04:33:34.427Z</time>
      </trkpt>
      <trkpt lat="38.36086" lon="37.99591">
        <ele>975.811642</ele>
        <time>2022-02-25T04:33:36.579Z</time>
      </trkpt>
      <trkpt lat="38.36098" lon="37.99554">
        <ele>976.531939</ele>
        <time>2022-02-25T04:33:48.007Z</time>
      </trkpt>
      <trkpt lat="38.36198" lon="37.99394">
        <ele>980.2077</ele>
        <time>2022-02-25T04:34:52.297Z</time>
      </trkpt>
      <trkpt lat="38.36229" lon="37.99379">
        <ele>980.951583</ele>
        <time>2022-02-25T04:35:04.607Z</time>
      </trkpt>
      <trkpt lat="38.36234" lon="37.99373">
        <ele>981.106842</ele>
        <time>2022-02-25T04:35:07.653Z</time>
      </trkpt>
      <trkpt lat="38.36247" lon="37.99367">
        <ele>981.415821</ele>
        <time>2022-02-25T04:35:12.839Z</time>
      </trkpt>
      <trkpt lat="38.36275" lon="37.99357">
        <ele>982.097626</ele>
        <time>2022-02-25T04:35:24.208Z</time>
      </trkpt>
      <trkpt lat="38.3631" lon="37.9932">
        <ele>983.072342</ele>
        <time>2022-02-25T04:35:40.950Z</time>
      </trkpt>
      <trkpt lat="38.3638" lon="37.9924">
        <ele>984.963054</ele>
        <time>2022-02-25T04:36:15.799Z</time>
      </trkpt>
      <trkpt lat="38.36448" lon="37.99154">
        <ele>987.06737</ele>
        <time>2022-02-25T04:36:51.268Z</time>
      </trkpt>
      <trkpt lat="38.36473" lon="37.99115">
        <ele>988.201688</ele>
        <time>2022-02-25T04:37:07.280Z</time>
      </trkpt>
      <trkpt lat="38.36506" lon="37.99074">
        <ele>989.500174</ele>
        <time>2022-02-25T04:37:26.340Z</time>
      </trkpt>
      <trkpt lat="38.36591" lon="37.99054">
        <ele>992.122607</ele>
        <time>2022-02-25T04:38:04.041Z</time>
      </trkpt>
      <trkpt lat="38.3663" lon="37.99039">
        <ele>993.707749</ele>
        <time>2022-02-25T04:38:22.384Z</time>
      </trkpt>
      <trkpt lat="38.36655" lon="37.99021">
        <ele>994.80454</ele>
        <time>2022-02-25T04:38:35.617Z</time>
      </trkpt>
      <trkpt lat="38.36708" lon="37.98944">
        <ele>997.943213</ele>
        <time>2022-02-25T04:39:13.947Z</time>
      </trkpt>
      <trkpt lat="38.36738" lon="37.98915">
        <ele>999.467612</ele>
        <time>2022-02-25T04:39:32.060Z</time>
      </trkpt>
      <trkpt lat="38.36773" lon="37.98895">
        <ele>1001.049006</ele>
        <time>2022-02-25T04:39:50.412Z</time>
      </trkpt>
      <trkpt lat="38.36782" lon="37.98866">
        <ele>1002.074985</ele>
        <time>2022-02-25T04:40:02.034Z</time>
      </trkpt>
      <trkpt lat="38.36808" lon="37.98788">
        <ele>1004.843245</ele>
        <time>2022-02-25T04:40:33.362Z</time>
      </trkpt>
      <trkpt lat="38.36826" lon="37.98736">
        <ele>1006.549664</ele>
        <time>2022-02-25T04:40:53.659Z</time>
      </trkpt>
      <trkpt lat="38.36843" lon="37.98663">
        <ele>1008.667163</ele>
        <time>2022-02-25T04:41:20.684Z</time>
      </trkpt>
      <trkpt lat="38.36865" lon="37.98485">
        <ele>1013.486132</ele>
        <time>2022-02-25T04:42:20.359Z</time>
      </trkpt>
      <trkpt lat="38.36871" lon="37.98426">
        <ele>1014.890523</ele>
        <time>2022-02-25T04:42:38.972Z</time>
      </trkpt>
      <trkpt lat="38.36864" lon="37.98405">
        <ele>1015.445574</ele>
        <time>2022-02-25T04:42:45.989Z</time>
      </trkpt>
      <trkpt lat="38.36855" lon="37.98377">
        <ele>1016.159687</ele>
        <time>2022-02-25T04:42:55.682Z</time>
      </trkpt>
      <trkpt lat="38.36852" lon="37.98365">
        <ele>1016.471903</ele>
        <time>2022-02-25T04:43:00.454Z</time>
      </trkpt>
      <trkpt lat="38.36839" lon="37.98316">
        <ele>1017.691253</ele>
        <time>2022-02-25T04:43:16.988Z</time>
      </trkpt>
      <trkpt lat="38.36835" lon="37.98303">
        <ele>1018.033962</ele>
        <time>2022-02-25T04:43:21.586Z</time>
      </trkpt>
      <trkpt lat="38.36831" lon="37.98288">
        <ele>1018.420036</ele>
        <time>2022-02-25T04:43:27.277Z</time>
      </trkpt>
      <trkpt lat="38.36852" lon="37.9828">
        <ele>1019.0949</ele>
        <time>2022-02-25T04:43:36.618Z</time>
      </trkpt>
      <trkpt lat="38.36886" lon="37.98278">
        <ele>1020.159948</ele>
        <time>2022-02-25T04:43:51.307Z</time>
      </trkpt>
      <trkpt lat="38.369" lon="37.9828">
        <ele>1020.590957</ele>
        <time>2022-02-25T04:43:57.538Z</time>
      </trkpt>
      <trkpt lat="38.3691" lon="37.98282">
        <ele>1020.88562</ele>
        <time>2022-02-25T04:44:01.969Z</time>
      </trkpt>
      <trkpt lat="38.36956" lon="37.98304">
        <ele>1022.42272</ele>
        <time>2022-02-25T04:44:22.764Z</time>
      </trkpt>
      <trkpt lat="38.36962" lon="37.98305">
        <ele>1022.583273</ele>
        <time>2022-02-25T04:44:25.602Z</time>
      </trkpt>
      <trkpt lat="38.36987" lon="37.98328">
        <ele>1023.473956</ele>
        <time>2022-02-25T04:44:38.232Z</time>
      </trkpt>
      <trkpt lat="38.371" lon="37.98443">
        <ele>1026.886999</ele>
        <time>2022-02-25T04:45:35.616Z</time>
      </trkpt>
      <trkpt lat="38.37208" lon="37.98528">
        <ele>1029.168247</ele>
        <time>2022-02-25T04:46:20.567Z</time>
      </trkpt>
      <trkpt lat="38.37281" lon="37.98573">
        <ele>1030.481321</ele>
        <time>2022-02-25T04:46:49.236Z</time>
      </trkpt>
      <trkpt lat="38.37452" lon="37.9862">
        <ele>1033.194891</ele>
        <time>2022-02-25T04:47:51.165Z</time>
      </trkpt>
      <trkpt lat="38.37479" lon="37.98619">
        <ele>1033.653361</ele>
        <time>2022-02-25T04:48:00.329Z</time>
      </trkpt>
      <trkpt lat="38.37502" lon="37.98624">
        <ele>1034.073177</ele>
        <time>2022-02-25T04:48:08.522Z</time>
      </trkpt>
      <trkpt lat="38.37682" lon="37.98707">
        <ele>1037.756296</ele>
        <time>2022-02-25T04:49:18.956Z</time>
      </trkpt>
      <trkpt lat="38.37692" lon="37.98713">
        <ele>1038.014518</ele>
        <time>2022-02-25T04:49:23.648Z</time>
      </trkpt>
      <trkpt lat="38.37701" lon="37.98719">
        <ele>1038.228474</ele>
        <time>2022-02-25T04:49:27.416Z</time>
      </trkpt>
      <trkpt lat="38.37746" lon="37.98739">
        <ele>1039.329006</ele>
        <time>2022-02-25T04:49:45.939Z</time>
      </trkpt>
      <trkpt lat="38.37814" lon="37.98755">
        <ele>1041.100626</ele>
        <time>2022-02-25T04:50:13.558Z</time>
      </trkpt>
      <trkpt lat="38.37905" lon="37.98795">
        <ele>1044.544924</ele>
        <time>2022-02-25T04:50:53.403Z</time>
      </trkpt>
      <trkpt lat="38.37959" lon="37.98827">
        <ele>1046.669817</ele>
        <time>2022-02-25T04:51:23.259Z</time>
      </trkpt>
      <trkpt lat="38.37971" lon="37.98829">
        <ele>1047.207374</ele>
        <time>2022-02-25T04:51:28.465Z</time>
      </trkpt>
      <trkpt lat="38.37984" lon="37.98826">
        <ele>1048.134028</ele>
        <time>2022-02-25T04:51:36.448Z</time>
      </trkpt>
      <trkpt lat="38.37987" lon="37.98793">
        <ele>1049.950245</ele>
        <time>2022-02-25T04:51:50.004Z</time>
      </trkpt>
      <trkpt lat="38.37988" lon="37.98746">
        <ele>1052.458397</ele>
        <time>2022-02-25T04:52:11.054Z</time>
      </trkpt>
      <trkpt lat="38.38003" lon="37.98728">
        <ele>1053.850369</ele>
        <time>2022-02-25T04:52:23.901Z</time>
      </trkpt>
      <trkpt lat="38.3803" lon="37.98706">
        <ele>1056.041672</ele>
        <time>2022-02-25T04:52:43.849Z</time>
      </trkpt>
      <trkpt lat="38.38168" lon="37.98565">
        <ele>1071.318645</ele>
        <time>2022-02-25T04:54:47.437Z</time>
      </trkpt>
      <trkpt lat="38.38187" lon="37.98509">
        <ele>1075.683303</ele>
        <time>2022-02-25T04:55:24.939Z</time>
      </trkpt>
      <trkpt lat="38.38194" lon="37.98474">
        <ele>1078.341041</ele>
        <time>2022-02-25T04:55:48.110Z</time>
      </trkpt>
      <trkpt lat="38.38192" lon="37.9844">
        <ele>1080.758654</ele>
        <time>2022-02-25T04:56:09.209Z</time>
      </trkpt>
      <trkpt lat="38.38203" lon="37.98392">
        <ele>1084.409741</ele>
        <time>2022-02-25T04:56:38.151Z</time>
      </trkpt>
      <trkpt lat="38.38203" lon="37.98358">
        <ele>1086.830833</ele>
        <time>2022-02-25T04:56:58.464Z</time>
      </trkpt>
      <trkpt lat="38.38222" lon="37.98363">
        <ele>1088.587106</ele>
        <time>2022-02-25T04:57:09.833Z</time>
      </trkpt>
      <trkpt lat="38.38226" lon="37.98364">
        <ele>1088.975588</ele>
        <time>2022-02-25T04:57:12.675Z</time>
      </trkpt>
      <trkpt lat="38.38232" lon="37.98364">
        <ele>1089.473841</ele>
        <time>2022-02-25T04:57:18.084Z</time>
      </trkpt>
      <trkpt lat="38.38283" lon="37.98343">
        <ele>1093.813498</ele>
        <time>2022-02-25T04:57:51.698Z</time>
      </trkpt>
      <trkpt lat="38.38357" lon="37.98287">
        <ele>1099.085723</ele>
        <time>2022-02-25T04:58:42.621Z</time>
      </trkpt>
      <trkpt lat="38.38371" lon="37.9829">
        <ele>1099.933391</ele>
        <time>2022-02-25T04:58:50.205Z</time>
      </trkpt>
      <trkpt lat="38.38387" lon="37.98317">
        <ele>1101.535022</ele>
        <time>2022-02-25T04:59:02.802Z</time>
      </trkpt>
      <trkpt lat="38.38416" lon="37.98351">
        <ele>1103.948027</ele>
        <time>2022-02-25T04:59:22.976Z</time>
      </trkpt>
      <trkpt lat="38.38437" lon="37.98357">
        <ele>1105.218774</ele>
        <time>2022-02-25T04:59:34.391Z</time>
      </trkpt>
      <trkpt lat="38.38494" lon="37.98319">
        <ele>1109.105745</ele>
        <time>2022-02-25T05:00:11.204Z</time>
      </trkpt>
      <trkpt lat="38.38521" lon="37.98288">
        <ele>1111.261428</ele>
        <time>2022-02-25T05:00:32.470Z</time>
      </trkpt>
      <trkpt lat="38.38538" lon="37.98227">
        <ele>1114.301107</ele>
        <time>2022-02-25T05:01:02.579Z</time>
      </trkpt>
      <trkpt lat="38.38538" lon="37.98178">
        <ele>1116.229794</ele>
        <time>2022-02-25T05:01:24.672Z</time>
      </trkpt>
      <trkpt lat="38.38528" lon="37.98108">
        <ele>1119.057002</ele>
        <time>2022-02-25T05:01:55.707Z</time>
      </trkpt>
      <trkpt lat="38.38547" lon="37.98006">
        <ele>1123.24095</ele>
        <time>2022-02-25T05:02:38.200Z</time>
      </trkpt>
      <trkpt lat="38.38545" lon="37.97956">
        <ele>1122.776414</ele>
        <time>2022-02-25T05:02:53.020Z</time>
      </trkpt>
      <trkpt lat="38.38535" lon="37.9791">
        <ele>1122.173268</ele>
        <time>2022-02-25T05:03:03.995Z</time>
      </trkpt>
      <trkpt lat="38.38508" lon="37.97849">
        <ele>1121.286843</ele>
        <time>2022-02-25T05:03:15.466Z</time>
      </trkpt>
      <trkpt lat="38.38502" lon="37.97824">
        <ele>1120.948739</ele>
        <time>2022-02-25T05:03:20.399Z</time>
      </trkpt>
      <trkpt lat="38.38503" lon="37.97816">
        <ele>1120.857201</ele>
        <time>2022-02-25T05:03:21.316Z</time>
      </trkpt>
      <trkpt lat="38.38518" lon="37.9774">
        <ele>1117.138052</ele>
        <time>2022-02-25T05:03:32.839Z</time>
      </trkpt>
      <trkpt lat="38.38523" lon="37.97737">
        <ele>1116.65856</ele>
        <time>2022-02-25T05:03:33.802Z</time>
      </trkpt>
      <trkpt lat="38.38563" lon="37.97756">
        <ele>1112.842646</ele>
        <time>2022-02-25T05:03:41.155Z</time>
      </trkpt>
      <trkpt lat="38.38594" lon="37.97741">
        <ele>1109.845597</ele>
        <time>2022-02-25T05:03:46.919Z</time>
      </trkpt>
      <trkpt lat="38.38599" lon="37.97745">
        <ele>1109.377881</ele>
        <time>2022-02-25T05:03:47.810Z</time>
      </trkpt>
      <trkpt lat="38.386" lon="37.97784">
        <ele>1106.633898</ele>
        <time>2022-02-25T05:03:53.089Z</time>
      </trkpt>
      <trkpt lat="38.38626" lon="37.97824">
        <ele>1103.043219</ele>
        <time>2022-02-25T05:03:59.968Z</time>
      </trkpt>
      <trkpt lat="38.38651" lon="37.9782">
        <ele>1100.78335</ele>
        <time>2022-02-25T05:04:04.328Z</time>
      </trkpt>
      <trkpt lat="38.38661" lon="37.97801">
        <ele>1099.176882</ele>
        <time>2022-02-25T05:04:07.372Z</time>
      </trkpt>
      <trkpt lat="38.38678" lon="37.97796">
        <ele>1097.665941</ele>
        <time>2022-02-25T05:04:10.341Z</time>
      </trkpt>
      <trkpt lat="38.38691" lon="37.9782">
        <ele>1095.69391</ele>
        <time>2022-02-25T05:04:14.139Z</time>
      </trkpt>
      <trkpt lat="38.38707" lon="37.9783">
        <ele>1094.071508</ele>
        <time>2022-02-25T05:04:17.383Z</time>
      </trkpt>
      <trkpt lat="38.38727" lon="37.9787">
        <ele>1090.74175</ele>
        <time>2022-02-25T05:04:24.012Z</time>
      </trkpt>
      <trkpt lat="38.38735" lon="37.97875">
        <ele>1089.976793</ele>
        <time>2022-02-25T05:04:25.477Z</time>
      </trkpt>
      <trkpt lat="38.3875" lon="37.98016">
        <ele>1083.507063</ele>
        <time>2022-02-25T05:04:45.119Z</time>
      </trkpt>
      <trkpt lat="38.38755" lon="37.98075">
        <ele>1081.046574</ele>
        <time>2022-02-25T05:04:53.657Z</time>
      </trkpt>
      <trkpt lat="38.38752" lon="37.98164">
        <ele>1077.874588</ele>
        <time>2022-02-25T05:05:07.041Z</time>
      </trkpt>
      <trkpt lat="38.38743" lon="37.98233">
        <ele>1075.871124</ele>
        <time>2022-02-25T05:05:17.558Z</time>
      </trkpt>
      <trkpt lat="38.38725" lon="37.98308">
        <ele>1073.624541</ele>
        <time>2022-02-25T05:05:29.307Z</time>
      </trkpt>
      <trkpt lat="38.38695" lon="37.98393">
        <ele>1071.666277</ele>
        <time>2022-02-25T05:05:43.163Z</time>
      </trkpt>
      <trkpt lat="38.38667" lon="37.98456">
        <ele>1070.567874</ele>
        <time>2022-02-25T05:05:54.687Z</time>
      </trkpt>
      <trkpt lat="38.38639" lon="37.98505">
        <ele>1069.648191</ele>
        <time>2022-02-25T05:06:05.280Z</time>
      </trkpt>
      <trkpt lat="38.38615" lon="37.98536">
        <ele>1068.99115</ele>
        <time>2022-02-25T05:06:13.810Z</time>
      </trkpt>
      <trkpt lat="38.38624" lon="37.98543">
        <ele>1069.203928</ele>
        <time>2022-02-25T05:06:16.907Z</time>
      </trkpt>
      <trkpt lat="38.38647" lon="37.98514">
        <ele>1069.88885</ele>
        <time>2022-02-25T05:06:26.927Z</time>
      </trkpt>
      <trkpt lat="38.38676" lon="37.98463">
        <ele>1070.910755</ele>
        <time>2022-02-25T05:06:44.187Z</time>
      </trkpt>
      <trkpt lat="38.38704" lon="37.98399">
        <ele>1072.118176</ele>
        <time>2022-02-25T05:07:07.879Z</time>
      </trkpt>
      <trkpt lat="38.38735" lon="37.98313">
        <ele>1074.268692</ele>
        <time>2022-02-25T05:07:41.619Z</time>
      </trkpt>
      <trkpt lat="38.38753" lon="37.98236">
        <ele>1076.430851</ele>
        <time>2022-02-25T05:08:08.912Z</time>
      </trkpt>
      <trkpt lat="38.38762" lon="37.98165">
        <ele>1078.362335</ele>
        <time>2022-02-25T05:08:32.678Z</time>
      </trkpt>
      <trkpt lat="38.38765" lon="37.98075">
        <ele>1080.815414</ele>
        <time>2022-02-25T05:09:02.622Z</time>
      </trkpt>
      <trkpt lat="38.3876" lon="37.98014">
        <ele>1082.449902</ele>
        <time>2022-02-25T05:09:22.630Z</time>
      </trkpt>
      <trkpt lat="38.38713" lon="37.97574">
        <ele>1095.512911</ele>
        <time>2022-02-25T05:11:58.151Z</time>
      </trkpt>
      <trkpt lat="38.38659" lon="37.97064">
        <ele>1112.693211</ele>
        <time>2022-02-25T05:15:08.360Z</time>
      </trkpt>
      <trkpt lat="38.38628" lon="37.96887">
        <ele>1119.854055</ele>
        <time>2022-02-25T05:16:20.134Z</time>
      </trkpt>
      <trkpt lat="38.38518" lon="37.96525">
        <ele>1136.782869</ele>
        <time>2022-02-25T05:19:05.780Z</time>
      </trkpt>
      <trkpt lat="38.38505" lon="37.96453">
        <ele>1139.817415</ele>
        <time>2022-02-25T05:19:36.404Z</time>
      </trkpt>
      <trkpt lat="38.38501" lon="37.96374">
        <ele>1143.084836</ele>
        <time>2022-02-25T05:20:08.247Z</time>
      </trkpt>
      <trkpt lat="38.38524" lon="37.96091">
        <ele>1152.747666</ele>
        <time>2022-02-25T05:21:53.675Z</time>
      </trkpt>
      <trkpt lat="38.38524" lon="37.96021">
        <ele>1154.902815</ele>
        <time>2022-02-25T05:22:17.995Z</time>
      </trkpt>
      <trkpt lat="38.38523" lon="37.95992">
        <ele>1155.807958</ele>
        <time>2022-02-25T05:22:28.274Z</time>
      </trkpt>
      <trkpt lat="38.3852" lon="37.95902">
        <ele>1158.56353</ele>
        <time>2022-02-25T05:22:59.866Z</time>
      </trkpt>
      <trkpt lat="38.38503" lon="37.95793">
        <ele>1162.409305</ele>
        <time>2022-02-25T05:23:40.699Z</time>
      </trkpt>
      <trkpt lat="38.3848" lon="37.95681">
        <ele>1166.400237</ele>
        <time>2022-02-25T05:24:24.915Z</time>
      </trkpt>
      <trkpt lat="38.38421" lon="37.95523">
        <ele>1172.861637</ele>
        <time>2022-02-25T05:25:34.072Z</time>
      </trkpt>
      <trkpt lat="38.3831" lon="37.95266">
        <ele>1183.069693</ele>
        <time>2022-02-25T05:27:23.014Z</time>
      </trkpt>
      <trkpt lat="38.38272" lon="37.95158">
        <ele>1187.721328</ele>
        <time>2022-02-25T05:28:08.821Z</time>
      </trkpt>
      <trkpt lat="38.38251" lon="37.95099">
        <ele>1190.241954</ele>
        <time>2022-02-25T05:28:34.734Z</time>
      </trkpt>
      <trkpt lat="38.38229" lon="37.9501">
        <ele>1194.439808</ele>
        <time>2022-02-25T05:29:14.010Z</time>
      </trkpt>
      <trkpt lat="38.38198" lon="37.94842">
        <ele>1203.164205</ele>
        <time>2022-02-25T05:30:33.704Z</time>
      </trkpt>
      <trkpt lat="38.38185" lon="37.94727">
        <ele>1208.810192</ele>
        <time>2022-02-25T05:31:27.610Z</time>
      </trkpt>
      <trkpt lat="38.38184" lon="37.94718">
        <ele>1209.253591</ele>
        <time>2022-02-25T05:31:32.686Z</time>
      </trkpt>
      <trkpt lat="38.38153" lon="37.94393">
        <ele>1223.921669</ele>
        <time>2022-02-25T05:33:49.512Z</time>
      </trkpt>
      <trkpt lat="38.38149" lon="37.94283">
        <ele>1228.308497</ele>
        <time>2022-02-25T05:34:32.547Z</time>
      </trkpt>
      <trkpt lat="38.38155" lon="37.94094">
        <ele>1235.890217</ele>
        <time>2022-02-25T05:35:47.431Z</time>
      </trkpt>
      <trkpt lat="38.38163" lon="37.93995">
        <ele>1240.156522</ele>
        <time>2022-02-25T05:36:28.325Z</time>
      </trkpt>
      <trkpt lat="38.38182" lon="37.93879">
        <ele>1245.509994</ele>
        <time>2022-02-25T05:37:19.510Z</time>
      </trkpt>
      <trkpt lat="38.38234" lon="37.93655">
        <ele>1257.087314</ele>
        <time>2022-02-25T05:39:05.481Z</time>
      </trkpt>
      <trkpt lat="38.38336" lon="37.93323">
        <ele>1274.565446</ele>
        <time>2022-02-25T05:41:43.220Z</time>
      </trkpt>
      <trkpt lat="38.38364" lon="37.93185">
        <ele>1281.814297</ele>
        <time>2022-02-25T05:42:47.011Z</time>
      </trkpt>
      <trkpt lat="38.38372" lon="37.93092">
        <ele>1286.725143</ele>
        <time>2022-02-25T05:43:30.642Z</time>
      </trkpt>
      <trkpt lat="38.3837" lon="37.9299">
        <ele>1292.278988</ele>
        <time>2022-02-25T05:44:19.090Z</time>
      </trkpt>
      <trkpt lat="38.38361" lon="37.9289">
        <ele>1297.943129</ele>
        <time>2022-02-25T05:45:07.113Z</time>
      </trkpt>
      <trkpt lat="38.38306" lon="37.92589">
        <ele>1316.263688</ele>
        <time>2022-02-25T05:47:38.590Z</time>
      </trkpt>
      <trkpt lat="38.38302" lon="37.92526">
        <ele>1320.618393</ele>
        <time>2022-02-25T05:48:12.495Z</time>
      </trkpt>
      <trkpt lat="38.38302" lon="37.92522">
        <ele>1320.93816</ele>
        <time>2022-02-25T05:48:16.503Z</time>
      </trkpt>
      <trkpt lat="38.383" lon="37.92441">
        <ele>1326.548108</ele>
        <time>2022-02-25T05:49:00.328Z</time>
      </trkpt>
      <trkpt lat="38.38306" lon="37.92401">
        <ele>1329.40895</ele>
        <time>2022-02-25T05:49:23.455Z</time>
      </trkpt>
      <trkpt lat="38.3832" lon="37.92339">
        <ele>1333.697267</ele>
        <time>2022-02-25T05:50:00.458Z</time>
      </trkpt>
      <trkpt lat="38.38392" lon="37.92068">
        <ele>1350.864191</ele>
        <time>2022-02-25T05:52:21.513Z</time>
      </trkpt>
      <trkpt lat="38.3842" lon="37.92005">
        <ele>1354.867167</ele>
        <time>2022-02-25T05:52:54.652Z</time>
      </trkpt>
      <trkpt lat="38.38447" lon="37.9196">
        <ele>1357.982495</ele>
        <time>2022-02-25T05:53:20.611Z</time>
      </trkpt>
      <trkpt lat="38.38528" lon="37.91868">
        <ele>1365.875756</ele>
        <time>2022-02-25T05:54:26.610Z</time>
      </trkpt>
      <trkpt lat="38.3876" lon="37.91597">
        <ele>1389.083138</ele>
        <time>2022-02-25T05:57:45.254Z</time>
      </trkpt>
      <trkpt lat="38.38786" lon="37.9156">
        <ele>1391.765227</ele>
        <time>2022-02-25T05:58:08.496Z</time>
      </trkpt>
      <trkpt lat="38.38806" lon="37.9152">
        <ele>1394.28004</ele>
        <time>2022-02-25T05:58:29.853Z</time>
      </trkpt>
      <trkpt lat="38.38817" lon="37.91474">
        <ele>1396.865709</ele>
        <time>2022-02-25T05:58:51.364Z</time>
      </trkpt>
      <trkpt lat="38.38822" lon="37.91432">
        <ele>1399.283982</ele>
        <time>2022-02-25T05:59:10.495Z</time>
      </trkpt>
      <trkpt lat="38.38822" lon="37.91376">
        <ele>1402.681567</ele>
        <time>2022-02-25T05:59:36.158Z</time>
      </trkpt>
      <trkpt lat="38.38813" lon="37.91331">
        <ele>1405.548781</ele>
        <time>2022-02-25T05:59:58.800Z</time>
      </trkpt>
      <trkpt lat="38.38796" lon="37.91288">
        <ele>1408.457888</ele>
        <time>2022-02-25T06:00:22.686Z</time>
      </trkpt>
      <trkpt lat="38.38646" lon="37.90994">
        <ele>1434.31247</ele>
        <time>2022-02-25T06:03:43.769Z</time>
      </trkpt>
      <trkpt lat="38.38599" lon="37.90924">
        <ele>1441.606776</ele>
        <time>2022-02-25T06:04:40.341Z</time>
      </trkpt>
      <trkpt lat="38.38564" lon="37.90893">
        <ele>1445.998315</ele>
        <time>2022-02-25T06:05:13.286Z</time>
      </trkpt>
      <trkpt lat="38.38526" lon="37.90878">
        <ele>1449.401559</ele>
        <time>2022-02-25T06:05:42.801Z</time>
      </trkpt>
      <trkpt lat="38.38485" lon="37.90874">
        <ele>1452.435135</ele>
        <time>2022-02-25T06:06:11.561Z</time>
      </trkpt>
      <trkpt lat="38.3831" lon="37.90896">
        <ele>1463.371761</ele>
        <time>2022-02-25T06:07:51.343Z</time>
      </trkpt>
      <trkpt lat="38.38246" lon="37.90886">
        <ele>1465.873915</ele>
        <time>2022-02-25T06:08:18.579Z</time>
      </trkpt>
      <trkpt lat="38.38202" lon="37.90871">
        <ele>1467.613703</ele>
        <time>2022-02-25T06:08:35.400Z</time>
      </trkpt>
      <trkpt lat="38.3815" lon="37.90844">
        <ele>1468.482228</ele>
        <time>2022-02-25T06:08:54.784Z</time>
      </trkpt>
      <trkpt lat="38.38157" lon="37.90818">
        <ele>1468.713482</ele>
        <time>2022-02-25T06:09:01.658Z</time>
      </trkpt>
      <trkpt lat="38.38115" lon="37.90794">
        <ele>1469.211675</ele>
        <time>2022-02-25T06:09:16.708Z</time>
      </trkpt>
      <trkpt lat="38.38" lon="37.90732">
        <ele>1469.822191</ele>
        <time>2022-02-25T06:09:54.948Z</time>
      </trkpt>
      <trkpt lat="38.37895" lon="37.90676">
        <ele>1469.605771</ele>
        <time>2022-02-25T06:10:24.682Z</time>
      </trkpt>
      <trkpt lat="38.37874" lon="37.90661">
        <ele>1469.228409</ele>
        <time>2022-02-25T06:10:30.336Z</time>
      </trkpt>
      <trkpt lat="38.37852" lon="37.9066">
        <ele>1468.75933</ele>
        <time>2022-02-25T06:10:35.434Z</time>
      </trkpt>
      <trkpt lat="38.37844" lon="37.90654">
        <ele>1468.556214</ele>
        <time>2022-02-25T06:10:37.541Z</time>
      </trkpt>
      <trkpt lat="38.37828" lon="37.9064">
        <ele>1468.139272</ele>
        <time>2022-02-25T06:10:41.799Z</time>
      </trkpt>
      <trkpt lat="38.37792" lon="37.90603">
        <ele>1467.158663</ele>
        <time>2022-02-25T06:10:51.511Z</time>
      </trkpt>
      <trkpt lat="38.37747" lon="37.90533">
        <ele>1465.489728</ele>
        <time>2022-02-25T06:11:05.744Z</time>
      </trkpt>
      <trkpt lat="38.37729" lon="37.90478">
        <ele>1463.321887</ele>
        <time>2022-02-25T06:11:14.702Z</time>
      </trkpt>
      <trkpt lat="38.37655" lon="37.89978">
        <ele>1443.343244</ele>
        <time>2022-02-25T06:12:27.125Z</time>
      </trkpt>
      <trkpt lat="38.37628" lon="37.89754">
        <ele>1432.055427</ele>
        <time>2022-02-25T06:12:57.454Z</time>
      </trkpt>
      <trkpt lat="38.37623" lon="37.89696">
        <ele>1429.060733</ele>
        <time>2022-02-25T06:13:05.397Z</time>
      </trkpt>
      <trkpt lat="38.37619" lon="37.89651">
        <ele>1426.715765</ele>
        <time>2022-02-25T06:13:11.739Z</time>
      </trkpt>
      <trkpt lat="38.37615" lon="37.896">
        <ele>1424.524943</ele>
        <time>2022-02-25T06:13:18.831Z</time>
      </trkpt>
      <trkpt lat="38.37604" lon="37.89551">
        <ele>1422.428009</ele>
        <time>2022-02-25T06:13:26.075Z</time>
      </trkpt>
      <trkpt lat="38.37583" lon="37.89502">
        <ele>1420.123382</ele>
        <time>2022-02-25T06:13:34.311Z</time>
      </trkpt>
      <trkpt lat="38.37478" lon="37.89361">
        <ele>1411.147201</ele>
        <time>2022-02-25T06:14:01.375Z</time>
      </trkpt>
      <trkpt lat="38.37445" lon="37.89269">
        <ele>1406.03846</ele>
        <time>2022-02-25T06:14:14.936Z</time>
      </trkpt>
      <trkpt lat="38.37435" lon="37.8922">
        <ele>1403.363218</ele>
        <time>2022-02-25T06:14:21.671Z</time>
      </trkpt>
      <trkpt lat="38.37429" lon="37.89143">
        <ele>1399.088996</ele>
        <time>2022-02-25T06:14:32.085Z</time>
      </trkpt>
      <trkpt lat="38.37429" lon="37.89032">
        <ele>1392.944857</ele>
        <time>2022-02-25T06:14:47.147Z</time>
      </trkpt>
      <trkpt lat="38.37438" lon="37.88914">
        <ele>1386.245515</ele>
        <time>2022-02-25T06:15:03.007Z</time>
      </trkpt>
      <trkpt lat="38.37444" lon="37.88858">
        <ele>1383.027203</ele>
        <time>2022-02-25T06:15:10.620Z</time>
      </trkpt>
      <trkpt lat="38.37445" lon="37.88849">
        <ele>1382.541375</ele>
        <time>2022-02-25T06:15:11.732Z</time>
      </trkpt>
      <trkpt lat="38.37455" lon="37.88787">
        <ele>1378.967219</ele>
        <time>2022-02-25T06:15:20.149Z</time>
      </trkpt>
      <trkpt lat="38.37557" lon="37.88287">
        <ele>1350.833678</ele>
        <time>2022-02-25T06:16:29.690Z</time>
      </trkpt>
      <trkpt lat="38.37552" lon="37.8824">
        <ele>1348.508078</ele>
        <time>2022-02-25T06:16:36.198Z</time>
      </trkpt>
      <trkpt lat="38.37548" lon="37.88211">
        <ele>1347.058401</ele>
        <time>2022-02-25T06:16:40.274Z</time>
      </trkpt>
      <trkpt lat="38.37543" lon="37.88194">
        <ele>1346.146754</ele>
        <time>2022-02-25T06:16:42.853Z</time>
      </trkpt>
      <trkpt lat="38.37528" lon="37.88158">
        <ele>1344.148266</ele>
        <time>2022-02-25T06:16:48.437Z</time>
      </trkpt>
      <trkpt lat="38.37489" lon="37.88092">
        <ele>1341.299077</ele>
        <time>2022-02-25T06:16:59.930Z</time>
      </trkpt>
      <trkpt lat="38.37447" lon="37.8803">
        <ele>1338.987323</ele>
        <time>2022-02-25T06:17:12.029Z</time>
      </trkpt>
      <trkpt lat="38.37442" lon="37.88022">
        <ele>1338.683439</ele>
        <time>2022-02-25T06:17:13.525Z</time>
      </trkpt>
      <trkpt lat="38.37405" lon="37.87955">
        <ele>1336.446386</ele>
        <time>2022-02-25T06:17:27.159Z</time>
      </trkpt>
      <trkpt lat="38.37381" lon="37.87897">
        <ele>1337.1882</ele>
        <time>2022-02-25T06:17:39.059Z</time>
      </trkpt>
      <trkpt lat="38.37349" lon="37.87785">
        <ele>1338.5486</ele>
        <time>2022-02-25T06:18:12.773Z</time>
      </trkpt>
      <trkpt lat="38.37343" lon="37.87726">
        <ele>1339.74432</ele>
        <time>2022-02-25T06:18:34.229Z</time>
      </trkpt>
      <trkpt lat="38.37343" lon="37.87672">
        <ele>1342.000311</ele>
        <time>2022-02-25T06:18:55.537Z</time>
      </trkpt>
      <trkpt lat="38.37357" lon="37.87312">
        <ele>1357.62339</ele>
        <time>2022-02-25T06:21:31.746Z</time>
      </trkpt>
      <trkpt lat="38.3735" lon="37.87258">
        <ele>1359.612557</ele>
        <time>2022-02-25T06:21:52.519Z</time>
      </trkpt>
      <trkpt lat="38.37338" lon="37.87204">
        <ele>1361.261005</ele>
        <time>2022-02-25T06:22:12.680Z</time>
      </trkpt>
      <trkpt lat="38.37293" lon="37.87107">
        <ele>1364.563523</ele>
        <time>2022-02-25T06:22:50.226Z</time>
      </trkpt>
      <trkpt lat="38.37255" lon="37.87044">
        <ele>1366.976486</ele>
        <time>2022-02-25T06:23:15.722Z</time>
      </trkpt>
      <trkpt lat="38.37178" lon="37.86958">
        <ele>1371.103333</ele>
        <time>2022-02-25T06:24:02.322Z</time>
      </trkpt>
      <trkpt lat="38.37128" lon="37.8689">
        <ele>1374.056775</ele>
        <time>2022-02-25T06:24:39.836Z</time>
      </trkpt>
      <trkpt lat="38.37053" lon="37.86758">
        <ele>1379.362746</ele>
        <time>2022-02-25T06:25:43.554Z</time>
      </trkpt>
      <trkpt lat="38.37005" lon="37.86642">
        <ele>1377.983647</ele>
        <time>2022-02-25T06:26:16.142Z</time>
      </trkpt>
      <trkpt lat="38.36969" lon="37.8649">
        <ele>1372.588426</ele>
        <time>2022-02-25T06:26:38.195Z</time>
      </trkpt>
      <trkpt lat="38.36965" lon="37.86471">
        <ele>1371.00001</ele>
        <time>2022-02-25T06:26:40.665Z</time>
      </trkpt>
      <trkpt lat="38.36947" lon="37.86423">
        <ele>1366.687953</ele>
        <time>2022-02-25T06:26:47.435Z</time>
      </trkpt>
      <trkpt lat="38.36849" lon="37.86247">
        <ele>1351.289595</ele>
        <time>2022-02-25T06:27:14.513Z</time>
      </trkpt>
      <trkpt lat="38.36807" lon="37.86186">
        <ele>1346.559623</ele>
        <time>2022-02-25T06:27:25.142Z</time>
      </trkpt>
      <trkpt lat="38.36528" lon="37.85938">
        <ele>1342.401714</ele>
        <time>2022-02-25T06:28:46.314Z</time>
      </trkpt>
      <trkpt lat="38.36435" lon="37.85845">
        <ele>1345.393184</ele>
        <time>2022-02-25T06:29:36.237Z</time>
      </trkpt>
      <trkpt lat="38.36426" lon="37.85837">
        <ele>1345.887679</ele>
        <time>2022-02-25T06:29:41.897Z</time>
      </trkpt>
      <trkpt lat="38.36394" lon="37.85807">
        <ele>1347.711544</ele>
        <time>2022-02-25T06:30:01.342Z</time>
      </trkpt>
      <trkpt lat="38.36343" lon="37.8574">
        <ele>1351.060163</ele>
        <time>2022-02-25T06:30:40.059Z</time>
      </trkpt>
      <trkpt lat="38.36323" lon="37.85692">
        <ele>1353.740336</ele>
        <time>2022-02-25T06:31:03.955Z</time>
      </trkpt>
      <trkpt lat="38.36311" lon="37.85638">
        <ele>1356.531154</ele>
        <time>2022-02-25T06:31:28.836Z</time>
      </trkpt>
      <trkpt lat="38.36291" lon="37.8545">
        <ele>1366.001369</ele>
        <time>2022-02-25T06:32:56.248Z</time>
      </trkpt>
      <trkpt lat="38.36265" lon="37.85399">
        <ele>1369.05608</ele>
        <time>2022-02-25T06:33:23.994Z</time>
      </trkpt>
      <trkpt lat="38.36238" lon="37.8536">
        <ele>1371.696772</ele>
        <time>2022-02-25T06:33:47.485Z</time>
      </trkpt>
      <trkpt lat="38.36204" lon="37.85331">
        <ele>1374.386095</ele>
        <time>2022-02-25T06:34:10.909Z</time>
      </trkpt>
      <trkpt lat="38.36109" lon="37.85288">
        <ele>1380.491948</ele>
        <time>2022-02-25T06:35:05.675Z</time>
      </trkpt>
      <trkpt lat="38.3608" lon="37.85268">
        <ele>1382.489557</ele>
        <time>2022-02-25T06:35:23.807Z</time>
      </trkpt>
      <trkpt lat="38.36035" lon="37.85213">
        <ele>1386.534645</ele>
        <time>2022-02-25T06:35:58.735Z</time>
      </trkpt>
      <trkpt lat="38.35935" lon="37.85048">
        <ele>1398.788476</ele>
        <time>2022-02-25T06:37:41.764Z</time>
      </trkpt>
      <trkpt lat="38.35802" lon="37.84811">
        <ele>1418.678484</ele>
        <time>2022-02-25T06:40:22.779Z</time>
      </trkpt>
      <trkpt lat="38.35776" lon="37.84756">
        <ele>1422.810853</ele>
        <time>2022-02-25T06:40:56.612Z</time>
      </trkpt>
      <trkpt lat="38.35748" lon="37.84675">
        <ele>1428.443259</ele>
        <time>2022-02-25T06:41:40.359Z</time>
      </trkpt>
      <trkpt lat="38.35725" lon="37.84585">
        <ele>1433.658613</ele>
        <time>2022-02-25T06:42:24.848Z</time>
      </trkpt>
      <trkpt lat="38.35705" lon="37.8454">
        <ele>1436.481383</ele>
        <time>2022-02-25T06:42:48.587Z</time>
      </trkpt>
      <trkpt lat="38.35675" lon="37.84493">
        <ele>1439.792855</ele>
        <time>2022-02-25T06:43:16.348Z</time>
      </trkpt>
      <trkpt lat="38.35528" lon="37.84304">
        <ele>1455.472241</ele>
        <time>2022-02-25T06:45:25.069Z</time>
      </trkpt>
      <trkpt lat="38.35386" lon="37.84157">
        <ele>1473.310338</ele>
        <time>2022-02-25T06:47:42.169Z</time>
      </trkpt>
      <trkpt lat="38.35364" lon="37.84127">
        <ele>1476.522962</ele>
        <time>2022-02-25T06:48:07.221Z</time>
      </trkpt>
      <trkpt lat="38.35349" lon="37.84087">
        <ele>1480.051465</ele>
        <time>2022-02-25T06:48:34.373Z</time>
      </trkpt>
      <trkpt lat="38.35342" lon="37.84053">
        <ele>1482.811683</ele>
        <time>2022-02-25T06:48:55.454Z</time>
      </trkpt>
      <trkpt lat="38.35346" lon="37.83966">
        <ele>1489.677503</ele>
        <time>2022-02-25T06:49:46.693Z</time>
      </trkpt>
      <trkpt lat="38.35397" lon="37.83836">
        <ele>1499.77094</ele>
        <time>2022-02-25T06:51:05.385Z</time>
      </trkpt>
      <trkpt lat="38.35443" lon="37.8374">
        <ele>1507.45537</ele>
        <time>2022-02-25T06:52:04.113Z</time>
      </trkpt>
      <trkpt lat="38.35451" lon="37.83692">
        <ele>1510.794845</ele>
        <time>2022-02-25T06:52:30.088Z</time>
      </trkpt>
      <trkpt lat="38.35451" lon="37.83647">
        <ele>1513.847783</ele>
        <time>2022-02-25T06:52:53.910Z</time>
      </trkpt>
      <trkpt lat="38.35445" lon="37.83592">
        <ele>1517.622588</ele>
        <time>2022-02-25T06:53:23.873Z</time>
      </trkpt>
      <trkpt lat="38.35409" lon="37.83494">
        <ele>1524.808748</ele>
        <time>2022-02-25T06:54:23.631Z</time>
      </trkpt>
      <trkpt lat="38.35365" lon="37.83444">
        <ele>1529.637028</ele>
        <time>2022-02-25T06:55:05.359Z</time>
      </trkpt>
      <trkpt lat="38.35246" lon="37.83331">
        <ele>1540.051506</ele>
        <time>2022-02-25T06:56:35.874Z</time>
      </trkpt>
      <trkpt lat="38.35078" lon="37.83193">
        <ele>1550.951598</ele>
        <time>2022-02-25T06:58:12.497Z</time>
      </trkpt>
      <trkpt lat="38.35063" lon="37.83177">
        <ele>1552.043395</ele>
        <time>2022-02-25T06:58:22.588Z</time>
      </trkpt>
      <trkpt lat="38.34973" lon="37.83082">
        <ele>1559.231823</ele>
        <time>2022-02-25T06:59:29.426Z</time>
      </trkpt>
      <trkpt lat="38.34862" lon="37.83005">
        <ele>1568.821134</ele>
        <time>2022-02-25T07:00:52.480Z</time>
      </trkpt>
      <trkpt lat="38.34763" lon="37.82937">
        <ele>1576.693221</ele>
        <time>2022-02-25T07:02:04.276Z</time>
      </trkpt>
      <trkpt lat="38.34613" lon="37.82846">
        <ele>1586.701428</ele>
        <time>2022-02-25T07:03:35.545Z</time>
      </trkpt>
      <trkpt lat="38.34517" lon="37.82789">
        <ele>1592.136436</ele>
        <time>2022-02-25T07:04:27.575Z</time>
      </trkpt>
      <trkpt lat="38.3448" lon="37.82737">
        <ele>1594.513162</ele>
        <time>2022-02-25T07:04:53.006Z</time>
      </trkpt>
      <trkpt lat="38.3445" lon="37.8271">
        <ele>1596.10116</ele>
        <time>2022-02-25T07:05:09.888Z</time>
      </trkpt>
      <trkpt lat="38.34423" lon="37.82694">
        <ele>1597.388726</ele>
        <time>2022-02-25T07:05:23.783Z</time>
      </trkpt>
      <trkpt lat="38.34329" lon="37.82667">
        <ele>1602.229029</ele>
        <time>2022-02-25T07:06:10.668Z</time>
      </trkpt>
      <trkpt lat="38.34311" lon="37.82662">
        <ele>1603.306146</ele>
        <time>2022-02-25T07:06:20.150Z</time>
      </trkpt>
      <trkpt lat="38.34274" lon="37.82625">
        <ele>1606.007573</ele>
        <time>2022-02-25T07:06:45.159Z</time>
      </trkpt>
      <trkpt lat="38.34265" lon="37.826">
        <ele>1607.247027</ele>
        <time>2022-02-25T07:06:57.393Z</time>
      </trkpt>
      <trkpt lat="38.3426" lon="37.82568">
        <ele>1608.717232</ele>
        <time>2022-02-25T07:07:12.320Z</time>
      </trkpt>
      <trkpt lat="38.34262" lon="37.82539">
        <ele>1610.130426</ele>
        <time>2022-02-25T07:07:26.158Z</time>
      </trkpt>
      <trkpt lat="38.34272" lon="37.82506">
        <ele>1612.377758</ele>
        <time>2022-02-25T07:07:43.684Z</time>
      </trkpt>
      <trkpt lat="38.3433" lon="37.82376">
        <ele>1621.878532</ele>
        <time>2022-02-25T07:09:02.210Z</time>
      </trkpt>
      <trkpt lat="38.34336" lon="37.82345">
        <ele>1623.906849</ele>
        <time>2022-02-25T07:09:19.366Z</time>
      </trkpt>
      <trkpt lat="38.34333" lon="37.82278">
        <ele>1628.098856</ele>
        <time>2022-02-25T07:09:55.085Z</time>
      </trkpt>
      <trkpt lat="38.34324" lon="37.82245">
        <ele>1630.277011</ele>
        <time>2022-02-25T07:10:13.329Z</time>
      </trkpt>
      <trkpt lat="38.34238" lon="37.82093">
        <ele>1641.720962</ele>
        <time>2022-02-25T07:11:45.960Z</time>
      </trkpt>
      <trkpt lat="38.34209" lon="37.82034">
        <ele>1645.789767</ele>
        <time>2022-02-25T07:12:19.916Z</time>
      </trkpt>
      <trkpt lat="38.34196" lon="37.81992">
        <ele>1648.416143</ele>
        <time>2022-02-25T07:12:41.904Z</time>
      </trkpt>
      <trkpt lat="38.34188" lon="37.81919">
        <ele>1652.730582</ele>
        <time>2022-02-25T07:13:17.915Z</time>
      </trkpt>
      <trkpt lat="38.34191" lon="37.8188">
        <ele>1655.095643</ele>
        <time>2022-02-25T07:13:36.650Z</time>
      </trkpt>
      <trkpt lat="38.34217" lon="37.81752">
        <ele>1663.075678</ele>
        <time>2022-02-25T07:14:43.741Z</time>
      </trkpt>
      <trkpt lat="38.3422" lon="37.81703">
        <ele>1666.048028</ele>
        <time>2022-02-25T07:15:08.241Z</time>
      </trkpt>
      <trkpt lat="38.34219" lon="37.81632">
        <ele>1670.472604</ele>
        <time>2022-02-25T07:15:43.376Z</time>
      </trkpt>
      <trkpt lat="38.34218" lon="37.8155">
        <ele>1675.542651</ele>
        <time>2022-02-25T07:16:25.397Z</time>
      </trkpt>
      <trkpt lat="38.34225" lon="37.81513">
        <ele>1677.904261</ele>
        <time>2022-02-25T07:16:45.489Z</time>
      </trkpt>
      <trkpt lat="38.34255" lon="37.81447">
        <ele>1682.489379</ele>
        <time>2022-02-25T07:17:24.165Z</time>
      </trkpt>
      <trkpt lat="38.34292" lon="37.81388">
        <ele>1686.917273</ele>
        <time>2022-02-25T07:18:02.032Z</time>
      </trkpt>
      <trkpt lat="38.34314" lon="37.81354">
        <ele>1689.485722</ele>
        <time>2022-02-25T07:18:23.265Z</time>
      </trkpt>
      <trkpt lat="38.34323" lon="37.81333">
        <ele>1690.885429</ele>
        <time>2022-02-25T07:18:33.972Z</time>
      </trkpt>
      <trkpt lat="38.34331" lon="37.81285">
        <ele>1693.726755</ele>
        <time>2022-02-25T07:18:57.633Z</time>
      </trkpt>
      <trkpt lat="38.34323" lon="37.81238">
        <ele>1696.28471</ele>
        <time>2022-02-25T07:19:20.796Z</time>
      </trkpt>
      <trkpt lat="38.34316" lon="37.8122">
        <ele>1697.308122</ele>
        <time>2022-02-25T07:19:30.845Z</time>
      </trkpt>
      <trkpt lat="38.34303" lon="37.812">
        <ele>1698.674644</ele>
        <time>2022-02-25T07:19:41.423Z</time>
      </trkpt>
      <trkpt lat="38.34205" lon="37.81107">
        <ele>1706.810473</ele>
        <time>2022-02-25T07:20:53.030Z</time>
      </trkpt>
      <trkpt lat="38.3413" lon="37.80954">
        <ele>1715.886966</ele>
        <time>2022-02-25T07:22:13.482Z</time>
      </trkpt>
      <trkpt lat="38.34061" lon="37.80885">
        <ele>1721.826657</ele>
        <time>2022-02-25T07:23:05.192Z</time>
      </trkpt>
      <trkpt lat="38.34022" lon="37.80836">
        <ele>1725.587764</ele>
        <time>2022-02-25T07:23:38.028Z</time>
      </trkpt>
      <trkpt lat="38.34006" lon="37.80807">
        <ele>1727.498016</ele>
        <time>2022-02-25T07:23:54.861Z</time>
      </trkpt>
      <trkpt lat="38.33961" lon="37.80689">
        <ele>1734.689377</ele>
        <time>2022-02-25T07:24:57.845Z</time>
      </trkpt>
      <trkpt lat="38.33921" lon="37.80616">
        <ele>1739.601159</ele>
        <time>2022-02-25T07:25:40.806Z</time>
      </trkpt>
      <trkpt lat="38.33909" lon="37.80603">
        <ele>1740.708545</ele>
        <time>2022-02-25T07:25:50.026Z</time>
      </trkpt>
      <trkpt lat="38.33838" lon="37.80579">
        <ele>1745.945358</ele>
        <time>2022-02-25T07:26:32.207Z</time>
      </trkpt>
      <trkpt lat="38.33803" lon="37.80561">
        <ele>1748.649198</ele>
        <time>2022-02-25T07:26:55.497Z</time>
      </trkpt>
      <trkpt lat="38.33787" lon="37.80546">
        <ele>1750.080319</ele>
        <time>2022-02-25T07:27:08.428Z</time>
      </trkpt>
      <trkpt lat="38.33748" lon="37.80491">
        <ele>1754.241365</ele>
        <time>2022-02-25T07:27:43.167Z</time>
      </trkpt>
      <trkpt lat="38.33733" lon="37.80453">
        <ele>1756.833012</ele>
        <time>2022-02-25T07:28:04.941Z</time>
      </trkpt>
      <trkpt lat="38.33725" lon="37.80412">
        <ele>1759.492589</ele>
        <time>2022-02-25T07:28:27.493Z</time>
      </trkpt>
      <trkpt lat="38.33721" lon="37.80359">
        <ele>1762.84431</ele>
        <time>2022-02-25T07:28:55.601Z</time>
      </trkpt>
      <trkpt lat="38.33734" lon="37.80295">
        <ele>1767.00596</ele>
        <time>2022-02-25T07:29:29.240Z</time>
      </trkpt>
      <trkpt lat="38.33747" lon="37.80264">
        <ele>1769.252349</ele>
        <time>2022-02-25T07:29:48.319Z</time>
      </trkpt>
      <trkpt lat="38.33787" lon="37.8017">
        <ele>1775.128661</ele>
        <time>2022-02-25T07:30:39.690Z</time>
      </trkpt>
      <trkpt lat="38.33794" lon="37.80139">
        <ele>1776.904756</ele>
        <time>2022-02-25T07:30:55.284Z</time>
      </trkpt>
      <trkpt lat="38.33796" lon="37.80103">
        <ele>1778.891782</ele>
        <time>2022-02-25T07:31:12.168Z</time>
      </trkpt>
      <trkpt lat="38.33788" lon="37.79893">
        <ele>1789.751094</ele>
        <time>2022-02-25T07:32:45.047Z</time>
      </trkpt>
      <trkpt lat="38.33792" lon="37.79843">
        <ele>1792.28361</ele>
        <time>2022-02-25T07:33:08.671Z</time>
      </trkpt>
      <trkpt lat="38.33802" lon="37.79796">
        <ele>1794.628013</ele>
        <time>2022-02-25T07:33:31.592Z</time>
      </trkpt>
      <trkpt lat="38.33821" lon="37.79752">
        <ele>1796.920819</ele>
        <time>2022-02-25T07:33:54.537Z</time>
      </trkpt>
      <trkpt lat="38.33878" lon="37.79648">
        <ele>1802.712421</ele>
        <time>2022-02-25T07:34:48.935Z</time>
      </trkpt>
      <trkpt lat="38.33936" lon="37.79306">
        <ele>1816.617983</ele>
        <time>2022-02-25T07:37:00.085Z</time>
      </trkpt>
      <trkpt lat="38.33982" lon="37.79034">
        <ele>1831.821675</ele>
        <time>2022-02-25T07:39:16.178Z</time>
      </trkpt>
      <trkpt lat="38.33983" lon="37.78994">
        <ele>1834.243954</ele>
        <time>2022-02-25T07:39:36.887Z</time>
      </trkpt>
      <trkpt lat="38.33974" lon="37.78915">
        <ele>1839.23688</ele>
        <time>2022-02-25T07:40:17.998Z</time>
      </trkpt>
      <trkpt lat="38.33924" lon="37.78721">
        <ele>1852.638307</ele>
        <time>2022-02-25T07:42:05.303Z</time>
      </trkpt>
      <trkpt lat="38.33919" lon="37.7867">
        <ele>1855.819427</ele>
        <time>2022-02-25T07:42:33.394Z</time>
      </trkpt>
      <trkpt lat="38.33923" lon="37.78613">
        <ele>1859.361436</ele>
        <time>2022-02-25T07:43:03.501Z</time>
      </trkpt>
      <trkpt lat="38.33929" lon="37.78587">
        <ele>1861.03518</ele>
        <time>2022-02-25T07:43:17.984Z</time>
      </trkpt>
      <trkpt lat="38.33933" lon="37.78571">
        <ele>1862.0781</ele>
        <time>2022-02-25T07:43:25.935Z</time>
      </trkpt>
      <trkpt lat="38.33946" lon="37.78541">
        <ele>1864.175545</ele>
        <time>2022-02-25T07:43:42.868Z</time>
      </trkpt>
      <trkpt lat="38.33931" lon="37.78532">
        <ele>1865.446538</ele>
        <time>2022-02-25T07:43:53.128Z</time>
      </trkpt>
      <trkpt lat="38.33893" lon="37.78518">
        <ele>1867.77816</ele>
        <time>2022-02-25T07:44:17.559Z</time>
      </trkpt>
      <trkpt lat="38.33773" lon="37.78419">
        <ele>1874.745985</ele>
        <time>2022-02-25T07:45:29.693Z</time>
      </trkpt>
      <trkpt lat="38.33729" lon="37.78394">
        <ele>1875.930902</ele>
        <time>2022-02-25T07:45:48.928Z</time>
      </trkpt>
      <trkpt lat="38.33675" lon="37.7838">
        <ele>1876.944586</ele>
        <time>2022-02-25T07:46:09.213Z</time>
      </trkpt>
      <trkpt lat="38.33586" lon="37.78373">
        <ele>1878.547809</ele>
        <time>2022-02-25T07:46:39.276Z</time>
      </trkpt>
      <trkpt lat="38.33518" lon="37.78337">
        <ele>1878.265829</ele>
        <time>2022-02-25T07:47:00.501Z</time>
      </trkpt>
      <trkpt lat="38.33497" lon="37.78333">
        <ele>1878.183149</ele>
        <time>2022-02-25T07:47:06.133Z</time>
      </trkpt>
      <trkpt lat="38.33486" lon="37.78323">
        <ele>1878.127754</ele>
        <time>2022-02-25T07:47:09.859Z</time>
      </trkpt>
      <trkpt lat="38.33437" lon="37.78249">
        <ele>1877.614425</ele>
        <time>2022-02-25T07:47:28.127Z</time>
      </trkpt>
      <trkpt lat="38.33388" lon="37.78157">
        <ele>1874.686364</ele>
        <time>2022-02-25T07:47:46.856Z</time>
      </trkpt>
      <trkpt lat="38.33353" lon="37.78121">
        <ele>1873.185464</ele>
        <time>2022-02-25T07:47:55.700Z</time>
      </trkpt>
      <trkpt lat="38.33313" lon="37.78105">
        <ele>1871.715936</ele>
        <time>2022-02-25T07:48:03.715Z</time>
      </trkpt>
      <trkpt lat="38.33287" lon="37.78104">
        <ele>1869.98826</ele>
        <time>2022-02-25T07:48:08.464Z</time>
      </trkpt>
      <trkpt lat="38.33191" lon="37.78122">
        <ele>1863.370817</ele>
        <time>2022-02-25T07:48:26.162Z</time>
      </trkpt>
      <trkpt lat="38.33082" lon="37.78061">
        <ele>1854.310579</ele>
        <time>2022-02-25T07:48:47.010Z</time>
      </trkpt>
      <trkpt lat="38.3305" lon="37.78029">
        <ele>1850.871329</ele>
        <time>2022-02-25T07:48:54.159Z</time>
      </trkpt>
      <trkpt lat="38.33014" lon="37.77963">
        <ele>1845.605038</ele>
        <time>2022-02-25T07:49:05.107Z</time>
      </trkpt>
      <trkpt lat="38.32984" lon="37.77931">
        <ele>1842.466042</ele>
        <time>2022-02-25T07:49:12.006Z</time>
      </trkpt>
      <trkpt lat="38.32971" lon="37.77891">
        <ele>1839.842731</ele>
        <time>2022-02-25T07:49:17.920Z</time>
      </trkpt>
      <trkpt lat="38.32971" lon="37.77844">
        <ele>1836.985996</ele>
        <time>2022-02-25T07:49:24.390Z</time>
      </trkpt>
      <trkpt lat="38.3296" lon="37.77794">
        <ele>1833.825124</ele>
        <time>2022-02-25T07:49:31.619Z</time>
      </trkpt>
      <trkpt lat="38.32906" lon="37.77656">
        <ele>1825.620186</ele>
        <time>2022-02-25T07:49:53.648Z</time>
      </trkpt>
      <trkpt lat="38.32886" lon="37.77622">
        <ele>1823.543616</ele>
        <time>2022-02-25T07:49:59.790Z</time>
      </trkpt>
      <trkpt lat="38.32817" lon="37.77542">
        <ele>1818.006724</ele>
        <time>2022-02-25T07:50:17.113Z</time>
      </trkpt>
      <trkpt lat="38.32752" lon="37.77486">
        <ele>1813.870622</ele>
        <time>2022-02-25T07:50:32.069Z</time>
      </trkpt>
      <trkpt lat="38.32652" lon="37.77413">
        <ele>1807.249661</ele>
        <time>2022-02-25T07:50:53.747Z</time>
      </trkpt>
      <trkpt lat="38.32629" lon="37.77405">
        <ele>1805.646467</ele>
        <time>2022-02-25T07:50:58.163Z</time>
      </trkpt>
      <trkpt lat="38.32605" lon="37.77399">
        <ele>1804.026463</ele>
        <time>2022-02-25T07:51:02.912Z</time>
      </trkpt>
      <trkpt lat="38.32615" lon="37.77396">
        <ele>1803.364568</ele>
        <time>2022-02-25T07:51:04.603Z</time>
      </trkpt>
      <trkpt lat="38.32636" lon="37.77394">
        <ele>1801.951023</ele>
        <time>2022-02-25T07:51:08.308Z</time>
      </trkpt>
      <trkpt lat="38.32667" lon="37.77401">
        <ele>1799.817966</ele>
        <time>2022-02-25T07:51:13.679Z</time>
      </trkpt>
      <trkpt lat="38.32677" lon="37.77405">
        <ele>1799.131225</ele>
        <time>2022-02-25T07:51:15.302Z</time>
      </trkpt>
      <trkpt lat="38.32689" lon="37.7741">
        <ele>1798.253548</ele>
        <time>2022-02-25T07:51:17.435Z</time>
      </trkpt>
      <trkpt lat="38.32772" lon="37.77424">
        <ele>1788.379465</ele>
        <time>2022-02-25T07:51:31.080Z</time>
      </trkpt>
      <trkpt lat="38.32774" lon="37.77425">
        <ele>1788.119343</ele>
        <time>2022-02-25T07:51:31.409Z</time>
      </trkpt>
      <trkpt lat="38.32789" lon="37.77424">
        <ele>1786.300553</ele>
        <time>2022-02-25T07:51:33.719Z</time>
      </trkpt>
      <trkpt lat="38.32855" lon="37.77421">
        <ele>1778.102891</ele>
        <time>2022-02-25T07:51:44.280Z</time>
      </trkpt>
      <trkpt lat="38.32896" lon="37.77401">
        <ele>1772.066678</ele>
        <time>2022-02-25T07:51:51.040Z</time>
      </trkpt>
      <trkpt lat="38.32962" lon="37.77354">
        <ele>1760.481607</ele>
        <time>2022-02-25T07:52:02.917Z</time>
      </trkpt>
      <trkpt lat="38.33037" lon="37.77313">
        <ele>1748.121468</ele>
        <time>2022-02-25T07:52:15.517Z</time>
      </trkpt>
      <trkpt lat="38.33083" lon="37.77245">
        <ele>1738.237626</ele>
        <time>2022-02-25T07:52:26.475Z</time>
      </trkpt>
      <trkpt lat="38.33083" lon="37.7724">
        <ele>1737.736922</ele>
        <time>2022-02-25T07:52:27.024Z</time>
      </trkpt>
      <trkpt lat="38.33083" lon="37.7723">
        <ele>1736.572465</ele>
        <time>2022-02-25T07:52:28.348Z</time>
      </trkpt>
      <trkpt lat="38.33083" lon="37.77212">
        <ele>1734.564511</ele>
        <time>2022-02-25T07:52:30.629Z</time>
      </trkpt>
      <trkpt lat="38.33084" lon="37.77199">
        <ele>1733.096749</ele>
        <time>2022-02-25T07:52:32.251Z</time>
      </trkpt>
      <trkpt lat="38.33095" lon="37.77174">
        <ele>1729.878624</ele>
        <time>2022-02-25T07:52:35.846Z</time>
      </trkpt>
      <trkpt lat="38.33147" lon="37.77129">
        <ele>1721.157762</ele>
        <time>2022-02-25T07:52:45.680Z</time>
      </trkpt>
      <trkpt lat="38.3325" lon="37.77067">
        <ele>1706.048827</ele>
        <time>2022-02-25T07:53:03.600Z</time>
      </trkpt>
      <trkpt lat="38.333" lon="37.77014">
        <ele>1697.453313</ele>
        <time>2022-02-25T07:53:13.895Z</time>
      </trkpt>
      <trkpt lat="38.33327" lon="37.77002">
        <ele>1693.776576</ele>
        <time>2022-02-25T07:53:18.422Z</time>
      </trkpt>
      <trkpt lat="38.33336" lon="37.77002">
        <ele>1692.570424</ele>
        <time>2022-02-25T07:53:19.850Z</time>
      </trkpt>
      <trkpt lat="38.33343" lon="37.77002">
        <ele>1691.714326</ele>
        <time>2022-02-25T07:53:20.859Z</time>
      </trkpt>
      <trkpt lat="38.33352" lon="37.77001">
        <ele>1690.466081</ele>
        <time>2022-02-25T07:53:22.436Z</time>
      </trkpt>
      <trkpt lat="38.33367" lon="37.76989">
        <ele>1688.185182</ele>
        <time>2022-02-25T07:53:25.215Z</time>
      </trkpt>
      <trkpt lat="38.33426" lon="37.7692">
        <ele>1677.839142</ele>
        <time>2022-02-25T07:53:37.779Z</time>
      </trkpt>
      <trkpt lat="38.33475" lon="37.76848">
        <ele>1669.527741</ele>
        <time>2022-02-25T07:53:49.705Z</time>
      </trkpt>
      <trkpt lat="38.33483" lon="37.76823">
        <ele>1667.242383</ele>
        <time>2022-02-25T07:53:53.194Z</time>
      </trkpt>
      <trkpt lat="38.335" lon="37.76716">
        <ele>1658.103462</ele>
        <time>2022-02-25T07:54:07.164Z</time>
      </trkpt>
      <trkpt lat="38.33553" lon="37.7664">
        <ele>1651.253685</ele>
        <time>2022-02-25T07:54:20.330Z</time>
      </trkpt>
      <trkpt lat="38.3359" lon="37.76601">
        <ele>1647.403213</ele>
        <time>2022-02-25T07:54:28.377Z</time>
      </trkpt>
      <trkpt lat="38.33605" lon="37.76583">
        <ele>1645.728996</ele>
        <time>2022-02-25T07:54:31.919Z</time>
      </trkpt>
      <trkpt lat="38.33611" lon="37.76575">
        <ele>1645.05548</ele>
        <time>2022-02-25T07:54:33.311Z</time>
      </trkpt>
      <trkpt lat="38.33634" lon="37.76556">
        <ele>1642.840032</ele>
        <time>2022-02-25T07:54:38.090Z</time>
      </trkpt>
      <trkpt lat="38.33645" lon="37.76538">
        <ele>1641.537163</ele>
        <time>2022-02-25T07:54:41.208Z</time>
      </trkpt>
      <trkpt lat="38.33687" lon="37.76443">
        <ele>1636.224563</ele>
        <time>2022-02-25T07:54:56.169Z</time>
      </trkpt>
      <trkpt lat="38.33715" lon="37.76364">
        <ele>1631.981663</ele>
        <time>2022-02-25T07:55:08.291Z</time>
      </trkpt>
      <trkpt lat="38.33742" lon="37.76252">
        <ele>1626.004519</ele>
        <time>2022-02-25T07:55:24.273Z</time>
      </trkpt>
      <trkpt lat="38.33756" lon="37.7612">
        <ele>1619.117063</ele>
        <time>2022-02-25T07:55:42.250Z</time>
      </trkpt>
      <trkpt lat="38.33771" lon="37.76019">
        <ele>1614.326164</ele>
        <time>2022-02-25T07:55:56.164Z</time>
      </trkpt>
      <trkpt lat="38.3378" lon="37.75992">
        <ele>1612.941681</ele>
        <time>2022-02-25T07:56:00.234Z</time>
      </trkpt>
      <trkpt lat="38.33812" lon="37.75923">
        <ele>1609.229199</ele>
        <time>2022-02-25T07:56:11.484Z</time>
      </trkpt>
      <trkpt lat="38.33829" lon="37.75879">
        <ele>1607.455183</ele>
        <time>2022-02-25T07:56:18.547Z</time>
      </trkpt>
      <trkpt lat="38.33832" lon="37.75871">
        <ele>1607.183792</ele>
        <time>2022-02-25T07:56:19.871Z</time>
      </trkpt>
      <trkpt lat="38.33811" lon="37.75803">
        <ele>1605.029322</ele>
        <time>2022-02-25T07:56:30.781Z</time>
      </trkpt>
      <trkpt lat="38.33766" lon="37.7573">
        <ele>1602.288622</ele>
        <time>2022-02-25T07:56:44.821Z</time>
      </trkpt>
      <trkpt lat="38.33761" lon="37.75716">
        <ele>1601.828306</ele>
        <time>2022-02-25T07:56:47.174Z</time>
      </trkpt>
      <trkpt lat="38.33767" lon="37.75644">
        <ele>1599.716166</ele>
        <time>2022-02-25T07:56:58.525Z</time>
      </trkpt>
      <trkpt lat="38.33768" lon="37.75483">
        <ele>1595.041496</ele>
        <time>2022-02-25T07:57:22.295Z</time>
      </trkpt>
      <trkpt lat="38.33782" lon="37.75421">
        <ele>1593.421667</ele>
        <time>2022-02-25T07:57:31.634Z</time>
      </trkpt>
      <trkpt lat="38.33798" lon="37.75382">
        <ele>1592.315422</ele>
        <time>2022-02-25T07:57:38.367Z</time>
      </trkpt>
      <trkpt lat="38.33805" lon="37.75353">
        <ele>1591.579895</ele>
        <time>2022-02-25T07:57:42.945Z</time>
      </trkpt>
      <trkpt lat="38.338" lon="37.75351">
        <ele>1591.394415</ele>
        <time>2022-02-25T07:57:44.051Z</time>
      </trkpt>
      <trkpt lat="38.3376" lon="37.75302">
        <ele>1589.650655</ele>
        <time>2022-02-25T07:57:55.376Z</time>
      </trkpt>
      <trkpt lat="38.33738" lon="37.75271">
        <ele>1588.874696</ele>
        <time>2022-02-25T07:58:02.130Z</time>
      </trkpt>
      <trkpt lat="38.33743" lon="37.75225">
        <ele>1588.22592</ele>
        <time>2022-02-25T07:58:09.926Z</time>
      </trkpt>
      <trkpt lat="38.33756" lon="37.75163">
        <ele>1587.3372</ele>
        <time>2022-02-25T07:58:21.418Z</time>
      </trkpt>
      <trkpt lat="38.33774" lon="37.75126">
        <ele>1586.732936</ele>
        <time>2022-02-25T07:58:29.660Z</time>
      </trkpt>
      <trkpt lat="38.33839" lon="37.75019">
        <ele>1583.176065</ele>
        <time>2022-02-25T07:58:51.269Z</time>
      </trkpt>
      <trkpt lat="38.33854" lon="37.74976">
        <ele>1581.607533</ele>
        <time>2022-02-25T07:58:58.081Z</time>
      </trkpt>
      <trkpt lat="38.3386" lon="37.74954">
        <ele>1580.797528</ele>
        <time>2022-02-25T07:59:01.428Z</time>
      </trkpt>
      <trkpt lat="38.33867" lon="37.74932">
        <ele>1579.998539</ele>
        <time>2022-02-25T07:59:04.784Z</time>
      </trkpt>
      <trkpt lat="38.33873" lon="37.74888">
        <ele>1578.505568</ele>
        <time>2022-02-25T07:59:10.832Z</time>
      </trkpt>
      <trkpt lat="38.33874" lon="37.74861">
        <ele>1577.160465</ele>
        <time>2022-02-25T07:59:14.511Z</time>
      </trkpt>
      <trkpt lat="38.33875" lon="37.74847">
        <ele>1576.402037</ele>
        <time>2022-02-25T07:59:16.483Z</time>
      </trkpt>
      <trkpt lat="38.33875" lon="37.74807">
        <ele>1574.209676</ele>
        <time>2022-02-25T07:59:21.892Z</time>
      </trkpt>
      <trkpt lat="38.33873" lon="37.74794">
        <ele>1573.460279</ele>
        <time>2022-02-25T07:59:23.729Z</time>
      </trkpt>
      <trkpt lat="38.33877" lon="37.74796">
        <ele>1573.172637</ele>
        <time>2022-02-25T07:59:24.414Z</time>
      </trkpt>
      <trkpt lat="38.3391" lon="37.7481">
        <ele>1570.758729</ele>
        <time>2022-02-25T07:59:30.623Z</time>
      </trkpt>
      <trkpt lat="38.33919" lon="37.7481">
        <ele>1570.094891</ele>
        <time>2022-02-25T07:59:32.315Z</time>
      </trkpt>
      <trkpt lat="38.33919" lon="37.74809">
        <ele>1570.02143</ele>
        <time>2022-02-25T07:59:32.488Z</time>
      </trkpt>
      <trkpt lat="38.33912" lon="37.74734">
        <ele>1565.903544</ele>
        <time>2022-02-25T07:59:42.674Z</time>
      </trkpt>
      <trkpt lat="38.33904" lon="37.74717">
        <ele>1564.788111</ele>
        <time>2022-02-25T07:59:45.287Z</time>
      </trkpt>
      <trkpt lat="38.33902" lon="37.74712">
        <ele>1564.447111</ele>
        <time>2022-02-25T07:59:46.161Z</time>
      </trkpt>
      <trkpt lat="38.33903" lon="37.74698">
        <ele>1563.615183</ele>
        <time>2022-02-25T07:59:48.184Z</time>
      </trkpt>
      <trkpt lat="38.339" lon="37.7466">
        <ele>1561.447472</ele>
        <time>2022-02-25T07:59:53.297Z</time>
      </trkpt>
      <trkpt lat="38.3391" lon="37.74611">
        <ele>1558.527061</ele>
        <time>2022-02-25T08:00:00.354Z</time>
      </trkpt>
      <trkpt lat="38.3391" lon="37.74587">
        <ele>1557.129845</ele>
        <time>2022-02-25T08:00:03.855Z</time>
      </trkpt>
      <trkpt lat="38.33947" lon="37.74578">
        <ele>1554.406466</ele>
        <time>2022-02-25T08:00:10.457Z</time>
      </trkpt>
      <trkpt lat="38.33954" lon="37.74557">
        <ele>1553.100138</ele>
        <time>2022-02-25T08:00:13.589Z</time>
      </trkpt>
      <trkpt lat="38.33965" lon="37.74552">
        <ele>1552.236071</ele>
        <time>2022-02-25T08:00:15.931Z</time>
      </trkpt>
      <trkpt lat="38.33971" lon="37.74552">
        <ele>1551.890381</ele>
        <time>2022-02-25T08:00:16.829Z</time>
      </trkpt>
      <trkpt lat="38.33973" lon="37.74537">
        <ele>1551.12965</ele>
        <time>2022-02-25T08:00:18.977Z</time>
      </trkpt>
      <trkpt lat="38.34025" lon="37.74457">
        <ele>1546.031859</ele>
        <time>2022-02-25T08:00:33.738Z</time>
      </trkpt>
      <trkpt lat="38.34039" lon="37.74443">
        <ele>1544.888498</ele>
        <time>2022-02-25T08:00:36.971Z</time>
      </trkpt>
      <trkpt lat="38.3404" lon="37.74435">
        <ele>1544.502699</ele>
        <time>2022-02-25T08:00:38.018Z</time>
      </trkpt>
      <trkpt lat="38.34056" lon="37.74397">
        <ele>1542.373936</ele>
        <time>2022-02-25T08:00:43.990Z</time>
      </trkpt>
      <trkpt lat="38.34063" lon="37.74382">
        <ele>1541.527158</ele>
        <time>2022-02-25T08:00:46.562Z</time>
      </trkpt>
      <trkpt lat="38.34075" lon="37.74358">
        <ele>1540.678285</ele>
        <time>2022-02-25T08:00:50.694Z</time>
      </trkpt>
      <trkpt lat="38.34111" lon="37.74295">
        <ele>1538.860586</ele>
        <time>2022-02-25T08:01:02.659Z</time>
      </trkpt>
      <trkpt lat="38.34135" lon="37.7428">
        <ele>1538.067519</ele>
        <time>2022-02-25T08:01:07.998Z</time>
      </trkpt>
      <trkpt lat="38.34156" lon="37.74276">
        <ele>1537.450898</ele>
        <time>2022-02-25T08:01:12.345Z</time>
      </trkpt>
      <trkpt lat="38.34188" lon="37.74289">
        <ele>1536.446111</ele>
        <time>2022-02-25T08:01:19.428Z</time>
      </trkpt>
      <trkpt lat="38.34253" lon="37.74335">
        <ele>1535.334654</ele>
        <time>2022-02-25T08:01:35.888Z</time>
      </trkpt>
      <trkpt lat="38.34298" lon="37.74327">
        <ele>1534.890424</ele>
        <time>2022-02-25T08:01:46.074Z</time>
      </trkpt>
      <trkpt lat="38.34345" lon="37.74272">
        <ele>1534.27497</ele>
        <time>2022-02-25T08:02:01.230Z</time>
      </trkpt>
      <trkpt lat="38.34401" lon="37.74193">
        <ele>1534.918352</ele>
        <time>2022-02-25T08:02:24.736Z</time>
      </trkpt>
      <trkpt lat="38.34456" lon="37.74139">
        <ele>1535.750523</ele>
        <time>2022-02-25T08:02:47.651Z</time>
      </trkpt>
      <trkpt lat="38.34473" lon="37.7413">
        <ele>1535.981961</ele>
        <time>2022-02-25T08:02:54.649Z</time>
      </trkpt>
      <trkpt lat="38.345" lon="37.74125">
        <ele>1536.342886</ele>
        <time>2022-02-25T08:03:04.798Z</time>
      </trkpt>
      <trkpt lat="38.34533" lon="37.74144">
        <ele>1537.439861</ele>
        <time>2022-02-25T08:03:19.416Z</time>
      </trkpt>
      <trkpt lat="38.34567" lon="37.74177">
        <ele>1538.729775</ele>
        <time>2022-02-25T08:03:37.743Z</time>
      </trkpt>
      <trkpt lat="38.34593" lon="37.7418">
        <ele>1539.537778</ele>
        <time>2022-02-25T08:03:49.336Z</time>
      </trkpt>
      <trkpt lat="38.34623" lon="37.74167">
        <ele>1540.496575</ele>
        <time>2022-02-25T08:04:02.965Z</time>
      </trkpt>
      <trkpt lat="38.34718" lon="37.74106">
        <ele>1542.734426</ele>
        <time>2022-02-25T08:04:46.460Z</time>
      </trkpt>
      <trkpt lat="38.34757" lon="37.74098">
        <ele>1543.341093</ele>
        <time>2022-02-25T08:05:00.619Z</time>
      </trkpt>
      <trkpt lat="38.34805" lon="37.7412">
        <ele>1544.113592</ele>
        <time>2022-02-25T08:05:16.263Z</time>
      </trkpt>
      <trkpt lat="38.3481" lon="37.74124">
        <ele>1544.188798</ele>
        <time>2022-02-25T08:05:18.207Z</time>
      </trkpt>
      <trkpt lat="38.34805" lon="37.7412">
        <ele>1544.264005</ele>
        <time>2022-02-25T08:05:19.227Z</time>
      </trkpt>
      <trkpt lat="38.34757" lon="37.74098">
        <ele>1543.664422</ele>
        <time>2022-02-25T08:05:31.310Z</time>
      </trkpt>
      <trkpt lat="38.34718" lon="37.74106">
        <ele>1542.803091</ele>
        <time>2022-02-25T08:05:39.920Z</time>
      </trkpt>
      <trkpt lat="38.34623" lon="37.74167">
        <ele>1540.490185</ele>
        <time>2022-02-25T08:06:00.991Z</time>
      </trkpt>
      <trkpt lat="38.34593" lon="37.7418">
        <ele>1539.583918</ele>
        <time>2022-02-25T08:06:07.081Z</time>
      </trkpt>
      <trkpt lat="38.34567" lon="37.74177">
        <ele>1538.820184</ele>
        <time>2022-02-25T08:06:12.223Z</time>
      </trkpt>
      <trkpt lat="38.34533" lon="37.74144">
        <ele>1537.600941</ele>
        <time>2022-02-25T08:06:20.420Z</time>
      </trkpt>
      <trkpt lat="38.345" lon="37.74125">
        <ele>1536.564067</ele>
        <time>2022-02-25T08:06:27.615Z</time>
      </trkpt>
      <trkpt lat="38.34473" lon="37.7413">
        <ele>1535.787447</ele>
        <time>2022-02-25T08:06:33.216Z</time>
      </trkpt>
      <trkpt lat="38.34456" lon="37.74139">
        <ele>1535.39574</ele>
        <time>2022-02-25T08:06:37.220Z</time>
      </trkpt>
      <trkpt lat="38.34401" lon="37.74193">
        <ele>1534.930805</ele>
        <time>2022-02-25T08:06:52.581Z</time>
      </trkpt>
      <trkpt lat="38.34345" lon="37.74272">
        <ele>1534.36717</ele>
        <time>2022-02-25T08:07:13.706Z</time>
      </trkpt>
      <trkpt lat="38.34298" lon="37.74327">
        <ele>1534.791587</ele>
        <time>2022-02-25T08:07:33.016Z</time>
      </trkpt>
      <trkpt lat="38.34253" lon="37.74335">
        <ele>1535.387942</ele>
        <time>2022-02-25T08:07:48.304Z</time>
      </trkpt>
      <trkpt lat="38.34188" lon="37.74289">
        <ele>1536.346296</ele>
        <time>2022-02-25T08:08:12.853Z</time>
      </trkpt>
      <trkpt lat="38.34156" lon="37.74276">
        <ele>1537.184141</ele>
        <time>2022-02-25T08:08:25.613Z</time>
      </trkpt>
      <trkpt lat="38.34135" lon="37.7428">
        <ele>1537.938556</ele>
        <time>2022-02-25T08:08:33.408Z</time>
      </trkpt>
      <trkpt lat="38.34111" lon="37.74295">
        <ele>1538.908847</ele>
        <time>2022-02-25T08:08:44.503Z</time>
      </trkpt>
      <trkpt lat="38.34075" lon="37.74358">
        <ele>1541.132741</ele>
        <time>2022-02-25T08:09:10.950Z</time>
      </trkpt>
      <trkpt lat="38.34063" lon="37.74382">
        <ele>1541.924744</ele>
        <time>2022-02-25T08:09:21.155Z</time>
      </trkpt>
      <trkpt lat="38.34056" lon="37.74397">
        <ele>1542.409977</ele>
        <time>2022-02-25T08:09:27.047Z</time>
      </trkpt>
      <trkpt lat="38.3404" lon="37.74435">
        <ele>1544.147781</ele>
        <time>2022-02-25T08:09:45.786Z</time>
      </trkpt>
      <trkpt lat="38.34039" lon="37.74443">
        <ele>1544.564593</ele>
        <time>2022-02-25T08:09:49.488Z</time>
      </trkpt>
      <trkpt lat="38.34025" lon="37.74457">
        <ele>1545.799862</ele>
        <time>2022-02-25T08:10:01.450Z</time>
      </trkpt>
      <trkpt lat="38.33973" lon="37.74537">
        <ele>1551.307435</ele>
        <time>2022-02-25T08:10:49.541Z</time>
      </trkpt>
      <trkpt lat="38.33971" lon="37.74552">
        <ele>1552.129317</ele>
        <time>2022-02-25T08:10:57.162Z</time>
      </trkpt>
      <trkpt lat="38.33965" lon="37.74552">
        <ele>1552.502795</ele>
        <time>2022-02-25T08:11:02.323Z</time>
      </trkpt>
      <trkpt lat="38.33954" lon="37.74557">
        <ele>1553.334119</ele>
        <time>2022-02-25T08:11:08.723Z</time>
      </trkpt>
      <trkpt lat="38.33947" lon="37.74578">
        <ele>1554.539502</ele>
        <time>2022-02-25T08:11:20.642Z</time>
      </trkpt>
      <trkpt lat="38.3391" lon="37.74587">
        <ele>1556.507049</ele>
        <time>2022-02-25T08:11:45.237Z</time>
      </trkpt>
      <trkpt lat="38.3391" lon="37.74611">
        <ele>1557.404606</ele>
        <time>2022-02-25T08:11:57.210Z</time>
      </trkpt>
      <trkpt lat="38.339" lon="37.7466">
        <ele>1559.280648</ele>
        <time>2022-02-25T08:12:21.665Z</time>
      </trkpt>
      <trkpt lat="38.33903" lon="37.74698">
        <ele>1560.673164</ele>
        <time>2022-02-25T08:12:37.961Z</time>
      </trkpt>
      <trkpt lat="38.33902" lon="37.74712">
        <ele>1561.207585</ele>
        <time>2022-02-25T08:12:43.582Z</time>
      </trkpt>
      <trkpt lat="38.33891" lon="37.74687">
        <ele>1562.259295</ele>
        <time>2022-02-25T08:12:50.853Z</time>
      </trkpt>
      <trkpt lat="38.33876" lon="37.7465">
        <ele>1563.697302</ele>
        <time>2022-02-25T08:13:01.249Z</time>
      </trkpt>
      <trkpt lat="38.33856" lon="37.74624">
        <ele>1562.625362</ele>
        <time>2022-02-25T08:13:08.948Z</time>
      </trkpt>
      <trkpt lat="38.33848" lon="37.74577">
        <ele>1561.2099</ele>
        <time>2022-02-25T08:13:16.931Z</time>
      </trkpt>
      <trkpt lat="38.33824" lon="37.74405">
        <ele>1555.888919</ele>
        <time>2022-02-25T08:13:41.166Z</time>
      </trkpt>
      <trkpt lat="38.33825" lon="37.7434">
        <ele>1553.674835</ele>
        <time>2022-02-25T08:13:49.860Z</time>
      </trkpt>
      <trkpt lat="38.33844" lon="37.74271">
        <ele>1551.115971</ele>
        <time>2022-02-25T08:14:00.480Z</time>
      </trkpt>
      <trkpt lat="38.33877" lon="37.74225">
        <ele>1549.149608</ele>
        <time>2022-02-25T08:14:10.320Z</time>
      </trkpt>
      <trkpt lat="38.33925" lon="37.74184">
        <ele>1551.437859</ele>
        <time>2022-02-25T08:14:24.928Z</time>
      </trkpt>
      <trkpt lat="38.34105" lon="37.74086">
        <ele>1563.253268</ele>
        <time>2022-02-25T08:16:20.822Z</time>
      </trkpt>
      <trkpt lat="38.34119" lon="37.74076">
        <ele>1564.690511</ele>
        <time>2022-02-25T08:16:33.540Z</time>
      </trkpt>
      <trkpt lat="38.34141" lon="37.74054">
        <ele>1567.246477</ele>
        <time>2022-02-25T08:16:55.465Z</time>
      </trkpt>
      <trkpt lat="38.3417" lon="37.7401">
        <ele>1571.439537</ele>
        <time>2022-02-25T08:17:32.084Z</time>
      </trkpt>
      <trkpt lat="38.34222" lon="37.73876">
        <ele>1582.369765</ele>
        <time>2022-02-25T08:19:05.592Z</time>
      </trkpt>
      <trkpt lat="38.34237" lon="37.73849">
        <ele>1584.828597</ele>
        <time>2022-02-25T08:19:22.820Z</time>
      </trkpt>
      <trkpt lat="38.34265" lon="37.73815">
        <ele>1588.454075</ele>
        <time>2022-02-25T08:19:47.507Z</time>
      </trkpt>
      <trkpt lat="38.34676" lon="37.7346">
        <ele>1618.419778</ele>
        <time>2022-02-25T08:24:22.221Z</time>
      </trkpt>
      <trkpt lat="38.34813" lon="37.73325">
        <ele>1627.399634</ele>
        <time>2022-02-25T08:25:50.295Z</time>
      </trkpt>
      <trkpt lat="38.34899" lon="37.7325">
        <ele>1632.440478</ele>
        <time>2022-02-25T08:26:42.392Z</time>
      </trkpt>
      <trkpt lat="38.34949" lon="37.73204">
        <ele>1635.295555</ele>
        <time>2022-02-25T08:27:11.532Z</time>
      </trkpt>
      <trkpt lat="38.34971" lon="37.73211">
        <ele>1636.330384</ele>
        <time>2022-02-25T08:27:22.284Z</time>
      </trkpt>
      <trkpt lat="38.35098" lon="37.7319">
        <ele>1642.221944</ele>
        <time>2022-02-25T08:28:26.057Z</time>
      </trkpt>
      <trkpt lat="38.3514" lon="37.73169">
        <ele>1644.289724</ele>
        <time>2022-02-25T08:28:47.540Z</time>
      </trkpt>
      <trkpt lat="38.35188" lon="37.7312">
        <ele>1647.108744</ele>
        <time>2022-02-25T08:29:17.152Z</time>
      </trkpt>
      <trkpt lat="38.35213" lon="37.73066">
        <ele>1648.83642</ele>
        <time>2022-02-25T08:29:41.746Z</time>
      </trkpt>
      <trkpt lat="38.35232" lon="37.72895">
        <ele>1653.556548</ele>
        <time>2022-02-25T08:30:39.216Z</time>
      </trkpt>
      <trkpt lat="38.35219" lon="37.72862">
        <ele>1654.064366</ele>
        <time>2022-02-25T08:30:50.257Z</time>
      </trkpt>
      <trkpt lat="38.35248" lon="37.72813">
        <ele>1654.893171</ele>
        <time>2022-02-25T08:31:05.905Z</time>
      </trkpt>
      <trkpt lat="38.35467" lon="37.72499">
        <ele>1660.932803</ele>
        <time>2022-02-25T08:32:56.378Z</time>
      </trkpt>
      <trkpt lat="38.35495" lon="37.72448">
        <ele>1662.491198</ele>
        <time>2022-02-25T08:33:18.526Z</time>
      </trkpt>
      <trkpt lat="38.35513" lon="37.72404">
        <ele>1663.742671</ele>
        <time>2022-02-25T08:33:36.719Z</time>
      </trkpt>
      <trkpt lat="38.35524" lon="37.72349">
        <ele>1665.155004</ele>
        <time>2022-02-25T08:33:57.751Z</time>
      </trkpt>
      <trkpt lat="38.3553" lon="37.72258">
        <ele>1666.956156</ele>
        <time>2022-02-25T08:34:30.346Z</time>
      </trkpt>
      <trkpt lat="38.35493" lon="37.71877">
        <ele>1671.951367</ele>
        <time>2022-02-25T08:36:11.216Z</time>
      </trkpt>
      <trkpt lat="38.35478" lon="37.71676">
        <ele>1672.190843</ele>
        <time>2022-02-25T08:36:52.444Z</time>
      </trkpt>
      <trkpt lat="38.35477" lon="37.71639">
        <ele>1672.52587</ele>
        <time>2022-02-25T08:36:59.947Z</time>
      </trkpt>
      <trkpt lat="38.35483" lon="37.71594">
        <ele>1672.998651</ele>
        <time>2022-02-25T08:37:09.486Z</time>
      </trkpt>
      <trkpt lat="38.35504" lon="37.71543">
        <ele>1673.590453</ele>
        <time>2022-02-25T08:37:23.033Z</time>
      </trkpt>
      <trkpt lat="38.35521" lon="37.71518">
        <ele>1673.941021</ele>
        <time>2022-02-25T08:37:32.246Z</time>
      </trkpt>
      <trkpt lat="38.35593" lon="37.71464">
        <ele>1676.361309</ele>
        <time>2022-02-25T08:38:06.014Z</time>
      </trkpt>
      <trkpt lat="38.35686" lon="37.71409">
        <ele>1681.567576</ele>
        <time>2022-02-25T08:39:02.038Z</time>
      </trkpt>
      <trkpt lat="38.35709" lon="37.71389">
        <ele>1682.966358</ele>
        <time>2022-02-25T08:39:17.873Z</time>
      </trkpt>
      <trkpt lat="38.35731" lon="37.7136">
        <ele>1684.183862</ele>
        <time>2022-02-25T08:39:35.489Z</time>
      </trkpt>
      <trkpt lat="38.35753" lon="37.71321">
        <ele>1685.28641</ele>
        <time>2022-02-25T08:39:55.399Z</time>
      </trkpt>
      <trkpt lat="38.35765" lon="37.7129">
        <ele>1686.048778</ele>
        <time>2022-02-25T08:40:07.987Z</time>
      </trkpt>
      <trkpt lat="38.35774" lon="37.71256">
        <ele>1686.866758</ele>
        <time>2022-02-25T08:40:20.274Z</time>
      </trkpt>
      <trkpt lat="38.35781" lon="37.71203">
        <ele>1688.091189</ele>
        <time>2022-02-25T08:40:36.719Z</time>
      </trkpt>
      <trkpt lat="38.35785" lon="37.70938">
        <ele>1684.191277</ele>
        <time>2022-02-25T08:41:19.169Z</time>
      </trkpt>
      <trkpt lat="38.35785" lon="37.70931">
        <ele>1683.93857</ele>
        <time>2022-02-25T08:41:19.968Z</time>
      </trkpt>
      <trkpt lat="38.35786" lon="37.7083">
        <ele>1679.867469</ele>
        <time>2022-02-25T08:41:34.414Z</time>
      </trkpt>
      <trkpt lat="38.35805" lon="37.70698">
        <ele>1674.430134</ele>
        <time>2022-02-25T08:41:53.084Z</time>
      </trkpt>
      <trkpt lat="38.35954" lon="37.70127">
        <ele>1648.057404</ele>
        <time>2022-02-25T08:43:17.120Z</time>
      </trkpt>
      <trkpt lat="38.35967" lon="37.70032">
        <ele>1643.593158</ele>
        <time>2022-02-25T08:43:30.620Z</time>
      </trkpt>
      <trkpt lat="38.35955" lon="37.69948">
        <ele>1638.865394</ele>
        <time>2022-02-25T08:43:42.249Z</time>
      </trkpt>
      <trkpt lat="38.35939" lon="37.69906">
        <ele>1636.230254</ele>
        <time>2022-02-25T08:43:48.606Z</time>
      </trkpt>
      <trkpt lat="38.35918" lon="37.69868">
        <ele>1633.646358</ele>
        <time>2022-02-25T08:43:54.725Z</time>
      </trkpt>
      <trkpt lat="38.35885" lon="37.6983">
        <ele>1629.881156</ele>
        <time>2022-02-25T08:44:02.094Z</time>
      </trkpt>
      <trkpt lat="38.35853" lon="37.69802">
        <ele>1626.134528</ele>
        <time>2022-02-25T08:44:08.442Z</time>
      </trkpt>
      <trkpt lat="38.3563" lon="37.69637">
        <ele>1601.389793</ele>
        <time>2022-02-25T08:44:50.486Z</time>
      </trkpt>
      <trkpt lat="38.35601" lon="37.69603">
        <ele>1597.55169</ele>
        <time>2022-02-25T08:44:57.201Z</time>
      </trkpt>
      <trkpt lat="38.35572" lon="37.69554">
        <ele>1594.423798</ele>
        <time>2022-02-25T08:45:05.221Z</time>
      </trkpt>
      <trkpt lat="38.35555" lon="37.69523">
        <ele>1592.496174</ele>
        <time>2022-02-25T08:45:10.200Z</time>
      </trkpt>
      <trkpt lat="38.35542" lon="37.69483">
        <ele>1590.281562</ele>
        <time>2022-02-25T08:45:16.030Z</time>
      </trkpt>
      <trkpt lat="38.35533" lon="37.69443">
        <ele>1588.122117</ele>
        <time>2022-02-25T08:45:21.885Z</time>
      </trkpt>
      <trkpt lat="38.35529" lon="37.69393">
        <ele>1585.759618</ele>
        <time>2022-02-25T08:45:29.060Z</time>
      </trkpt>
      <trkpt lat="38.35533" lon="37.69351">
        <ele>1585.362203</ele>
        <time>2022-02-25T08:45:35.392Z</time>
      </trkpt>
      <trkpt lat="38.35542" lon="37.69316">
        <ele>1585.009934</ele>
        <time>2022-02-25T08:45:41.274Z</time>
      </trkpt>
      <trkpt lat="38.35644" lon="37.69022">
        <ele>1583.615987</ele>
        <time>2022-02-25T08:46:53.338Z</time>
      </trkpt>
      <trkpt lat="38.35649" lon="37.68952">
        <ele>1583.219887</ele>
        <time>2022-02-25T08:47:06.732Z</time>
      </trkpt>
      <trkpt lat="38.35647" lon="37.68921">
        <ele>1582.52833</ele>
        <time>2022-02-25T08:47:12.064Z</time>
      </trkpt>
      <trkpt lat="38.35632" lon="37.6888">
        <ele>1581.538642</ele>
        <time>2022-02-25T08:47:19.216Z</time>
      </trkpt>
      <trkpt lat="38.35599" lon="37.68815">
        <ele>1579.829193</ele>
        <time>2022-02-25T08:47:31.017Z</time>
      </trkpt>
      <trkpt lat="38.35545" lon="37.68737">
        <ele>1577.21501</ele>
        <time>2022-02-25T08:47:46.206Z</time>
      </trkpt>
      <trkpt lat="38.3549" lon="37.68641">
        <ele>1573.752354</ele>
        <time>2022-02-25T08:48:03.613Z</time>
      </trkpt>
      <trkpt lat="38.35465" lon="37.68597">
        <ele>1572.162067</ele>
        <time>2022-02-25T08:48:11.994Z</time>
      </trkpt>
      <trkpt lat="38.35429" lon="37.68543">
        <ele>1571.162036</ele>
        <time>2022-02-25T08:48:23.388Z</time>
      </trkpt>
      <trkpt lat="38.35373" lon="37.68469">
        <ele>1569.981165</ele>
        <time>2022-02-25T08:48:41.043Z</time>
      </trkpt>
      <trkpt lat="38.35344" lon="37.68423">
        <ele>1569.29881</ele>
        <time>2022-02-25T08:48:52.190Z</time>
      </trkpt>
      <trkpt lat="38.35245" lon="37.68285">
        <ele>1570.314827</ele>
        <time>2022-02-25T08:49:35.450Z</time>
      </trkpt>
      <trkpt lat="38.35185" lon="37.68196">
        <ele>1571.064609</ele>
        <time>2022-02-25T08:50:08.772Z</time>
      </trkpt>
      <trkpt lat="38.3511" lon="37.68087">
        <ele>1572.029467</ele>
        <time>2022-02-25T08:50:43.908Z</time>
      </trkpt>
      <trkpt lat="38.35053" lon="37.68014">
        <ele>1569.990176</ele>
        <time>2022-02-25T08:51:02.823Z</time>
      </trkpt>
      <trkpt lat="38.34663" lon="37.6746">
        <ele>1552.173457</ele>
        <time>2022-02-25T08:52:55.124Z</time>
      </trkpt>
      <trkpt lat="38.34617" lon="37.67371">
        <ele>1550.981954</ele>
        <time>2022-02-25T08:53:12.163Z</time>
      </trkpt>
      <trkpt lat="38.34597" lon="37.67321">
        <ele>1552.860712</ele>
        <time>2022-02-25T08:53:26.704Z</time>
      </trkpt>
      <trkpt lat="38.34582" lon="37.67271">
        <ele>1554.639759</ele>
        <time>2022-02-25T08:53:45.596Z</time>
      </trkpt>
      <trkpt lat="38.34571" lon="37.67214">
        <ele>1556.571238</ele>
        <time>2022-02-25T08:54:12.224Z</time>
      </trkpt>
      <trkpt lat="38.34568" lon="37.67147">
        <ele>1559.977034</ele>
        <time>2022-02-25T08:54:49.299Z</time>
      </trkpt>
      <trkpt lat="38.34565" lon="37.67018">
        <ele>1570.075071</ele>
        <time>2022-02-25T08:56:09.597Z</time>
      </trkpt>
      <trkpt lat="38.3457" lon="37.66839">
        <ele>1582.394305</ele>
        <time>2022-02-25T08:57:51.980Z</time>
      </trkpt>
      <trkpt lat="38.34572" lon="37.66809">
        <ele>1584.281002</ele>
        <time>2022-02-25T08:58:06.238Z</time>
      </trkpt>
      <trkpt lat="38.34577" lon="37.66675">
        <ele>1592.104034</ele>
        <time>2022-02-25T08:59:05.692Z</time>
      </trkpt>
      <trkpt lat="38.34603" lon="37.66151">
        <ele>1619.297941</ele>
        <time>2022-02-25T09:03:04.584Z</time>
      </trkpt>
      <trkpt lat="38.34634" lon="37.65901">
        <ele>1633.684507</ele>
        <time>2022-02-25T09:05:09.721Z</time>
      </trkpt>
      <trkpt lat="38.34636" lon="37.65838">
        <ele>1637.372456</ele>
        <time>2022-02-25T09:05:40.218Z</time>
      </trkpt>
      <trkpt lat="38.34632" lon="37.65787">
        <ele>1640.362052</ele>
        <time>2022-02-25T09:06:04.736Z</time>
      </trkpt>
      <trkpt lat="38.3462" lon="37.65743">
        <ele>1643.055367</ele>
        <time>2022-02-25T09:06:26.797Z</time>
      </trkpt>
      <trkpt lat="38.34546" lon="37.65575">
        <ele>1654.318438</ele>
        <time>2022-02-25T09:08:01.188Z</time>
      </trkpt>
      <trkpt lat="38.34527" lon="37.65505">
        <ele>1658.952561</ele>
        <time>2022-02-25T09:08:39.364Z</time>
      </trkpt>
      <trkpt lat="38.34514" lon="37.65431">
        <ele>1663.676958</ele>
        <time>2022-02-25T09:09:18.423Z</time>
      </trkpt>
      <trkpt lat="38.34475" lon="37.65092">
        <ele>1685.359124</ele>
        <time>2022-02-25T09:12:13.723Z</time>
      </trkpt>
      <trkpt lat="38.34477" lon="37.6472">
        <ele>1709.835424</ele>
        <time>2022-02-25T09:15:29.566Z</time>
      </trkpt>
      <trkpt lat="38.34499" lon="37.64519">
        <ele>1723.77412</ele>
        <time>2022-02-25T09:17:19.978Z</time>
      </trkpt>
      <trkpt lat="38.345" lon="37.64463">
        <ele>1727.620865</ele>
        <time>2022-02-25T09:17:50.171Z</time>
      </trkpt>
      <trkpt lat="38.34496" lon="37.64411">
        <ele>1731.083785</ele>
        <time>2022-02-25T09:18:18.035Z</time>
      </trkpt>
      <trkpt lat="38.34485" lon="37.64365">
        <ele>1734.261343</ele>
        <time>2022-02-25T09:18:43.249Z</time>
      </trkpt>
      <trkpt lat="38.34415" lon="37.64213">
        <ele>1745.884266</ele>
        <time>2022-02-25T09:20:15.470Z</time>
      </trkpt>
      <trkpt lat="38.34387" lon="37.64133">
        <ele>1751.625587</ele>
        <time>2022-02-25T09:21:01.453Z</time>
      </trkpt>
      <trkpt lat="38.34374" lon="37.64024">
        <ele>1758.81033</ele>
        <time>2022-02-25T09:21:59.449Z</time>
      </trkpt>
      <trkpt lat="38.34365" lon="37.63874">
        <ele>1768.297019</ele>
        <time>2022-02-25T09:23:17.156Z</time>
      </trkpt>
      <trkpt lat="38.34358" lon="37.63823">
        <ele>1771.544374</ele>
        <time>2022-02-25T09:23:43.137Z</time>
      </trkpt>
      <trkpt lat="38.34336" lon="37.63737">
        <ele>1776.738704</ele>
        <time>2022-02-25T09:24:28.086Z</time>
      </trkpt>
      <trkpt lat="38.34299" lon="37.63659">
        <ele>1781.873209</ele>
        <time>2022-02-25T09:25:12.006Z</time>
      </trkpt>
      <trkpt lat="38.34195" lon="37.63489">
        <ele>1792.710736</ele>
        <time>2022-02-25T09:26:50.725Z</time>
      </trkpt>
      <trkpt lat="38.3416" lon="37.63421">
        <ele>1796.338711</ele>
        <time>2022-02-25T09:27:23.835Z</time>
      </trkpt>
      <trkpt lat="38.34129" lon="37.63342">
        <ele>1798.780512</ele>
        <time>2022-02-25T09:27:57.733Z</time>
      </trkpt>
      <trkpt lat="38.34066" lon="37.63155">
        <ele>1802.769329</ele>
        <time>2022-02-25T09:28:59.136Z</time>
      </trkpt>
      <trkpt lat="38.34039" lon="37.63039">
        <ele>1803.506737</ele>
        <time>2022-02-25T09:29:25.477Z</time>
      </trkpt>
      <trkpt lat="38.34028" lon="37.62929">
        <ele>1803.408114</ele>
        <time>2022-02-25T09:29:46.323Z</time>
      </trkpt>
      <trkpt lat="38.34031" lon="37.62923">
        <ele>1803.381491</ele>
        <time>2022-02-25T09:29:47.572Z</time>
      </trkpt>
      <trkpt lat="38.34032" lon="37.62917">
        <ele>1803.355433</ele>
        <time>2022-02-25T09:29:48.797Z</time>
      </trkpt>
      <trkpt lat="38.34032" lon="37.62911">
        <ele>1803.32902</ele>
        <time>2022-02-25T09:29:50.014Z</time>
      </trkpt>
      <trkpt lat="38.3403" lon="37.62905">
        <ele>1803.302558</ele>
        <time>2022-02-25T09:29:51.217Z</time>
      </trkpt>
      <trkpt lat="38.34027" lon="37.629">
        <ele>1803.276039</ele>
        <time>2022-02-25T09:29:52.390Z</time>
      </trkpt>
      <trkpt lat="38.3402" lon="37.62841">
        <ele>1803.035145</ele>
        <time>2022-02-25T09:30:03.480Z</time>
      </trkpt>
      <trkpt lat="38.34016" lon="37.62767">
        <ele>1802.816829</ele>
        <time>2022-02-25T09:30:17.910Z</time>
      </trkpt>
      <trkpt lat="38.34018" lon="37.62698">
        <ele>1802.987168</ele>
        <time>2022-02-25T09:30:32.596Z</time>
      </trkpt>
      <trkpt lat="38.34024" lon="37.62632">
        <ele>1803.149617</ele>
        <time>2022-02-25T09:30:47.697Z</time>
      </trkpt>
      <trkpt lat="38.34052" lon="37.62493">
        <ele>1803.487632</ele>
        <time>2022-02-25T09:31:21.250Z</time>
      </trkpt>
      <trkpt lat="38.34064" lon="37.62443">
        <ele>1803.603525</ele>
        <time>2022-02-25T09:31:33.264Z</time>
      </trkpt>
      <trkpt lat="38.34165" lon="37.62192">
        <ele>1803.308532</ele>
        <time>2022-02-25T09:32:31.892Z</time>
      </trkpt>
      <trkpt lat="38.34434" lon="37.61578">
        <ele>1795.903445</ele>
        <time>2022-02-25T09:34:35.454Z</time>
      </trkpt>
      <trkpt lat="38.34542" lon="37.61315">
        <ele>1789.631062</ele>
        <time>2022-02-25T09:35:20.865Z</time>
      </trkpt>
      <trkpt lat="38.34582" lon="37.61251">
        <ele>1789.200941</ele>
        <time>2022-02-25T09:35:34.560Z</time>
      </trkpt>
      <trkpt lat="38.34637" lon="37.61188">
        <ele>1788.701215</ele>
        <time>2022-02-25T09:35:54.370Z</time>
      </trkpt>
      <trkpt lat="38.34677" lon="37.61155">
        <ele>1788.923696</ele>
        <time>2022-02-25T09:36:10.655Z</time>
      </trkpt>
      <trkpt lat="38.34741" lon="37.61114">
        <ele>1790.192949</ele>
        <time>2022-02-25T09:36:39.768Z</time>
      </trkpt>
      <trkpt lat="38.3484" lon="37.61078">
        <ele>1790.901889</ele>
        <time>2022-02-25T09:37:16.362Z</time>
      </trkpt>
      <trkpt lat="38.34888" lon="37.61071">
        <ele>1788.607558</ele>
        <time>2022-02-25T09:37:28.030Z</time>
      </trkpt>
      <trkpt lat="38.35289" lon="37.61077">
        <ele>1767.684194</ele>
        <time>2022-02-25T09:38:38.511Z</time>
      </trkpt>
      <trkpt lat="38.35341" lon="37.61086">
        <ele>1764.346967</ele>
        <time>2022-02-25T09:38:47.588Z</time>
      </trkpt>
      <trkpt lat="38.3542" lon="37.6111">
        <ele>1759.49477</ele>
        <time>2022-02-25T09:39:01.618Z</time>
      </trkpt>
      <trkpt lat="38.35575" lon="37.61186">
        <ele>1751.039293</ele>
        <time>2022-02-25T09:39:31.274Z</time>
      </trkpt>
      <trkpt lat="38.35634" lon="37.61204">
        <ele>1749.067448</ele>
        <time>2022-02-25T09:39:43.338Z</time>
      </trkpt>
      <trkpt lat="38.35987" lon="37.61233">
        <ele>1738.222239</ele>
        <time>2022-02-25T09:41:00.085Z</time>
      </trkpt>
      <trkpt lat="38.36241" lon="37.61249">
        <ele>1714.406335</ele>
        <time>2022-02-25T09:41:41.395Z</time>
      </trkpt>
      <trkpt lat="38.36289" lon="37.61247">
        <ele>1708.53684</ele>
        <time>2022-02-25T09:41:48.916Z</time>
      </trkpt>
      <trkpt lat="38.36383" lon="37.61208">
        <ele>1696.396821</ele>
        <time>2022-02-25T09:42:04.474Z</time>
      </trkpt>
      <trkpt lat="38.36421" lon="37.6118">
        <ele>1691.49789</ele>
        <time>2022-02-25T09:42:11.473Z</time>
      </trkpt>
      <trkpt lat="38.36475" lon="37.61127">
        <ele>1688.060491</ele>
        <time>2022-02-25T09:42:22.964Z</time>
      </trkpt>
      <trkpt lat="38.36632" lon="37.60917">
        <ele>1680.415989</ele>
        <time>2022-02-25T09:43:10.837Z</time>
      </trkpt>
      <trkpt lat="38.36658" lon="37.60892">
        <ele>1679.806283</ele>
        <time>2022-02-25T09:43:18.427Z</time>
      </trkpt>
      <trkpt lat="38.36689" lon="37.60872">
        <ele>1678.931407</ele>
        <time>2022-02-25T09:43:26.143Z</time>
      </trkpt>
      <trkpt lat="38.36745" lon="37.60855">
        <ele>1676.587131</ele>
        <time>2022-02-25T09:43:37.881Z</time>
      </trkpt>
      <trkpt lat="38.36802" lon="37.60852">
        <ele>1674.202824</ele>
        <time>2022-02-25T09:43:48.743Z</time>
      </trkpt>
      <trkpt lat="38.36854" lon="37.60864">
        <ele>1672.062546</ele>
        <time>2022-02-25T09:43:57.966Z</time>
      </trkpt>
      <trkpt lat="38.36876" lon="37.60876">
        <ele>1670.059866</ele>
        <time>2022-02-25T09:44:02.206Z</time>
      </trkpt>
      <trkpt lat="38.36997" lon="37.60983">
        <ele>1657.201758</ele>
        <time>2022-02-25T09:44:26.538Z</time>
      </trkpt>
      <trkpt lat="38.37052" lon="37.61006">
        <ele>1651.685505</ele>
        <time>2022-02-25T09:44:35.972Z</time>
      </trkpt>
      <trkpt lat="38.37212" lon="37.6103">
        <ele>1636.136077</ele>
        <time>2022-02-25T09:45:02.359Z</time>
      </trkpt>
      <trkpt lat="38.37325" lon="37.61072">
        <ele>1624.979632</ele>
        <time>2022-02-25T09:45:21.664Z</time>
      </trkpt>
      <trkpt lat="38.37353" lon="37.61077">
        <ele>1622.372208</ele>
        <time>2022-02-25T09:45:26.211Z</time>
      </trkpt>
      <trkpt lat="38.37412" lon="37.61076">
        <ele>1617.683506</ele>
        <time>2022-02-25T09:45:36.062Z</time>
      </trkpt>
      <trkpt lat="38.37467" lon="37.61056">
        <ele>1613.195842</ele>
        <time>2022-02-25T09:45:45.896Z</time>
      </trkpt>
      <trkpt lat="38.37567" lon="37.6098">
        <ele>1604.199181</ele>
        <time>2022-02-25T09:46:05.798Z</time>
      </trkpt>
      <trkpt lat="38.37592" lon="37.60953">
        <ele>1601.684523</ele>
        <time>2022-02-25T09:46:11.384Z</time>
      </trkpt>
      <trkpt lat="38.37596" lon="37.60952">
        <ele>1601.34148</ele>
        <time>2022-02-25T09:46:12.162Z</time>
      </trkpt>
      <trkpt lat="38.376" lon="37.60949">
        <ele>1600.995773</ele>
        <time>2022-02-25T09:46:12.952Z</time>
      </trkpt>
      <trkpt lat="38.37604" lon="37.60946">
        <ele>1600.654718</ele>
        <time>2022-02-25T09:46:13.739Z</time>
      </trkpt>
      <trkpt lat="38.37607" lon="37.6094">
        <ele>1600.215614</ele>
        <time>2022-02-25T09:46:14.717Z</time>
      </trkpt>
      <trkpt lat="38.37608" lon="37.60933">
        <ele>1599.778486</ele>
        <time>2022-02-25T09:46:15.676Z</time>
      </trkpt>
      <trkpt lat="38.37621" lon="37.60919">
        <ele>1598.470989</ele>
        <time>2022-02-25T09:46:18.513Z</time>
      </trkpt>
      <trkpt lat="38.37676" lon="37.60847">
        <ele>1592.103475</ele>
        <time>2022-02-25T09:46:31.642Z</time>
      </trkpt>
      <trkpt lat="38.37747" lon="37.60732">
        <ele>1581.58841</ele>
        <time>2022-02-25T09:46:50.411Z</time>
      </trkpt>
      <trkpt lat="38.37803" lon="37.60587">
        <ele>1570.831736</ele>
        <time>2022-02-25T09:47:11.516Z</time>
      </trkpt>
      <trkpt lat="38.37843" lon="37.605">
        <ele>1564.424582</ele>
        <time>2022-02-25T09:47:24.892Z</time>
      </trkpt>
      <trkpt lat="38.37976" lon="37.60141">
        <ele>1541.911862</ele>
        <time>2022-02-25T09:48:18.098Z</time>
      </trkpt>
      <trkpt lat="38.38065" lon="37.59934">
        <ele>1529.196941</ele>
        <time>2022-02-25T09:48:50.222Z</time>
      </trkpt>
      <trkpt lat="38.38146" lon="37.5971">
        <ele>1515.516988</ele>
        <time>2022-02-25T09:49:23.194Z</time>
      </trkpt>
      <trkpt lat="38.38163" lon="37.59675">
        <ele>1513.195834</ele>
        <time>2022-02-25T09:49:28.670Z</time>
      </trkpt>
      <trkpt lat="38.38246" lon="37.59541">
        <ele>1503.407146</ele>
        <time>2022-02-25T09:49:51.593Z</time>
      </trkpt>
      <trkpt lat="38.38409" lon="37.59291">
        <ele>1484.705973</ele>
        <time>2022-02-25T09:50:34.979Z</time>
      </trkpt>
      <trkpt lat="38.38433" lon="37.59241">
        <ele>1481.797137</ele>
        <time>2022-02-25T09:50:42.806Z</time>
      </trkpt>
      <trkpt lat="38.38507" lon="37.59016">
        <ele>1470.220578</ele>
        <time>2022-02-25T09:51:16.638Z</time>
      </trkpt>
      <trkpt lat="38.38534" lon="37.58969">
        <ele>1467.765212</ele>
        <time>2022-02-25T09:51:24.843Z</time>
      </trkpt>
      <trkpt lat="38.38562" lon="37.58936">
        <ele>1465.69103</ele>
        <time>2022-02-25T09:51:31.766Z</time>
      </trkpt>
      <trkpt lat="38.38589" lon="37.58912">
        <ele>1463.83007</ele>
        <time>2022-02-25T09:51:37.861Z</time>
      </trkpt>
      <trkpt lat="38.38775" lon="37.58821">
        <ele>1451.633657</ele>
        <time>2022-02-25T09:52:12.791Z</time>
      </trkpt>
      <trkpt lat="38.38837" lon="37.58774">
        <ele>1446.221731</ele>
        <time>2022-02-25T09:52:25.035Z</time>
      </trkpt>
      <trkpt lat="38.3888" lon="37.58732">
        <ele>1442.128007</ele>
        <time>2022-02-25T09:52:34.220Z</time>
      </trkpt>
      <trkpt lat="38.39063" lon="37.58482">
        <ele>1421.541591</ele>
        <time>2022-02-25T09:53:19.344Z</time>
      </trkpt>
      <trkpt lat="38.39098" lon="37.58445">
        <ele>1418.267665</ele>
        <time>2022-02-25T09:53:27.185Z</time>
      </trkpt>
      <trkpt lat="38.39196" lon="37.58369">
        <ele>1410.176535</ele>
        <time>2022-02-25T09:53:47.079Z</time>
      </trkpt>
      <trkpt lat="38.39265" lon="37.58298">
        <ele>1404.168496</ele>
        <time>2022-02-25T09:54:02.431Z</time>
      </trkpt>
      <trkpt lat="38.39307" lon="37.5823">
        <ele>1399.585425</ele>
        <time>2022-02-25T09:54:14.064Z</time>
      </trkpt>
      <trkpt lat="38.39337" lon="37.58156">
        <ele>1395.110269</ele>
        <time>2022-02-25T09:54:25.150Z</time>
      </trkpt>
      <trkpt lat="38.39374" lon="37.58044">
        <ele>1388.564084</ele>
        <time>2022-02-25T09:54:41.693Z</time>
      </trkpt>
      <trkpt lat="38.39382" lon="37.58022">
        <ele>1387.531385</ele>
        <time>2022-02-25T09:54:44.975Z</time>
      </trkpt>
      <trkpt lat="38.39408" lon="37.57939">
        <ele>1383.85383</ele>
        <time>2022-02-25T09:54:57.491Z</time>
      </trkpt>
      <trkpt lat="38.39433" lon="37.57879">
        <ele>1381.069138</ele>
        <time>2022-02-25T09:55:07.182Z</time>
      </trkpt>
      <trkpt lat="38.39463" lon="37.57826">
        <ele>1378.600932</ele>
        <time>2022-02-25T09:55:16.600Z</time>
      </trkpt>
      <trkpt lat="38.39498" lon="37.57782">
        <ele>1376.890148</ele>
        <time>2022-02-25T09:55:25.959Z</time>
      </trkpt>
      <trkpt lat="38.39559" lon="37.57725">
        <ele>1374.261055</ele>
        <time>2022-02-25T09:55:40.761Z</time>
      </trkpt>
      <trkpt lat="38.39597" lon="37.57697">
        <ele>1372.734984</ele>
        <time>2022-02-25T09:55:49.388Z</time>
      </trkpt>
      <trkpt lat="38.39608" lon="37.57689">
        <ele>1372.17722</ele>
        <time>2022-02-25T09:55:51.958Z</time>
      </trkpt>
      <trkpt lat="38.39653" lon="37.57666">
        <ele>1370.06534</ele>
        <time>2022-02-25T09:56:01.397Z</time>
      </trkpt>
      <trkpt lat="38.3972" lon="37.57647">
        <ele>1367.11934</ele>
        <time>2022-02-25T09:56:14.259Z</time>
      </trkpt>
      <trkpt lat="38.39984" lon="37.57617">
        <ele>1351.031265</ele>
        <time>2022-02-25T09:57:00.795Z</time>
      </trkpt>
      <trkpt lat="38.40045" lon="37.57608">
        <ele>1346.104449</ele>
        <time>2022-02-25T09:57:11.084Z</time>
      </trkpt>
      <trkpt lat="38.40096" lon="37.57593">
        <ele>1341.883832</ele>
        <time>2022-02-25T09:57:19.843Z</time>
      </trkpt>
      <trkpt lat="38.40171" lon="37.5756">
        <ele>1335.48982</ele>
        <time>2022-02-25T09:57:32.979Z</time>
      </trkpt>
      <trkpt lat="38.40386" lon="37.57419">
        <ele>1316.29057</ele>
        <time>2022-02-25T09:58:13.796Z</time>
      </trkpt>
      <trkpt lat="38.40503" lon="37.57372">
        <ele>1306.56968</ele>
        <time>2022-02-25T09:58:34.627Z</time>
      </trkpt>
      <trkpt lat="38.40624" lon="37.57348">
        <ele>1296.580784</ele>
        <time>2022-02-25T09:58:55.149Z</time>
      </trkpt>
      <trkpt lat="38.40724" lon="37.57353">
        <ele>1288.977758</ele>
        <time>2022-02-25T09:59:11.790Z</time>
      </trkpt>
      <trkpt lat="38.4085" lon="37.57383">
        <ele>1280.434128</ele>
        <time>2022-02-25T09:59:33.837Z</time>
      </trkpt>
      <trkpt lat="38.41211" lon="37.57567">
        <ele>1263.552196</ele>
        <time>2022-02-25T10:00:46.580Z</time>
      </trkpt>
      <trkpt lat="38.41264" lon="37.5759">
        <ele>1261.409234</ele>
        <time>2022-02-25T10:00:57.393Z</time>
      </trkpt>
      <trkpt lat="38.41356" lon="37.57617">
        <ele>1257.957247</ele>
        <time>2022-02-25T10:01:15.555Z</time>
      </trkpt>
      <trkpt lat="38.41505" lon="37.57634">
        <ele>1252.79448</ele>
        <time>2022-02-25T10:01:44.380Z</time>
      </trkpt>
      <trkpt lat="38.42092" lon="37.57666">
        <ele>1234.025005</ele>
        <time>2022-02-25T10:03:39.595Z</time>
      </trkpt>
      <trkpt lat="38.42178" lon="37.57671">
        <ele>1231.099717</ele>
        <time>2022-02-25T10:03:56.137Z</time>
      </trkpt>
      <trkpt lat="38.42239" lon="37.57674">
        <ele>1228.792547</ele>
        <time>2022-02-25T10:04:07.764Z</time>
      </trkpt>
      <trkpt lat="38.42606" lon="37.57691">
        <ele>1213.499001</ele>
        <time>2022-02-25T10:05:16.042Z</time>
      </trkpt>
      <trkpt lat="38.42717" lon="37.57709">
        <ele>1209.419257</ele>
        <time>2022-02-25T10:05:37.545Z</time>
      </trkpt>
      <trkpt lat="38.42801" lon="37.57735">
        <ele>1206.619478</ele>
        <time>2022-02-25T10:05:54.582Z</time>
      </trkpt>
      <trkpt lat="38.43031" lon="37.57859">
        <ele>1199.208964</ele>
        <time>2022-02-25T10:06:44.117Z</time>
      </trkpt>
      <trkpt lat="38.43134" lon="37.57907">
        <ele>1195.770166</ele>
        <time>2022-02-25T10:07:05.760Z</time>
      </trkpt>
      <trkpt lat="38.43472" lon="37.58003">
        <ele>1185.098673</ele>
        <time>2022-02-25T10:08:12.846Z</time>
      </trkpt>
      <trkpt lat="38.43509" lon="37.58019">
        <ele>1184.57668</ele>
        <time>2022-02-25T10:08:21.690Z</time>
      </trkpt>
      <trkpt lat="38.43535" lon="37.58029">
        <ele>1184.225871</ele>
        <time>2022-02-25T10:08:27.791Z</time>
      </trkpt>
      <trkpt lat="38.43578" lon="37.58037">
        <ele>1183.648478</ele>
        <time>2022-02-25T10:08:38.761Z</time>
      </trkpt>
      <trkpt lat="38.43681" lon="37.58072">
        <ele>1182.600669</ele>
        <time>2022-02-25T10:09:07.633Z</time>
      </trkpt>
      <trkpt lat="38.43854" lon="37.58169">
        <ele>1179.335119</ele>
        <time>2022-02-25T10:09:49.211Z</time>
      </trkpt>
      <trkpt lat="38.43921" lon="37.58206">
        <ele>1177.331907</ele>
        <time>2022-02-25T10:10:03.077Z</time>
      </trkpt>
      <trkpt lat="38.43964" lon="37.58227">
        <ele>1175.578437</ele>
        <time>2022-02-25T10:10:11.711Z</time>
      </trkpt>
      <trkpt lat="38.44105" lon="37.58282">
        <ele>1168.772196</ele>
        <time>2022-02-25T10:10:38.671Z</time>
      </trkpt>
      <trkpt lat="38.44184" lon="37.58307">
        <ele>1164.902096</ele>
        <time>2022-02-25T10:10:53.474Z</time>
      </trkpt>
      <trkpt lat="38.44402" lon="37.58348">
        <ele>1154.725692</ele>
        <time>2022-02-25T10:11:33.831Z</time>
      </trkpt>
      <trkpt lat="38.44528" lon="37.58358">
        <ele>1149.991951</ele>
        <time>2022-02-25T10:11:57.611Z</time>
      </trkpt>
      <trkpt lat="38.4464" lon="37.58356">
        <ele>1146.514042</ele>
        <time>2022-02-25T10:12:20.117Z</time>
      </trkpt>
      <trkpt lat="38.44901" lon="37.58335">
        <ele>1141.630967</ele>
        <time>2022-02-25T10:13:15.029Z</time>
      </trkpt>
      <trkpt lat="38.45038" lon="37.58326">
        <ele>1140.534807</ele>
        <time>2022-02-25T10:13:48.744Z</time>
      </trkpt>
      <trkpt lat="38.4519" lon="37.58319">
        <ele>1140.767329</ele>
        <time>2022-02-25T10:14:34.259Z</time>
      </trkpt>
      <trkpt lat="38.46317" lon="37.58509">
        <ele>1128.198511</ele>
        <time>2022-02-25T10:18:54.483Z</time>
      </trkpt>
      <trkpt lat="38.46423" lon="37.58539">
        <ele>1126.161316</ele>
        <time>2022-02-25T10:19:17.303Z</time>
      </trkpt>
      <trkpt lat="38.46461" lon="37.58554">
        <ele>1125.073642</ele>
        <time>2022-02-25T10:19:25.255Z</time>
      </trkpt>
      <trkpt lat="38.46629" lon="37.58618">
        <ele>1119.632598</ele>
        <time>2022-02-25T10:19:59.624Z</time>
      </trkpt>
      <trkpt lat="38.46691" lon="37.58642">
        <ele>1117.30684</ele>
        <time>2022-02-25T10:20:12.054Z</time>
      </trkpt>
      <trkpt lat="38.46732" lon="37.5866">
        <ele>1115.744169</ele>
        <time>2022-02-25T10:20:20.373Z</time>
      </trkpt>
      <trkpt lat="38.46735" lon="37.58663">
        <ele>1115.586547</ele>
        <time>2022-02-25T10:20:21.206Z</time>
      </trkpt>
      <trkpt lat="38.4674" lon="37.58665">
        <ele>1115.429821</ele>
        <time>2022-02-25T10:20:22.064Z</time>
      </trkpt>
      <trkpt lat="38.46744" lon="37.58665">
        <ele>1115.271598</ele>
        <time>2022-02-25T10:20:22.898Z</time>
      </trkpt>
      <trkpt lat="38.46769" lon="37.58671">
        <ele>1114.365868</ele>
        <time>2022-02-25T10:20:27.669Z</time>
      </trkpt>
      <trkpt lat="38.46822" lon="37.58684">
        <ele>1112.311278</ele>
        <time>2022-02-25T10:20:37.783Z</time>
      </trkpt>
      <trkpt lat="38.46903" lon="37.5871">
        <ele>1109.062979</ele>
        <time>2022-02-25T10:20:53.680Z</time>
      </trkpt>
      <trkpt lat="38.46917" lon="37.58714">
        <ele>1108.52135</ele>
        <time>2022-02-25T10:20:56.283Z</time>
      </trkpt>
      <trkpt lat="38.47106" lon="37.58781">
        <ele>1101.186267</ele>
        <time>2022-02-25T10:21:33.811Z</time>
      </trkpt>
      <trkpt lat="38.47245" lon="37.5883">
        <ele>1095.957261</ele>
        <time>2022-02-25T10:22:00.955Z</time>
      </trkpt>
      <trkpt lat="38.47284" lon="37.5884">
        <ele>1094.497255</ele>
        <time>2022-02-25T10:22:08.824Z</time>
      </trkpt>
      <trkpt lat="38.47325" lon="37.58852">
        <ele>1093.386584</ele>
        <time>2022-02-25T10:22:17.392Z</time>
      </trkpt>
      <trkpt lat="38.47359" lon="37.58861">
        <ele>1092.656031</ele>
        <time>2022-02-25T10:22:24.427Z</time>
      </trkpt>
      <trkpt lat="38.47385" lon="37.58864">
        <ele>1092.095541</ele>
        <time>2022-02-25T10:22:29.815Z</time>
      </trkpt>
      <trkpt lat="38.47409" lon="37.58866">
        <ele>1091.570431</ele>
        <time>2022-02-25T10:22:35.009Z</time>
      </trkpt>
      <trkpt lat="38.47482" lon="37.58868">
        <ele>1090.014589</ele>
        <time>2022-02-25T10:22:50.853Z</time>
      </trkpt>
      <trkpt lat="38.47514" lon="37.58866">
        <ele>1089.29012</ele>
        <time>2022-02-25T10:22:57.912Z</time>
      </trkpt>
      <trkpt lat="38.47634" lon="37.58853">
        <ele>1086.57007</ele>
        <time>2022-02-25T10:23:23.033Z</time>
      </trkpt>
      <trkpt lat="38.47725" lon="37.5883">
        <ele>1083.233716</ele>
        <time>2022-02-25T10:23:40.928Z</time>
      </trkpt>
      <trkpt lat="38.47749" lon="37.58821">
        <ele>1082.233885</ele>
        <time>2022-02-25T10:23:45.759Z</time>
      </trkpt>
      <trkpt lat="38.47774" lon="37.58812">
        <ele>1081.184313</ele>
        <time>2022-02-25T10:23:50.602Z</time>
      </trkpt>
      <trkpt lat="38.47852" lon="37.58774">
        <ele>1077.313448</ele>
        <time>2022-02-25T10:24:05.860Z</time>
      </trkpt>
      <trkpt lat="38.47853" lon="37.58774">
        <ele>1077.26133</ele>
        <time>2022-02-25T10:24:05.995Z</time>
      </trkpt>
      <trkpt lat="38.47914" lon="37.58735">
        <ele>1073.1324</ele>
        <time>2022-02-25T10:24:18.126Z</time>
      </trkpt>
      <trkpt lat="38.48449" lon="37.58345">
        <ele>1032.177069</ele>
        <time>2022-02-25T10:26:04.340Z</time>
      </trkpt>
      <trkpt lat="38.48538" lon="37.58301">
        <ele>1028.197662</ele>
        <time>2022-02-25T10:26:21.931Z</time>
      </trkpt>
      <trkpt lat="38.48583" lon="37.58285">
        <ele>1026.352943</ele>
        <time>2022-02-25T10:26:30.998Z</time>
      </trkpt>
      <trkpt lat="38.48643" lon="37.58274">
        <ele>1024.265879</ele>
        <time>2022-02-25T10:26:43.078Z</time>
      </trkpt>
      <trkpt lat="38.48941" lon="37.58272">
        <ele>1018.634262</ele>
        <time>2022-02-25T10:27:46.747Z</time>
      </trkpt>
      <trkpt lat="38.49074" lon="37.58257">
        <ele>1016.454518</ele>
        <time>2022-02-25T10:28:16.098Z</time>
      </trkpt>
      <trkpt lat="38.49157" lon="37.58231">
        <ele>1015.117471</ele>
        <time>2022-02-25T10:28:34.838Z</time>
      </trkpt>
      <trkpt lat="38.49229" lon="37.58198">
        <ele>1013.422974</ele>
        <time>2022-02-25T10:28:51.317Z</time>
      </trkpt>
      <trkpt lat="38.49271" lon="37.58177">
        <ele>1012.379754</ele>
        <time>2022-02-25T10:29:00.744Z</time>
      </trkpt>
      <trkpt lat="38.49356" lon="37.58134">
        <ele>1010.115145</ele>
        <time>2022-02-25T10:29:18.890Z</time>
      </trkpt>
      <trkpt lat="38.49523" lon="37.5805">
        <ele>1005.188234</ele>
        <time>2022-02-25T10:29:53.925Z</time>
      </trkpt>
      <trkpt lat="38.49611" lon="37.58004">
        <ele>1004.077072</ele>
        <time>2022-02-25T10:30:14.873Z</time>
      </trkpt>
      <trkpt lat="38.49666" lon="37.57962">
        <ele>1003.395613</ele>
        <time>2022-02-25T10:30:32.548Z</time>
      </trkpt>
      <trkpt lat="38.49734" lon="37.57884">
        <ele>1004.215226</ele>
        <time>2022-02-25T10:31:01.267Z</time>
      </trkpt>
      <trkpt lat="38.49772" lon="37.57819">
        <ele>1004.789484</ele>
        <time>2022-02-25T10:31:22.000Z</time>
      </trkpt>
      <trkpt lat="38.4981" lon="37.57705">
        <ele>1005.405776</ele>
        <time>2022-02-25T10:31:51.516Z</time>
      </trkpt>
      <trkpt lat="38.49822" lon="37.57606">
        <ele>1005.843639</ele>
        <time>2022-02-25T10:32:13.684Z</time>
      </trkpt>
      <trkpt lat="38.49814" lon="37.5749">
        <ele>1006.439945</ele>
        <time>2022-02-25T10:32:39.691Z</time>
      </trkpt>
      <trkpt lat="38.49774" lon="37.5721">
        <ele>1007.976279</ele>
        <time>2022-02-25T10:33:48.571Z</time>
      </trkpt>
      <trkpt lat="38.49771" lon="37.57104">
        <ele>1008.418357</ele>
        <time>2022-02-25T10:34:12.979Z</time>
      </trkpt>
      <trkpt lat="38.49786" lon="37.56976">
        <ele>1007.885604</ele>
        <time>2022-02-25T10:34:38.932Z</time>
      </trkpt>
      <trkpt lat="38.49834" lon="37.56861">
        <ele>1006.842122</ele>
        <time>2022-02-25T10:35:02.093Z</time>
      </trkpt>
      <trkpt lat="38.49882" lon="37.56782">
        <ele>1005.285399</ele>
        <time>2022-02-25T10:35:18.662Z</time>
      </trkpt>
      <trkpt lat="38.49929" lon="37.56727">
        <ele>1004.019653</ele>
        <time>2022-02-25T10:35:31.663Z</time>
      </trkpt>
      <trkpt lat="38.49983" lon="37.56686">
        <ele>1002.238394</ele>
        <time>2022-02-25T10:35:44.281Z</time>
      </trkpt>
      <trkpt lat="38.50052" lon="37.56646">
        <ele>1000.038254</ele>
        <time>2022-02-25T10:35:59.394Z</time>
      </trkpt>
      <trkpt lat="38.5052" lon="37.56409">
        <ele>985.666696</ele>
        <time>2022-02-25T10:37:38.731Z</time>
      </trkpt>
      <trkpt lat="38.50622" lon="37.56354">
        <ele>983.764222</ele>
        <time>2022-02-25T10:38:03.298Z</time>
      </trkpt>
      <trkpt lat="38.5068" lon="37.5631">
        <ele>983.563215</ele>
        <time>2022-02-25T10:38:20.313Z</time>
      </trkpt>
      <trkpt lat="38.50728" lon="37.56251">
        <ele>983.363504</ele>
        <time>2022-02-25T10:38:39.390Z</time>
      </trkpt>
      <trkpt lat="38.50758" lon="37.56203">
        <ele>983.103195</ele>
        <time>2022-02-25T10:38:52.863Z</time>
      </trkpt>
      <trkpt lat="38.50784" lon="37.56125">
        <ele>982.662593</ele>
        <time>2022-02-25T10:39:09.832Z</time>
      </trkpt>
      <trkpt lat="38.50798" lon="37.56051">
        <ele>982.266963</ele>
        <time>2022-02-25T10:39:24.081Z</time>
      </trkpt>
      <trkpt lat="38.50819" lon="37.56048">
        <ele>982.127697</ele>
        <time>2022-02-25T10:39:28.376Z</time>
      </trkpt>
      <trkpt lat="38.50859" lon="37.56008">
        <ele>980.720819</ele>
        <time>2022-02-25T10:39:38.831Z</time>
      </trkpt>
      <trkpt lat="38.50923" lon="37.55968">
        <ele>978.719044</ele>
        <time>2022-02-25T10:39:52.648Z</time>
      </trkpt>
      <trkpt lat="38.5095" lon="37.5594">
        <ele>977.711099</ele>
        <time>2022-02-25T10:39:59.410Z</time>
      </trkpt>
      <trkpt lat="38.50973" lon="37.55917">
        <ele>976.956797</ele>
        <time>2022-02-25T10:40:05.114Z</time>
      </trkpt>
      <trkpt lat="38.50982" lon="37.55912">
        <ele>976.780024</ele>
        <time>2022-02-25T10:40:06.886Z</time>
      </trkpt>
      <trkpt lat="38.51147" lon="37.55886">
        <ele>973.71341</ele>
        <time>2022-02-25T10:40:42.348Z</time>
      </trkpt>
      <trkpt lat="38.51237" lon="37.55898">
        <ele>974.441768</ele>
        <time>2022-02-25T10:41:08.322Z</time>
      </trkpt>
      <trkpt lat="38.51353" lon="37.55869">
        <ele>975.932196</ele>
        <time>2022-02-25T10:41:49.557Z</time>
      </trkpt>
      <trkpt lat="38.51412" lon="37.55847">
        <ele>977.543062</ele>
        <time>2022-02-25T10:42:13.723Z</time>
      </trkpt>
      <trkpt lat="38.51433" lon="37.5585">
        <ele>978.099935</ele>
        <time>2022-02-25T10:42:22.286Z</time>
      </trkpt>
      <trkpt lat="38.51486" lon="37.55877">
        <ele>979.595228</ele>
        <time>2022-02-25T10:42:45.702Z</time>
      </trkpt>
      <trkpt lat="38.51533" lon="37.55892">
        <ele>981.130456</ele>
        <time>2022-02-25T10:43:05.801Z</time>
      </trkpt>
      <trkpt lat="38.51675" lon="37.55992">
        <ele>986.793852</ele>
        <time>2022-02-25T10:44:15.165Z</time>
      </trkpt>
      <trkpt lat="38.51746" lon="37.56029">
        <ele>990.236529</ele>
        <time>2022-02-25T10:44:52.352Z</time>
      </trkpt>
      <trkpt lat="38.51772" lon="37.56045">
        <ele>991.531107</ele>
        <time>2022-02-25T10:45:06.201Z</time>
      </trkpt>
      <trkpt lat="38.51787" lon="37.56048">
        <ele>992.191359</ele>
        <time>2022-02-25T10:45:14.440Z</time>
      </trkpt>
      <trkpt lat="38.518" lon="37.56051">
        <ele>992.772185</ele>
        <time>2022-02-25T10:45:20.337Z</time>
      </trkpt>
      <trkpt lat="38.5182" lon="37.56069">
        <ele>993.86801</ele>
        <time>2022-02-25T10:45:33.173Z</time>
      </trkpt>
      <trkpt lat="38.51833" lon="37.56098">
        <ele>994.883839</ele>
        <time>2022-02-25T10:45:45.816Z</time>
      </trkpt>
      <trkpt lat="38.51835" lon="37.56207">
        <ele>998.232359</ele>
        <time>2022-02-25T10:46:29.553Z</time>
      </trkpt>
      <trkpt lat="38.5184" lon="37.56252">
        <ele>999.629899</ele>
        <time>2022-02-25T10:46:44.250Z</time>
      </trkpt>
      <trkpt lat="38.51846" lon="37.56322">
        <ele>1000.920444</ele>
        <time>2022-02-25T10:47:04.897Z</time>
      </trkpt>
      <trkpt lat="38.51852" lon="37.56357">
        <ele>1000.864795</ele>
        <time>2022-02-25T10:47:13.870Z</time>
      </trkpt>
      <trkpt lat="38.51885" lon="37.56452">
        <ele>1000.702952</ele>
        <time>2022-02-25T10:47:34.966Z</time>
      </trkpt>
      <trkpt lat="38.51895" lon="37.56469">
        <ele>1000.670101</ele>
        <time>2022-02-25T10:47:38.543Z</time>
      </trkpt>
      <trkpt lat="38.51912" lon="37.56531">
        <ele>1000.012991</ele>
        <time>2022-02-25T10:47:49.100Z</time>
      </trkpt>
      <trkpt lat="38.5193" lon="37.56626">
        <ele>997.594491</ele>
        <time>2022-02-25T10:48:04.111Z</time>
      </trkpt>
      <trkpt lat="38.52041" lon="37.56787">
        <ele>992.077758</ele>
        <time>2022-02-25T10:48:36.233Z</time>
      </trkpt>
      <trkpt lat="38.52071" lon="37.56821">
        <ele>990.703858</ele>
        <time>2022-02-25T10:48:43.971Z</time>
      </trkpt>
      <trkpt lat="38.52096" lon="37.56858">
        <ele>989.395344</ele>
        <time>2022-02-25T10:48:51.405Z</time>
      </trkpt>
      <trkpt lat="38.52109" lon="37.56889">
        <ele>988.522022</ele>
        <time>2022-02-25T10:48:56.887Z</time>
      </trkpt>
      <trkpt lat="38.5211" lon="37.56905">
        <ele>988.198579</ele>
        <time>2022-02-25T10:48:59.387Z</time>
      </trkpt>
      <trkpt lat="38.52063" lon="37.56963">
        <ele>986.53493</ele>
        <time>2022-02-25T10:49:12.364Z</time>
      </trkpt>
      <trkpt lat="38.52036" lon="37.56984">
        <ele>985.723838</ele>
        <time>2022-02-25T10:49:18.790Z</time>
      </trkpt>
      <trkpt lat="38.52013" lon="37.57015">
        <ele>984.857169</ele>
        <time>2022-02-25T10:49:25.770Z</time>
      </trkpt>
      <trkpt lat="38.51997" lon="37.57052">
        <ele>984.068132</ele>
        <time>2022-02-25T10:49:32.704Z</time>
      </trkpt>
      <trkpt lat="38.51979" lon="37.57204">
        <ele>982.213559</ele>
        <time>2022-02-25T10:49:58.792Z</time>
      </trkpt>
      <trkpt lat="38.51987" lon="37.57318">
        <ele>981.030611</ele>
        <time>2022-02-25T10:50:19.234Z</time>
      </trkpt>
      <trkpt lat="38.51999" lon="37.57396">
        <ele>980.439439</ele>
        <time>2022-02-25T10:50:33.629Z</time>
      </trkpt>
      <trkpt lat="38.5201" lon="37.57429">
        <ele>980.176638</ele>
        <time>2022-02-25T10:50:40.132Z</time>
      </trkpt>
      <trkpt lat="38.52061" lon="37.5748">
        <ele>979.642177</ele>
        <time>2022-02-25T10:50:55.656Z</time>
      </trkpt>
      <trkpt lat="38.52078" lon="37.57486">
        <ele>979.613091</ele>
        <time>2022-02-25T10:50:59.809Z</time>
      </trkpt>
      <trkpt lat="38.52135" lon="37.57468">
        <ele>979.513546</ele>
        <time>2022-02-25T10:51:14.385Z</time>
      </trkpt>
      <trkpt lat="38.52171" lon="37.5748">
        <ele>979.450743</ele>
        <time>2022-02-25T10:51:24.024Z</time>
      </trkpt>
      <trkpt lat="38.52247" lon="37.57525">
        <ele>979.666516</ele>
        <time>2022-02-25T10:51:47.662Z</time>
      </trkpt>
      <trkpt lat="38.52297" lon="37.57509">
        <ele>980.245403</ele>
        <time>2022-02-25T10:52:03.776Z</time>
      </trkpt>
      <trkpt lat="38.52477" lon="37.57444">
        <ele>982.997554</ele>
        <time>2022-02-25T10:53:07.127Z</time>
      </trkpt>
      <trkpt lat="38.5295" lon="37.57192">
        <ele>993.918368</ele>
        <time>2022-02-25T10:56:13.519Z</time>
      </trkpt>
      <trkpt lat="38.52965" lon="37.57191">
        <ele>994.426974</ele>
        <time>2022-02-25T10:56:19.873Z</time>
      </trkpt>
      <trkpt lat="38.52999" lon="37.57117">
        <ele>996.771288</ele>
        <time>2022-02-25T10:56:50.933Z</time>
      </trkpt>
      <trkpt lat="38.5301" lon="37.57079">
        <ele>997.874567</ele>
        <time>2022-02-25T10:57:06.351Z</time>
      </trkpt>
      <trkpt lat="38.53015" lon="37.57011">
        <ele>1000.372202</ele>
        <time>2022-02-25T10:57:33.437Z</time>
      </trkpt>
      <trkpt lat="38.53045" lon="37.56824">
        <ele>1007.530674</ele>
        <time>2022-02-25T10:58:48.594Z</time>
      </trkpt>
      <trkpt lat="38.5305" lon="37.56761">
        <ele>1009.70341</ele>
        <time>2022-02-25T10:59:12.499Z</time>
      </trkpt>
      <trkpt lat="38.5307" lon="37.56661">
        <ele>1013.269905</ele>
        <time>2022-02-25T10:59:50.771Z</time>
      </trkpt>
      <trkpt lat="38.53116" lon="37.56514">
        <ele>1018.561104</ele>
        <time>2022-02-25T11:00:47.759Z</time>
      </trkpt>
      <trkpt lat="38.53139" lon="37.56463">
        <ele>1020.534756</ele>
        <time>2022-02-25T11:01:09.621Z</time>
      </trkpt>
      <trkpt lat="38.53173" lon="37.5642">
        <ele>1022.619898</ele>
        <time>2022-02-25T11:01:32.698Z</time>
      </trkpt>
      <trkpt lat="38.53215" lon="37.56353">
        <ele>1026.077541</ele>
        <time>2022-02-25T11:02:06.040Z</time>
      </trkpt>
      <trkpt lat="38.53242" lon="37.56262">
        <ele>1030.002441</ele>
        <time>2022-02-25T11:02:45.522Z</time>
      </trkpt>
      <trkpt lat="38.53243" lon="37.56214">
        <ele>1032.025211</ele>
        <time>2022-02-25T11:03:05.958Z</time>
      </trkpt>
      <trkpt lat="38.53221" lon="37.56113">
        <ele>1037.190282</ele>
        <time>2022-02-25T11:03:51.459Z</time>
      </trkpt>
      <trkpt lat="38.53222" lon="37.5608">
        <ele>1038.840056</ele>
        <time>2022-02-25T11:04:06.341Z</time>
      </trkpt>
      <trkpt lat="38.53346" lon="37.55861">
        <ele>1053.04374</ele>
        <time>2022-02-25T11:06:12.884Z</time>
      </trkpt>
      <trkpt lat="38.53382" lon="37.55819">
        <ele>1056.346578</ele>
        <time>2022-02-25T11:06:42.046Z</time>
      </trkpt>
      <trkpt lat="38.53442" lon="37.55774">
        <ele>1060.973397</ele>
        <time>2022-02-25T11:07:23.679Z</time>
      </trkpt>
      <trkpt lat="38.53502" lon="37.55687">
        <ele>1067.05381</ele>
        <time>2022-02-25T11:08:16.655Z</time>
      </trkpt>
      <trkpt lat="38.53512" lon="37.55667">
        <ele>1068.151117</ele>
        <time>2022-02-25T11:08:27.349Z</time>
      </trkpt>
      <trkpt lat="38.53518" lon="37.55624">
        <ele>1070.013646</ele>
        <time>2022-02-25T11:08:46.192Z</time>
      </trkpt>
      <trkpt lat="38.53533" lon="37.55594">
        <ele>1071.556309</ele>
        <time>2022-02-25T11:09:01.532Z</time>
      </trkpt>
      <trkpt lat="38.53563" lon="37.5557">
        <ele>1073.50502</ele>
        <time>2022-02-25T11:09:20.593Z</time>
      </trkpt>
      <trkpt lat="38.53599" lon="37.55558">
        <ele>1075.565877</ele>
        <time>2022-02-25T11:09:40.080Z</time>
      </trkpt>
      <trkpt lat="38.53617" lon="37.55536">
        <ele>1076.918836</ele>
        <time>2022-02-25T11:09:52.284Z</time>
      </trkpt>
      <trkpt lat="38.53643" lon="37.55489">
        <ele>1078.655361</ele>
        <time>2022-02-25T11:10:14.119Z</time>
      </trkpt>
      <trkpt lat="38.53671" lon="37.55464">
        <ele>1079.822066</ele>
        <time>2022-02-25T11:10:29.465Z</time>
      </trkpt>
      <trkpt lat="38.53706" lon="37.55448">
        <ele>1081.107321</ele>
        <time>2022-02-25T11:10:45.545Z</time>
      </trkpt>
      <trkpt lat="38.53792" lon="37.55422">
        <ele>1083.874331</ele>
        <time>2022-02-25T11:11:20.049Z</time>
      </trkpt>
      <trkpt lat="38.53818" lon="37.55401">
        <ele>1084.456727</ele>
        <time>2022-02-25T11:11:31.109Z</time>
      </trkpt>
      <trkpt lat="38.53843" lon="37.55367">
        <ele>1085.158139</ele>
        <time>2022-02-25T11:11:44.062Z</time>
      </trkpt>
      <trkpt lat="38.53855" lon="37.55262">
        <ele>1086.753109</ele>
        <time>2022-02-25T11:12:13.116Z</time>
      </trkpt>
      <trkpt lat="38.53882" lon="37.55107">
        <ele>1088.480186</ele>
        <time>2022-02-25T11:12:55.974Z</time>
      </trkpt>
      <trkpt lat="38.53896" lon="37.54833">
        <ele>1089.975743</ele>
        <time>2022-02-25T11:14:02.315Z</time>
      </trkpt>
      <trkpt lat="38.53913" lon="37.54697">
        <ele>1088.473172</ele>
        <time>2022-02-25T11:14:26.750Z</time>
      </trkpt>
      <trkpt lat="38.53917" lon="37.54627">
        <ele>1087.268045</ele>
        <time>2022-02-25T11:14:37.968Z</time>
      </trkpt>
      <trkpt lat="38.53924" lon="37.54593">
        <ele>1086.683476</ele>
        <time>2022-02-25T11:14:43.225Z</time>
      </trkpt>
      <trkpt lat="38.5396" lon="37.5452">
        <ele>1084.255988</ele>
        <time>2022-02-25T11:14:56.261Z</time>
      </trkpt>
      <trkpt lat="38.54006" lon="37.54398">
        <ele>1079.709073</ele>
        <time>2022-02-25T11:15:15.864Z</time>
      </trkpt>
      <trkpt lat="38.54042" lon="37.54326">
        <ele>1076.297204</ele>
        <time>2022-02-25T11:15:27.989Z</time>
      </trkpt>
      <trkpt lat="38.54048" lon="37.54271">
        <ele>1073.831127</ele>
        <time>2022-02-25T11:15:35.752Z</time>
      </trkpt>
      <trkpt lat="38.54062" lon="37.54238">
        <ele>1072.196559</ele>
        <time>2022-02-25T11:15:40.856Z</time>
      </trkpt>
      <trkpt lat="38.54103" lon="37.542">
        <ele>1069.348387</ele>
        <time>2022-02-25T11:15:49.713Z</time>
      </trkpt>
      <trkpt lat="38.54117" lon="37.54167">
        <ele>1067.680061</ele>
        <time>2022-02-25T11:15:54.935Z</time>
      </trkpt>
      <trkpt lat="38.54129" lon="37.54094">
        <ele>1064.493822</ele>
        <time>2022-02-25T11:16:05.165Z</time>
      </trkpt>
      <trkpt lat="38.54132" lon="37.54016">
        <ele>1061.172945</ele>
        <time>2022-02-25T11:16:15.963Z</time>
      </trkpt>
      <trkpt lat="38.54143" lon="37.53928">
        <ele>1057.657282</ele>
        <time>2022-02-25T11:16:28.740Z</time>
      </trkpt>
      <trkpt lat="38.54152" lon="37.53892">
        <ele>1056.513353</ele>
        <time>2022-02-25T11:16:34.180Z</time>
      </trkpt>
      <trkpt lat="38.5415" lon="37.53861">
        <ele>1055.548599</ele>
        <time>2022-02-25T11:16:38.824Z</time>
      </trkpt>
      <trkpt lat="38.54141" lon="37.5384">
        <ele>1054.814542</ele>
        <time>2022-02-25T11:16:42.360Z</time>
      </trkpt>
      <trkpt lat="38.54105" lon="37.53807">
        <ele>1053.095817</ele>
        <time>2022-02-25T11:16:50.780Z</time>
      </trkpt>
      <trkpt lat="38.54069" lon="37.537">
        <ele>1049.770287</ele>
        <time>2022-02-25T11:17:08.633Z</time>
      </trkpt>
      <trkpt lat="38.54057" lon="37.53642">
        <ele>1048.190815</ele>
        <time>2022-02-25T11:17:17.745Z</time>
      </trkpt>
      <trkpt lat="38.54062" lon="37.53551">
        <ele>1045.791388</ele>
        <time>2022-02-25T11:17:31.497Z</time>
      </trkpt>
      <trkpt lat="38.54051" lon="37.53498">
        <ele>1044.450689</ele>
        <time>2022-02-25T11:17:39.787Z</time>
      </trkpt>
      <trkpt lat="38.5401" lon="37.53422">
        <ele>1042.241925</ele>
        <time>2022-02-25T11:17:54.031Z</time>
      </trkpt>
      <trkpt lat="38.53972" lon="37.5327">
        <ele>1038.661549</ele>
        <time>2022-02-25T11:18:18.861Z</time>
      </trkpt>
      <trkpt lat="38.5397" lon="37.53208">
        <ele>1037.392978</ele>
        <time>2022-02-25T11:18:28.746Z</time>
      </trkpt>
      <trkpt lat="38.53954" lon="37.53085">
        <ele>1034.842106</ele>
        <time>2022-02-25T11:18:48.617Z</time>
      </trkpt>
      <trkpt lat="38.53907" lon="37.52915">
        <ele>1031.182462</ele>
        <time>2022-02-25T11:19:16.930Z</time>
      </trkpt>
      <trkpt lat="38.53859" lon="37.52799">
        <ele>1029.303605</ele>
        <time>2022-02-25T11:19:37.996Z</time>
      </trkpt>
      <trkpt lat="38.53825" lon="37.52598">
        <ele>1028.036891</ele>
        <time>2022-02-25T11:20:15.819Z</time>
      </trkpt>
      <trkpt lat="38.53825" lon="37.52556">
        <ele>1028.231103</ele>
        <time>2022-02-25T11:20:25.982Z</time>
      </trkpt>
      <trkpt lat="38.53851" lon="37.52421">
        <ele>1028.90825</ele>
        <time>2022-02-25T11:21:02.668Z</time>
      </trkpt>
      <trkpt lat="38.53851" lon="37.52366">
        <ele>1029.222802</ele>
        <time>2022-02-25T11:21:18.084Z</time>
      </trkpt>
      <trkpt lat="38.53829" lon="37.52165">
        <ele>1029.425834</ele>
        <time>2022-02-25T11:22:02.870Z</time>
      </trkpt>
      <trkpt lat="38.53827" lon="37.51892">
        <ele>1025.953738</ele>
        <time>2022-02-25T11:22:46.989Z</time>
      </trkpt>
      <trkpt lat="38.53831" lon="37.51816">
        <ele>1025.001939</ele>
        <time>2022-02-25T11:22:59.848Z</time>
      </trkpt>
      <trkpt lat="38.53857" lon="37.51739">
        <ele>1024.4739</ele>
        <time>2022-02-25T11:23:15.557Z</time>
      </trkpt>
      <trkpt lat="38.5386" lon="37.51707">
        <ele>1024.719907</ele>
        <time>2022-02-25T11:23:22.279Z</time>
      </trkpt>
      <trkpt lat="38.53883" lon="37.51691">
        <ele>1024.976738</ele>
        <time>2022-02-25T11:23:29.785Z</time>
      </trkpt>
      <trkpt lat="38.53956" lon="37.51587">
        <ele>1026.064429</ele>
        <time>2022-02-25T11:24:07.157Z</time>
      </trkpt>
      <trkpt lat="38.53985" lon="37.51536">
        <ele>1027.552003</ele>
        <time>2022-02-25T11:24:26.595Z</time>
      </trkpt>
      <trkpt lat="38.54019" lon="37.51505">
        <ele>1028.811661</ele>
        <time>2022-02-25T11:24:44.003Z</time>
      </trkpt>
      <trkpt lat="38.54058" lon="37.51436">
        <ele>1030.815019</ele>
        <time>2022-02-25T11:25:12.722Z</time>
      </trkpt>
      <trkpt lat="38.54069" lon="37.51394">
        <ele>1031.903647</ele>
        <time>2022-02-25T11:25:27.789Z</time>
      </trkpt>
      <trkpt lat="38.54087" lon="37.51376">
        <ele>1032.674326</ele>
        <time>2022-02-25T11:25:37.715Z</time>
      </trkpt>
      <trkpt lat="38.54129" lon="37.51346">
        <ele>1034.30413</ele>
        <time>2022-02-25T11:25:58.484Z</time>
      </trkpt>
      <trkpt lat="38.54188" lon="37.51281">
        <ele>1036.963145</ele>
        <time>2022-02-25T11:26:31.879Z</time>
      </trkpt>
      <trkpt lat="38.54244" lon="37.5125">
        <ele>1039.034554</ele>
        <time>2022-02-25T11:26:57.837Z</time>
      </trkpt>
      <trkpt lat="38.54305" lon="37.51197">
        <ele>1041.52624</ele>
        <time>2022-02-25T11:27:29.387Z</time>
      </trkpt>
      <trkpt lat="38.54375" lon="37.51205">
        <ele>1043.847354</ele>
        <time>2022-02-25T11:28:00.215Z</time>
      </trkpt>
      <trkpt lat="38.54407" lon="37.51226">
        <ele>1044.868265</ele>
        <time>2022-02-25T11:28:15.937Z</time>
      </trkpt>
      <trkpt lat="38.54461" lon="37.5128">
        <ele>1046.819406</ele>
        <time>2022-02-25T11:28:45.134Z</time>
      </trkpt>
      <trkpt lat="38.54562" lon="37.51351">
        <ele>1048.732724</ele>
        <time>2022-02-25T11:29:27.459Z</time>
      </trkpt>
      <trkpt lat="38.54749" lon="37.51377">
        <ele>1046.88952</ele>
        <time>2022-02-25T11:30:11.825Z</time>
      </trkpt>
      <trkpt lat="38.54796" lon="37.51368">
        <ele>1045.364251</ele>
        <time>2022-02-25T11:30:20.858Z</time>
      </trkpt>
      <trkpt lat="38.54855" lon="37.51347">
        <ele>1043.36798</ele>
        <time>2022-02-25T11:30:32.175Z</time>
      </trkpt>
      <trkpt lat="38.54895" lon="37.51314">
        <ele>1041.227493</ele>
        <time>2022-02-25T11:30:40.663Z</time>
      </trkpt>
      <trkpt lat="38.54937" lon="37.51264">
        <ele>1038.297158</ele>
        <time>2022-02-25T11:30:50.733Z</time>
      </trkpt>
      <trkpt lat="38.5496" lon="37.51228">
        <ele>1036.381188</ele>
        <time>2022-02-25T11:30:57.401Z</time>
      </trkpt>
      <trkpt lat="38.54977" lon="37.51186">
        <ele>1034.499183</ele>
        <time>2022-02-25T11:31:04.040Z</time>
      </trkpt>
      <trkpt lat="38.54994" lon="37.51074">
        <ele>1031.989631</ele>
        <time>2022-02-25T11:31:20.923Z</time>
      </trkpt>
      <trkpt lat="38.54997" lon="37.51022">
        <ele>1031.081645</ele>
        <time>2022-02-25T11:31:29.070Z</time>
      </trkpt>
      <trkpt lat="38.54984" lon="37.50897">
        <ele>1029.975458</ele>
        <time>2022-02-25T11:31:54.945Z</time>
      </trkpt>
      <trkpt lat="38.54983" lon="37.50886">
        <ele>1030.091743</ele>
        <time>2022-02-25T11:31:57.232Z</time>
      </trkpt>
      <trkpt lat="38.54978" lon="37.50835">
        <ele>1030.613426</ele>
        <time>2022-02-25T11:32:10.185Z</time>
      </trkpt>
      <trkpt lat="38.54982" lon="37.50823">
        <ele>1030.754187</ele>
        <time>2022-02-25T11:32:15.001Z</time>
      </trkpt>
      <trkpt lat="38.55001" lon="37.50809">
        <ele>1031.033964</ele>
        <time>2022-02-25T11:32:21.580Z</time>
      </trkpt>
      <trkpt lat="38.55058" lon="37.50747">
        <ele>1032.024248</ele>
        <time>2022-02-25T11:32:49.473Z</time>
      </trkpt>
      <trkpt lat="38.55139" lon="37.50607">
        <ele>1033.989337</ele>
        <time>2022-02-25T11:33:38.339Z</time>
      </trkpt>
      <trkpt lat="38.55228" lon="37.50483">
        <ele>1034.436492</ele>
        <time>2022-02-25T11:34:13.088Z</time>
      </trkpt>
      <trkpt lat="38.5525" lon="37.50433">
        <ele>1034.399888</ele>
        <time>2022-02-25T11:34:24.037Z</time>
      </trkpt>
      <trkpt lat="38.55254" lon="37.5042">
        <ele>1034.391188</ele>
        <time>2022-02-25T11:34:26.363Z</time>
      </trkpt>
      <trkpt lat="38.55295" lon="37.5029">
        <ele>1034.715788</ele>
        <time>2022-02-25T11:34:56.332Z</time>
      </trkpt>
      <trkpt lat="38.55298" lon="37.50281">
        <ele>1034.748963</ele>
        <time>2022-02-25T11:34:59.244Z</time>
      </trkpt>
      <trkpt lat="38.55333" lon="37.50173">
        <ele>1035.146418</ele>
        <time>2022-02-25T11:35:26.598Z</time>
      </trkpt>
      <trkpt lat="38.55355" lon="37.50106">
        <ele>1034.871341</ele>
        <time>2022-02-25T11:35:44.433Z</time>
      </trkpt>
      <trkpt lat="38.55397" lon="37.49989">
        <ele>1034.378282</ele>
        <time>2022-02-25T11:36:09.570Z</time>
      </trkpt>
      <trkpt lat="38.55441" lon="37.4985">
        <ele>1031.511248</ele>
        <time>2022-02-25T11:36:32.634Z</time>
      </trkpt>
      <trkpt lat="38.55419" lon="37.49843">
        <ele>1030.84722</ele>
        <time>2022-02-25T11:36:37.188Z</time>
      </trkpt>
      <trkpt lat="38.55403" lon="37.49841">
        <ele>1030.382515</ele>
        <time>2022-02-25T11:36:40.553Z</time>
      </trkpt>
      <trkpt lat="38.55374" lon="37.49815">
        <ele>1029.351093</ele>
        <time>2022-02-25T11:36:47.817Z</time>
      </trkpt>
      <trkpt lat="38.5539" lon="37.49777">
        <ele>1028.654897</ele>
        <time>2022-02-25T11:36:54.848Z</time>
      </trkpt>
      <trkpt lat="38.55418" lon="37.4972">
        <ele>1027.802565</ele>
        <time>2022-02-25T11:37:05.788Z</time>
      </trkpt>
      <trkpt lat="38.55437" lon="37.49693">
        <ele>1027.342747</ele>
        <time>2022-02-25T11:37:12.123Z</time>
      </trkpt>
      <trkpt lat="38.55501" lon="37.49573">
        <ele>1026.19095</ele>
        <time>2022-02-25T11:37:42.222Z</time>
      </trkpt>
      <trkpt lat="38.55581" lon="37.49445">
        <ele>1026.497014</ele>
        <time>2022-02-25T11:38:20.648Z</time>
      </trkpt>
      <trkpt lat="38.55623" lon="37.49407">
        <ele>1026.695689</ele>
        <time>2022-02-25T11:38:35.842Z</time>
      </trkpt>
      <trkpt lat="38.55652" lon="37.49371">
        <ele>1026.877634</ele>
        <time>2022-02-25T11:38:47.512Z</time>
      </trkpt>
      <trkpt lat="38.55659" lon="37.49351">
        <ele>1026.953739</ele>
        <time>2022-02-25T11:38:52.635Z</time>
      </trkpt>
      <trkpt lat="38.55668" lon="37.49322">
        <ele>1027.060187</ele>
        <time>2022-02-25T11:38:59.274Z</time>
      </trkpt>
      <trkpt lat="38.55695" lon="37.49274">
        <ele>1027.269767</ele>
        <time>2022-02-25T11:39:13.737Z</time>
      </trkpt>
      <trkpt lat="38.55713" lon="37.49264">
        <ele>1027.432224</ele>
        <time>2022-02-25T11:39:19.463Z</time>
      </trkpt>
      <trkpt lat="38.55692" lon="37.49196">
        <ele>1028.681497</ele>
        <time>2022-02-25T11:39:38.311Z</time>
      </trkpt>
      <trkpt lat="38.55689" lon="37.49186">
        <ele>1028.850276</ele>
        <time>2022-02-25T11:39:41.105Z</time>
      </trkpt>
      <trkpt lat="38.55683" lon="37.49161">
        <ele>1029.296418</ele>
        <time>2022-02-25T11:39:48.713Z</time>
      </trkpt>
      <trkpt lat="38.55681" lon="37.49154">
        <ele>1029.430624</ele>
        <time>2022-02-25T11:39:50.871Z</time>
      </trkpt>
      <trkpt lat="38.55659" lon="37.49073">
        <ele>1030.881669</ele>
        <time>2022-02-25T11:40:17.290Z</time>
      </trkpt>
      <trkpt lat="38.55655" lon="37.49059">
        <ele>1031.129344</ele>
        <time>2022-02-25T11:40:21.885Z</time>
      </trkpt>
      <trkpt lat="38.55666" lon="37.49035">
        <ele>1032.006951</ele>
        <time>2022-02-25T11:40:31.814Z</time>
      </trkpt>
      <trkpt lat="38.55676" lon="37.49026">
        <ele>1032.548673</ele>
        <time>2022-02-25T11:40:38.427Z</time>
      </trkpt>
      <trkpt lat="38.55696" lon="37.49017">
        <ele>1033.50319</ele>
        <time>2022-02-25T11:40:48.750Z</time>
      </trkpt>
      <trkpt lat="38.55713" lon="37.48978">
        <ele>1035.025934</ele>
        <time>2022-02-25T11:41:05.916Z</time>
      </trkpt>
      <trkpt lat="38.55775" lon="37.48922">
        <ele>1038.365119</ele>
        <time>2022-02-25T11:41:43.861Z</time>
      </trkpt>
      <trkpt lat="38.55781" lon="37.48913">
        <ele>1038.813482</ele>
        <time>2022-02-25T11:41:50.017Z</time>
      </trkpt>
      <trkpt lat="38.55798" lon="37.48914">
        <ele>1039.582135</ele>
        <time>2022-02-25T11:41:58.464Z</time>
      </trkpt>
      <trkpt lat="38.55873" lon="37.48889">
        <ele>1043.159081</ele>
        <time>2022-02-25T11:42:36.908Z</time>
      </trkpt>
      <trkpt lat="38.55899" lon="37.4888">
        <ele>1044.420906</ele>
        <time>2022-02-25T11:42:51.422Z</time>
      </trkpt>
      <trkpt lat="38.55957" lon="37.48832">
        <ele>1047.637818</ele>
        <time>2022-02-25T11:43:25.679Z</time>
      </trkpt>
      <trkpt lat="38.55962" lon="37.48805">
        <ele>1048.328156</ele>
        <time>2022-02-25T11:43:35.620Z</time>
      </trkpt>
      <trkpt lat="38.55972" lon="37.48785">
        <ele>1048.92583</ele>
        <time>2022-02-25T11:43:44.570Z</time>
      </trkpt>
      <trkpt lat="38.55993" lon="37.48754">
        <ele>1049.939024</ele>
        <time>2022-02-25T11:43:59.394Z</time>
      </trkpt>
      <trkpt lat="38.56012" lon="37.48716">
        <ele>1051.094624</ele>
        <time>2022-02-25T11:44:15.040Z</time>
      </trkpt>
      <trkpt lat="38.5603" lon="37.48702">
        <ele>1051.738926</ele>
        <time>2022-02-25T11:44:23.461Z</time>
      </trkpt>
      <trkpt lat="38.56061" lon="37.48691">
        <ele>1052.785173</ele>
        <time>2022-02-25T11:44:36.608Z</time>
      </trkpt>
      <trkpt lat="38.56153" lon="37.48649">
        <ele>1053.985862</ele>
        <time>2022-02-25T11:45:10.860Z</time>
      </trkpt>
      <trkpt lat="38.56177" lon="37.48627">
        <ele>1054.228581</ele>
        <time>2022-02-25T11:45:20.405Z</time>
      </trkpt>
      <trkpt lat="38.56185" lon="37.48617">
        <ele>1054.314878</ele>
        <time>2022-02-25T11:45:23.585Z</time>
      </trkpt>
      <trkpt lat="38.56194" lon="37.48606">
        <ele>1054.419802</ele>
        <time>2022-02-25T11:45:27.282Z</time>
      </trkpt>
      <trkpt lat="38.56303" lon="37.48425">
        <ele>1054.215469</ele>
        <time>2022-02-25T11:46:13.837Z</time>
      </trkpt>
      <trkpt lat="38.56317" lon="37.48411">
        <ele>1054.138729</ele>
        <time>2022-02-25T11:46:18.300Z</time>
      </trkpt>
      <trkpt lat="38.56379" lon="37.48365">
        <ele>1053.667641</ele>
        <time>2022-02-25T11:46:36.518Z</time>
      </trkpt>
      <trkpt lat="38.56443" lon="37.48322">
        <ele>1053.08185</ele>
        <time>2022-02-25T11:46:54.483Z</time>
      </trkpt>
      <trkpt lat="38.56496" lon="37.48297">
        <ele>1052.624086</ele>
        <time>2022-02-25T11:47:08.186Z</time>
      </trkpt>
      <trkpt lat="38.56525" lon="37.48298">
        <ele>1052.502668</ele>
        <time>2022-02-25T11:47:15.097Z</time>
      </trkpt>
      <trkpt lat="38.56569" lon="37.48315">
        <ele>1052.383269</ele>
        <time>2022-02-25T11:47:26.531Z</time>
      </trkpt>
      <trkpt lat="38.56569" lon="37.48335">
        <ele>1052.342575</ele>
        <time>2022-02-25T11:47:30.212Z</time>
      </trkpt>
      <trkpt lat="38.56575" lon="37.48352">
        <ele>1052.30429</ele>
        <time>2022-02-25T11:47:34.179Z</time>
      </trkpt>
      <trkpt lat="38.56618" lon="37.48402">
        <ele>1052.153074</ele>
        <time>2022-02-25T11:47:49.168Z</time>
      </trkpt>
      <trkpt lat="38.56636" lon="37.48424">
        <ele>1052.087059</ele>
        <time>2022-02-25T11:47:57.374Z</time>
      </trkpt>
      <trkpt lat="38.56684" lon="37.48495">
        <ele>1054.016496</ele>
        <time>2022-02-25T11:48:24.013Z</time>
      </trkpt>
      <trkpt lat="38.56701" lon="37.48511">
        <ele>1054.572363</ele>
        <time>2022-02-25T11:48:32.519Z</time>
      </trkpt>
      <trkpt lat="38.56714" lon="37.48524">
        <ele>1055.009561</ele>
        <time>2022-02-25T11:48:39.488Z</time>
      </trkpt>
      <trkpt lat="38.56723" lon="37.48534">
        <ele>1055.331096</ele>
        <time>2022-02-25T11:48:44.662Z</time>
      </trkpt>
      <trkpt lat="38.56748" lon="37.48487">
        <ele>1056.508091</ele>
        <time>2022-02-25T11:49:04.409Z</time>
      </trkpt>
      <trkpt lat="38.56822" lon="37.48337">
        <ele>1062.806427</ele>
        <time>2022-02-25T11:50:11.923Z</time>
      </trkpt>
      <trkpt lat="38.56848" lon="37.48273">
        <ele>1065.519428</ele>
        <time>2022-02-25T11:50:39.874Z</time>
      </trkpt>
      <trkpt lat="38.56885" lon="37.48138">
        <ele>1073.387147</ele>
        <time>2022-02-25T11:51:43.974Z</time>
      </trkpt>
      <trkpt lat="38.569" lon="37.48055">
        <ele>1078.103785</ele>
        <time>2022-02-25T11:52:28.066Z</time>
      </trkpt>
      <trkpt lat="38.56907" lon="37.4796">
        <ele>1084.79078</ele>
        <time>2022-02-25T11:53:22.917Z</time>
      </trkpt>
      <trkpt lat="38.56903" lon="37.47825">
        <ele>1094.271604</ele>
        <time>2022-02-25T11:54:38.134Z</time>
      </trkpt>
      <trkpt lat="38.56902" lon="37.47799">
        <ele>1095.350055</ele>
        <time>2022-02-25T11:54:52.153Z</time>
      </trkpt>
      <trkpt lat="38.56894" lon="37.47741">
        <ele>1097.850818</ele>
        <time>2022-02-25T11:55:18.611Z</time>
      </trkpt>
      <trkpt lat="38.5684" lon="37.47451">
        <ele>1108.915446</ele>
        <time>2022-02-25T11:57:04.850Z</time>
      </trkpt>
      <trkpt lat="38.56828" lon="37.47344">
        <ele>1112.859971</ele>
        <time>2022-02-25T11:57:44.466Z</time>
      </trkpt>
      <trkpt lat="38.56835" lon="37.47207">
        <ele>1119.225863</ele>
        <time>2022-02-25T11:58:43.056Z</time>
      </trkpt>
      <trkpt lat="38.56876" lon="37.46918">
        <ele>1135.169634</ele>
        <time>2022-02-25T12:01:05.258Z</time>
      </trkpt>
      <trkpt lat="38.56875" lon="37.46806">
        <ele>1140.785219</ele>
        <time>2022-02-25T12:01:57.533Z</time>
      </trkpt>
      <trkpt lat="38.56854" lon="37.46702">
        <ele>1146.162339</ele>
        <time>2022-02-25T12:02:44.182Z</time>
      </trkpt>
      <trkpt lat="38.56809" lon="37.46579">
        <ele>1152.193942</ele>
        <time>2022-02-25T12:03:40.023Z</time>
      </trkpt>
      <trkpt lat="38.56788" lon="37.46488">
        <ele>1156.380961</ele>
        <time>2022-02-25T12:04:18.851Z</time>
      </trkpt>
      <trkpt lat="38.56785" lon="37.46461">
        <ele>1157.830135</ele>
        <time>2022-02-25T12:04:31.076Z</time>
      </trkpt>
      <trkpt lat="38.56787" lon="37.46394">
        <ele>1161.507163</ele>
        <time>2022-02-25T12:05:03.092Z</time>
      </trkpt>
      <trkpt lat="38.56802" lon="37.46314">
        <ele>1166.069654</ele>
        <time>2022-02-25T12:05:42.432Z</time>
      </trkpt>
      <trkpt lat="38.56805" lon="37.46299">
        <ele>1166.955828</ele>
        <time>2022-02-25T12:05:51.397Z</time>
      </trkpt>
      <trkpt lat="38.56809" lon="37.46295">
        <ele>1167.280439</ele>
        <time>2022-02-25T12:05:54.182Z</time>
      </trkpt>
      <trkpt lat="38.56812" lon="37.46291">
        <ele>1167.602709</ele>
        <time>2022-02-25T12:05:56.966Z</time>
      </trkpt>
      <trkpt lat="38.56813" lon="37.46286">
        <ele>1167.870325</ele>
        <time>2022-02-25T12:05:59.205Z</time>
      </trkpt>
      <trkpt lat="38.56814" lon="37.46281">
        <ele>1168.1379</ele>
        <time>2022-02-25T12:06:01.272Z</time>
      </trkpt>
      <trkpt lat="38.56813" lon="37.46277">
        <ele>1168.399999</ele>
        <time>2022-02-25T12:06:03.217Z</time>
      </trkpt>
      <trkpt lat="38.56826" lon="37.46242">
        <ele>1170.480692</ele>
        <time>2022-02-25T12:06:22.688Z</time>
      </trkpt>
      <trkpt lat="38.56838" lon="37.46208">
        <ele>1172.503671</ele>
        <time>2022-02-25T12:06:41.446Z</time>
      </trkpt>
      <trkpt lat="38.56864" lon="37.46167">
        <ele>1175.287021</ele>
        <time>2022-02-25T12:07:06.884Z</time>
      </trkpt>
      <trkpt lat="38.56885" lon="37.46142">
        <ele>1177.260477</ele>
        <time>2022-02-25T12:07:25.163Z</time>
      </trkpt>
      <trkpt lat="38.56932" lon="37.461">
        <ele>1181.205181</ele>
        <time>2022-02-25T12:07:57.403Z</time>
      </trkpt>
      <trkpt lat="38.5698" lon="37.46073">
        <ele>1183.517442</ele>
        <time>2022-02-25T12:08:23.774Z</time>
      </trkpt>
      <trkpt lat="38.57021" lon="37.46061">
        <ele>1185.195151</ele>
        <time>2022-02-25T12:08:43.509Z</time>
      </trkpt>
      <trkpt lat="38.57086" lon="37.46056">
        <ele>1187.792708</ele>
        <time>2022-02-25T12:09:11.156Z</time>
      </trkpt>
      <trkpt lat="38.57111" lon="37.46062">
        <ele>1188.802988</ele>
        <time>2022-02-25T12:09:21.378Z</time>
      </trkpt>
      <trkpt lat="38.57166" lon="37.46082">
        <ele>1191.123026</ele>
        <time>2022-02-25T12:09:44.281Z</time>
      </trkpt>
      <trkpt lat="38.57226" lon="37.46123">
        <ele>1193.921041</ele>
        <time>2022-02-25T12:10:12.779Z</time>
      </trkpt>
      <trkpt lat="38.57391" lon="37.46254">
        <ele>1206.20862</ele>
        <time>2022-02-25T12:12:02.916Z</time>
      </trkpt>
      <trkpt lat="38.57507" lon="37.4636">
        <ele>1218.901396</ele>
        <time>2022-02-25T12:13:51.179Z</time>
      </trkpt>
      <trkpt lat="38.57611" lon="37.46442">
        <ele>1229.570855</ele>
        <time>2022-02-25T12:15:18.537Z</time>
      </trkpt>
      <trkpt lat="38.57701" lon="37.46498">
        <ele>1236.61421</ele>
        <time>2022-02-25T12:16:16.791Z</time>
      </trkpt>
      <trkpt lat="38.57745" lon="37.46505">
        <ele>1239.659519</ele>
        <time>2022-02-25T12:16:40.667Z</time>
      </trkpt>
      <trkpt lat="38.57805" lon="37.46498">
        <ele>1243.250152</ele>
        <time>2022-02-25T12:17:11.879Z</time>
      </trkpt>
      <trkpt lat="38.57842" lon="37.46477">
        <ele>1245.607</ele>
        <time>2022-02-25T12:17:32.946Z</time>
      </trkpt>
      <trkpt lat="38.57884" lon="37.46437">
        <ele>1248.753237</ele>
        <time>2022-02-25T12:18:02.132Z</time>
      </trkpt>
      <trkpt lat="38.579" lon="37.46416">
        <ele>1250.177818</ele>
        <time>2022-02-25T12:18:15.136Z</time>
      </trkpt>
      <trkpt lat="38.5804" lon="37.46154">
        <ele>1272.521859</ele>
        <time>2022-02-25T12:20:59.284Z</time>
      </trkpt>
      <trkpt lat="38.58103" lon="37.46085">
        <ele>1282.142194</ele>
        <time>2022-02-25T12:22:14.141Z</time>
      </trkpt>
      <trkpt lat="38.5814" lon="37.46063">
        <ele>1287.142103</ele>
        <time>2022-02-25T12:22:54.648Z</time>
      </trkpt>
      <trkpt lat="38.58168" lon="37.46056">
        <ele>1291.027562</ele>
        <time>2022-02-25T12:23:23.473Z</time>
      </trkpt>
      <trkpt lat="38.58213" lon="37.46048">
        <ele>1297.270077</ele>
        <time>2022-02-25T12:24:09.798Z</time>
      </trkpt>
      <trkpt lat="38.58284" lon="37.46059">
        <ele>1306.93342</ele>
        <time>2022-02-25T12:25:17.254Z</time>
      </trkpt>
      <trkpt lat="38.5853" lon="37.46198">
        <ele>1329.305193</ele>
        <time>2022-02-25T12:28:19.829Z</time>
      </trkpt>
      <trkpt lat="38.58666" lon="37.46288">
        <ele>1336.573299</ele>
        <time>2022-02-25T12:29:23.369Z</time>
      </trkpt>
      <trkpt lat="38.58679" lon="37.46293">
        <ele>1337.039526</ele>
        <time>2022-02-25T12:29:28.113Z</time>
      </trkpt>
      <trkpt lat="38.58681" lon="37.46297">
        <ele>1337.188872</ele>
        <time>2022-02-25T12:29:29.887Z</time>
      </trkpt>
      <trkpt lat="38.58685" lon="37.463">
        <ele>1337.337763</ele>
        <time>2022-02-25T12:29:31.494Z</time>
      </trkpt>
      <trkpt lat="38.58689" lon="37.46302">
        <ele>1337.50089</ele>
        <time>2022-02-25T12:29:33.131Z</time>
      </trkpt>
      <trkpt lat="38.58694" lon="37.46301">
        <ele>1337.665146</ele>
        <time>2022-02-25T12:29:34.629Z</time>
      </trkpt>
      <trkpt lat="38.58712" lon="37.46311">
        <ele>1338.366083</ele>
        <time>2022-02-25T12:29:42.646Z</time>
      </trkpt>
      <trkpt lat="38.58851" lon="37.46356">
        <ele>1344.207014</ele>
        <time>2022-02-25T12:30:50.922Z</time>
      </trkpt>
      <trkpt lat="38.58906" lon="37.46356">
        <ele>1346.821325</ele>
        <time>2022-02-25T12:31:18.429Z</time>
      </trkpt>
      <trkpt lat="38.58954" lon="37.46344">
        <ele>1349.174596</ele>
        <time>2022-02-25T12:31:43.388Z</time>
      </trkpt>
      <trkpt lat="38.59139" lon="37.46279">
        <ele>1358.928152</ele>
        <time>2022-02-25T12:33:22.205Z</time>
      </trkpt>
      <trkpt lat="38.59256" lon="37.46253">
        <ele>1364.772598</ele>
        <time>2022-02-25T12:34:22.140Z</time>
      </trkpt>
      <trkpt lat="38.59605" lon="37.46221">
        <ele>1382.181181</ele>
        <time>2022-02-25T12:37:17.073Z</time>
      </trkpt>
      <trkpt lat="38.59663" lon="37.4622">
        <ele>1385.204172</ele>
        <time>2022-02-25T12:37:47.720Z</time>
      </trkpt>
      <trkpt lat="38.59721" lon="37.46228">
        <ele>1388.720105</ele>
        <time>2022-02-25T12:38:19.689Z</time>
      </trkpt>
      <trkpt lat="38.59977" lon="37.46316">
        <ele>1406.240573</ele>
        <time>2022-02-25T12:40:54.189Z</time>
      </trkpt>
      <trkpt lat="38.6003" lon="37.46352">
        <ele>1410.430909</ele>
        <time>2022-02-25T12:41:32.458Z</time>
      </trkpt>
      <trkpt lat="38.60057" lon="37.4638">
        <ele>1412.826176</ele>
        <time>2022-02-25T12:41:54.608Z</time>
      </trkpt>
      <trkpt lat="38.60088" lon="37.46442">
        <ele>1416.768424</ele>
        <time>2022-02-25T12:42:31.146Z</time>
      </trkpt>
      <trkpt lat="38.60107" lon="37.466">
        <ele>1423.799806</ele>
        <time>2022-02-25T12:43:41.782Z</time>
      </trkpt>
      <trkpt lat="38.60128" lon="37.4666">
        <ele>1425.353861</ele>
        <time>2022-02-25T12:44:04.202Z</time>
      </trkpt>
      <trkpt lat="38.60149" lon="37.46699">
        <ele>1426.472007</ele>
        <time>2022-02-25T12:44:17.838Z</time>
      </trkpt>
      <trkpt lat="38.60169" lon="37.46721">
        <ele>1427.250975</ele>
        <time>2022-02-25T12:44:26.287Z</time>
      </trkpt>
      <trkpt lat="38.60199" lon="37.46746">
        <ele>1427.94121</ele>
        <time>2022-02-25T12:44:36.814Z</time>
      </trkpt>
      <trkpt lat="38.60218" lon="37.46754">
        <ele>1427.840789</ele>
        <time>2022-02-25T12:44:41.911Z</time>
      </trkpt>
      <trkpt lat="38.6029" lon="37.46765">
        <ele>1427.478412</ele>
        <time>2022-02-25T12:44:58.823Z</time>
      </trkpt>
      <trkpt lat="38.60638" lon="37.46772">
        <ele>1426.468708</ele>
        <time>2022-02-25T12:46:22.422Z</time>
      </trkpt>
      <trkpt lat="38.60812" lon="37.46793">
        <ele>1428.964011</ele>
        <time>2022-02-25T12:47:25.760Z</time>
      </trkpt>
      <trkpt lat="38.61066" lon="37.46795">
        <ele>1435.194504</ele>
        <time>2022-02-25T12:49:04.096Z</time>
      </trkpt>
      <trkpt lat="38.61145" lon="37.46787">
        <ele>1436.475711</ele>
        <time>2022-02-25T12:49:36.297Z</time>
      </trkpt>
      <trkpt lat="38.61176" lon="37.46774">
        <ele>1436.898252</ele>
        <time>2022-02-25T12:49:48.179Z</time>
      </trkpt>
      <trkpt lat="38.61206" lon="37.46746">
        <ele>1437.383649</ele>
        <time>2022-02-25T12:50:00.722Z</time>
      </trkpt>
      <trkpt lat="38.61244" lon="37.46682">
        <ele>1437.602965</ele>
        <time>2022-02-25T12:50:17.887Z</time>
      </trkpt>
      <trkpt lat="38.61303" lon="37.46564">
        <ele>1433.825011</ele>
        <time>2022-02-25T12:50:39.186Z</time>
      </trkpt>
      <trkpt lat="38.61344" lon="37.465">
        <ele>1431.535837</ele>
        <time>2022-02-25T12:50:50.634Z</time>
      </trkpt>
      <trkpt lat="38.61505" lon="37.46343">
        <ele>1424.565502</ele>
        <time>2022-02-25T12:51:28.262Z</time>
      </trkpt>
      <trkpt lat="38.61529" lon="37.46303">
        <ele>1424.991209</ele>
        <time>2022-02-25T12:51:40.052Z</time>
      </trkpt>
      <trkpt lat="38.61545" lon="37.46265">
        <ele>1425.365913</ele>
        <time>2022-02-25T12:51:52.502Z</time>
      </trkpt>
      <trkpt lat="38.61557" lon="37.46213">
        <ele>1425.820282</ele>
        <time>2022-02-25T12:52:10.500Z</time>
      </trkpt>
      <trkpt lat="38.61559" lon="37.46159">
        <ele>1426.281805</ele>
        <time>2022-02-25T12:52:30.318Z</time>
      </trkpt>
      <trkpt lat="38.61555" lon="37.46117">
        <ele>1426.623702</ele>
        <time>2022-02-25T12:52:45.279Z</time>
      </trkpt>
      <trkpt lat="38.6153" lon="37.46023">
        <ele>1427.424827</ele>
        <time>2022-02-25T12:53:14.104Z</time>
      </trkpt>
      <trkpt lat="38.61482" lon="37.4588">
        <ele>1425.388022</ele>
        <time>2022-02-25T12:53:39.518Z</time>
      </trkpt>
      <trkpt lat="38.61479" lon="37.45809">
        <ele>1422.958634</ele>
        <time>2022-02-25T12:53:49.366Z</time>
      </trkpt>
      <trkpt lat="38.61489" lon="37.45756">
        <ele>1421.079752</ele>
        <time>2022-02-25T12:53:56.839Z</time>
      </trkpt>
      <trkpt lat="38.615" lon="37.45725">
        <ele>1419.819317</ele>
        <time>2022-02-25T12:54:01.626Z</time>
      </trkpt>
      <trkpt lat="38.61567" lon="37.45586">
        <ele>1412.968192</ele>
        <time>2022-02-25T12:54:24.269Z</time>
      </trkpt>
      <trkpt lat="38.61618" lon="37.45437">
        <ele>1407.254486</ele>
        <time>2022-02-25T12:54:47.584Z</time>
      </trkpt>
      <trkpt lat="38.61639" lon="37.45365">
        <ele>1404.89832</ele>
        <time>2022-02-25T12:54:58.872Z</time>
      </trkpt>
      <trkpt lat="38.61642" lon="37.45362">
        <ele>1404.718415</ele>
        <time>2022-02-25T12:54:59.750Z</time>
      </trkpt>
      <trkpt lat="38.61645" lon="37.45358">
        <ele>1404.538221</ele>
        <time>2022-02-25T12:55:00.642Z</time>
      </trkpt>
      <trkpt lat="38.61647" lon="37.45352">
        <ele>1404.359468</ele>
        <time>2022-02-25T12:55:01.560Z</time>
      </trkpt>
      <trkpt lat="38.61647" lon="37.45346">
        <ele>1404.180236</ele>
        <time>2022-02-25T12:55:02.493Z</time>
      </trkpt>
      <trkpt lat="38.61654" lon="37.45326">
        <ele>1403.479051</ele>
        <time>2022-02-25T12:55:05.857Z</time>
      </trkpt>
      <trkpt lat="38.61699" lon="37.45238">
        <ele>1402.336465</ele>
        <time>2022-02-25T12:55:22.705Z</time>
      </trkpt>
      <trkpt lat="38.61748" lon="37.4519">
        <ele>1401.574091</ele>
        <time>2022-02-25T12:55:36.773Z</time>
      </trkpt>
      <trkpt lat="38.61931" lon="37.45103">
        <ele>1402.489166</ele>
        <time>2022-02-25T12:56:38.273Z</time>
      </trkpt>
      <trkpt lat="38.61968" lon="37.45076">
        <ele>1402.909051</ele>
        <time>2022-02-25T12:56:51.839Z</time>
      </trkpt>
      <trkpt lat="38.62028" lon="37.45014">
        <ele>1403.718116</ele>
        <time>2022-02-25T12:57:15.469Z</time>
      </trkpt>
      <trkpt lat="38.62052" lon="37.44996">
        <ele>1404.016473</ele>
        <time>2022-02-25T12:57:24.212Z</time>
      </trkpt>
      <trkpt lat="38.62101" lon="37.44978">
        <ele>1404.551326</ele>
        <time>2022-02-25T12:57:40.301Z</time>
      </trkpt>
      <trkpt lat="38.62156" lon="37.44978">
        <ele>1405.705111</ele>
        <time>2022-02-25T12:57:59.253Z</time>
      </trkpt>
      <trkpt lat="38.62182" lon="37.44986">
        <ele>1406.291986</ele>
        <time>2022-02-25T12:58:08.924Z</time>
      </trkpt>
      <trkpt lat="38.62224" lon="37.45011">
        <ele>1407.315304</ele>
        <time>2022-02-25T12:58:26.604Z</time>
      </trkpt>
      <trkpt lat="38.62267" lon="37.45062">
        <ele>1408.614977</ele>
        <time>2022-02-25T12:58:50.601Z</time>
      </trkpt>
      <trkpt lat="38.62378" lon="37.45268">
        <ele>1413.147843</ele>
        <time>2022-02-25T13:00:07.441Z</time>
      </trkpt>
      <trkpt lat="38.625" lon="37.45458">
        <ele>1414.642857</ele>
        <time>2022-02-25T13:01:01.205Z</time>
      </trkpt>
      <trkpt lat="38.62619" lon="37.45632">
        <ele>1417.15018</ele>
        <time>2022-02-25T13:02:00.096Z</time>
      </trkpt>
      <trkpt lat="38.62655" lon="37.45674">
        <ele>1418.508668</ele>
        <time>2022-02-25T13:02:20.801Z</time>
      </trkpt>
      <trkpt lat="38.62694" lon="37.45704">
        <ele>1419.764936</ele>
        <time>2022-02-25T13:02:40.169Z</time>
      </trkpt>
      <trkpt lat="38.62752" lon="37.45727">
        <ele>1421.377265</ele>
        <time>2022-02-25T13:03:05.692Z</time>
      </trkpt>
      <trkpt lat="38.62807" lon="37.45727">
        <ele>1422.115684</ele>
        <time>2022-02-25T13:03:28.090Z</time>
      </trkpt>
      <trkpt lat="38.63171" lon="37.45645">
        <ele>1424.53068</ele>
        <time>2022-02-25T13:05:14.689Z</time>
      </trkpt>
      <trkpt lat="38.63267" lon="37.45608">
        <ele>1424.57975</ele>
        <time>2022-02-25T13:05:41.076Z</time>
      </trkpt>
      <trkpt lat="38.63306" lon="37.45578">
        <ele>1423.75903</ele>
        <time>2022-02-25T13:05:52.385Z</time>
      </trkpt>
      <trkpt lat="38.63339" lon="37.45534">
        <ele>1422.599907</ele>
        <time>2022-02-25T13:06:03.065Z</time>
      </trkpt>
      <trkpt lat="38.6336" lon="37.45493">
        <ele>1421.668941</ele>
        <time>2022-02-25T13:06:10.991Z</time>
      </trkpt>
      <trkpt lat="38.6338" lon="37.45426">
        <ele>1420.314463</ele>
        <time>2022-02-25T13:06:21.829Z</time>
      </trkpt>
      <trkpt lat="38.63414" lon="37.45237">
        <ele>1410.306302</ele>
        <time>2022-02-25T13:06:48.130Z</time>
      </trkpt>
      <trkpt lat="38.63437" lon="37.45168">
        <ele>1405.574747</ele>
        <time>2022-02-25T13:06:57.776Z</time>
      </trkpt>
      <trkpt lat="38.63471" lon="37.4511">
        <ele>1400.034565</ele>
        <time>2022-02-25T13:07:07.031Z</time>
      </trkpt>
      <trkpt lat="38.63492" lon="37.45086">
        <ele>1397.260534</ele>
        <time>2022-02-25T13:07:11.643Z</time>
      </trkpt>
      <trkpt lat="38.63532" lon="37.45054">
        <ele>1392.626406</ele>
        <time>2022-02-25T13:07:19.330Z</time>
      </trkpt>
      <trkpt lat="38.63594" lon="37.45028">
        <ele>1386.500992</ele>
        <time>2022-02-25T13:07:30.011Z</time>
      </trkpt>
      <trkpt lat="38.63748" lon="37.45028">
        <ele>1372.73066</ele>
        <time>2022-02-25T13:07:55.562Z</time>
      </trkpt>
      <trkpt lat="38.63807" lon="37.45015">
        <ele>1368.343189</ele>
        <time>2022-02-25T13:08:05.580Z</time>
      </trkpt>
      <trkpt lat="38.63853" lon="37.44995">
        <ele>1364.708245</ele>
        <time>2022-02-25T13:08:13.941Z</time>
      </trkpt>
      <trkpt lat="38.64039" lon="37.44886">
        <ele>1350.537187</ele>
        <time>2022-02-25T13:08:49.271Z</time>
      </trkpt>
      <trkpt lat="38.64225" lon="37.44834">
        <ele>1337.259905</ele>
        <time>2022-02-25T13:09:22.188Z</time>
      </trkpt>
      <trkpt lat="38.6427" lon="37.44814">
        <ele>1333.752095</ele>
        <time>2022-02-25T13:09:30.215Z</time>
      </trkpt>
      <trkpt lat="38.64864" lon="37.44458">
        <ele>1283.976929</ele>
        <time>2022-02-25T13:11:21.219Z</time>
      </trkpt>
      <trkpt lat="38.64952" lon="37.44429">
        <ele>1278.914927</ele>
        <time>2022-02-25T13:11:37.577Z</time>
      </trkpt>
      <trkpt lat="38.6504" lon="37.44423">
        <ele>1274.842341</ele>
        <time>2022-02-25T13:11:53.836Z</time>
      </trkpt>
      <trkpt lat="38.65053" lon="37.44425">
        <ele>1274.250497</ele>
        <time>2022-02-25T13:11:56.293Z</time>
      </trkpt>
      <trkpt lat="38.65058" lon="37.44425">
        <ele>1274.03225</ele>
        <time>2022-02-25T13:11:57.201Z</time>
      </trkpt>
      <trkpt lat="38.65062" lon="37.44424">
        <ele>1273.819099</ele>
        <time>2022-02-25T13:11:58.116Z</time>
      </trkpt>
      <trkpt lat="38.65079" lon="37.44423">
        <ele>1273.065257</ele>
        <time>2022-02-25T13:12:01.351Z</time>
      </trkpt>
      <trkpt lat="38.65134" lon="37.44427">
        <ele>1271.182702</ele>
        <time>2022-02-25T13:12:11.784Z</time>
      </trkpt>
      <trkpt lat="38.65203" lon="37.44445">
        <ele>1268.733236</ele>
        <time>2022-02-25T13:12:25.251Z</time>
      </trkpt>
      <trkpt lat="38.65261" lon="37.4447">
        <ele>1266.731065</ele>
        <time>2022-02-25T13:12:37.244Z</time>
      </trkpt>
      <trkpt lat="38.65418" lon="37.44564">
        <ele>1262.73594</ele>
        <time>2022-02-25T13:13:13.612Z</time>
      </trkpt>
      <trkpt lat="38.65445" lon="37.44572">
        <ele>1261.892208</ele>
        <time>2022-02-25T13:13:19.482Z</time>
      </trkpt>
      <trkpt lat="38.65486" lon="37.44571">
        <ele>1260.634502</ele>
        <time>2022-02-25T13:13:27.893Z</time>
      </trkpt>
      <trkpt lat="38.65548" lon="37.44543">
        <ele>1258.607322</ele>
        <time>2022-02-25T13:13:40.991Z</time>
      </trkpt>
      <trkpt lat="38.65775" lon="37.44392">
        <ele>1246.435695</ele>
        <time>2022-02-25T13:14:27.619Z</time>
      </trkpt>
      <trkpt lat="38.65861" lon="37.44344">
        <ele>1240.874088</ele>
        <time>2022-02-25T13:14:44.052Z</time>
      </trkpt>
      <trkpt lat="38.66317" lon="37.44211">
        <ele>1212.641699</ele>
        <time>2022-02-25T13:16:05.475Z</time>
      </trkpt>
      <trkpt lat="38.66353" lon="37.44201">
        <ele>1211.04744</ele>
        <time>2022-02-25T13:16:12.419Z</time>
      </trkpt>
      <trkpt lat="38.66442" lon="37.44175">
        <ele>1207.262486</ele>
        <time>2022-02-25T13:16:30.294Z</time>
      </trkpt>
      <trkpt lat="38.66804" lon="37.44067">
        <ele>1200.832767</ele>
        <time>2022-02-25T13:17:50.706Z</time>
      </trkpt>
      <trkpt lat="38.66869" lon="37.44038">
        <ele>1200.195136</ele>
        <time>2022-02-25T13:18:06.601Z</time>
      </trkpt>
      <trkpt lat="38.67101" lon="37.43883">
        <ele>1198.423125</ele>
        <time>2022-02-25T13:19:10.101Z</time>
      </trkpt>
      <trkpt lat="38.67121" lon="37.43869">
        <ele>1198.475268</ele>
        <time>2022-02-25T13:19:15.693Z</time>
      </trkpt>
      <trkpt lat="38.67178" lon="37.4383">
        <ele>1199.165522</ele>
        <time>2022-02-25T13:19:32.984Z</time>
      </trkpt>
      <trkpt lat="38.67874" lon="37.43352">
        <ele>1208.402717</ele>
        <time>2022-02-25T13:23:49.980Z</time>
      </trkpt>
      <trkpt lat="38.67964" lon="37.43281">
        <ele>1211.65947</ele>
        <time>2022-02-25T13:24:33.198Z</time>
      </trkpt>
      <trkpt lat="38.6804" lon="37.43211">
        <ele>1215.187304</ele>
        <time>2022-02-25T13:25:16.761Z</time>
      </trkpt>
      <trkpt lat="38.68139" lon="37.43101">
        <ele>1222.061488</ele>
        <time>2022-02-25T13:26:24.970Z</time>
      </trkpt>
      <trkpt lat="38.6838" lon="37.42793">
        <ele>1240.084736</ele>
        <time>2022-02-25T13:29:33.432Z</time>
      </trkpt>
      <trkpt lat="38.68444" lon="37.42732">
        <ele>1243.263356</ele>
        <time>2022-02-25T13:30:04.992Z</time>
      </trkpt>
      <trkpt lat="38.68515" lon="37.42691">
        <ele>1240.736364</ele>
        <time>2022-02-25T13:30:23.312Z</time>
      </trkpt>
      <trkpt lat="38.68554" lon="37.42675">
        <ele>1239.285836</ele>
        <time>2022-02-25T13:30:31.216Z</time>
      </trkpt>
      <trkpt lat="38.68785" lon="37.42598">
        <ele>1223.647339</ele>
        <time>2022-02-25T13:31:11.651Z</time>
      </trkpt>
      <trkpt lat="38.68863" lon="37.42549">
        <ele>1218.038093</ele>
        <time>2022-02-25T13:31:26.163Z</time>
      </trkpt>
      <trkpt lat="38.68926" lon="37.42484">
        <ele>1212.783267</ele>
        <time>2022-02-25T13:31:40.495Z</time>
      </trkpt>
      <trkpt lat="38.68969" lon="37.42422">
        <ele>1210.536817</ele>
        <time>2022-02-25T13:31:52.585Z</time>
      </trkpt>
      <trkpt lat="38.69003" lon="37.42341">
        <ele>1208.785336</ele>
        <time>2022-02-25T13:32:07.356Z</time>
      </trkpt>
      <trkpt lat="38.69024" lon="37.42274">
        <ele>1207.414205</ele>
        <time>2022-02-25T13:32:20.415Z</time>
      </trkpt>
      <trkpt lat="38.69036" lon="37.42226">
        <ele>1207.37494</ele>
        <time>2022-02-25T13:32:30.246Z</time>
      </trkpt>
      <trkpt lat="38.69048" lon="37.42168">
        <ele>1207.46485</ele>
        <time>2022-02-25T13:32:42.748Z</time>
      </trkpt>
      <trkpt lat="38.69069" lon="37.42101">
        <ele>1207.573383</ele>
        <time>2022-02-25T13:32:59.448Z</time>
      </trkpt>
      <trkpt lat="38.69095" lon="37.42014">
        <ele>1208.008962</ele>
        <time>2022-02-25T13:33:21.150Z</time>
      </trkpt>
      <trkpt lat="38.6911" lon="37.41987">
        <ele>1208.309932</ele>
        <time>2022-02-25T13:33:29.712Z</time>
      </trkpt>
      <trkpt lat="38.69113" lon="37.41983">
        <ele>1208.360333</ele>
        <time>2022-02-25T13:33:31.145Z</time>
      </trkpt>
      <trkpt lat="38.69115" lon="37.41978">
        <ele>1208.416656</ele>
        <time>2022-02-25T13:33:32.705Z</time>
      </trkpt>
      <trkpt lat="38.69121" lon="37.4196">
        <ele>1208.585477</ele>
        <time>2022-02-25T13:33:37.673Z</time>
      </trkpt>
      <trkpt lat="38.69162" lon="37.41901">
        <ele>1209.297516</ele>
        <time>2022-02-25T13:33:57.950Z</time>
      </trkpt>
      <trkpt lat="38.69186" lon="37.41875">
        <ele>1209.657594</ele>
        <time>2022-02-25T13:34:08.227Z</time>
      </trkpt>
      <trkpt lat="38.69785" lon="37.41333">
        <ele>1219.63981</ele>
        <time>2022-02-25T13:38:14.194Z</time>
      </trkpt>
      <trkpt lat="38.70434" lon="37.40659">
        <ele>1218.036538</ele>
        <time>2022-02-25T13:41:46.773Z</time>
      </trkpt>
      <trkpt lat="38.70688" lon="37.40384">
        <ele>1219.394446</ele>
        <time>2022-02-25T13:43:23.803Z</time>
      </trkpt>
      <trkpt lat="38.70762" lon="37.40292">
        <ele>1219.898762</ele>
        <time>2022-02-25T13:43:53.189Z</time>
      </trkpt>
      <trkpt lat="38.70809" lon="37.40215">
        <ele>1220.441174</ele>
        <time>2022-02-25T13:44:14.784Z</time>
      </trkpt>
      <trkpt lat="38.70833" lon="37.40172">
        <ele>1220.727892</ele>
        <time>2022-02-25T13:44:26.733Z</time>
      </trkpt>
      <trkpt lat="38.7089" lon="37.40035">
        <ele>1222.238742</ele>
        <time>2022-02-25T13:45:08.303Z</time>
      </trkpt>
      <trkpt lat="38.70896" lon="37.4002">
        <ele>1222.431114</ele>
        <time>2022-02-25T13:45:12.786Z</time>
      </trkpt>
      <trkpt lat="38.709" lon="37.40017">
        <ele>1222.501445</ele>
        <time>2022-02-25T13:45:14.397Z</time>
      </trkpt>
      <trkpt lat="38.70902" lon="37.40011">
        <ele>1222.574892</ele>
        <time>2022-02-25T13:45:15.910Z</time>
      </trkpt>
      <trkpt lat="38.70903" lon="37.40005">
        <ele>1222.64819</ele>
        <time>2022-02-25T13:45:17.578Z</time>
      </trkpt>
      <trkpt lat="38.70907" lon="37.39991">
        <ele>1222.831418</ele>
        <time>2022-02-25T13:45:22.330Z</time>
      </trkpt>
      <trkpt lat="38.7113" lon="37.39404">
        <ele>1228.361389</ele>
        <time>2022-02-25T13:48:09.878Z</time>
      </trkpt>
      <trkpt lat="38.71133" lon="37.3939">
        <ele>1228.348468</ele>
        <time>2022-02-25T13:48:12.988Z</time>
      </trkpt>
      <trkpt lat="38.71125" lon="37.39386">
        <ele>1228.338381</ele>
        <time>2022-02-25T13:48:15.086Z</time>
      </trkpt>
      <trkpt lat="38.71112" lon="37.39381">
        <ele>1228.32322</ele>
        <time>2022-02-25T13:48:17.888Z</time>
      </trkpt>
      <trkpt lat="38.71047" lon="37.39312">
        <ele>1228.122312</ele>
        <time>2022-02-25T13:48:35.981Z</time>
      </trkpt>
      <trkpt lat="38.70953" lon="37.39243">
        <ele>1227.548719</ele>
        <time>2022-02-25T13:49:01.936Z</time>
      </trkpt>
      <trkpt lat="38.70913" lon="37.39203">
        <ele>1227.383867</ele>
        <time>2022-02-25T13:49:16.476Z</time>
      </trkpt>
      <trkpt lat="38.70898" lon="37.39185">
        <ele>1227.658911</ele>
        <time>2022-02-25T13:49:22.792Z</time>
      </trkpt>
      <trkpt lat="38.70895" lon="37.39177">
        <ele>1227.752156</ele>
        <time>2022-02-25T13:49:25.601Z</time>
      </trkpt>
      <trkpt lat="38.70896" lon="37.39097">
        <ele>1228.572295</ele>
        <time>2022-02-25T13:49:45.600Z</time>
      </trkpt>
      <trkpt lat="38.70889" lon="37.39027">
        <ele>1229.295966</ele>
        <time>2022-02-25T13:50:05.296Z</time>
      </trkpt>
      <trkpt lat="38.7089" lon="37.38999">
        <ele>1229.590576</ele>
        <time>2022-02-25T13:50:13.795Z</time>
      </trkpt>
      <trkpt lat="38.70925" lon="37.38864">
        <ele>1231.197228</ele>
        <time>2022-02-25T13:50:49.843Z</time>
      </trkpt>
      <trkpt lat="38.70923" lon="37.38831">
        <ele>1231.572256</ele>
        <time>2022-02-25T13:50:58.531Z</time>
      </trkpt>
      <trkpt lat="38.70901" lon="37.38772">
        <ele>1232.319022</ele>
        <time>2022-02-25T13:51:16.180Z</time>
      </trkpt>
      <trkpt lat="38.70891" lon="37.38707">
        <ele>1232.962781</ele>
        <time>2022-02-25T13:51:33.989Z</time>
      </trkpt>
      <trkpt lat="38.70905" lon="37.38682">
        <ele>1233.25725</ele>
        <time>2022-02-25T13:51:42.037Z</time>
      </trkpt>
      <trkpt lat="38.7092" lon="37.38636">
        <ele>1233.737905</ele>
        <time>2022-02-25T13:51:54.820Z</time>
      </trkpt>
      <trkpt lat="38.70923" lon="37.38609">
        <ele>1234.002884</ele>
        <time>2022-02-25T13:52:01.662Z</time>
      </trkpt>
      <trkpt lat="38.70958" lon="37.38592">
        <ele>1234.469359</ele>
        <time>2022-02-25T13:52:13.289Z</time>
      </trkpt>
      <trkpt lat="38.70985" lon="37.38565">
        <ele>1234.727395</ele>
        <time>2022-02-25T13:52:23.579Z</time>
      </trkpt>
      <trkpt lat="38.71" lon="37.38508">
        <ele>1235.034107</ele>
        <time>2022-02-25T13:52:37.211Z</time>
      </trkpt>
      <trkpt lat="38.71004" lon="37.38477">
        <ele>1235.19124</ele>
        <time>2022-02-25T13:52:43.944Z</time>
      </trkpt>
      <trkpt lat="38.70992" lon="37.38376">
        <ele>1235.70811</ele>
        <time>2022-02-25T13:53:07.637Z</time>
      </trkpt>
      <trkpt lat="38.70997" lon="37.38327">
        <ele>1236.419968</ele>
        <time>2022-02-25T13:53:19.955Z</time>
      </trkpt>
      <trkpt lat="38.70999" lon="37.38295">
        <ele>1236.866681</ele>
        <time>2022-02-25T13:53:27.694Z</time>
      </trkpt>
      <trkpt lat="38.71006" lon="37.38286">
        <ele>1237.047227</ele>
        <time>2022-02-25T13:53:31.241Z</time>
      </trkpt>
      <trkpt lat="38.71036" lon="37.38206">
        <ele>1238.318654</ele>
        <time>2022-02-25T13:53:56.616Z</time>
      </trkpt>
      <trkpt lat="38.71044" lon="37.38172">
        <ele>1238.810452</ele>
        <time>2022-02-25T13:54:07.124Z</time>
      </trkpt>
      <trkpt lat="38.71068" lon="37.38115">
        <ele>1240.26829</ele>
        <time>2022-02-25T13:54:28.361Z</time>
      </trkpt>
      <trkpt lat="38.71084" lon="37.38053">
        <ele>1241.849423</ele>
        <time>2022-02-25T13:54:49.980Z</time>
      </trkpt>
      <trkpt lat="38.71108" lon="37.38006">
        <ele>1243.204177</ele>
        <time>2022-02-25T13:55:08.545Z</time>
      </trkpt>
      <trkpt lat="38.7113" lon="37.37935">
        <ele>1244.895979</ele>
        <time>2022-02-25T13:55:33.889Z</time>
      </trkpt>
      <trkpt lat="38.71135" lon="37.37901">
        <ele>1245.440859</ele>
        <time>2022-02-25T13:55:44.824Z</time>
      </trkpt>
      <trkpt lat="38.71176" lon="37.37815">
        <ele>1247.021755</ele>
        <time>2022-02-25T13:56:13.950Z</time>
      </trkpt>
      <trkpt lat="38.71194" lon="37.3779">
        <ele>1247.567785</ele>
        <time>2022-02-25T13:56:23.049Z</time>
      </trkpt>
      <trkpt lat="38.71225" lon="37.37724">
        <ele>1248.238867</ele>
        <time>2022-02-25T13:56:41.588Z</time>
      </trkpt>
      <trkpt lat="38.71253" lon="37.37658">
        <ele>1248.285217</ele>
        <time>2022-02-25T13:56:57.749Z</time>
      </trkpt>
      <trkpt lat="38.71313" lon="37.37574">
        <ele>1248.355727</ele>
        <time>2022-02-25T13:57:20.046Z</time>
      </trkpt>
      <trkpt lat="38.71346" lon="37.37515">
        <ele>1248.415811</ele>
        <time>2022-02-25T13:57:34.073Z</time>
      </trkpt>
      <trkpt lat="38.71397" lon="37.37447">
        <ele>1248.495853</ele>
        <time>2022-02-25T13:57:53.599Z</time>
      </trkpt>
      <trkpt lat="38.71419" lon="37.37383">
        <ele>1248.558282</ele>
        <time>2022-02-25T13:58:10.066Z</time>
      </trkpt>
      <trkpt lat="38.71438" lon="37.37282">
        <ele>1249.28057</ele>
        <time>2022-02-25T13:58:35.109Z</time>
      </trkpt>
      <trkpt lat="38.71444" lon="37.3726">
        <ele>1249.447101</ele>
        <time>2022-02-25T13:58:41.399Z</time>
      </trkpt>
      <trkpt lat="38.71492" lon="37.37172">
        <ele>1250.184229</ele>
        <time>2022-02-25T13:59:07.324Z</time>
      </trkpt>
      <trkpt lat="38.71608" lon="37.3698">
        <ele>1251.246706</ele>
        <time>2022-02-25T14:00:02.287Z</time>
      </trkpt>
      <trkpt lat="38.71641" lon="37.36958">
        <ele>1251.507922</ele>
        <time>2022-02-25T14:00:13.096Z</time>
      </trkpt>
      <trkpt lat="38.71688" lon="37.36884">
        <ele>1252.029146</ele>
        <time>2022-02-25T14:00:35.455Z</time>
      </trkpt>
      <trkpt lat="38.7171" lon="37.36836">
        <ele>1252.337124</ele>
        <time>2022-02-25T14:00:49.064Z</time>
      </trkpt>
      <trkpt lat="38.71725" lon="37.36781">
        <ele>1252.760567</ele>
        <time>2022-02-25T14:01:03.240Z</time>
      </trkpt>
      <trkpt lat="38.71731" lon="37.36732">
        <ele>1253.158212</ele>
        <time>2022-02-25T14:01:15.247Z</time>
      </trkpt>
      <trkpt lat="38.71757" lon="37.3662">
        <ele>1254.092731</ele>
        <time>2022-02-25T14:01:43.958Z</time>
      </trkpt>
      <trkpt lat="38.71762" lon="37.36578">
        <ele>1254.499669</ele>
        <time>2022-02-25T14:01:54.953Z</time>
      </trkpt>
      <trkpt lat="38.71775" lon="37.36516">
        <ele>1255.206186</ele>
        <time>2022-02-25T14:02:11.371Z</time>
      </trkpt>
      <trkpt lat="38.71794" lon="37.36429">
        <ele>1256.215363</ele>
        <time>2022-02-25T14:02:35.150Z</time>
      </trkpt>
      <trkpt lat="38.71816" lon="37.363">
        <ele>1257.817983</ele>
        <time>2022-02-25T14:03:10.890Z</time>
      </trkpt>
      <trkpt lat="38.71841" lon="37.36232">
        <ele>1258.784856</ele>
        <time>2022-02-25T14:03:31.214Z</time>
      </trkpt>
      <trkpt lat="38.71848" lon="37.362">
        <ele>1259.213162</ele>
        <time>2022-02-25T14:03:40.203Z</time>
      </trkpt>
      <trkpt lat="38.7185" lon="37.36162">
        <ele>1259.704804</ele>
        <time>2022-02-25T14:03:50.646Z</time>
      </trkpt>
      <trkpt lat="38.71869" lon="37.36087">
        <ele>1260.429593</ele>
        <time>2022-02-25T14:04:11.692Z</time>
      </trkpt>
      <trkpt lat="38.71871" lon="37.35982">
        <ele>1261.344963</ele>
        <time>2022-02-25T14:04:38.257Z</time>
      </trkpt>
      <trkpt lat="38.71864" lon="37.35939">
        <ele>1261.72916</ele>
        <time>2022-02-25T14:04:48.563Z</time>
      </trkpt>
      <trkpt lat="38.71848" lon="37.3591">
        <ele>1261.57829</ele>
        <time>2022-02-25T14:04:56.509Z</time>
      </trkpt>
      <trkpt lat="38.71821" lon="37.35891">
        <ele>1261.233937</ele>
        <time>2022-02-25T14:05:05.033Z</time>
      </trkpt>
      <trkpt lat="38.71807" lon="37.35854">
        <ele>1260.88266</ele>
        <time>2022-02-25T14:05:13.006Z</time>
      </trkpt>
      <trkpt lat="38.7181" lon="37.3583">
        <ele>1260.670228</ele>
        <time>2022-02-25T14:05:17.642Z</time>
      </trkpt>
      <trkpt lat="38.71822" lon="37.3579">
        <ele>1260.304568</ele>
        <time>2022-02-25T14:05:24.954Z</time>
      </trkpt>
      <trkpt lat="38.71861" lon="37.35711">
        <ele>1258.700851</ele>
        <time>2022-02-25T14:05:39.445Z</time>
      </trkpt>
      <trkpt lat="38.71865" lon="37.35666">
        <ele>1257.325923</ele>
        <time>2022-02-25T14:05:45.976Z</time>
      </trkpt>
      <trkpt lat="38.71861" lon="37.35628">
        <ele>1256.204662</ele>
        <time>2022-02-25T14:05:51.617Z</time>
      </trkpt>
      <trkpt lat="38.71867" lon="37.35609">
        <ele>1255.579425</ele>
        <time>2022-02-25T14:05:54.563Z</time>
      </trkpt>
      <trkpt lat="38.7188" lon="37.35596">
        <ele>1254.967387</ele>
        <time>2022-02-25T14:05:57.772Z</time>
      </trkpt>
      <trkpt lat="38.71898" lon="37.35591">
        <ele>1254.237411</ele>
        <time>2022-02-25T14:06:01.191Z</time>
      </trkpt>
      <trkpt lat="38.71933" lon="37.35604">
        <ele>1252.856338</ele>
        <time>2022-02-25T14:06:07.988Z</time>
      </trkpt>
      <trkpt lat="38.71958" lon="37.35622">
        <ele>1252.09323</ele>
        <time>2022-02-25T14:06:13.284Z</time>
      </trkpt>
      <trkpt lat="38.71981" lon="37.35644">
        <ele>1251.317612</ele>
        <time>2022-02-25T14:06:18.785Z</time>
      </trkpt>
      <trkpt lat="38.71999" lon="37.35664">
        <ele>1250.68234</ele>
        <time>2022-02-25T14:06:23.151Z</time>
      </trkpt>
      <trkpt lat="38.71993" lon="37.35708">
        <ele>1249.748803</ele>
        <time>2022-02-25T14:06:30.241Z</time>
      </trkpt>
      <trkpt lat="38.71985" lon="37.35773">
        <ele>1248.381501</ele>
        <time>2022-02-25T14:06:41.328Z</time>
      </trkpt>
      <trkpt lat="38.71986" lon="37.35813">
        <ele>1248.267676</ele>
        <time>2022-02-25T14:06:50.824Z</time>
      </trkpt>
      <trkpt lat="38.71986" lon="37.35818">
        <ele>1248.298113</ele>
        <time>2022-02-25T14:06:52.183Z</time>
      </trkpt>
      <trkpt lat="38.71986" lon="37.35822">
        <ele>1248.329212</ele>
        <time>2022-02-25T14:06:53.184Z</time>
      </trkpt>
      <trkpt lat="38.71987" lon="37.35827">
        <ele>1248.359674</ele>
        <time>2022-02-25T14:06:54.160Z</time>
      </trkpt>
      <trkpt lat="38.7199" lon="37.3583">
        <ele>1248.390967</ele>
        <time>2022-02-25T14:06:55.358Z</time>
      </trkpt>
      <trkpt lat="38.72" lon="37.35833">
        <ele>1248.4797</ele>
        <time>2022-02-25T14:06:58.316Z</time>
      </trkpt>
      <trkpt lat="38.72007" lon="37.35827">
        <ele>1248.545651</ele>
        <time>2022-02-25T14:07:00.680Z</time>
      </trkpt>
      <trkpt lat="38.72008" lon="37.35822">
        <ele>1248.578865</ele>
        <time>2022-02-25T14:07:02.155Z</time>
      </trkpt>
      <trkpt lat="38.72008" lon="37.35817">
        <ele>1248.61254</ele>
        <time>2022-02-25T14:07:03.387Z</time>
      </trkpt>
      <trkpt lat="38.72007" lon="37.35812">
        <ele>1248.645532</ele>
        <time>2022-02-25T14:07:04.341Z</time>
      </trkpt>
      <trkpt lat="38.72004" lon="37.35727">
        <ele>1249.206036</ele>
        <time>2022-02-25T14:07:25.233Z</time>
      </trkpt>
      <trkpt lat="38.72006" lon="37.35696">
        <ele>1249.414456</ele>
        <time>2022-02-25T14:07:32.639Z</time>
      </trkpt>
      <trkpt lat="38.72008" lon="37.35681">
        <ele>1249.511282</ele>
        <time>2022-02-25T14:07:37.246Z</time>
      </trkpt>
      <trkpt lat="38.72015" lon="37.35637">
        <ele>1249.906823</ele>
        <time>2022-02-25T14:07:50.103Z</time>
      </trkpt>
      <trkpt lat="38.72023" lon="37.35565">
        <ele>1250.63968</ele>
        <time>2022-02-25T14:08:09.870Z</time>
      </trkpt>
      <trkpt lat="38.72007" lon="37.35504">
        <ele>1251.277766</ele>
        <time>2022-02-25T14:08:26.586Z</time>
      </trkpt>
      <trkpt lat="38.71968" lon="37.35428">
        <ele>1252.225073</ele>
        <time>2022-02-25T14:08:47.027Z</time>
      </trkpt>
      <trkpt lat="38.71943" lon="37.35369">
        <ele>1252.987441</ele>
        <time>2022-02-25T14:09:02.946Z</time>
      </trkpt>
      <trkpt lat="38.71934" lon="37.35316">
        <ele>1253.593658</ele>
        <time>2022-02-25T14:09:16.712Z</time>
      </trkpt>
      <trkpt lat="38.71936" lon="37.35244">
        <ele>1254.41696</ele>
        <time>2022-02-25T14:09:36.649Z</time>
      </trkpt>
      <trkpt lat="38.7208" lon="37.34385">
        <ele>1279.323838</ele>
        <time>2022-02-25T14:14:38.591Z</time>
      </trkpt>
      <trkpt lat="38.72098" lon="37.34308">
        <ele>1282.141037</ele>
        <time>2022-02-25T14:15:11.184Z</time>
      </trkpt>
      <trkpt lat="38.72153" lon="37.34133">
        <ele>1289.886437</ele>
        <time>2022-02-25T14:16:29.533Z</time>
      </trkpt>
      <trkpt lat="38.72266" lon="37.33878">
        <ele>1300.333974</ele>
        <time>2022-02-25T14:18:21.248Z</time>
      </trkpt>
      <trkpt lat="38.72272" lon="37.3384">
        <ele>1301.489872</ele>
        <time>2022-02-25T14:18:35.041Z</time>
      </trkpt>
      <trkpt lat="38.72269" lon="37.33803">
        <ele>1302.60472</ele>
        <time>2022-02-25T14:18:48.035Z</time>
      </trkpt>
      <trkpt lat="38.72259" lon="37.33767">
        <ele>1303.741055</ele>
        <time>2022-02-25T14:19:01.051Z</time>
      </trkpt>
      <trkpt lat="38.72242" lon="37.3374">
        <ele>1304.809629</ele>
        <time>2022-02-25T14:19:13.166Z</time>
      </trkpt>
      <trkpt lat="38.72212" lon="37.3371">
        <ele>1306.207295</ele>
        <time>2022-02-25T14:19:29.297Z</time>
      </trkpt>
      <trkpt lat="38.72193" lon="37.33701">
        <ele>1306.883687</ele>
        <time>2022-02-25T14:19:37.558Z</time>
      </trkpt>
      <trkpt lat="38.72158" lon="37.337">
        <ele>1308.105062</ele>
        <time>2022-02-25T14:19:52.740Z</time>
      </trkpt>
      <trkpt lat="38.72056" lon="37.33757">
        <ele>1311.938451</ele>
        <time>2022-02-25T14:20:40.513Z</time>
      </trkpt>
      <trkpt lat="38.72026" lon="37.33769">
        <ele>1313.428977</ele>
        <time>2022-02-25T14:20:54.669Z</time>
      </trkpt>
      <trkpt lat="38.71979" lon="37.33777">
        <ele>1315.708612</ele>
        <time>2022-02-25T14:21:17.134Z</time>
      </trkpt>
      <trkpt lat="38.71839" lon="37.33751">
        <ele>1322.64325</ele>
        <time>2022-02-25T14:22:31.730Z</time>
      </trkpt>
      <trkpt lat="38.71715" lon="37.33716">
        <ele>1329.34044</ele>
        <time>2022-02-25T14:23:40.464Z</time>
      </trkpt>
      <trkpt lat="38.71682" lon="37.33694">
        <ele>1330.319928</ele>
        <time>2022-02-25T14:23:57.608Z</time>
      </trkpt>
      <trkpt lat="38.71646" lon="37.33653">
        <ele>1330.819738</ele>
        <time>2022-02-25T14:24:16.173Z</time>
      </trkpt>
      <trkpt lat="38.71615" lon="37.33579">
        <ele>1331.511269</ele>
        <time>2022-02-25T14:24:35.408Z</time>
      </trkpt>
      <trkpt lat="38.71606" lon="37.3351">
        <ele>1331.617811</ele>
        <time>2022-02-25T14:24:47.191Z</time>
      </trkpt>
      <trkpt lat="38.71638" lon="37.33147">
        <ele>1323.606233</ele>
        <time>2022-02-25T14:25:42.888Z</time>
      </trkpt>
      <trkpt lat="38.71653" lon="37.33028">
        <ele>1321.22572</ele>
        <time>2022-02-25T14:26:03.115Z</time>
      </trkpt>
      <trkpt lat="38.71652" lon="37.32933">
        <ele>1319.655846</ele>
        <time>2022-02-25T14:26:18.949Z</time>
      </trkpt>
      <trkpt lat="38.71648" lon="37.32899">
        <ele>1319.073323</ele>
        <time>2022-02-25T14:26:24.709Z</time>
      </trkpt>
      <trkpt lat="38.71625" lon="37.32813">
        <ele>1317.309202</ele>
        <time>2022-02-25T14:26:39.040Z</time>
      </trkpt>
      <trkpt lat="38.71532" lon="37.32552">
        <ele>1311.131644</ele>
        <time>2022-02-25T14:27:22.274Z</time>
      </trkpt>
      <trkpt lat="38.71513" lon="37.32462">
        <ele>1309.922115</ele>
        <time>2022-02-25T14:27:38.621Z</time>
      </trkpt>
      <trkpt lat="38.71503" lon="37.32356">
        <ele>1309.673962</ele>
        <time>2022-02-25T14:28:02.484Z</time>
      </trkpt>
      <trkpt lat="38.71505" lon="37.32288">
        <ele>1310.167323</ele>
        <time>2022-02-25T14:28:20.327Z</time>
      </trkpt>
      <trkpt lat="38.71519" lon="37.32239">
        <ele>1310.538995</ele>
        <time>2022-02-25T14:28:33.895Z</time>
      </trkpt>
      <trkpt lat="38.7153" lon="37.32215">
        <ele>1310.740397</ele>
        <time>2022-02-25T14:28:41.088Z</time>
      </trkpt>
      <trkpt lat="38.7159" lon="37.32148">
        <ele>1310.487123</ele>
        <time>2022-02-25T14:29:05.116Z</time>
      </trkpt>
      <trkpt lat="38.71604" lon="37.32125">
        <ele>1310.309135</ele>
        <time>2022-02-25T14:29:10.858Z</time>
      </trkpt>
      <trkpt lat="38.71644" lon="37.32039">
        <ele>1309.717068</ele>
        <time>2022-02-25T14:29:27.780Z</time>
      </trkpt>
      <trkpt lat="38.71662" lon="37.31955">
        <ele>1308.601463</ele>
        <time>2022-02-25T14:29:41.852Z</time>
      </trkpt>
      <trkpt lat="38.71668" lon="37.319">
        <ele>1307.728279</ele>
        <time>2022-02-25T14:29:50.609Z</time>
      </trkpt>
      <trkpt lat="38.71665" lon="37.3171">
        <ele>1306.127143</ele>
        <time>2022-02-25T14:30:22.747Z</time>
      </trkpt>
      <trkpt lat="38.71669" lon="37.3168">
        <ele>1306.197059</ele>
        <time>2022-02-25T14:30:29.157Z</time>
      </trkpt>
      <trkpt lat="38.71708" lon="37.31548">
        <ele>1306.862648</ele>
        <time>2022-02-25T14:31:05.503Z</time>
      </trkpt>
      <trkpt lat="38.7181" lon="37.3094">
        <ele>1319.350025</ele>
        <time>2022-02-25T14:34:25.074Z</time>
      </trkpt>
      <trkpt lat="38.71841" lon="37.30819">
        <ele>1318.610245</ele>
        <time>2022-02-25T14:34:47.665Z</time>
      </trkpt>
      <trkpt lat="38.7187" lon="37.30762">
        <ele>1317.246451</ele>
        <time>2022-02-25T14:34:58.011Z</time>
      </trkpt>
      <trkpt lat="38.71896" lon="37.30729">
        <ele>1316.294111</ele>
        <time>2022-02-25T14:35:05.045Z</time>
      </trkpt>
      <trkpt lat="38.7192" lon="37.30697">
        <ele>1315.395324</ele>
        <time>2022-02-25T14:35:11.552Z</time>
      </trkpt>
      <trkpt lat="38.71938" lon="37.30677">
        <ele>1314.674437</ele>
        <time>2022-02-25T14:35:15.899Z</time>
      </trkpt>
      <trkpt lat="38.72025" lon="37.30565">
        <ele>1310.830019</ele>
        <time>2022-02-25T14:35:39.714Z</time>
      </trkpt>
      <trkpt lat="38.72076" lon="37.30479">
        <ele>1309.61931</ele>
        <time>2022-02-25T14:35:58.184Z</time>
      </trkpt>
      <trkpt lat="38.72103" lon="37.30377">
        <ele>1309.19851</ele>
        <time>2022-02-25T14:36:17.986Z</time>
      </trkpt>
      <trkpt lat="38.72114" lon="37.30271">
        <ele>1310.232262</ele>
        <time>2022-02-25T14:36:46.148Z</time>
      </trkpt>
      <trkpt lat="38.72114" lon="37.30191">
        <ele>1312.116715</ele>
        <time>2022-02-25T14:37:11.438Z</time>
      </trkpt>
      <trkpt lat="38.72125" lon="37.30173">
        <ele>1312.648388</ele>
        <time>2022-02-25T14:37:20.391Z</time>
      </trkpt>
      <trkpt lat="38.72131" lon="37.30134">
        <ele>1313.587666</ele>
        <time>2022-02-25T14:37:34.754Z</time>
      </trkpt>
      <trkpt lat="38.72214" lon="37.30118">
        <ele>1316.283872</ele>
        <time>2022-02-25T14:38:15.438Z</time>
      </trkpt>
      <trkpt lat="38.72233" lon="37.30097">
        <ele>1317.142816</ele>
        <time>2022-02-25T14:38:28.589Z</time>
      </trkpt>
      <trkpt lat="38.72275" lon="37.29906">
        <ele>1320.69975</ele>
        <time>2022-02-25T14:39:30.192Z</time>
      </trkpt>
      <trkpt lat="38.72291" lon="37.29856">
        <ele>1320.930625</ele>
        <time>2022-02-25T14:39:42.464Z</time>
      </trkpt>
      <trkpt lat="38.72314" lon="37.29729">
        <ele>1321.104686</ele>
        <time>2022-02-25T14:40:08.161Z</time>
      </trkpt>
      <trkpt lat="38.72337" lon="37.29696">
        <ele>1320.686073</ele>
        <time>2022-02-25T14:40:16.078Z</time>
      </trkpt>
      <trkpt lat="38.72375" lon="37.29584">
        <ele>1319.514332</ele>
        <time>2022-02-25T14:40:38.093Z</time>
      </trkpt>
      <trkpt lat="38.72379" lon="37.29552">
        <ele>1319.20518</ele>
        <time>2022-02-25T14:40:44.032Z</time>
      </trkpt>
      <trkpt lat="38.72377" lon="37.29472">
        <ele>1318.692556</ele>
        <time>2022-02-25T14:40:59.088Z</time>
      </trkpt>
      <trkpt lat="38.72425" lon="37.29303">
        <ele>1317.565701</ele>
        <time>2022-02-25T14:41:34.820Z</time>
      </trkpt>
      <trkpt lat="38.72438" lon="37.29241">
        <ele>1317.1454</ele>
        <time>2022-02-25T14:41:47.483Z</time>
      </trkpt>
      <trkpt lat="38.72443" lon="37.29195">
        <ele>1316.847144</ele>
        <time>2022-02-25T14:41:56.260Z</time>
      </trkpt>
      <trkpt lat="38.72433" lon="37.29128">
        <ele>1316.404468</ele>
        <time>2022-02-25T14:42:08.672Z</time>
      </trkpt>
      <trkpt lat="38.72415" lon="37.29056">
        <ele>1316.20048</ele>
        <time>2022-02-25T14:42:23.401Z</time>
      </trkpt>
      <trkpt lat="38.72392" lon="37.29004">
        <ele>1316.166408</ele>
        <time>2022-02-25T14:42:35.860Z</time>
      </trkpt>
      <trkpt lat="38.72366" lon="37.28961">
        <ele>1316.135719</ele>
        <time>2022-02-25T14:42:47.504Z</time>
      </trkpt>
      <trkpt lat="38.7237" lon="37.28864">
        <ele>1316.36341</ele>
        <time>2022-02-25T14:43:10.094Z</time>
      </trkpt>
      <trkpt lat="38.7238" lon="37.28633">
        <ele>1318.411752</ele>
        <time>2022-02-25T14:44:09.732Z</time>
      </trkpt>
      <trkpt lat="38.72378" lon="37.28574">
        <ele>1318.908795</ele>
        <time>2022-02-25T14:44:24.102Z</time>
      </trkpt>
      <trkpt lat="38.72376" lon="37.28522">
        <ele>1319.355115</ele>
        <time>2022-02-25T14:44:37.128Z</time>
      </trkpt>
      <trkpt lat="38.72343" lon="37.28338">
        <ele>1320.983428</ele>
        <time>2022-02-25T14:45:23.557Z</time>
      </trkpt>
      <trkpt lat="38.72323" lon="37.28261">
        <ele>1321.704389</ele>
        <time>2022-02-25T14:45:43.098Z</time>
      </trkpt>
      <trkpt lat="38.72319" lon="37.28248">
        <ele>1321.828871</ele>
        <time>2022-02-25T14:45:46.994Z</time>
      </trkpt>
      <trkpt lat="38.7228" lon="37.28131">
        <ele>1323.203069</ele>
        <time>2022-02-25T14:46:21.511Z</time>
      </trkpt>
      <trkpt lat="38.72257" lon="37.28062">
        <ele>1324.079415</ele>
        <time>2022-02-25T14:46:41.896Z</time>
      </trkpt>
      <trkpt lat="38.72236" lon="37.27998">
        <ele>1324.855054</ele>
        <time>2022-02-25T14:46:59.426Z</time>
      </trkpt>
      <trkpt lat="38.72204" lon="37.27904">
        <ele>1325.324403</ele>
        <time>2022-02-25T14:47:24.702Z</time>
      </trkpt>
      <trkpt lat="38.7219" lon="37.27861">
        <ele>1325.538678</ele>
        <time>2022-02-25T14:47:35.456Z</time>
      </trkpt>
      <trkpt lat="38.72182" lon="37.27836">
        <ele>1325.660655</ele>
        <time>2022-02-25T14:47:41.083Z</time>
      </trkpt>
      <trkpt lat="38.72169" lon="37.27785">
        <ele>1325.876459</ele>
        <time>2022-02-25T14:47:51.996Z</time>
      </trkpt>
      <trkpt lat="38.72201" lon="37.27746">
        <ele>1325.769864</ele>
        <time>2022-02-25T14:48:03.064Z</time>
      </trkpt>
      <trkpt lat="38.72228" lon="37.27691">
        <ele>1325.648705</ele>
        <time>2022-02-25T14:48:15.323Z</time>
      </trkpt>
      <trkpt lat="38.72244" lon="37.27646">
        <ele>1325.555955</ele>
        <time>2022-02-25T14:48:25.247Z</time>
      </trkpt>
      <trkpt lat="38.72246" lon="37.2763">
        <ele>1325.524932</ele>
        <time>2022-02-25T14:48:28.982Z</time>
      </trkpt>
      <trkpt lat="38.7225" lon="37.27595">
        <ele>1325.459299</ele>
        <time>2022-02-25T14:48:36.231Z</time>
      </trkpt>
      <trkpt lat="38.7225" lon="37.27505">
        <ele>1325.66742</ele>
        <time>2022-02-25T14:48:55.155Z</time>
      </trkpt>
      <trkpt lat="38.72243" lon="37.2739">
        <ele>1325.954524</ele>
        <time>2022-02-25T14:49:21.009Z</time>
      </trkpt>
      <trkpt lat="38.72233" lon="37.2733">
        <ele>1326.41664</ele>
        <time>2022-02-25T14:49:35.143Z</time>
      </trkpt>
      <trkpt lat="38.72227" lon="37.27292">
        <ele>1326.891389</ele>
        <time>2022-02-25T14:49:44.335Z</time>
      </trkpt>
      <trkpt lat="38.72222" lon="37.27216">
        <ele>1327.814256</ele>
        <time>2022-02-25T14:50:03.924Z</time>
      </trkpt>
      <trkpt lat="38.72227" lon="37.27056">
        <ele>1330.549767</ele>
        <time>2022-02-25T14:50:52.323Z</time>
      </trkpt>
      <trkpt lat="38.72242" lon="37.27048">
        <ele>1331.015932</ele>
        <time>2022-02-25T14:51:00.222Z</time>
      </trkpt>
      <trkpt lat="38.72273" lon="37.27019">
        <ele>1332.113518</ele>
        <time>2022-02-25T14:51:16.289Z</time>
      </trkpt>
      <trkpt lat="38.72294" lon="37.26989">
        <ele>1333.030381</ele>
        <time>2022-02-25T14:51:29.632Z</time>
      </trkpt>
      <trkpt lat="38.72307" lon="37.26959">
        <ele>1333.777681</ele>
        <time>2022-02-25T14:51:39.516Z</time>
      </trkpt>
      <trkpt lat="38.72309" lon="37.26952">
        <ele>1333.95001</ele>
        <time>2022-02-25T14:51:42.390Z</time>
      </trkpt>
      <trkpt lat="38.72321" lon="37.2691">
        <ele>1334.369601</ele>
        <time>2022-02-25T14:51:56.282Z</time>
      </trkpt>
      <trkpt lat="38.72331" lon="37.26869">
        <ele>1334.752799</ele>
        <time>2022-02-25T14:52:08.398Z</time>
      </trkpt>
      <trkpt lat="38.72341" lon="37.26834">
        <ele>1335.08315</ele>
        <time>2022-02-25T14:52:17.765Z</time>
      </trkpt>
      <trkpt lat="38.72358" lon="37.26759">
        <ele>1335.784318</ele>
        <time>2022-02-25T14:52:35.374Z</time>
      </trkpt>
      <trkpt lat="38.72375" lon="37.26682">
        <ele>1335.85839</ele>
        <time>2022-02-25T14:52:50.372Z</time>
      </trkpt>
      <trkpt lat="38.72414" lon="37.26497">
        <ele>1335.284445</ele>
        <time>2022-02-25T14:53:26.797Z</time>
      </trkpt>
      <trkpt lat="38.72457" lon="37.26333">
        <ele>1335.824367</ele>
        <time>2022-02-25T14:54:05.795Z</time>
      </trkpt>
      <trkpt lat="38.7248" lon="37.26274">
        <ele>1336.115164</ele>
        <time>2022-02-25T14:54:21.618Z</time>
      </trkpt>
      <trkpt lat="38.72508" lon="37.26222">
        <ele>1336.577256</ele>
        <time>2022-02-25T14:54:36.854Z</time>
      </trkpt>
      <trkpt lat="38.72539" lon="37.26126">
        <ele>1337.337398</ele>
        <time>2022-02-25T14:55:02.110Z</time>
      </trkpt>
      <trkpt lat="38.72574" lon="37.26049">
        <ele>1338.016813</ele>
        <time>2022-02-25T14:55:24.367Z</time>
      </trkpt>
      <trkpt lat="38.7259" lon="37.26024">
        <ele>1338.267114</ele>
        <time>2022-02-25T14:55:32.183Z</time>
      </trkpt>
      <trkpt lat="38.72618" lon="37.25929">
        <ele>1339.075049</ele>
        <time>2022-02-25T14:55:57.156Z</time>
      </trkpt>
      <trkpt lat="38.72638" lon="37.2588">
        <ele>1339.528192</ele>
        <time>2022-02-25T14:56:10.486Z</time>
      </trkpt>
      <trkpt lat="38.72696" lon="37.25798">
        <ele>1340.815066</ele>
        <time>2022-02-25T14:56:38.596Z</time>
      </trkpt>
      <trkpt lat="38.72714" lon="37.25753">
        <ele>1341.404624</ele>
        <time>2022-02-25T14:56:52.003Z</time>
      </trkpt>
      <trkpt lat="38.72721" lon="37.2571">
        <ele>1341.920255</ele>
        <time>2022-02-25T14:57:03.869Z</time>
      </trkpt>
      <trkpt lat="38.7274" lon="37.25633">
        <ele>1343.229526</ele>
        <time>2022-02-25T14:57:27.494Z</time>
      </trkpt>
      <trkpt lat="38.72778" lon="37.25497">
        <ele>1345.797525</ele>
        <time>2022-02-25T14:58:12.215Z</time>
      </trkpt>
      <trkpt lat="38.72785" lon="37.25472">
        <ele>1346.243975</ele>
        <time>2022-02-25T14:58:20.258Z</time>
      </trkpt>
      <trkpt lat="38.72799" lon="37.25424">
        <ele>1346.20299</ele>
        <time>2022-02-25T14:58:33.249Z</time>
      </trkpt>
      <trkpt lat="38.72847" lon="37.25325">
        <ele>1346.109776</ele>
        <time>2022-02-25T14:58:56.644Z</time>
      </trkpt>
      <trkpt lat="38.72869" lon="37.25277">
        <ele>1346.064939</ele>
        <time>2022-02-25T14:59:06.500Z</time>
      </trkpt>
      <trkpt lat="38.72884" lon="37.25247">
        <ele>1345.620566</ele>
        <time>2022-02-25T14:59:12.082Z</time>
      </trkpt>
      <trkpt lat="38.72895" lon="37.25218">
        <ele>1345.1275</ele>
        <time>2022-02-25T14:59:17.290Z</time>
      </trkpt>
      <trkpt lat="38.72934" lon="37.25055">
        <ele>1342.554965</ele>
        <time>2022-02-25T14:59:45.033Z</time>
      </trkpt>
      <trkpt lat="38.72955" lon="37.24993">
        <ele>1342.144622</ele>
        <time>2022-02-25T14:59:57.662Z</time>
      </trkpt>
      <trkpt lat="38.73045" lon="37.24803">
        <ele>1341.219479</ele>
        <time>2022-02-25T15:00:40.131Z</time>
      </trkpt>
      <trkpt lat="38.73062" lon="37.24787">
        <ele>1341.240337</ele>
        <time>2022-02-25T15:00:45.760Z</time>
      </trkpt>
      <trkpt lat="38.7307" lon="37.2477">
        <ele>1341.255768</ele>
        <time>2022-02-25T15:00:49.884Z</time>
      </trkpt>
      <trkpt lat="38.73073" lon="37.24748">
        <ele>1341.272942</ele>
        <time>2022-02-25T15:00:54.697Z</time>
      </trkpt>
      <trkpt lat="38.73069" lon="37.24726">
        <ele>1341.290279</ele>
        <time>2022-02-25T15:01:00.119Z</time>
      </trkpt>
      <trkpt lat="38.73066" lon="37.24711">
        <ele>1341.302117</ele>
        <time>2022-02-25T15:01:04.291Z</time>
      </trkpt>
      <trkpt lat="38.73056" lon="37.24693">
        <ele>1341.318921</ele>
        <time>2022-02-25T15:01:08.375Z</time>
      </trkpt>
      <trkpt lat="38.73049" lon="37.24679">
        <ele>1341.331261</ele>
        <time>2022-02-25T15:01:13.086Z</time>
      </trkpt>
      <trkpt lat="38.73017" lon="37.24626">
        <ele>1341.542631</ele>
        <time>2022-02-25T15:01:27.382Z</time>
      </trkpt>
      <trkpt lat="38.73001" lon="37.24583">
        <ele>1341.755419</ele>
        <time>2022-02-25T15:01:37.334Z</time>
      </trkpt>
      <trkpt lat="38.72988" lon="37.24553">
        <ele>1341.90855</ele>
        <time>2022-02-25T15:01:46.081Z</time>
      </trkpt>
      <trkpt lat="38.72994" lon="37.24549">
        <ele>1341.950558</ele>
        <time>2022-02-25T15:01:47.698Z</time>
      </trkpt>
      <trkpt lat="38.73011" lon="37.24516">
        <ele>1342.12611</ele>
        <time>2022-02-25T15:01:58.984Z</time>
      </trkpt>
      <trkpt lat="38.73041" lon="37.24494">
        <ele>1342.321127</ele>
        <time>2022-02-25T15:02:09.940Z</time>
      </trkpt>
      <trkpt lat="38.7307" lon="37.24413">
        <ele>1342.308599</ele>
        <time>2022-02-25T15:02:29.957Z</time>
      </trkpt>
      <trkpt lat="38.73231" lon="37.24162">
        <ele>1342.341208</ele>
        <time>2022-02-25T15:03:36.109Z</time>
      </trkpt>
      <trkpt lat="38.73312" lon="37.24006">
        <ele>1344.635175</ele>
        <time>2022-02-25T15:04:27.300Z</time>
      </trkpt>
      <trkpt lat="38.7335" lon="37.23896">
        <ele>1346.896987</ele>
        <time>2022-02-25T15:05:07.449Z</time>
      </trkpt>
      <trkpt lat="38.73364" lon="37.23886">
        <ele>1347.455854</ele>
        <time>2022-02-25T15:05:14.768Z</time>
      </trkpt>
      <trkpt lat="38.73373" lon="37.23867">
        <ele>1348.057978</ele>
        <time>2022-02-25T15:05:22.830Z</time>
      </trkpt>
      <trkpt lat="38.73377" lon="37.23829">
        <ele>1349.064003</ele>
        <time>2022-02-25T15:05:36.418Z</time>
      </trkpt>
      <trkpt lat="38.73375" lon="37.23808">
        <ele>1349.620133</ele>
        <time>2022-02-25T15:05:44.091Z</time>
      </trkpt>
      <trkpt lat="38.73329" lon="37.23617">
        <ele>1354.384206</ele>
        <time>2022-02-25T15:06:51.551Z</time>
      </trkpt>
      <trkpt lat="38.73329" lon="37.23485">
        <ele>1357.074484</ele>
        <time>2022-02-25T15:07:31.188Z</time>
      </trkpt>
      <trkpt lat="38.73341" lon="37.23424">
        <ele>1358.661376</ele>
        <time>2022-02-25T15:07:49.870Z</time>
      </trkpt>
      <trkpt lat="38.73362" lon="37.23373">
        <ele>1360.177244</ele>
        <time>2022-02-25T15:08:08.599Z</time>
      </trkpt>
      <trkpt lat="38.73358" lon="37.23348">
        <ele>1360.842364</ele>
        <time>2022-02-25T15:08:17.668Z</time>
      </trkpt>
      <trkpt lat="38.73337" lon="37.23358">
        <ele>1361.588354</ele>
        <time>2022-02-25T15:08:27.895Z</time>
      </trkpt>
      <trkpt lat="38.73281" lon="37.23395">
        <ele>1363.920717</ele>
        <time>2022-02-25T15:08:58.203Z</time>
      </trkpt>
      <trkpt lat="38.73262" lon="37.23398">
        <ele>1364.862004</ele>
        <time>2022-02-25T15:09:08.393Z</time>
      </trkpt>
      <trkpt lat="38.73264" lon="37.23299">
        <ele>1368.707069</ele>
        <time>2022-02-25T15:09:48.699Z</time>
      </trkpt>
      <trkpt lat="38.7324" lon="37.23152">
        <ele>1374.072173</ele>
        <time>2022-02-25T15:10:48.399Z</time>
      </trkpt>
      <trkpt lat="38.73195" lon="37.23042">
        <ele>1377.976924</ele>
        <time>2022-02-25T15:11:32.142Z</time>
      </trkpt>
      <trkpt lat="38.73109" lon="37.22899">
        <ele>1382.638093</ele>
        <time>2022-02-25T15:12:30.213Z</time>
      </trkpt>
      <trkpt lat="38.73084" lon="37.22826">
        <ele>1384.564321</ele>
        <time>2022-02-25T15:12:55.754Z</time>
      </trkpt>
      <trkpt lat="38.73052" lon="37.22703">
        <ele>1387.682973</ele>
        <time>2022-02-25T15:13:37.992Z</time>
      </trkpt>
      <trkpt lat="38.73014" lon="37.22589">
        <ele>1390.696388</ele>
        <time>2022-02-25T15:14:18.627Z</time>
      </trkpt>
      <trkpt lat="38.72983" lon="37.22524">
        <ele>1392.402256</ele>
        <time>2022-02-25T15:14:42.101Z</time>
      </trkpt>
      <trkpt lat="38.72939" lon="37.22444">
        <ele>1394.638375</ele>
        <time>2022-02-25T15:15:12.873Z</time>
      </trkpt>
      <trkpt lat="38.72903" lon="37.22389">
        <ele>1396.430983</ele>
        <time>2022-02-25T15:15:35.497Z</time>
      </trkpt>
      <trkpt lat="38.72469" lon="37.2182">
        <ele>1421.151376</ele>
        <time>2022-02-25T15:20:17.296Z</time>
      </trkpt>
      <trkpt lat="38.72394" lon="37.21713">
        <ele>1426.984382</ele>
        <time>2022-02-25T15:21:18.135Z</time>
      </trkpt>
      <trkpt lat="38.72301" lon="37.2155">
        <ele>1436.910488</ele>
        <time>2022-02-25T15:22:50.172Z</time>
      </trkpt>
      <trkpt lat="38.72222" lon="37.21375">
        <ele>1446.049421</ele>
        <time>2022-02-25T15:24:17.201Z</time>
      </trkpt>
      <trkpt lat="38.72177" lon="37.21249">
        <ele>1450.599426</ele>
        <time>2022-02-25T15:25:08.842Z</time>
      </trkpt>
      <trkpt lat="38.72124" lon="37.21049">
        <ele>1456.438456</ele>
        <time>2022-02-25T15:26:18.399Z</time>
      </trkpt>
      <trkpt lat="38.721" lon="37.20908">
        <ele>1459.904595</ele>
        <time>2022-02-25T15:27:04.411Z</time>
      </trkpt>
      <trkpt lat="38.72019" lon="37.20328">
        <ele>1473.440676</ele>
        <time>2022-02-25T15:30:11.983Z</time>
      </trkpt>
      <trkpt lat="38.72008" lon="37.20268">
        <ele>1474.871308</ele>
        <time>2022-02-25T15:30:31.596Z</time>
      </trkpt>
      <trkpt lat="38.71978" lon="37.20161">
        <ele>1477.882837</ele>
        <time>2022-02-25T15:31:08.917Z</time>
      </trkpt>
      <trkpt lat="38.71951" lon="37.20046">
        <ele>1481.164251</ele>
        <time>2022-02-25T15:31:50.100Z</time>
      </trkpt>
      <trkpt lat="38.71936" lon="37.19915">
        <ele>1485.223214</ele>
        <time>2022-02-25T15:32:38.113Z</time>
      </trkpt>
      <trkpt lat="38.71931" lon="37.1981">
        <ele>1488.527892</ele>
        <time>2022-02-25T15:33:16.328Z</time>
      </trkpt>
      <trkpt lat="38.71931" lon="37.19765">
        <ele>1489.862471</ele>
        <time>2022-02-25T15:33:32.271Z</time>
      </trkpt>
      <trkpt lat="38.71932" lon="37.19288">
        <ele>1504.146449</ele>
        <time>2022-02-25T15:36:16.234Z</time>
      </trkpt>
      <trkpt lat="38.71925" lon="37.19124">
        <ele>1510.585808</ele>
        <time>2022-02-25T15:37:22.972Z</time>
      </trkpt>
      <trkpt lat="38.71917" lon="37.19047">
        <ele>1513.920374</ele>
        <time>2022-02-25T15:37:57.189Z</time>
      </trkpt>
      <trkpt lat="38.71898" lon="37.18947">
        <ele>1518.490014</ele>
        <time>2022-02-25T15:38:42.254Z</time>
      </trkpt>
      <trkpt lat="38.71867" lon="37.18825">
        <ele>1523.255232</ele>
        <time>2022-02-25T15:39:33.543Z</time>
      </trkpt>
      <trkpt lat="38.71826" lon="37.1871">
        <ele>1526.929007</ele>
        <time>2022-02-25T15:40:17.106Z</time>
      </trkpt>
      <trkpt lat="38.7175" lon="37.1855">
        <ele>1530.690164</ele>
        <time>2022-02-25T15:41:11.676Z</time>
      </trkpt>
      <trkpt lat="38.71425" lon="37.17959">
        <ele>1543.141627</ele>
        <time>2022-02-25T15:44:37.389Z</time>
      </trkpt>
      <trkpt lat="38.71071" lon="37.17361">
        <ele>1567.549911</ele>
        <time>2022-02-25T15:49:13.263Z</time>
      </trkpt>
      <trkpt lat="38.7106" lon="37.17302">
        <ele>1569.944404</ele>
        <time>2022-02-25T15:49:39.175Z</time>
      </trkpt>
      <trkpt lat="38.71069" lon="37.17257">
        <ele>1571.759771</ele>
        <time>2022-02-25T15:49:58.486Z</time>
      </trkpt>
      <trkpt lat="38.71099" lon="37.17217">
        <ele>1573.954735</ele>
        <time>2022-02-25T15:50:21.268Z</time>
      </trkpt>
      <trkpt lat="38.71125" lon="37.17206">
        <ele>1575.322346</ele>
        <time>2022-02-25T15:50:35.075Z</time>
      </trkpt>
      <trkpt lat="38.71155" lon="37.17206">
        <ele>1576.752462</ele>
        <time>2022-02-25T15:50:49.927Z</time>
      </trkpt>
      <trkpt lat="38.71213" lon="37.17249">
        <ele>1578.908807</ele>
        <time>2022-02-25T15:51:18.951Z</time>
      </trkpt>
      <trkpt lat="38.71296" lon="37.17381">
        <ele>1583.506824</ele>
        <time>2022-02-25T15:52:11.160Z</time>
      </trkpt>
      <trkpt lat="38.71332" lon="37.17425">
        <ele>1585.717032</ele>
        <time>2022-02-25T15:52:32.169Z</time>
      </trkpt>
      <trkpt lat="38.7137" lon="37.17462">
        <ele>1587.838819</ele>
        <time>2022-02-25T15:52:54.065Z</time>
      </trkpt>
      <trkpt lat="38.71621" lon="37.17664">
        <ele>1607.220979</ele>
        <time>2022-02-25T15:55:47.668Z</time>
      </trkpt>
      <trkpt lat="38.71663" lon="37.17692">
        <ele>1611.166818</ele>
        <time>2022-02-25T15:56:20.686Z</time>
      </trkpt>
      <trkpt lat="38.71707" lon="37.17714">
        <ele>1615.176743</ele>
        <time>2022-02-25T15:56:55.024Z</time>
      </trkpt>
      <trkpt lat="38.71754" lon="37.17714">
        <ele>1619.205943</ele>
        <time>2022-02-25T15:57:29.411Z</time>
      </trkpt>
      <trkpt lat="38.71805" lon="37.17698">
        <ele>1623.709572</ele>
        <time>2022-02-25T15:58:06.853Z</time>
      </trkpt>
      <trkpt lat="38.71835" lon="37.17677">
        <ele>1626.595224</ele>
        <time>2022-02-25T15:58:29.671Z</time>
      </trkpt>
      <trkpt lat="38.71882" lon="37.17632">
        <ele>1631.7089</ele>
        <time>2022-02-25T15:59:08.141Z</time>
      </trkpt>
      <trkpt lat="38.71911" lon="37.17594">
        <ele>1635.175205</ele>
        <time>2022-02-25T15:59:34.080Z</time>
      </trkpt>
      <trkpt lat="38.71926" lon="37.17559">
        <ele>1637.817428</ele>
        <time>2022-02-25T15:59:54.160Z</time>
      </trkpt>
      <trkpt lat="38.71942" lon="37.17487">
        <ele>1642.689086</ele>
        <time>2022-02-25T16:00:31.903Z</time>
      </trkpt>
      <trkpt lat="38.71945" lon="37.17443">
        <ele>1645.627336</ele>
        <time>2022-02-25T16:00:55.827Z</time>
      </trkpt>
      <trkpt lat="38.71936" lon="37.17333">
        <ele>1653.834835</ele>
        <time>2022-02-25T16:01:58.859Z</time>
      </trkpt>
      <trkpt lat="38.71928" lon="37.17275">
        <ele>1658.563991</ele>
        <time>2022-02-25T16:02:35.071Z</time>
      </trkpt>
      <trkpt lat="38.71907" lon="37.1722">
        <ele>1663.343409</ele>
        <time>2022-02-25T16:03:12.324Z</time>
      </trkpt>
      <trkpt lat="38.71835" lon="37.17075">
        <ele>1675.845975</ele>
        <time>2022-02-25T16:04:52.570Z</time>
      </trkpt>
      <trkpt lat="38.71807" lon="37.17009">
        <ele>1681.096753</ele>
        <time>2022-02-25T16:05:31.260Z</time>
      </trkpt>
      <trkpt lat="38.71794" lon="37.16957">
        <ele>1684.065547</ele>
        <time>2022-02-25T16:05:57.656Z</time>
      </trkpt>
      <trkpt lat="38.71785" lon="37.16833">
        <ele>1689.588719</ele>
        <time>2022-02-25T16:06:50.885Z</time>
      </trkpt>
      <trkpt lat="38.71797" lon="37.1669">
        <ele>1695.165804</ele>
        <time>2022-02-25T16:07:43.468Z</time>
      </trkpt>
      <trkpt lat="38.71833" lon="37.16565">
        <ele>1699.590498</ele>
        <time>2022-02-25T16:08:30.121Z</time>
      </trkpt>
      <trkpt lat="38.71943" lon="37.16319">
        <ele>1712.074858</ele>
        <time>2022-02-25T16:10:27.695Z</time>
      </trkpt>
      <trkpt lat="38.71978" lon="37.16196">
        <ele>1719.846991</ele>
        <time>2022-02-25T16:11:33.713Z</time>
      </trkpt>
      <trkpt lat="38.71994" lon="37.16087">
        <ele>1726.378645</ele>
        <time>2022-02-25T16:12:32.023Z</time>
      </trkpt>
      <trkpt lat="38.72002" lon="37.15988">
        <ele>1732.231909</ele>
        <time>2022-02-25T16:13:22.509Z</time>
      </trkpt>
      <trkpt lat="38.72003" lon="37.1592">
        <ele>1736.219417</ele>
        <time>2022-02-25T16:13:55.044Z</time>
      </trkpt>
      <trkpt lat="38.71996" lon="37.15698">
        <ele>1746.662268</ele>
        <time>2022-02-25T16:15:30.734Z</time>
      </trkpt>
      <trkpt lat="38.71999" lon="37.15628">
        <ele>1749.534554</ele>
        <time>2022-02-25T16:15:58.326Z</time>
      </trkpt>
      <trkpt lat="38.72007" lon="37.15558">
        <ele>1752.202323</ele>
        <time>2022-02-25T16:16:25.791Z</time>
      </trkpt>
      <trkpt lat="38.72029" lon="37.15472">
        <ele>1755.595991</ele>
        <time>2022-02-25T16:17:00.132Z</time>
      </trkpt>
      <trkpt lat="38.72061" lon="37.15392">
        <ele>1758.982689</ele>
        <time>2022-02-25T16:17:34.677Z</time>
      </trkpt>
      <trkpt lat="38.72102" lon="37.1532">
        <ele>1762.37645</ele>
        <time>2022-02-25T16:18:09.831Z</time>
      </trkpt>
      <trkpt lat="38.72142" lon="37.1527">
        <ele>1765.068501</ele>
        <time>2022-02-25T16:18:37.974Z</time>
      </trkpt>
      <trkpt lat="38.72199" lon="37.15217">
        <ele>1768.270797</ele>
        <time>2022-02-25T16:19:13.219Z</time>
      </trkpt>
      <trkpt lat="38.72261" lon="37.15177">
        <ele>1771.40115</ele>
        <time>2022-02-25T16:19:47.275Z</time>
      </trkpt>
      <trkpt lat="38.72748" lon="37.14946">
        <ele>1789.94469</ele>
        <time>2022-02-25T16:23:40.845Z</time>
      </trkpt>
      <trkpt lat="38.72975" lon="37.14848">
        <ele>1791.215662</ele>
        <time>2022-02-25T16:24:47.187Z</time>
      </trkpt>
      <trkpt lat="38.7303" lon="37.14842">
        <ele>1789.37669</ele>
        <time>2022-02-25T16:24:58.346Z</time>
      </trkpt>
      <trkpt lat="38.73087" lon="37.14848">
        <ele>1787.108045</ele>
        <time>2022-02-25T16:25:09.197Z</time>
      </trkpt>
      <trkpt lat="38.73127" lon="37.14859">
        <ele>1785.495835</ele>
        <time>2022-02-25T16:25:16.567Z</time>
      </trkpt>
      <trkpt lat="38.73186" lon="37.14885">
        <ele>1782.177006</ele>
        <time>2022-02-25T16:25:27.685Z</time>
      </trkpt>
      <trkpt lat="38.73225" lon="37.14909">
        <ele>1779.143437</ele>
        <time>2022-02-25T16:25:35.176Z</time>
      </trkpt>
      <trkpt lat="38.73366" lon="37.15018">
        <ele>1766.906221</ele>
        <time>2022-02-25T16:26:03.096Z</time>
      </trkpt>
      <trkpt lat="38.73441" lon="37.15054">
        <ele>1760.298865</ele>
        <time>2022-02-25T16:26:16.444Z</time>
      </trkpt>
      <trkpt lat="38.73503" lon="37.1506">
        <ele>1755.123852</ele>
        <time>2022-02-25T16:26:26.781Z</time>
      </trkpt>
      <trkpt lat="38.73545" lon="37.15052">
        <ele>1751.51521</ele>
        <time>2022-02-25T16:26:33.823Z</time>
      </trkpt>
      <trkpt lat="38.73779" lon="37.1496">
        <ele>1731.650917</ele>
        <time>2022-02-25T16:27:14.763Z</time>
      </trkpt>
      <trkpt lat="38.73843" lon="37.14949">
        <ele>1726.966764</ele>
        <time>2022-02-25T16:27:25.971Z</time>
      </trkpt>
      <trkpt lat="38.73886" lon="37.14949">
        <ele>1725.193619</ele>
        <time>2022-02-25T16:27:33.473Z</time>
      </trkpt>
      <trkpt lat="38.74079" lon="37.15022">
        <ele>1718.81978</ele>
        <time>2022-02-25T16:28:12.925Z</time>
      </trkpt>
      <trkpt lat="38.74583" lon="37.15282">
        <ele>1712.505508</ele>
        <time>2022-02-25T16:30:19.561Z</time>
      </trkpt>
      <trkpt lat="38.74683" lon="37.15309">
        <ele>1711.678242</ele>
        <time>2022-02-25T16:30:44.070Z</time>
      </trkpt>
      <trkpt lat="38.74759" lon="37.15317">
        <ele>1711.306143</ele>
        <time>2022-02-25T16:31:02.180Z</time>
      </trkpt>
      <trkpt lat="38.74881" lon="37.15297">
        <ele>1710.902913</ele>
        <time>2022-02-25T16:31:32.660Z</time>
      </trkpt>
      <trkpt lat="38.74984" lon="37.15258">
        <ele>1711.524355</ele>
        <time>2022-02-25T16:32:04.220Z</time>
      </trkpt>
      <trkpt lat="38.75075" lon="37.15189">
        <ele>1712.335999</ele>
        <time>2022-02-25T16:32:38.985Z</time>
      </trkpt>
      <trkpt lat="38.75187" lon="37.15081">
        <ele>1713.545478</ele>
        <time>2022-02-25T16:33:23.352Z</time>
      </trkpt>
      <trkpt lat="38.7525" lon="37.14992">
        <ele>1713.18821</ele>
        <time>2022-02-25T16:33:47.811Z</time>
      </trkpt>
      <trkpt lat="38.75317" lon="37.14849">
        <ele>1711.845278</ele>
        <time>2022-02-25T16:34:17.320Z</time>
      </trkpt>
      <trkpt lat="38.75387" lon="37.14603">
        <ele>1706.589917</ele>
        <time>2022-02-25T16:34:59.639Z</time>
      </trkpt>
      <trkpt lat="38.75418" lon="37.14442">
        <ele>1701.142097</ele>
        <time>2022-02-25T16:35:23.491Z</time>
      </trkpt>
      <trkpt lat="38.75452" lon="37.1434">
        <ele>1695.859224</ele>
        <time>2022-02-25T16:35:38.509Z</time>
      </trkpt>
      <trkpt lat="38.75486" lon="37.14268">
        <ele>1691.819367</ele>
        <time>2022-02-25T16:35:49.867Z</time>
      </trkpt>
      <trkpt lat="38.75514" lon="37.14222">
        <ele>1689.058201</ele>
        <time>2022-02-25T16:35:57.606Z</time>
      </trkpt>
      <trkpt lat="38.75563" lon="37.1416">
        <ele>1684.840826</ele>
        <time>2022-02-25T16:36:09.586Z</time>
      </trkpt>
      <trkpt lat="38.75621" lon="37.1411">
        <ele>1680.61432</ele>
        <time>2022-02-25T16:36:22.078Z</time>
      </trkpt>
      <trkpt lat="38.75724" lon="37.1405">
        <ele>1675.034156</ele>
        <time>2022-02-25T16:36:42.801Z</time>
      </trkpt>
      <trkpt lat="38.75799" lon="37.13999">
        <ele>1670.797602</ele>
        <time>2022-02-25T16:36:58.320Z</time>
      </trkpt>
      <trkpt lat="38.75834" lon="37.13968">
        <ele>1668.626749</ele>
        <time>2022-02-25T16:37:05.978Z</time>
      </trkpt>
      <trkpt lat="38.75882" lon="37.13913">
        <ele>1665.344892</ele>
        <time>2022-02-25T16:37:17.508Z</time>
      </trkpt>
      <trkpt lat="38.75909" lon="37.13871">
        <ele>1663.146846</ele>
        <time>2022-02-25T16:37:25.188Z</time>
      </trkpt>
      <trkpt lat="38.75945" lon="37.138">
        <ele>1659.257851</ele>
        <time>2022-02-25T16:37:36.932Z</time>
      </trkpt>
      <trkpt lat="38.75964" lon="37.13748">
        <ele>1656.58289</ele>
        <time>2022-02-25T16:37:44.871Z</time>
      </trkpt>
      <trkpt lat="38.76005" lon="37.13604">
        <ele>1648.897055</ele>
        <time>2022-02-25T16:38:05.674Z</time>
      </trkpt>
      <trkpt lat="38.76058" lon="37.1346">
        <ele>1639.929743</ele>
        <time>2022-02-25T16:38:26.834Z</time>
      </trkpt>
      <trkpt lat="38.76146" lon="37.1328">
        <ele>1628.487535</ele>
        <time>2022-02-25T16:38:55.095Z</time>
      </trkpt>
      <trkpt lat="38.76296" lon="37.13">
        <ele>1614.92513</ele>
        <time>2022-02-25T16:39:42.828Z</time>
      </trkpt>
      <trkpt lat="38.76368" lon="37.12873">
        <ele>1610.06736</ele>
        <time>2022-02-25T16:40:06.309Z</time>
      </trkpt>
      <trkpt lat="38.76483" lon="37.12691">
        <ele>1605.635536</ele>
        <time>2022-02-25T16:40:43.719Z</time>
      </trkpt>
      <trkpt lat="38.76746" lon="37.12297">
        <ele>1601.709507</ele>
        <time>2022-02-25T16:42:16.548Z</time>
      </trkpt>
      <trkpt lat="38.76811" lon="37.12189">
        <ele>1602.090421</ele>
        <time>2022-02-25T16:42:48.632Z</time>
      </trkpt>
      <trkpt lat="38.76855" lon="37.12101">
        <ele>1602.956386</ele>
        <time>2022-02-25T16:43:16.556Z</time>
      </trkpt>
      <trkpt lat="38.76878" lon="37.1204">
        <ele>1603.661709</ele>
        <time>2022-02-25T16:43:34.635Z</time>
      </trkpt>
      <trkpt lat="38.76906" lon="37.11926">
        <ele>1604.779406</ele>
        <time>2022-02-25T16:44:05.069Z</time>
      </trkpt>
      <trkpt lat="38.76926" lon="37.11798">
        <ele>1605.574285</ele>
        <time>2022-02-25T16:44:34.719Z</time>
      </trkpt>
      <trkpt lat="38.76929" lon="37.11686">
        <ele>1606.63371</ele>
        <time>2022-02-25T16:45:00.860Z</time>
      </trkpt>
      <trkpt lat="38.76823" lon="37.10887">
        <ele>1618.323812</ele>
        <time>2022-02-25T16:48:50.799Z</time>
      </trkpt>
      <trkpt lat="38.76785" lon="37.10627">
        <ele>1620.107636</ele>
        <time>2022-02-25T16:49:53.724Z</time>
      </trkpt>
      <trkpt lat="38.7675" lon="37.1038">
        <ele>1619.307192</ele>
        <time>2022-02-25T16:50:43.041Z</time>
      </trkpt>
      <trkpt lat="38.76709" lon="37.101">
        <ele>1615.360138</ele>
        <time>2022-02-25T16:51:29.286Z</time>
      </trkpt>
      <trkpt lat="38.76684" lon="37.09913">
        <ele>1613.461178</ele>
        <time>2022-02-25T16:52:02.773Z</time>
      </trkpt>
      <trkpt lat="38.76673" lon="37.0979">
        <ele>1613.333195</ele>
        <time>2022-02-25T16:52:27.984Z</time>
      </trkpt>
      <trkpt lat="38.7669" lon="37.09395">
        <ele>1613.521367</ele>
        <time>2022-02-25T16:53:53.063Z</time>
      </trkpt>
      <trkpt lat="38.76692" lon="37.09286">
        <ele>1613.525463</ele>
        <time>2022-02-25T16:54:15.316Z</time>
      </trkpt>
      <trkpt lat="38.76677" lon="37.09189">
        <ele>1613.530612</ele>
        <time>2022-02-25T16:54:35.411Z</time>
      </trkpt>
      <trkpt lat="38.76655" lon="37.09096">
        <ele>1613.538388</ele>
        <time>2022-02-25T16:54:55.346Z</time>
      </trkpt>
      <trkpt lat="38.76619" lon="37.09004">
        <ele>1613.553977</ele>
        <time>2022-02-25T16:55:17.474Z</time>
      </trkpt>
      <trkpt lat="38.76394" lon="37.08626">
        <ele>1614.649276</ele>
        <time>2022-02-25T16:57:02.632Z</time>
      </trkpt>
      <trkpt lat="38.76325" lon="37.08472">
        <ele>1614.531577</ele>
        <time>2022-02-25T16:57:38.244Z</time>
      </trkpt>
      <trkpt lat="38.76297" lon="37.08383">
        <ele>1614.717425</ele>
        <time>2022-02-25T16:57:57.655Z</time>
      </trkpt>
      <trkpt lat="38.76181" lon="37.07849">
        <ele>1616.798316</ele>
        <time>2022-02-25T17:00:04.359Z</time>
      </trkpt>
      <trkpt lat="38.76027" lon="37.07108">
        <ele>1620.34428</ele>
        <time>2022-02-25T17:02:59.923Z</time>
      </trkpt>
      <trkpt lat="38.76011" lon="37.07031">
        <ele>1621.20224</ele>
        <time>2022-02-25T17:03:21.162Z</time>
      </trkpt>
      <trkpt lat="38.75988" lon="37.06775">
        <ele>1623.447533</ele>
        <time>2022-02-25T17:04:29.214Z</time>
      </trkpt>
      <trkpt lat="38.75972" lon="37.06297">
        <ele>1625.704006</ele>
        <time>2022-02-25T17:06:17.172Z</time>
      </trkpt>
      <trkpt lat="38.75955" lon="37.05766">
        <ele>1626.743595</ele>
        <time>2022-02-25T17:08:12.682Z</time>
      </trkpt>
      <trkpt lat="38.75891" lon="37.05246">
        <ele>1627.216831</ele>
        <time>2022-02-25T17:10:03.341Z</time>
      </trkpt>
      <trkpt lat="38.75771" lon="37.04833">
        <ele>1628.705876</ele>
        <time>2022-02-25T17:11:42.967Z</time>
      </trkpt>
      <trkpt lat="38.75724" lon="37.04716">
        <ele>1629.214525</ele>
        <time>2022-02-25T17:12:12.616Z</time>
      </trkpt>
      <trkpt lat="38.75204" lon="37.03578">
        <ele>1634.582346</ele>
        <time>2022-02-25T17:17:12.341Z</time>
      </trkpt>
      <trkpt lat="38.75188" lon="37.03519">
        <ele>1634.903736</ele>
        <time>2022-02-25T17:17:27.078Z</time>
      </trkpt>
      <trkpt lat="38.75069" lon="37.02726">
        <ele>1639.74198</ele>
        <time>2022-02-25T17:20:38.997Z</time>
      </trkpt>
      <trkpt lat="38.75045" lon="37.02489">
        <ele>1640.861131</ele>
        <time>2022-02-25T17:21:33.940Z</time>
      </trkpt>
      <trkpt lat="38.75038" lon="37.02157">
        <ele>1642.772837</ele>
        <time>2022-02-25T17:22:48.821Z</time>
      </trkpt>
      <trkpt lat="38.75048" lon="37.02043">
        <ele>1643.875759</ele>
        <time>2022-02-25T17:23:21.054Z</time>
      </trkpt>
      <trkpt lat="38.75111" lon="37.02075">
        <ele>1645.237438</ele>
        <time>2022-02-25T17:23:46.720Z</time>
      </trkpt>
      <trkpt lat="38.7513" lon="37.0208">
        <ele>1645.642434</ele>
        <time>2022-02-25T17:23:54.241Z</time>
      </trkpt>
      <trkpt lat="38.75162" lon="37.02073">
        <ele>1646.287737</ele>
        <time>2022-02-25T17:24:05.978Z</time>
      </trkpt>
      <trkpt lat="38.7518" lon="37.02062">
        <ele>1646.709147</ele>
        <time>2022-02-25T17:24:13.832Z</time>
      </trkpt>
      <trkpt lat="38.7519" lon="37.02042">
        <ele>1647.090535</ele>
        <time>2022-02-25T17:24:20.797Z</time>
      </trkpt>
      <trkpt lat="38.75212" lon="37.01963">
        <ele>1648.326692</ele>
        <time>2022-02-25T17:24:45.281Z</time>
      </trkpt>
      <trkpt lat="38.7521" lon="37.01895">
        <ele>1649.311718</ele>
        <time>2022-02-25T17:25:04.549Z</time>
      </trkpt>
      <trkpt lat="38.75213" lon="37.01875">
        <ele>1649.611334</ele>
        <time>2022-02-25T17:25:10.194Z</time>
      </trkpt>
      <trkpt lat="38.75233" lon="37.01769">
        <ele>1651.105507</ele>
        <time>2022-02-25T17:25:41.308Z</time>
      </trkpt>
      <trkpt lat="38.75233" lon="37.01744">
        <ele>1651.395137</ele>
        <time>2022-02-25T17:25:48.394Z</time>
      </trkpt>
      <trkpt lat="38.75228" lon="37.01702">
        <ele>1651.88971</ele>
        <time>2022-02-25T17:26:00.604Z</time>
      </trkpt>
      <trkpt lat="38.75223" lon="37.01678">
        <ele>1652.181533</ele>
        <time>2022-02-25T17:26:07.909Z</time>
      </trkpt>
      <trkpt lat="38.75211" lon="37.01646">
        <ele>1652.600294</ele>
        <time>2022-02-25T17:26:17.948Z</time>
      </trkpt>
      <trkpt lat="38.75207" lon="37.01636">
        <ele>1652.740106</ele>
        <time>2022-02-25T17:26:21.135Z</time>
      </trkpt>
      <trkpt lat="38.75203" lon="37.01627">
        <ele>1652.862221</ele>
        <time>2022-02-25T17:26:23.938Z</time>
      </trkpt>
      <trkpt lat="38.75185" lon="37.01578">
        <ele>1653.34981</ele>
        <time>2022-02-25T17:26:37.345Z</time>
      </trkpt>
      <trkpt lat="38.75182" lon="37.0157">
        <ele>1653.315682</ele>
        <time>2022-02-25T17:26:39.390Z</time>
      </trkpt>
      <trkpt lat="38.75179" lon="37.01557">
        <ele>1653.257817</ele>
        <time>2022-02-25T17:26:42.688Z</time>
      </trkpt>
      <trkpt lat="38.75177" lon="37.01551">
        <ele>1653.231917</ele>
        <time>2022-02-25T17:26:43.940Z</time>
      </trkpt>
      <trkpt lat="38.75175" lon="37.0148">
        <ele>1652.93161</ele>
        <time>2022-02-25T17:26:59.042Z</time>
      </trkpt>
      <trkpt lat="38.75158" lon="37.0135">
        <ele>1652.34007</ele>
        <time>2022-02-25T17:27:23.435Z</time>
      </trkpt>
      <trkpt lat="38.75163" lon="37.01251">
        <ele>1651.536555</ele>
        <time>2022-02-25T17:27:41.077Z</time>
      </trkpt>
      <trkpt lat="38.75147" lon="37.01163">
        <ele>1650.807367</ele>
        <time>2022-02-25T17:27:58.164Z</time>
      </trkpt>
      <trkpt lat="38.75132" lon="37.01137">
        <ele>1650.558652</ele>
        <time>2022-02-25T17:28:04.320Z</time>
      </trkpt>
      <trkpt lat="38.75146" lon="37.0104">
        <ele>1651.620363</ele>
        <time>2022-02-25T17:28:26.284Z</time>
      </trkpt>
      <trkpt lat="38.75162" lon="37.00949">
        <ele>1652.626292</ele>
        <time>2022-02-25T17:28:51.454Z</time>
      </trkpt>
      <trkpt lat="38.75192" lon="37.00856">
        <ele>1654.353043</ele>
        <time>2022-02-25T17:29:25.983Z</time>
      </trkpt>
      <trkpt lat="38.75228" lon="37.00786">
        <ele>1656.120912</ele>
        <time>2022-02-25T17:29:53.675Z</time>
      </trkpt>
      <trkpt lat="38.7527" lon="37.00726">
        <ele>1657.815325</ele>
        <time>2022-02-25T17:30:17.510Z</time>
      </trkpt>
      <trkpt lat="38.75307" lon="37.00682">
        <ele>1658.251611</ele>
        <time>2022-02-25T17:30:33.332Z</time>
      </trkpt>
      <trkpt lat="38.75437" lon="37.0052">
        <ele>1659.958025</ele>
        <time>2022-02-25T17:31:25.236Z</time>
      </trkpt>
      <trkpt lat="38.75492" lon="37.00448">
        <ele>1661.066077</ele>
        <time>2022-02-25T17:31:51.930Z</time>
      </trkpt>
      <trkpt lat="38.75545" lon="37.00355">
        <ele>1662.324693</ele>
        <time>2022-02-25T17:32:26.342Z</time>
      </trkpt>
      <trkpt lat="38.75699" lon="37.00039">
        <ele>1665.904064</ele>
        <time>2022-02-25T17:33:58.611Z</time>
      </trkpt>
      <trkpt lat="38.75795" lon="36.99857">
        <ele>1668.021863</ele>
        <time>2022-02-25T17:34:55.347Z</time>
      </trkpt>
      <trkpt lat="38.75829" lon="36.99811">
        <ele>1668.614599</ele>
        <time>2022-02-25T17:35:11.448Z</time>
      </trkpt>
      <trkpt lat="38.76009" lon="36.99634">
        <ele>1670.734766</ele>
        <time>2022-02-25T17:36:22.028Z</time>
      </trkpt>
      <trkpt lat="38.7611" lon="36.99518">
        <ele>1671.784183</ele>
        <time>2022-02-25T17:37:03.354Z</time>
      </trkpt>
      <trkpt lat="38.76167" lon="36.99432">
        <ele>1672.091387</ele>
        <time>2022-02-25T17:37:28.684Z</time>
      </trkpt>
      <trkpt lat="38.76211" lon="36.99348">
        <ele>1672.368321</ele>
        <time>2022-02-25T17:37:50.271Z</time>
      </trkpt>
      <trkpt lat="38.76256" lon="36.99255">
        <ele>1672.403185</ele>
        <time>2022-02-25T17:38:13.028Z</time>
      </trkpt>
      <trkpt lat="38.76289" lon="36.99166">
        <ele>1672.432139</ele>
        <time>2022-02-25T17:38:33.490Z</time>
      </trkpt>
      <trkpt lat="38.76318" lon="36.99058">
        <ele>1672.665358</ele>
        <time>2022-02-25T17:38:57.733Z</time>
      </trkpt>
      <trkpt lat="38.76338" lon="36.98944">
        <ele>1672.958335</ele>
        <time>2022-02-25T17:39:23.557Z</time>
      </trkpt>
      <trkpt lat="38.76349" lon="36.98847">
        <ele>1673.586083</ele>
        <time>2022-02-25T17:39:46.770Z</time>
      </trkpt>
      <trkpt lat="38.76351" lon="36.98654">
        <ele>1675.073098</ele>
        <time>2022-02-25T17:40:35.353Z</time>
      </trkpt>
      <trkpt lat="38.76315" lon="36.98291">
        <ele>1677.895622</ele>
        <time>2022-02-25T17:42:05.997Z</time>
      </trkpt>
      <trkpt lat="38.76315" lon="36.9822">
        <ele>1678.397957</ele>
        <time>2022-02-25T17:42:21.750Z</time>
      </trkpt>
      <trkpt lat="38.76325" lon="36.98134">
        <ele>1679.068474</ele>
        <time>2022-02-25T17:42:41.695Z</time>
      </trkpt>
      <trkpt lat="38.76337" lon="36.98059">
        <ele>1679.661595</ele>
        <time>2022-02-25T17:43:00.347Z</time>
      </trkpt>
      <trkpt lat="38.76358" lon="36.9797">
        <ele>1680.601663</ele>
        <time>2022-02-25T17:43:25.258Z</time>
      </trkpt>
      <trkpt lat="38.76395" lon="36.97876">
        <ele>1682.015693</ele>
        <time>2022-02-25T17:43:56.775Z</time>
      </trkpt>
      <trkpt lat="38.76434" lon="36.978">
        <ele>1683.173002</ele>
        <time>2022-02-25T17:44:20.668Z</time>
      </trkpt>
      <trkpt lat="38.7647" lon="36.97745">
        <ele>1682.89122</ele>
        <time>2022-02-25T17:44:36.027Z</time>
      </trkpt>
      <trkpt lat="38.76481" lon="36.97729">
        <ele>1682.805438</ele>
        <time>2022-02-25T17:44:41.415Z</time>
      </trkpt>
      <trkpt lat="38.76475" lon="36.9772">
        <ele>1682.755174</ele>
        <time>2022-02-25T17:44:43.638Z</time>
      </trkpt>
      <trkpt lat="38.76462" lon="36.97736">
        <ele>1682.665918</ele>
        <time>2022-02-25T17:44:47.927Z</time>
      </trkpt>
      <trkpt lat="38.76426" lon="36.97792">
        <ele>1682.379142</ele>
        <time>2022-02-25T17:45:00.691Z</time>
      </trkpt>
      <trkpt lat="38.76387" lon="36.9787">
        <ele>1681.414295</ele>
        <time>2022-02-25T17:45:15.920Z</time>
      </trkpt>
      <trkpt lat="38.76349" lon="36.97965">
        <ele>1680.053555</ele>
        <time>2022-02-25T17:45:33.520Z</time>
      </trkpt>
      <trkpt lat="38.76327" lon="36.98055">
        <ele>1679.184092</ele>
        <time>2022-02-25T17:45:50.433Z</time>
      </trkpt>
      <trkpt lat="38.76316" lon="36.98132">
        <ele>1678.883614</ele>
        <time>2022-02-25T17:46:05.701Z</time>
      </trkpt>
      <trkpt lat="38.76305" lon="36.98219">
        <ele>1678.543344</ele>
        <time>2022-02-25T17:46:23.720Z</time>
      </trkpt>
      <trkpt lat="38.76305" lon="36.98292">
        <ele>1678.183009</ele>
        <time>2022-02-25T17:46:38.558Z</time>
      </trkpt>
      <trkpt lat="38.76341" lon="36.98655">
        <ele>1675.727921</ele>
        <time>2022-02-25T17:47:45.207Z</time>
      </trkpt>
      <trkpt lat="38.76339" lon="36.98845">
        <ele>1674.276848</ele>
        <time>2022-02-25T17:48:18.977Z</time>
      </trkpt>
      <trkpt lat="38.76328" lon="36.98942">
        <ele>1673.56221</ele>
        <time>2022-02-25T17:48:36.967Z</time>
      </trkpt>
      <trkpt lat="38.76308" lon="36.99055">
        <ele>1673.027942</ele>
        <time>2022-02-25T17:48:58.993Z</time>
      </trkpt>
      <trkpt lat="38.7628" lon="36.99161">
        <ele>1672.506501</ele>
        <time>2022-02-25T17:49:20.670Z</time>
      </trkpt>
      <trkpt lat="38.76247" lon="36.99249">
        <ele>1672.066371</ele>
        <time>2022-02-25T17:49:39.145Z</time>
      </trkpt>
      <trkpt lat="38.76159" lon="36.99424">
        <ele>1671.005762</ele>
        <time>2022-02-25T17:50:18.707Z</time>
      </trkpt>
      <trkpt lat="38.76103" lon="36.99509">
        <ele>1670.35041</ele>
        <time>2022-02-25T17:50:39.204Z</time>
      </trkpt>
      <trkpt lat="38.76003" lon="36.99624">
        <ele>1669.319576</ele>
        <time>2022-02-25T17:51:10.675Z</time>
      </trkpt>
      <trkpt lat="38.75822" lon="36.99802">
        <ele>1667.734101</ele>
        <time>2022-02-25T17:52:05.770Z</time>
      </trkpt>
      <trkpt lat="38.75788" lon="36.99849">
        <ele>1667.356254</ele>
        <time>2022-02-25T17:52:17.874Z</time>
      </trkpt>
      <trkpt lat="38.7569" lon="37.00032">
        <ele>1665.833166</ele>
        <time>2022-02-25T17:52:58.456Z</time>
      </trkpt>
      <trkpt lat="38.75537" lon="37.00348">
        <ele>1662.738963</ele>
        <time>2022-02-25T17:54:04.990Z</time>
      </trkpt>
      <trkpt lat="38.75484" lon="37.0044">
        <ele>1661.807193</ele>
        <time>2022-02-25T17:54:25.606Z</time>
      </trkpt>
      <trkpt lat="38.75297" lon="37.00674">
        <ele>1658.432612</ele>
        <time>2022-02-25T17:55:26.036Z</time>
      </trkpt>
      <trkpt lat="38.75257" lon="37.0072">
        <ele>1657.535343</ele>
        <time>2022-02-25T17:55:37.099Z</time>
      </trkpt>
      <trkpt lat="38.75214" lon="37.00788">
        <ele>1655.567725</ele>
        <time>2022-02-25T17:55:50.416Z</time>
      </trkpt>
      <trkpt lat="38.75183" lon="37.00856">
        <ele>1653.648209</ele>
        <time>2022-02-25T17:56:02.388Z</time>
      </trkpt>
      <trkpt lat="38.75156" lon="37.00934">
        <ele>1651.666572</ele>
        <time>2022-02-25T17:56:15.164Z</time>
      </trkpt>
      <trkpt lat="38.75127" lon="37.0111">
        <ele>1648.805962</ele>
        <time>2022-02-25T17:56:44.554Z</time>
      </trkpt>
      <trkpt lat="38.75081" lon="37.01586">
        <ele>1644.516585</ele>
        <time>2022-02-25T17:58:10.687Z</time>
      </trkpt>
      <trkpt lat="38.75039" lon="37.02045">
        <ele>1642.052726</ele>
        <time>2022-02-25T17:59:37.577Z</time>
      </trkpt>
      <trkpt lat="38.75032" lon="37.02176">
        <ele>1641.52369</ele>
        <time>2022-02-25T18:00:02.779Z</time>
      </trkpt>
      <trkpt lat="38.75028" lon="37.02341">
        <ele>1640.898655</ele>
        <time>2022-02-25T18:00:34.549Z</time>
      </trkpt>
      <trkpt lat="38.75034" lon="37.02491">
        <ele>1640.331025</ele>
        <time>2022-02-25T18:01:03.713Z</time>
      </trkpt>
      <trkpt lat="38.75057" lon="37.02728">
        <ele>1639.146791</ele>
        <time>2022-02-25T18:01:49.017Z</time>
      </trkpt>
      <trkpt lat="38.75177" lon="37.03523">
        <ele>1634.251603</ele>
        <time>2022-02-25T18:04:18.478Z</time>
      </trkpt>
      <trkpt lat="38.75194" lon="37.03584">
        <ele>1633.950035</ele>
        <time>2022-02-25T18:04:30.797Z</time>
      </trkpt>
      <trkpt lat="38.75653" lon="37.0459">
        <ele>1630.378891</ele>
        <time>2022-02-25T18:08:19.660Z</time>
      </trkpt>
      <trkpt lat="38.75714" lon="37.04723">
        <ele>1629.565249</ele>
        <time>2022-02-25T18:08:47.867Z</time>
      </trkpt>
      <trkpt lat="38.7576" lon="37.04839">
        <ele>1628.762752</ele>
        <time>2022-02-25T18:09:11.768Z</time>
      </trkpt>
      <trkpt lat="38.7588" lon="37.0525">
        <ele>1626.938467</ele>
        <time>2022-02-25T18:10:35.691Z</time>
      </trkpt>
      <trkpt lat="38.75944" lon="37.05767">
        <ele>1626.292799</ele>
        <time>2022-02-25T18:12:22.142Z</time>
      </trkpt>
      <trkpt lat="38.75961" lon="37.06294">
        <ele>1625.948043</ele>
        <time>2022-02-25T18:14:09.155Z</time>
      </trkpt>
      <trkpt lat="38.75972" lon="37.06297">
        <ele>1625.969367</ele>
        <time>2022-02-25T18:14:12.849Z</time>
      </trkpt>
      <trkpt lat="38.75955" lon="37.05766">
        <ele>1626.739201</ele>
        <time>2022-02-25T18:16:08.736Z</time>
      </trkpt>
      <trkpt lat="38.75891" lon="37.05246">
        <ele>1627.205139</ele>
        <time>2022-02-25T18:17:59.395Z</time>
      </trkpt>
      <trkpt lat="38.75771" lon="37.04833">
        <ele>1628.705422</ele>
        <time>2022-02-25T18:19:39.020Z</time>
      </trkpt>
      <trkpt lat="38.75724" lon="37.04716">
        <ele>1629.214583</ele>
        <time>2022-02-25T18:20:08.670Z</time>
      </trkpt>
      <trkpt lat="38.75204" lon="37.03578">
        <ele>1634.577766</ele>
        <time>2022-02-25T18:25:08.395Z</time>
      </trkpt>
      <trkpt lat="38.75188" lon="37.03519">
        <ele>1634.904664</ele>
        <time>2022-02-25T18:25:23.132Z</time>
      </trkpt>
      <trkpt lat="38.75069" lon="37.02726">
        <ele>1639.748696</ele>
        <time>2022-02-25T18:28:35.050Z</time>
      </trkpt>
      <trkpt lat="38.75045" lon="37.02489">
        <ele>1640.864952</ele>
        <time>2022-02-25T18:29:29.994Z</time>
      </trkpt>
      <trkpt lat="38.75038" lon="37.02157">
        <ele>1642.781553</ele>
        <time>2022-02-25T18:30:44.875Z</time>
      </trkpt>
      <trkpt lat="38.75048" lon="37.02043">
        <ele>1643.872216</ele>
        <time>2022-02-25T18:31:17.108Z</time>
      </trkpt>
      <trkpt lat="38.75111" lon="37.02075">
        <ele>1645.23305</ele>
        <time>2022-02-25T18:31:42.774Z</time>
      </trkpt>
      <trkpt lat="38.7513" lon="37.0208">
        <ele>1645.637795</ele>
        <time>2022-02-25T18:31:50.295Z</time>
      </trkpt>
      <trkpt lat="38.75162" lon="37.02073">
        <ele>1646.282698</ele>
        <time>2022-02-25T18:32:02.032Z</time>
      </trkpt>
      <trkpt lat="38.7518" lon="37.02062">
        <ele>1646.703847</ele>
        <time>2022-02-25T18:32:09.886Z</time>
      </trkpt>
      <trkpt lat="38.7519" lon="37.02042">
        <ele>1647.084998</ele>
        <time>2022-02-25T18:32:16.851Z</time>
      </trkpt>
      <trkpt lat="38.75212" lon="37.01963">
        <ele>1648.331938</ele>
        <time>2022-02-25T18:32:41.335Z</time>
      </trkpt>
      <trkpt lat="38.7521" lon="37.01895">
        <ele>1649.314203</ele>
        <time>2022-02-25T18:33:00.603Z</time>
      </trkpt>
      <trkpt lat="38.75213" lon="37.01875">
        <ele>1649.612979</ele>
        <time>2022-02-25T18:33:06.248Z</time>
      </trkpt>
      <trkpt lat="38.75233" lon="37.01769">
        <ele>1651.122469</ele>
        <time>2022-02-25T18:33:37.362Z</time>
      </trkpt>
      <trkpt lat="38.75233" lon="37.01744">
        <ele>1651.40122</ele>
        <time>2022-02-25T18:33:44.448Z</time>
      </trkpt>
      <trkpt lat="38.75228" lon="37.01702">
        <ele>1651.877216</ele>
        <time>2022-02-25T18:33:56.658Z</time>
      </trkpt>
      <trkpt lat="38.75223" lon="37.01678">
        <ele>1652.158078</ele>
        <time>2022-02-25T18:34:03.963Z</time>
      </trkpt>
      <trkpt lat="38.75211" lon="37.01646">
        <ele>1652.56111</ele>
        <time>2022-02-25T18:34:14.002Z</time>
      </trkpt>
      <trkpt lat="38.75207" lon="37.01636">
        <ele>1652.695671</ele>
        <time>2022-02-25T18:34:17.189Z</time>
      </trkpt>
      <trkpt lat="38.75203" lon="37.01627">
        <ele>1652.813198</ele>
        <time>2022-02-25T18:34:19.992Z</time>
      </trkpt>
      <trkpt lat="38.75185" lon="37.01578">
        <ele>1653.421901</ele>
        <time>2022-02-25T18:34:33.399Z</time>
      </trkpt>
      <trkpt lat="38.75182" lon="37.0157">
        <ele>1653.405069</ele>
        <time>2022-02-25T18:34:35.444Z</time>
      </trkpt>
      <trkpt lat="38.75179" lon="37.01557">
        <ele>1653.337241</ele>
        <time>2022-02-25T18:34:38.742Z</time>
      </trkpt>
      <trkpt lat="38.75177" lon="37.01551">
        <ele>1653.306881</ele>
        <time>2022-02-25T18:34:39.994Z</time>
      </trkpt>
      <trkpt lat="38.75175" lon="37.0148">
        <ele>1652.954866</ele>
        <time>2022-02-25T18:34:55.096Z</time>
      </trkpt>
      <trkpt lat="38.75158" lon="37.0135">
        <ele>1652.304719</ele>
        <time>2022-02-25T18:35:19.489Z</time>
      </trkpt>
      <trkpt lat="38.75163" lon="37.01251">
        <ele>1651.551768</ele>
        <time>2022-02-25T18:35:37.131Z</time>
      </trkpt>
      <trkpt lat="38.75147" lon="37.01163">
        <ele>1650.866104</ele>
        <time>2022-02-25T18:35:54.218Z</time>
      </trkpt>
      <trkpt lat="38.75132" lon="37.01137">
        <ele>1650.625864</ele>
        <time>2022-02-25T18:36:00.374Z</time>
      </trkpt>
      <trkpt lat="38.75146" lon="37.0104">
        <ele>1651.593916</ele>
        <time>2022-02-25T18:36:22.338Z</time>
      </trkpt>
      <trkpt lat="38.75162" lon="37.00949">
        <ele>1652.698013</ele>
        <time>2022-02-25T18:36:47.508Z</time>
      </trkpt>
      <trkpt lat="38.75192" lon="37.00856">
        <ele>1654.343552</ele>
        <time>2022-02-25T18:37:22.037Z</time>
      </trkpt>
      <trkpt lat="38.75228" lon="37.00786">
        <ele>1656.072461</ele>
        <time>2022-02-25T18:37:49.729Z</time>
      </trkpt>
      <trkpt lat="38.7527" lon="37.00726">
        <ele>1657.729533</ele>
        <time>2022-02-25T18:38:13.564Z</time>
      </trkpt>
      <trkpt lat="38.75307" lon="37.00682">
        <ele>1658.301869</ele>
        <time>2022-02-25T18:38:29.386Z</time>
      </trkpt>
      <trkpt lat="38.75437" lon="37.0052">
        <ele>1659.918707</ele>
        <time>2022-02-25T18:39:21.290Z</time>
      </trkpt>
      <trkpt lat="38.75492" lon="37.00448">
        <ele>1661.068174</ele>
        <time>2022-02-25T18:39:47.984Z</time>
      </trkpt>
      <trkpt lat="38.75545" lon="37.00355">
        <ele>1662.351919</ele>
        <time>2022-02-25T18:40:22.396Z</time>
      </trkpt>
      <trkpt lat="38.75699" lon="37.00039">
        <ele>1665.912048</ele>
        <time>2022-02-25T18:41:54.665Z</time>
      </trkpt>
      <trkpt lat="38.75795" lon="36.99857">
        <ele>1668.012413</ele>
        <time>2022-02-25T18:42:51.401Z</time>
      </trkpt>
      <trkpt lat="38.75829" lon="36.99811">
        <ele>1668.625979</ele>
        <time>2022-02-25T18:43:07.501Z</time>
      </trkpt>
      <trkpt lat="38.76009" lon="36.99634">
        <ele>1670.73625</ele>
        <time>2022-02-25T18:44:18.082Z</time>
      </trkpt>
      <trkpt lat="38.7611" lon="36.99518">
        <ele>1671.807701</ele>
        <time>2022-02-25T18:44:59.408Z</time>
      </trkpt>
      <trkpt lat="38.76167" lon="36.99432">
        <ele>1672.091723</ele>
        <time>2022-02-25T18:45:24.738Z</time>
      </trkpt>
      <trkpt lat="38.76211" lon="36.99348">
        <ele>1672.34776</ele>
        <time>2022-02-25T18:45:46.325Z</time>
      </trkpt>
      <trkpt lat="38.76256" lon="36.99255">
        <ele>1672.406864</ele>
        <time>2022-02-25T18:46:09.082Z</time>
      </trkpt>
      <trkpt lat="38.76289" lon="36.99166">
        <ele>1672.436812</ele>
        <time>2022-02-25T18:46:29.544Z</time>
      </trkpt>
      <trkpt lat="38.76318" lon="36.99058">
        <ele>1672.663589</ele>
        <time>2022-02-25T18:46:53.786Z</time>
      </trkpt>
      <trkpt lat="38.76338" lon="36.98944">
        <ele>1672.980764</ele>
        <time>2022-02-25T18:47:19.611Z</time>
      </trkpt>
      <trkpt lat="38.76349" lon="36.98847">
        <ele>1673.571848</ele>
        <time>2022-02-25T18:47:42.824Z</time>
      </trkpt>
      <trkpt lat="38.76351" lon="36.98654">
        <ele>1675.075429</ele>
        <time>2022-02-25T18:48:31.407Z</time>
      </trkpt>
      <trkpt lat="38.76315" lon="36.98291">
        <ele>1677.885669</ele>
        <time>2022-02-25T18:50:02.051Z</time>
      </trkpt>
      <trkpt lat="38.76315" lon="36.9822">
        <ele>1678.371939</ele>
        <time>2022-02-25T18:50:17.804Z</time>
      </trkpt>
      <trkpt lat="38.76325" lon="36.98134">
        <ele>1679.07671</ele>
        <time>2022-02-25T18:50:37.749Z</time>
      </trkpt>
      <trkpt lat="38.76337" lon="36.98059">
        <ele>1679.700132</ele>
        <time>2022-02-25T18:50:56.401Z</time>
      </trkpt>
      <trkpt lat="38.76358" lon="36.9797">
        <ele>1680.733458</ele>
        <time>2022-02-25T18:51:21.312Z</time>
      </trkpt>
      <trkpt lat="38.76395" lon="36.97876">
        <ele>1682.625246</ele>
        <time>2022-02-25T18:51:52.829Z</time>
      </trkpt>
      <trkpt lat="38.76434" lon="36.978">
        <ele>1684.281824</ele>
        <time>2022-02-25T18:52:20.815Z</time>
      </trkpt>
      <trkpt lat="38.7647" lon="36.97745">
        <ele>1685.680822</ele>
        <time>2022-02-25T18:52:41.505Z</time>
      </trkpt>
      <trkpt lat="38.76481" lon="36.97729">
        <ele>1686.109848</ele>
        <time>2022-02-25T18:52:48.526Z</time>
      </trkpt>
      <trkpt lat="38.76523" lon="36.97675">
        <ele>1687.602928</ele>
        <time>2022-02-25T18:53:10.827Z</time>
      </trkpt>
      <trkpt lat="38.76561" lon="36.9763">
        <ele>1688.92225</ele>
        <time>2022-02-25T18:53:31.517Z</time>
      </trkpt>
      <trkpt lat="38.76674" lon="36.97549">
        <ele>1692.549779</ele>
        <time>2022-02-25T18:54:24.167Z</time>
      </trkpt>
      <trkpt lat="38.76832" lon="36.97472">
        <ele>1696.367207</ele>
        <time>2022-02-25T18:55:31.170Z</time>
      </trkpt>
      <trkpt lat="38.76919" lon="36.97418">
        <ele>1697.771559</ele>
        <time>2022-02-25T18:56:00.773Z</time>
      </trkpt>
      <trkpt lat="38.77022" lon="36.97321">
        <ele>1698.347822</ele>
        <time>2022-02-25T18:56:35.761Z</time>
      </trkpt>
      <trkpt lat="38.77059" lon="36.97275">
        <ele>1698.862745</ele>
        <time>2022-02-25T18:56:51.189Z</time>
      </trkpt>
      <trkpt lat="38.77108" lon="36.97198">
        <ele>1699.87268</ele>
        <time>2022-02-25T18:57:16.798Z</time>
      </trkpt>
      <trkpt lat="38.77275" lon="36.96921">
        <ele>1704.329159</ele>
        <time>2022-02-25T18:58:53.720Z</time>
      </trkpt>
      <trkpt lat="38.77411" lon="36.96787">
        <ele>1706.766276</ele>
        <time>2022-02-25T18:59:50.035Z</time>
      </trkpt>
      <trkpt lat="38.77473" lon="36.9672">
        <ele>1708.060284</ele>
        <time>2022-02-25T19:00:16.648Z</time>
      </trkpt>
      <trkpt lat="38.77683" lon="36.96356">
        <ele>1714.591847</ele>
        <time>2022-02-25T19:02:23.369Z</time>
      </trkpt>
      <trkpt lat="38.7774" lon="36.96274">
        <ele>1716.230774</ele>
        <time>2022-02-25T19:02:54.283Z</time>
      </trkpt>
      <trkpt lat="38.77778" lon="36.96232">
        <ele>1717.243341</ele>
        <time>2022-02-25T19:03:12.317Z</time>
      </trkpt>
      <trkpt lat="38.77966" lon="36.96064">
        <ele>1721.946144</ele>
        <time>2022-02-25T19:04:35.821Z</time>
      </trkpt>
      <trkpt lat="38.78064" lon="36.95969">
        <ele>1724.422971</ele>
        <time>2022-02-25T19:05:21.752Z</time>
      </trkpt>
      <trkpt lat="38.78236" lon="36.95788">
        <ele>1728.074825</ele>
        <time>2022-02-25T19:06:39.377Z</time>
      </trkpt>
      <trkpt lat="38.78389" lon="36.95659">
        <ele>1729.428855</ele>
        <time>2022-02-25T19:07:36.970Z</time>
      </trkpt>
      <trkpt lat="38.78485" lon="36.95594">
        <ele>1729.322956</ele>
        <time>2022-02-25T19:08:03.215Z</time>
      </trkpt>
      <trkpt lat="38.78602" lon="36.95538">
        <ele>1727.61285</ele>
        <time>2022-02-25T19:08:30.468Z</time>
      </trkpt>
      <trkpt lat="38.78799" lon="36.95419">
        <ele>1724.943024</ele>
        <time>2022-02-25T19:09:19.117Z</time>
      </trkpt>
      <trkpt lat="38.78936" lon="36.95316">
        <ele>1725.058648</ele>
        <time>2022-02-25T19:10:02.205Z</time>
      </trkpt>
      <trkpt lat="38.79035" lon="36.95225">
        <ele>1726.196374</ele>
        <time>2022-02-25T19:10:40.652Z</time>
      </trkpt>
      <trkpt lat="38.79148" lon="36.9511">
        <ele>1728.022228</ele>
        <time>2022-02-25T19:11:28.724Z</time>
      </trkpt>
      <trkpt lat="38.79234" lon="36.95003">
        <ele>1729.729965</ele>
        <time>2022-02-25T19:12:08.986Z</time>
      </trkpt>
      <trkpt lat="38.79286" lon="36.94928">
        <ele>1731.057744</ele>
        <time>2022-02-25T19:12:35.651Z</time>
      </trkpt>
      <trkpt lat="38.79379" lon="36.94743">
        <ele>1734.092104</ele>
        <time>2022-02-25T19:13:36.918Z</time>
      </trkpt>
      <trkpt lat="38.79469" lon="36.94489">
        <ele>1738.146677</ele>
        <time>2022-02-25T19:14:54.199Z</time>
      </trkpt>
      <trkpt lat="38.79533" lon="36.94273">
        <ele>1742.09186</ele>
        <time>2022-02-25T19:15:59.138Z</time>
      </trkpt>
      <trkpt lat="38.79554" lon="36.9418">
        <ele>1743.954863</ele>
        <time>2022-02-25T19:16:29.047Z</time>
      </trkpt>
      <trkpt lat="38.79601" lon="36.93928">
        <ele>1751.62204</ele>
        <time>2022-02-25T19:18:00.281Z</time>
      </trkpt>
      <trkpt lat="38.79629" lon="36.93861">
        <ele>1754.14348</ele>
        <time>2022-02-25T19:18:28.717Z</time>
      </trkpt>
      <trkpt lat="38.79662" lon="36.93807">
        <ele>1756.431258</ele>
        <time>2022-02-25T19:18:54.629Z</time>
      </trkpt>
      <trkpt lat="38.79763" lon="36.93699">
        <ele>1761.127455</ele>
        <time>2022-02-25T19:19:56.103Z</time>
      </trkpt>
      <trkpt lat="38.79854" lon="36.93646">
        <ele>1764.018682</ele>
        <time>2022-02-25T19:20:35.976Z</time>
      </trkpt>
      <trkpt lat="38.79994" lon="36.93595">
        <ele>1763.949436</ele>
        <time>2022-02-25T19:21:15.786Z</time>
      </trkpt>
      <trkpt lat="38.80178" lon="36.93532">
        <ele>1759.827858</ele>
        <time>2022-02-25T19:21:53.965Z</time>
      </trkpt>
      <trkpt lat="38.80224" lon="36.93516">
        <ele>1759.039779</ele>
        <time>2022-02-25T19:22:03.541Z</time>
      </trkpt>
      <trkpt lat="38.80345" lon="36.93476">
        <ele>1757.386776</ele>
        <time>2022-02-25T19:22:31.172Z</time>
      </trkpt>
      <trkpt lat="38.80496" lon="36.93416">
        <ele>1758.53542</ele>
        <time>2022-02-25T19:23:20.540Z</time>
      </trkpt>
      <trkpt lat="38.80596" lon="36.93363">
        <ele>1760.011608</ele>
        <time>2022-02-25T19:23:59.347Z</time>
      </trkpt>
      <trkpt lat="38.80931" lon="36.93114">
        <ele>1765.909973</ele>
        <time>2022-02-25T19:26:10.372Z</time>
      </trkpt>
      <trkpt lat="38.81051" lon="36.93003">
        <ele>1768.258308</ele>
        <time>2022-02-25T19:26:59.308Z</time>
      </trkpt>
      <trkpt lat="38.81138" lon="36.92865">
        <ele>1770.840572</ele>
        <time>2022-02-25T19:27:50.153Z</time>
      </trkpt>
      <trkpt lat="38.81178" lon="36.92642">
        <ele>1774.357158</ele>
        <time>2022-02-25T19:28:57.815Z</time>
      </trkpt>
      <trkpt lat="38.81188" lon="36.92102">
        <ele>1775.508289</ele>
        <time>2022-02-25T19:30:53.274Z</time>
      </trkpt>
      <trkpt lat="38.81188" lon="36.91665">
        <ele>1775.018391</ele>
        <time>2022-02-25T19:32:20.500Z</time>
      </trkpt>
      <trkpt lat="38.81179" lon="36.91487">
        <ele>1775.271014</ele>
        <time>2022-02-25T19:32:59.033Z</time>
      </trkpt>
      <trkpt lat="38.81156" lon="36.9136">
        <ele>1776.089144</ele>
        <time>2022-02-25T19:33:28.948Z</time>
      </trkpt>
      <trkpt lat="38.81109" lon="36.91223">
        <ele>1777.952395</ele>
        <time>2022-02-25T19:34:07.713Z</time>
      </trkpt>
      <trkpt lat="38.81044" lon="36.91106">
        <ele>1780.645592</ele>
        <time>2022-02-25T19:34:51.769Z</time>
      </trkpt>
      <trkpt lat="38.80945" lon="36.90959">
        <ele>1786.273256</ele>
        <time>2022-02-25T19:36:00.500Z</time>
      </trkpt>
      <trkpt lat="38.80908" lon="36.90893">
        <ele>1788.74907</ele>
        <time>2022-02-25T19:36:30.114Z</time>
      </trkpt>
      <trkpt lat="38.80885" lon="36.90839">
        <ele>1790.683664</ele>
        <time>2022-02-25T19:36:52.108Z</time>
      </trkpt>
      <trkpt lat="38.80869" lon="36.90785">
        <ele>1792.526377</ele>
        <time>2022-02-25T19:37:12.979Z</time>
      </trkpt>
      <trkpt lat="38.80855" lon="36.90705">
        <ele>1795.120724</ele>
        <time>2022-02-25T19:37:42.142Z</time>
      </trkpt>
      <trkpt lat="38.80851" lon="36.90646">
        <ele>1797.249545</ele>
        <time>2022-02-25T19:38:03.595Z</time>
      </trkpt>
      <trkpt lat="38.80855" lon="36.90585">
        <ele>1799.396838</ele>
        <time>2022-02-25T19:38:25.873Z</time>
      </trkpt>
      <trkpt lat="38.80864" lon="36.90525">
        <ele>1801.577126</ele>
        <time>2022-02-25T19:38:49.410Z</time>
      </trkpt>
      <trkpt lat="38.80881" lon="36.90463">
        <ele>1804.15349</ele>
        <time>2022-02-25T19:39:15.990Z</time>
      </trkpt>
      <trkpt lat="38.80898" lon="36.90416">
        <ele>1806.604846</ele>
        <time>2022-02-25T19:39:37.840Z</time>
      </trkpt>
      <trkpt lat="38.80931" lon="36.90346">
        <ele>1810.443935</ele>
        <time>2022-02-25T19:40:13.460Z</time>
      </trkpt>
      <trkpt lat="38.81024" lon="36.90192">
        <ele>1820.073808</ele>
        <time>2022-02-25T19:41:42.301Z</time>
      </trkpt>
      <trkpt lat="38.81145" lon="36.89999">
        <ele>1832.623025</ele>
        <time>2022-02-25T19:43:34.348Z</time>
      </trkpt>
      <trkpt lat="38.81212" lon="36.89918">
        <ele>1838.574854</ele>
        <time>2022-02-25T19:44:26.776Z</time>
      </trkpt>
      <trkpt lat="38.81265" lon="36.89861">
        <ele>1843.143444</ele>
        <time>2022-02-25T19:45:06.800Z</time>
      </trkpt>
      <trkpt lat="38.81311" lon="36.89821">
        <ele>1846.811035</ele>
        <time>2022-02-25T19:45:39.394Z</time>
      </trkpt>
      <trkpt lat="38.81378" lon="36.89788">
        <ele>1851.619413</ele>
        <time>2022-02-25T19:46:22.301Z</time>
      </trkpt>
      <trkpt lat="38.81499" lon="36.89758">
        <ele>1860.014535</ele>
        <time>2022-02-25T19:47:36.224Z</time>
      </trkpt>
      <trkpt lat="38.81574" lon="36.89763">
        <ele>1864.712901</ele>
        <time>2022-02-25T19:48:19.622Z</time>
      </trkpt>
      <trkpt lat="38.81677" lon="36.89795">
        <ele>1871.095933</ele>
        <time>2022-02-25T19:49:17.921Z</time>
      </trkpt>
      <trkpt lat="38.8174" lon="36.89827">
        <ele>1874.954184</ele>
        <time>2022-02-25T19:49:53.385Z</time>
      </trkpt>
      <trkpt lat="38.81871" lon="36.89927">
        <ele>1883.738821</ele>
        <time>2022-02-25T19:51:14.820Z</time>
      </trkpt>
      <trkpt lat="38.81933" lon="36.89964">
        <ele>1888.445117</ele>
        <time>2022-02-25T19:51:53.788Z</time>
      </trkpt>
      <trkpt lat="38.82018" lon="36.90006">
        <ele>1894.755126</ele>
        <time>2022-02-25T19:52:50.963Z</time>
      </trkpt>
      <trkpt lat="38.8208" lon="36.90029">
        <ele>1900.211043</ele>
        <time>2022-02-25T19:53:34.152Z</time>
      </trkpt>
      <trkpt lat="38.82263" lon="36.90071">
        <ele>1914.887343</ele>
        <time>2022-02-25T19:55:42.946Z</time>
      </trkpt>
      <trkpt lat="38.82323" lon="36.90076">
        <ele>1918.862215</ele>
        <time>2022-02-25T19:56:17.784Z</time>
      </trkpt>
      <trkpt lat="38.82369" lon="36.90075">
        <ele>1921.932285</ele>
        <time>2022-02-25T19:56:41.263Z</time>
      </trkpt>
      <trkpt lat="38.82452" lon="36.90054">
        <ele>1923.043789</ele>
        <time>2022-02-25T19:57:15.657Z</time>
      </trkpt>
      <trkpt lat="38.82553" lon="36.89996">
        <ele>1923.480187</ele>
        <time>2022-02-25T19:57:42.417Z</time>
      </trkpt>
      <trkpt lat="38.82596" lon="36.8996">
        <ele>1921.103216</ele>
        <time>2022-02-25T19:57:52.298Z</time>
      </trkpt>
      <trkpt lat="38.82637" lon="36.89911">
        <ele>1918.481565</ele>
        <time>2022-02-25T19:58:02.570Z</time>
      </trkpt>
      <trkpt lat="38.8266" lon="36.8988">
        <ele>1916.930513</ele>
        <time>2022-02-25T19:58:08.444Z</time>
      </trkpt>
      <trkpt lat="38.82742" lon="36.8973">
        <ele>1906.742909</ele>
        <time>2022-02-25T19:58:32.577Z</time>
      </trkpt>
      <trkpt lat="38.82787" lon="36.89662">
        <ele>1901.318055</ele>
        <time>2022-02-25T19:58:44.231Z</time>
      </trkpt>
      <trkpt lat="38.82825" lon="36.89615">
        <ele>1897.427535</ele>
        <time>2022-02-25T19:58:53.182Z</time>
      </trkpt>
      <trkpt lat="38.8287" lon="36.89574">
        <ele>1893.44195</ele>
        <time>2022-02-25T19:59:02.437Z</time>
      </trkpt>
      <trkpt lat="38.8296" lon="36.89525">
        <ele>1887.110397</ele>
        <time>2022-02-25T19:59:19.470Z</time>
      </trkpt>
      <trkpt lat="38.83134" lon="36.89482">
        <ele>1879.873256</ele>
        <time>2022-02-25T19:59:52.696Z</time>
      </trkpt>
      <trkpt lat="38.83171" lon="36.89466">
        <ele>1879.102189</ele>
        <time>2022-02-25T20:00:01.010Z</time>
      </trkpt>
      <trkpt lat="38.83239" lon="36.89421">
        <ele>1877.602905</ele>
        <time>2022-02-25T20:00:18.048Z</time>
      </trkpt>
      <trkpt lat="38.8327" lon="36.8939">
        <ele>1876.843936</ele>
        <time>2022-02-25T20:00:27.099Z</time>
      </trkpt>
      <trkpt lat="38.83302" lon="36.89348">
        <ele>1876.165148</ele>
        <time>2022-02-25T20:00:37.648Z</time>
      </trkpt>
      <trkpt lat="38.83335" lon="36.89293">
        <ele>1875.344528</ele>
        <time>2022-02-25T20:00:50.039Z</time>
      </trkpt>
      <trkpt lat="38.8343" lon="36.89077">
        <ele>1871.785325</ele>
        <time>2022-02-25T20:01:30.497Z</time>
      </trkpt>
      <trkpt lat="38.83476" lon="36.8899">
        <ele>1870.131333</ele>
        <time>2022-02-25T20:01:47.717Z</time>
      </trkpt>
      <trkpt lat="38.83498" lon="36.88957">
        <ele>1869.559039</ele>
        <time>2022-02-25T20:01:54.856Z</time>
      </trkpt>
      <trkpt lat="38.83529" lon="36.88921">
        <ele>1868.846066</ele>
        <time>2022-02-25T20:02:03.816Z</time>
      </trkpt>
      <trkpt lat="38.83608" lon="36.88855">
        <ele>1867.263585</ele>
        <time>2022-02-25T20:02:24.629Z</time>
      </trkpt>
      <trkpt lat="38.83645" lon="36.88832">
        <ele>1866.777885</ele>
        <time>2022-02-25T20:02:33.781Z</time>
      </trkpt>
      <trkpt lat="38.83696" lon="36.88811">
        <ele>1866.136584</ele>
        <time>2022-02-25T20:02:45.871Z</time>
      </trkpt>
      <trkpt lat="38.83777" lon="36.88792">
        <ele>1865.188326</ele>
        <time>2022-02-25T20:03:04.673Z</time>
      </trkpt>
      <trkpt lat="38.83861" lon="36.88796">
        <ele>1865.037849</ele>
        <time>2022-02-25T20:03:24.438Z</time>
      </trkpt>
      <trkpt lat="38.84977" lon="36.88973">
        <ele>1863.042805</ele>
        <time>2022-02-25T20:08:18.965Z</time>
      </trkpt>
      <trkpt lat="38.85045" lon="36.88975">
        <ele>1862.711931</ele>
        <time>2022-02-25T20:08:36.464Z</time>
      </trkpt>
      <trkpt lat="38.85111" lon="36.88965">
        <ele>1861.898244</ele>
        <time>2022-02-25T20:08:52.388Z</time>
      </trkpt>
      <trkpt lat="38.85198" lon="36.88934">
        <ele>1860.7871</ele>
        <time>2022-02-25T20:09:12.099Z</time>
      </trkpt>
      <trkpt lat="38.85287" lon="36.88882">
        <ele>1857.737218</ele>
        <time>2022-02-25T20:09:31.625Z</time>
      </trkpt>
      <trkpt lat="38.85344" lon="36.88833">
        <ele>1855.60341</ele>
        <time>2022-02-25T20:09:44.616Z</time>
      </trkpt>
      <trkpt lat="38.85395" lon="36.88777">
        <ele>1853.371451</ele>
        <time>2022-02-25T20:09:57.354Z</time>
      </trkpt>
      <trkpt lat="38.85449" lon="36.88701">
        <ele>1850.656348</ele>
        <time>2022-02-25T20:10:12.728Z</time>
      </trkpt>
      <trkpt lat="38.85591" lon="36.88412">
        <ele>1843.433175</ele>
        <time>2022-02-25T20:11:06.125Z</time>
      </trkpt>
      <trkpt lat="38.85655" lon="36.8829">
        <ele>1841.374865</ele>
        <time>2022-02-25T20:11:30.836Z</time>
      </trkpt>
      <trkpt lat="38.85752" lon="36.88145">
        <ele>1840.243079</ele>
        <time>2022-02-25T20:12:06.284Z</time>
      </trkpt>
      <trkpt lat="38.85871" lon="36.88016">
        <ele>1840.510009</ele>
        <time>2022-02-25T20:12:49.271Z</time>
      </trkpt>
      <trkpt lat="38.86066" lon="36.87834">
        <ele>1842.673536</ele>
        <time>2022-02-25T20:14:05.978Z</time>
      </trkpt>
      <trkpt lat="38.86194" lon="36.87708">
        <ele>1844.588997</ele>
        <time>2022-02-25T20:14:56.793Z</time>
      </trkpt>
      <trkpt lat="38.86238" lon="36.87658">
        <ele>1845.5202</ele>
        <time>2022-02-25T20:15:16.558Z</time>
      </trkpt>
      <trkpt lat="38.86354" lon="36.87501">
        <ele>1849.467892</ele>
        <time>2022-02-25T20:16:21.121Z</time>
      </trkpt>
      <trkpt lat="38.864" lon="36.87417">
        <ele>1851.591612</ele>
        <time>2022-02-25T20:16:55.128Z</time>
      </trkpt>
      <trkpt lat="38.86442" lon="36.87318">
        <ele>1853.918213</ele>
        <time>2022-02-25T20:17:29.407Z</time>
      </trkpt>
      <trkpt lat="38.86461" lon="36.87267">
        <ele>1854.46817</ele>
        <time>2022-02-25T20:17:45.056Z</time>
      </trkpt>
      <trkpt lat="38.86487" lon="36.87194">
        <ele>1855.164242</ele>
        <time>2022-02-25T20:18:05.288Z</time>
      </trkpt>
      <trkpt lat="38.86711" lon="36.86372">
        <ele>1860.712314</ele>
        <time>2022-02-25T20:21:20.053Z</time>
      </trkpt>
      <trkpt lat="38.86778" lon="36.8617">
        <ele>1868.30524</ele>
        <time>2022-02-25T20:22:50.613Z</time>
      </trkpt>
      <trkpt lat="38.86826" lon="36.86067">
        <ele>1873.984391</ele>
        <time>2022-02-25T20:23:45.991Z</time>
      </trkpt>
      <trkpt lat="38.86857" lon="36.86019">
        <ele>1876.643345</ele>
        <time>2022-02-25T20:24:12.806Z</time>
      </trkpt>
      <trkpt lat="38.86918" lon="36.85941">
        <ele>1880.03759</ele>
        <time>2022-02-25T20:24:55.821Z</time>
      </trkpt>
      <trkpt lat="38.87013" lon="36.85838">
        <ele>1883.58456</ele>
        <time>2022-02-25T20:25:43.735Z</time>
      </trkpt>
      <trkpt lat="38.87102" lon="36.85759">
        <ele>1884.595441</ele>
        <time>2022-02-25T20:26:15.930Z</time>
      </trkpt>
      <trkpt lat="38.87207" lon="36.8569">
        <ele>1884.435674</ele>
        <time>2022-02-25T20:26:46.040Z</time>
      </trkpt>
      <trkpt lat="38.87318" lon="36.85631">
        <ele>1883.543857</ele>
        <time>2022-02-25T20:27:14.858Z</time>
      </trkpt>
      <trkpt lat="38.87377" lon="36.85593">
        <ele>1882.504235</ele>
        <time>2022-02-25T20:27:29.409Z</time>
      </trkpt>
      <trkpt lat="38.87419" lon="36.85558">
        <ele>1881.702765</ele>
        <time>2022-02-25T20:27:40.216Z</time>
      </trkpt>
      <trkpt lat="38.87446" lon="36.85535">
        <ele>1881.176737</ele>
        <time>2022-02-25T20:27:47.023Z</time>
      </trkpt>
      <trkpt lat="38.87513" lon="36.85462">
        <ele>1878.038372</ele>
        <time>2022-02-25T20:28:04.390Z</time>
      </trkpt>
      <trkpt lat="38.87821" lon="36.85028">
        <ele>1861.098985</ele>
        <time>2022-02-25T20:29:30.941Z</time>
      </trkpt>
      <trkpt lat="38.87892" lon="36.84945">
        <ele>1857.350157</ele>
        <time>2022-02-25T20:29:49.080Z</time>
      </trkpt>
      <trkpt lat="38.87955" lon="36.84895">
        <ele>1854.434486</ele>
        <time>2022-02-25T20:30:03.139Z</time>
      </trkpt>
      <trkpt lat="38.88133" lon="36.848">
        <ele>1846.577801</ele>
        <time>2022-02-25T20:30:39.093Z</time>
      </trkpt>
      <trkpt lat="38.88176" lon="36.84767">
        <ele>1844.714469</ele>
        <time>2022-02-25T20:30:48.661Z</time>
      </trkpt>
      <trkpt lat="38.88218" lon="36.84734">
        <ele>1842.898974</ele>
        <time>2022-02-25T20:30:58.042Z</time>
      </trkpt>
      <trkpt lat="38.88243" lon="36.84708">
        <ele>1841.736495</ele>
        <time>2022-02-25T20:31:04.143Z</time>
      </trkpt>
      <trkpt lat="38.88267" lon="36.84679">
        <ele>1840.536321</ele>
        <time>2022-02-25T20:31:10.533Z</time>
      </trkpt>
      <trkpt lat="38.8832" lon="36.84596">
        <ele>1838.655507</ele>
        <time>2022-02-25T20:31:27.211Z</time>
      </trkpt>
      <trkpt lat="38.88551" lon="36.84231">
        <ele>1833.502104</ele>
        <time>2022-02-25T20:32:48.184Z</time>
      </trkpt>
      <trkpt lat="38.88686" lon="36.84004">
        <ele>1833.796151</ele>
        <time>2022-02-25T20:33:53.072Z</time>
      </trkpt>
      <trkpt lat="38.88734" lon="36.83891">
        <ele>1834.072832</ele>
        <time>2022-02-25T20:34:22.638Z</time>
      </trkpt>
      <trkpt lat="38.88775" lon="36.83765">
        <ele>1834.027822</ele>
        <time>2022-02-25T20:34:50.528Z</time>
      </trkpt>
      <trkpt lat="38.88811" lon="36.83619">
        <ele>1833.013244</ele>
        <time>2022-02-25T20:35:18.884Z</time>
      </trkpt>
      <trkpt lat="38.88822" lon="36.83543">
        <ele>1832.347561</ele>
        <time>2022-02-25T20:35:32.284Z</time>
      </trkpt>
      <trkpt lat="38.88828" lon="36.83503">
        <ele>1831.976003</ele>
        <time>2022-02-25T20:35:39.224Z</time>
      </trkpt>
      <trkpt lat="38.88834" lon="36.83444">
        <ele>1831.165959</ele>
        <time>2022-02-25T20:35:49.287Z</time>
      </trkpt>
      <trkpt lat="38.88835" lon="36.83428">
        <ele>1830.937648</ele>
        <time>2022-02-25T20:35:52.034Z</time>
      </trkpt>
      <trkpt lat="38.88837" lon="36.8338">
        <ele>1830.288343</ele>
        <time>2022-02-25T20:35:59.998Z</time>
      </trkpt>
      <trkpt lat="38.88834" lon="36.83183">
        <ele>1827.54042</ele>
        <time>2022-02-25T20:36:32.582Z</time>
      </trkpt>
      <trkpt lat="38.88823" lon="36.83082">
        <ele>1826.08187</ele>
        <time>2022-02-25T20:36:49.640Z</time>
      </trkpt>
      <trkpt lat="38.888" lon="36.82969">
        <ele>1824.682102</ele>
        <time>2022-02-25T20:37:09.297Z</time>
      </trkpt>
      <trkpt lat="38.88746" lon="36.82746">
        <ele>1823.748591</ele>
        <time>2022-02-25T20:37:50.138Z</time>
      </trkpt>
      <trkpt lat="38.88694" lon="36.82525">
        <ele>1826.015274</ele>
        <time>2022-02-25T20:38:59.986Z</time>
      </trkpt>
      <trkpt lat="38.88635" lon="36.82291">
        <ele>1825.614853</ele>
        <time>2022-02-25T20:40:00.116Z</time>
      </trkpt>
      <trkpt lat="38.88617" lon="36.8222">
        <ele>1823.940198</ele>
        <time>2022-02-25T20:40:10.302Z</time>
      </trkpt>
      <trkpt lat="38.88605" lon="36.82176">
        <ele>1822.910186</ele>
        <time>2022-02-25T20:40:16.398Z</time>
      </trkpt>
      <trkpt lat="38.88442" lon="36.81499">
        <ele>1808.212815</ele>
        <time>2022-02-25T20:42:08.379Z</time>
      </trkpt>
      <trkpt lat="38.88423" lon="36.81424">
        <ele>1807.157553</ele>
        <time>2022-02-25T20:42:22.238Z</time>
      </trkpt>
      <trkpt lat="38.88362" lon="36.8118">
        <ele>1803.264485</ele>
        <time>2022-02-25T20:43:05.292Z</time>
      </trkpt>
      <trkpt lat="38.88125" lon="36.80231">
        <ele>1786.030075</ele>
        <time>2022-02-25T20:45:45.132Z</time>
      </trkpt>
      <trkpt lat="38.88116" lon="36.80192">
        <ele>1785.393953</ele>
        <time>2022-02-25T20:45:51.956Z</time>
      </trkpt>
      <trkpt lat="38.88067" lon="36.79996">
        <ele>1784.130219</ele>
        <time>2022-02-25T20:46:29.980Z</time>
      </trkpt>
      <trkpt lat="38.878" lon="36.78896">
        <ele>1784.547877</ele>
        <time>2022-02-25T20:50:33.931Z</time>
      </trkpt>
      <trkpt lat="38.87716" lon="36.78557">
        <ele>1783.511303</ele>
        <time>2022-02-25T20:51:40.917Z</time>
      </trkpt>
      <trkpt lat="38.87709" lon="36.78528">
        <ele>1783.53543</ele>
        <time>2022-02-25T20:51:46.820Z</time>
      </trkpt>
      <trkpt lat="38.86922" lon="36.75304">
        <ele>1804.911328</ele>
        <time>2022-02-25T21:05:11.884Z</time>
      </trkpt>
      <trkpt lat="38.86862" lon="36.75057">
        <ele>1808.328528</ele>
        <time>2022-02-25T21:06:30.319Z</time>
      </trkpt>
      <trkpt lat="38.86781" lon="36.74724">
        <ele>1808.469209</ele>
        <time>2022-02-25T21:07:36.832Z</time>
      </trkpt>
      <trkpt lat="38.86306" lon="36.72783">
        <ele>1818.153604</ele>
        <time>2022-02-25T21:15:33.235Z</time>
      </trkpt>
      <trkpt lat="38.86272" lon="36.72632">
        <ele>1816.778005</ele>
        <time>2022-02-25T21:16:00.161Z</time>
      </trkpt>
      <trkpt lat="38.86203" lon="36.72374">
        <ele>1813.141498</ele>
        <time>2022-02-25T21:16:42.328Z</time>
      </trkpt>
      <trkpt lat="38.85969" lon="36.71416">
        <ele>1811.128163</ele>
        <time>2022-02-25T21:20:12.002Z</time>
      </trkpt>
      <trkpt lat="38.85921" lon="36.71194">
        <ele>1810.089596</ele>
        <time>2022-02-25T21:20:56.306Z</time>
      </trkpt>
      <trkpt lat="38.85912" lon="36.71145">
        <ele>1809.810528</ele>
        <time>2022-02-25T21:21:05.127Z</time>
      </trkpt>
      <trkpt lat="38.85911" lon="36.71138">
        <ele>1809.705961</ele>
        <time>2022-02-25T21:21:06.374Z</time>
      </trkpt>
      <trkpt lat="38.85904" lon="36.7109">
        <ele>1808.793488</ele>
        <time>2022-02-25T21:21:14.656Z</time>
      </trkpt>
      <trkpt lat="38.85888" lon="36.70943">
        <ele>1805.997635</ele>
        <time>2022-02-25T21:21:38.536Z</time>
      </trkpt>
      <trkpt lat="38.85878" lon="36.70756">
        <ele>1800.333848</ele>
        <time>2022-02-25T21:22:05.894Z</time>
      </trkpt>
      <trkpt lat="38.85878" lon="36.70656">
        <ele>1797.144283</ele>
        <time>2022-02-25T21:22:20.174Z</time>
      </trkpt>
      <trkpt lat="38.85878" lon="36.70609">
        <ele>1795.70505</ele>
        <time>2022-02-25T21:22:26.814Z</time>
      </trkpt>
      <trkpt lat="38.85899" lon="36.70311">
        <ele>1788.051001</ele>
        <time>2022-02-25T21:23:11.384Z</time>
      </trkpt>
      <trkpt lat="38.86198" lon="36.66948">
        <ele>1768.140218</ele>
        <time>2022-02-25T21:33:39.817Z</time>
      </trkpt>
      <trkpt lat="38.86224" lon="36.66656">
        <ele>1772.823147</ele>
        <time>2022-02-25T21:35:06.852Z</time>
      </trkpt>
      <trkpt lat="38.86226" lon="36.66636">
        <ele>1773.27035</ele>
        <time>2022-02-25T21:35:14.409Z</time>
      </trkpt>
      <trkpt lat="38.86241" lon="36.6647">
        <ele>1776.660237</ele>
        <time>2022-02-25T21:36:09.264Z</time>
      </trkpt>
      <trkpt lat="38.86253" lon="36.6634">
        <ele>1779.057601</ele>
        <time>2022-02-25T21:36:47.058Z</time>
      </trkpt>
      <trkpt lat="38.8631" lon="36.65696">
        <ele>1783.053862</ele>
        <time>2022-02-25T21:39:22.320Z</time>
      </trkpt>
      <trkpt lat="38.86316" lon="36.65585">
        <ele>1782.697979</ele>
        <time>2022-02-25T21:39:43.084Z</time>
      </trkpt>
      <trkpt lat="38.8632" lon="36.65391">
        <ele>1780.608624</ele>
        <time>2022-02-25T21:40:15.931Z</time>
      </trkpt>
      <trkpt lat="38.86305" lon="36.65151">
        <ele>1777.868965</ele>
        <time>2022-02-25T21:40:56.554Z</time>
      </trkpt>
      <trkpt lat="38.86275" lon="36.6494">
        <ele>1777.097924</ele>
        <time>2022-02-25T21:41:37.886Z</time>
      </trkpt>
      <trkpt lat="38.86168" lon="36.64411">
        <ele>1781.287293</ele>
        <time>2022-02-25T21:43:55.665Z</time>
      </trkpt>
      <trkpt lat="38.86103" lon="36.64078">
        <ele>1781.687309</ele>
        <time>2022-02-25T21:45:09.659Z</time>
      </trkpt>
      <trkpt lat="38.85982" lon="36.63471">
        <ele>1773.767073</ele>
        <time>2022-02-25T21:46:54.674Z</time>
      </trkpt>
      <trkpt lat="38.85851" lon="36.62806">
        <ele>1764.802858</ele>
        <time>2022-02-25T21:48:51.018Z</time>
      </trkpt>
      <trkpt lat="38.85806" lon="36.62611">
        <ele>1761.673816</ele>
        <time>2022-02-25T21:49:23.751Z</time>
      </trkpt>
      <trkpt lat="38.85742" lon="36.62374">
        <ele>1758.18106</ele>
        <time>2022-02-25T21:50:05.538Z</time>
      </trkpt>
      <trkpt lat="38.85642" lon="36.62064">
        <ele>1755.208663</ele>
        <time>2022-02-25T21:51:05.522Z</time>
      </trkpt>
      <trkpt lat="38.85574" lon="36.61888">
        <ele>1754.358558</ele>
        <time>2022-02-25T21:51:43.040Z</time>
      </trkpt>
      <trkpt lat="38.85424" lon="36.61545">
        <ele>1753.490406</ele>
        <time>2022-02-25T21:53:02.337Z</time>
      </trkpt>
      <trkpt lat="38.84906" lon="36.60401">
        <ele>1746.779097</ele>
        <time>2022-02-25T21:57:11.921Z</time>
      </trkpt>
      <trkpt lat="38.84841" lon="36.60241">
        <ele>1744.769474</ele>
        <time>2022-02-25T21:57:42.348Z</time>
      </trkpt>
      <trkpt lat="38.84662" lon="36.59846">
        <ele>1738.454897</ele>
        <time>2022-02-25T21:58:58.394Z</time>
      </trkpt>
      <trkpt lat="38.84603" lon="36.59715">
        <ele>1737.00037</ele>
        <time>2022-02-25T21:59:25.256Z</time>
      </trkpt>
      <trkpt lat="38.84417" lon="36.59295">
        <ele>1732.87923</ele>
        <time>2022-02-25T22:00:51.886Z</time>
      </trkpt>
      <trkpt lat="38.84357" lon="36.59182">
        <ele>1731.840724</ele>
        <time>2022-02-25T22:01:16.127Z</time>
      </trkpt>
      <trkpt lat="38.84291" lon="36.59073">
        <ele>1730.859754</ele>
        <time>2022-02-25T22:01:41.456Z</time>
      </trkpt>
      <trkpt lat="38.84212" lon="36.58976">
        <ele>1729.695772</ele>
        <time>2022-02-25T22:02:07.918Z</time>
      </trkpt>
      <trkpt lat="38.84146" lon="36.58907">
        <ele>1728.626591</ele>
        <time>2022-02-25T22:02:27.327Z</time>
      </trkpt>
      <trkpt lat="38.84031" lon="36.58812">
        <ele>1724.141685</ele>
        <time>2022-02-25T22:02:54.556Z</time>
      </trkpt>
      <trkpt lat="38.839" lon="36.58733">
        <ele>1715.522415</ele>
        <time>2022-02-25T22:03:20.258Z</time>
      </trkpt>
      <trkpt lat="38.83767" lon="36.58642">
        <ele>1703.629864</ele>
        <time>2022-02-25T22:03:45.216Z</time>
      </trkpt>
      <trkpt lat="38.83733" lon="36.58613">
        <ele>1700.086982</ele>
        <time>2022-02-25T22:03:51.867Z</time>
      </trkpt>
      <trkpt lat="38.83731" lon="36.58611">
        <ele>1699.782832</ele>
        <time>2022-02-25T22:03:52.397Z</time>
      </trkpt>
      <trkpt lat="38.8369" lon="36.58567">
        <ele>1695.137117</ele>
        <time>2022-02-25T22:04:01.240Z</time>
      </trkpt>
      <trkpt lat="38.83631" lon="36.5847">
        <ele>1688.967751</ele>
        <time>2022-02-25T22:04:17.521Z</time>
      </trkpt>
      <trkpt lat="38.83578" lon="36.58341">
        <ele>1682.440869</ele>
        <time>2022-02-25T22:04:38.313Z</time>
      </trkpt>
      <trkpt lat="38.83554" lon="36.58245">
        <ele>1679.317662</ele>
        <time>2022-02-25T22:04:52.959Z</time>
      </trkpt>
      <trkpt lat="38.83548" lon="36.58206">
        <ele>1678.078971</ele>
        <time>2022-02-25T22:04:58.891Z</time>
      </trkpt>
      <trkpt lat="38.83539" lon="36.58152">
        <ele>1676.364927</ele>
        <time>2022-02-25T22:05:07.238Z</time>
      </trkpt>
      <trkpt lat="38.83542" lon="36.58005">
        <ele>1673.479268</ele>
        <time>2022-02-25T22:05:29.998Z</time>
      </trkpt>
      <trkpt lat="38.83627" lon="36.57477">
        <ele>1665.941329</ele>
        <time>2022-02-25T22:07:01.039Z</time>
      </trkpt>
      <trkpt lat="38.83637" lon="36.57384">
        <ele>1664.89768</ele>
        <time>2022-02-25T22:07:17.233Z</time>
      </trkpt>
      <trkpt lat="38.83648" lon="36.57104">
        <ele>1661.667657</ele>
        <time>2022-02-25T22:08:05.942Z</time>
      </trkpt>
      <trkpt lat="38.83644" lon="36.57006">
        <ele>1660.475531</ele>
        <time>2022-02-25T22:08:22.424Z</time>
      </trkpt>
      <trkpt lat="38.83632" lon="36.5686">
        <ele>1658.322813</ele>
        <time>2022-02-25T22:08:46.709Z</time>
      </trkpt>
      <trkpt lat="38.83626" lon="36.56812">
        <ele>1657.613556</ele>
        <time>2022-02-25T22:08:54.696Z</time>
      </trkpt>
      <trkpt lat="38.83604" lon="36.56675">
        <ele>1655.737864</ele>
        <time>2022-02-25T22:09:17.886Z</time>
      </trkpt>
      <trkpt lat="38.83571" lon="36.56525">
        <ele>1653.764408</ele>
        <time>2022-02-25T22:09:44.624Z</time>
      </trkpt>
      <trkpt lat="38.83499" lon="36.56288">
        <ele>1651.075746</ele>
        <time>2022-02-25T22:10:28.776Z</time>
      </trkpt>
      <trkpt lat="38.83243" lon="36.55666">
        <ele>1644.475721</ele>
        <time>2022-02-25T22:12:33.062Z</time>
      </trkpt>
      <trkpt lat="38.83205" lon="36.55574">
        <ele>1643.488323</ele>
        <time>2022-02-25T22:12:51.110Z</time>
      </trkpt>
      <trkpt lat="38.83209" lon="36.5557">
        <ele>1643.41944</ele>
        <time>2022-02-25T22:12:52.308Z</time>
      </trkpt>
      <trkpt lat="38.83214" lon="36.55556">
        <ele>1643.283537</ele>
        <time>2022-02-25T22:12:54.773Z</time>
      </trkpt>
      <trkpt lat="38.83206" lon="36.55526">
        <ele>1642.977627</ele>
        <time>2022-02-25T22:13:00.481Z</time>
      </trkpt>
      <trkpt lat="38.83203" lon="36.55501">
        <ele>1642.926379</ele>
        <time>2022-02-25T22:13:05.021Z</time>
      </trkpt>
      <trkpt lat="38.83166" lon="36.55382">
        <ele>1643.083059</ele>
        <time>2022-02-25T22:13:29.876Z</time>
      </trkpt>
      <trkpt lat="38.831" lon="36.55138">
        <ele>1645.264725</ele>
        <time>2022-02-25T22:14:37.343Z</time>
      </trkpt>
      <trkpt lat="38.83073" lon="36.55054">
        <ele>1646.168854</ele>
        <time>2022-02-25T22:15:03.810Z</time>
      </trkpt>
      <trkpt lat="38.83033" lon="36.54978">
        <ele>1646.733438</ele>
        <time>2022-02-25T22:15:26.124Z</time>
      </trkpt>
      <trkpt lat="38.82991" lon="36.54933">
        <ele>1647.16997</ele>
        <time>2022-02-25T22:15:41.676Z</time>
      </trkpt>
      <trkpt lat="38.82971" lon="36.54917">
        <ele>1647.35888</ele>
        <time>2022-02-25T22:15:47.940Z</time>
      </trkpt>
      <trkpt lat="38.82937" lon="36.5489">
        <ele>1647.535248</ele>
        <time>2022-02-25T22:15:57.903Z</time>
      </trkpt>
      <trkpt lat="38.82879" lon="36.5486">
        <ele>1647.793224</ele>
        <time>2022-02-25T22:16:14.055Z</time>
      </trkpt>
      <trkpt lat="38.82819" lon="36.5484">
        <ele>1648.04601</ele>
        <time>2022-02-25T22:16:31.282Z</time>
      </trkpt>
      <trkpt lat="38.82758" lon="36.54836">
        <ele>1649.641018</ele>
        <time>2022-02-25T22:16:53.698Z</time>
      </trkpt>
      <trkpt lat="38.82682" lon="36.54849">
        <ele>1652.426466</ele>
        <time>2022-02-25T22:17:27.382Z</time>
      </trkpt>
      <trkpt lat="38.82567" lon="36.54883">
        <ele>1657.848146</ele>
        <time>2022-02-25T22:18:28.939Z</time>
      </trkpt>
      <trkpt lat="38.82526" lon="36.54883">
        <ele>1660.081033</ele>
        <time>2022-02-25T22:18:50.901Z</time>
      </trkpt>
      <trkpt lat="38.82131" lon="36.54938">
        <ele>1682.33039</ele>
        <time>2022-02-25T22:22:25.359Z</time>
      </trkpt>
      <trkpt lat="38.81962" lon="36.54954">
        <ele>1691.201209</ele>
        <time>2022-02-25T22:23:53.051Z</time>
      </trkpt>
      <trkpt lat="38.81901" lon="36.54955">
        <ele>1694.339053</ele>
        <time>2022-02-25T22:24:24.341Z</time>
      </trkpt>
      <trkpt lat="38.81694" lon="36.54935">
        <ele>1704.341451</ele>
        <time>2022-02-25T22:26:07.226Z</time>
      </trkpt>
      <trkpt lat="38.81548" lon="36.54904">
        <ele>1711.333444</ele>
        <time>2022-02-25T22:27:19.758Z</time>
      </trkpt>
      <trkpt lat="38.81475" lon="36.5488">
        <ele>1715.359061</ele>
        <time>2022-02-25T22:27:58.765Z</time>
      </trkpt>
      <trkpt lat="38.81327" lon="36.54819">
        <ele>1723.296895</ele>
        <time>2022-02-25T22:29:21.755Z</time>
      </trkpt>
      <trkpt lat="38.81175" lon="36.54737">
        <ele>1730.201977</ele>
        <time>2022-02-25T22:30:41.642Z</time>
      </trkpt>
      <trkpt lat="38.81075" lon="36.54675">
        <ele>1732.687814</ele>
        <time>2022-02-25T22:31:22.710Z</time>
      </trkpt>
      <trkpt lat="38.79983" lon="36.53943">
        <ele>1730.856577</ele>
        <time>2022-02-25T22:36:41.381Z</time>
      </trkpt>
      <trkpt lat="38.79874" lon="36.53868">
        <ele>1729.438737</ele>
        <time>2022-02-25T22:37:08.903Z</time>
      </trkpt>
      <trkpt lat="38.79692" lon="36.53748">
        <ele>1726.794111</ele>
        <time>2022-02-25T22:37:53.647Z</time>
      </trkpt>
      <trkpt lat="38.79264" lon="36.53462">
        <ele>1723.615652</ele>
        <time>2022-02-25T22:39:49.827Z</time>
      </trkpt>
      <trkpt lat="38.79171" lon="36.53394">
        <ele>1724.645258</ele>
        <time>2022-02-25T22:40:24.751Z</time>
      </trkpt>
      <trkpt lat="38.79079" lon="36.53312">
        <ele>1726.003362</ele>
        <time>2022-02-25T22:41:05.362Z</time>
      </trkpt>
      <trkpt lat="38.79007" lon="36.53236">
        <ele>1727.251626</ele>
        <time>2022-02-25T22:41:36.711Z</time>
      </trkpt>
      <trkpt lat="38.78915" lon="36.53114">
        <ele>1726.254754</ele>
        <time>2022-02-25T22:42:09.742Z</time>
      </trkpt>
      <trkpt lat="38.78876" lon="36.53056">
        <ele>1725.647621</ele>
        <time>2022-02-25T22:42:22.109Z</time>
      </trkpt>
      <trkpt lat="38.78844" lon="36.53002">
        <ele>1724.256422</ele>
        <time>2022-02-25T22:42:32.406Z</time>
      </trkpt>
      <trkpt lat="38.78773" lon="36.5286">
        <ele>1720.679312</ele>
        <time>2022-02-25T22:42:58.389Z</time>
      </trkpt>
      <trkpt lat="38.78731" lon="36.52754">
        <ele>1720.422697</ele>
        <time>2022-02-25T22:43:20.159Z</time>
      </trkpt>
      <trkpt lat="38.78684" lon="36.52613">
        <ele>1720.334253</ele>
        <time>2022-02-25T22:43:57.408Z</time>
      </trkpt>
      <trkpt lat="38.78653" lon="36.52478">
        <ele>1720.808465</ele>
        <time>2022-02-25T22:44:31.667Z</time>
      </trkpt>
      <trkpt lat="38.78626" lon="36.52272">
        <ele>1718.728779</ele>
        <time>2022-02-25T22:45:09.098Z</time>
      </trkpt>
      <trkpt lat="38.7862" lon="36.52167">
        <ele>1716.533278</ele>
        <time>2022-02-25T22:45:25.156Z</time>
      </trkpt>
      <trkpt lat="38.78625" lon="36.5198">
        <ele>1710.336237</ele>
        <time>2022-02-25T22:45:51.940Z</time>
      </trkpt>
      <trkpt lat="38.78641" lon="36.51838">
        <ele>1706.059916</ele>
        <time>2022-02-25T22:46:12.644Z</time>
      </trkpt>
      <trkpt lat="38.78669" lon="36.51693">
        <ele>1702.264557</ele>
        <time>2022-02-25T22:46:35.755Z</time>
      </trkpt>
      <trkpt lat="38.78717" lon="36.51535">
        <ele>1699.186758</ele>
        <time>2022-02-25T22:47:03.623Z</time>
      </trkpt>
      <trkpt lat="38.79345" lon="36.498">
        <ele>1661.193666</ele>
        <time>2022-02-25T22:52:07.548Z</time>
      </trkpt>
      <trkpt lat="38.79387" lon="36.4965">
        <ele>1656.018192</ele>
        <time>2022-02-25T22:52:30.402Z</time>
      </trkpt>
      <trkpt lat="38.794" lon="36.49583">
        <ele>1652.572597</ele>
        <time>2022-02-25T22:52:39.955Z</time>
      </trkpt>
      <trkpt lat="38.79415" lon="36.49488">
        <ele>1647.491387</ele>
        <time>2022-02-25T22:52:53.003Z</time>
      </trkpt>
      <trkpt lat="38.79423" lon="36.49365">
        <ele>1641.220147</ele>
        <time>2022-02-25T22:53:09.216Z</time>
      </trkpt>
      <trkpt lat="38.79411" lon="36.49184">
        <ele>1632.323701</ele>
        <time>2022-02-25T22:53:33.821Z</time>
      </trkpt>
      <trkpt lat="38.79361" lon="36.48868">
        <ele>1623.489545</ele>
        <time>2022-02-25T22:54:23.153Z</time>
      </trkpt>
      <trkpt lat="38.79305" lon="36.48573">
        <ele>1614.271737</ele>
        <time>2022-02-25T22:55:08.811Z</time>
      </trkpt>
      <trkpt lat="38.79199" lon="36.47948">
        <ele>1582.691829</ele>
        <time>2022-02-25T22:56:35.426Z</time>
      </trkpt>
      <trkpt lat="38.79116" lon="36.47569">
        <ele>1561.320971</ele>
        <time>2022-02-25T22:57:27.862Z</time>
      </trkpt>
      <trkpt lat="38.7908" lon="36.47447">
        <ele>1555.068693</ele>
        <time>2022-02-25T22:57:45.538Z</time>
      </trkpt>
      <trkpt lat="38.79056" lon="36.47385">
        <ele>1552.057364</ele>
        <time>2022-02-25T22:57:55.260Z</time>
      </trkpt>
      <trkpt lat="38.79026" lon="36.47312">
        <ele>1550.094593</ele>
        <time>2022-02-25T22:58:07.358Z</time>
      </trkpt>
      <trkpt lat="38.79008" lon="36.4727">
        <ele>1548.937328</ele>
        <time>2022-02-25T22:58:14.888Z</time>
      </trkpt>
      <trkpt lat="38.78981" lon="36.47206">
        <ele>1547.215757</ele>
        <time>2022-02-25T22:58:26.719Z</time>
      </trkpt>
      <trkpt lat="38.78951" lon="36.47144">
        <ele>1546.710989</ele>
        <time>2022-02-25T22:58:39.922Z</time>
      </trkpt>
      <trkpt lat="38.78902" lon="36.4705">
        <ele>1546.428582</ele>
        <time>2022-02-25T22:59:02.609Z</time>
      </trkpt>
      <trkpt lat="38.78867" lon="36.46991">
        <ele>1546.492092</ele>
        <time>2022-02-25T22:59:18.924Z</time>
      </trkpt>
      <trkpt lat="38.78845" lon="36.46959">
        <ele>1547.089172</ele>
        <time>2022-02-25T22:59:29.252Z</time>
      </trkpt>
      <trkpt lat="38.78818" lon="36.4692">
        <ele>1547.81685</ele>
        <time>2022-02-25T22:59:42.601Z</time>
      </trkpt>
      <trkpt lat="38.78777" lon="36.46867">
        <ele>1548.859171</ele>
        <time>2022-02-25T23:00:03.726Z</time>
      </trkpt>
      <trkpt lat="38.78688" lon="36.46759">
        <ele>1552.306631</ele>
        <time>2022-02-25T23:00:56.285Z</time>
      </trkpt>
      <trkpt lat="38.78604" lon="36.4667">
        <ele>1555.658242</ele>
        <time>2022-02-25T23:01:43.522Z</time>
      </trkpt>
      <trkpt lat="38.785" lon="36.46588">
        <ele>1558.375617</ele>
        <time>2022-02-25T23:02:27.271Z</time>
      </trkpt>
      <trkpt lat="38.78431" lon="36.46539">
        <ele>1560.391859</ele>
        <time>2022-02-25T23:02:56.176Z</time>
      </trkpt>
      <trkpt lat="38.78375" lon="36.46502">
        <ele>1562.230362</ele>
        <time>2022-02-25T23:03:21.006Z</time>
      </trkpt>
      <trkpt lat="38.7831" lon="36.46459">
        <ele>1564.370698</ele>
        <time>2022-02-25T23:03:52.264Z</time>
      </trkpt>
      <trkpt lat="38.78183" lon="36.46391">
        <ele>1568.671173</ele>
        <time>2022-02-25T23:04:55.150Z</time>
      </trkpt>
      <trkpt lat="38.78134" lon="36.46372">
        <ele>1570.215452</ele>
        <time>2022-02-25T23:05:13.996Z</time>
      </trkpt>
      <trkpt lat="38.78103" lon="36.46361">
        <ele>1570.048115</ele>
        <time>2022-02-25T23:05:24.185Z</time>
      </trkpt>
      <trkpt lat="38.78077" lon="36.46352">
        <ele>1569.902975</ele>
        <time>2022-02-25T23:05:32.242Z</time>
      </trkpt>
      <trkpt lat="38.77859" lon="36.46296">
        <ele>1566.723458</ele>
        <time>2022-02-25T23:06:20.558Z</time>
      </trkpt>
      <trkpt lat="38.77574" lon="36.46236">
        <ele>1557.274937</ele>
        <time>2022-02-25T23:07:15.977Z</time>
      </trkpt>
      <trkpt lat="38.77409" lon="36.46201">
        <ele>1551.514703</ele>
        <time>2022-02-25T23:07:48.417Z</time>
      </trkpt>
      <trkpt lat="38.77255" lon="36.46168">
        <ele>1546.001987</ele>
        <time>2022-02-25T23:08:18.232Z</time>
      </trkpt>
      <trkpt lat="38.77104" lon="36.46137">
        <ele>1542.001511</ele>
        <time>2022-02-25T23:08:48.768Z</time>
      </trkpt>
      <trkpt lat="38.77085" lon="36.46132">
        <ele>1541.516225</ele>
        <time>2022-02-25T23:08:52.792Z</time>
      </trkpt>
      <trkpt lat="38.76887" lon="36.4609">
        <ele>1539.174145</ele>
        <time>2022-02-25T23:09:39.422Z</time>
      </trkpt>
      <trkpt lat="38.76308" lon="36.45971">
        <ele>1534.148552</ele>
        <time>2022-02-25T23:11:59.973Z</time>
      </trkpt>
      <trkpt lat="38.76077" lon="36.45915">
        <ele>1528.345879</ele>
        <time>2022-02-25T23:12:47.596Z</time>
      </trkpt>
      <trkpt lat="38.76044" lon="36.45906">
        <ele>1527.299072</ele>
        <time>2022-02-25T23:12:54.104Z</time>
      </trkpt>
      <trkpt lat="38.76006" lon="36.45891">
        <ele>1526.079544</ele>
        <time>2022-02-25T23:13:01.620Z</time>
      </trkpt>
      <trkpt lat="38.75951" lon="36.4587">
        <ele>1524.163533</ele>
        <time>2022-02-25T23:13:12.463Z</time>
      </trkpt>
      <trkpt lat="38.75865" lon="36.45829">
        <ele>1521.109761</ele>
        <time>2022-02-25T23:13:30.156Z</time>
      </trkpt>
      <trkpt lat="38.75783" lon="36.45786">
        <ele>1519.426689</ele>
        <time>2022-02-25T23:13:48.635Z</time>
      </trkpt>
      <trkpt lat="38.75747" lon="36.45764">
        <ele>1518.891673</ele>
        <time>2022-02-25T23:13:57.731Z</time>
      </trkpt>
      <trkpt lat="38.75696" lon="36.45734">
        <ele>1518.150812</ele>
        <time>2022-02-25T23:14:10.815Z</time>
      </trkpt>
      <trkpt lat="38.75586" lon="36.45663">
        <ele>1517.602739</ele>
        <time>2022-02-25T23:14:42.808Z</time>
      </trkpt>
      <trkpt lat="38.75526" lon="36.45618">
        <ele>1517.425479</ele>
        <time>2022-02-25T23:15:00.933Z</time>
      </trkpt>
      <trkpt lat="38.75415" lon="36.45527">
        <ele>1516.884122</ele>
        <time>2022-02-25T23:15:33.430Z</time>
      </trkpt>
      <trkpt lat="38.75338" lon="36.45447">
        <ele>1516.59293</ele>
        <time>2022-02-25T23:15:57.995Z</time>
      </trkpt>
      <trkpt lat="38.75206" lon="36.45294">
        <ele>1516.553071</ele>
        <time>2022-02-25T23:16:45.433Z</time>
      </trkpt>
      <trkpt lat="38.75096" lon="36.45139">
        <ele>1517.009408</ele>
        <time>2022-02-25T23:17:32.703Z</time>
      </trkpt>
      <trkpt lat="38.75048" lon="36.4506">
        <ele>1517.119729</ele>
        <time>2022-02-25T23:17:54.351Z</time>
      </trkpt>
      <trkpt lat="38.74925" lon="36.44821">
        <ele>1517.23049</ele>
        <time>2022-02-25T23:18:52.889Z</time>
      </trkpt>
      <trkpt lat="38.74276" lon="36.43444">
        <ele>1520.603941</ele>
        <time>2022-02-25T23:24:45.356Z</time>
      </trkpt>
      <trkpt lat="38.74245" lon="36.43377">
        <ele>1520.579329</ele>
        <time>2022-02-25T23:25:01.733Z</time>
      </trkpt>
      <trkpt lat="38.74202" lon="36.43285">
        <ele>1520.176938</ele>
        <time>2022-02-25T23:25:22.870Z</time>
      </trkpt>
      <trkpt lat="38.73979" lon="36.42802">
        <ele>1516.790504</ele>
        <time>2022-02-25T23:27:05.345Z</time>
      </trkpt>
      <trkpt lat="38.73926" lon="36.42689">
        <ele>1516.948604</ele>
        <time>2022-02-25T23:27:34.262Z</time>
      </trkpt>
      <trkpt lat="38.73899" lon="36.42631">
        <ele>1517.030188</ele>
        <time>2022-02-25T23:27:49.433Z</time>
      </trkpt>
      <trkpt lat="38.73874" lon="36.42578">
        <ele>1517.060698</ele>
        <time>2022-02-25T23:28:02.750Z</time>
      </trkpt>
      <trkpt lat="38.73839" lon="36.42505">
        <ele>1517.060875</ele>
        <time>2022-02-25T23:28:21.078Z</time>
      </trkpt>
      <trkpt lat="38.73828" lon="36.42481">
        <ele>1517.060932</ele>
        <time>2022-02-25T23:28:26.790Z</time>
      </trkpt>
      <trkpt lat="38.73779" lon="36.4238">
        <ele>1516.997451</ele>
        <time>2022-02-25T23:28:50.603Z</time>
      </trkpt>
      <trkpt lat="38.73744" lon="36.42303">
        <ele>1516.846854</ele>
        <time>2022-02-25T23:29:08.219Z</time>
      </trkpt>
      <trkpt lat="38.73695" lon="36.42197">
        <ele>1516.622337</ele>
        <time>2022-02-25T23:29:33.184Z</time>
      </trkpt>
      <trkpt lat="38.73559" lon="36.41909">
        <ele>1516.031933</ele>
        <time>2022-02-25T23:30:38.957Z</time>
      </trkpt>
      <trkpt lat="38.73444" lon="36.41666">
        <ele>1516.56736</ele>
        <time>2022-02-25T23:31:42.322Z</time>
      </trkpt>
      <trkpt lat="38.73388" lon="36.41547">
        <ele>1516.962107</ele>
        <time>2022-02-25T23:32:14.124Z</time>
      </trkpt>
      <trkpt lat="38.73351" lon="36.41469">
        <ele>1517.200869</ele>
        <time>2022-02-25T23:32:34.204Z</time>
      </trkpt>
      <trkpt lat="38.73344" lon="36.41455">
        <ele>1517.244162</ele>
        <time>2022-02-25T23:32:37.843Z</time>
      </trkpt>
      <trkpt lat="38.73329" lon="36.4142">
        <ele>1517.332996</ele>
        <time>2022-02-25T23:32:46.360Z</time>
      </trkpt>
      <trkpt lat="38.73315" lon="36.41388">
        <ele>1517.312393</ele>
        <time>2022-02-25T23:32:53.729Z</time>
      </trkpt>
      <trkpt lat="38.73281" lon="36.41312">
        <ele>1517.262242</ele>
        <time>2022-02-25T23:33:11.658Z</time>
      </trkpt>
      <trkpt lat="38.73246" lon="36.41244">
        <ele>1517.215593</ele>
        <time>2022-02-25T23:33:28.232Z</time>
      </trkpt>
      <trkpt lat="38.73205" lon="36.41159">
        <ele>1517.499541</ele>
        <time>2022-02-25T23:33:48.621Z</time>
      </trkpt>
      <trkpt lat="38.73111" lon="36.40937">
        <ele>1518.51876</ele>
        <time>2022-02-25T23:34:48.641Z</time>
      </trkpt>
      <trkpt lat="38.73016" lon="36.40646">
        <ele>1518.886068</ele>
        <time>2022-02-25T23:35:59.251Z</time>
      </trkpt>
      <trkpt lat="38.72999" lon="36.40595">
        <ele>1518.636116</ele>
        <time>2022-02-25T23:36:08.580Z</time>
      </trkpt>
      <trkpt lat="38.72984" lon="36.40538">
        <ele>1517.609248</ele>
        <time>2022-02-25T23:36:18.449Z</time>
      </trkpt>
      <trkpt lat="38.72945" lon="36.40404">
        <ele>1515.197821</ele>
        <time>2022-02-25T23:36:40.826Z</time>
      </trkpt>
      <trkpt lat="38.72882" lon="36.40206">
        <ele>1513.074158</ele>
        <time>2022-02-25T23:37:17.610Z</time>
      </trkpt>
      <trkpt lat="38.72853" lon="36.40128">
        <ele>1512.798131</ele>
        <time>2022-02-25T23:37:36.630Z</time>
      </trkpt>
      <trkpt lat="38.72845" lon="36.40109">
        <ele>1512.808689</ele>
        <time>2022-02-25T23:37:41.398Z</time>
      </trkpt>
      <trkpt lat="38.72835" lon="36.40126">
        <ele>1512.818853</ele>
        <time>2022-02-25T23:37:45.978Z</time>
      </trkpt>
      <trkpt lat="38.72812" lon="36.40173">
        <ele>1512.846139</ele>
        <time>2022-02-25T23:37:57.856Z</time>
      </trkpt>
      <trkpt lat="38.7279" lon="36.4022">
        <ele>1512.873062</ele>
        <time>2022-02-25T23:38:09.622Z</time>
      </trkpt>
      <trkpt lat="38.72778" lon="36.4022">
        <ele>1512.880134</ele>
        <time>2022-02-25T23:38:12.620Z</time>
      </trkpt>
      <trkpt lat="38.72772" lon="36.40212">
        <ele>1512.882501</ele>
        <time>2022-02-25T23:38:15.195Z</time>
      </trkpt>
      <trkpt lat="38.72746" lon="36.4018">
        <ele>1512.856189</ele>
        <time>2022-02-25T23:38:25.069Z</time>
      </trkpt>
      <trkpt lat="38.7273" lon="36.40152">
        <ele>1512.837024</ele>
        <time>2022-02-25T23:38:31.867Z</time>
      </trkpt>
      <trkpt lat="38.72706" lon="36.40124">
        <ele>1512.813373</ele>
        <time>2022-02-25T23:38:40.068Z</time>
      </trkpt>
      <trkpt lat="38.72605" lon="36.40008">
        <ele>1512.781593</ele>
        <time>2022-02-25T23:39:15.695Z</time>
      </trkpt>
      <trkpt lat="38.72603" lon="36.40006">
        <ele>1512.783168</ele>
        <time>2022-02-25T23:39:16.550Z</time>
      </trkpt>
      <trkpt lat="38.72583" lon="36.39985">
        <ele>1512.796399</ele>
        <time>2022-02-25T23:39:23.815Z</time>
      </trkpt>
      <trkpt lat="38.72556" lon="36.39955">
        <ele>1512.814799</ele>
        <time>2022-02-25T23:39:33.528Z</time>
      </trkpt>
      <trkpt lat="38.72573" lon="36.39904">
        <ele>1512.836764</ele>
        <time>2022-02-25T23:39:45.519Z</time>
      </trkpt>
      <trkpt lat="38.7258" lon="36.39853">
        <ele>1512.792395</ele>
        <time>2022-02-25T23:39:57.248Z</time>
      </trkpt>
      <trkpt lat="38.72573" lon="36.39781">
        <ele>1512.651037</ele>
        <time>2022-02-25T23:40:12.898Z</time>
      </trkpt>
      <trkpt lat="38.72537" lon="36.39729">
        <ele>1512.516408</ele>
        <time>2022-02-25T23:40:26.445Z</time>
      </trkpt>
      <trkpt lat="38.72455" lon="36.39639">
        <ele>1512.301049</ele>
        <time>2022-02-25T23:40:55.142Z</time>
      </trkpt>
      <trkpt lat="38.72416" lon="36.39584">
        <ele>1512.20717</ele>
        <time>2022-02-25T23:41:11.404Z</time>
      </trkpt>
      <trkpt lat="38.72386" lon="36.39499">
        <ele>1512.065154</ele>
        <time>2022-02-25T23:41:31.305Z</time>
      </trkpt>
      <trkpt lat="38.72373" lon="36.39498">
        <ele>1512.019469</ele>
        <time>2022-02-25T23:41:34.477Z</time>
      </trkpt>
      <trkpt lat="38.72363" lon="36.39383">
        <ele>1511.676958</ele>
        <time>2022-02-25T23:41:58.971Z</time>
      </trkpt>
      <trkpt lat="38.7237" lon="36.39381">
        <ele>1511.652167</ele>
        <time>2022-02-25T23:42:00.675Z</time>
      </trkpt>
      <trkpt lat="38.72356" lon="36.39307">
        <ele>1511.426103</ele>
        <time>2022-02-25T23:42:15.569Z</time>
      </trkpt>
      <trkpt lat="38.72335" lon="36.39217">
        <ele>1510.909718</ele>
        <time>2022-02-25T23:42:33.518Z</time>
      </trkpt>
      <trkpt lat="38.72322" lon="36.39139">
        <ele>1510.472155</ele>
        <time>2022-02-25T23:42:49.363Z</time>
      </trkpt>
      <trkpt lat="38.72314" lon="36.39053">
        <ele>1510.018217</ele>
        <time>2022-02-25T23:43:06.297Z</time>
      </trkpt>
      <trkpt lat="38.72323" lon="36.39037">
        <ele>1509.921328</ele>
        <time>2022-02-25T23:43:10.197Z</time>
      </trkpt>
      <trkpt lat="38.7233" lon="36.39023">
        <ele>1509.844111</ele>
        <time>2022-02-25T23:43:13.150Z</time>
      </trkpt>
      <trkpt lat="38.7233" lon="36.38992">
        <ele>1509.694126</ele>
        <time>2022-02-25T23:43:18.968Z</time>
      </trkpt>
      <trkpt lat="38.72275" lon="36.38866">
        <ele>1508.96118</ele>
        <time>2022-02-25T23:43:48.165Z</time>
      </trkpt>
      <trkpt lat="38.72254" lon="36.38807">
        <ele>1508.408627</ele>
        <time>2022-02-25T23:44:00.409Z</time>
      </trkpt>
      <trkpt lat="38.7224" lon="36.38745">
        <ele>1507.854532</ele>
        <time>2022-02-25T23:44:12.293Z</time>
      </trkpt>
      <trkpt lat="38.72229" lon="36.38694">
        <ele>1507.396529</ele>
        <time>2022-02-25T23:44:22.034Z</time>
      </trkpt>
      <trkpt lat="38.72221" lon="36.38645">
        <ele>1506.960016</ele>
        <time>2022-02-25T23:44:31.070Z</time>
      </trkpt>
      <trkpt lat="38.7218" lon="36.38659">
        <ele>1506.447363</ele>
        <time>2022-02-25T23:44:41.020Z</time>
      </trkpt>
      <trkpt lat="38.72174" lon="36.38661">
        <ele>1506.373759</ele>
        <time>2022-02-25T23:44:42.477Z</time>
      </trkpt>
      <trkpt lat="38.72126" lon="36.38677">
        <ele>1505.763592</ele>
        <time>2022-02-25T23:44:54.298Z</time>
      </trkpt>
      <trkpt lat="38.72119" lon="36.38669">
        <ele>1505.649717</ele>
        <time>2022-02-25T23:44:57.054Z</time>
      </trkpt>
      <trkpt lat="38.7208" lon="36.38626">
        <ele>1505.026355</ele>
        <time>2022-02-25T23:45:12.928Z</time>
      </trkpt>
      <trkpt lat="38.71952" lon="36.38512">
        <ele>1503.984653</ele>
        <time>2022-02-25T23:46:03.040Z</time>
      </trkpt>
      <trkpt lat="38.71948" lon="36.38518">
        <ele>1503.945415</ele>
        <time>2022-02-25T23:46:04.764Z</time>
      </trkpt>
      <trkpt lat="38.7186" lon="36.38442">
        <ele>1504.109965</ele>
        <time>2022-02-25T23:46:33.146Z</time>
      </trkpt>
      <trkpt lat="38.71711" lon="36.38311">
        <ele>1505.755311</ele>
        <time>2022-02-25T23:47:28.528Z</time>
      </trkpt>
      <trkpt lat="38.71552" lon="36.38163">
        <ele>1509.590566</ele>
        <time>2022-02-25T23:48:40.644Z</time>
      </trkpt>
      <trkpt lat="38.71534" lon="36.38147">
        <ele>1510.11679</ele>
        <time>2022-02-25T23:48:49.510Z</time>
      </trkpt>
      <trkpt lat="38.71401" lon="36.38039">
        <ele>1513.806708</ele>
        <time>2022-02-25T23:49:52.191Z</time>
      </trkpt>
      <trkpt lat="38.71124" lon="36.37764">
        <ele>1519.489867</ele>
        <time>2022-02-25T23:51:56.806Z</time>
      </trkpt>
      <trkpt lat="38.71082" lon="36.37729">
        <ele>1519.712457</ele>
        <time>2022-02-25T23:52:08.894Z</time>
      </trkpt>
      <trkpt lat="38.71019" lon="36.37686">
        <ele>1519.808796</ele>
        <time>2022-02-25T23:52:25.419Z</time>
      </trkpt>
      <trkpt lat="38.70906" lon="36.37627">
        <ele>1519.366848</ele>
        <time>2022-02-25T23:52:54.036Z</time>
      </trkpt>
      <trkpt lat="38.70495" lon="36.37438">
        <ele>1524.234933</ele>
        <time>2022-02-25T23:55:20.440Z</time>
      </trkpt>
      <trkpt lat="38.70432" lon="36.37405">
        <ele>1524.447016</ele>
        <time>2022-02-25T23:55:39.839Z</time>
      </trkpt>
      <trkpt lat="38.70358" lon="36.37355">
        <ele>1524.413437</ele>
        <time>2022-02-25T23:56:00.381Z</time>
      </trkpt>
      <trkpt lat="38.70307" lon="36.37313">
        <ele>1523.609434</ele>
        <time>2022-02-25T23:56:14.126Z</time>
      </trkpt>
      <trkpt lat="38.70258" lon="36.37266">
        <ele>1522.809145</ele>
        <time>2022-02-25T23:56:27.385Z</time>
      </trkpt>
      <trkpt lat="38.70216" lon="36.37215">
        <ele>1522.136787</ele>
        <time>2022-02-25T23:56:40.092Z</time>
      </trkpt>
      <trkpt lat="38.70135" lon="36.37093">
        <ele>1521.154158</ele>
        <time>2022-02-25T23:57:08.026Z</time>
      </trkpt>
      <trkpt lat="38.70069" lon="36.36943">
        <ele>1522.697649</ele>
        <time>2022-02-25T23:57:49.688Z</time>
      </trkpt>
      <trkpt lat="38.70008" lon="36.36787">
        <ele>1526.178173</ele>
        <time>2022-02-25T23:58:47.192Z</time>
      </trkpt>
      <trkpt lat="38.69953" lon="36.36652">
        <ele>1530.453929</ele>
        <time>2022-02-25T23:59:41.190Z</time>
      </trkpt>
      <trkpt lat="38.6991" lon="36.3657">
        <ele>1532.9605</ele>
        <time>2022-02-26T00:00:13.686Z</time>
      </trkpt>
      <trkpt lat="38.69864" lon="36.36485">
        <ele>1535.537471</ele>
        <time>2022-02-26T00:00:47.633Z</time>
      </trkpt>
      <trkpt lat="38.69783" lon="36.3637">
        <ele>1538.469644</ele>
        <time>2022-02-26T00:01:36.699Z</time>
      </trkpt>
      <trkpt lat="38.69341" lon="36.3581">
        <ele>1547.944109</ele>
        <time>2022-02-26T00:05:05.391Z</time>
      </trkpt>
      <trkpt lat="38.6921" lon="36.35646">
        <ele>1549.87663</ele>
        <time>2022-02-26T00:06:01.721Z</time>
      </trkpt>
      <trkpt lat="38.69203" lon="36.35638">
        <ele>1550.051282</ele>
        <time>2022-02-26T00:06:04.987Z</time>
      </trkpt>
      <trkpt lat="38.69081" lon="36.35485">
        <ele>1553.563815</ele>
        <time>2022-02-26T00:07:07.197Z</time>
      </trkpt>
      <trkpt lat="38.68597" lon="36.34866">
        <ele>1575.509382</ele>
        <time>2022-02-26T00:12:05.625Z</time>
      </trkpt>
      <trkpt lat="38.68504" lon="36.34744">
        <ele>1573.687311</ele>
        <time>2022-02-26T00:12:34.395Z</time>
      </trkpt>
      <trkpt lat="38.68426" lon="36.34648">
        <ele>1570.36456</ele>
        <time>2022-02-26T00:12:54.339Z</time>
      </trkpt>
      <trkpt lat="38.68342" lon="36.34542">
        <ele>1565.48949</ele>
        <time>2022-02-26T00:13:16.219Z</time>
      </trkpt>
      <trkpt lat="38.68299" lon="36.34488">
        <ele>1563.735333</ele>
        <time>2022-02-26T00:13:27.968Z</time>
      </trkpt>
      <trkpt lat="38.68258" lon="36.34435">
        <ele>1563.232383</ele>
        <time>2022-02-26T00:13:40.081Z</time>
      </trkpt>
      <trkpt lat="38.68122" lon="36.34261">
        <ele>1565.514501</ele>
        <time>2022-02-26T00:14:37.220Z</time>
      </trkpt>
      <trkpt lat="38.6793" lon="36.34013">
        <ele>1580.367754</ele>
        <time>2022-02-26T00:17:12.575Z</time>
      </trkpt>
      <trkpt lat="38.67869" lon="36.33936">
        <ele>1585.776696</ele>
        <time>2022-02-26T00:18:06.589Z</time>
      </trkpt>
      <trkpt lat="38.67681" lon="36.3369">
        <ele>1600.394862</ele>
        <time>2022-02-26T00:20:27.635Z</time>
      </trkpt>
      <trkpt lat="38.67639" lon="36.33625">
        <ele>1601.289655</ele>
        <time>2022-02-26T00:20:53.090Z</time>
      </trkpt>
      <trkpt lat="38.67588" lon="36.33524">
        <ele>1602.519623</ele>
        <time>2022-02-26T00:21:21.248Z</time>
      </trkpt>
      <trkpt lat="38.67544" lon="36.33409">
        <ele>1601.14348</ele>
        <time>2022-02-26T00:21:43.534Z</time>
      </trkpt>
      <trkpt lat="38.6752" lon="36.33323">
        <ele>1599.671918</ele>
        <time>2022-02-26T00:21:58.022Z</time>
      </trkpt>
      <trkpt lat="38.67461" lon="36.33084">
        <ele>1593.787509</ele>
        <time>2022-02-26T00:22:35.963Z</time>
      </trkpt>
      <trkpt lat="38.67371" lon="36.32705">
        <ele>1584.700721</ele>
        <time>2022-02-26T00:23:37.391Z</time>
      </trkpt>
      <trkpt lat="38.67211" lon="36.32044">
        <ele>1570.491927</ele>
        <time>2022-02-26T00:25:25.961Z</time>
      </trkpt>
      <trkpt lat="38.67172" lon="36.31881">
        <ele>1568.702977</ele>
        <time>2022-02-26T00:25:55.372Z</time>
      </trkpt>
      <trkpt lat="38.67128" lon="36.31698">
        <ele>1568.028955</ele>
        <time>2022-02-26T00:26:36.717Z</time>
      </trkpt>
      <trkpt lat="38.67095" lon="36.31589">
        <ele>1567.714232</ele>
        <time>2022-02-26T00:27:00.733Z</time>
      </trkpt>
      <trkpt lat="38.67086" lon="36.31566">
        <ele>1567.644945</ele>
        <time>2022-02-26T00:27:05.993Z</time>
      </trkpt>
      <trkpt lat="38.67075" lon="36.31536">
        <ele>1567.555518</ele>
        <time>2022-02-26T00:27:11.842Z</time>
      </trkpt>
      <trkpt lat="38.67013" lon="36.31399">
        <ele>1565.346747</ele>
        <time>2022-02-26T00:27:38.292Z</time>
      </trkpt>
      <trkpt lat="38.66887" lon="36.31204">
        <ele>1561.751213</ele>
        <time>2022-02-26T00:28:19.284Z</time>
      </trkpt>
      <trkpt lat="38.6682" lon="36.31102">
        <ele>1560.801874</ele>
        <time>2022-02-26T00:28:44.236Z</time>
      </trkpt>
      <trkpt lat="38.66657" lon="36.30863">
        <ele>1560.737592</ele>
        <time>2022-02-26T00:29:50.686Z</time>
      </trkpt>
      <trkpt lat="38.66527" lon="36.30668">
        <ele>1561.593206</ele>
        <time>2022-02-26T00:30:50.396Z</time>
      </trkpt>
      <trkpt lat="38.66478" lon="36.30584">
        <ele>1561.860891</ele>
        <time>2022-02-26T00:31:12.649Z</time>
      </trkpt>
      <trkpt lat="38.66474" lon="36.30578">
        <ele>1561.874641</ele>
        <time>2022-02-26T00:31:13.744Z</time>
      </trkpt>
      <trkpt lat="38.66431" lon="36.30487">
        <ele>1562.072198</ele>
        <time>2022-02-26T00:31:35.601Z</time>
      </trkpt>
      <trkpt lat="38.66378" lon="36.30334">
        <ele>1563.653731</ele>
        <time>2022-02-26T00:32:18.218Z</time>
      </trkpt>
      <trkpt lat="38.66365" lon="36.30289">
        <ele>1564.252836</ele>
        <time>2022-02-26T00:32:32.120Z</time>
      </trkpt>
      <trkpt lat="38.6635" lon="36.30221">
        <ele>1565.121237</ele>
        <time>2022-02-26T00:32:53.003Z</time>
      </trkpt>
      <trkpt lat="38.66325" lon="36.30024">
        <ele>1567.420541</ele>
        <time>2022-02-26T00:33:46.974Z</time>
      </trkpt>
      <trkpt lat="38.66324" lon="36.29923">
        <ele>1567.535363</ele>
        <time>2022-02-26T00:34:08.500Z</time>
      </trkpt>
      <trkpt lat="38.66332" lon="36.29786">
        <ele>1567.258227</ele>
        <time>2022-02-26T00:34:35.687Z</time>
      </trkpt>
      <trkpt lat="38.66351" lon="36.29661">
        <ele>1564.268431</ele>
        <time>2022-02-26T00:34:57.441Z</time>
      </trkpt>
      <trkpt lat="38.66534" lon="36.28879">
        <ele>1541.724512</ele>
        <time>2022-02-26T00:36:58.476Z</time>
      </trkpt>
      <trkpt lat="38.66584" lon="36.28701">
        <ele>1534.985627</ele>
        <time>2022-02-26T00:37:25.730Z</time>
      </trkpt>
      <trkpt lat="38.66603" lon="36.28695">
        <ele>1534.091913</ele>
        <time>2022-02-26T00:37:29.479Z</time>
      </trkpt>
      <trkpt lat="38.66621" lon="36.28683">
        <ele>1532.996691</ele>
        <time>2022-02-26T00:37:33.310Z</time>
      </trkpt>
      <trkpt lat="38.66639" lon="36.2866">
        <ele>1531.507913</ele>
        <time>2022-02-26T00:37:38.178Z</time>
      </trkpt>
      <trkpt lat="38.66765" lon="36.2844">
        <ele>1518.023167</ele>
        <time>2022-02-26T00:38:17.438Z</time>
      </trkpt>
      <trkpt lat="38.66772" lon="36.28404">
        <ele>1515.924305</ele>
        <time>2022-02-26T00:38:22.601Z</time>
      </trkpt>
      <trkpt lat="38.6677" lon="36.2833">
        <ele>1511.713617</ele>
        <time>2022-02-26T00:38:32.793Z</time>
      </trkpt>
      <trkpt lat="38.6673" lon="36.28247">
        <ele>1504.28103</ele>
        <time>2022-02-26T00:38:45.954Z</time>
      </trkpt>
      <trkpt lat="38.66728" lon="36.28231">
        <ele>1502.933213</ele>
        <time>2022-02-26T00:38:48.092Z</time>
      </trkpt>
      <trkpt lat="38.66743" lon="36.28206">
        <ele>1500.274404</ele>
        <time>2022-02-26T00:38:52.295Z</time>
      </trkpt>
      <trkpt lat="38.66769" lon="36.2807">
        <ele>1489.013694</ele>
        <time>2022-02-26T00:39:10.494Z</time>
      </trkpt>
      <trkpt lat="38.66783" lon="36.2805">
        <ele>1487.090583</ele>
        <time>2022-02-26T00:39:14.124Z</time>
      </trkpt>
      <trkpt lat="38.66841" lon="36.28022">
        <ele>1481.675254</ele>
        <time>2022-02-26T00:39:24.494Z</time>
      </trkpt>
      <trkpt lat="38.66852" lon="36.28011">
        <ele>1480.457097</ele>
        <time>2022-02-26T00:39:26.958Z</time>
      </trkpt>
      <trkpt lat="38.66868" lon="36.27959">
        <ele>1476.628147</ele>
        <time>2022-02-26T00:39:34.714Z</time>
      </trkpt>
      <trkpt lat="38.66875" lon="36.27956">
        <ele>1475.9811</ele>
        <time>2022-02-26T00:39:35.929Z</time>
      </trkpt>
      <trkpt lat="38.66779" lon="36.27572">
        <ele>1471.453833</ele>
        <time>2022-02-26T00:40:55.634Z</time>
      </trkpt>
      <trkpt lat="38.66769" lon="36.27519">
        <ele>1471.095372</ele>
        <time>2022-02-26T00:41:06.489Z</time>
      </trkpt>
      <trkpt lat="38.6677" lon="36.27474">
        <ele>1470.488887</ele>
        <time>2022-02-26T00:41:14.543Z</time>
      </trkpt>
      <trkpt lat="38.66779" lon="36.27405">
        <ele>1469.245824</ele>
        <time>2022-02-26T00:41:26.337Z</time>
      </trkpt>
      <trkpt lat="38.66821" lon="36.27258">
        <ele>1466.494403</ele>
        <time>2022-02-26T00:41:51.935Z</time>
      </trkpt>
      <trkpt lat="38.66987" lon="36.26802">
        <ele>1458.37745</ele>
        <time>2022-02-26T00:43:19.867Z</time>
      </trkpt>
      <trkpt lat="38.67015" lon="36.26723">
        <ele>1456.507876</ele>
        <time>2022-02-26T00:43:33.786Z</time>
      </trkpt>
      <trkpt lat="38.67016" lon="36.26709">
        <ele>1456.200207</ele>
        <time>2022-02-26T00:43:36.128Z</time>
      </trkpt>
      <trkpt lat="38.67015" lon="36.26677">
        <ele>1455.494828</ele>
        <time>2022-02-26T00:43:41.314Z</time>
      </trkpt>
      <trkpt lat="38.67037" lon="36.26617">
        <ele>1453.991852</ele>
        <time>2022-02-26T00:43:51.368Z</time>
      </trkpt>
      <trkpt lat="38.67081" lon="36.26495">
        <ele>1450.795503</ele>
        <time>2022-02-26T00:44:11.486Z</time>
      </trkpt>
      <trkpt lat="38.671" lon="36.26431">
        <ele>1449.248104</ele>
        <time>2022-02-26T00:44:22.512Z</time>
      </trkpt>
      <trkpt lat="38.67118" lon="36.26346">
        <ele>1448.258127</ele>
        <time>2022-02-26T00:44:37.319Z</time>
      </trkpt>
      <trkpt lat="38.67127" lon="36.26283">
        <ele>1447.539639</ele>
        <time>2022-02-26T00:44:48.431Z</time>
      </trkpt>
      <trkpt lat="38.67132" lon="36.2622">
        <ele>1446.835403</ele>
        <time>2022-02-26T00:44:59.797Z</time>
      </trkpt>
      <trkpt lat="38.67135" lon="36.26139">
        <ele>1446.787159</ele>
        <time>2022-02-26T00:45:15.938Z</time>
      </trkpt>
      <trkpt lat="38.67131" lon="36.26089">
        <ele>1446.813346</ele>
        <time>2022-02-26T00:45:26.874Z</time>
      </trkpt>
      <trkpt lat="38.67107" lon="36.25773">
        <ele>1447.393042</ele>
        <time>2022-02-26T00:46:38.330Z</time>
      </trkpt>
      <trkpt lat="38.67127" lon="36.25706">
        <ele>1447.378497</ele>
        <time>2022-02-26T00:46:57.362Z</time>
      </trkpt>
      <trkpt lat="38.67125" lon="36.25683">
        <ele>1447.351566</ele>
        <time>2022-02-26T00:47:03.521Z</time>
      </trkpt>
      <trkpt lat="38.67124" lon="36.25664">
        <ele>1447.329844</ele>
        <time>2022-02-26T00:47:08.361Z</time>
      </trkpt>
      <trkpt lat="38.67123" lon="36.25644">
        <ele>1447.30587</ele>
        <time>2022-02-26T00:47:13.646Z</time>
      </trkpt>
      <trkpt lat="38.67092" lon="36.25577">
        <ele>1447.214324</ele>
        <time>2022-02-26T00:47:34.283Z</time>
      </trkpt>
      <trkpt lat="38.67072" lon="36.253">
        <ele>1447.421373</ele>
        <time>2022-02-26T00:48:33.099Z</time>
      </trkpt>
      <trkpt lat="38.66965" lon="36.23906">
        <ele>1453.201902</ele>
        <time>2022-02-26T00:53:53.676Z</time>
      </trkpt>
      <trkpt lat="38.6695" lon="36.23673">
        <ele>1453.763117</ele>
        <time>2022-02-26T00:54:44.398Z</time>
      </trkpt>
      <trkpt lat="38.66928" lon="36.23411">
        <ele>1454.197024</ele>
        <time>2022-02-26T00:55:43.470Z</time>
      </trkpt>
      <trkpt lat="38.66899" lon="36.23082">
        <ele>1452.662998</ele>
        <time>2022-02-26T00:56:46.494Z</time>
      </trkpt>
      <trkpt lat="38.6688" lon="36.22967">
        <ele>1451.36624</ele>
        <time>2022-02-26T00:57:06.579Z</time>
      </trkpt>
      <trkpt lat="38.66822" lon="36.2268">
        <ele>1447.088934</ele>
        <time>2022-02-26T00:57:54.724Z</time>
      </trkpt>
      <trkpt lat="38.66813" lon="36.22635">
        <ele>1446.485895</ele>
        <time>2022-02-26T00:58:02.719Z</time>
      </trkpt>
      <trkpt lat="38.66732" lon="36.22236">
        <ele>1443.676154</ele>
        <time>2022-02-26T00:59:19.395Z</time>
      </trkpt>
      <trkpt lat="38.66654" lon="36.2185">
        <ele>1441.736155</ele>
        <time>2022-02-26T01:00:35.541Z</time>
      </trkpt>
      <trkpt lat="38.66286" lon="36.20096">
        <ele>1431.823107</ele>
        <time>2022-02-26T01:06:15.259Z</time>
      </trkpt>
      <trkpt lat="38.66178" lon="36.19578">
        <ele>1430.640104</ele>
        <time>2022-02-26T01:08:01.453Z</time>
      </trkpt>
      <trkpt lat="38.66153" lon="36.19433">
        <ele>1430.706202</ele>
        <time>2022-02-26T01:08:33.426Z</time>
      </trkpt>
      <trkpt lat="38.66092" lon="36.19163">
        <ele>1431.309009</ele>
        <time>2022-02-26T01:09:37.564Z</time>
      </trkpt>
      <trkpt lat="38.65854" lon="36.18012">
        <ele>1428.389902</ele>
        <time>2022-02-26T01:13:32.085Z</time>
      </trkpt>
      <trkpt lat="38.65843" lon="36.1796">
        <ele>1428.148633</ele>
        <time>2022-02-26T01:13:41.764Z</time>
      </trkpt>
      <trkpt lat="38.65775" lon="36.17627">
        <ele>1426.649188</ele>
        <time>2022-02-26T01:14:46.151Z</time>
      </trkpt>
      <trkpt lat="38.65677" lon="36.17158">
        <ele>1427.8317</ele>
        <time>2022-02-26T01:16:32.421Z</time>
      </trkpt>
      <trkpt lat="38.65644" lon="36.16984">
        <ele>1429.513048</ele>
        <time>2022-02-26T01:17:19.884Z</time>
      </trkpt>
      <trkpt lat="38.65641" lon="36.16954">
        <ele>1429.916628</ele>
        <time>2022-02-26T01:17:28.252Z</time>
      </trkpt>
      <trkpt lat="38.65636" lon="36.1692">
        <ele>1430.384735</ele>
        <time>2022-02-26T01:17:37.943Z</time>
      </trkpt>
      <trkpt lat="38.65632" lon="36.168">
        <ele>1432.011597</ele>
        <time>2022-02-26T01:18:11.176Z</time>
      </trkpt>
      <trkpt lat="38.65634" lon="36.16705">
        <ele>1433.209183</ele>
        <time>2022-02-26T01:18:36.463Z</time>
      </trkpt>
      <trkpt lat="38.6566" lon="36.16545">
        <ele>1435.278971</ele>
        <time>2022-02-26T01:19:19.368Z</time>
      </trkpt>
      <trkpt lat="38.65683" lon="36.16452">
        <ele>1437.334839</ele>
        <time>2022-02-26T01:19:47.373Z</time>
      </trkpt>
      <trkpt lat="38.65713" lon="36.16373">
        <ele>1439.191762</ele>
        <time>2022-02-26T01:20:14.938Z</time>
      </trkpt>
      <trkpt lat="38.65787" lon="36.16233">
        <ele>1444.552653</ele>
        <time>2022-02-26T01:21:16.364Z</time>
      </trkpt>
      <trkpt lat="38.6582" lon="36.16177">
        <ele>1447.023595</ele>
        <time>2022-02-26T01:21:43.978Z</time>
      </trkpt>
      <trkpt lat="38.66065" lon="36.15799">
        <ele>1467.200762</ele>
        <time>2022-02-26T01:25:03.239Z</time>
      </trkpt>
      <trkpt lat="38.66089" lon="36.1576">
        <ele>1469.783461</ele>
        <time>2022-02-26T01:25:25.633Z</time>
      </trkpt>
      <trkpt lat="38.66204" lon="36.15566">
        <ele>1482.128688</ele>
        <time>2022-02-26T01:27:20.000Z</time>
      </trkpt>
      <trkpt lat="38.66241" lon="36.15501">
        <ele>1485.867529</ele>
        <time>2022-02-26T01:27:55.335Z</time>
      </trkpt>
      <trkpt lat="38.6629" lon="36.15387">
        <ele>1491.343726</ele>
        <time>2022-02-26T01:28:48.349Z</time>
      </trkpt>
      <trkpt lat="38.66339" lon="36.15218">
        <ele>1497.043101</ele>
        <time>2022-02-26T01:29:52.401Z</time>
      </trkpt>
      <trkpt lat="38.66343" lon="36.15194">
        <ele>1497.4924</ele>
        <time>2022-02-26T01:30:00.229Z</time>
      </trkpt>
      <trkpt lat="38.66358" lon="36.15096">
        <ele>1498.82909</ele>
        <time>2022-02-26T01:30:29.128Z</time>
      </trkpt>
      <trkpt lat="38.66362" lon="36.14987">
        <ele>1500.278181</ele>
        <time>2022-02-26T01:30:56.260Z</time>
      </trkpt>
      <trkpt lat="38.66362" lon="36.14905">
        <ele>1500.084509</ele>
        <time>2022-02-26T01:31:13.185Z</time>
      </trkpt>
      <trkpt lat="38.66347" lon="36.14562">
        <ele>1498.539583</ele>
        <time>2022-02-26T01:32:17.233Z</time>
      </trkpt>
      <trkpt lat="38.66343" lon="36.1446">
        <ele>1498.021261</ele>
        <time>2022-02-26T01:32:36.267Z</time>
      </trkpt>
      <trkpt lat="38.66333" lon="36.14221">
        <ele>1496.626551</ele>
        <time>2022-02-26T01:33:22.098Z</time>
      </trkpt>
      <trkpt lat="38.66294" lon="36.13183">
        <ele>1488.151773</ele>
        <time>2022-02-26T01:36:28.143Z</time>
      </trkpt>
      <trkpt lat="38.66264" lon="36.12346">
        <ele>1482.37506</ele>
        <time>2022-02-26T01:39:00.637Z</time>
      </trkpt>
      <trkpt lat="38.66259" lon="36.12162">
        <ele>1481.652438</ele>
        <time>2022-02-26T01:39:38.634Z</time>
      </trkpt>
      <trkpt lat="38.66259" lon="36.12156">
        <ele>1481.628761</ele>
        <time>2022-02-26T01:39:39.826Z</time>
      </trkpt>
      <trkpt lat="38.66244" lon="36.1215">
        <ele>1481.545427</ele>
        <time>2022-02-26T01:39:43.834Z</time>
      </trkpt>
      <trkpt lat="38.65924" lon="36.12006">
        <ele>1479.180113</ele>
        <time>2022-02-26T01:41:04.414Z</time>
      </trkpt>
      <trkpt lat="38.65888" lon="36.11989">
        <ele>1478.868131</ele>
        <time>2022-02-26T01:41:13.558Z</time>
      </trkpt>
      <trkpt lat="38.65731" lon="36.11915">
        <ele>1477.266051</ele>
        <time>2022-02-26T01:41:52.987Z</time>
      </trkpt>
      <trkpt lat="38.65746" lon="36.11851">
        <ele>1476.663617</ele>
        <time>2022-02-26T01:42:05.238Z</time>
      </trkpt>
      <trkpt lat="38.65755" lon="36.11792">
        <ele>1476.121115</ele>
        <time>2022-02-26T01:42:16.064Z</time>
      </trkpt>
      <trkpt lat="38.65755" lon="36.11745">
        <ele>1475.671198</ele>
        <time>2022-02-26T01:42:24.724Z</time>
      </trkpt>
      <trkpt lat="38.65764" lon="36.11727">
        <ele>1475.465561</ele>
        <time>2022-02-26T01:42:28.697Z</time>
      </trkpt>
      <trkpt lat="38.65772" lon="36.11706">
        <ele>1475.241204</ele>
        <time>2022-02-26T01:42:32.993Z</time>
      </trkpt>
      <trkpt lat="38.65742" lon="36.11714">
        <ele>1474.863322</ele>
        <time>2022-02-26T01:42:40.211Z</time>
      </trkpt>
      <trkpt lat="38.6572" lon="36.11712">
        <ele>1474.590055</ele>
        <time>2022-02-26T01:42:45.436Z</time>
      </trkpt>
      <trkpt lat="38.65685" lon="36.1173">
        <ele>1474.130156</ele>
        <time>2022-02-26T01:42:54.286Z</time>
      </trkpt>
      <trkpt lat="38.65637" lon="36.11752">
        <ele>1473.531237</ele>
        <time>2022-02-26T01:43:06.616Z</time>
      </trkpt>
      <trkpt lat="38.65633" lon="36.11706">
        <ele>1473.145671</ele>
        <time>2022-02-26T01:43:15.311Z</time>
      </trkpt>
      <trkpt lat="38.65631" lon="36.11655">
        <ele>1472.720827</ele>
        <time>2022-02-26T01:43:25.182Z</time>
      </trkpt>
      <trkpt lat="38.65602" lon="36.11587">
        <ele>1472.075292</ele>
        <time>2022-02-26T01:43:39.748Z</time>
      </trkpt>
      <trkpt lat="38.65592" lon="36.11549">
        <ele>1471.614883</ele>
        <time>2022-02-26T01:43:47.234Z</time>
      </trkpt>
      <trkpt lat="38.65587" lon="36.1154">
        <ele>1471.451609</ele>
        <time>2022-02-26T01:43:49.133Z</time>
      </trkpt>
      <trkpt lat="38.65577" lon="36.11523">
        <ele>1471.126222</ele>
        <time>2022-02-26T01:43:52.950Z</time>
      </trkpt>
      <trkpt lat="38.65564" lon="36.115">
        <ele>1470.699925</ele>
        <time>2022-02-26T01:43:58.017Z</time>
      </trkpt>
      <trkpt lat="38.65549" lon="36.11479">
        <ele>1470.275156</ele>
        <time>2022-02-26T01:44:03.037Z</time>
      </trkpt>
      <trkpt lat="38.65524" lon="36.11463">
        <ele>1469.726345</ele>
        <time>2022-02-26T01:44:09.285Z</time>
      </trkpt>
      <trkpt lat="38.6542" lon="36.11405">
        <ele>1466.860926</ele>
        <time>2022-02-26T01:44:33.555Z</time>
      </trkpt>
      <trkpt lat="38.65373" lon="36.11394">
        <ele>1465.236162</ele>
        <time>2022-02-26T01:44:43.270Z</time>
      </trkpt>
      <trkpt lat="38.65229" lon="36.11284">
        <ele>1459.33479</ele>
        <time>2022-02-26T01:45:16.368Z</time>
      </trkpt>
      <trkpt lat="38.65164" lon="36.11261">
        <ele>1456.863036</ele>
        <time>2022-02-26T01:45:29.849Z</time>
      </trkpt>
      <trkpt lat="38.65127" lon="36.11238">
        <ele>1455.536631</ele>
        <time>2022-02-26T01:45:38.449Z</time>
      </trkpt>
      <trkpt lat="38.65115" lon="36.11235">
        <ele>1455.345885</ele>
        <time>2022-02-26T01:45:40.864Z</time>
      </trkpt>
      <trkpt lat="38.65113" lon="36.11197">
        <ele>1454.883677</ele>
        <time>2022-02-26T01:45:52.484Z</time>
      </trkpt>
      <trkpt lat="38.65112" lon="36.11135">
        <ele>1454.152474</ele>
        <time>2022-02-26T01:46:10.841Z</time>
      </trkpt>
      <trkpt lat="38.65093" lon="36.11022">
        <ele>1452.917881</ele>
        <time>2022-02-26T01:46:48.787Z</time>
      </trkpt>
      <trkpt lat="38.65082" lon="36.10992">
        <ele>1452.905201</ele>
        <time>2022-02-26T01:47:00.771Z</time>
      </trkpt>
      <trkpt lat="38.65049" lon="36.10936">
        <ele>1452.878998</ele>
        <time>2022-02-26T01:47:24.883Z</time>
      </trkpt>
      <trkpt lat="38.65037" lon="36.10904">
        <ele>1452.865432</ele>
        <time>2022-02-26T01:47:37.147Z</time>
      </trkpt>
      <trkpt lat="38.64978" lon="36.10686">
        <ele>1453.199344</ele>
        <time>2022-02-26T01:48:57.953Z</time>
      </trkpt>
      <trkpt lat="38.6497" lon="36.10652">
        <ele>1453.28292</ele>
        <time>2022-02-26T01:49:10.747Z</time>
      </trkpt>
      <trkpt lat="38.64965" lon="36.10593">
        <ele>1453.51522</ele>
        <time>2022-02-26T01:49:33.304Z</time>
      </trkpt>
      <trkpt lat="38.64964" lon="36.10535">
        <ele>1453.990973</ele>
        <time>2022-02-26T01:49:55.892Z</time>
      </trkpt>
      <trkpt lat="38.64978" lon="36.10446">
        <ele>1454.719903</ele>
        <time>2022-02-26T01:50:31.302Z</time>
      </trkpt>
      <trkpt lat="38.64989" lon="36.10419">
        <ele>1454.972962</ele>
        <time>2022-02-26T01:50:43.614Z</time>
      </trkpt>
      <trkpt lat="38.65063" lon="36.10325">
        <ele>1455.767578</ele>
        <time>2022-02-26T01:51:34.067Z</time>
      </trkpt>
      <trkpt lat="38.6514" lon="36.10201">
        <ele>1456.496663</ele>
        <time>2022-02-26T01:52:32.082Z</time>
      </trkpt>
      <trkpt lat="38.65187" lon="36.10152">
        <ele>1456.631142</ele>
        <time>2022-02-26T01:53:00.000Z</time>
      </trkpt>
      <trkpt lat="38.65306" lon="36.09963">
        <ele>1456.504437</ele>
        <time>2022-02-26T01:54:25.138Z</time>
      </trkpt>
      <trkpt lat="38.65404" lon="36.09768">
        <ele>1455.374854</ele>
        <time>2022-02-26T01:55:39.660Z</time>
      </trkpt>
      <trkpt lat="38.655" lon="36.09521">
        <ele>1453.44337</ele>
        <time>2022-02-26T01:57:07.736Z</time>
      </trkpt>
      <trkpt lat="38.65517" lon="36.09417">
        <ele>1452.558294</ele>
        <time>2022-02-26T01:57:41.381Z</time>
      </trkpt>
      <trkpt lat="38.65525" lon="36.09311">
        <ele>1451.466539</ele>
        <time>2022-02-26T01:58:14.502Z</time>
      </trkpt>
      <trkpt lat="38.65525" lon="36.09142">
        <ele>1450.035818</ele>
        <time>2022-02-26T01:59:05.773Z</time>
      </trkpt>
      <trkpt lat="38.65514" lon="36.09081">
        <ele>1449.617599</ele>
        <time>2022-02-26T01:59:25.323Z</time>
      </trkpt>
      <trkpt lat="38.65497" lon="36.09008">
        <ele>1449.100064</ele>
        <time>2022-02-26T01:59:50.767Z</time>
      </trkpt>
      <trkpt lat="38.65514" lon="36.09081">
        <ele>1449.572359</ele>
        <time>2022-02-26T02:00:18.485Z</time>
      </trkpt>
      <trkpt lat="38.65525" lon="36.09142">
        <ele>1450.030753</ele>
        <time>2022-02-26T02:00:42.329Z</time>
      </trkpt>
      <trkpt lat="38.65525" lon="36.09311">
        <ele>1451.467803</ele>
        <time>2022-02-26T02:01:51.025Z</time>
      </trkpt>
      <trkpt lat="38.65517" lon="36.09417">
        <ele>1452.540914</ele>
        <time>2022-02-26T02:02:33.540Z</time>
      </trkpt>
      <trkpt lat="38.655" lon="36.09521">
        <ele>1453.452075</ele>
        <time>2022-02-26T02:03:14.291Z</time>
      </trkpt>
      <trkpt lat="38.65404" lon="36.09768">
        <ele>1455.373823</ele>
        <time>2022-02-26T02:04:59.070Z</time>
      </trkpt>
      <trkpt lat="38.65306" lon="36.09963">
        <ele>1456.509121</ele>
        <time>2022-02-26T02:06:26.928Z</time>
      </trkpt>
      <trkpt lat="38.65187" lon="36.10152">
        <ele>1456.627144</ele>
        <time>2022-02-26T02:07:50.807Z</time>
      </trkpt>
      <trkpt lat="38.6514" lon="36.10201">
        <ele>1456.477805</ele>
        <time>2022-02-26T02:08:16.481Z</time>
      </trkpt>
      <trkpt lat="38.65063" lon="36.10325">
        <ele>1455.76208</ele>
        <time>2022-02-26T02:09:08.576Z</time>
      </trkpt>
      <trkpt lat="38.64989" lon="36.10419">
        <ele>1454.978439</ele>
        <time>2022-02-26T02:09:51.505Z</time>
      </trkpt>
      <trkpt lat="38.64978" lon="36.10446">
        <ele>1454.719437</ele>
        <time>2022-02-26T02:10:01.181Z</time>
      </trkpt>
      <trkpt lat="38.64964" lon="36.10535">
        <ele>1453.973389</ele>
        <time>2022-02-26T02:10:29.191Z</time>
      </trkpt>
      <trkpt lat="38.64965" lon="36.10593">
        <ele>1453.486464</ele>
        <time>2022-02-26T02:10:47.771Z</time>
      </trkpt>
      <trkpt lat="38.6497" lon="36.10652">
        <ele>1453.063224</ele>
        <time>2022-02-26T02:11:06.556Z</time>
      </trkpt>
      <trkpt lat="38.64958" lon="36.10622">
        <ele>1452.858006</ele>
        <time>2022-02-26T02:11:17.599Z</time>
      </trkpt>
      <trkpt lat="38.64915" lon="36.10511">
        <ele>1452.115897</ele>
        <time>2022-02-26T02:11:57.409Z</time>
      </trkpt>
      <trkpt lat="38.64893" lon="36.10408">
        <ele>1451.507068</ele>
        <time>2022-02-26T02:12:32.796Z</time>
      </trkpt>
      <trkpt lat="38.64741" lon="36.10139">
        <ele>1449.430794</ele>
        <time>2022-02-26T02:14:19.814Z</time>
      </trkpt>
      <trkpt lat="38.64693" lon="36.10061">
        <ele>1448.380201</ele>
        <time>2022-02-26T02:14:50.952Z</time>
      </trkpt>
      <trkpt lat="38.64639" lon="36.09996">
        <ele>1446.740604</ele>
        <time>2022-02-26T02:15:19.612Z</time>
      </trkpt>
      <trkpt lat="38.64572" lon="36.09945">
        <ele>1445.034635</ele>
        <time>2022-02-26T02:15:47.661Z</time>
      </trkpt>
      <trkpt lat="38.64537" lon="36.09912">
        <ele>1443.340875</ele>
        <time>2022-02-26T02:16:02.558Z</time>
      </trkpt>
      <trkpt lat="38.64507" lon="36.09873">
        <ele>1441.64357</ele>
        <time>2022-02-26T02:16:17.196Z</time>
      </trkpt>
      <trkpt lat="38.64464" lon="36.09784">
        <ele>1438.411804</ele>
        <time>2022-02-26T02:16:44.717Z</time>
      </trkpt>
      <trkpt lat="38.64415" lon="36.09704">
        <ele>1435.81571</ele>
        <time>2022-02-26T02:17:11.940Z</time>
      </trkpt>
      <trkpt lat="38.64402" lon="36.09675">
        <ele>1434.998655</ele>
        <time>2022-02-26T02:17:21.114Z</time>
      </trkpt>
      <trkpt lat="38.64394" lon="36.09643">
        <ele>1434.183844</ele>
        <time>2022-02-26T02:17:30.460Z</time>
      </trkpt>
      <trkpt lat="38.64349" lon="36.09543">
        <ele>1431.956625</ele>
        <time>2022-02-26T02:18:04.272Z</time>
      </trkpt>
      <trkpt lat="38.64342" lon="36.09507">
        <ele>1431.629874</ele>
        <time>2022-02-26T02:18:15.638Z</time>
      </trkpt>
      <trkpt lat="38.64335" lon="36.09231">
        <ele>1429.18697</ele>
        <time>2022-02-26T02:19:44.927Z</time>
      </trkpt>
      <trkpt lat="38.64315" lon="36.09118">
        <ele>1428.152673</ele>
        <time>2022-02-26T02:20:20.427Z</time>
      </trkpt>
      <trkpt lat="38.64307" lon="36.0907">
        <ele>1427.606049</ele>
        <time>2022-02-26T02:20:35.157Z</time>
      </trkpt>
      <trkpt lat="38.64305" lon="36.09059">
        <ele>1427.479735</ele>
        <time>2022-02-26T02:20:38.453Z</time>
      </trkpt>
      <trkpt lat="38.64299" lon="36.09021">
        <ele>1427.043744</ele>
        <time>2022-02-26T02:20:50.243Z</time>
      </trkpt>
      <trkpt lat="38.64294" lon="36.08989">
        <ele>1426.673939</ele>
        <time>2022-02-26T02:21:00.244Z</time>
      </trkpt>
      <trkpt lat="38.6427" lon="36.088">
        <ele>1424.964053</ele>
        <time>2022-02-26T02:21:59.933Z</time>
      </trkpt>
      <trkpt lat="38.64246" lon="36.08678">
        <ele>1424.111448</ele>
        <time>2022-02-26T02:22:40.785Z</time>
      </trkpt>
      <trkpt lat="38.64228" lon="36.0862">
        <ele>1423.800626</ele>
        <time>2022-02-26T02:23:01.184Z</time>
      </trkpt>
      <trkpt lat="38.64138" lon="36.08398">
        <ele>1422.938339</ele>
        <time>2022-02-26T02:24:22.934Z</time>
      </trkpt>
      <trkpt lat="38.64127" lon="36.08367">
        <ele>1422.921632</ele>
        <time>2022-02-26T02:24:34.574Z</time>
      </trkpt>
      <trkpt lat="38.64121" lon="36.08349">
        <ele>1422.911902</ele>
        <time>2022-02-26T02:24:41.486Z</time>
      </trkpt>
      <trkpt lat="38.64071" lon="36.08167">
        <ele>1423.330897</ele>
        <time>2022-02-26T02:25:51.667Z</time>
      </trkpt>
      <trkpt lat="38.64005" lon="36.08029">
        <ele>1424.088323</ele>
        <time>2022-02-26T02:26:52.708Z</time>
      </trkpt>
      <trkpt lat="38.63953" lon="36.07958">
        <ele>1424.396703</ele>
        <time>2022-02-26T02:27:27.999Z</time>
      </trkpt>
      <trkpt lat="38.63873" lon="36.07869">
        <ele>1424.79784</ele>
        <time>2022-02-26T02:28:16.219Z</time>
      </trkpt>
      <trkpt lat="38.63844" lon="36.07846">
        <ele>1424.888782</ele>
        <time>2022-02-26T02:28:32.114Z</time>
      </trkpt>
      <trkpt lat="38.63807" lon="36.07827">
        <ele>1424.989937</ele>
        <time>2022-02-26T02:28:49.864Z</time>
      </trkpt>
      <trkpt lat="38.63763" lon="36.07804">
        <ele>1425.114034</ele>
        <time>2022-02-26T02:29:11.787Z</time>
      </trkpt>
      <trkpt lat="38.63669" lon="36.07771">
        <ele>1425.370604</ele>
        <time>2022-02-26T02:29:56.875Z</time>
      </trkpt>
      <trkpt lat="38.63589" lon="36.07721">
        <ele>1425.611984</ele>
        <time>2022-02-26T02:30:38.304Z</time>
      </trkpt>
      <trkpt lat="38.63568" lon="36.07706">
        <ele>1425.676376</ele>
        <time>2022-02-26T02:30:49.116Z</time>
      </trkpt>
      <trkpt lat="38.63515" lon="36.0764">
        <ele>1425.376468</ele>
        <time>2022-02-26T02:31:20.748Z</time>
      </trkpt>
      <trkpt lat="38.63437" lon="36.07577">
        <ele>1424.945848</ele>
        <time>2022-02-26T02:31:59.440Z</time>
      </trkpt>
      <trkpt lat="38.6341" lon="36.0755">
        <ele>1424.761149</ele>
        <time>2022-02-26T02:32:13.880Z</time>
      </trkpt>
      <trkpt lat="38.63397" lon="36.07534">
        <ele>1424.650326</ele>
        <time>2022-02-26T02:32:21.168Z</time>
      </trkpt>
      <trkpt lat="38.63364" lon="36.07493">
        <ele>1424.364868</ele>
        <time>2022-02-26T02:32:40.440Z</time>
      </trkpt>
      <trkpt lat="38.63254" lon="36.07343">
        <ele>1423.482591</ele>
        <time>2022-02-26T02:33:47.933Z</time>
      </trkpt>
      <trkpt lat="38.63209" lon="36.07199">
        <ele>1422.968052</ele>
        <time>2022-02-26T02:34:39.539Z</time>
      </trkpt>
      <trkpt lat="38.63184" lon="36.07132">
        <ele>1423.034729</ele>
        <time>2022-02-26T02:35:05.120Z</time>
      </trkpt>
      <trkpt lat="38.63144" lon="36.071">
        <ele>1423.089718</ele>
        <time>2022-02-26T02:35:26.899Z</time>
      </trkpt>
      <trkpt lat="38.63123" lon="36.07071">
        <ele>1423.124948</ele>
        <time>2022-02-26T02:35:41.181Z</time>
      </trkpt>
      <trkpt lat="38.63097" lon="36.07018">
        <ele>1423.092949</ele>
        <time>2022-02-26T02:36:04.470Z</time>
      </trkpt>
      <trkpt lat="38.63081" lon="36.06971">
        <ele>1422.504237</ele>
        <time>2022-02-26T02:36:22.025Z</time>
      </trkpt>
      <trkpt lat="38.6307" lon="36.06944">
        <ele>1422.155673</ele>
        <time>2022-02-26T02:36:31.377Z</time>
      </trkpt>
      <trkpt lat="38.63055" lon="36.0692">
        <ele>1421.807578</ele>
        <time>2022-02-26T02:36:40.380Z</time>
      </trkpt>
      <trkpt lat="38.63035" lon="36.06898">
        <ele>1421.421629</ele>
        <time>2022-02-26T02:36:50.694Z</time>
      </trkpt>
      <trkpt lat="38.63031" lon="36.06894">
        <ele>1421.342963</ele>
        <time>2022-02-26T02:36:52.592Z</time>
      </trkpt>
      <trkpt lat="38.63021" lon="36.06867">
        <ele>1421.003475</ele>
        <time>2022-02-26T02:37:01.466Z</time>
      </trkpt>
      <trkpt lat="38.6302" lon="36.06858">
        <ele>1420.898143</ele>
        <time>2022-02-26T02:37:04.166Z</time>
      </trkpt>
      <trkpt lat="38.6302" lon="36.06802">
        <ele>1420.050852</ele>
        <time>2022-02-26T02:37:19.951Z</time>
      </trkpt>
      <trkpt lat="38.63035" lon="36.06783">
        <ele>1419.535975</ele>
        <time>2022-02-26T02:37:27.526Z</time>
      </trkpt>
      <trkpt lat="38.63044" lon="36.06765">
        <ele>1419.111722</ele>
        <time>2022-02-26T02:37:33.482Z</time>
      </trkpt>
      <trkpt lat="38.63102" lon="36.06656">
        <ele>1416.536379</ele>
        <time>2022-02-26T02:38:10.394Z</time>
      </trkpt>
      <trkpt lat="38.63148" lon="36.06588">
        <ele>1415.901182</ele>
        <time>2022-02-26T02:38:38.557Z</time>
      </trkpt>
      <trkpt lat="38.6315" lon="36.06576">
        <ele>1415.87074</ele>
        <time>2022-02-26T02:38:42.751Z</time>
      </trkpt>
      <trkpt lat="38.6315" lon="36.06557">
        <ele>1415.82673</ele>
        <time>2022-02-26T02:38:48.930Z</time>
      </trkpt>
      <trkpt lat="38.63146" lon="36.06547">
        <ele>1415.799667</ele>
        <time>2022-02-26T02:38:52.989Z</time>
      </trkpt>
      <trkpt lat="38.6309" lon="36.06464">
        <ele>1415.535457</ele>
        <time>2022-02-26T02:39:31.716Z</time>
      </trkpt>
      <trkpt lat="38.63017" lon="36.06408">
        <ele>1416.376568</ele>
        <time>2022-02-26T02:40:13.949Z</time>
      </trkpt>
      <trkpt lat="38.63003" lon="36.0638">
        <ele>1416.68634</ele>
        <time>2022-02-26T02:40:27.525Z</time>
      </trkpt>
      <trkpt lat="38.63002" lon="36.0636">
        <ele>1416.865602</ele>
        <time>2022-02-26T02:40:35.592Z</time>
      </trkpt>
      <trkpt lat="38.6301" lon="36.06337">
        <ele>1417.098934</ele>
        <time>2022-02-26T02:40:45.460Z</time>
      </trkpt>
      <trkpt lat="38.63017" lon="36.06325">
        <ele>1417.237363</ele>
        <time>2022-02-26T02:40:49.642Z</time>
      </trkpt>
      <trkpt lat="38.63023" lon="36.0629">
        <ele>1417.562042</ele>
        <time>2022-02-26T02:40:58.409Z</time>
      </trkpt>
      <trkpt lat="38.6302" lon="36.06263">
        <ele>1417.982993</ele>
        <time>2022-02-26T02:41:06.126Z</time>
      </trkpt>
      <trkpt lat="38.63008" lon="36.06215">
        <ele>1418.821052</ele>
        <time>2022-02-26T02:41:20.265Z</time>
      </trkpt>
      <trkpt lat="38.63058" lon="36.06208">
        <ele>1419.900687</ele>
        <time>2022-02-26T02:41:39.022Z</time>
      </trkpt>
      <trkpt lat="38.63091" lon="36.06212">
        <ele>1420.601814</ele>
        <time>2022-02-26T02:41:51.553Z</time>
      </trkpt>
      <trkpt lat="38.6309" lon="36.06175">
        <ele>1421.216817</ele>
        <time>2022-02-26T02:42:03.691Z</time>
      </trkpt>
      <trkpt lat="38.63077" lon="36.06132">
        <ele>1422.39093</ele>
        <time>2022-02-26T02:42:19.012Z</time>
      </trkpt>
      <trkpt lat="38.63122" lon="36.06101">
        <ele>1424.325774</ele>
        <time>2022-02-26T02:42:42.202Z</time>
      </trkpt>
      <trkpt lat="38.63146" lon="36.06067">
        <ele>1425.678006</ele>
        <time>2022-02-26T02:42:59.493Z</time>
      </trkpt>
      <trkpt lat="38.63185" lon="36.06018">
        <ele>1427.705502</ele>
        <time>2022-02-26T02:43:26.077Z</time>
      </trkpt>
      <trkpt lat="38.63209" lon="36.05988">
        <ele>1428.734658</ele>
        <time>2022-02-26T02:43:41.991Z</time>
      </trkpt>
      <trkpt lat="38.63287" lon="36.05858">
        <ele>1432.066161</ele>
        <time>2022-02-26T02:44:36.391Z</time>
      </trkpt>
      <trkpt lat="38.63341" lon="36.05785">
        <ele>1432.612732</ele>
        <time>2022-02-26T02:44:59.182Z</time>
      </trkpt>
      <trkpt lat="38.63362" lon="36.05738">
        <ele>1432.382899</ele>
        <time>2022-02-26T02:45:09.858Z</time>
      </trkpt>
      <trkpt lat="38.63365" lon="36.0572">
        <ele>1432.301452</ele>
        <time>2022-02-26T02:45:13.405Z</time>
      </trkpt>
      <trkpt lat="38.63411" lon="36.05704">
        <ele>1432.039253</ele>
        <time>2022-02-26T02:45:24.232Z</time>
      </trkpt>
      <trkpt lat="38.63855" lon="36.05549">
        <ele>1425.228127</ele>
        <time>2022-02-26T02:47:04.602Z</time>
      </trkpt>
      <trkpt lat="38.63872" lon="36.05542">
        <ele>1425.023356</ele>
        <time>2022-02-26T02:47:08.508Z</time>
      </trkpt>
      <trkpt lat="38.63922" lon="36.05524">
        <ele>1424.404492</ele>
        <time>2022-02-26T02:47:20.684Z</time>
      </trkpt>
      <trkpt lat="38.64424" lon="36.05349">
        <ele>1421.163122</ele>
        <time>2022-02-26T02:49:25.636Z</time>
      </trkpt>
      <trkpt lat="38.6451" lon="36.05302">
        <ele>1421.391008</ele>
        <time>2022-02-26T02:49:53.316Z</time>
      </trkpt>
      <trkpt lat="38.6452" lon="36.05294">
        <ele>1421.507682</ele>
        <time>2022-02-26T02:49:57.029Z</time>
      </trkpt>
      <trkpt lat="38.64536" lon="36.05281">
        <ele>1421.682278</ele>
        <time>2022-02-26T02:50:02.846Z</time>
      </trkpt>
      <trkpt lat="38.64581" lon="36.05222">
        <ele>1422.311633</ele>
        <time>2022-02-26T02:50:23.875Z</time>
      </trkpt>
      <trkpt lat="38.64695" lon="36.05022">
        <ele>1424.408184</ele>
        <time>2022-02-26T02:51:26.430Z</time>
      </trkpt>
      <trkpt lat="38.65088" lon="36.04292">
        <ele>1431.116377</ele>
        <time>2022-02-26T02:55:01.662Z</time>
      </trkpt>
      <trkpt lat="38.65182" lon="36.04126">
        <ele>1433.15821</ele>
        <time>2022-02-26T02:55:55.690Z</time>
      </trkpt>
      <trkpt lat="38.65266" lon="36.03983">
        <ele>1434.824897</ele>
        <time>2022-02-26T02:56:41.948Z</time>
      </trkpt>
      <trkpt lat="38.65349" lon="36.03855">
        <ele>1435.93945</ele>
        <time>2022-02-26T02:57:21.495Z</time>
      </trkpt>
      <trkpt lat="38.65417" lon="36.03776">
        <ele>1436.038117</ele>
        <time>2022-02-26T02:57:47.076Z</time>
      </trkpt>
      <trkpt lat="38.65735" lon="36.03451">
        <ele>1435.455472</ele>
        <time>2022-02-26T02:59:31.360Z</time>
      </trkpt>
      <trkpt lat="38.65749" lon="36.03436">
        <ele>1435.421684</ele>
        <time>2022-02-26T02:59:36.565Z</time>
      </trkpt>
      <trkpt lat="38.65702" lon="36.03123">
        <ele>1434.910129</ele>
        <time>2022-02-26T03:00:42.223Z</time>
      </trkpt>
      <trkpt lat="38.65618" lon="36.02572">
        <ele>1432.218563</ele>
        <time>2022-02-26T03:02:28.084Z</time>
      </trkpt>
      <trkpt lat="38.65539" lon="36.02055">
        <ele>1428.815831</ele>
        <time>2022-02-26T03:04:04.575Z</time>
      </trkpt>
      <trkpt lat="38.65503" lon="36.01823">
        <ele>1428.223114</ele>
        <time>2022-02-26T03:04:50.532Z</time>
      </trkpt>
      <trkpt lat="38.65483" lon="36.01693">
        <ele>1429.193</ele>
        <time>2022-02-26T03:05:20.737Z</time>
      </trkpt>
      <trkpt lat="38.65356" lon="36.00832">
        <ele>1441.121195</ele>
        <time>2022-02-26T03:09:27.725Z</time>
      </trkpt>
      <trkpt lat="38.65312" lon="36.00529">
        <ele>1441.905447</ele>
        <time>2022-02-26T03:10:34.708Z</time>
      </trkpt>
      <trkpt lat="38.65251" lon="36.00114">
        <ele>1438.558263</ele>
        <time>2022-02-26T03:11:49.728Z</time>
      </trkpt>
      <trkpt lat="38.65239" lon="36.00033">
        <ele>1437.792981</ele>
        <time>2022-02-26T03:12:04.033Z</time>
      </trkpt>
      <trkpt lat="38.65205" lon="35.99801">
        <ele>1436.057554</ele>
        <time>2022-02-26T03:12:46.804Z</time>
      </trkpt>
      <trkpt lat="38.65178" lon="35.99624">
        <ele>1435.796183</ele>
        <time>2022-02-26T03:13:22.730Z</time>
      </trkpt>
      <trkpt lat="38.65158" lon="35.99448">
        <ele>1436.237098</ele>
        <time>2022-02-26T03:14:02.746Z</time>
      </trkpt>
      <trkpt lat="38.65153" lon="35.99416">
        <ele>1436.367843</ele>
        <time>2022-02-26T03:14:10.297Z</time>
      </trkpt>
      <trkpt lat="38.65129" lon="35.9929">
        <ele>1436.781651</ele>
        <time>2022-02-26T03:14:40.949Z</time>
      </trkpt>
      <trkpt lat="38.64773" lon="35.96885">
        <ele>1441.817675</ele>
        <time>2022-02-26T03:23:34.272Z</time>
      </trkpt>
      <trkpt lat="38.64761" lon="35.96771">
        <ele>1441.769491</ele>
        <time>2022-02-26T03:23:58.467Z</time>
      </trkpt>
      <trkpt lat="38.64756" lon="35.96742">
        <ele>1441.738851</ele>
        <time>2022-02-26T03:24:04.221Z</time>
      </trkpt>
      <trkpt lat="38.64739" lon="35.96659">
        <ele>1441.649895</ele>
        <time>2022-02-26T03:24:21.479Z</time>
      </trkpt>
      <trkpt lat="38.64627" lon="35.95913">
        <ele>1440.192125</ele>
        <time>2022-02-26T03:26:52.497Z</time>
      </trkpt>
      <trkpt lat="38.64566" lon="35.95496">
        <ele>1440.864744</ele>
        <time>2022-02-26T03:28:25.498Z</time>
      </trkpt>
      <trkpt lat="38.64521" lon="35.95198">
        <ele>1441.072953</ele>
        <time>2022-02-26T03:29:29.872Z</time>
      </trkpt>
      <trkpt lat="38.64408" lon="35.94426">
        <ele>1440.571158</ele>
        <time>2022-02-26T03:32:11.011Z</time>
      </trkpt>
      <trkpt lat="38.64393" lon="35.94287">
        <ele>1440.54312</ele>
        <time>2022-02-26T03:32:39.341Z</time>
      </trkpt>
      <trkpt lat="38.64332" lon="35.93534">
        <ele>1440.946474</ele>
        <time>2022-02-26T03:35:18.951Z</time>
      </trkpt>
      <trkpt lat="38.64315" lon="35.93319">
        <ele>1441.582975</ele>
        <time>2022-02-26T03:36:07.570Z</time>
      </trkpt>
      <trkpt lat="38.64295" lon="35.93063">
        <ele>1442.405657</ele>
        <time>2022-02-26T03:37:06.812Z</time>
      </trkpt>
      <trkpt lat="38.64247" lon="35.9243">
        <ele>1442.338935</ele>
        <time>2022-02-26T03:39:16.265Z</time>
      </trkpt>
      <trkpt lat="38.64196" lon="35.91898">
        <ele>1443.413631</ele>
        <time>2022-02-26T03:41:15.699Z</time>
      </trkpt>
      <trkpt lat="38.64154" lon="35.91366">
        <ele>1443.074828</ele>
        <time>2022-02-26T03:43:04.129Z</time>
      </trkpt>
      <trkpt lat="38.64097" lon="35.90647">
        <ele>1443.652545</ele>
        <time>2022-02-26T03:45:37.054Z</time>
      </trkpt>
      <trkpt lat="38.64088" lon="35.90541">
        <ele>1443.978591</ele>
        <time>2022-02-26T03:46:00.759Z</time>
      </trkpt>
      <trkpt lat="38.64077" lon="35.90326">
        <ele>1445.026447</ele>
        <time>2022-02-26T03:46:51.484Z</time>
      </trkpt>
      <trkpt lat="38.64056" lon="35.90144">
        <ele>1445.996743</ele>
        <time>2022-02-26T03:47:35.453Z</time>
      </trkpt>
      <trkpt lat="38.64029" lon="35.89808">
        <ele>1447.540957</ele>
        <time>2022-02-26T03:48:52.284Z</time>
      </trkpt>
      <trkpt lat="38.64024" lon="35.89746">
        <ele>1447.866248</ele>
        <time>2022-02-26T03:49:06.960Z</time>
      </trkpt>
      <trkpt lat="38.64012" lon="35.89594">
        <ele>1448.723711</ele>
        <time>2022-02-26T03:49:43.308Z</time>
      </trkpt>
      <trkpt lat="38.63958" lon="35.88919">
        <ele>1451.870981</ele>
        <time>2022-02-26T03:52:18.604Z</time>
      </trkpt>
      <trkpt lat="38.63933" lon="35.88598">
        <ele>1454.246255</ele>
        <time>2022-02-26T03:53:38.644Z</time>
      </trkpt>
      <trkpt lat="38.63917" lon="35.88404">
        <ele>1455.609228</ele>
        <time>2022-02-26T03:54:26.034Z</time>
      </trkpt>
      <trkpt lat="38.63897" lon="35.88155">
        <ele>1456.828572</ele>
        <time>2022-02-26T03:55:23.527Z</time>
      </trkpt>
      <trkpt lat="38.63874" lon="35.87864">
        <ele>1458.192602</ele>
        <time>2022-02-26T03:56:31.385Z</time>
      </trkpt>
      <trkpt lat="38.63865" lon="35.87751">
        <ele>1458.646556</ele>
        <time>2022-02-26T03:56:56.944Z</time>
      </trkpt>
      <trkpt lat="38.63861" lon="35.877">
        <ele>1458.914143</ele>
        <time>2022-02-26T03:57:08.045Z</time>
      </trkpt>
      <trkpt lat="38.63845" lon="35.87496">
        <ele>1460.249425</ele>
        <time>2022-02-26T03:57:56.126Z</time>
      </trkpt>
      <trkpt lat="38.63787" lon="35.86775">
        <ele>1471.820022</ele>
        <time>2022-02-26T04:01:26.253Z</time>
      </trkpt>
      <trkpt lat="38.63711" lon="35.85831">
        <ele>1480.744289</ele>
        <time>2022-02-26T04:05:25.205Z</time>
      </trkpt>
      <trkpt lat="38.63684" lon="35.85687">
        <ele>1482.176142</ele>
        <time>2022-02-26T04:06:02.790Z</time>
      </trkpt>
      <trkpt lat="38.63623" lon="35.85465">
        <ele>1485.038109</ele>
        <time>2022-02-26T04:07:04.604Z</time>
      </trkpt>
      <trkpt lat="38.63601" lon="35.85361">
        <ele>1486.936263</ele>
        <time>2022-02-26T04:07:36.587Z</time>
      </trkpt>
      <trkpt lat="38.63573" lon="35.85293">
        <ele>1488.340737</ele>
        <time>2022-02-26T04:08:00.197Z</time>
      </trkpt>
      <trkpt lat="38.63561" lon="35.85256">
        <ele>1489.067695</ele>
        <time>2022-02-26T04:08:12.592Z</time>
      </trkpt>
      <trkpt lat="38.62749" lon="35.82519">
        <ele>1537.078475</ele>
        <time>2022-02-26T04:22:16.022Z</time>
      </trkpt>
      <trkpt lat="38.62709" lon="35.82356">
        <ele>1538.135503</ele>
        <time>2022-02-26T04:22:55.930Z</time>
      </trkpt>
      <trkpt lat="38.627" lon="35.82329">
        <ele>1538.145461</ele>
        <time>2022-02-26T04:23:02.144Z</time>
      </trkpt>
      <trkpt lat="38.62699" lon="35.82325">
        <ele>1538.146965</ele>
        <time>2022-02-26T04:23:02.900Z</time>
      </trkpt>
      <trkpt lat="38.62687" lon="35.82318">
        <ele>1538.152731</ele>
        <time>2022-02-26T04:23:06.348Z</time>
      </trkpt>
      <trkpt lat="38.62683" lon="35.82319">
        <ele>1538.154256</ele>
        <time>2022-02-26T04:23:07.108Z</time>
      </trkpt>
      <trkpt lat="38.6268" lon="35.82321">
        <ele>1538.155735</ele>
        <time>2022-02-26T04:23:07.982Z</time>
      </trkpt>
      <trkpt lat="38.62675" lon="35.82337">
        <ele>1538.161487</ele>
        <time>2022-02-26T04:23:11.580Z</time>
      </trkpt>
      <trkpt lat="38.62676" lon="35.82341">
        <ele>1538.162988</ele>
        <time>2022-02-26T04:23:12.333Z</time>
      </trkpt>
      <trkpt lat="38.62683" lon="35.82366">
        <ele>1538.172246</ele>
        <time>2022-02-26T04:23:17.543Z</time>
      </trkpt>
      <trkpt lat="38.62737" lon="35.82525">
        <ele>1537.626774</ele>
        <time>2022-02-26T04:23:50.210Z</time>
      </trkpt>
      <trkpt lat="38.62963" lon="35.83288">
        <ele>1534.936186</ele>
        <time>2022-02-26T04:26:31.129Z</time>
      </trkpt>
      <trkpt lat="38.63092" lon="35.83723">
        <ele>1529.640272</ele>
        <time>2022-02-26T04:27:51.007Z</time>
      </trkpt>
      <trkpt lat="38.63302" lon="35.84427">
        <ele>1516.182426</ele>
        <time>2022-02-26T04:29:53.560Z</time>
      </trkpt>
      <trkpt lat="38.63409" lon="35.84787">
        <ele>1505.346501</ele>
        <time>2022-02-26T04:30:50.627Z</time>
      </trkpt>
      <trkpt lat="38.63547" lon="35.85268">
        <ele>1490.734297</ele>
        <time>2022-02-26T04:32:05.925Z</time>
      </trkpt>
      <trkpt lat="38.63571" lon="35.85357">
        <ele>1489.344709</ele>
        <time>2022-02-26T04:32:22.200Z</time>
      </trkpt>
      <trkpt lat="38.63577" lon="35.85372">
        <ele>1489.098268</ele>
        <time>2022-02-26T04:32:25.212Z</time>
      </trkpt>
      <trkpt lat="38.63578" lon="35.85376">
        <ele>1489.035773</ele>
        <time>2022-02-26T04:32:26.296Z</time>
      </trkpt>
      <trkpt lat="38.63594" lon="35.85382">
        <ele>1488.736441</ele>
        <time>2022-02-26T04:32:30.472Z</time>
      </trkpt>
      <trkpt lat="38.63602" lon="35.85365">
        <ele>1488.511735</ele>
        <time>2022-02-26T04:32:34.474Z</time>
      </trkpt>
      <trkpt lat="38.63601" lon="35.85361">
        <ele>1488.561215</ele>
        <time>2022-02-26T04:32:35.632Z</time>
      </trkpt>
      <trkpt lat="38.63573" lon="35.85293">
        <ele>1489.422016</ele>
        <time>2022-02-26T04:32:54.340Z</time>
      </trkpt>
      <trkpt lat="38.63561" lon="35.85256">
        <ele>1489.867568</ele>
        <time>2022-02-26T04:33:05.390Z</time>
      </trkpt>
      <trkpt lat="38.62749" lon="35.82519">
        <ele>1537.066058</ele>
        <time>2022-02-26T04:47:08.283Z</time>
      </trkpt>
      <trkpt lat="38.62709" lon="35.82356">
        <ele>1538.280858</ele>
        <time>2022-02-26T04:47:47.514Z</time>
      </trkpt>
      <trkpt lat="38.627" lon="35.82329">
        <ele>1538.228322</ele>
        <time>2022-02-26T04:47:53.606Z</time>
      </trkpt>
      <trkpt lat="38.6269" lon="35.82297">
        <ele>1538.1542</ele>
        <time>2022-02-26T04:48:00.390Z</time>
      </trkpt>
      <trkpt lat="38.62641" lon="35.82157">
        <ele>1537.830424</ele>
        <time>2022-02-26T04:48:29.844Z</time>
      </trkpt>
      <trkpt lat="38.62488" lon="35.81638">
        <ele>1536.497175</ele>
        <time>2022-02-26T04:50:20.714Z</time>
      </trkpt>
      <trkpt lat="38.62451" lon="35.81479">
        <ele>1535.786609</ele>
        <time>2022-02-26T04:50:51.724Z</time>
      </trkpt>
      <trkpt lat="38.62431" lon="35.81331">
        <ele>1535.284835</ele>
        <time>2022-02-26T04:51:20.621Z</time>
      </trkpt>
      <trkpt lat="38.62423" lon="35.81194">
        <ele>1534.989059</ele>
        <time>2022-02-26T04:51:48.709Z</time>
      </trkpt>
      <trkpt lat="38.62429" lon="35.81026">
        <ele>1534.759005</ele>
        <time>2022-02-26T04:52:23.578Z</time>
      </trkpt>
      <trkpt lat="38.62443" lon="35.809">
        <ele>1534.197077</ele>
        <time>2022-02-26T04:52:47.590Z</time>
      </trkpt>
      <trkpt lat="38.62477" lon="35.80688">
        <ele>1533.659756</ele>
        <time>2022-02-26T04:53:28.088Z</time>
      </trkpt>
      <trkpt lat="38.62531" lon="35.80365">
        <ele>1534.787491</ele>
        <time>2022-02-26T04:54:43.441Z</time>
      </trkpt>
      <trkpt lat="38.62646" lon="35.79658">
        <ele>1544.122915</ele>
        <time>2022-02-26T04:58:01.250Z</time>
      </trkpt>
      <trkpt lat="38.62695" lon="35.79364">
        <ele>1546.347802</ele>
        <time>2022-02-26T04:59:17.135Z</time>
      </trkpt>
      <trkpt lat="38.62854" lon="35.78395">
        <ele>1549.035318</ele>
        <time>2022-02-26T05:02:50.794Z</time>
      </trkpt>
      <trkpt lat="38.62956" lon="35.77774">
        <ele>1555.553196</ele>
        <time>2022-02-26T05:05:39.737Z</time>
      </trkpt>
      <trkpt lat="38.62989" lon="35.77611">
        <ele>1556.238327</ele>
        <time>2022-02-26T05:06:15.804Z</time>
      </trkpt>
      <trkpt lat="38.62996" lon="35.77581">
        <ele>1556.195089</ele>
        <time>2022-02-26T05:06:22.132Z</time>
      </trkpt>
      <trkpt lat="38.62996" lon="35.77574">
        <ele>1556.185657</ele>
        <time>2022-02-26T05:06:23.555Z</time>
      </trkpt>
      <trkpt lat="38.63" lon="35.77573">
        <ele>1556.177981</ele>
        <time>2022-02-26T05:06:24.571Z</time>
      </trkpt>
      <trkpt lat="38.63019" lon="35.7756">
        <ele>1556.139369</ele>
        <time>2022-02-26T05:06:30.393Z</time>
      </trkpt>
      <trkpt lat="38.63028" lon="35.77538">
        <ele>1556.106162</ele>
        <time>2022-02-26T05:06:35.388Z</time>
      </trkpt>
      <trkpt lat="38.63029" lon="35.77532">
        <ele>1556.09754</ele>
        <time>2022-02-26T05:06:36.527Z</time>
      </trkpt>
      <trkpt lat="38.63027" lon="35.77491">
        <ele>1556.03974</ele>
        <time>2022-02-26T05:06:45.370Z</time>
      </trkpt>
      <trkpt lat="38.63027" lon="35.7743">
        <ele>1555.991861</ele>
        <time>2022-02-26T05:06:57.920Z</time>
      </trkpt>
      <trkpt lat="38.63039" lon="35.77407">
        <ele>1555.999037</ele>
        <time>2022-02-26T05:07:03.725Z</time>
      </trkpt>
      <trkpt lat="38.63056" lon="35.774">
        <ele>1556.004986</ele>
        <time>2022-02-26T05:07:08.605Z</time>
      </trkpt>
      <trkpt lat="38.63077" lon="35.77405">
        <ele>1556.011937</ele>
        <time>2022-02-26T05:07:14.665Z</time>
      </trkpt>
      <trkpt lat="38.63101" lon="35.77402">
        <ele>1556.02006</ele>
        <time>2022-02-26T05:07:21.638Z</time>
      </trkpt>
      <trkpt lat="38.6324" lon="35.77309">
        <ele>1555.758083</ele>
        <time>2022-02-26T05:08:05.797Z</time>
      </trkpt>
      <trkpt lat="38.63307" lon="35.77252">
        <ele>1555.460907</ele>
        <time>2022-02-26T05:08:26.290Z</time>
      </trkpt>
      <trkpt lat="38.63321" lon="35.77247">
        <ele>1555.406736</ele>
        <time>2022-02-26T05:08:29.886Z</time>
      </trkpt>
      <trkpt lat="38.63337" lon="35.77228">
        <ele>1555.122393</ele>
        <time>2022-02-26T05:08:38.824Z</time>
      </trkpt>
      <trkpt lat="38.63357" lon="35.77208">
        <ele>1554.675547</ele>
        <time>2022-02-26T05:08:49.477Z</time>
      </trkpt>
      <trkpt lat="38.63376" lon="35.77193">
        <ele>1554.293424</ele>
        <time>2022-02-26T05:08:58.468Z</time>
      </trkpt>
      <trkpt lat="38.63421" lon="35.7718">
        <ele>1553.500416</ele>
        <time>2022-02-26T05:09:16.936Z</time>
      </trkpt>
      <trkpt lat="38.63452" lon="35.77175">
        <ele>1552.973587</ele>
        <time>2022-02-26T05:09:28.393Z</time>
      </trkpt>
      <trkpt lat="38.63494" lon="35.77183">
        <ele>1552.158019</ele>
        <time>2022-02-26T05:09:43.866Z</time>
      </trkpt>
      <trkpt lat="38.63527" lon="35.77167">
        <ele>1550.30221</ele>
        <time>2022-02-26T05:09:56.337Z</time>
      </trkpt>
      <trkpt lat="38.6356" lon="35.77147">
        <ele>1548.41941</ele>
        <time>2022-02-26T05:10:08.363Z</time>
      </trkpt>
      <trkpt lat="38.63562" lon="35.77138">
        <ele>1548.030993</ele>
        <time>2022-02-26T05:10:09.732Z</time>
      </trkpt>
      <trkpt lat="38.63589" lon="35.77107">
        <ele>1546.170726</ele>
        <time>2022-02-26T05:10:16.434Z</time>
      </trkpt>
      <trkpt lat="38.63598" lon="35.77097">
        <ele>1545.562524</ele>
        <time>2022-02-26T05:10:18.590Z</time>
      </trkpt>
      <trkpt lat="38.63614" lon="35.77077">
        <ele>1544.358223</ele>
        <time>2022-02-26T05:10:22.888Z</time>
      </trkpt>
      <trkpt lat="38.63627" lon="35.7706">
        <ele>1543.426572</ele>
        <time>2022-02-26T05:10:26.169Z</time>
      </trkpt>
      <trkpt lat="38.63661" lon="35.77015">
        <ele>1540.390231</ele>
        <time>2022-02-26T05:10:35.019Z</time>
      </trkpt>
      <trkpt lat="38.63706" lon="35.76963">
        <ele>1536.46925</ele>
        <time>2022-02-26T05:10:45.928Z</time>
      </trkpt>
      <trkpt lat="38.6379" lon="35.76885">
        <ele>1530.489173</ele>
        <time>2022-02-26T05:11:05.078Z</time>
      </trkpt>
      <trkpt lat="38.63809" lon="35.76844">
        <ele>1529.078101</ele>
        <time>2022-02-26T05:11:12.415Z</time>
      </trkpt>
      <trkpt lat="38.63816" lon="35.76811">
        <ele>1528.075887</ele>
        <time>2022-02-26T05:11:17.654Z</time>
      </trkpt>
      <trkpt lat="38.63819" lon="35.76761">
        <ele>1526.591357</ele>
        <time>2022-02-26T05:11:25.637Z</time>
      </trkpt>
      <trkpt lat="38.63812" lon="35.7672">
        <ele>1525.358932</ele>
        <time>2022-02-26T05:11:32.547Z</time>
      </trkpt>
      <trkpt lat="38.63826" lon="35.76678">
        <ele>1524.413712</ele>
        <time>2022-02-26T05:11:40.182Z</time>
      </trkpt>
      <trkpt lat="38.63832" lon="35.76644">
        <ele>1524.027053</ele>
        <time>2022-02-26T05:11:46.393Z</time>
      </trkpt>
      <trkpt lat="38.63841" lon="35.76631">
        <ele>1523.831021</ele>
        <time>2022-02-26T05:11:49.340Z</time>
      </trkpt>
      <trkpt lat="38.63837" lon="35.76609">
        <ele>1523.579754</ele>
        <time>2022-02-26T05:11:53.368Z</time>
      </trkpt>
      <trkpt lat="38.63839" lon="35.76586">
        <ele>1523.327986</ele>
        <time>2022-02-26T05:11:57.059Z</time>
      </trkpt>
      <trkpt lat="38.63839" lon="35.76579">
        <ele>1523.252939</ele>
        <time>2022-02-26T05:11:58.315Z</time>
      </trkpt>
      <trkpt lat="38.63838" lon="35.76555">
        <ele>1522.98471</ele>
        <time>2022-02-26T05:12:02.739Z</time>
      </trkpt>
      <trkpt lat="38.63848" lon="35.7652">
        <ele>1522.577817</ele>
        <time>2022-02-26T05:12:09.662Z</time>
      </trkpt>
      <trkpt lat="38.63863" lon="35.76461">
        <ele>1522.199335</ele>
        <time>2022-02-26T05:12:21.976Z</time>
      </trkpt>
      <trkpt lat="38.63874" lon="35.7643">
        <ele>1522.368359</ele>
        <time>2022-02-26T05:12:29.662Z</time>
      </trkpt>
      <trkpt lat="38.63882" lon="35.76409">
        <ele>1522.477276</ele>
        <time>2022-02-26T05:12:34.604Z</time>
      </trkpt>
      <trkpt lat="38.63938" lon="35.76386">
        <ele>1522.844944</ele>
        <time>2022-02-26T05:12:53.502Z</time>
      </trkpt>
      <trkpt lat="38.63955" lon="35.76318">
        <ele>1523.191317</ele>
        <time>2022-02-26T05:13:12.063Z</time>
      </trkpt>
      <trkpt lat="38.63995" lon="35.76304">
        <ele>1523.412914</ele>
        <time>2022-02-26T05:13:26.594Z</time>
      </trkpt>
      <trkpt lat="38.64032" lon="35.7628">
        <ele>1523.628847</ele>
        <time>2022-02-26T05:13:40.957Z</time>
      </trkpt>
      <trkpt lat="38.64031" lon="35.76248">
        <ele>1523.758597</ele>
        <time>2022-02-26T05:13:48.843Z</time>
      </trkpt>
      <trkpt lat="38.64028" lon="35.76198">
        <ele>1523.965623</ele>
        <time>2022-02-26T05:14:00.570Z</time>
      </trkpt>
      <trkpt lat="38.64028" lon="35.7608">
        <ele>1523.038402</ele>
        <time>2022-02-26T05:14:23.486Z</time>
      </trkpt>
      <trkpt lat="38.64055" lon="35.75967">
        <ele>1521.111588</ele>
        <time>2022-02-26T05:14:42.968Z</time>
      </trkpt>
      <trkpt lat="38.64083" lon="35.75897">
        <ele>1519.544986</ele>
        <time>2022-02-26T05:14:55.687Z</time>
      </trkpt>
      <trkpt lat="38.64097" lon="35.75864">
        <ele>1518.632154</ele>
        <time>2022-02-26T05:15:01.654Z</time>
      </trkpt>
      <trkpt lat="38.64127" lon="35.75801">
        <ele>1516.828899</ele>
        <time>2022-02-26T05:15:13.482Z</time>
      </trkpt>
      <trkpt lat="38.64131" lon="35.75746">
        <ele>1515.465239</ele>
        <time>2022-02-26T05:15:22.378Z</time>
      </trkpt>
      <trkpt lat="38.64123" lon="35.75691">
        <ele>1514.22386</ele>
        <time>2022-02-26T05:15:31.363Z</time>
      </trkpt>
      <trkpt lat="38.64082" lon="35.75551">
        <ele>1511.240659</ele>
        <time>2022-02-26T05:15:56.112Z</time>
      </trkpt>
      <trkpt lat="38.64061" lon="35.75506">
        <ele>1510.198342</ele>
        <time>2022-02-26T05:16:04.963Z</time>
      </trkpt>
      <trkpt lat="38.64064" lon="35.75488">
        <ele>1509.960333</ele>
        <time>2022-02-26T05:16:08.120Z</time>
      </trkpt>
      <trkpt lat="38.64095" lon="35.75442">
        <ele>1509.188528</ele>
        <time>2022-02-26T05:16:18.928Z</time>
      </trkpt>
      <trkpt lat="38.64104" lon="35.75418">
        <ele>1508.857707</ele>
        <time>2022-02-26T05:16:23.666Z</time>
      </trkpt>
      <trkpt lat="38.64104" lon="35.75405">
        <ele>1508.690468</ele>
        <time>2022-02-26T05:16:26.071Z</time>
      </trkpt>
      <trkpt lat="38.64079" lon="35.75331">
        <ele>1507.684585</ele>
        <time>2022-02-26T05:16:40.719Z</time>
      </trkpt>
      <trkpt lat="38.64082" lon="35.75258">
        <ele>1506.809739</ele>
        <time>2022-02-26T05:16:54.193Z</time>
      </trkpt>
      <trkpt lat="38.64084" lon="35.75237">
        <ele>1506.55828</ele>
        <time>2022-02-26T05:16:58.187Z</time>
      </trkpt>
      <trkpt lat="38.64097" lon="35.75077">
        <ele>1504.670501</ele>
        <time>2022-02-26T05:17:27.235Z</time>
      </trkpt>
      <trkpt lat="38.64107" lon="35.74925">
        <ele>1502.407663</ele>
        <time>2022-02-26T05:17:53.413Z</time>
      </trkpt>
      <trkpt lat="38.64132" lon="35.74779">
        <ele>1500.478073</ele>
        <time>2022-02-26T05:18:19.310Z</time>
      </trkpt>
      <trkpt lat="38.64173" lon="35.74623">
        <ele>1498.820921</ele>
        <time>2022-02-26T05:18:49.730Z</time>
      </trkpt>
      <trkpt lat="38.6427" lon="35.74341">
        <ele>1498.28724</ele>
        <time>2022-02-26T05:19:54.489Z</time>
      </trkpt>
      <trkpt lat="38.64301" lon="35.74204">
        <ele>1498.382152</ele>
        <time>2022-02-26T05:20:26.919Z</time>
      </trkpt>
      <trkpt lat="38.64326" lon="35.74139">
        <ele>1498.37811</ele>
        <time>2022-02-26T05:20:43.049Z</time>
      </trkpt>
      <trkpt lat="38.64363" lon="35.74086">
        <ele>1498.365404</ele>
        <time>2022-02-26T05:20:58.893Z</time>
      </trkpt>
      <trkpt lat="38.64522" lon="35.73927">
        <ele>1498.086848</ele>
        <time>2022-02-26T05:21:52.885Z</time>
      </trkpt>
      <trkpt lat="38.64576" lon="35.73846">
        <ele>1497.879881</ele>
        <time>2022-02-26T05:22:15.302Z</time>
      </trkpt>
      <trkpt lat="38.64656" lon="35.73764">
        <ele>1497.557449</ele>
        <time>2022-02-26T05:22:42.632Z</time>
      </trkpt>
      <trkpt lat="38.6474" lon="35.73715">
        <ele>1497.061408</ele>
        <time>2022-02-26T05:23:06.714Z</time>
      </trkpt>
      <trkpt lat="38.64938" lon="35.73637">
        <ele>1495.329679</ele>
        <time>2022-02-26T05:23:57.379Z</time>
      </trkpt>
      <trkpt lat="38.65175" lon="35.73496">
        <ele>1492.422744</ele>
        <time>2022-02-26T05:25:00.546Z</time>
      </trkpt>
      <trkpt lat="38.6531" lon="35.73437">
        <ele>1489.941763</ele>
        <time>2022-02-26T05:25:32.401Z</time>
      </trkpt>
      <trkpt lat="38.65427" lon="35.73374">
        <ele>1487.843152</ele>
        <time>2022-02-26T05:26:00.609Z</time>
      </trkpt>
      <trkpt lat="38.65465" lon="35.73349">
        <ele>1487.241339</ele>
        <time>2022-02-26T05:26:10.268Z</time>
      </trkpt>
      <trkpt lat="38.65606" lon="35.73222">
        <ele>1485.246405</ele>
        <time>2022-02-26T05:26:52.315Z</time>
      </trkpt>
      <trkpt lat="38.6571" lon="35.73138">
        <ele>1483.889334</ele>
        <time>2022-02-26T05:27:22.510Z</time>
      </trkpt>
      <trkpt lat="38.65906" lon="35.73004">
        <ele>1480.47921</ele>
        <time>2022-02-26T05:28:13.073Z</time>
      </trkpt>
      <trkpt lat="38.65951" lon="35.72972">
        <ele>1479.605481</ele>
        <time>2022-02-26T05:28:24.603Z</time>
      </trkpt>
      <trkpt lat="38.66013" lon="35.72937">
        <ele>1478.706836</ele>
        <time>2022-02-26T05:28:40.152Z</time>
      </trkpt>
      <trkpt lat="38.66054" lon="35.72906">
        <ele>1478.416477</ele>
        <time>2022-02-26T05:28:51.382Z</time>
      </trkpt>
      <trkpt lat="38.66213" lon="35.72702">
        <ele>1478.175814</ele>
        <time>2022-02-26T05:29:53.363Z</time>
      </trkpt>
      <trkpt lat="38.66288" lon="35.72618">
        <ele>1478.994885</ele>
        <time>2022-02-26T05:30:25.906Z</time>
      </trkpt>
      <trkpt lat="38.6631" lon="35.72586">
        <ele>1479.5403</ele>
        <time>2022-02-26T05:30:37.394Z</time>
      </trkpt>
      <trkpt lat="38.66383" lon="35.72444">
        <ele>1481.754496</ele>
        <time>2022-02-26T05:31:26.815Z</time>
      </trkpt>
      <trkpt lat="38.66427" lon="35.72387">
        <ele>1482.853644</ele>
        <time>2022-02-26T05:31:49.845Z</time>
      </trkpt>
      <trkpt lat="38.66474" lon="35.72343">
        <ele>1483.894548</ele>
        <time>2022-02-26T05:32:11.085Z</time>
      </trkpt>
      <trkpt lat="38.66477" lon="35.72341">
        <ele>1483.946616</ele>
        <time>2022-02-26T05:32:12.131Z</time>
      </trkpt>
      <trkpt lat="38.66538" lon="35.72302">
        <ele>1485.10874</ele>
        <time>2022-02-26T05:32:36.359Z</time>
      </trkpt>
      <trkpt lat="38.66594" lon="35.72277">
        <ele>1486.065782</ele>
        <time>2022-02-26T05:32:56.968Z</time>
      </trkpt>
      <trkpt lat="38.66644" lon="35.7226">
        <ele>1486.908524</ele>
        <time>2022-02-26T05:33:14.804Z</time>
      </trkpt>
      <trkpt lat="38.667" lon="35.72246">
        <ele>1488.019154</ele>
        <time>2022-02-26T05:33:35.629Z</time>
      </trkpt>
      <trkpt lat="38.66738" lon="35.72236">
        <ele>1488.968776</ele>
        <time>2022-02-26T05:33:50.871Z</time>
      </trkpt>
      <trkpt lat="38.66763" lon="35.72224">
        <ele>1489.625918</ele>
        <time>2022-02-26T05:34:01.589Z</time>
      </trkpt>
      <trkpt lat="38.6682" lon="35.72195">
        <ele>1491.126035</ele>
        <time>2022-02-26T05:34:26.634Z</time>
      </trkpt>
      <trkpt lat="38.66876" lon="35.72167">
        <ele>1492.529468</ele>
        <time>2022-02-26T05:34:51.352Z</time>
      </trkpt>
      <trkpt lat="38.6696" lon="35.72125">
        <ele>1494.53435</ele>
        <time>2022-02-26T05:35:27.820Z</time>
      </trkpt>
      <trkpt lat="38.67008" lon="35.72118">
        <ele>1495.62015</ele>
        <time>2022-02-26T05:35:46.097Z</time>
      </trkpt>
      <trkpt lat="38.67103" lon="35.72138">
        <ele>1495.982033</ele>
        <time>2022-02-26T05:36:15.279Z</time>
      </trkpt>
      <trkpt lat="38.67122" lon="35.72133">
        <ele>1496.003492</ele>
        <time>2022-02-26T05:36:21.502Z</time>
      </trkpt>
      <trkpt lat="38.6714" lon="35.72122">
        <ele>1496.024923</ele>
        <time>2022-02-26T05:36:26.259Z</time>
      </trkpt>
      <trkpt lat="38.67175" lon="35.72084">
        <ele>1496.075548</ele>
        <time>2022-02-26T05:36:38.571Z</time>
      </trkpt>
      <trkpt lat="38.67183" lon="35.72066">
        <ele>1495.981495</ele>
        <time>2022-02-26T05:36:42.419Z</time>
      </trkpt>
      <trkpt lat="38.67185" lon="35.72053">
        <ele>1495.767246</ele>
        <time>2022-02-26T05:36:44.617Z</time>
      </trkpt>
      <trkpt lat="38.67187" lon="35.72046">
        <ele>1495.659609</ele>
        <time>2022-02-26T05:36:46.074Z</time>
      </trkpt>
      <trkpt lat="38.67187" lon="35.72026">
        <ele>1495.338578</ele>
        <time>2022-02-26T05:36:49.991Z</time>
      </trkpt>
      <trkpt lat="38.67184" lon="35.71992">
        <ele>1494.794804</ele>
        <time>2022-02-26T05:36:55.953Z</time>
      </trkpt>
      <trkpt lat="38.67183" lon="35.71982">
        <ele>1494.632484</ele>
        <time>2022-02-26T05:36:57.788Z</time>
      </trkpt>
      <trkpt lat="38.67173" lon="35.71936">
        <ele>1493.878485</ele>
        <time>2022-02-26T05:37:05.829Z</time>
      </trkpt>
      <trkpt lat="38.6715" lon="35.71871">
        <ele>1492.761141</ele>
        <time>2022-02-26T05:37:17.560Z</time>
      </trkpt>
      <trkpt lat="38.67144" lon="35.71843">
        <ele>1492.187862</ele>
        <time>2022-02-26T05:37:22.437Z</time>
      </trkpt>
      <trkpt lat="38.67149" lon="35.71782">
        <ele>1490.404489</ele>
        <time>2022-02-26T05:37:32.550Z</time>
      </trkpt>
      <trkpt lat="38.67171" lon="35.71739">
        <ele>1488.912634</ele>
        <time>2022-02-26T05:37:40.621Z</time>
      </trkpt>
      <trkpt lat="38.67192" lon="35.71695">
        <ele>1487.445573</ele>
        <time>2022-02-26T05:37:48.299Z</time>
      </trkpt>
      <trkpt lat="38.67208" lon="35.71668">
        <ele>1486.473421</ele>
        <time>2022-02-26T05:37:53.380Z</time>
      </trkpt>
      <trkpt lat="38.6723" lon="35.71654">
        <ele>1485.560929</ele>
        <time>2022-02-26T05:37:58.354Z</time>
      </trkpt>
      <trkpt lat="38.67245" lon="35.71625">
        <ele>1484.651741</ele>
        <time>2022-02-26T05:38:03.601Z</time>
      </trkpt>
      <trkpt lat="38.67252" lon="35.71586">
        <ele>1483.598988</ele>
        <time>2022-02-26T05:38:09.722Z</time>
      </trkpt>
      <trkpt lat="38.67258" lon="35.71565">
        <ele>1482.991687</ele>
        <time>2022-02-26T05:38:13.291Z</time>
      </trkpt>
      <trkpt lat="38.6726" lon="35.71555">
        <ele>1482.737386</ele>
        <time>2022-02-26T05:38:14.798Z</time>
      </trkpt>
      <trkpt lat="38.67274" lon="35.71539">
        <ele>1482.101552</ele>
        <time>2022-02-26T05:38:18.704Z</time>
      </trkpt>
      <trkpt lat="38.67316" lon="35.71516">
        <ele>1480.545166</ele>
        <time>2022-02-26T05:38:28.154Z</time>
      </trkpt>
      <trkpt lat="38.67336" lon="35.7149">
        <ele>1479.666298</ele>
        <time>2022-02-26T05:38:34.172Z</time>
      </trkpt>
      <trkpt lat="38.67347" lon="35.71476">
        <ele>1479.548415</ele>
        <time>2022-02-26T05:38:37.419Z</time>
      </trkpt>
      <trkpt lat="38.67386" lon="35.71427">
        <ele>1479.138137</ele>
        <time>2022-02-26T05:38:49.925Z</time>
      </trkpt>
      <trkpt lat="38.67456" lon="35.71342">
        <ele>1478.409272</ele>
        <time>2022-02-26T05:39:15.030Z</time>
      </trkpt>
      <trkpt lat="38.6746" lon="35.71337">
        <ele>1478.366629</ele>
        <time>2022-02-26T05:39:16.633Z</time>
      </trkpt>
      <trkpt lat="38.67615" lon="35.7114">
        <ele>1482.777085</ele>
        <time>2022-02-26T05:40:32.202Z</time>
      </trkpt>
      <trkpt lat="38.67725" lon="35.70979">
        <ele>1489.878071</ele>
        <time>2022-02-26T05:41:59.954Z</time>
      </trkpt>
      <trkpt lat="38.67785" lon="35.70905">
        <ele>1492.439954</ele>
        <time>2022-02-26T05:42:40.011Z</time>
      </trkpt>
      <trkpt lat="38.67809" lon="35.70875">
        <ele>1493.480168</ele>
        <time>2022-02-26T05:42:53.745Z</time>
      </trkpt>
      <trkpt lat="38.67996" lon="35.7065">
        <ele>1493.243415</ele>
        <time>2022-02-26T05:43:56.694Z</time>
      </trkpt>
      <trkpt lat="38.68075" lon="35.70535">
        <ele>1490.901291</ele>
        <time>2022-02-26T05:44:21.491Z</time>
      </trkpt>
      <trkpt lat="38.68104" lon="35.70481">
        <ele>1489.607891</ele>
        <time>2022-02-26T05:44:31.761Z</time>
      </trkpt>
      <trkpt lat="38.68153" lon="35.70336">
        <ele>1485.826857</ele>
        <time>2022-02-26T05:44:55.953Z</time>
      </trkpt>
      <trkpt lat="38.68171" lon="35.70259">
        <ele>1483.6462</ele>
        <time>2022-02-26T05:45:08.148Z</time>
      </trkpt>
      <trkpt lat="38.68181" lon="35.70199">
        <ele>1481.750078</ele>
        <time>2022-02-26T05:45:17.552Z</time>
      </trkpt>
      <trkpt lat="38.68181" lon="35.70059">
        <ele>1477.37193</ele>
        <time>2022-02-26T05:45:37.794Z</time>
      </trkpt>
      <trkpt lat="38.68179" lon="35.70008">
        <ele>1475.152686</ele>
        <time>2022-02-26T05:45:45.172Z</time>
      </trkpt>
      <trkpt lat="38.68178" lon="35.69974">
        <ele>1473.691799</ele>
        <time>2022-02-26T05:45:49.961Z</time>
      </trkpt>
      <trkpt lat="38.68173" lon="35.6984">
        <ele>1467.94125</ele>
        <time>2022-02-26T05:46:08.391Z</time>
      </trkpt>
      <trkpt lat="38.68172" lon="35.69766">
        <ele>1464.104232</ele>
        <time>2022-02-26T05:46:18.393Z</time>
      </trkpt>
      <trkpt lat="38.68162" lon="35.69669">
        <ele>1458.994012</ele>
        <time>2022-02-26T05:46:31.667Z</time>
      </trkpt>
      <trkpt lat="38.68148" lon="35.69589">
        <ele>1454.602125</ele>
        <time>2022-02-26T05:46:42.658Z</time>
      </trkpt>
      <trkpt lat="38.68127" lon="35.69511">
        <ele>1449.874495</ele>
        <time>2022-02-26T05:46:53.600Z</time>
      </trkpt>
      <trkpt lat="38.68099" lon="35.69423">
        <ele>1444.472092</ele>
        <time>2022-02-26T05:47:06.189Z</time>
      </trkpt>
      <trkpt lat="38.68085" lon="35.69389">
        <ele>1442.342832</ele>
        <time>2022-02-26T05:47:11.245Z</time>
      </trkpt>
      <trkpt lat="38.68077" lon="35.69351">
        <ele>1440.369595</ele>
        <time>2022-02-26T05:47:16.503Z</time>
      </trkpt>
      <trkpt lat="38.68078" lon="35.69313">
        <ele>1438.479671</ele>
        <time>2022-02-26T05:47:21.639Z</time>
      </trkpt>
      <trkpt lat="38.68087" lon="35.69283">
        <ele>1436.860346</ele>
        <time>2022-02-26T05:47:26.159Z</time>
      </trkpt>
      <trkpt lat="38.68103" lon="35.69258">
        <ele>1435.26959</ele>
        <time>2022-02-26T05:47:30.439Z</time>
      </trkpt>
      <trkpt lat="38.68117" lon="35.69233">
        <ele>1433.729042</ele>
        <time>2022-02-26T05:47:34.516Z</time>
      </trkpt>
      <trkpt lat="38.68211" lon="35.6923">
        <ele>1429.658017</ele>
        <time>2022-02-26T05:47:52.525Z</time>
      </trkpt>
      <trkpt lat="38.6822" lon="35.69213">
        <ele>1429.186107</ele>
        <time>2022-02-26T05:47:55.522Z</time>
      </trkpt>
      <trkpt lat="38.68227" lon="35.69152">
        <ele>1427.760348</ele>
        <time>2022-02-26T05:48:06.126Z</time>
      </trkpt>
      <trkpt lat="38.68234" lon="35.69128">
        <ele>1427.187417</ele>
        <time>2022-02-26T05:48:10.493Z</time>
      </trkpt>
      <trkpt lat="38.68258" lon="35.6908">
        <ele>1426.097698</ele>
        <time>2022-02-26T05:48:21.822Z</time>
      </trkpt>
      <trkpt lat="38.68289" lon="35.69047">
        <ele>1426.474058</ele>
        <time>2022-02-26T05:48:32.339Z</time>
      </trkpt>
      <trkpt lat="38.68316" lon="35.69016">
        <ele>1426.806899</ele>
        <time>2022-02-26T05:48:44.122Z</time>
      </trkpt>
      <trkpt lat="38.68339" lon="35.69006">
        <ele>1427.03199</ele>
        <time>2022-02-26T05:48:52.434Z</time>
      </trkpt>
      <trkpt lat="38.68396" lon="35.6895">
        <ele>1427.697627</ele>
        <time>2022-02-26T05:49:19.824Z</time>
      </trkpt>
      <trkpt lat="38.68415" lon="35.68932">
        <ele>1428.083201</ele>
        <time>2022-02-26T05:49:27.633Z</time>
      </trkpt>
      <trkpt lat="38.68424" lon="35.6892">
        <ele>1428.315819</ele>
        <time>2022-02-26T05:49:32.647Z</time>
      </trkpt>
      <trkpt lat="38.68446" lon="35.68906">
        <ele>1428.728191</ele>
        <time>2022-02-26T05:49:40.163Z</time>
      </trkpt>
      <trkpt lat="38.68545" lon="35.6883">
        <ele>1430.697312</ele>
        <time>2022-02-26T05:50:21.212Z</time>
      </trkpt>
      <trkpt lat="38.68572" lon="35.68829">
        <ele>1431.627234</ele>
        <time>2022-02-26T05:50:31.328Z</time>
      </trkpt>
      <trkpt lat="38.6861" lon="35.6882">
        <ele>1433.066945</ele>
        <time>2022-02-26T05:50:47.002Z</time>
      </trkpt>
      <trkpt lat="38.68614" lon="35.68807">
        <ele>1433.448182</ele>
        <time>2022-02-26T05:50:53.050Z</time>
      </trkpt>
      <trkpt lat="38.68643" lon="35.68766">
        <ele>1435.064908</ele>
        <time>2022-02-26T05:51:12.220Z</time>
      </trkpt>
      <trkpt lat="38.68699" lon="35.68723">
        <ele>1437.486657</ele>
        <time>2022-02-26T05:51:45.778Z</time>
      </trkpt>
      <trkpt lat="38.68779" lon="35.68673">
        <ele>1441.467601</ele>
        <time>2022-02-26T05:52:34.343Z</time>
      </trkpt>
      <trkpt lat="38.68788" lon="35.68646">
        <ele>1442.504221</ele>
        <time>2022-02-26T05:52:45.127Z</time>
      </trkpt>
      <trkpt lat="38.68798" lon="35.68636">
        <ele>1443.083543</ele>
        <time>2022-02-26T05:52:52.249Z</time>
      </trkpt>
      <trkpt lat="38.68826" lon="35.6857">
        <ele>1445.574216</ele>
        <time>2022-02-26T05:53:17.802Z</time>
      </trkpt>
      <trkpt lat="38.68848" lon="35.68549">
        <ele>1445.863827</ele>
        <time>2022-02-26T05:53:29.062Z</time>
      </trkpt>
      <trkpt lat="38.68865" lon="35.68531">
        <ele>1446.097862</ele>
        <time>2022-02-26T05:53:37.819Z</time>
      </trkpt>
      <trkpt lat="38.68877" lon="35.68508">
        <ele>1446.331055</ele>
        <time>2022-02-26T05:53:44.894Z</time>
      </trkpt>
      <trkpt lat="38.6888" lon="35.68495">
        <ele>1446.43977</ele>
        <time>2022-02-26T05:53:48.961Z</time>
      </trkpt>
      <trkpt lat="38.68884" lon="35.68473">
        <ele>1446.627665</ele>
        <time>2022-02-26T05:53:54.698Z</time>
      </trkpt>
      <trkpt lat="38.68893" lon="35.6844">
        <ele>1446.924579</ele>
        <time>2022-02-26T05:54:02.563Z</time>
      </trkpt>
      <trkpt lat="38.68933" lon="35.68379">
        <ele>1447.312543</ele>
        <time>2022-02-26T05:54:18.300Z</time>
      </trkpt>
      <trkpt lat="38.69038" lon="35.68226">
        <ele>1445.694926</ele>
        <time>2022-02-26T05:54:56.108Z</time>
      </trkpt>
      <trkpt lat="38.69067" lon="35.68183">
        <ele>1445.244252</ele>
        <time>2022-02-26T05:55:07.076Z</time>
      </trkpt>
      <trkpt lat="38.69091" lon="35.68147">
        <ele>1444.871479</ele>
        <time>2022-02-26T05:55:16.216Z</time>
      </trkpt>
      <trkpt lat="38.69155" lon="35.68051">
        <ele>1443.874719</ele>
        <time>2022-02-26T05:55:40.380Z</time>
      </trkpt>
      <trkpt lat="38.69232" lon="35.6797">
        <ele>1442.351022</ele>
        <time>2022-02-26T05:56:03.314Z</time>
      </trkpt>
      <trkpt lat="38.693" lon="35.67903">
        <ele>1440.993907</ele>
        <time>2022-02-26T05:56:36.158Z</time>
      </trkpt>
      <trkpt lat="38.69361" lon="35.67826">
        <ele>1439.749059</ele>
        <time>2022-02-26T05:57:08.860Z</time>
      </trkpt>
      <trkpt lat="38.69403" lon="35.67753">
        <ele>1438.72684</ele>
        <time>2022-02-26T05:57:36.507Z</time>
      </trkpt>
      <trkpt lat="38.69516" lon="35.67466">
        <ele>1437.239932</ele>
        <time>2022-02-26T05:59:22.059Z</time>
      </trkpt>
      <trkpt lat="38.6955" lon="35.67375">
        <ele>1437.151068</ele>
        <time>2022-02-26T05:59:57.597Z</time>
      </trkpt>
      <trkpt lat="38.69586" lon="35.67351">
        <ele>1437.10564</ele>
        <time>2022-02-26T06:00:15.639Z</time>
      </trkpt>
      <trkpt lat="38.69618" lon="35.6732">
        <ele>1437.027334</ele>
        <time>2022-02-26T06:00:33.587Z</time>
      </trkpt>
      <trkpt lat="38.69648" lon="35.67313">
        <ele>1436.954811</ele>
        <time>2022-02-26T06:00:46.623Z</time>
      </trkpt>
      <trkpt lat="38.69692" lon="35.67301">
        <ele>1436.843855</ele>
        <time>2022-02-26T06:01:06.708Z</time>
      </trkpt>
      <trkpt lat="38.69733" lon="35.6725">
        <ele>1436.705733</ele>
        <time>2022-02-26T06:01:31.022Z</time>
      </trkpt>
      <trkpt lat="38.69751" lon="35.67236">
        <ele>1436.653822</ele>
        <time>2022-02-26T06:01:39.928Z</time>
      </trkpt>
      <trkpt lat="38.69799" lon="35.67224">
        <ele>1436.462646</ele>
        <time>2022-02-26T06:02:00.326Z</time>
      </trkpt>
      <trkpt lat="38.69853" lon="35.67188">
        <ele>1436.221714</ele>
        <time>2022-02-26T06:02:26.183Z</time>
      </trkpt>
      <trkpt lat="38.69856" lon="35.67188">
        <ele>1436.209397</ele>
        <time>2022-02-26T06:02:27.390Z</time>
      </trkpt>
      <trkpt lat="38.69866" lon="35.67188">
        <ele>1436.168824</ele>
        <time>2022-02-26T06:02:32.082Z</time>
      </trkpt>
      <trkpt lat="38.69904" lon="35.67184">
        <ele>1436.018145</ele>
        <time>2022-02-26T06:02:48.445Z</time>
      </trkpt>
      <trkpt lat="38.69982" lon="35.67198">
        <ele>1435.593307</ele>
        <time>2022-02-26T06:03:22.360Z</time>
      </trkpt>
      <trkpt lat="38.70082" lon="35.67184">
        <ele>1434.991217</ele>
        <time>2022-02-26T06:04:04.881Z</time>
      </trkpt>
      <trkpt lat="38.70117" lon="35.67174">
        <ele>1434.723932</ele>
        <time>2022-02-26T06:04:19.056Z</time>
      </trkpt>
      <trkpt lat="38.70245" lon="35.671">
        <ele>1433.317234</ele>
        <time>2022-02-26T06:05:14.684Z</time>
      </trkpt>
      <trkpt lat="38.7032" lon="35.67093">
        <ele>1433.250936</ele>
        <time>2022-02-26T06:05:47.387Z</time>
      </trkpt>
      <trkpt lat="38.7033" lon="35.67092">
        <ele>1433.286251</ele>
        <time>2022-02-26T06:05:51.329Z</time>
      </trkpt>
      <trkpt lat="38.70353" lon="35.6709">
        <ele>1433.373323</ele>
        <time>2022-02-26T06:06:02.475Z</time>
      </trkpt>
      <trkpt lat="38.70362" lon="35.67091">
        <ele>1433.406142</ele>
        <time>2022-02-26T06:06:06.244Z</time>
      </trkpt>
      <trkpt lat="38.70386" lon="35.6708">
        <ele>1433.502206</ele>
        <time>2022-02-26T06:06:18.767Z</time>
      </trkpt>
      <trkpt lat="38.70403" lon="35.67068">
        <ele>1433.571823</ele>
        <time>2022-02-26T06:06:27.350Z</time>
      </trkpt>
      <trkpt lat="38.70409" lon="35.67063">
        <ele>1433.598512</ele>
        <time>2022-02-26T06:06:31.395Z</time>
      </trkpt>
      <trkpt lat="38.70518" lon="35.66971">
        <ele>1434.666338</ele>
        <time>2022-02-26T06:07:36.737Z</time>
      </trkpt>
      <trkpt lat="38.70598" lon="35.6689">
        <ele>1435.581709</ele>
        <time>2022-02-26T06:08:26.611Z</time>
      </trkpt>
      <trkpt lat="38.70623" lon="35.66871">
        <ele>1435.710403</ele>
        <time>2022-02-26T06:08:40.423Z</time>
      </trkpt>
      <trkpt lat="38.70669" lon="35.66852">
        <ele>1435.92355</ele>
        <time>2022-02-26T06:09:03.157Z</time>
      </trkpt>
      <trkpt lat="38.70682" lon="35.66842">
        <ele>1435.991419</ele>
        <time>2022-02-26T06:09:10.366Z</time>
      </trkpt>
      <trkpt lat="38.70708" lon="35.66808">
        <ele>1436.156025</ele>
        <time>2022-02-26T06:09:27.505Z</time>
      </trkpt>
      <trkpt lat="38.7073" lon="35.66793">
        <ele>1436.263753</ele>
        <time>2022-02-26T06:09:38.528Z</time>
      </trkpt>
      <trkpt lat="38.70749" lon="35.6677">
        <ele>1436.19319</ele>
        <time>2022-02-26T06:09:50.391Z</time>
      </trkpt>
      <trkpt lat="38.70773" lon="35.66707">
        <ele>1435.870208</ele>
        <time>2022-02-26T06:10:14.074Z</time>
      </trkpt>
      <trkpt lat="38.70784" lon="35.66682">
        <ele>1435.742936</ele>
        <time>2022-02-26T06:10:23.369Z</time>
      </trkpt>
      <trkpt lat="38.70789" lon="35.66671">
        <ele>1435.68262</ele>
        <time>2022-02-26T06:10:27.504Z</time>
      </trkpt>
      <trkpt lat="38.70855" lon="35.66544">
        <ele>1434.555585</ele>
        <time>2022-02-26T06:11:15.338Z</time>
      </trkpt>
      <trkpt lat="38.70927" lon="35.66312">
        <ele>1431.469138</ele>
        <time>2022-02-26T06:12:30.377Z</time>
      </trkpt>
      <trkpt lat="38.70946" lon="35.66275">
        <ele>1430.898906</ele>
        <time>2022-02-26T06:12:43.767Z</time>
      </trkpt>
      <trkpt lat="38.71025" lon="35.6617">
        <ele>1429.089732</ele>
        <time>2022-02-26T06:13:27.679Z</time>
      </trkpt>
      <trkpt lat="38.71142" lon="35.66057">
        <ele>1426.976448</ele>
        <time>2022-02-26T06:14:25.131Z</time>
      </trkpt>
      <trkpt lat="38.71202" lon="35.66013">
        <ele>1426.330711</ele>
        <time>2022-02-26T06:14:52.816Z</time>
      </trkpt>
      <trkpt lat="38.71261" lon="35.6596">
        <ele>1425.691523</ele>
        <time>2022-02-26T06:15:22.364Z</time>
      </trkpt>
      <trkpt lat="38.71332" lon="35.65915">
        <ele>1425.100434</ele>
        <time>2022-02-26T06:15:55.767Z</time>
      </trkpt>
      <trkpt lat="38.71484" lon="35.65856">
        <ele>1424.106306</ele>
        <time>2022-02-26T06:17:03.104Z</time>
      </trkpt>
      <trkpt lat="38.71576" lon="35.65802">
        <ele>1422.73326</ele>
        <time>2022-02-26T06:17:44.442Z</time>
      </trkpt>
      <trkpt lat="38.71598" lon="35.65783">
        <ele>1422.380414</ele>
        <time>2022-02-26T06:17:54.488Z</time>
      </trkpt>
      <trkpt lat="38.71586" lon="35.65757">
        <ele>1422.063784</ele>
        <time>2022-02-26T06:17:59.375Z</time>
      </trkpt>
      <trkpt lat="38.71555" lon="35.65703">
        <ele>1420.480746</ele>
        <time>2022-02-26T06:18:10.170Z</time>
      </trkpt>
      <trkpt lat="38.71518" lon="35.6565">
        <ele>1418.448743</ele>
        <time>2022-02-26T06:18:20.867Z</time>
      </trkpt>
      <trkpt lat="38.71465" lon="35.65577">
        <ele>1415.585843</ele>
        <time>2022-02-26T06:18:35.322Z</time>
      </trkpt>
      <trkpt lat="38.71446" lon="35.65538">
        <ele>1413.909584</ele>
        <time>2022-02-26T06:18:41.723Z</time>
      </trkpt>
      <trkpt lat="38.71423" lon="35.65453">
        <ele>1410.330278</ele>
        <time>2022-02-26T06:18:54.251Z</time>
      </trkpt>
      <trkpt lat="38.71416" lon="35.65409">
        <ele>1408.54471</ele>
        <time>2022-02-26T06:19:00.516Z</time>
      </trkpt>
      <trkpt lat="38.7141" lon="35.65254">
        <ele>1403.402884</ele>
        <time>2022-02-26T06:19:22.621Z</time>
      </trkpt>
      <trkpt lat="38.71424" lon="35.64869">
        <ele>1394.255959</ele>
        <time>2022-02-26T06:20:22.623Z</time>
      </trkpt>
      <trkpt lat="38.71422" lon="35.64799">
        <ele>1393.198589</ele>
        <time>2022-02-26T06:20:34.159Z</time>
      </trkpt>
      <trkpt lat="38.71404" lon="35.64662">
        <ele>1391.100648</ele>
        <time>2022-02-26T06:20:57.626Z</time>
      </trkpt>
      <trkpt lat="38.71394" lon="35.6461">
        <ele>1390.563167</ele>
        <time>2022-02-26T06:21:07.039Z</time>
      </trkpt>
      <trkpt lat="38.71392" lon="35.64599">
        <ele>1390.46441</ele>
        <time>2022-02-26T06:21:08.862Z</time>
      </trkpt>
      <trkpt lat="38.71381" lon="35.64526">
        <ele>1389.760901</ele>
        <time>2022-02-26T06:21:21.988Z</time>
      </trkpt>
      <trkpt lat="38.71385" lon="35.64482">
        <ele>1389.337017</ele>
        <time>2022-02-26T06:21:29.940Z</time>
      </trkpt>
      <trkpt lat="38.71394" lon="35.64459">
        <ele>1389.096544</ele>
        <time>2022-02-26T06:21:34.442Z</time>
      </trkpt>
      <trkpt lat="38.71485" lon="35.64348">
        <ele>1387.911719</ele>
        <time>2022-02-26T06:22:04.165Z</time>
      </trkpt>
      <trkpt lat="38.71564" lon="35.64237">
        <ele>1386.799877</ele>
        <time>2022-02-26T06:22:31.772Z</time>
      </trkpt>
      <trkpt lat="38.7174" lon="35.63963">
        <ele>1383.49157</ele>
        <time>2022-02-26T06:23:35.000Z</time>
      </trkpt>
      <trkpt lat="38.71781" lon="35.63878">
        <ele>1382.084367</ele>
        <time>2022-02-26T06:23:51.605Z</time>
      </trkpt>
      <trkpt lat="38.71792" lon="35.63833">
        <ele>1381.255545</ele>
        <time>2022-02-26T06:23:59.169Z</time>
      </trkpt>
      <trkpt lat="38.71804" lon="35.63604">
        <ele>1377.171966</ele>
        <time>2022-02-26T06:24:35.612Z</time>
      </trkpt>
      <trkpt lat="38.71791" lon="35.63345">
        <ele>1373.951763</ele>
        <time>2022-02-26T06:25:17.997Z</time>
      </trkpt>
      <trkpt lat="38.71786" lon="35.63309">
        <ele>1373.71647</ele>
        <time>2022-02-26T06:25:25.013Z</time>
      </trkpt>
      <trkpt lat="38.71775" lon="35.6327">
        <ele>1373.445244</ele>
        <time>2022-02-26T06:25:34.336Z</time>
      </trkpt>
      <trkpt lat="38.71761" lon="35.63223">
        <ele>1373.825735</ele>
        <time>2022-02-26T06:25:47.038Z</time>
      </trkpt>
      <trkpt lat="38.7175" lon="35.63179">
        <ele>1374.959621</ele>
        <time>2022-02-26T06:26:00.150Z</time>
      </trkpt>
      <trkpt lat="38.71695" lon="35.6276">
        <ele>1385.790537</ele>
        <time>2022-02-26T06:28:32.911Z</time>
      </trkpt>
      <trkpt lat="38.71725" lon="35.62394">
        <ele>1385.235394</ele>
        <time>2022-02-26T06:29:44.244Z</time>
      </trkpt>
      <trkpt lat="38.71746" lon="35.62265">
        <ele>1383.738283</ele>
        <time>2022-02-26T06:30:05.295Z</time>
      </trkpt>
      <trkpt lat="38.71775" lon="35.62157">
        <ele>1382.083389</ele>
        <time>2022-02-26T06:30:24.267Z</time>
      </trkpt>
      <trkpt lat="38.71788" lon="35.62105">
        <ele>1381.333921</ele>
        <time>2022-02-26T06:30:33.870Z</time>
      </trkpt>
      <trkpt lat="38.71792" lon="35.62053">
        <ele>1380.824294</ele>
        <time>2022-02-26T06:30:43.211Z</time>
      </trkpt>
      <trkpt lat="38.71789" lon="35.61952">
        <ele>1379.824749</ele>
        <time>2022-02-26T06:31:01.590Z</time>
      </trkpt>
      <trkpt lat="38.71784" lon="35.619">
        <ele>1379.311365</ele>
        <time>2022-02-26T06:31:10.835Z</time>
      </trkpt>
      <trkpt lat="38.7179" lon="35.618">
        <ele>1377.266479</ele>
        <time>2022-02-26T06:31:27.326Z</time>
      </trkpt>
      <trkpt lat="38.71783" lon="35.61752">
        <ele>1376.18852</ele>
        <time>2022-02-26T06:31:34.807Z</time>
      </trkpt>
      <trkpt lat="38.71746" lon="35.61603">
        <ele>1372.564645</ele>
        <time>2022-02-26T06:31:58.016Z</time>
      </trkpt>
      <trkpt lat="38.71743" lon="35.61565">
        <ele>1371.586626</ele>
        <time>2022-02-26T06:32:03.784Z</time>
      </trkpt>
      <trkpt lat="38.71754" lon="35.61431">
        <ele>1368.226385</ele>
        <time>2022-02-26T06:32:24.376Z</time>
      </trkpt>
      <trkpt lat="38.71754" lon="35.61357">
        <ele>1367.668575</ele>
        <time>2022-02-26T06:32:36.691Z</time>
      </trkpt>
      <trkpt lat="38.71749" lon="35.61321">
        <ele>1367.396679</ele>
        <time>2022-02-26T06:32:43.092Z</time>
      </trkpt>
      <trkpt lat="38.71739" lon="35.61286">
        <ele>1367.109005</ele>
        <time>2022-02-26T06:32:50.439Z</time>
      </trkpt>
      <trkpt lat="38.71701" lon="35.61169">
        <ele>1366.692227</ele>
        <time>2022-02-26T06:33:17.513Z</time>
      </trkpt>
      <trkpt lat="38.717" lon="35.61129">
        <ele>1366.857861</ele>
        <time>2022-02-26T06:33:27.193Z</time>
      </trkpt>
      <trkpt lat="38.71716" lon="35.61067">
        <ele>1367.122744</ele>
        <time>2022-02-26T06:33:42.939Z</time>
      </trkpt>
      <trkpt lat="38.71792" lon="35.60912">
        <ele>1367.021033</ele>
        <time>2022-02-26T06:34:23.651Z</time>
      </trkpt>
      <trkpt lat="38.71832" lon="35.60803">
        <ele>1366.524717</ele>
        <time>2022-02-26T06:34:45.485Z</time>
      </trkpt>
      <trkpt lat="38.71845" lon="35.60753">
        <ele>1365.516105</ele>
        <time>2022-02-26T06:34:54.167Z</time>
      </trkpt>
      <trkpt lat="38.71874" lon="35.60634">
        <ele>1362.836863</ele>
        <time>2022-02-26T06:35:13.748Z</time>
      </trkpt>
      <trkpt lat="38.71912" lon="35.60464">
        <ele>1358.020683</ele>
        <time>2022-02-26T06:35:39.913Z</time>
      </trkpt>
      <trkpt lat="38.71943" lon="35.60362">
        <ele>1354.740404</ele>
        <time>2022-02-26T06:35:55.889Z</time>
      </trkpt>
      <trkpt lat="38.71972" lon="35.60302">
        <ele>1352.853921</ele>
        <time>2022-02-26T06:36:06.485Z</time>
      </trkpt>
      <trkpt lat="38.71985" lon="35.60273">
        <ele>1351.98935</ele>
        <time>2022-02-26T06:36:11.496Z</time>
      </trkpt>
      <trkpt lat="38.71997" lon="35.6026">
        <ele>1351.464155</ele>
        <time>2022-02-26T06:36:14.523Z</time>
      </trkpt>
      <trkpt lat="38.72012" lon="35.60241">
        <ele>1350.771166</ele>
        <time>2022-02-26T06:36:18.578Z</time>
      </trkpt>
      <trkpt lat="38.72052" lon="35.60192">
        <ele>1348.896827</ele>
        <time>2022-02-26T06:36:29.484Z</time>
      </trkpt>
      <trkpt lat="38.72121" lon="35.6013">
        <ele>1346.81024</ele>
        <time>2022-02-26T06:36:46.782Z</time>
      </trkpt>
      <trkpt lat="38.72137" lon="35.60119">
        <ele>1346.368337</ele>
        <time>2022-02-26T06:36:50.584Z</time>
      </trkpt>
      <trkpt lat="38.72168" lon="35.60076">
        <ele>1345.281562</ele>
        <time>2022-02-26T06:37:00.668Z</time>
      </trkpt>
      <trkpt lat="38.72189" lon="35.60038">
        <ele>1344.414365</ele>
        <time>2022-02-26T06:37:08.453Z</time>
      </trkpt>
      <trkpt lat="38.72205" lon="35.59984">
        <ele>1343.166469</ele>
        <time>2022-02-26T06:37:18.076Z</time>
      </trkpt>
      <trkpt lat="38.72215" lon="35.59936">
        <ele>1342.063756</ele>
        <time>2022-02-26T06:37:26.430Z</time>
      </trkpt>
      <trkpt lat="38.72224" lon="35.59898">
        <ele>1341.170025</ele>
        <time>2022-02-26T06:37:33.292Z</time>
      </trkpt>
      <trkpt lat="38.72233" lon="35.5986">
        <ele>1340.308398</ele>
        <time>2022-02-26T06:37:39.719Z</time>
      </trkpt>
      <trkpt lat="38.72242" lon="35.59827">
        <ele>1339.526886</ele>
        <time>2022-02-26T06:37:45.291Z</time>
      </trkpt>
      <trkpt lat="38.72257" lon="35.59798">
        <ele>1338.423476</ele>
        <time>2022-02-26T06:37:50.657Z</time>
      </trkpt>
      <trkpt lat="38.72289" lon="35.59759">
        <ele>1336.316484</ele>
        <time>2022-02-26T06:37:59.022Z</time>
      </trkpt>
      <trkpt lat="38.7231" lon="35.59727">
        <ele>1334.748964</ele>
        <time>2022-02-26T06:38:05.294Z</time>
      </trkpt>
      <trkpt lat="38.72325" lon="35.59705">
        <ele>1333.659522</ele>
        <time>2022-02-26T06:38:09.552Z</time>
      </trkpt>
      <trkpt lat="38.72334" lon="35.59691">
        <ele>1332.989333</ele>
        <time>2022-02-26T06:38:12.218Z</time>
      </trkpt>
      <trkpt lat="38.72359" lon="35.5965">
        <ele>1331.002493</ele>
        <time>2022-02-26T06:38:20.091Z</time>
      </trkpt>
      <trkpt lat="38.72397" lon="35.59599">
        <ele>1328.060798</ele>
        <time>2022-02-26T06:38:30.279Z</time>
      </trkpt>
      <trkpt lat="38.72411" lon="35.59586">
        <ele>1327.11908</ele>
        <time>2022-02-26T06:38:33.509Z</time>
      </trkpt>
      <trkpt lat="38.72428" lon="35.5958">
        <ele>1326.175332</ele>
        <time>2022-02-26T06:38:36.650Z</time>
      </trkpt>
      <trkpt lat="38.7243" lon="35.59579">
        <ele>1326.046737</ele>
        <time>2022-02-26T06:38:37.032Z</time>
      </trkpt>
      <trkpt lat="38.72474" lon="35.59572">
        <ele>1323.613627</ele>
        <time>2022-02-26T06:38:45.024Z</time>
      </trkpt>
      <trkpt lat="38.72498" lon="35.59566">
        <ele>1322.278223</ele>
        <time>2022-02-26T06:38:49.507Z</time>
      </trkpt>
      <trkpt lat="38.72515" lon="35.59571">
        <ele>1321.345108</ele>
        <time>2022-02-26T06:38:52.864Z</time>
      </trkpt>
      <trkpt lat="38.7254" lon="35.59579">
        <ele>1319.992568</ele>
        <time>2022-02-26T06:38:57.639Z</time>
      </trkpt>
      <trkpt lat="38.72575" lon="35.59586">
        <ele>1318.152571</ele>
        <time>2022-02-26T06:39:04.375Z</time>
      </trkpt>
      <trkpt lat="38.72611" lon="35.59582">
        <ele>1316.285798</ele>
        <time>2022-02-26T06:39:11.304Z</time>
      </trkpt>
      <trkpt lat="38.72646" lon="35.5957">
        <ele>1314.410157</ele>
        <time>2022-02-26T06:39:18.129Z</time>
      </trkpt>
      <trkpt lat="38.72679" lon="35.5956">
        <ele>1312.671553</ele>
        <time>2022-02-26T06:39:24.406Z</time>
      </trkpt>
      <trkpt lat="38.72734" lon="35.59571">
        <ele>1310.027005</ele>
        <time>2022-02-26T06:39:35.025Z</time>
      </trkpt>
      <trkpt lat="38.72752" lon="35.59569">
        <ele>1309.268025</ele>
        <time>2022-02-26T06:39:38.267Z</time>
      </trkpt>
      <trkpt lat="38.72795" lon="35.59564">
        <ele>1307.36652</ele>
        <time>2022-02-26T06:39:46.485Z</time>
      </trkpt>
      <trkpt lat="38.72812" lon="35.59564">
        <ele>1306.648617</ele>
        <time>2022-02-26T06:39:49.547Z</time>
      </trkpt>
      <trkpt lat="38.72852" lon="35.59572">
        <ele>1304.896733</ele>
        <time>2022-02-26T06:39:57.646Z</time>
      </trkpt>
      <trkpt lat="38.7291" lon="35.59595">
        <ele>1303.242844</ele>
        <time>2022-02-26T06:40:11.161Z</time>
      </trkpt>
      <trkpt lat="38.72948" lon="35.59606">
        <ele>1302.797073</ele>
        <time>2022-02-26T06:40:20.436Z</time>
      </trkpt>
      <trkpt lat="38.72951" lon="35.59601">
        <ele>1302.746465</ele>
        <time>2022-02-26T06:40:21.402Z</time>
      </trkpt>
      <trkpt lat="38.7296" lon="35.59611">
        <ele>1302.612943</ele>
        <time>2022-02-26T06:40:26.243Z</time>
      </trkpt>
      <trkpt lat="38.7297" lon="35.59638">
        <ele>1302.347955</ele>
        <time>2022-02-26T06:40:31.147Z</time>
      </trkpt>
      <trkpt lat="38.72971" lon="35.59653">
        <ele>1302.214198</ele>
        <time>2022-02-26T06:40:36.212Z</time>
      </trkpt>
      <trkpt lat="38.72998" lon="35.59636">
        <ele>1301.869619</ele>
        <time>2022-02-26T06:40:43.058Z</time>
      </trkpt>
      <trkpt lat="38.73058" lon="35.59603">
        <ele>1300.726883</ele>
        <time>2022-02-26T06:40:59.186Z</time>
      </trkpt>
      <trkpt lat="38.73074" lon="35.59601">
        <ele>1300.373399</ele>
        <time>2022-02-26T06:41:05.708Z</time>
      </trkpt>
      <trkpt lat="38.73083" lon="35.59596">
        <ele>1300.155151</ele>
        <time>2022-02-26T06:41:07.910Z</time>
      </trkpt>
      <trkpt lat="38.73088" lon="35.59593">
        <ele>1300.01986</ele>
        <time>2022-02-26T06:41:09.066Z</time>
      </trkpt>
      <trkpt lat="38.731" lon="35.59579">
        <ele>1299.665305</ele>
        <time>2022-02-26T06:41:14.544Z</time>
      </trkpt>
      <trkpt lat="38.73107" lon="35.59561">
        <ele>1299.31276</ele>
        <time>2022-02-26T06:41:17.929Z</time>
      </trkpt>
      <trkpt lat="38.73125" lon="35.59559">
        <ele>1298.915966</ele>
        <time>2022-02-26T06:41:21.846Z</time>
      </trkpt>
      <trkpt lat="38.73151" lon="35.59563">
        <ele>1298.326353</ele>
        <time>2022-02-26T06:41:26.830Z</time>
      </trkpt>
      <trkpt lat="38.7323" lon="35.59567">
        <ele>1294.796398</ele>
        <time>2022-02-26T06:41:41.660Z</time>
      </trkpt>
      <trkpt lat="38.73253" lon="35.59576">
        <ele>1293.25319</ele>
        <time>2022-02-26T06:41:46.253Z</time>
      </trkpt>
      <trkpt lat="38.73264" lon="35.59585">
        <ele>1292.409167</ele>
        <time>2022-02-26T06:41:48.627Z</time>
      </trkpt>
      <trkpt lat="38.73267" lon="35.59589">
        <ele>1292.176313</ele>
        <time>2022-02-26T06:41:49.345Z</time>
      </trkpt>
      <trkpt lat="38.73298" lon="35.59591">
        <ele>1290.181501</ele>
        <time>2022-02-26T06:41:54.988Z</time>
      </trkpt>
      <trkpt lat="38.7333" lon="35.59596">
        <ele>1288.180765</ele>
        <time>2022-02-26T06:42:00.801Z</time>
      </trkpt>
      <trkpt lat="38.73365" lon="35.59607">
        <ele>1285.827946</ele>
        <time>2022-02-26T06:42:07.333Z</time>
      </trkpt>
      <trkpt lat="38.73368" lon="35.59608">
        <ele>1285.656649</ele>
        <time>2022-02-26T06:42:07.712Z</time>
      </trkpt>
      <trkpt lat="38.73377" lon="35.59636">
        <ele>1283.900598</ele>
        <time>2022-02-26T06:42:12.288Z</time>
      </trkpt>
      <trkpt lat="38.73407" lon="35.59646">
        <ele>1281.69893</ele>
        <time>2022-02-26T06:42:17.869Z</time>
      </trkpt>
      <trkpt lat="38.73429" lon="35.59667">
        <ele>1279.726523</ele>
        <time>2022-02-26T06:42:22.614Z</time>
      </trkpt>
      <trkpt lat="38.73433" lon="35.59658">
        <ele>1279.166007</ele>
        <time>2022-02-26T06:42:24.300Z</time>
      </trkpt>
      <trkpt lat="38.73433" lon="35.59639">
        <ele>1278.072072</ele>
        <time>2022-02-26T06:42:26.989Z</time>
      </trkpt>
      <trkpt lat="38.73412" lon="35.59591">
        <ele>1274.988058</ele>
        <time>2022-02-26T06:42:34.516Z</time>
      </trkpt>
      <trkpt lat="38.73389" lon="35.59562">
        <ele>1272.53556</ele>
        <time>2022-02-26T06:42:40.471Z</time>
      </trkpt>
      <trkpt lat="38.73377" lon="35.59547">
        <ele>1271.084395</ele>
        <time>2022-02-26T06:42:43.737Z</time>
      </trkpt>
      <trkpt lat="38.73364" lon="35.5953">
        <ele>1269.402001</ele>
        <time>2022-02-26T06:42:47.048Z</time>
      </trkpt>
      <trkpt lat="38.73335" lon="35.59504">
        <ele>1266.265035</ele>
        <time>2022-02-26T06:42:53.447Z</time>
      </trkpt>
      <trkpt lat="38.73305" lon="35.59488">
        <ele>1263.424471</ele>
        <time>2022-02-26T06:42:59.100Z</time>
      </trkpt>
      <trkpt lat="38.73284" lon="35.59482">
        <ele>1261.530025</ele>
        <time>2022-02-26T06:43:02.785Z</time>
      </trkpt>
      <trkpt lat="38.7334" lon="35.59482">
        <ele>1256.229958</ele>
        <time>2022-02-26T06:43:12.103Z</time>
      </trkpt>
      <trkpt lat="38.73411" lon="35.59473">
        <ele>1246.706509</ele>
        <time>2022-02-26T06:43:23.866Z</time>
      </trkpt>
      <trkpt lat="38.73396" lon="35.59464">
        <ele>1244.524194</ele>
        <time>2022-02-26T06:43:26.530Z</time>
      </trkpt>
      <trkpt lat="38.73371" lon="35.59436">
        <ele>1240.06915</ele>
        <time>2022-02-26T06:43:31.971Z</time>
      </trkpt>
      <trkpt lat="38.73343" lon="35.59407">
        <ele>1235.30078</ele>
        <time>2022-02-26T06:43:37.816Z</time>
      </trkpt>
      <trkpt lat="38.73338" lon="35.59403">
        <ele>1234.412525</ele>
        <time>2022-02-26T06:43:38.908Z</time>
      </trkpt>
      <trkpt lat="38.73311" lon="35.59382">
        <ele>1231.301865</ele>
        <time>2022-02-26T06:43:44.023Z</time>
      </trkpt>
      <trkpt lat="38.73291" lon="35.59361">
        <ele>1228.959165</ele>
        <time>2022-02-26T06:43:48.560Z</time>
      </trkpt>
      <trkpt lat="38.73271" lon="35.59322">
        <ele>1225.722143</ele>
        <time>2022-02-26T06:43:54.840Z</time>
      </trkpt>
      <trkpt lat="38.73267" lon="35.5931">
        <ele>1224.836471</ele>
        <time>2022-02-26T06:43:56.485Z</time>
      </trkpt>
      <trkpt lat="38.7327" lon="35.59293">
        <ele>1223.62265</ele>
        <time>2022-02-26T06:43:58.962Z</time>
      </trkpt>
      <trkpt lat="38.7327" lon="35.59277">
        <ele>1222.507815</ele>
        <time>2022-02-26T06:44:01.296Z</time>
      </trkpt>
      <trkpt lat="38.73262" lon="35.59263">
        <ele>1221.342223</ele>
        <time>2022-02-26T06:44:03.526Z</time>
      </trkpt>
      <trkpt lat="38.73155" lon="35.59202">
        <ele>1213.552765</ele>
        <time>2022-02-26T06:44:25.362Z</time>
      </trkpt>
      <trkpt lat="38.73125" lon="35.59185">
        <ele>1211.874907</ele>
        <time>2022-02-26T06:44:31.819Z</time>
      </trkpt>
      <trkpt lat="38.73125" lon="35.59112">
        <ele>1208.901633</ele>
        <time>2022-02-26T06:44:42.751Z</time>
      </trkpt>
      <trkpt lat="38.73127" lon="35.58949">
        <ele>1203.289024</ele>
        <time>2022-02-26T06:45:06.732Z</time>
      </trkpt>
      <trkpt lat="38.73128" lon="35.58891">
        <ele>1201.352994</ele>
        <time>2022-02-26T06:45:15.909Z</time>
      </trkpt>
      <trkpt lat="38.73078" lon="35.58889">
        <ele>1199.853915</ele>
        <time>2022-02-26T06:45:26.487Z</time>
      </trkpt>
      <trkpt lat="38.72975" lon="35.58885">
        <ele>1198.095891</ele>
        <time>2022-02-26T06:45:50.401Z</time>
      </trkpt>
      <trkpt lat="38.72975" lon="35.58833">
        <ele>1197.401825</ele>
        <time>2022-02-26T06:46:00.686Z</time>
      </trkpt>
      <trkpt lat="38.72815" lon="35.5883">
        <ele>1194.6049</ele>
        <time>2022-02-26T06:46:37.198Z</time>
      </trkpt>
      <trkpt lat="38.72815" lon="35.58813">
        <ele>1194.373623</ele>
        <time>2022-02-26T06:46:40.111Z</time>
      </trkpt>
      <trkpt lat="38.72814" lon="35.58777">
        <ele>1193.770293</ele>
        <time>2022-02-26T06:46:45.904Z</time>
      </trkpt>
      <trkpt lat="38.72814" lon="35.5872">
        <ele>1192.475862</ele>
        <time>2022-02-26T06:46:55.352Z</time>
      </trkpt>
      <trkpt lat="38.72813" lon="35.58666">
        <ele>1191.271619</ele>
        <time>2022-02-26T06:47:04.028Z</time>
      </trkpt>
      <trkpt lat="38.72808" lon="35.58624">
        <ele>1190.308169</ele>
        <time>2022-02-26T06:47:10.896Z</time>
      </trkpt>
      <trkpt lat="38.72806" lon="35.58606">
        <ele>1189.891491</ele>
        <time>2022-02-26T06:47:13.904Z</time>
      </trkpt>
      <trkpt lat="38.72812" lon="35.58596">
        <ele>1189.615908</ele>
        <time>2022-02-26T06:47:15.691Z</time>
      </trkpt>
      <trkpt lat="38.72877" lon="35.58488">
        <ele>1187.153379</ele>
        <time>2022-02-26T06:47:36.777Z</time>
      </trkpt>
      <trkpt lat="38.72953" lon="35.58373">
        <ele>1184.858853</ele>
        <time>2022-02-26T06:48:02.585Z</time>
      </trkpt>
      <trkpt lat="38.72972" lon="35.58345">
        <ele>1184.549607</ele>
        <time>2022-02-26T06:48:09.488Z</time>
      </trkpt>
      <trkpt lat="38.72976" lon="35.58341">
        <ele>1184.501475</ele>
        <time>2022-02-26T06:48:10.692Z</time>
      </trkpt>
      <trkpt lat="38.72981" lon="35.58328">
        <ele>1184.37781</ele>
        <time>2022-02-26T06:48:13.434Z</time>
      </trkpt>
      <trkpt lat="38.72981" lon="35.58324">
        <ele>1184.345899</ele>
        <time>2022-02-26T06:48:14.255Z</time>
      </trkpt>
      <trkpt lat="38.73036" lon="35.58231">
        <ele>1183.389056</ele>
        <time>2022-02-26T06:48:36.266Z</time>
      </trkpt>
      <trkpt lat="38.73163" lon="35.58014">
        <ele>1179.005981</ele>
        <time>2022-02-26T06:49:21.491Z</time>
      </trkpt>
      <trkpt lat="38.7318" lon="35.5803">
        <ele>1177.92758</ele>
        <time>2022-02-26T06:49:25.653Z</time>
      </trkpt>
      <trkpt lat="38.73265" lon="35.57889">
        <ele>1170.870785</ele>
        <time>2022-02-26T06:49:51.487Z</time>
      </trkpt>
      <trkpt lat="38.73346" lon="35.57747">
        <ele>1163.461607</ele>
        <time>2022-02-26T06:50:16.563Z</time>
      </trkpt>
      <trkpt lat="38.73388" lon="35.5767">
        <ele>1159.92244</ele>
        <time>2022-02-26T06:50:31.141Z</time>
      </trkpt>
      <trkpt lat="38.73408" lon="35.57647">
        <ele>1159.084997</ele>
        <time>2022-02-26T06:50:36.586Z</time>
      </trkpt>
      <trkpt lat="38.73434" lon="35.57603">
        <ele>1157.751786</ele>
        <time>2022-02-26T06:50:45.430Z</time>
      </trkpt>
      <trkpt lat="38.73425" lon="35.57576">
        <ele>1157.045539</ele>
        <time>2022-02-26T06:50:50.129Z</time>
      </trkpt>
      <trkpt lat="38.73429" lon="35.57573">
        <ele>1156.908508</ele>
        <time>2022-02-26T06:50:51.028Z</time>
      </trkpt>
      <trkpt lat="38.73432" lon="35.57564">
        <ele>1156.655586</ele>
        <time>2022-02-26T06:50:52.714Z</time>
      </trkpt>
      <trkpt lat="38.73432" lon="35.57558">
        <ele>1156.527539</ele>
        <time>2022-02-26T06:50:53.551Z</time>
      </trkpt>
      <trkpt lat="38.73431" lon="35.57553">
        <ele>1156.399231</ele>
        <time>2022-02-26T06:50:54.393Z</time>
      </trkpt>
      <trkpt lat="38.73421" lon="35.57545">
        <ele>1156.027725</ele>
        <time>2022-02-26T06:50:56.806Z</time>
      </trkpt>
      <trkpt lat="38.73416" lon="35.57545">
        <ele>1155.897591</ele>
        <time>2022-02-26T06:50:57.664Z</time>
      </trkpt>
      <trkpt lat="38.73386" lon="35.57417">
        <ele>1152.717526</ele>
        <time>2022-02-26T06:51:20.318Z</time>
      </trkpt>
      <trkpt lat="38.73394" lon="35.57416">
        <ele>1152.47482</ele>
        <time>2022-02-26T06:51:21.937Z</time>
      </trkpt>
      <trkpt lat="38.73402" lon="35.57415">
        <ele>1152.230302</ele>
        <time>2022-02-26T06:51:23.527Z</time>
      </trkpt>
      <trkpt lat="38.7342" lon="35.57414">
        <ele>1151.692644</ele>
        <time>2022-02-26T06:51:27.015Z</time>
      </trkpt>
      <trkpt lat="38.73422" lon="35.57375">
        <ele>1150.758867</ele>
        <time>2022-02-26T06:51:33.227Z</time>
      </trkpt>
      <trkpt lat="38.73424" lon="35.57304">
        <ele>1148.807193</ele>
        <time>2022-02-26T06:51:44.009Z</time>
      </trkpt>
      <trkpt lat="38.73424" lon="35.57279">
        <ele>1147.822485</ele>
        <time>2022-02-26T06:51:47.787Z</time>
      </trkpt>
      <trkpt lat="38.73423" lon="35.57231">
        <ele>1145.899625</ele>
        <time>2022-02-26T06:51:55.116Z</time>
      </trkpt>
      <trkpt lat="38.73427" lon="35.57152">
        <ele>1142.780063</ele>
        <time>2022-02-26T06:52:06.872Z</time>
      </trkpt>
      <trkpt lat="38.73427" lon="35.57115">
        <ele>1141.336468</ele>
        <time>2022-02-26T06:52:12.163Z</time>
      </trkpt>
      <trkpt lat="38.7342" lon="35.5697">
        <ele>1133.6707</ele>
        <time>2022-02-26T06:52:32.758Z</time>
      </trkpt>
      <trkpt lat="38.73415" lon="35.56921">
        <ele>1130.949779</ele>
        <time>2022-02-26T06:52:39.599Z</time>
      </trkpt>
      <trkpt lat="38.73408" lon="35.56915">
        <ele>1130.323069</ele>
        <time>2022-02-26T06:52:41.187Z</time>
      </trkpt>
      <trkpt lat="38.73401" lon="35.5691">
        <ele>1129.738903</ele>
        <time>2022-02-26T06:52:42.734Z</time>
      </trkpt>
      <trkpt lat="38.73396" lon="35.56908">
        <ele>1129.39338</ele>
        <time>2022-02-26T06:52:43.608Z</time>
      </trkpt>
      <trkpt lat="38.73393" lon="35.56906">
        <ele>1129.156469</ele>
        <time>2022-02-26T06:52:44.148Z</time>
      </trkpt>
      <trkpt lat="38.73382" lon="35.56904">
        <ele>1128.369446</ele>
        <time>2022-02-26T06:52:46.132Z</time>
      </trkpt>
      <trkpt lat="38.73382" lon="35.56896">
        <ele>1127.921007</ele>
        <time>2022-02-26T06:52:47.250Z</time>
      </trkpt>
      <trkpt lat="38.73434" lon="35.56829">
        <ele>1122.482166</ele>
        <time>2022-02-26T06:53:00.258Z</time>
      </trkpt>
      <trkpt lat="38.73447" lon="35.56803">
        <ele>1120.720662</ele>
        <time>2022-02-26T06:53:04.382Z</time>
      </trkpt>
      <trkpt lat="38.73448" lon="35.56794">
        <ele>1120.178037</ele>
        <time>2022-02-26T06:53:05.652Z</time>
      </trkpt>
      <trkpt lat="38.73457" lon="35.56754">
        <ele>1117.791852</ele>
        <time>2022-02-26T06:53:11.419Z</time>
      </trkpt>
      <trkpt lat="38.73485" lon="35.56709">
        <ele>1114.475694</ele>
        <time>2022-02-26T06:53:19.772Z</time>
      </trkpt>
      <trkpt lat="38.73487" lon="35.56695">
        <ele>1114.006503</ele>
        <time>2022-02-26T06:53:21.888Z</time>
      </trkpt>
      <trkpt lat="38.7349" lon="35.56689">
        <ele>1113.795628</ele>
        <time>2022-02-26T06:53:22.792Z</time>
      </trkpt>
      <trkpt lat="38.73492" lon="35.56683">
        <ele>1113.58612</ele>
        <time>2022-02-26T06:53:23.805Z</time>
      </trkpt>
      <trkpt lat="38.73581" lon="35.56609">
        <ele>1109.41724</ele>
        <time>2022-02-26T06:53:44.519Z</time>
      </trkpt>
      <trkpt lat="38.73705" lon="35.56536">
        <ele>1105.397089</ele>
        <time>2022-02-26T06:54:14.320Z</time>
      </trkpt>
      <trkpt lat="38.73719" lon="35.56521">
        <ele>1104.994924</ele>
        <time>2022-02-26T06:54:18.284Z</time>
      </trkpt>
      <trkpt lat="38.73732" lon="35.56507">
        <ele>1104.594042</ele>
        <time>2022-02-26T06:54:22.127Z</time>
      </trkpt>
      <trkpt lat="38.73755" lon="35.56476">
        <ele>1103.828214</ele>
        <time>2022-02-26T06:54:29.523Z</time>
      </trkpt>
      <trkpt lat="38.73781" lon="35.56446">
        <ele>1103.025511</ele>
        <time>2022-02-26T06:54:36.927Z</time>
      </trkpt>
      <trkpt lat="38.73828" lon="35.5638">
        <ele>1101.423042</ele>
        <time>2022-02-26T06:54:51.270Z</time>
      </trkpt>
      <trkpt lat="38.73836" lon="35.56365">
        <ele>1101.08591</ele>
        <time>2022-02-26T06:54:54.362Z</time>
      </trkpt>
      <trkpt lat="38.73847" lon="35.56344">
        <ele>1100.629836</ele>
        <time>2022-02-26T06:54:58.550Z</time>
      </trkpt>
      <trkpt lat="38.73862" lon="35.56327">
        <ele>1100.159337</ele>
        <time>2022-02-26T06:55:03.103Z</time>
      </trkpt>
      <trkpt lat="38.73856" lon="35.563">
        <ele>1099.667547</ele>
        <time>2022-02-26T06:55:07.667Z</time>
      </trkpt>
      <trkpt lat="38.73868" lon="35.56268">
        <ele>1099.022005</ele>
        <time>2022-02-26T06:55:14.117Z</time>
      </trkpt>
      <trkpt lat="38.73885" lon="35.56228">
        <ele>1098.611559</ele>
        <time>2022-02-26T06:55:22.426Z</time>
      </trkpt>
      <trkpt lat="38.73903" lon="35.562">
        <ele>1098.293864</ele>
        <time>2022-02-26T06:55:29.229Z</time>
      </trkpt>
      <trkpt lat="38.73924" lon="35.5618">
        <ele>1098.007919</ele>
        <time>2022-02-26T06:55:35.218Z</time>
      </trkpt>
      <trkpt lat="38.74003" lon="35.56075">
        <ele>1096.733312</ele>
        <time>2022-02-26T06:56:03.320Z</time>
      </trkpt>
      <trkpt lat="38.7401" lon="35.56063">
        <ele>1096.591967</ele>
        <time>2022-02-26T06:56:06.736Z</time>
      </trkpt>
      <trkpt lat="38.74017" lon="35.5605">
        <ele>1096.451189</ele>
        <time>2022-02-26T06:56:09.683Z</time>
      </trkpt>
      <trkpt lat="38.74062" lon="35.55959">
        <ele>1095.48011</ele>
        <time>2022-02-26T06:56:29.805Z</time>
      </trkpt>
      <trkpt lat="38.74073" lon="35.55923">
        <ele>1095.126219</ele>
        <time>2022-02-26T06:56:36.801Z</time>
      </trkpt>
      <trkpt lat="38.74087" lon="35.55783">
        <ele>1093.266695</ele>
        <time>2022-02-26T06:57:01.437Z</time>
      </trkpt>
      <trkpt lat="38.74083" lon="35.55692">
        <ele>1091.990511</ele>
        <time>2022-02-26T06:57:17.251Z</time>
      </trkpt>
      <trkpt lat="38.74091" lon="35.55662">
        <ele>1091.568488</ele>
        <time>2022-02-26T06:57:22.845Z</time>
      </trkpt>
      <trkpt lat="38.74104" lon="35.55644">
        <ele>1091.295184</ele>
        <time>2022-02-26T06:57:27.188Z</time>
      </trkpt>
      <trkpt lat="38.74109" lon="35.5564">
        <ele>1091.204523</ele>
        <time>2022-02-26T06:57:28.563Z</time>
      </trkpt>
      <trkpt lat="38.74105" lon="35.55639">
        <ele>1091.148708</ele>
        <time>2022-02-26T06:57:29.423Z</time>
      </trkpt>
      <trkpt lat="38.74101" lon="35.55638">
        <ele>1091.091223</ele>
        <time>2022-02-26T06:57:30.347Z</time>
      </trkpt>
      <trkpt lat="38.74092" lon="35.55631">
        <ele>1090.93977</ele>
        <time>2022-02-26T06:57:32.734Z</time>
      </trkpt>
      <trkpt lat="38.7411" lon="35.55592">
        <ele>1090.424155</ele>
        <time>2022-02-26T06:57:40.923Z</time>
      </trkpt>
      <trkpt lat="38.74115" lon="35.55559">
        <ele>1090.044498</ele>
        <time>2022-02-26T06:57:46.920Z</time>
      </trkpt>
      <trkpt lat="38.74109" lon="35.55526">
        <ele>1089.654386</ele>
        <time>2022-02-26T06:57:53.252Z</time>
      </trkpt>
      <trkpt lat="38.74093" lon="35.55493">
        <ele>1089.216997</ele>
        <time>2022-02-26T06:58:00.292Z</time>
      </trkpt>
      <trkpt lat="38.74092" lon="35.55479">
        <ele>1089.055759</ele>
        <time>2022-02-26T06:58:03.009Z</time>
      </trkpt>
      <trkpt lat="38.74094" lon="35.55443">
        <ele>1088.780614</ele>
        <time>2022-02-26T06:58:09.623Z</time>
      </trkpt>
      <trkpt lat="38.74106" lon="35.55389">
        <ele>1088.352544</ele>
        <time>2022-02-26T06:58:20.413Z</time>
      </trkpt>
      <trkpt lat="38.74111" lon="35.55368">
        <ele>1088.181274</ele>
        <time>2022-02-26T06:58:24.373Z</time>
      </trkpt>
      <trkpt lat="38.74102" lon="35.55347">
        <ele>1087.998449</ele>
        <time>2022-02-26T06:58:29.445Z</time>
      </trkpt>
      <trkpt lat="38.74108" lon="35.55337">
        <ele>1087.895572</ele>
        <time>2022-02-26T06:58:31.811Z</time>
      </trkpt>
      <trkpt lat="38.74137" lon="35.55287">
        <ele>1087.419891</ele>
        <time>2022-02-26T06:58:43.482Z</time>
      </trkpt>
      <trkpt lat="38.7416" lon="35.55243">
        <ele>1087.031669</ele>
        <time>2022-02-26T06:58:53.888Z</time>
      </trkpt>
      <trkpt lat="38.74178" lon="35.55178">
        <ele>1086.536293</ele>
        <time>2022-02-26T06:59:07.649Z</time>
      </trkpt>
      <trkpt lat="38.74181" lon="35.5517">
        <ele>1086.470885</ele>
        <time>2022-02-26T06:59:09.255Z</time>
      </trkpt>
      <trkpt lat="38.74183" lon="35.55135">
        <ele>1086.223933</ele>
        <time>2022-02-26T06:59:15.913Z</time>
      </trkpt>
      <trkpt lat="38.74201" lon="35.55048">
        <ele>1085.543109</ele>
        <time>2022-02-26T06:59:32.591Z</time>
      </trkpt>
      <trkpt lat="38.74211" lon="35.55011">
        <ele>1085.080456</ele>
        <time>2022-02-26T06:59:39.936Z</time>
      </trkpt>
      <trkpt lat="38.7423" lon="35.54946">
        <ele>1084.28541</ele>
        <time>2022-02-26T06:59:52.600Z</time>
      </trkpt>
      <trkpt lat="38.74258" lon="35.54857">
        <ele>1083.180546</ele>
        <time>2022-02-26T07:00:09.952Z</time>
      </trkpt>
      <trkpt lat="38.7427" lon="35.54822">
        <ele>1082.797285</ele>
        <time>2022-02-26T07:00:16.297Z</time>
      </trkpt>
      <trkpt lat="38.74304" lon="35.54756">
        <ele>1082.09851</ele>
        <time>2022-02-26T07:00:29.664Z</time>
      </trkpt>
      <trkpt lat="38.74334" lon="35.54697">
        <ele>1081.479584</ele>
        <time>2022-02-26T07:00:42.368Z</time>
      </trkpt>
      <trkpt lat="38.74375" lon="35.54625">
        <ele>1081.095103</ele>
        <time>2022-02-26T07:01:03.568Z</time>
      </trkpt>
      <trkpt lat="38.74367" lon="35.54612">
        <ele>1081.187765</ele>
        <time>2022-02-26T07:01:09.041Z</time>
      </trkpt>
      <trkpt lat="38.74321" lon="35.54559">
        <ele>1081.615543</ele>
        <time>2022-02-26T07:01:27.842Z</time>
      </trkpt>
      <trkpt lat="38.74301" lon="35.54541">
        <ele>1081.782447</ele>
        <time>2022-02-26T07:01:36.135Z</time>
      </trkpt>
      <trkpt lat="38.74297" lon="35.54538">
        <ele>1081.816745</ele>
        <time>2022-02-26T07:01:37.382Z</time>
      </trkpt>
      <trkpt lat="38.74249" lon="35.54495">
        <ele>1082.119294</ele>
        <time>2022-02-26T07:01:57.688Z</time>
      </trkpt>
      <trkpt lat="38.74224" lon="35.54474">
        <ele>1081.712013</ele>
        <time>2022-02-26T07:02:05.657Z</time>
      </trkpt>
      <trkpt lat="38.74161" lon="35.54419">
        <ele>1080.670838</ele>
        <time>2022-02-26T07:02:23.309Z</time>
      </trkpt>
      <trkpt lat="38.7414" lon="35.54302">
        <ele>1079.300781</ele>
        <time>2022-02-26T07:02:43.125Z</time>
      </trkpt>
      <trkpt lat="38.74149" lon="35.54298">
        <ele>1079.135511</ele>
        <time>2022-02-26T07:02:45.125Z</time>
      </trkpt>
      <trkpt lat="38.74178" lon="35.54271">
        <ele>1078.52238</ele>
        <time>2022-02-26T07:02:52.730Z</time>
      </trkpt>
      <trkpt lat="38.74191" lon="35.54251">
        <ele>1078.165816</ele>
        <time>2022-02-26T07:02:57.228Z</time>
      </trkpt>
      <trkpt lat="38.74194" lon="35.54245">
        <ele>1078.085896</ele>
        <time>2022-02-26T07:02:58.188Z</time>
      </trkpt>
      <trkpt lat="38.74196" lon="35.5424">
        <ele>1078.005226</ele>
        <time>2022-02-26T07:02:59.140Z</time>
      </trkpt>
      <trkpt lat="38.74213" lon="35.54207">
        <ele>1077.479182</ele>
        <time>2022-02-26T07:03:05.888Z</time>
      </trkpt>
      <trkpt lat="38.74226" lon="35.54197">
        <ele>1077.218695</ele>
        <time>2022-02-26T07:03:09.179Z</time>
      </trkpt>
      <trkpt lat="38.7423" lon="35.54196">
        <ele>1077.149948</ele>
        <time>2022-02-26T07:03:10.273Z</time>
      </trkpt>
      <trkpt lat="38.74235" lon="35.54195">
        <ele>1077.057148</ele>
        <time>2022-02-26T07:03:11.718Z</time>
      </trkpt>
      <trkpt lat="38.74241" lon="35.54194">
        <ele>1076.963818</ele>
        <time>2022-02-26T07:03:12.832Z</time>
      </trkpt>
      <trkpt lat="38.74246" lon="35.54191">
        <ele>1076.869753</ele>
        <time>2022-02-26T07:03:13.990Z</time>
      </trkpt>
      <trkpt lat="38.74248" lon="35.54189">
        <ele>1076.811303</ele>
        <time>2022-02-26T07:03:14.764Z</time>
      </trkpt>
      <trkpt lat="38.74256" lon="35.5418">
        <ele>1076.644191</ele>
        <time>2022-02-26T07:03:17.031Z</time>
      </trkpt>
      <trkpt lat="38.74257" lon="35.54176">
        <ele>1076.626927</ele>
        <time>2022-02-26T07:03:18.112Z</time>
      </trkpt>
      <trkpt lat="38.7426" lon="35.5417">
        <ele>1076.598843</ele>
        <time>2022-02-26T07:03:19.821Z</time>
      </trkpt>
      <trkpt lat="38.74261" lon="35.54163">
        <ele>1076.570449</ele>
        <time>2022-02-26T07:03:21.247Z</time>
      </trkpt>
      <trkpt lat="38.74262" lon="35.54156">
        <ele>1076.542471</ele>
        <time>2022-02-26T07:03:22.485Z</time>
      </trkpt>
      <trkpt lat="38.74263" lon="35.54148">
        <ele>1076.508079</ele>
        <time>2022-02-26T07:03:24.091Z</time>
      </trkpt>
      <trkpt lat="38.74273" lon="35.54122">
        <ele>1076.394207</ele>
        <time>2022-02-26T07:03:30.167Z</time>
      </trkpt>
      <trkpt lat="38.74278" lon="35.54113">
        <ele>1076.349266</ele>
        <time>2022-02-26T07:03:32.111Z</time>
      </trkpt>
      <trkpt lat="38.74284" lon="35.541">
        <ele>1076.28836</ele>
        <time>2022-02-26T07:03:34.792Z</time>
      </trkpt>
      <trkpt lat="38.74301" lon="35.54072">
        <ele>1076.141282</ele>
        <time>2022-02-26T07:03:42.379Z</time>
      </trkpt>
      <trkpt lat="38.7432" lon="35.54053">
        <ele>1076.021149</ele>
        <time>2022-02-26T07:03:48.717Z</time>
      </trkpt>
      <trkpt lat="38.74327" lon="35.54048">
        <ele>1075.977295</ele>
        <time>2022-02-26T07:03:50.657Z</time>
      </trkpt>
      <trkpt lat="38.74324" lon="35.54028">
        <ele>1075.890769</ele>
        <time>2022-02-26T07:03:54.723Z</time>
      </trkpt>
      <trkpt lat="38.74322" lon="35.54001">
        <ele>1075.78236</ele>
        <time>2022-02-26T07:04:00.184Z</time>
      </trkpt>
      <trkpt lat="38.7432" lon="35.5396">
        <ele>1075.659978</ele>
        <time>2022-02-26T07:04:08.062Z</time>
      </trkpt>
      <trkpt lat="38.74322" lon="35.53959">
        <ele>1075.654865</ele>
        <time>2022-02-26T07:04:08.418Z</time>
      </trkpt>
      <trkpt lat="38.74323" lon="35.53953">
        <ele>1075.64045</ele>
        <time>2022-02-26T07:04:09.516Z</time>
      </trkpt>
      <trkpt lat="38.74313" lon="35.53901">
        <ele>1075.51544</ele>
        <time>2022-02-26T07:04:20.017Z</time>
      </trkpt>
      <trkpt lat="38.74298" lon="35.53823">
        <ele>1075.329763</ele>
        <time>2022-02-26T07:04:37.137Z</time>
      </trkpt>
      <trkpt lat="38.74293" lon="35.53801">
        <ele>1075.277053</ele>
        <time>2022-02-26T07:04:42.253Z</time>
      </trkpt>
      <trkpt lat="38.74283" lon="35.53661">
        <ele>1075.774444</ele>
        <time>2022-02-26T07:05:13.606Z</time>
      </trkpt>
      <trkpt lat="38.74282" lon="35.5366">
        <ele>1075.788833</ele>
        <time>2022-02-26T07:05:14.104Z</time>
      </trkpt>
      <trkpt lat="38.74321" lon="35.53635">
        <ele>1076.120998</ele>
        <time>2022-02-26T07:05:27.584Z</time>
      </trkpt>
      <trkpt lat="38.74318" lon="35.53626">
        <ele>1076.176791</ele>
        <time>2022-02-26T07:05:29.946Z</time>
      </trkpt>
      <trkpt lat="38.74316" lon="35.53613">
        <ele>1076.255732</ele>
        <time>2022-02-26T07:05:33.401Z</time>
      </trkpt>
      <trkpt lat="38.74315" lon="35.53604">
        <ele>1076.30873</ele>
        <time>2022-02-26T07:05:35.806Z</time>
      </trkpt>
      <trkpt lat="38.74314" lon="35.53592">
        <ele>1076.380905</ele>
        <time>2022-02-26T07:05:39.085Z</time>
      </trkpt>
      <trkpt lat="38.74311" lon="35.53571">
        <ele>1076.506069</ele>
        <time>2022-02-26T07:05:44.955Z</time>
      </trkpt>
      <trkpt lat="38.74309" lon="35.53556">
        <ele>1076.690625</ele>
        <time>2022-02-26T07:05:49.254Z</time>
      </trkpt>
      <trkpt lat="38.74308" lon="35.5355">
        <ele>1076.803185</ele>
        <time>2022-02-26T07:05:50.932Z</time>
      </trkpt>
      <trkpt lat="38.74305" lon="35.5353">
        <ele>1077.180795</ele>
        <time>2022-02-26T07:05:56.763Z</time>
      </trkpt>
      <trkpt lat="38.74293" lon="35.53479">
        <ele>1078.1659</ele>
        <time>2022-02-26T07:06:12.710Z</time>
      </trkpt>
      <trkpt lat="38.74267" lon="35.53381">
        <ele>1080.075191</ele>
        <time>2022-02-26T07:06:45.480Z</time>
      </trkpt>
      <trkpt lat="38.74307" lon="35.53358">
        <ele>1081.095404</ele>
        <time>2022-02-26T07:07:03.405Z</time>
      </trkpt>
      <trkpt lat="38.74285" lon="35.53278">
        <ele>1082.585086</ele>
        <time>2022-02-26T07:07:31.483Z</time>
      </trkpt>
      <trkpt lat="38.74326" lon="35.53248">
        <ele>1083.647631</ele>
        <time>2022-02-26T07:07:49.435Z</time>
      </trkpt>
      <trkpt lat="38.74299" lon="35.53153">
        <ele>1085.002104</ele>
        <time>2022-02-26T07:08:17.037Z</time>
      </trkpt>
      <trkpt lat="38.74274" lon="35.53143">
        <ele>1085.155625</ele>
        <time>2022-02-26T07:08:25.582Z</time>
      </trkpt>
      <trkpt lat="38.74362" lon="35.53042">
        <ele>1085.835593</ele>
        <time>2022-02-26T07:09:01.588Z</time>
      </trkpt>
      <trkpt lat="38.74439" lon="35.52958">
        <ele>1085.025106</ele>
        <time>2022-02-26T07:09:26.722Z</time>
      </trkpt>
      <trkpt lat="38.74416" lon="35.52894">
        <ele>1084.50198</ele>
        <time>2022-02-26T07:09:40.098Z</time>
      </trkpt>
      <trkpt lat="38.74429" lon="35.52877">
        <ele>1084.330375</ele>
        <time>2022-02-26T07:09:44.125Z</time>
      </trkpt>
      <trkpt lat="38.74447" lon="35.52854">
        <ele>1083.893671</ele>
        <time>2022-02-26T07:09:49.625Z</time>
      </trkpt>
      <trkpt lat="38.74465" lon="35.52832">
        <ele>1083.169007</ele>
        <time>2022-02-26T07:09:54.974Z</time>
      </trkpt>
      <trkpt lat="38.74467" lon="35.52835">
        <ele>1083.089268</ele>
        <time>2022-02-26T07:09:55.573Z</time>
      </trkpt>
      <trkpt lat="38.74477" lon="35.52838">
        <ele>1082.780723</ele>
        <time>2022-02-26T07:09:57.796Z</time>
      </trkpt>
      <trkpt lat="38.74483" lon="35.52826">
        <ele>1082.47176</ele>
        <time>2022-02-26T07:09:59.989Z</time>
      </trkpt>
      <trkpt lat="38.74482" lon="35.52823">
        <ele>1082.39133</ele>
        <time>2022-02-26T07:10:00.576Z</time>
      </trkpt>
      <trkpt lat="38.7449" lon="35.52819">
        <ele>1082.142791</ele>
        <time>2022-02-26T07:10:02.340Z</time>
      </trkpt>
      <trkpt lat="38.74437" lon="35.52642">
        <ele>1077.342254</ele>
        <time>2022-02-26T07:10:32.315Z</time>
      </trkpt>
      <trkpt lat="38.74421" lon="35.52589">
        <ele>1075.424478</ele>
        <time>2022-02-26T07:10:40.840Z</time>
      </trkpt>
      <trkpt lat="38.7439" lon="35.52492">
        <ele>1071.863353</ele>
        <time>2022-02-26T07:10:56.485Z</time>
      </trkpt>
      <trkpt lat="38.74353" lon="35.52371">
        <ele>1068.564372</ele>
        <time>2022-02-26T07:11:16.325Z</time>
      </trkpt>
      <trkpt lat="38.74329" lon="35.52291">
        <ele>1066.512242</ele>
        <time>2022-02-26T07:11:30.718Z</time>
      </trkpt>
      <trkpt lat="38.74303" lon="35.52205">
        <ele>1065.058131</ele>
        <time>2022-02-26T07:11:47.586Z</time>
      </trkpt>
      <trkpt lat="38.74289" lon="35.52178">
        <ele>1064.704769</ele>
        <time>2022-02-26T07:11:53.634Z</time>
      </trkpt>
      <trkpt lat="38.74255" lon="35.52066">
        <ele>1063.381294</ele>
        <time>2022-02-26T07:12:14.622Z</time>
      </trkpt>
      <trkpt lat="38.74241" lon="35.52019">
        <ele>1062.715284</ele>
        <time>2022-02-26T07:12:23.259Z</time>
      </trkpt>
      <trkpt lat="38.74225" lon="35.51966">
        <ele>1061.886442</ele>
        <time>2022-02-26T07:12:32.603Z</time>
      </trkpt>
      <trkpt lat="38.74224" lon="35.51961">
        <ele>1061.806626</ele>
        <time>2022-02-26T07:12:33.471Z</time>
      </trkpt>
      <trkpt lat="38.7421" lon="35.51918">
        <ele>1061.127183</ele>
        <time>2022-02-26T07:12:41.094Z</time>
      </trkpt>
      <trkpt lat="38.74207" lon="35.51916">
        <ele>1061.052856</ele>
        <time>2022-02-26T07:12:41.930Z</time>
      </trkpt>
      <trkpt lat="38.74191" lon="35.51915">
        <ele>1060.761548</ele>
        <time>2022-02-26T07:12:45.261Z</time>
      </trkpt>
      <trkpt lat="38.7418" lon="35.51928">
        <ele>1060.472557</ele>
        <time>2022-02-26T07:12:48.362Z</time>
      </trkpt>
      <trkpt lat="38.74179" lon="35.51933">
        <ele>1060.39815</ele>
        <time>2022-02-26T07:12:49.171Z</time>
      </trkpt>
      <trkpt lat="38.74177" lon="35.5194">
        <ele>1060.28081</ele>
        <time>2022-02-26T07:12:50.515Z</time>
      </trkpt>
      <trkpt lat="38.74166" lon="35.51961">
        <ele>1059.92637</ele>
        <time>2022-02-26T07:12:54.452Z</time>
      </trkpt>
      <trkpt lat="38.74148" lon="35.51977">
        <ele>1059.637743</ele>
        <time>2022-02-26T07:12:59.149Z</time>
      </trkpt>
      <trkpt lat="38.74139" lon="35.51981">
        <ele>1059.537999</ele>
        <time>2022-02-26T07:13:01.266Z</time>
      </trkpt>
      <trkpt lat="38.74103" lon="35.51996">
        <ele>1059.156528</ele>
        <time>2022-02-26T07:13:09.654Z</time>
      </trkpt>
      <trkpt lat="38.74034" lon="35.51772">
        <ele>1057.995974</ele>
        <time>2022-02-26T07:13:57.394Z</time>
      </trkpt>
      <trkpt lat="38.73975" lon="35.51581">
        <ele>1058.235674</ele>
        <time>2022-02-26T07:14:45.823Z</time>
      </trkpt>
      <trkpt lat="38.7397" lon="35.51563">
        <ele>1058.289998</ele>
        <time>2022-02-26T07:14:50.431Z</time>
      </trkpt>
      <trkpt lat="38.73944" lon="35.51476">
        <ele>1058.556476</ele>
        <time>2022-02-26T07:15:12.135Z</time>
      </trkpt>
      <trkpt lat="38.73936" lon="35.51448">
        <ele>1058.63942</ele>
        <time>2022-02-26T07:15:18.734Z</time>
      </trkpt>
      <trkpt lat="38.73929" lon="35.51422">
        <ele>1058.696244</ele>
        <time>2022-02-26T07:15:24.756Z</time>
      </trkpt>
      <trkpt lat="38.73919" lon="35.51387">
        <ele>1058.585266</ele>
        <time>2022-02-26T07:15:32.804Z</time>
      </trkpt>
      <trkpt lat="38.73906" lon="35.51345">
        <ele>1058.448011</ele>
        <time>2022-02-26T07:15:42.447Z</time>
      </trkpt>
      <trkpt lat="38.73858" lon="35.51186">
        <ele>1058.025698</ele>
        <time>2022-02-26T07:16:15.832Z</time>
      </trkpt>
      <trkpt lat="38.73856" lon="35.5118">
        <ele>1058.027969</ele>
        <time>2022-02-26T07:16:17.060Z</time>
      </trkpt>
      <trkpt lat="38.73826" lon="35.5108">
        <ele>1058.067942</ele>
        <time>2022-02-26T07:16:39.759Z</time>
      </trkpt>
      <trkpt lat="38.73818" lon="35.51055">
        <ele>1058.078048</ele>
        <time>2022-02-26T07:16:45.992Z</time>
      </trkpt>
      <trkpt lat="38.73791" lon="35.50964">
        <ele>1058.331767</ele>
        <time>2022-02-26T07:17:09.351Z</time>
      </trkpt>
      <trkpt lat="38.7378" lon="35.50928">
        <ele>1058.587998</ele>
        <time>2022-02-26T07:17:18.903Z</time>
      </trkpt>
      <trkpt lat="38.73762" lon="35.50869">
        <ele>1059.014622</ele>
        <time>2022-02-26T07:17:35.569Z</time>
      </trkpt>
      <trkpt lat="38.73689" lon="35.5063">
        <ele>1060.172127</ele>
        <time>2022-02-26T07:18:38.566Z</time>
      </trkpt>
      <trkpt lat="38.7366" lon="35.50535">
        <ele>1060.28401</ele>
        <time>2022-02-26T07:18:59.607Z</time>
      </trkpt>
      <trkpt lat="38.73637" lon="35.50445">
        <ele>1059.958998</ele>
        <time>2022-02-26T07:19:18.768Z</time>
      </trkpt>
      <trkpt lat="38.73633" lon="35.50433">
        <ele>1059.91573</ele>
        <time>2022-02-26T07:19:21.321Z</time>
      </trkpt>
      <trkpt lat="38.73614" lon="35.50376">
        <ele>1059.70701</ele>
        <time>2022-02-26T07:19:33.629Z</time>
      </trkpt>
      <trkpt lat="38.73531" lon="35.50126">
        <ele>1058.680069</ele>
        <time>2022-02-26T07:20:28.838Z</time>
      </trkpt>
      <trkpt lat="38.7347" lon="35.49943">
        <ele>1057.476425</ele>
        <time>2022-02-26T07:21:07.000Z</time>
      </trkpt>
      <trkpt lat="38.73439" lon="35.49848">
        <ele>1057.207198</ele>
        <time>2022-02-26T07:21:27.349Z</time>
      </trkpt>
      <trkpt lat="38.73308" lon="35.49455">
        <ele>1057.225847</ele>
        <time>2022-02-26T07:23:00.684Z</time>
      </trkpt>
      <trkpt lat="38.73297" lon="35.49423">
        <ele>1057.363821</ele>
        <time>2022-02-26T07:23:08.486Z</time>
      </trkpt>
      <trkpt lat="38.73286" lon="35.49384">
        <ele>1057.53384</ele>
        <time>2022-02-26T07:23:18.427Z</time>
      </trkpt>
      <trkpt lat="38.73279" lon="35.49361">
        <ele>1057.634031</ele>
        <time>2022-02-26T07:23:24.589Z</time>
      </trkpt>
      <trkpt lat="38.73232" lon="35.49203">
        <ele>1058.170662</ele>
        <time>2022-02-26T07:24:06.248Z</time>
      </trkpt>
      <trkpt lat="38.73207" lon="35.49119">
        <ele>1058.38236</ele>
        <time>2022-02-26T07:24:27.270Z</time>
      </trkpt>
      <trkpt lat="38.73107" lon="35.4879">
        <ele>1057.270596</ele>
        <time>2022-02-26T07:25:37.371Z</time>
      </trkpt>
      <trkpt lat="38.73095" lon="35.4876">
        <ele>1057.154884</ele>
        <time>2022-02-26T07:25:43.859Z</time>
      </trkpt>
      <trkpt lat="38.73096" lon="35.48759">
        <ele>1057.148069</ele>
        <time>2022-02-26T07:25:44.213Z</time>
      </trkpt>
      <trkpt lat="38.73098" lon="35.48756">
        <ele>1057.134831</ele>
        <time>2022-02-26T07:25:44.965Z</time>
      </trkpt>
      <trkpt lat="38.73099" lon="35.48752">
        <ele>1057.121626</ele>
        <time>2022-02-26T07:25:45.692Z</time>
      </trkpt>
      <trkpt lat="38.73099" lon="35.48749">
        <ele>1057.108344</ele>
        <time>2022-02-26T07:25:46.443Z</time>
      </trkpt>
      <trkpt lat="38.73093" lon="35.4874">
        <ele>1057.0695</ele>
        <time>2022-02-26T07:25:48.511Z</time>
      </trkpt>
      <trkpt lat="38.73091" lon="35.48739">
        <ele>1057.056386</ele>
        <time>2022-02-26T07:25:49.231Z</time>
      </trkpt>
      <trkpt lat="38.73088" lon="35.48739">
        <ele>1057.042947</ele>
        <time>2022-02-26T07:25:49.978Z</time>
      </trkpt>
      <trkpt lat="38.73085" lon="35.4874">
        <ele>1057.029727</ele>
        <time>2022-02-26T07:25:50.691Z</time>
      </trkpt>
      <trkpt lat="38.73082" lon="35.48742">
        <ele>1057.016664</ele>
        <time>2022-02-26T07:25:51.437Z</time>
      </trkpt>
      <trkpt lat="38.73081" lon="35.48745">
        <ele>1057.003164</ele>
        <time>2022-02-26T07:25:52.166Z</time>
      </trkpt>
      <trkpt lat="38.7308" lon="35.48749">
        <ele>1056.989752</ele>
        <time>2022-02-26T07:25:52.899Z</time>
      </trkpt>
      <trkpt lat="38.73029" lon="35.48842">
        <ele>1056.759773</ele>
        <time>2022-02-26T07:26:15.822Z</time>
      </trkpt>
      <trkpt lat="38.73014" lon="35.48824">
        <ele>1056.787697</ele>
        <time>2022-02-26T07:26:21.439Z</time>
      </trkpt>
      <trkpt lat="38.72999" lon="35.48783">
        <ele>1056.836104</ele>
        <time>2022-02-26T07:26:31.762Z</time>
      </trkpt>
      <trkpt lat="38.72978" lon="35.48726">
        <ele>1056.903562</ele>
        <time>2022-02-26T07:26:45.651Z</time>
      </trkpt>
      <trkpt lat="38.72973" lon="35.48711">
        <ele>1056.9212</ele>
        <time>2022-02-26T07:26:49.234Z</time>
      </trkpt>
      <trkpt lat="38.72947" lon="35.48637">
        <ele>1056.92571</ele>
        <time>2022-02-26T07:27:06.165Z</time>
      </trkpt>
      <trkpt lat="38.72913" lon="35.48539">
        <ele>1056.812968</ele>
        <time>2022-02-26T07:27:28.228Z</time>
      </trkpt>
      <trkpt lat="38.72887" lon="35.48466">
        <ele>1056.729663</ele>
        <time>2022-02-26T07:27:43.971Z</time>
      </trkpt>
      <trkpt lat="38.72862" lon="35.48392">
        <ele>1056.636837</ele>
        <time>2022-02-26T07:27:59.697Z</time>
      </trkpt>
      <trkpt lat="38.72857" lon="35.48379">
        <ele>1056.620962</ele>
        <time>2022-02-26T07:28:02.464Z</time>
      </trkpt>
      <trkpt lat="38.72829" lon="35.48298">
        <ele>1056.519297</ele>
        <time>2022-02-26T07:28:19.966Z</time>
      </trkpt>
      <trkpt lat="38.72756" lon="35.48334">
        <ele>1056.45962</ele>
        <time>2022-02-26T07:28:43.275Z</time>
      </trkpt>
      <trkpt lat="38.72703" lon="35.48358">
        <ele>1056.45962</ele>
        <time>2022-02-26T07:29:00.173Z</time>
      </trkpt>
      <trkpt lat="38.72616" lon="35.48398">
        <ele>1056.45962</ele>
        <time>2022-02-26T07:29:28.592Z</time>
      </trkpt>
      <trkpt lat="38.72551" lon="35.48428">
        <ele>1056.45962</ele>
        <time>2022-02-26T07:29:49.739Z</time>
      </trkpt>
    </trkseg>
  </trk>
</gpx>